
Distance (Route):
Temperature : 11.8°C
Humidity : 69.9%
Pressure : 899.2hPa| Receiver | Frames | First received | Last received |
|---|---|---|---|
| BIOWL1-15 | 852 | 2026-09-02 22:46:10 | 2026-09-03 01:21:49 |
| DM0DOS-11 | 803 | 2026-09-02 22:45:40 | 2026-09-03 01:21:44 |
| DL1XH-west | 585 | 2026-09-02 23:07:40 | 2026-09-03 01:00:11 |
| HSKMA3-T | 583 | 2026-09-02 23:14:03 | 2026-09-03 01:15:20 |
| DL1NUX | 428 | 2026-09-02 23:24:09 | 2026-09-03 01:10:45 |
| DL1XH1-15 | 393 | 2026-09-02 23:08:08 | 2026-09-03 00:58:52 |
| AA1-15 | 344 | 2026-09-02 23:30:58 | 2026-09-03 00:48:41 |
| DL1XH-15 | 275 | 2026-09-02 23:23:03 | 2026-09-03 00:51:11 |
| DO3DL | 224 | 2026-09-02 22:45:16 | 2026-09-03 01:12:27 |
| DD8BA-10 | 205 | 2026-09-02 22:53:54 | 2026-09-03 01:03:14 |
| DJ2DS-15 | 156 | 2026-09-02 22:56:55 | 2026-09-03 01:05:28 |
| DL3AQ-11 | 152 | 2026-09-02 23:05:49 | 2026-09-03 01:04:18 |
| DB0UT-7 | 126 | 2026-09-02 22:49:44 | 2026-09-03 01:23:32 |
| DO3MHA-11 | 107 | 2026-09-02 23:30:20 | 2026-09-03 00:52:46 |
| GOEST3-10 | 101 | 2026-09-02 23:52:46 | 2026-09-03 00:43:47 |
| DJ8HS-15 | 90 | 2026-09-02 23:21:08 | 2026-09-03 01:13:31 |
| DO3MHA-12 | 87 | 2026-09-02 23:33:28 | 2026-09-03 00:53:35 |
| BIOWL9-15 | 83 | 2026-09-02 22:47:18 | 2026-09-03 01:19:28 |
| DO9LL-15 | 80 | 2026-09-02 22:46:58 | 2026-09-03 01:11:50 |
| DO2JMG | 77 | 2026-09-02 23:09:33 | 2026-09-03 00:56:19 |
| DL4BBY-15 | 73 | 2026-09-02 22:57:15 | 2026-09-03 01:07:32 |
| DB0NH | 73 | 2026-09-02 23:14:36 | 2026-09-03 01:19:45 |
| DH3RM | 71 | 2026-09-02 22:48:22 | 2026-09-02 23:20:16 |
| DD1CC8 | 67 | 2026-09-02 22:52:45 | 2026-09-03 01:18:10 |
| DD1CC3-15 | 63 | 2026-09-02 22:46:51 | 2026-09-03 01:18:19 |
| DO1YAY-16 | 61 | 2026-09-02 22:49:54 | 2026-09-03 00:56:17 |
| DL8DAS-14 | 60 | 2026-09-02 22:50:02 | 2026-09-03 01:06:03 |
| DB0ND-19 | 59 | 2026-09-02 23:04:46 | 2026-09-03 01:20:48 |
| AU51GT2 | 57 | 2026-09-02 22:52:01 | 2026-09-03 01:00:50 |
| DJ2KF-10 | 56 | 2026-09-02 22:57:05 | 2026-09-03 00:52:26 |
| HARRO8 | 56 | 2026-09-02 23:24:02 | 2026-09-03 01:18:56 |
| DF8AY | 56 | 2026-09-02 23:47:00 | 2026-09-03 00:39:29 |
| SO1NDE-10 | 55 | 2026-09-02 23:24:17 | 2026-09-03 01:08:52 |
| DO2KSM | 54 | 2026-09-02 22:47:03 | 2026-09-03 01:07:14 |
| WPPR-10 | 51 | 2026-09-02 22:47:05 | 2026-09-03 00:52:53 |
| DF7PN | 51 | 2026-09-02 23:30:26 | 2026-09-03 01:19:41 |
| BUE01 | 44 | 2026-09-02 23:06:57 | 2026-09-03 01:01:50 |
| SONCRA | 44 | 2026-09-02 23:21:44 | 2026-09-03 01:13:07 |
| DL8DAS-15 | 38 | 2026-09-02 22:46:51 | 2026-09-03 01:05:26 |
| NBG1-10 | 36 | 2026-09-02 23:15:18 | 2026-09-03 01:18:36 |
| HTAHTA | 32 | 2026-09-02 23:00:22 | 2026-09-03 00:38:11 |
| DD1CC1-15 | 30 | 2026-09-02 22:48:23 | 2026-09-03 00:19:23 |
| DK9SH | 26 | 2026-09-02 22:51:10 | 2026-09-03 00:51:58 |
| BIOWL7-15 | 23 | 2026-09-02 22:49:15 | 2026-09-03 01:16:13 |
| EDDB2-11 | 23 | 2026-09-02 23:49:14 | 2026-09-03 00:52:52 |
| DL3OBA | 18 | 2026-09-02 23:42:03 | 2026-09-03 00:39:47 |
| AM1SDL-15 | 15 | 2026-09-02 23:31:37 | 2026-09-03 00:50:37 |
| DJ3KS | 10 | 2026-09-02 22:55:59 | 2026-09-03 00:54:16 |
| DB0DAN | 10 | 2026-09-03 00:04:25 | 2026-09-03 01:07:25 |
| DL1CLM-18 | 9 | 2026-09-02 23:43:32 | 2026-09-03 00:54:46 |
| DL4XJ-10 | 9 | 2026-09-03 00:01:25 | 2026-09-03 00:51:34 |
| DJTTGO | 8 | 2026-09-02 23:58:36 | 2026-09-03 00:42:06 |
| DL8OAI-8 | 8 | 2026-09-03 00:54:38 | 2026-09-03 01:12:19 |
| DL1LOL-11 | 7 | 2026-09-02 23:08:10 | 2026-09-03 01:03:45 |
| DC6BW-12 | 1 | 2026-09-02 22:58:23 | 2026-09-02 22:58:23 |
| Receiver | Date | Latitude | Longitude | Direction | Speed | Altitude | Climb | Temperature | Humidity | Pressure | Voltage | Killtimer | Uptime | BKT | XDATA |
|---|---|---|---|---|---|---|---|---|---|---|---|---|---|---|---|
| DB0UT-7 | 2026-09-03 01:23:32 | 50.72375 | 9.00799 | 88° | 37km/h | 1113m | -4.0m/s | 11.8°C | 69.9% | 899.2hPa | 2.7V | 00:00:00 | 00:00:00 | 00:00:00 | |
| DB0UT-7 | 2026-09-03 01:23:14 | 50.72378 | 9.00547 | 88° | 35km/h | 1186m | -4.3m/s | 11.1°C | 74.8% | 891.2hPa | 2.7V | 00:00:00 | 03:05:42 | 00:00:00 | |
| DB0UT-7 | 2026-09-03 01:23:04 | 50.72381 | 9.00405 | 91° | 37km/h | 1226m | -4.0m/s | 10.8°C | 75.2% | 887.1hPa | 2.7V | 00:00:00 | 00:00:00 | 00:00:00 | |
| DB0UT-7 | 2026-09-03 01:22:54 | 50.72388 | 9.00260 | 97° | 37km/h | 1266m | -4.3m/s | 10.4°C | 76.7% | 882.6hPa | 2.7V | 00:00:00 | 03:05:22 | 00:00:00 | |
| DB0UT-7 | 2026-09-03 01:22:44 | 50.72393 | 9.00116 | 95° | 38km/h | 1308m | -4.2m/s | 10.1°C | 78.4% | 878.5hPa | 2.7V | 00:00:00 | 00:00:00 | 00:00:00 | |
| DB0UT-7 | 2026-09-03 01:22:34 | 50.72400 | 8.99962 | 90° | 38km/h | 1348m | -3.9m/s | 9.8°C | 79.3% | 874.2hPa | 2.7V | 00:00:00 | 03:05:02 | 00:00:00 | |
| DB0UT-7 | 2026-09-03 01:22:24 | 50.72405 | 8.99810 | 94° | 37km/h | 1389m | -4.1m/s | 9.5°C | 81.0% | 869.8hPa | 2.7V | 00:00:00 | 00:00:00 | 00:00:00 | |
| DB0UT-7 | 2026-09-03 01:22:14 | 50.72412 | 8.99664 | 92° | 37km/h | 1430m | -4.1m/s | 9.2°C | 80.6% | 865.6hPa | 2.7V | 07:40:00 | 03:04:42 | 00:00:00 | |
| BIOWL1-15 | 2026-09-03 01:21:49 | 50.72399 | 8.99291 | 85° | 37km/h | 1530m | -4m/s | 8.7°C | 78% | 855.2hPa | 2.7V | 07:41:41 | 03:04:17 | 00:00:00 | |
| DM0DOS-11 | 2026-09-03 01:21:44 | 50.72388 | 8.99136 | 81° | 40km/h | 1571m | -4m/s | 8.6°C | 76.8% | 851hPa | 2.7V | 07:41:10 | 03:04:07 | 00:00:00 | |
| BIOWL1-15 | 2026-09-03 01:21:40 | 50.72390 | 8.99152 | 81° | 40km/h | 1567m | -4m/s | 8.6°C | 80% | 851.4hPa | 2.7V | 07:41:41 | 03:04:08 | 00:00:00 | |
| DM0DOS-11 | 2026-09-03 01:21:39 | 50.72381 | 8.99059 | 81° | 40km/h | 1591m | -4.5m/s | 8.5°C | 73.3% | 848.9hPa | 2.6V | 07:41:15 | 03:04:02 | 00:00:00 | |
| BIOWL1-15 | 2026-09-03 01:21:38 | 50.72387 | 8.99120 | 83° | 40km/h | 1575m | -4.2m/s | 8.6°C | 79.9% | 850.4hPa | 2.7V | 07:41:41 | 03:04:06 | 00:00:00 | |
| DM0DOS-11 | 2026-09-03 01:21:34 | 50.72378 | 8.99001 | 87° | 33km/h | 1607m | -4.1m/s | 8.6°C | 68.9% | 847.2hPa | 2.7V | 07:41:19 | 03:03:58 | 00:00:00 | |
| BIOWL1-15 | 2026-09-03 01:21:31 | 50.72379 | 8.99015 | 88° | 35km/h | 1603m | -3.7m/s | 8.6°C | 72.5% | 847.7hPa | 2.7V | 07:41:41 | 03:03:59 | 00:00:00 | |
| BIOWL1-15 | 2026-09-03 01:21:30 | 50.72377 | 8.98974 | 88° | 35km/h | 1616m | -4.4m/s | 8.7°C | 75.5% | 846.4hPa | 2.6V | 07:41:41 | 03:03:56 | 00:00:00 | |
| BIOWL1-15 | 2026-09-03 01:21:27 | 50.72377 | 8.98960 | 90° | 35km/h | 1620m | -4.1m/s | 8.7°C | 75.8% | 845.9hPa | 2.7V | 07:41:41 | 03:03:55 | 00:00:00 | |
| BIOWL1-15 | 2026-09-03 01:21:25 | 50.72373 | 8.98896 | 78° | 33km/h | 1640m | -3.7m/s | 8.9°C | 73.2% | 843.8hPa | 2.6V | 07:41:41 | 03:03:50 | 00:00:00 | |
| BIOWL1-15 | 2026-09-03 01:21:25 | 50.72372 | 8.98883 | 78° | 33km/h | 1643m | -3.8m/s | 8.9°C | 72.7% | 843.5hPa | 2.7V | 07:41:41 | 03:03:49 | 00:00:00 | |
| BIOWL1-15 | 2026-09-03 01:21:20 | 50.72370 | 8.98870 | 79° | 35km/h | 1647m | -3.7m/s | 8.9°C | 71.9% | 843.2hPa | 2.7V | 07:41:41 | 03:03:48 | 00:00:00 | |
| BIOWL1-15 | 2026-09-03 01:21:18 | 50.72366 | 8.98832 | 81° | 29km/h | 1659m | -4.1m/s | 9°C | 71% | 842hPa | 2.7V | 07:41:41 | 03:03:45 | 00:00:00 | |
| BIOWL1-15 | 2026-09-03 01:21:18 | 50.72365 | 8.98820 | 79° | 31km/h | 1663m | -4.2m/s | 9°C | 70.8% | 841.4hPa | 2.7V | 07:41:41 | 03:03:44 | 00:00:00 | |
| BIOWL1-15 | 2026-09-03 01:21:14 | 50.72362 | 8.98784 | 84° | 29km/h | 1675m | -4m/s | 9°C | 69.9% | 840.2hPa | 2.6V | 07:41:41 | 03:03:41 | 00:00:00 | |
| BIOWL1-15 | 2026-09-03 01:21:14 | 50.72361 | 8.98772 | 83° | 29km/h | 1679m | -4.3m/s | 9°C | 69.9% | 839.9hPa | 2.6V | 07:41:41 | 03:03:40 | 00:00:00 | |
| DB0UT-7 | 2026-09-03 01:21:14 | 50.72362 | 8.98796 | 83° | 29km/h | 1671m | -3.9m/s | 9.0°C | 64.7% | 840.7hPa | 2.7V | 00:00:00 | 03:03:42 | 00:00:00 | |
| DM0DOS-11 | 2026-09-03 01:21:10 | 50.72357 | 8.98725 | 86° | 29km/h | 1695m | -4.2m/s | 9°C | 63.5% | 838.2hPa | 2.7V | 07:41:41 | 03:03:36 | 00:00:00 | |
| BIOWL1-15 | 2026-09-03 01:21:10 | 50.72359 | 8.98749 | 82° | 31km/h | 1687m | -4.2m/s | 9°C | 69.2% | 838.9hPa | 2.7V | 07:41:41 | 03:03:38 | 00:00:00 | |
| BIOWL1-15 | 2026-09-03 01:21:09 | 50.72358 | 8.98737 | 85° | 31km/h | 1691m | -4.2m/s | 9°C | 69.1% | 838.5hPa | 2.7V | 07:41:41 | 03:03:37 | 00:00:00 | |
| BIOWL1-15 | 2026-09-03 01:21:08 | 50.72357 | 8.98725 | 87° | 29km/h | 1695m | -4.2m/s | 9°C | 69.1% | 838.2hPa | 2.7V | 07:41:41 | 03:03:36 | 00:00:00 | |
| BIOWL1-15 | 2026-09-03 01:21:06 | 50.72356 | 8.98702 | 82° | 27km/h | 1704m | -4m/s | 9°C | 69.3% | 837.4hPa | 2.7V | 07:42:32 | 03:03:34 | 00:00:00 | |
| BIOWL1-15 | 2026-09-03 01:21:04 | 50.72354 | 8.98680 | 82° | 29km/h | 1711m | -4m/s | 8.9°C | 69.4% | 836.5hPa | 2.7V | 07:42:32 | 03:03:32 | 00:00:00 | |
| BIOWL1-15 | 2026-09-03 01:21:02 | 50.72352 | 8.98657 | 87° | 27km/h | 1720m | -4m/s | 8.9°C | 70.7% | 835.7hPa | 2.6V | 07:42:32 | 03:03:30 | 00:00:00 | |
| BIOWL1-15 | 2026-09-03 01:21:00 | 50.72351 | 8.98636 | 81° | 26km/h | 1728m | -3.9m/s | 8.9°C | 76.1% | 834.9hPa | 2.7V | 07:42:32 | 03:03:28 | 00:00:00 | |
| BIOWL1-15 | 2026-09-03 01:20:58 | 50.72347 | 8.98570 | 84° | 29km/h | 1752m | -4.4m/s | 8.7°C | 77.6% | 832.5hPa | 2.7V | 07:42:32 | 03:03:22 | 00:00:00 | |
| DM0DOS-11 | 2026-09-03 01:20:58 | 50.72346 | 8.98558 | 85° | 29km/h | 1756m | -4.1m/s | 8.6°C | 71.8% | 832hPa | 2.7V | 07:41:56 | 03:03:21 | 00:00:00 | |
| BIOWL1-15 | 2026-09-03 01:20:57 | 50.72340 | 8.98483 | 85° | 33km/h | 1784m | -4.1m/s | 8.4°C | 75.5% | 829.2hPa | 2.6V | 07:42:32 | 03:03:14 | 00:00:00 | |
| DB0UT-7 | 2026-09-03 01:20:54 | 50.72347 | 8.98570 | 85° | 29km/h | 1752m | -4.4m/s | 8.6°C | 71.9% | 832.4hPa | 2.7V | 07:41:00 | 03:03:22 | 00:00:00 | |
| DM0DOS-11 | 2026-09-03 01:20:52 | 50.72345 | 8.98537 | 88° | 26km/h | 1764m | -3.8m/s | 8.6°C | 71.5% | 831.2hPa | 2.7V | 07:41:58 | 03:03:19 | 00:00:00 | |
| BIOWL1-15 | 2026-09-03 01:20:51 | 50.72340 | 8.98470 | 90° | 33km/h | 1788m | -3.9m/s | 8.4°C | 74.3% | 828.8hPa | 2.6V | 07:42:32 | 03:03:13 | 00:00:00 | |
| DB0ND-19 | 2026-09-03 01:20:48 | 50.72343 | 8.98507 | 76° | 27km/h | 1776m | -4.0m/s | 8.5°C | 70.2% | 829.9hPa | 2.6V | 00:00:00 | 00:00:00 | 00:00:00 | |
| DM0DOS-11 | 2026-09-03 01:20:47 | 50.72340 | 8.98470 | 89° | 33km/h | 1788m | -3.9m/s | 8.4°C | 68.2% | 828.7hPa | 2.6V | 07:42:04 | 03:03:13 | 00:00:00 | |
| DM0DOS-11 | 2026-09-03 01:20:47 | 50.72341 | 8.98445 | 98° | 29km/h | 1796m | -4.1m/s | 8.4°C | 66.6% | 828hPa | 2.7V | 07:42:06 | 03:03:11 | 00:00:00 | |
| BIOWL1-15 | 2026-09-03 01:20:46 | 50.72340 | 8.98457 | 94° | 31km/h | 1792m | -4.3m/s | 8.4°C | 72.3% | 828.4hPa | 2.7V | 07:42:32 | 03:03:12 | 00:00:00 | |
| BIOWL1-15 | 2026-09-03 01:20:42 | 50.72343 | 8.98425 | 99° | 24km/h | 1804m | -4.2m/s | 8.4°C | 69.3% | 827.1hPa | 2.7V | 07:42:32 | 03:03:09 | 00:00:00 | |
| BIOWL1-15 | 2026-09-03 01:20:42 | 50.72344 | 8.98415 | 95° | 22km/h | 1808m | -4m/s | 8.4°C | 67.9% | 826.7hPa | 2.7V | 07:42:32 | 03:03:08 | 00:00:00 | |
| BIOWL1-15 | 2026-09-03 01:20:39 | 50.72344 | 8.98407 | 89° | 22km/h | 1812m | -3.7m/s | 8.3°C | 68.3% | 826.4hPa | 2.6V | 07:42:32 | 03:03:07 | 00:00:00 | |
| BIOWL1-15 | 2026-09-03 01:20:38 | 50.72344 | 8.98398 | 84° | 22km/h | 1816m | -3.8m/s | 8.3°C | 67.7% | 826hPa | 2.7V | 07:42:32 | 03:03:06 | 00:00:00 | |
| BIOWL1-15 | 2026-09-03 01:20:36 | 50.72343 | 8.98349 | 92° | 24km/h | 1835m | -4.4m/s | 8.1°C | 69.1% | 824hPa | 2.7V | 07:42:32 | 03:03:01 | 00:00:00 | |
| BIOWL1-15 | 2026-09-03 01:20:36 | 50.72343 | 8.98339 | 89° | 24km/h | 1839m | -4.4m/s | 8.1°C | 69.5% | 823.5hPa | 2.7V | 07:42:32 | 03:03:00 | 00:00:00 | |
| DM0DOS-11 | 2026-09-03 01:20:34 | 50.72344 | 8.98310 | 93° | 24km/h | 1853m | -4.4m/s | 7.9°C | 65.8% | 822.2hPa | 2.6V | 07:42:20 | 03:02:57 | 00:00:00 | |
| BIOWL1-15 | 2026-09-03 01:20:31 | 50.72343 | 8.98329 | 89° | 26km/h | 1844m | -4.4m/s | 8°C | 69.9% | 823hPa | 2.7V | 07:42:32 | 03:02:59 | 00:00:00 | |
| BIOWL1-15 | 2026-09-03 01:20:30 | 50.72343 | 8.98319 | 94° | 26km/h | 1848m | -4.6m/s | 8°C | 70.7% | 822.8hPa | 2.6V | 07:42:32 | 03:02:58 | 00:00:00 | |
| DM0DOS-11 | 2026-09-03 01:20:28 | 50.72344 | 8.98291 | 89° | 24km/h | 1861m | -4.4m/s | 7.9°C | 66.2% | 821.3hPa | 2.7V | 07:42:22 | 03:02:55 | 00:00:00 | |
| DM0DOS-11 | 2026-09-03 01:20:28 | 50.72345 | 8.98250 | 89° | 26km/h | 1879m | -4.5m/s | 7.8°C | 66.3% | 819.6hPa | 2.7V | 07:42:26 | 03:02:51 | 00:00:00 | |
| BIOWL1-15 | 2026-09-03 01:20:28 | 50.72344 | 8.98270 | 94° | 26km/h | 1870m | -4.4m/s | 7.8°C | 71.9% | 820.5hPa | 2.7V | 07:42:32 | 03:02:53 | 00:00:00 | |
| BIOWL1-15 | 2026-09-03 01:20:23 | 50.72345 | 8.98250 | 89° | 26km/h | 1879m | -4.5m/s | 7.8°C | 71.7% | 819.6hPa | 2.7V | 07:42:32 | 03:02:51 | 00:00:00 | |
| DM0DOS-11 | 2026-09-03 01:20:22 | 50.72345 | 8.98187 | 85° | 27km/h | 1904m | -4.5m/s | 7.6°C | 67% | 817.2hPa | 2.7V | 07:42:32 | 03:02:45 | 00:00:00 | |
| BIOWL1-15 | 2026-09-03 01:20:21 | 50.72345 | 8.98229 | 91° | 27km/h | 1887m | -4.4m/s | 7.7°C | 71.6% | 818.7hPa | 2.7V | 07:42:32 | 03:02:49 | 00:00:00 | |
| BIOWL1-15 | 2026-09-03 01:20:19 | 50.72345 | 8.98208 | 90° | 26km/h | 1896m | -4.3m/s | 7.6°C | 72.7% | 817.9hPa | 2.6V | 07:42:32 | 03:02:47 | 00:00:00 | |
| BIOWL1-15 | 2026-09-03 01:20:18 | 50.72345 | 8.98198 | 86° | 26km/h | 1900m | -4.2m/s | 7.6°C | 72.8% | 817.6hPa | 2.7V | 07:42:32 | 03:02:46 | 00:00:00 | |
| BIOWL1-15 | 2026-09-03 01:20:17 | 50.72344 | 8.98187 | 85° | 27km/h | 1904m | -4.5m/s | 7.6°C | 72.3% | 817.2hPa | 2.7V | 07:42:32 | 03:02:45 | 00:00:00 | |
| DM0DOS-11 | 2026-09-03 01:20:16 | 50.72344 | 8.98164 | 93° | 29km/h | 1913m | -4.3m/s | 7.5°C | 68.2% | 816.3hPa | 2.7V | 07:42:34 | 03:02:43 | 00:00:00 | |
| DM0DOS-11 | 2026-09-03 01:20:16 | 50.72348 | 8.98120 | 91° | 24km/h | 1929m | -4m/s | 7.4°C | 71% | 814.6hPa | 2.7V | 07:42:38 | 03:02:39 | 00:00:00 | |
| BIOWL1-15 | 2026-09-03 01:20:15 | 50.72344 | 8.98164 | 94° | 29km/h | 1913m | -4.3m/s | 7.6°C | 73.2% | 816.3hPa | 2.7V | 07:43:23 | 03:02:43 | 00:00:00 | |
| BIOWL1-15 | 2026-09-03 01:20:13 | 50.72347 | 8.98110 | 86° | 26km/h | 1933m | -4.2m/s | 7.4°C | 75.9% | 814.3hPa | 2.6V | 07:43:23 | 03:02:38 | 00:00:00 | |
| BIOWL1-15 | 2026-09-03 01:20:13 | 50.72347 | 8.98100 | 84° | 27km/h | 1937m | -4.1m/s | 7.3°C | 75.9% | 813.7hPa | 2.6V | 07:43:23 | 03:02:37 | 00:00:00 | |
| DM0DOS-11 | 2026-09-03 01:20:10 | 50.72347 | 8.98100 | 84° | 27km/h | 1937m | -4.1m/s | 7.3°C | 71.4% | 813.7hPa | 2.6V | 07:42:40 | 03:02:37 | 00:00:00 | |
| DM0DOS-11 | 2026-09-03 01:20:10 | 50.72346 | 8.98076 | 89° | 31km/h | 1945m | -4.3m/s | 7.3°C | 72% | 813.1hPa | 2.7V | 07:42:42 | 03:02:35 | 00:00:00 | |
| DM0DOS-11 | 2026-09-03 01:20:10 | 50.72346 | 8.98052 | 91° | 29km/h | 1953m | -4m/s | 7.3°C | 72.5% | 812.2hPa | 2.7V | 07:42:44 | 03:02:33 | 00:00:00 | |
| BIOWL1-15 | 2026-09-03 01:20:08 | 50.72346 | 8.98088 | 85° | 29km/h | 1941m | -4.1m/s | 7.3°C | 76% | 813.4hPa | 2.7V | 07:43:23 | 03:02:36 | 00:00:00 | |
| BIOWL1-15 | 2026-09-03 01:20:06 | 50.72346 | 8.98064 | 90° | 31km/h | 1949m | -3.9m/s | 7.3°C | 75.7% | 812.5hPa | 2.7V | 07:43:23 | 03:02:34 | 00:00:00 | |
| BIOWL1-15 | 2026-09-03 01:20:05 | 50.72346 | 8.98052 | 92° | 29km/h | 1953m | -4m/s | 7.3°C | 76.2% | 812.3hPa | 2.7V | 07:43:23 | 03:02:33 | 00:00:00 | |
| DM0DOS-11 | 2026-09-03 01:20:04 | 50.72346 | 8.98028 | 87° | 29km/h | 1961m | -4.3m/s | 7.3°C | 75.3% | 811.6hPa | 2.7V | 07:42:46 | 03:02:31 | 00:00:00 | |
| DM0DOS-11 | 2026-09-03 01:20:04 | 50.72346 | 8.98003 | 92° | 33km/h | 1970m | -4.3m/s | 7.2°C | 76.9% | 810.7hPa | 2.7V | 07:42:48 | 03:02:29 | 00:00:00 | |
| DM0DOS-11 | 2026-09-03 01:20:04 | 50.72348 | 8.97976 | 98° | 33km/h | 1978m | -4m/s | 7.1°C | 78.5% | 809.9hPa | 2.6V | 07:42:50 | 03:02:27 | 00:00:00 | |
| BIOWL1-15 | 2026-09-03 01:20:03 | 50.72346 | 8.98029 | 88° | 29km/h | 1961m | -4.3m/s | 7.3°C | 79.2% | 811.6hPa | 2.7V | 07:43:23 | 03:02:31 | 00:00:00 | |
| BIOWL1-15 | 2026-09-03 01:20:02 | 50.72346 | 8.98016 | 89° | 33km/h | 1966m | -4.3m/s | 7.2°C | 79.5% | 811.1hPa | 2.7V | 07:43:23 | 03:02:30 | 00:00:00 | |
| BIOWL1-15 | 2026-09-03 01:19:59 | 50.72349 | 8.97963 | 99° | 33km/h | 1982m | -4.7m/s | 7.1°C | 81.8% | 809.5hPa | 2.7V | 07:43:23 | 03:02:26 | 00:00:00 | |
| BIOWL1-15 | 2026-09-03 01:19:59 | 50.72350 | 8.97951 | 97° | 33km/h | 1986m | -4m/s | 7.1°C | 81.6% | 809hPa | 2.7V | 07:43:23 | 03:02:25 | 00:00:00 | |
| DM0DOS-11 | 2026-09-03 01:19:58 | 50.72350 | 8.97951 | 96° | 33km/h | 1986m | -4m/s | 7.1°C | 78.5% | 809hPa | 2.7V | 07:42:52 | 03:02:25 | 00:00:00 | |
| DM0DOS-11 | 2026-09-03 01:19:58 | 50.72352 | 8.97924 | 95° | 35km/h | 1994m | -4.2m/s | 7.1°C | 77.9% | 808.2hPa | 2.7V | 07:42:54 | 03:02:23 | 00:00:00 | |
| DM0DOS-11 | 2026-09-03 01:19:58 | 50.72354 | 8.97896 | 97° | 35km/h | 2003m | -4.9m/s | 7.1°C | 76.6% | 807.4hPa | 2.6V | 07:42:56 | 03:02:21 | 00:00:00 | |
| BIOWL1-15 | 2026-09-03 01:19:56 | 50.72351 | 8.97938 | 94° | 33km/h | 1990m | -3.7m/s | 7.1°C | 81.4% | 808.6hPa | 2.7V | 07:43:23 | 03:02:24 | 00:00:00 | |
| BIOWL1-15 | 2026-09-03 01:19:54 | 50.72353 | 8.97910 | 96° | 35km/h | 1998m | -4.5m/s | 7.1°C | 80.8% | 807.8hPa | 2.7V | 07:43:23 | 03:02:22 | 00:00:00 | |
| DB0UT-7 | 2026-09-03 01:19:54 | 50.72353 | 8.97910 | 96° | 37km/h | 1998m | -4.5m/s | 7.0°C | 76.9% | 807.7hPa | 2.7V | 00:00:00 | 03:02:22 | 00:00:00 | |
| DM0DOS-11 | 2026-09-03 01:19:53 | 50.72360 | 8.97827 | 96° | 38km/h | 2024m | -4.1m/s | 7.1°C | 69.5% | 805.4hPa | 2.6V | 07:43:01 | 03:02:16 | 00:00:00 | |
| DM0DOS-11 | 2026-09-03 01:19:48 | 50.72371 | 8.97755 | 104° | 35km/h | 2044m | -4.3m/s | 7.2°C | 65.9% | 803.5hPa | 2.7V | 07:43:06 | 03:02:11 | 00:00:00 | |
| BIOWL1-15 | 2026-09-03 01:19:46 | 50.72368 | 8.97769 | 105° | 37km/h | 2040m | -4.1m/s | 7.2°C | 69.6% | 803.6hPa | 2.7V | 07:43:23 | 03:02:12 | 00:00:00 | |
| DB0NH | 2026-09-03 01:19:45 | 50.72366 | 8.97783 | 106° | 37km/h | 2036m | -4.0m/s | 7.1°C | 66.0% | 804.0hPa | 2.7V | 00:00:00 | 03:02:13 | 00:00:00 | |
| DB0UT-7 | 2026-09-03 01:19:44 | 50.72368 | 8.97769 | 105° | 37km/h | 2040m | -4.0m/s | 7.1°C | 65.3% | 803.6hPa | 2.7V | 00:00:00 | 00:00:00 | 00:00:00 | |
| DM0DOS-11 | 2026-09-03 01:19:43 | 50.72383 | 8.97682 | 108° | 37km/h | 2065m | -4.4m/s | 7.3°C | 69.4% | 801.4hPa | 2.7V | 07:43:11 | 03:02:06 | 00:00:00 | |
| DF7PN | 2026-09-03 01:19:41 | 50.72375 | 8.97726 | 103° | 38km/h | 2052m | -4.1m/s | 7.3°C | 67.9% | 802.7hPa | 2.6V | 00:00:00 | 00:00:00 | 00:00:00 | |
| DM0DOS-11 | 2026-09-03 01:19:38 | 50.72396 | 8.97614 | 105° | 37km/h | 2085m | -4.1m/s | 7.1°C | 71.2% | 799.3hPa | 2.6V | 07:43:16 | 03:02:01 | 00:00:00 | |
| BIOWL1-15 | 2026-09-03 01:19:35 | 50.72397 | 8.97613 | 106° | 37km/h | 2085m | -4.1m/s | 7.1°C | 75.9% | 799.3hPa | 2.6V | 07:43:23 | 03:02:01 | 00:00:00 | |
| DM0DOS-11 | 2026-09-03 01:19:30 | 50.72410 | 8.97546 | 104° | 35km/h | 2107m | -4.3m/s | 7.1°C | 75.6% | 797.4hPa | 2.6V | 07:43:21 | 03:01:56 | 00:00:00 | |
| BIOWL9-15 | 2026-09-03 01:19:28 | 50.72410 | 8.97546 | 104° | 35km/h | 2107m | -4.3m/s | 7.1°C | 75.7% | 797.4hPa | 2.6V | 00:00:00 | 00:00:00 | 00:00:00 | |
| DM0DOS-11 | 2026-09-03 01:19:24 | 50.72424 | 8.97479 | 110° | 37km/h | 2129m | -4.3m/s | 7.1°C | 81.3% | 795.1hPa | 2.6V | 07:43:26 | 03:01:51 | 00:00:00 | |
| BIOWL1-15 | 2026-09-03 01:19:23 | 50.72424 | 8.97479 | 110° | 37km/h | 2129m | -4.3m/s | 7.1°C | 85.1% | 795.1hPa | 2.6V | 07:44:14 | 03:01:51 | 00:00:00 | |
| DB0NH | 2026-09-03 01:19:23 | 50.72424 | 8.97479 | 111° | 37km/h | 2129m | -4.3m/s | 7.1°C | 81.3% | 795.1hPa | 2.6V | 00:00:00 | 03:01:51 | 00:00:00 | |
| DM0DOS-11 | 2026-09-03 01:19:19 | 50.72444 | 8.97414 | 114° | 35km/h | 2150m | -4m/s | 7°C | 82.6% | 793.2hPa | 2.6V | 07:43:31 | 03:01:46 | 00:00:00 | |
| DM0DOS-11 | 2026-09-03 01:19:19 | 50.72464 | 8.97344 | 117° | 38km/h | 2171m | -4.6m/s | 6.9°C | 82.8% | 791.2hPa | 2.7V | 07:43:36 | 03:01:41 | 00:00:00 | |
| DB0ND-19 | 2026-09-03 01:19:15 | 50.72476 | 8.97304 | 112° | 37km/h | 2183m | -4.0m/s | 6.8°C | 83.1% | 790.0hPa | 2.7V | 00:00:00 | 00:00:00 | 00:00:00 | |
| DM0DOS-11 | 2026-09-03 01:19:13 | 50.72484 | 8.97277 | 116° | 38km/h | 2192m | -4.3m/s | 6.8°C | 83.1% | 789.2hPa | 2.7V | 07:43:41 | 03:01:36 | 00:00:00 | |
| BIOWL1-15 | 2026-09-03 01:19:12 | 50.72484 | 8.97277 | 117° | 38km/h | 2192m | -4.3m/s | 6.8°C | 86.6% | 789.2hPa | 2.7V | 07:44:14 | 03:01:36 | 00:00:00 | |
| DF7PN | 2026-09-03 01:19:10 | 50.72476 | 8.97304 | 112° | 37km/h | 2183m | -4.0m/s | 6.8°C | 83.1% | 790.0hPa | 2.7V | 00:00:00 | 00:00:00 | 00:00:00 | |
| DB0UT-7 | 2026-09-03 01:19:04 | 50.72501 | 8.97227 | 116° | 37km/h | 2209m | -3.9m/s | 6.7°C | 84.0% | 787.5hPa | 2.7V | 00:00:00 | 00:00:00 | 00:00:00 | |
| DM0DOS-11 | 2026-09-03 01:19:03 | 50.72527 | 8.97152 | 119° | 35km/h | 2234m | -4.5m/s | 6.8°C | 84.3% | 785.3hPa | 2.7V | 07:43:51 | 03:01:26 | 00:00:00 | |
| BIOWL1-15 | 2026-09-03 01:18:59 | 50.72523 | 8.97164 | 122° | 37km/h | 2230m | -4.3m/s | 6.8°C | 87.8% | 785.5hPa | 2.7V | 07:44:14 | 03:01:27 | 00:00:00 | |
| DM0DOS-11 | 2026-09-03 01:18:58 | 50.72549 | 8.97085 | 120° | 37km/h | 2255m | -4.2m/s | 7°C | 82.2% | 783.4hPa | 2.7V | 07:43:56 | 03:01:21 | 00:00:00 | |
| BIOWL9-15 | 2026-09-03 01:18:57 | 50.72532 | 8.97139 | 116° | 35km/h | 2238m | -4.1m/s | 6.9°C | 83.7% | 784.9hPa | 2.7V | 00:00:00 | 00:00:00 | 00:00:00 | |
| HARRO8 | 2026-09-03 01:18:56 | 50.72571 | 8.97007 | 114° | 38km/h | 2280m | -4.2m/s | 6.9°C | 80.9% | 780.9hPa | 2.7V | 00:00:00 | 00:00:00 | 00:00:00 | |
| DM0DOS-11 | 2026-09-03 01:18:53 | 50.72567 | 8.97021 | 111° | 38km/h | 2276m | -4.1m/s | 7°C | 80.8% | 781.2hPa | 2.7V | 07:44:01 | 03:01:16 | 00:00:00 | |
| BIOWL1-15 | 2026-09-03 01:18:48 | 50.72571 | 8.97007 | 115° | 38km/h | 2280m | -4.2m/s | 6.9°C | 86.2% | 780.9hPa | 2.7V | 07:44:14 | 03:01:15 | 00:00:00 | |
| DM0DOS-11 | 2026-09-03 01:18:48 | 50.72587 | 8.96954 | 113° | 37km/h | 2297m | -4.3m/s | 6.8°C | 81.3% | 779.3hPa | 2.6V | 07:44:06 | 03:01:11 | 00:00:00 | |
| DB0UT-7 | 2026-09-03 01:18:44 | 50.72584 | 8.96967 | 116° | 38km/h | 2292m | -4.1m/s | 6.8°C | 81.2% | 779.7hPa | 2.7V | 00:00:00 | 03:01:12 | 00:00:00 | |
| DB0NH | 2026-09-03 01:18:43 | 50.72587 | 8.96954 | 114° | 38km/h | 2297m | -4.2m/s | 6.7°C | 81.3% | 779.3hPa | 2.7V | 00:00:00 | 03:01:11 | 00:00:00 | |
| DM0DOS-11 | 2026-09-03 01:18:40 | 50.72608 | 8.96885 | 115° | 37km/h | 2318m | -4.1m/s | 6.7°C | 82.9% | 777.2hPa | 2.7V | 07:44:11 | 03:01:06 | 00:00:00 | |
| BIOWL1-15 | 2026-09-03 01:18:37 | 50.72619 | 8.96844 | 113° | 40km/h | 2331m | -4m/s | 6.6°C | 88.5% | 776.1hPa | 2.7V | 07:44:14 | 03:01:03 | 00:00:00 | |
| NBG1-10 | 2026-09-03 01:18:36 | 50.72615 | 8.96858 | 112° | 38km/h | 2326m | -4.1m/s | 6.6°C | 83.5% | 776.4hPa | 2.7V | 00:00:00 | 03:01:04 | 00:00:00 | |
| DM0DOS-11 | 2026-09-03 01:18:34 | 50.72627 | 8.96815 | 115° | 37km/h | 2338m | -4.2m/s | 6.5°C | 84.1% | 775.2hPa | 2.6V | 07:44:16 | 03:01:01 | 00:00:00 | |
| DM0DOS-11 | 2026-09-03 01:18:28 | 50.72643 | 8.96747 | 107° | 40km/h | 2359m | -4.1m/s | 6.4°C | 85.3% | 773.3hPa | 2.7V | 07:44:21 | 03:00:56 | 00:00:00 | |
| BIOWL1-15 | 2026-09-03 01:18:24 | 50.72656 | 8.96688 | 110° | 37km/h | 2376m | -4.2m/s | 6.3°C | 90.2% | 771.9hPa | 2.6V | 07:45:05 | 03:00:52 | 00:00:00 | |
| DM0DOS-11 | 2026-09-03 01:18:23 | 50.72660 | 8.96674 | 108° | 38km/h | 2380m | -4.4m/s | 6.2°C | 85.2% | 771.4hPa | 2.7V | 07:44:26 | 03:00:51 | 00:00:00 | |
| DM0DOS-11 | 2026-09-03 01:18:23 | 50.72676 | 8.96603 | 107° | 37km/h | 2402m | -4.2m/s | 6.1°C | 85.7% | 769.4hPa | 2.7V | 07:44:31 | 03:00:46 | 00:00:00 | |
| DB0NH | 2026-09-03 01:18:23 | 50.72660 | 8.96674 | 109° | 38km/h | 2380m | -4.4m/s | 6.2°C | 85.2% | 771.4hPa | 2.7V | 00:00:00 | 03:00:51 | 00:00:00 | |
| DD1CC3-15 | 2026-09-03 01:18:19 | 50.72669 | 8.96630 | 113° | 38km/h | 2393m | -4.1m/s | 6.2°C | 85.5% | 770.3hPa | 2.7V | 00:00:00 | 00:00:00 | 00:00:00 | |
| DM0DOS-11 | 2026-09-03 01:18:18 | 50.72690 | 8.96530 | 106° | 37km/h | 2423m | -4.4m/s | 5.9°C | 86.3% | 767.4hPa | 2.7V | 07:44:36 | 03:00:41 | 00:00:00 | |
| BIOWL1-15 | 2026-09-03 01:18:15 | 50.72695 | 8.96501 | 102° | 40km/h | 2431m | -4.3m/s | 5.8°C | 91.3% | 766.4hPa | 2.7V | 07:45:05 | 03:00:39 | 00:00:00 | |
| NBG1-10 | 2026-09-03 01:18:14 | 50.72688 | 8.96544 | 109° | 38km/h | 2419m | -4.4m/s | 5.9°C | 86.1% | 767.8hPa | 2.7V | 00:00:00 | 03:00:42 | 00:00:00 | |
| DB0ND-19 | 2026-09-03 01:18:13 | 50.72690 | 8.96530 | 106° | 35km/h | 2423m | -4.4m/s | 5.9°C | 86.2% | 767.4hPa | 2.7V | 00:00:00 | 00:00:00 | 00:00:00 | |
| DD1CC8 | 2026-09-03 01:18:10 | 50.72697 | 8.96485 | 103° | 40km/h | 2436m | -4.4m/s | 5.8°C | 85.9% | 766.1hPa | 2.7V | 00:00:00 | 00:00:00 | 00:00:00 | |
| DM0DOS-11 | 2026-09-03 01:18:08 | 50.72720 | 8.96360 | 108° | 40km/h | 2470m | -4.4m/s | 5.6°C | 88% | 763hPa | 2.7V | 07:44:47 | 03:00:30 | 00:00:00 | |
| BIOWL1-15 | 2026-09-03 01:18:03 | 50.72724 | 8.96344 | 108° | 38km/h | 2474m | -4.1m/s | 5.6°C | 92.5% | 762.5hPa | 2.7V | 07:45:05 | 03:00:29 | 00:00:00 | |
| DM0DOS-11 | 2026-09-03 01:18:03 | 50.72734 | 8.96284 | 105° | 42km/h | 2491m | -4.5m/s | 5.5°C | 88.3% | 761hPa | 2.7V | 07:44:52 | 03:00:25 | 00:00:00 | |
| DD1CC3-15 | 2026-09-03 01:17:59 | 50.72726 | 8.96330 | 107° | 38km/h | 2478m | -4.2m/s | 5.5°C | 88.0% | 762.1hPa | 2.7V | 00:00:00 | 00:00:00 | 00:00:00 | |
| DM0DOS-11 | 2026-09-03 01:17:57 | 50.72748 | 8.96210 | 101° | 38km/h | 2512m | -4.2m/s | 5.3°C | 88.3% | 759hPa | 2.7V | 07:44:57 | 03:00:20 | 00:00:00 | |
| BIOWL9-15 | 2026-09-03 01:17:55 | 50.72740 | 8.96253 | 110° | 38km/h | 2499m | -4.5m/s | 5.4°C | 88.6% | 760.1hPa | 2.7V | 00:00:00 | 00:00:00 | 00:00:00 | |
| HARRO8 | 2026-09-03 01:17:54 | 50.72746 | 8.96224 | 104° | 37km/h | 2508m | -4.1m/s | 5.4°C | 88.5% | 759.4hPa | 2.7V | 00:00:00 | 00:00:00 | 00:00:00 | |
| DM0DOS-11 | 2026-09-03 01:17:52 | 50.72758 | 8.96133 | 100° | 37km/h | 2533m | -4.5m/s | 5.2°C | 88.8% | 756.9hPa | 2.7V | 07:45:02 | 03:00:15 | 00:00:00 | |
| BIOWL1-15 | 2026-09-03 01:17:52 | 50.72748 | 8.96210 | 101° | 38km/h | 2512m | -4.2m/s | 5.3°C | 92.7% | 759hPa | 2.7V | 07:45:05 | 03:00:20 | 00:00:00 | |
| DM0DOS-11 | 2026-09-03 01:17:47 | 50.72766 | 8.96054 | 102° | 40km/h | 2555m | -4.2m/s | 5.1°C | 89.4% | 755.1hPa | 2.6V | 07:45:07 | 03:00:10 | 00:00:00 | |
| BIOWL1-15 | 2026-09-03 01:17:41 | 50.72770 | 8.96023 | 100° | 38km/h | 2563m | -4.4m/s | 5.1°C | 92.8% | 754.4hPa | 2.7V | 07:45:56 | 03:00:08 | 00:00:00 | |
| DM0DOS-11 | 2026-09-03 01:17:40 | 50.72775 | 8.95975 | 100° | 44km/h | 2576m | -4.2m/s | 5°C | 88.1% | 753hPa | 2.7V | 07:45:12 | 03:00:05 | 00:00:00 | |
| DD1CC8 | 2026-09-03 01:17:39 | 50.72772 | 8.96008 | 97° | 38km/h | 2568m | -4.5m/s | 5.0°C | 88.0% | 754.0hPa | 2.6V | 00:00:00 | 00:00:00 | 00:00:00 | |
| DF7PN | 2026-09-03 01:17:37 | 50.72777 | 8.95958 | 102° | 42km/h | 2580m | -4.5m/s | 5.0°C | 88.3% | 752.8hPa | 2.6V | 00:00:00 | 00:00:00 | 00:00:00 | |
| DM0DOS-11 | 2026-09-03 01:17:34 | 50.72785 | 8.95893 | 99° | 44km/h | 2598m | -4.4m/s | 4.8°C | 88.7% | 751.1hPa | 2.6V | 07:45:17 | 03:00:00 | 00:00:00 | |
| BIOWL1-15 | 2026-09-03 01:17:30 | 50.72790 | 8.95860 | 104° | 42km/h | 2607m | -4.6m/s | 4.8°C | 93% | 750.2hPa | 2.7V | 07:45:56 | 02:59:58 | 00:00:00 | |
| DM0DOS-11 | 2026-09-03 01:17:27 | 50.72795 | 8.95813 | 97° | 40km/h | 2620m | -4.3m/s | 4.7°C | 88.8% | 749hPa | 2.7V | 07:45:22 | 02:59:55 | 00:00:00 | |
| DM0DOS-11 | 2026-09-03 01:17:27 | 50.72805 | 8.95729 | 100° | 42km/h | 2643m | -4.5m/s | 4.5°C | 90.1% | 747hPa | 2.7V | 07:45:27 | 02:59:50 | 00:00:00 | |
| NBG1-10 | 2026-09-03 01:17:27 | 50.72795 | 8.95813 | 98° | 42km/h | 2620m | -4.3m/s | 4.6°C | 88.8% | 748.9hPa | 2.6V | 07:45:00 | 02:59:55 | 00:00:00 | |
| DB0UT-7 | 2026-09-03 01:17:24 | 50.72801 | 8.95762 | 102° | 42km/h | 2634m | -4.4m/s | 4.5°C | 89.6% | 747.8hPa | 2.6V | 00:00:00 | 02:59:52 | 00:00:00 | |
| HARRO8 | 2026-09-03 01:17:23 | 50.72805 | 8.95729 | 100° | 40km/h | 2643m | -4.5m/s | 4.5°C | 89.9% | 747.0hPa | 2.6V | 00:00:00 | 00:00:00 | 00:00:00 | |
| DM0DOS-11 | 2026-09-03 01:17:22 | 50.72816 | 8.95643 | 105° | 44km/h | 2665m | -4.5m/s | 4.3°C | 91% | 744.9hPa | 2.6V | 07:45:32 | 02:59:45 | 00:00:00 | |
| BIOWL1-15 | 2026-09-03 01:17:19 | 50.72811 | 8.95678 | 101° | 46km/h | 2656m | -4.4m/s | 4.4°C | 94.8% | 745.7hPa | 2.7V | 07:45:56 | 02:59:47 | 00:00:00 | |
| DM0DOS-11 | 2026-09-03 01:17:17 | 50.72829 | 8.95562 | 104° | 44km/h | 2687m | -4.3m/s | 4.2°C | 91.7% | 742.8hPa | 2.7V | 07:45:37 | 02:59:40 | 00:00:00 | |
| DD1CC3-15 | 2026-09-03 01:17:16 | 50.72816 | 8.95642 | 107° | 44km/h | 2665m | -4.5m/s | 4.3°C | 90.8% | 744.9hPa | 2.7V | 07:45:00 | 00:00:00 | 00:00:00 | |
| DM0DOS-11 | 2026-09-03 01:17:12 | 50.72843 | 8.95485 | 101° | 38km/h | 2710m | -4.3m/s | 4°C | 91.6% | 740.8hPa | 2.7V | 07:45:42 | 02:59:35 | 00:00:00 | |
| BIOWL1-15 | 2026-09-03 01:17:08 | 50.72841 | 8.95500 | 104° | 37km/h | 2706m | -4.4m/s | 4°C | 95.6% | 741.3hPa | 2.6V | 07:45:56 | 02:59:36 | 00:00:00 | |
| DM0DOS-11 | 2026-09-03 01:17:07 | 50.72855 | 8.95405 | 104° | 40km/h | 2732m | -4.6m/s | 3.9°C | 91.9% | 738.9hPa | 2.7V | 07:45:47 | 02:59:30 | 00:00:00 | |
| DF7PN | 2026-09-03 01:17:06 | 50.72847 | 8.95454 | 101° | 42km/h | 2719m | -4.3m/s | 3.9°C | 91.5% | 740.1hPa | 2.7V | 00:00:00 | 00:00:00 | 00:00:00 | |
| DB0UT-7 | 2026-09-03 01:17:04 | 50.72849 | 8.95437 | 104° | 42km/h | 2723m | -4.4m/s | 3.9°C | 91.7% | 739.6hPa | 2.7V | 00:00:00 | 00:00:00 | 00:00:00 | |
| NBG1-10 | 2026-09-03 01:17:03 | 50.72852 | 8.95421 | 105° | 42km/h | 2728m | -4.6m/s | 3.9°C | 91.8% | 739.2hPa | 2.7V | 00:00:00 | 02:59:31 | 00:00:00 | |
| DM0DOS-11 | 2026-09-03 01:17:02 | 50.72866 | 8.95322 | 106° | 44km/h | 2755m | -4.6m/s | 3.7°C | 92.2% | 736.8hPa | 2.7V | 07:45:52 | 02:59:25 | 00:00:00 | |
| BIOWL1-15 | 2026-09-03 01:16:57 | 50.72875 | 8.95274 | 102° | 42km/h | 2769m | -4.6m/s | 3.6°C | 96.4% | 735.6hPa | 2.7V | 07:45:56 | 02:59:22 | 00:00:00 | |
| DM0DOS-11 | 2026-09-03 01:16:57 | 50.72879 | 8.95240 | 102° | 46km/h | 2778m | -4.6m/s | 3.5°C | 92.6% | 734.7hPa | 2.6V | 07:45:57 | 02:59:20 | 00:00:00 | |
| BIOWL9-15 | 2026-09-03 01:16:53 | 50.72877 | 8.95258 | 101° | 42km/h | 2773m | -4.5m/s | 3.6°C | 92.5% | 735.2hPa | 2.7V | 00:00:00 | 00:00:00 | 00:00:00 | |
| DM0DOS-11 | 2026-09-03 01:16:52 | 50.72893 | 8.95159 | 99° | 42km/h | 2801m | -4.5m/s | 3.4°C | 93.3% | 732.7hPa | 2.7V | 07:46:02 | 02:59:15 | 00:00:00 | |
| HARRO8 | 2026-09-03 01:16:52 | 50.72882 | 8.95223 | 104° | 44km/h | 2783m | -4.5m/s | 3.5°C | 92.9% | 734.3hPa | 2.7V | 00:00:00 | 00:00:00 | 00:00:00 | |
| DM0DOS-11 | 2026-09-03 01:16:47 | 50.72904 | 8.95076 | 102° | 40km/h | 2823m | -4.7m/s | 3.2°C | 93.6% | 730.7hPa | 2.7V | 07:46:07 | 02:59:10 | 00:00:00 | |
| BIOWL1-15 | 2026-09-03 01:16:45 | 50.72902 | 8.95092 | 105° | 42km/h | 2819m | -4.5m/s | 3.2°C | 96.9% | 731hPa | 2.7V | 07:46:47 | 02:59:11 | 00:00:00 | |
| DB0UT-7 | 2026-09-03 01:16:44 | 50.72899 | 8.95108 | 106° | 44km/h | 2814m | -4.2m/s | 3.2°C | 93.4% | 731.5hPa | 2.6V | 07:46:00 | 02:59:12 | 00:00:00 | |
| DB0NH | 2026-09-03 01:16:43 | 50.72902 | 8.95092 | 105° | 44km/h | 2819m | -4.4m/s | 3.2°C | 93.4% | 731.0hPa | 2.6V | 00:00:00 | 02:59:11 | 00:00:00 | |
| DM0DOS-11 | 2026-09-03 01:16:42 | 50.72916 | 8.94989 | 108° | 46km/h | 2846m | -4.7m/s | 3°C | 95% | 728.6hPa | 2.6V | 07:46:12 | 02:59:05 | 00:00:00 | |
| DB0ND-19 | 2026-09-03 01:16:40 | 50.72908 | 8.95043 | 99° | 44km/h | 2832m | -4.6m/s | 3.1°C | 94.2% | 729.8hPa | 2.7V | 00:00:00 | 00:00:00 | 00:00:00 | |
| DM0DOS-11 | 2026-09-03 01:16:37 | 50.72931 | 8.94910 | 97° | 40km/h | 2868m | -4.3m/s | 2.9°C | 93.7% | 726.6hPa | 2.7V | 07:46:17 | 02:59:00 | 00:00:00 | |
| BIOWL1-15 | 2026-09-03 01:16:34 | 50.72927 | 8.94940 | 105° | 38km/h | 2859m | -4.4m/s | 2.9°C | 97.5% | 727.4hPa | 2.7V | 07:46:47 | 02:59:02 | 00:00:00 | |
| DM0DOS-11 | 2026-09-03 01:16:32 | 50.72940 | 8.94825 | 102° | 42km/h | 2890m | -4.3m/s | 2.9°C | 93.6% | 724.7hPa | 2.7V | 07:46:22 | 02:58:55 | 00:00:00 | |
| DM0DOS-11 | 2026-09-03 01:16:27 | 50.72950 | 8.94737 | 102° | 47km/h | 2912m | -4.4m/s | 2.9°C | 90.6% | 722.7hPa | 2.6V | 07:46:27 | 02:58:50 | 00:00:00 | |
| BIOWL1-15 | 2026-09-03 01:16:24 | 50.72945 | 8.94774 | 99° | 46km/h | 2904m | -4.4m/s | 3°C | 94.5% | 723.6hPa | 2.7V | 07:46:47 | 02:58:52 | 00:00:00 | |
| DB0UT-7 | 2026-09-03 01:16:24 | 50.72945 | 8.94774 | 99° | 44km/h | 2904m | -4.3m/s | 2.9°C | 91.2% | 723.5hPa | 2.7V | 00:00:00 | 00:00:00 | 00:00:00 | |
| DB0NH | 2026-09-03 01:16:23 | 50.72947 | 8.94756 | 101° | 44km/h | 2908m | -4.5m/s | 2.9°C | 90.7% | 723.1hPa | 2.7V | 00:00:00 | 02:58:51 | 00:00:00 | |
| DM0DOS-11 | 2026-09-03 01:16:22 | 50.72963 | 8.94653 | 99° | 42km/h | 2935m | -4.9m/s | 2.8°C | 90.5% | 720.8hPa | 2.7V | 07:46:32 | 02:58:45 | 00:00:00 | |
| BIOWL1-15 | 2026-09-03 01:16:15 | 50.72971 | 8.94586 | 102° | 42km/h | 2953m | -4.6m/s | 2.7°C | 94.6% | 719hPa | 2.6V | 07:46:47 | 02:58:41 | 00:00:00 | |
| DM0DOS-11 | 2026-09-03 01:16:14 | 50.72973 | 8.94570 | 99° | 40km/h | 2958m | -4.7m/s | 2.7°C | 90.4% | 718.6hPa | 2.7V | 07:46:37 | 02:58:40 | 00:00:00 | |
| BIOWL7-15 | 2026-09-03 01:16:13 | 50.72969 | 8.94602 | 104° | 42km/h | 2949m | -4.4m/s | 2.7°C | 90.6% | 719.4hPa | 2.7V | 00:00:00 | 00:00:00 | 00:00:00 | |
| DB0ND-19 | 2026-09-03 01:16:09 | 50.72978 | 8.94520 | 102° | 44km/h | 2972m | -4.7m/s | 2.8°C | 86.3% | 717.4hPa | 2.7V | 00:00:00 | 00:00:00 | 00:00:00 | |
| DM0DOS-11 | 2026-09-03 01:16:07 | 50.72985 | 8.94486 | 108° | 42km/h | 2981m | -4.3m/s | 2.7°C | 86.5% | 716.5hPa | 2.7V | 07:46:42 | 02:58:35 | 00:00:00 | |
| DM0DOS-11 | 2026-09-03 01:16:07 | 50.73004 | 8.94390 | 109° | 42km/h | 3009m | -4.8m/s | 2.5°C | 87.5% | 714.2hPa | 2.7V | 07:46:48 | 02:58:29 | 00:00:00 | |
| BIOWL1-15 | 2026-09-03 01:16:02 | 50.73000 | 8.94406 | 109° | 44km/h | 3004m | -4.9m/s | 2.5°C | 92.7% | 714.6hPa | 2.7V | 07:46:47 | 02:58:30 | 00:00:00 | |
| DM0DOS-11 | 2026-09-03 01:16:01 | 50.73018 | 8.94312 | 104° | 44km/h | 3032m | -4.7m/s | 2.2°C | 88.7% | 712.1hPa | 2.7V | 07:46:53 | 02:58:24 | 00:00:00 | |
| DM0DOS-11 | 2026-09-03 01:15:56 | 50.73032 | 8.94235 | 102° | 38km/h | 3055m | -4.6m/s | 2°C | 89.3% | 710hPa | 2.6V | 07:46:58 | 02:58:19 | 00:00:00 | |
| BIOWL1-15 | 2026-09-03 01:15:54 | 50.73030 | 8.94250 | 104° | 38km/h | 3050m | -4.9m/s | 2.1°C | 93.7% | 710.4hPa | 2.7V | 07:47:38 | 02:58:20 | 00:00:00 | |
| DM0DOS-11 | 2026-09-03 01:15:51 | 50.73047 | 8.94155 | 109° | 40km/h | 3078m | -4.8m/s | 1.8°C | 90.7% | 708.2hPa | 2.7V | 07:47:03 | 02:58:14 | 00:00:00 | |
| HARRO8 | 2026-09-03 01:15:50 | 50.73037 | 8.94203 | 105° | 42km/h | 3064m | -4.4m/s | 1.9°C | 89.9% | 709.3hPa | 2.7V | 00:00:00 | 00:00:00 | 00:00:00 | |
| DD1CC3-15 | 2026-09-03 01:15:47 | 50.73040 | 8.94187 | 110° | 42km/h | 3068m | -4.6m/s | 1.9°C | 90.0% | 708.9hPa | 2.7V | 07:47:00 | 00:00:00 | 00:00:00 | |
| DM0DOS-11 | 2026-09-03 01:15:46 | 50.73063 | 8.94074 | 109° | 44km/h | 3100m | -4.6m/s | 1.6°C | 92% | 706.2hPa | 2.7V | 07:47:08 | 02:58:09 | 00:00:00 | |
| BIOWL1-15 | 2026-09-03 01:15:42 | 50.73059 | 8.94091 | 109° | 46km/h | 3096m | -4.6m/s | 1.7°C | 94.6% | 706.6hPa | 2.7V | 07:47:38 | 02:58:10 | 00:00:00 | |
| DB0NH | 2026-09-03 01:15:41 | 50.73063 | 8.94074 | 110° | 40km/h | 3100m | -4.5m/s | 1.6°C | 92.0% | 706.1hPa | 2.7V | 00:00:00 | 02:58:09 | 00:00:00 | |
| DB0ND-19 | 2026-09-03 01:15:38 | 50.73073 | 8.94028 | 104° | 38km/h | 3114m | -4.5m/s | 1.5°C | 92.0% | 704.9hPa | 2.7V | 00:00:00 | 00:00:00 | 00:00:00 | |
| DM0DOS-11 | 2026-09-03 01:15:36 | 50.73092 | 8.93918 | 104° | 40km/h | 3145m | -4.6m/s | 1.4°C | 89.1% | 702.1hPa | 2.7V | 07:47:18 | 02:57:59 | 00:00:00 | |
| BIOWL1-15 | 2026-09-03 01:15:31 | 50.73092 | 8.93918 | 104° | 40km/h | 3145m | -4.6m/s | 1.4°C | 92.4% | 702.1hPa | 2.7V | 07:47:38 | 02:57:59 | 00:00:00 | |
| DM0DOS-11 | 2026-09-03 01:15:26 | 50.73109 | 8.93839 | 114° | 40km/h | 3168m | -4.3m/s | 1.3°C | 88.7% | 700.3hPa | 2.7V | 07:47:23 | 02:57:54 | 00:00:00 | |
| DD1CC3-15 | 2026-09-03 01:15:25 | 50.73109 | 8.93838 | 116° | 40km/h | 3168m | -4.3m/s | 1.3°C | 88.2% | 700.3hPa | 2.6V | 07:47:00 | 00:00:00 | 00:00:00 | |
| DM0DOS-11 | 2026-09-03 01:15:21 | 50.73127 | 8.93766 | 111° | 42km/h | 3190m | -4.6m/s | 1.3°C | 80.1% | 698.3hPa | 2.6V | 07:47:28 | 02:57:49 | 00:00:00 | |
| DM0DOS-11 | 2026-09-03 01:15:21 | 50.73149 | 8.93682 | 106° | 37km/h | 3217m | -4.4m/s | 1.1°C | 85.9% | 695.9hPa | 2.7V | 07:47:34 | 02:57:43 | 00:00:00 | |
| HSKMA3-T | 2026-09-03 01:15:20 | 50.73131 | 8.93751 | 115° | 42km/h | 3194m | -4.5m/s | 1.2°C | 87.6% | 697.9hPa | 2.7V | 07:49:20 | 02:57:48 | 00:00:00 | |
| HARRO8 | 2026-09-03 01:15:19 | 50.73140 | 8.93723 | 113° | 37km/h | 3203m | -4.4m/s | 1.2°C | 85.3% | 697.1hPa | 2.7V | 00:00:00 | 00:00:00 | 00:00:00 | |
| DM0DOS-11 | 2026-09-03 01:15:16 | 50.73165 | 8.93613 | 109° | 37km/h | 3240m | -4.6m/s | 1°C | 85.2% | 694hPa | 2.7V | 07:47:39 | 02:57:38 | 00:00:00 | |
| BIOWL1-15 | 2026-09-03 01:15:11 | 50.73168 | 8.93599 | 109° | 38km/h | 3245m | -5.1m/s | 1°C | 88.8% | 693.5hPa | 2.7V | 07:48:29 | 02:57:37 | 00:00:00 | |
| DB0NH | 2026-09-03 01:15:11 | 50.73162 | 8.93626 | 111° | 37km/h | 3235m | -4.5m/s | 1.0°C | 85.7% | 694.1hPa | 2.7V | 07:47:00 | 02:57:39 | 00:00:00 | |
| DM0DOS-11 | 2026-09-03 01:15:10 | 50.73185 | 8.93543 | 118° | 35km/h | 3264m | -4.8m/s | 1°C | 82.8% | 691.9hPa | 2.7V | 07:47:44 | 02:57:33 | 00:00:00 | |
| NBG1-10 | 2026-09-03 01:15:10 | 50.73165 | 8.93612 | 110° | 37km/h | 3240m | -4.6m/s | 0.9°C | 85.2% | 693.9hPa | 2.6V | 00:00:00 | 02:57:38 | 00:00:00 | |
| DB0ND-19 | 2026-09-03 01:15:07 | 50.73176 | 8.93570 | 115° | 38km/h | 3254m | -4.6m/s | 1.0°C | 83.4% | 692.7hPa | 2.6V | 00:00:00 | 00:00:00 | 00:00:00 | |
| DM0DOS-11 | 2026-09-03 01:15:05 | 50.73206 | 8.93463 | 114° | 37km/h | 3292m | -4.7m/s | 1°C | 80.2% | 689.5hPa | 2.6V | 07:47:50 | 02:57:27 | 00:00:00 | |
| BIOWL1-15 | 2026-09-03 01:14:59 | 50.73206 | 8.93463 | 115° | 37km/h | 3292m | -4.7m/s | 1°C | 84.8% | 689.5hPa | 2.6V | 07:48:29 | 02:57:27 | 00:00:00 | |
| DM0DOS-11 | 2026-09-03 01:14:54 | 50.73236 | 8.93328 | 107° | 35km/h | 3339m | -4.8m/s | 0.6°C | 84.9% | 685.5hPa | 2.7V | 07:48:00 | 02:57:17 | 00:00:00 | |
| BIOWL1-15 | 2026-09-03 01:14:48 | 50.73239 | 8.93314 | 107° | 37km/h | 3344m | -4.8m/s | 0.6°C | 88.8% | 685hPa | 2.7V | 07:48:29 | 02:57:16 | 00:00:00 | |
| HARRO8 | 2026-09-03 01:14:47 | 50.73242 | 8.93300 | 108° | 37km/h | 3348m | -4.7m/s | 0.5°C | 84.3% | 684.7hPa | 2.7V | 00:00:00 | 00:00:00 | 00:00:00 | |
| DB0UT-7 | 2026-09-03 01:14:44 | 50.73250 | 8.93260 | 106° | 40km/h | 3363m | -4.7m/s | 0.4°C | 84.3% | 683.5hPa | 2.7V | 00:00:00 | 00:00:00 | 00:00:00 | |
| DB0NH | 2026-09-03 01:14:41 | 50.73256 | 8.93217 | 102° | 40km/h | 3377m | -4.8m/s | 0.4°C | 82.5% | 682.2hPa | 2.6V | 00:00:00 | 02:57:09 | 00:00:00 | |
| DM0DOS-11 | 2026-09-03 01:14:39 | 50.73261 | 8.93185 | 107° | 42km/h | 3387m | -4.5m/s | 0.3°C | 82.9% | 681.4hPa | 2.6V | 07:48:10 | 02:57:07 | 00:00:00 | |
| DM0DOS-11 | 2026-09-03 01:14:39 | 50.73276 | 8.93112 | 101° | 37km/h | 3409m | -4.6m/s | 0.3°C | 80.5% | 679.5hPa | 2.7V | 07:48:15 | 02:57:02 | 00:00:00 | |
| BIOWL1-15 | 2026-09-03 01:14:38 | 50.73265 | 8.93170 | 110° | 40km/h | 3392m | -4.5m/s | 0.3°C | 87% | 681hPa | 2.6V | 07:48:29 | 02:57:06 | 00:00:00 | |
| HSKMA3-T | 2026-09-03 01:14:37 | 50.73268 | 8.93155 | 110° | 38km/h | 3396m | -4.6m/s | 0.3°C | 85.5% | 680.6hPa | 2.7V | 07:49:20 | 02:57:05 | 00:00:00 | |
| NBG1-10 | 2026-09-03 01:14:36 | 50.73271 | 8.93140 | 109° | 42km/h | 3400m | -4.5m/s | 0.3°C | 81.0% | 680.2hPa | 2.7V | 00:00:00 | 02:57:04 | 00:00:00 | |
| DM0DOS-11 | 2026-09-03 01:14:34 | 50.73288 | 8.93034 | 103° | 38km/h | 3434m | -4.5m/s | 0.2°C | 81.4% | 677.6hPa | 2.7V | 07:48:20 | 02:56:57 | 00:00:00 | |
| DD1CC8 | 2026-09-03 01:14:33 | 50.73278 | 8.93097 | 100° | 38km/h | 3414m | -4.9m/s | 0.3°C | 79.6% | 679.1hPa | 2.6V | 00:00:00 | 00:00:00 | 00:00:00 | |
| BIOWL7-15 | 2026-09-03 01:14:31 | 50.73282 | 8.93065 | 106° | 42km/h | 3424m | -4.6m/s | 0.3°C | 80.4% | 678.3hPa | 2.6V | 00:00:00 | 00:00:00 | 00:00:00 | |
| DF7PN | 2026-09-03 01:14:30 | 50.73285 | 8.93050 | 105° | 38km/h | 3429m | -4.7m/s | 0.2°C | 80.9% | 678.0hPa | 2.6V | 00:00:00 | 00:00:00 | 00:00:00 | |
| DM0DOS-11 | 2026-09-03 01:14:29 | 50.73298 | 8.92954 | 106° | 44km/h | 3458m | -4.7m/s | 0.1°C | 81.5% | 675.4hPa | 2.6V | 07:48:25 | 02:56:52 | 00:00:00 | |
| BIOWL1-15 | 2026-09-03 01:14:28 | 50.73290 | 8.93019 | 101° | 38km/h | 3438m | -4.8m/s | 0.2°C | 86.5% | 677.1hPa | 2.7V | 07:48:29 | 02:56:56 | 00:00:00 | |
| DM0DOS-11 | 2026-09-03 01:14:24 | 50.73312 | 8.92875 | 105° | 42km/h | 3482m | -5.2m/s | -0.1°C | 83.8% | 673.4hPa | 2.7V | 07:48:30 | 02:56:47 | 00:00:00 | |
| DD1CC3-15 | 2026-09-03 01:14:24 | 50.73298 | 8.92954 | 107° | 44km/h | 3458m | -4.7m/s | 0.1°C | 81.0% | 675.4hPa | 2.7V | 07:48:00 | 00:00:00 | 00:00:00 | |
| DM0DOS-11 | 2026-09-03 01:14:19 | 50.73323 | 8.92796 | 100° | 44km/h | 3506m | -4.8m/s | -0.4°C | 85.7% | 671.4hPa | 2.7V | 07:48:35 | 02:56:42 | 00:00:00 | |
| BIOWL1-15 | 2026-09-03 01:14:17 | 50.73318 | 8.92844 | 104° | 38km/h | 3492m | -4.7m/s | -0.2°C | 89.1% | 672.5hPa | 2.6V | 07:49:20 | 02:56:45 | 00:00:00 | |
| HARRO8 | 2026-09-03 01:14:16 | 50.73320 | 8.92829 | 100° | 38km/h | 3496m | -4.8m/s | -0.3°C | 84.3% | 672.1hPa | 2.7V | 00:00:00 | 00:00:00 | 00:00:00 | |
| DM0DOS-11 | 2026-09-03 01:14:14 | 50.73335 | 8.92711 | 98° | 42km/h | 3530m | -4.9m/s | -0.6°C | 87% | 669.4hPa | 2.7V | 07:48:40 | 02:56:37 | 00:00:00 | |
| DB0UT-7 | 2026-09-03 01:14:14 | 50.73323 | 8.92796 | 101° | 44km/h | 3506m | -4.7m/s | -0.3°C | 85.7% | 671.4hPa | 2.6V | 00:00:00 | 02:56:42 | 00:00:00 | |
| DB0NH | 2026-09-03 01:14:11 | 50.73331 | 8.92744 | 104° | 46km/h | 3520m | -4.7m/s | -0.4°C | 86.7% | 670.1hPa | 2.6V | 00:00:00 | 02:56:39 | 00:00:00 | |
| DM0DOS-11 | 2026-09-03 01:14:09 | 50.73344 | 8.92625 | 98° | 42km/h | 3554m | -4.6m/s | -0.7°C | 84.2% | 667.4hPa | 2.6V | 07:48:45 | 02:56:32 | 00:00:00 | |
| BIOWL1-15 | 2026-09-03 01:14:07 | 50.73338 | 8.92676 | 99° | 46km/h | 3540m | -4.9m/s | -0.7°C | 90.4% | 668.5hPa | 2.7V | 07:49:20 | 02:56:35 | 00:00:00 | |
| HSKMA3-T | 2026-09-03 01:14:05 | 50.73343 | 8.92642 | 101° | 42km/h | 3549m | -4.4m/s | -0.7°C | 89.3% | 667.8hPa | 2.7V | 07:49:20 | 02:56:33 | 00:00:00 | |
| DB0ND-19 | 2026-09-03 01:14:05 | 50.73343 | 8.92642 | 100° | 42km/h | 3549m | -4.4m/s | -0.7°C | 84.5% | 667.8hPa | 2.7V | 00:00:00 | 00:00:00 | 00:00:00 | |
| DM0DOS-11 | 2026-09-03 01:14:04 | 50.73353 | 8.92537 | 101° | 44km/h | 3577m | -4.4m/s | -0.9°C | 86.9% | 665.5hPa | 2.7V | 07:48:50 | 02:56:27 | 00:00:00 | |
| NBG1-10 | 2026-09-03 01:14:03 | 50.73346 | 8.92608 | 97° | 49km/h | 3558m | -4.8m/s | -0.7°C | 85.0% | 666.9hPa | 2.7V | 00:00:00 | 02:56:31 | 00:00:00 | |
| DD1CC8 | 2026-09-03 01:14:02 | 50.73347 | 8.92591 | 97° | 44km/h | 3563m | -4.6m/s | -0.8°C | 85.8% | 666.6hPa | 2.7V | 00:00:00 | 00:00:00 | 00:00:00 | |
| DM0DOS-11 | 2026-09-03 01:13:59 | 50.73361 | 8.92448 | 98° | 47km/h | 3599m | -4.5m/s | -0.9°C | 85.6% | 663.5hPa | 2.7V | 07:48:55 | 02:56:22 | 00:00:00 | |
| BIOWL1-15 | 2026-09-03 01:13:58 | 50.73365 | 8.92411 | 101° | 44km/h | 3609m | -4.5m/s | -1°C | 90.1% | 662.8hPa | 2.7V | 07:49:20 | 02:56:20 | 00:00:00 | |
| DM0DOS-11 | 2026-09-03 01:13:53 | 50.73370 | 8.92358 | 97° | 46km/h | 3623m | -5m/s | -1.1°C | 87.1% | 661.6hPa | 2.7V | 07:49:00 | 02:56:17 | 00:00:00 | |
| DM0DOS-11 | 2026-09-03 01:13:48 | 50.73379 | 8.92270 | 96° | 46km/h | 3647m | -4.6m/s | -1.4°C | 88.9% | 659.6hPa | 2.6V | 07:49:05 | 02:56:12 | 00:00:00 | |
| BIOWL9-15 | 2026-09-03 01:13:47 | 50.73376 | 8.92305 | 100° | 42km/h | 3637m | -4.9m/s | -1.3°C | 87.7% | 660.5hPa | 2.7V | 00:00:00 | 00:00:00 | 00:00:00 | |
| BIOWL1-15 | 2026-09-03 01:13:43 | 50.73383 | 8.92214 | 99° | 49km/h | 3661m | -4.7m/s | -1.5°C | 93.2% | 658.5hPa | 2.7V | 07:49:20 | 02:56:09 | 00:00:00 | |
| DM0DOS-11 | 2026-09-03 01:13:43 | 50.73387 | 8.92176 | 96° | 47km/h | 3670m | -4.7m/s | -1.6°C | 90.2% | 657.7hPa | 2.7V | 07:49:10 | 02:56:07 | 00:00:00 | |
| DD1CC3-15 | 2026-09-03 01:13:42 | 50.73380 | 8.92252 | 97° | 47km/h | 3651m | -4.7m/s | -1.4°C | 88.5% | 659.3hPa | 2.7V | 07:49:00 | 00:00:00 | 00:00:00 | |
| DB0NH | 2026-09-03 01:13:41 | 50.73383 | 8.92214 | 99° | 51km/h | 3661m | -4.7m/s | -1.5°C | 89.8% | 658.5hPa | 2.7V | 00:00:00 | 02:56:09 | 00:00:00 | |
| BIOWL7-15 | 2026-09-03 01:13:40 | 50.73400 | 8.92214 | 100° | 49km/h | 3661m | -4.7m/s | -1.5°C | 89.1% | 658.5hPa | 2.7V | 00:00:00 | 00:00:00 | 00:00:00 | |
| DM0DOS-11 | 2026-09-03 01:13:36 | 50.73395 | 8.92076 | 98° | 49km/h | 3694m | -4.3m/s | -1.8°C | 91.4% | 655.7hPa | 2.7V | 07:49:15 | 02:56:02 | 00:00:00 | |
| HSKMA3-T | 2026-09-03 01:13:34 | 50.73395 | 8.92076 | 99° | 49km/h | 3694m | -4.3m/s | -1.8°C | 93.1% | 655.7hPa | 2.7V | 07:49:20 | 02:56:02 | 00:00:00 | |
| BIOWL1-15 | 2026-09-03 01:13:32 | 50.73400 | 8.92018 | 97° | 49km/h | 3708m | -4.9m/s | -1.9°C | 93.7% | 654.7hPa | 2.6V | 07:49:20 | 02:55:59 | 00:00:00 | |
| DJ8HS-15 | 2026-09-03 01:13:31 | 50.73400 | 8.92018 | 97° | 55km/h | 3708m | -4.8m/s | -1.9°C | 91.9% | 654.6hPa | 2.6V | 00:00:00 | 02:55:59 | 00:00:00 | |
| DM0DOS-11 | 2026-09-03 01:13:30 | 50.73404 | 8.91979 | 99° | 47km/h | 3717m | -4.7m/s | -2°C | 92.3% | 653.9hPa | 2.7V | 07:49:20 | 02:55:57 | 00:00:00 | |
| DF7PN | 2026-09-03 01:13:28 | 50.73405 | 8.91960 | 98° | 46km/h | 3722m | -4.8m/s | -2.0°C | 91.6% | 653.4hPa | 2.6V | 00:00:00 | 00:00:00 | 00:00:00 | |
| DM0DOS-11 | 2026-09-03 01:13:24 | 50.73412 | 8.91881 | 98° | 53km/h | 3741m | -4.3m/s | -2.1°C | 92.9% | 652hPa | 2.6V | 07:49:25 | 02:55:52 | 00:00:00 | |
| HSKMA3-T | 2026-09-03 01:13:24 | 50.73411 | 8.91882 | 99° | 53km/h | 3741m | -4.3m/s | -2.1°C | 94.6% | 652hPa | 2.6V | 07:51:53 | 02:55:52 | 00:00:00 | |
| BIOWL1-15 | 2026-09-03 01:13:21 | 50.73424 | 8.91778 | 100° | 55km/h | 3763m | -4.5m/s | -2.1°C | 92.3% | 650hPa | 2.6V | 07:50:11 | 02:55:47 | 00:00:00 | |
| DM0DOS-11 | 2026-09-03 01:13:19 | 50.73423 | 8.91778 | 99° | 55km/h | 3763m | -4.5m/s | -2.1°C | 89.9% | 650hPa | 2.6V | 07:49:30 | 02:55:47 | 00:00:00 | |
| DM0DOS-11 | 2026-09-03 01:13:19 | 50.73436 | 8.91672 | 97° | 55km/h | 3787m | -4.9m/s | -2.2°C | 86.6% | 648.1hPa | 2.7V | 07:49:35 | 02:55:42 | 00:00:00 | |
| NBG1-10 | 2026-09-03 01:13:18 | 50.73426 | 8.91756 | 102° | 55km/h | 3768m | -4.9m/s | -2.1°C | 89.9% | 649.6hPa | 2.7V | 00:00:00 | 02:55:46 | 00:00:00 | |
| BIOWL9-15 | 2026-09-03 01:13:16 | 50.73433 | 8.91693 | 98° | 53km/h | 3782m | -4.7m/s | -2.2°C | 87.3% | 648.5hPa | 2.7V | 00:00:00 | 00:00:00 | 00:00:00 | |
| DM0DOS-11 | 2026-09-03 01:13:14 | 50.73451 | 8.91563 | 105° | 55km/h | 3810m | -4.5m/s | -2.2°C | 70.1% | 646.4hPa | 2.7V | 07:49:40 | 02:55:37 | 00:00:00 | |
| HSKMA3-T | 2026-09-03 01:13:14 | 50.73435 | 8.91672 | 98° | 55km/h | 3787m | -4.9m/s | -2.3°C | 89% | 648.1hPa | 2.7V | 07:51:53 | 02:55:42 | 00:00:00 | |
| BIOWL1-15 | 2026-09-03 01:13:11 | 50.73443 | 8.91605 | 104° | 57km/h | 3801m | -4.5m/s | -2.3°C | 84.6% | 647hPa | 2.6V | 07:50:11 | 02:55:39 | 00:00:00 | |
| DB0NH | 2026-09-03 01:13:11 | 50.73443 | 8.91605 | 105° | 57km/h | 3801m | -4.5m/s | -2.3°C | 82.2% | 647.0hPa | 2.6V | 00:00:00 | 02:55:39 | 00:00:00 | |
| DM0DOS-11 | 2026-09-03 01:13:09 | 50.73468 | 8.91456 | 107° | 55km/h | 3833m | -4.8m/s | -2.2°C | 58.4% | 644.3hPa | 2.6V | 07:49:45 | 02:55:32 | 00:00:00 | |
| SONCRA | 2026-09-03 01:13:07 | 50.73541 | 8.91095 | 111° | 57km/h | 3912m | -4.6m/s | 0°C | -1.0% | -1.0hPa | 2.6V | 00:00:00 | 00:00:00 | 00:00:00 | |
| DM0DOS-11 | 2026-09-03 01:13:04 | 50.73487 | 8.91349 | 106° | 58km/h | 3856m | -4.4m/s | -2.2°C | 47.8% | 642.5hPa | 2.6V | 07:49:50 | 02:55:27 | 00:00:00 | |
| BIOWL1-15 | 2026-09-03 01:13:01 | 50.73479 | 8.91393 | 103° | 55km/h | 3847m | -4.5m/s | -2.1°C | 53% | 643.2hPa | 2.7V | 07:50:11 | 02:55:29 | 00:00:00 | |
| DD1CC8 | 2026-09-03 01:13:00 | 50.73483 | 8.91371 | 104° | 57km/h | 3851m | -4.7m/s | -2.1°C | 47.1% | 643.0hPa | 2.6V | 00:00:00 | 00:00:00 | 00:00:00 | |
| DM0DOS-11 | 2026-09-03 01:12:59 | 50.73508 | 8.91242 | 108° | 57km/h | 3879m | -4.8m/s | -2.2°C | 41.7% | 640.6hPa | 2.6V | 07:49:55 | 02:55:22 | 00:00:00 | |
| DF7PN | 2026-09-03 01:12:57 | 50.73495 | 8.91306 | 108° | 55km/h | 3865m | -4.7m/s | -2.2°C | 45.5% | 641.8hPa | 2.6V | 00:00:00 | 00:00:00 | 00:00:00 | |
| DM0DOS-11 | 2026-09-03 01:12:54 | 50.73531 | 8.91139 | 107° | 57km/h | 3903m | -4.7m/s | -2.4°C | 44.3% | 638.7hPa | 2.6V | 07:50:00 | 02:55:17 | 00:00:00 | |
| BIOWL1-15 | 2026-09-03 01:12:50 | 50.73527 | 8.91160 | 108° | 55km/h | 3898m | -4.6m/s | -2.3°C | 47.5% | 639.1hPa | 2.7V | 07:50:11 | 02:55:18 | 00:00:00 | |
| DM0DOS-11 | 2026-09-03 01:12:49 | 50.73556 | 8.91034 | 109° | 55km/h | 3926m | -4.4m/s | -2.5°C | 46% | 636.9hPa | 2.6V | 07:50:05 | 02:55:12 | 00:00:00 | |
| BIOWL9-15 | 2026-09-03 01:12:45 | 50.73556 | 8.91034 | 109° | 53km/h | 3926m | -4.4m/s | -2.5°C | 45.5% | 636.9hPa | 2.6V | 00:00:00 | 00:00:00 | 00:00:00 | |
| DM0DOS-11 | 2026-09-03 01:12:44 | 50.73582 | 8.90927 | 114° | 58km/h | 3949m | -4.1m/s | -2.5°C | 42.2% | 635.1hPa | 2.6V | 07:50:10 | 02:55:07 | 00:00:00 | |
| BIOWL1-15 | 2026-09-03 01:12:40 | 50.73576 | 8.90948 | 114° | 58km/h | 3944m | -4.5m/s | -2.5°C | 47.9% | 635.4hPa | 2.6V | 07:50:11 | 02:55:08 | 00:00:00 | |
| DM0DOS-11 | 2026-09-03 01:12:39 | 50.73610 | 8.90819 | 114° | 60km/h | 3971m | -4.5m/s | -2.5°C | 30.5% | 633.1hPa | 2.6V | 07:50:15 | 02:55:02 | 00:00:00 | |
| HSKMA3-T | 2026-09-03 01:12:39 | 50.73582 | 8.90927 | 114° | 58km/h | 3949m | -4.1m/s | -2.5°C | 46.7% | 635.1hPa | 2.6V | 07:51:53 | 02:55:07 | 00:00:00 | |
| SONCRA | 2026-09-03 01:12:36 | 50.73604 | 8.90841 | 112° | 60km/h | 3967m | -4.7m/s | 0°C | -1.0% | -1.0hPa | 2.6V | 00:00:00 | 00:00:00 | 00:00:00 | |
| DM0DOS-11 | 2026-09-03 01:12:34 | 50.73639 | 8.90715 | 112° | 58km/h | 3994m | -4.7m/s | -2.6°C | 26.6% | 631.4hPa | 2.6V | 07:50:20 | 02:54:57 | 00:00:00 | |
| BIOWL1-15 | 2026-09-03 01:12:32 | 50.73634 | 8.90736 | 111° | 57km/h | 3989m | -4.5m/s | -2.6°C | 32.5% | 631.9hPa | 2.6V | 07:51:02 | 02:54:58 | 00:00:00 | |
| DB0ND-19 | 2026-09-03 01:12:32 | 50.73629 | 8.90757 | 112° | 55km/h | 3985m | -4.5m/s | -2.6°C | 28.9% | 632.1hPa | 2.6V | 00:00:00 | 00:00:00 | 00:00:00 | |
| DD1CC8 | 2026-09-03 01:12:29 | 50.73639 | 8.90715 | 112° | 57km/h | 3993m | -4.7m/s | -2.6°C | 26.3% | 631.4hPa | 2.6V | 00:00:00 | 00:00:00 | 00:00:00 | |
| DO3DL | 2026-09-03 01:12:27 | 50.73645 | 8.90693 | 115° | 58km/h | 3998m | -4.6m/s | -2.6°C | 25.0% | 631.1hPa | 2.6V | 07:51:00 | 00:00:00 | 00:00:00 | |
| DF7PN | 2026-09-03 01:12:26 | 50.73657 | 8.90651 | 114° | 55km/h | 4008m | -5.0m/s | -2.7°C | 20.3% | 630.3hPa | 2.6V | 00:00:00 | 00:00:00 | 00:00:00 | |
| DM0DOS-11 | 2026-09-03 01:12:23 | 50.73702 | 8.90504 | 116° | 55km/h | 4040m | -4.5m/s | -2.5°C | 17.3% | 627.8hPa | 2.6V | 07:50:30 | 02:54:47 | 00:00:00 | |
| HSKMA3-T | 2026-09-03 01:12:21 | 50.73689 | 8.90544 | 119° | 60km/h | 4031m | -4.7m/s | -2.6°C | 19.4% | 628.5hPa | 2.6V | 07:51:53 | 02:54:49 | 00:00:00 | |
| BIOWL1-15 | 2026-09-03 01:12:21 | 50.73702 | 8.90504 | 116° | 55km/h | 4040m | -4.5m/s | -2.6°C | 20.2% | 627.8hPa | 2.6V | 07:51:02 | 02:54:47 | 00:00:00 | |
| DO3DL | 2026-09-03 01:12:21 | 50.73689 | 8.90544 | 120° | 60km/h | 4031m | -4.7m/s | -2.6°C | 16.5% | 628.5hPa | 2.6V | 07:51:00 | 00:00:00 | 00:00:00 | |
| DL8OAI-8 | 2026-09-03 01:12:19 | 50.73702 | 8.90504 | 117° | 55km/h | 4040m | -4.5m/s | -2.6°C | 17.1% | 627.8hPa | 2.6V | 07:51:00 | 00:00:00 | 00:00:00 | |
| DB0UT-7 | 2026-09-03 01:12:14 | 50.73732 | 8.90396 | 118° | 58km/h | 4063m | -4.5m/s | -2.8°C | 36.7% | 626.0hPa | 2.6V | 00:00:00 | 02:54:42 | 00:00:00 | |
| DO3DL | 2026-09-03 01:12:13 | 50.73732 | 8.90396 | 118° | 60km/h | 4063m | -4.6m/s | -2.8°C | 36.3% | 626.0hPa | 2.6V | 07:51:00 | 00:00:00 | 00:00:00 | |
| DJ8HS-15 | 2026-09-03 01:12:12 | 50.73746 | 8.90355 | 118° | 57km/h | 4072m | -4.4m/s | -2.8°C | 40.5% | 625.2hPa | 2.6V | 00:00:00 | 02:54:40 | 00:00:00 | |
| DB0NH | 2026-09-03 01:12:11 | 50.73752 | 8.90336 | 116° | 57km/h | 4076m | -4.5m/s | -2.9°C | 42.1% | 624.9hPa | 2.6V | 00:00:00 | 02:54:39 | 00:00:00 | |
| DM0DOS-11 | 2026-09-03 01:12:10 | 50.73764 | 8.90295 | 112° | 57km/h | 4085m | -4.7m/s | -3°C | 46.8% | 624.1hPa | 2.6V | 07:50:40 | 02:54:37 | 00:00:00 | |
| HSKMA3-T | 2026-09-03 01:12:10 | 50.73758 | 8.90315 | 113° | 57km/h | 4081m | -4.6m/s | -3°C | 49.5% | 624.6hPa | 2.6V | 07:51:53 | 02:54:38 | 00:00:00 | |
| BIOWL1-15 | 2026-09-03 01:12:10 | 50.73769 | 8.90273 | 114° | 58km/h | 4090m | -4.6m/s | -3.1°C | 53.7% | 623.8hPa | 2.6V | 07:51:02 | 02:54:36 | 00:00:00 | |
| HSKMA3-T | 2026-09-03 01:12:00 | 50.73818 | 8.90104 | 116° | 55km/h | 4128m | -4.7m/s | -3.5°C | 68.5% | 620.8hPa | 2.6V | 07:51:53 | 02:54:28 | 00:00:00 | |
| DM0DOS-11 | 2026-09-03 01:11:59 | 50.73824 | 8.90084 | 114° | 55km/h | 4132m | -4.7m/s | -3.6°C | 67.2% | 620.5hPa | 2.6V | 07:50:50 | 02:54:27 | 00:00:00 | |
| DM0DOS-11 | 2026-09-03 01:11:59 | 50.73853 | 8.89979 | 112° | 57km/h | 4156m | -4.5m/s | -3.8°C | 70.4% | 618.6hPa | 2.6V | 07:50:55 | 02:54:22 | 00:00:00 | |
| BIOWL1-15 | 2026-09-03 01:11:58 | 50.73830 | 8.90063 | 113° | 57km/h | 4137m | -4.8m/s | -3.6°C | 75.6% | 620.1hPa | 2.6V | 07:51:02 | 02:54:26 | 00:00:00 | |
| DD1CC8 | 2026-09-03 01:11:58 | 50.73835 | 8.90042 | 112° | 58km/h | 4142m | -4.8m/s | -3.7°C | 70.5% | 619.7hPa | 2.6V | 00:00:00 | 00:00:00 | 00:00:00 | |
| DF7PN | 2026-09-03 01:11:55 | 50.73848 | 8.90000 | 114° | 57km/h | 4151m | -4.9m/s | -3.8°C | 69.8% | 618.9hPa | 2.6V | 00:00:00 | 00:00:00 | 00:00:00 | |
| DM0DOS-11 | 2026-09-03 01:11:54 | 50.73881 | 8.89869 | 114° | 60km/h | 4180m | -4.6m/s | -4.1°C | 76.2% | 616.7hPa | 2.6V | 07:51:00 | 02:54:17 | 00:00:00 | |
| DO3DL | 2026-09-03 01:11:53 | 50.73853 | 8.89979 | 114° | 57km/h | 4156m | -4.5m/s | -3.8°C | 69.6% | 618.6hPa | 2.6V | 07:51:00 | 00:00:00 | 00:00:00 | |
| DO9LL-15 | 2026-09-03 01:11:50 | 50.73875 | 8.89891 | 113° | 57km/h | 4175m | -4.8m/s | -4.0°C | 76.2% | 617.0hPa | 2.6V | 00:00:00 | 02:54:18 | 00:00:00 | |
| DM0DOS-11 | 2026-09-03 01:11:49 | 50.73908 | 8.89766 | 111° | 57km/h | 4203m | -4.8m/s | -4.3°C | 79.3% | 614.9hPa | 2.6V | 07:51:05 | 02:54:12 | 00:00:00 | |
| HSKMA3-T | 2026-09-03 01:11:49 | 50.73881 | 8.89869 | 114° | 60km/h | 4180m | -4.6m/s | -4.1°C | 80.5% | 616.7hPa | 2.6V | 07:51:53 | 02:54:17 | 00:00:00 | |
| BIOWL1-15 | 2026-09-03 01:11:48 | 50.73887 | 8.89848 | 115° | 57km/h | 4185m | -4.4m/s | -4.1°C | 82.1% | 616.4hPa | 2.6V | 07:51:02 | 02:54:16 | 00:00:00 | |
| DO3DL | 2026-09-03 01:11:46 | 50.73892 | 8.89827 | 115° | 55km/h | 4189m | -4.5m/s | -4.2°C | 77.1% | 616.0hPa | 2.6V | 07:51:00 | 00:00:00 | 00:00:00 | |
| DB0UT-7 | 2026-09-03 01:11:44 | 50.73908 | 8.89766 | 112° | 55km/h | 4203m | -4.8m/s | -4.3°C | 79.3% | 614.9hPa | 2.6V | 00:00:00 | 00:00:00 | 00:00:00 | |
| BIOWL9-15 | 2026-09-03 01:11:43 | 50.73919 | 8.89724 | 114° | 57km/h | 4212m | -4.6m/s | -4.4°C | 79.8% | 614.1hPa | 2.6V | 00:00:00 | 00:00:00 | 00:00:00 | |
| DB0NH | 2026-09-03 01:11:41 | 50.73925 | 8.89704 | 116° | 55km/h | 4217m | -4.8m/s | -4.4°C | 80.7% | 613.7hPa | 2.6V | 00:00:00 | 02:54:09 | 00:00:00 | |
| DM0DOS-11 | 2026-09-03 01:11:39 | 50.73963 | 8.89561 | 110° | 53km/h | 4251m | -4.8m/s | -4.8°C | 82.7% | 611.1hPa | 2.6V | 07:51:15 | 02:54:02 | 00:00:00 | |
| BIOWL1-15 | 2026-09-03 01:11:37 | 50.73947 | 8.89622 | 113° | 57km/h | 4237m | -4.9m/s | -4.6°C | 86.3% | 612.3hPa | 2.6V | 07:51:53 | 02:54:05 | 00:00:00 | |
| HSKMA3-T | 2026-09-03 01:11:35 | 50.73958 | 8.89581 | 113° | 55km/h | 4246m | -4.9m/s | -4.7°C | 86.7% | 611.6hPa | 2.6V | 07:51:53 | 02:54:03 | 00:00:00 | |
| DM0DOS-11 | 2026-09-03 01:11:34 | 50.73989 | 8.89457 | 113° | 55km/h | 4275m | -4.6m/s | -5°C | 83.7% | 609.3hPa | 2.6V | 07:51:20 | 02:53:57 | 00:00:00 | |
| DO3DL | 2026-09-03 01:11:32 | 50.73968 | 8.89541 | 110° | 55km/h | 4256m | -5.1m/s | -4.8°C | 81.8% | 610.9hPa | 2.6V | 07:51:00 | 00:00:00 | 00:00:00 | |
| DB0ND-19 | 2026-09-03 01:11:30 | 50.73989 | 8.89457 | 113° | 53km/h | 4275m | -4.6m/s | -5.0°C | 82.6% | 609.3hPa | 2.6V | 00:00:00 | 00:00:00 | 00:00:00 | |
| DM0DOS-11 | 2026-09-03 01:11:29 | 50.74014 | 8.89355 | 112° | 57km/h | 4299m | -4.9m/s | -5.2°C | 84.7% | 607.5hPa | 2.6V | 07:51:25 | 02:53:52 | 00:00:00 | |
| BIOWL1-15 | 2026-09-03 01:11:27 | 50.74019 | 8.89335 | 113° | 55km/h | 4303m | -4.8m/s | -5.3°C | 88.5% | 607.2hPa | 2.6V | 07:51:53 | 02:53:51 | 00:00:00 | |
| HSKMA3-T | 2026-09-03 01:11:24 | 50.74014 | 8.89355 | 112° | 57km/h | 4299m | -4.9m/s | -5.2°C | 88.3% | 607.5hPa | 2.6V | 07:51:53 | 02:53:52 | 00:00:00 | |
| DF7PN | 2026-09-03 01:11:24 | 50.74019 | 8.89335 | 112° | 53km/h | 4303m | -4.8m/s | -5.3°C | 83.8% | 607.2hPa | 2.6V | 00:00:00 | 00:00:00 | 00:00:00 | |
| DO9LL-15 | 2026-09-03 01:11:20 | 50.74033 | 8.89275 | 109° | 53km/h | 4318m | -4.8m/s | -5.3°C | 85.8% | 605.9hPa | 2.6V | 00:00:00 | 02:53:48 | 00:00:00 | |
| DM0DOS-11 | 2026-09-03 01:11:19 | 50.74063 | 8.89152 | 110° | 55km/h | 4347m | -4.9m/s | -5.7°C | 87.4% | 603.8hPa | 2.6V | 07:51:35 | 02:53:42 | 00:00:00 | |
| HSKMA3-T | 2026-09-03 01:11:14 | 50.74064 | 8.89152 | 110° | 55km/h | 4347m | -4.9m/s | -5.7°C | 90.9% | 603.8hPa | 2.6V | 07:51:53 | 02:53:42 | 00:00:00 | |
| BIOWL1-15 | 2026-09-03 01:11:13 | 50.74073 | 8.89112 | 112° | 51km/h | 4357m | -5m/s | -5.8°C | 91.2% | 603hPa | 2.6V | 07:51:53 | 02:53:40 | 00:00:00 | |
| DO3DL | 2026-09-03 01:11:13 | 50.74068 | 8.89132 | 112° | 53km/h | 4352m | -5.3m/s | -5.7°C | 86.3% | 603.4hPa | 2.6V | 07:51:00 | 00:00:00 | 00:00:00 | |
| BIOWL9-15 | 2026-09-03 01:11:12 | 50.74078 | 8.89093 | 109° | 49km/h | 4362m | -5.1m/s | -5.8°C | 86.8% | 602.5hPa | 2.6V | 00:00:00 | 00:00:00 | 00:00:00 | |
| DB0NH | 2026-09-03 01:11:11 | 50.74078 | 8.89093 | 110° | 53km/h | 4362m | -5.1m/s | -5.8°C | 88.0% | 602.5hPa | 2.6V | 07:51:00 | 02:53:39 | 00:00:00 | |
| HARRO8 | 2026-09-03 01:11:10 | 50.74082 | 8.89074 | 106° | 49km/h | 4367m | -5.0m/s | -5.9°C | 86.9% | 602.2hPa | 2.6V | 00:00:00 | 00:00:00 | 00:00:00 | |
| DM0DOS-11 | 2026-09-03 01:11:09 | 50.74106 | 8.88953 | 106° | 53km/h | 4396m | -5.2m/s | -6.1°C | 88.8% | 599.9hPa | 2.6V | 07:51:45 | 02:53:32 | 00:00:00 | |
| HSKMA3-T | 2026-09-03 01:11:03 | 50.74110 | 8.88932 | 105° | 55km/h | 4401m | -4.7m/s | -6.1°C | 91.4% | 599.7hPa | 2.6V | 07:51:53 | 02:53:31 | 00:00:00 | |
| BIOWL1-15 | 2026-09-03 01:11:02 | 50.74113 | 8.88912 | 107° | 55km/h | 4406m | -4.8m/s | -6.2°C | 91% | 599.3hPa | 2.6V | 07:51:53 | 02:53:30 | 00:00:00 | |
| NBG1-10 | 2026-09-03 01:11:02 | 50.74113 | 8.88912 | 107° | 55km/h | 4406m | -4.7m/s | -6.1°C | 88.5% | 599.2hPa | 2.6V | 00:00:00 | 02:53:30 | 00:00:00 | |
| DM0DOS-11 | 2026-09-03 01:10:59 | 50.74145 | 8.88753 | 107° | 53km/h | 4444m | -5.1m/s | -6.5°C | 89.3% | 596.4hPa | 2.6V | 07:51:55 | 02:53:22 | 00:00:00 | |
| HSKMA3-T | 2026-09-03 01:10:53 | 50.74149 | 8.88733 | 107° | 51km/h | 4449m | -5.1m/s | -6.6°C | 92.6% | 595.8hPa | 2.6V | 07:52:44 | 02:53:21 | 00:00:00 | |
| BIOWL1-15 | 2026-09-03 01:10:51 | 50.74159 | 8.88671 | 104° | 57km/h | 4464m | -4.8m/s | -6.6°C | 89.2% | 594.8hPa | 2.5V | 07:52:44 | 02:53:18 | 00:00:00 | |
| DM0DOS-11 | 2026-09-03 01:10:49 | 50.74181 | 8.88548 | 105° | 53km/h | 4493m | -5m/s | -6.9°C | 87.4% | 592.5hPa | 2.5V | 07:52:05 | 02:53:12 | 00:00:00 | |
| DL1NUX | 2026-09-03 01:10:45 | 50.74184 | 8.88528 | 107° | 53km/h | 4498m | -4.9m/s | -6.9°C | 87.5% | 592.2hPa | 2.6V | 07:52:06 | 02:53:11 | 00:00:00 | |
| HSKMA3-T | 2026-09-03 01:10:43 | 50.74185 | 8.88528 | 107° | 53km/h | 4498m | -4.9m/s | -6.9°C | 89.8% | 592.2hPa | 2.6V | 07:52:44 | 02:53:11 | 00:00:00 | |
| BIOWL1-15 | 2026-09-03 01:10:39 | 50.74198 | 8.88450 | 103° | 53km/h | 4518m | -4.9m/s | -7.1°C | 91.5% | 590.6hPa | 2.5V | 07:52:44 | 02:53:07 | 00:00:00 | |
| DJ8HS-15 | 2026-09-03 01:10:39 | 50.74198 | 8.88450 | 104° | 53km/h | 4518m | -4.8m/s | -7.0°C | 89.9% | 590.6hPa | 2.5V | 00:00:00 | 02:53:07 | 00:00:00 | |
| DD1CC3-15 | 2026-09-03 01:10:38 | 50.74199 | 8.88450 | 104° | 53km/h | 4518m | -4.9m/s | -7.1°C | 88.5% | 590.6hPa | 2.6V | 07:52:00 | 00:00:00 | 00:00:00 | |
| DO3DL | 2026-09-03 01:10:37 | 50.74201 | 8.88430 | 106° | 55km/h | 4523m | -5.0m/s | -7.1°C | 89.6% | 590.4hPa | 2.6V | 07:52:00 | 00:00:00 | 00:00:00 | |
| DL8OAI-8 | 2026-09-03 01:10:36 | 50.74205 | 8.88409 | 108° | 55km/h | 4528m | -4.9m/s | -7.2°C | 90.4% | 590.0hPa | 2.6V | 07:52:00 | 00:00:00 | 00:00:00 | |
| DM0DOS-11 | 2026-09-03 01:10:34 | 50.74236 | 8.88249 | 107° | 51km/h | 4568m | -5.2m/s | -7.5°C | 92.5% | 587hPa | 2.6V | 07:52:20 | 02:52:57 | 00:00:00 | |
| DL1NUX | 2026-09-03 01:10:33 | 50.74220 | 8.88330 | 104° | 53km/h | 4548m | -5m/s | -7.4°C | 94.2% | 588.4hPa | 2.5V | 07:52:16 | 02:53:01 | 00:00:00 | |
| HSKMA3-T | 2026-09-03 01:10:33 | 50.74220 | 8.88329 | 105° | 53km/h | 4548m | -5m/s | -7.4°C | 95.3% | 588.4hPa | 2.5V | 07:52:44 | 02:53:01 | 00:00:00 | |
| DO3DL | 2026-09-03 01:10:30 | 50.74232 | 8.88269 | 109° | 51km/h | 4563m | -5.3m/s | -7.5°C | 92.7% | 587.3hPa | 2.6V | 07:52:00 | 00:00:00 | 00:00:00 | |
| DM0DOS-11 | 2026-09-03 01:10:29 | 50.74257 | 8.88149 | 109° | 51km/h | 4592m | -5m/s | -7.6°C | 89.1% | 585.1hPa | 2.6V | 07:52:25 | 02:52:52 | 00:00:00 | |
| BIOWL1-15 | 2026-09-03 01:10:28 | 50.74252 | 8.88169 | 110° | 53km/h | 4587m | -5.1m/s | -7.6°C | 90.3% | 585.5hPa | 2.6V | 07:52:44 | 02:52:53 | 00:00:00 | |
| DB0ND-19 | 2026-09-03 01:10:28 | 50.74244 | 8.88209 | 107° | 53km/h | 4577m | -4.7m/s | -7.5°C | 89.4% | 586.2hPa | 2.6V | 00:00:00 | 00:00:00 | 00:00:00 | |
| DD1CC8 | 2026-09-03 01:10:25 | 50.74257 | 8.88149 | 109° | 51km/h | 4592m | -5.0m/s | -7.6°C | 87.7% | 585.1hPa | 2.6V | 00:00:00 | 00:00:00 | 00:00:00 | |
| DM0DOS-11 | 2026-09-03 01:10:24 | 50.74277 | 8.88045 | 109° | 58km/h | 4617m | -5.4m/s | -7.5°C | 71.6% | 583.2hPa | 2.6V | 07:52:30 | 02:52:47 | 00:00:00 | |
| DL1NUX | 2026-09-03 01:10:23 | 50.74261 | 8.88130 | 106° | 51km/h | 4597m | -4.7m/s | -7.6°C | 87.2% | 584.8hPa | 2.6V | 07:52:26 | 02:52:51 | 00:00:00 | |
| HSKMA3-T | 2026-09-03 01:10:23 | 50.74261 | 8.88130 | 107° | 51km/h | 4597m | -4.7m/s | -7.6°C | 87.8% | 584.8hPa | 2.6V | 07:52:44 | 02:52:51 | 00:00:00 | |
| BIOWL1-15 | 2026-09-03 01:10:22 | 50.74282 | 8.88024 | 111° | 57km/h | 4622m | -4.8m/s | -7.5°C | 73.3% | 582.9hPa | 2.6V | 07:52:44 | 02:52:46 | 00:00:00 | |
| DO9LL-15 | 2026-09-03 01:10:20 | 50.74272 | 8.88067 | 108° | 60km/h | 4612m | -5.1m/s | -7.5°C | 74.8% | 583.5hPa | 2.6V | 00:00:00 | 02:52:48 | 00:00:00 | |
| DM0DOS-11 | 2026-09-03 01:10:19 | 50.74302 | 8.87940 | 109° | 58km/h | 4642m | -5.3m/s | -7.7°C | 69.4% | 581.5hPa | 2.6V | 07:52:35 | 02:52:42 | 00:00:00 | |
| DD1CC3-15 | 2026-09-03 01:10:19 | 50.74277 | 8.88045 | 111° | 58km/h | 4617m | -5.4m/s | -7.5°C | 70.5% | 583.2hPa | 2.6V | 07:52:00 | 00:00:00 | 00:00:00 | |
| DO3DL | 2026-09-03 01:10:16 | 50.74287 | 8.88003 | 113° | 55km/h | 4627m | -4.8m/s | -7.6°C | 69.9% | 582.6hPa | 2.6V | 07:52:00 | 00:00:00 | 00:00:00 | |
| DL8OAI-8 | 2026-09-03 01:10:15 | 50.74292 | 8.87982 | 112° | 55km/h | 4632m | -4.9m/s | -7.6°C | 71.2% | 582.3hPa | 2.6V | 07:52:00 | 00:00:00 | 00:00:00 | |
| DM0DOS-11 | 2026-09-03 01:10:14 | 50.74332 | 8.87829 | 114° | 60km/h | 4667m | -4.7m/s | -7.8°C | 64.3% | 579.6hPa | 2.6V | 07:52:40 | 02:52:37 | 00:00:00 | |
| DB0UT-7 | 2026-09-03 01:10:14 | 50.74302 | 8.87940 | 110° | 64km/h | 4642m | -5.2m/s | -7.6°C | 69.4% | 581.4hPa | 2.6V | 00:00:00 | 02:52:42 | 00:00:00 | |
| DL1NUX | 2026-09-03 01:10:13 | 50.74338 | 8.87807 | 114° | 60km/h | 4671m | -5.1m/s | -7.8°C | 62.5% | 579.3hPa | 2.6V | 07:52:41 | 02:52:36 | 00:00:00 | |
| HSKMA3-T | 2026-09-03 01:10:12 | 50.74313 | 8.87895 | 112° | 62km/h | 4652m | -5.1m/s | -7.7°C | 69.6% | 580.7hPa | 2.6V | 07:52:44 | 02:52:40 | 00:00:00 | |
| BIOWL1-15 | 2026-09-03 01:10:07 | 50.74359 | 8.87739 | 117° | 62km/h | 4688m | -5.3m/s | -7.8°C | 58.8% | 578hPa | 2.5V | 07:52:44 | 02:52:33 | 00:00:00 | |
| DM0DOS-11 | 2026-09-03 01:10:06 | 50.74366 | 8.87718 | 117° | 60km/h | 4692m | -4.9m/s | -7.8°C | 56.2% | 577.6hPa | 2.5V | 07:52:45 | 02:52:32 | 00:00:00 | |
| HSKMA3-T | 2026-09-03 01:10:02 | 50.74379 | 8.87674 | 113° | 62km/h | 4702m | -4.7m/s | -7.9°C | 58.4% | 576.9hPa | 2.6V | 07:53:35 | 02:52:30 | 00:00:00 | |
| DM0DOS-11 | 2026-09-03 01:10:00 | 50.74398 | 8.87604 | 114° | 64km/h | 4717m | -5.3m/s | -7.7°C | 46.2% | 575.9hPa | 2.5V | 07:52:50 | 02:52:27 | 00:00:00 | |
| BIOWL1-15 | 2026-09-03 01:09:57 | 50.74412 | 8.87558 | 114° | 64km/h | 4727m | -5.4m/s | -7.8°C | 47.8% | 575hPa | 2.6V | 07:53:35 | 02:52:25 | 00:00:00 | |
| DB0ND-19 | 2026-09-03 01:09:57 | 50.74425 | 8.87510 | 113° | 66km/h | 4738m | -5.4m/s | -8.0°C | 47.6% | 574.3hPa | 2.6V | 00:00:00 | 00:00:00 | 00:00:00 | |
| DO3DL | 2026-09-03 01:09:56 | 50.74412 | 8.87558 | 115° | 64km/h | 4727m | -5.4m/s | -7.8°C | 43.3% | 575.0hPa | 2.6V | 07:53:00 | 00:00:00 | 00:00:00 | |
| DL1NUX | 2026-09-03 01:09:55 | 50.74425 | 8.87510 | 113° | 68km/h | 4738m | -5.4m/s | -8°C | 48.4% | 574.3hPa | 2.6V | 07:52:54 | 02:52:23 | 00:00:00 | |
| DM0DOS-11 | 2026-09-03 01:09:54 | 50.74432 | 8.87485 | 115° | 68km/h | 4743m | -5.3m/s | -7.9°C | 42.8% | 573.7hPa | 2.5V | 07:52:55 | 02:52:22 | 00:00:00 | |
| DM0DOS-11 | 2026-09-03 01:09:54 | 50.74468 | 8.87366 | 113° | 69km/h | 4769m | -5.1m/s | -7.3°C | 21.9% | 572hPa | 2.5V | 07:53:00 | 02:52:17 | 00:00:00 | |
| HSKMA3-T | 2026-09-03 01:09:51 | 50.74454 | 8.87414 | 115° | 66km/h | 4759m | -5.3m/s | -7.4°C | 28.9% | 572.7hPa | 2.6V | 07:53:35 | 02:52:19 | 00:00:00 | |
| DF7PN | 2026-09-03 01:09:51 | 50.74461 | 8.87390 | 113° | 66km/h | 4764m | -5.2m/s | -7.4°C | 23.0% | 572.3hPa | 2.6V | 00:00:00 | 00:00:00 | 00:00:00 | |
| DO3DL | 2026-09-03 01:09:50 | 50.74461 | 8.87390 | 115° | 66km/h | 4764m | -5.2m/s | -7.4°C | 23.0% | 572.3hPa | 2.6V | 07:53:00 | 00:00:00 | 00:00:00 | |
| DM0DOS-11 | 2026-09-03 01:09:49 | 50.74504 | 8.87240 | 113° | 71km/h | 4795m | -5.2m/s | -7.3°C | 19.3% | 570.1hPa | 2.6V | 07:53:05 | 02:52:12 | 00:00:00 | |
| BIOWL1-15 | 2026-09-03 01:09:48 | 50.74490 | 8.87291 | 114° | 68km/h | 4785m | -5.4m/s | -7.3°C | 22.4% | 571hPa | 2.6V | 07:53:35 | 02:52:14 | 00:00:00 | |
| DM0DOS-11 | 2026-09-03 01:09:44 | 50.74543 | 8.87112 | 114° | 69km/h | 4820m | -4.9m/s | -7.5°C | 17.3% | 568.1hPa | 2.6V | 07:53:10 | 02:52:07 | 00:00:00 | |
| DB0UT-7 | 2026-09-03 01:09:44 | 50.74504 | 8.87240 | 114° | 73km/h | 4795m | -5.1m/s | -7.3°C | 19.3% | 570.0hPa | 2.6V | 00:00:00 | 00:00:00 | 00:00:00 | |
| DD1CC3-15 | 2026-09-03 01:09:43 | 50.74543 | 8.87112 | 115° | 69km/h | 4820m | -4.9m/s | -7.5°C | 16.9% | 568.1hPa | 2.6V | 07:53:00 | 00:00:00 | 00:00:00 | |
| DL1NUX | 2026-09-03 01:09:42 | 50.74557 | 8.87060 | 114° | 73km/h | 4830m | -5.2m/s | -7.5°C | 15.7% | 567.4hPa | 2.6V | 07:53:12 | 02:52:05 | 00:00:00 | |
| HSKMA3-T | 2026-09-03 01:09:41 | 50.74528 | 8.87162 | 117° | 69km/h | 4810m | -4.9m/s | -7.4°C | 20.7% | 568.9hPa | 2.5V | 07:53:35 | 02:52:09 | 00:00:00 | |
| DB0NH | 2026-09-03 01:09:40 | 50.74536 | 8.87138 | 116° | 73km/h | 4815m | -4.9m/s | -7.4°C | 17.7% | 568.6hPa | 2.6V | 00:00:00 | 02:52:08 | 00:00:00 | |
| DJ8HS-15 | 2026-09-03 01:09:39 | 50.74543 | 8.87112 | 115° | 73km/h | 4820m | -4.9m/s | -7.4°C | 17.3% | 568.1hPa | 2.6V | 00:00:00 | 02:52:07 | 00:00:00 | |
| BIOWL9-15 | 2026-09-03 01:09:38 | 50.74550 | 8.87087 | 113° | 71km/h | 4825m | -5.1m/s | -7.4°C | 15.9% | 567.9hPa | 2.5V | 00:00:00 | 00:00:00 | 00:00:00 | |
| HARRO8 | 2026-09-03 01:09:37 | 50.74566 | 8.87034 | 116° | 73km/h | 4835m | -5.3m/s | -7.5°C | 15.3% | 567.1hPa | 2.5V | 00:00:00 | 00:00:00 | 00:00:00 | |
| DM0DOS-11 | 2026-09-03 01:09:36 | 50.74582 | 8.86983 | 116° | 71km/h | 4845m | -5.1m/s | -7.5°C | 15.9% | 566.4hPa | 2.5V | 07:53:15 | 02:52:02 | 00:00:00 | |
| BIOWL1-15 | 2026-09-03 01:09:36 | 50.74566 | 8.87034 | 116° | 73km/h | 4835m | -5.3m/s | -7.5°C | 17.9% | 567.1hPa | 2.6V | 07:53:35 | 02:52:04 | 00:00:00 | |
| DO3DL | 2026-09-03 01:09:36 | 50.74566 | 8.87034 | 117° | 73km/h | 4835m | -5.3m/s | -7.5°C | 15.3% | 567.1hPa | 2.5V | 07:53:00 | 00:00:00 | 00:00:00 | |
| DL8OAI-8 | 2026-09-03 01:09:35 | 50.74566 | 8.87034 | 117° | 73km/h | 4835m | -5.3m/s | -7.5°C | 15.3% | 567.1hPa | 2.5V | 00:00:00 | 00:00:00 | 00:00:00 | |
| DL1NUX | 2026-09-03 01:09:32 | 50.74598 | 8.86931 | 113° | 73km/h | 4855m | -5m/s | -7.6°C | 15.3% | 565.6hPa | 2.5V | 07:53:17 | 02:52:00 | 00:00:00 | |
| BIOWL7-15 | 2026-09-03 01:09:31 | 50.74597 | 8.86931 | 115° | 73km/h | 4855m | -5.0m/s | -7.6°C | 14.9% | 565.6hPa | 2.6V | 00:00:00 | 00:00:00 | 00:00:00 | |
| DM0DOS-11 | 2026-09-03 01:09:30 | 50.74637 | 8.86797 | 114° | 73km/h | 4880m | -5.2m/s | -7.7°C | 14.4% | 563.8hPa | 2.6V | 07:53:22 | 02:51:55 | 00:00:00 | |
| HSKMA3-T | 2026-09-03 01:09:30 | 50.74613 | 8.86877 | 115° | 75km/h | 4865m | -5m/s | -7.6°C | 16.9% | 565hPa | 2.6V | 07:53:35 | 02:51:58 | 00:00:00 | |
| DO3DL | 2026-09-03 01:09:28 | 50.74621 | 8.86850 | 117° | 75km/h | 4870m | -5.1m/s | -7.7°C | 14.3% | 564.5hPa | 2.6V | 07:53:00 | 00:00:00 | 00:00:00 | |
| DB0ND-19 | 2026-09-03 01:09:26 | 50.74652 | 8.86742 | 114° | 75km/h | 4891m | -5.2m/s | -7.8°C | 13.6% | 563.0hPa | 2.6V | 00:00:00 | 00:00:00 | 00:00:00 | |
| DL1NUX | 2026-09-03 01:09:25 | 50.74677 | 8.86662 | 115° | 73km/h | 4906m | -5.4m/s | -7.8°C | 13.5% | 561.9hPa | 2.6V | 07:53:27 | 02:51:50 | 00:00:00 | |
| BIOWL1-15 | 2026-09-03 01:09:25 | 50.74652 | 8.86742 | 115° | 77km/h | 4891m | -5.2m/s | -7.8°C | 15.8% | 563hPa | 2.5V | 07:53:35 | 02:51:53 | 00:00:00 | |
| DM0DOS-11 | 2026-09-03 01:09:24 | 50.74702 | 8.86581 | 116° | 75km/h | 4922m | -5.8m/s | -7.8°C | 13.2% | 561hPa | 2.6V | 07:53:30 | 02:51:47 | 00:00:00 | |
| HSKMA3-T | 2026-09-03 01:09:19 | 50.74702 | 8.86581 | 116° | 75km/h | 4922m | -5.8m/s | -7.9°C | 14.9% | 561hPa | 2.6V | 07:53:35 | 02:51:47 | 00:00:00 | |
| DJ8HS-15 | 2026-09-03 01:09:19 | 50.74701 | 8.86581 | 117° | 75km/h | 4922m | -5.7m/s | -7.8°C | 13.2% | 560.9hPa | 2.5V | 00:00:00 | 02:51:47 | 00:00:00 | |
| DL1NUX | 2026-09-03 01:09:17 | 50.74718 | 8.86528 | 113° | 73km/h | 4933m | -5.4m/s | -7.9°C | 12.6% | 560hPa | 2.5V | 07:53:32 | 02:51:45 | 00:00:00 | |
| DL1NUX | 2026-09-03 01:09:17 | 50.74757 | 8.86392 | 114° | 73km/h | 4959m | -5.1m/s | -8°C | 11.2% | 558.3hPa | 2.6V | 07:53:37 | 02:51:40 | 00:00:00 | |
| BIOWL1-15 | 2026-09-03 01:09:14 | 50.74756 | 8.86392 | 114° | 73km/h | 4959m | -5.1m/s | -8°C | 12.3% | 558.3hPa | 2.6V | 07:54:26 | 02:51:40 | 00:00:00 | |
| DB0UT-7 | 2026-09-03 01:09:14 | 50.74741 | 8.86446 | 115° | 75km/h | 4949m | -5.1m/s | -7.9°C | 11.5% | 558.9hPa | 2.6V | 07:53:00 | 02:51:42 | 00:00:00 | |
| NBG1-10 | 2026-09-03 01:09:12 | 50.74756 | 8.86392 | 115° | 75km/h | 4959m | -5.1m/s | -7.9°C | 11.2% | 558.2hPa | 2.6V | 00:00:00 | 02:51:40 | 00:00:00 | |
| DM0DOS-11 | 2026-09-03 01:09:11 | 50.74793 | 8.86256 | 113° | 73km/h | 4984m | -5.4m/s | -8.1°C | 11.2% | 556.3hPa | 2.6V | 07:53:42 | 02:51:35 | 00:00:00 | |
| HSKMA3-T | 2026-09-03 01:09:09 | 50.74778 | 8.86310 | 113° | 75km/h | 4974m | -5m/s | -8.1°C | 12.3% | 557.1hPa | 2.6V | 07:54:26 | 02:51:37 | 00:00:00 | |
| DB0NH | 2026-09-03 01:09:08 | 50.74785 | 8.86282 | 114° | 75km/h | 4979m | -5.0m/s | -8.0°C | 11.2% | 556.7hPa | 2.6V | 00:00:00 | 02:51:36 | 00:00:00 | |
| BIOWL9-15 | 2026-09-03 01:09:07 | 50.74793 | 8.86256 | 113° | 73km/h | 4984m | -5.4m/s | -8.1°C | 10.8% | 556.3hPa | 2.6V | 00:00:00 | 00:00:00 | 00:00:00 | |
| HARRO8 | 2026-09-03 01:09:06 | 50.74807 | 8.86201 | 110° | 73km/h | 4994m | -5.2m/s | -8.0°C | 10.7% | 555.7hPa | 2.6V | 00:00:00 | 00:00:00 | 00:00:00 | |
| DL1NUX | 2026-09-03 01:09:05 | 50.74828 | 8.86116 | 112° | 78km/h | 5009m | -5.1m/s | -8°C | 10.4% | 554.5hPa | 2.6V | 07:53:47 | 02:51:30 | 00:00:00 | |
| BIOWL1-15 | 2026-09-03 01:09:02 | 50.74828 | 8.86116 | 112° | 78km/h | 5009m | -5.1m/s | -8°C | 11.3% | 554.5hPa | 2.6V | 07:54:26 | 02:51:30 | 00:00:00 | |
| DM0DOS-11 | 2026-09-03 01:09:01 | 50.74871 | 8.85946 | 112° | 75km/h | 5040m | -5.3m/s | -8°C | 8% | 552.3hPa | 2.6V | 07:53:53 | 02:51:24 | 00:00:00 | |
| HSKMA3-T | 2026-09-03 01:08:58 | 50.74856 | 8.86002 | 111° | 77km/h | 5030m | -5.4m/s | -7.9°C | 8.2% | 553.1hPa | 2.5V | 07:54:26 | 02:51:26 | 00:00:00 | |
| DO3DL | 2026-09-03 01:08:57 | 50.74864 | 8.85974 | 113° | 77km/h | 5035m | -5.4m/s | -8.0°C | 7.8% | 552.6hPa | 2.5V | 07:54:00 | 00:00:00 | 00:00:00 | |
| DD1CC3-15 | 2026-09-03 01:08:56 | 50.74864 | 8.85974 | 113° | 77km/h | 5035m | -5.4m/s | -8.0°C | 7.8% | 552.6hPa | 2.5V | 07:54:00 | 00:00:00 | 00:00:00 | |
| DL1NUX | 2026-09-03 01:08:55 | 50.74897 | 8.85835 | 109° | 77km/h | 5060m | -5.2m/s | -8.1°C | 10.1% | 550.9hPa | 2.5V | 07:53:57 | 02:51:20 | 00:00:00 | |
| BIOWL1-15 | 2026-09-03 01:08:52 | 50.74897 | 8.85835 | 110° | 77km/h | 5060m | -5.2m/s | -8.1°C | 10.9% | 550.9hPa | 2.5V | 07:54:26 | 02:51:20 | 00:00:00 | |
| SO1NDE-10 | 2026-09-03 01:08:52 | 50.74897 | 8.85835 | 110° | 73km/h | 5060m | -5.1m/s | -8.0°C | 10.1% | 550.9hPa | 2.5V | 00:00:00 | 02:51:20 | 00:00:00 | |
| DO3DL | 2026-09-03 01:08:51 | 50.74903 | 8.85806 | 112° | 77km/h | 5065m | -5.5m/s | -8.1°C | 9.8% | 550.5hPa | 2.6V | 07:54:00 | 00:00:00 | 00:00:00 | |
| DM0DOS-11 | 2026-09-03 01:08:50 | 50.74935 | 8.85665 | 109° | 77km/h | 5092m | -5.3m/s | -8.1°C | 9% | 548.6hPa | 2.6V | 07:54:03 | 02:51:14 | 00:00:00 | |
| HSKMA3-T | 2026-09-03 01:08:48 | 50.74923 | 8.85722 | 108° | 75km/h | 5081m | -5.6m/s | -8.1°C | 10.3% | 549.5hPa | 2.6V | 07:54:26 | 02:51:16 | 00:00:00 | |
| BIOWL1-15 | 2026-09-03 01:08:41 | 50.74965 | 8.85525 | 109° | 77km/h | 5118m | -5m/s | -8.2°C | 8.7% | 546.9hPa | 2.6V | 07:54:26 | 02:51:09 | 00:00:00 | |
| DM0DOS-11 | 2026-09-03 01:08:40 | 50.74996 | 8.85386 | 108° | 75km/h | 5144m | -5.2m/s | -8.3°C | 7.9% | 545hPa | 2.6V | 07:54:13 | 02:51:04 | 00:00:00 | |
| HSKMA3-T | 2026-09-03 01:08:37 | 50.74990 | 8.85414 | 108° | 73km/h | 5139m | -5.4m/s | -8.2°C | 7.9% | 545.5hPa | 2.6V | 07:54:26 | 02:51:05 | 00:00:00 | |
| BIOWL1-15 | 2026-09-03 01:08:31 | 50.75025 | 8.85248 | 108° | 75km/h | 5170m | -5.1m/s | -8.5°C | 8.6% | 543.1hPa | 2.6V | 07:54:26 | 02:50:59 | 00:00:00 | |
| DM0DOS-11 | 2026-09-03 01:08:30 | 50.75056 | 8.85110 | 109° | 75km/h | 5196m | -5.3m/s | -8.7°C | 9.1% | 541.3hPa | 2.5V | 07:54:23 | 02:50:54 | 00:00:00 | |
| HSKMA3-T | 2026-09-03 01:08:26 | 50.75056 | 8.85110 | 110° | 75km/h | 5196m | -5.3m/s | -8.7°C | 9.8% | 541.4hPa | 2.5V | 07:54:26 | 02:50:54 | 00:00:00 | |
| DL1NUX | 2026-09-03 01:08:25 | 50.75083 | 8.85002 | 108° | 69km/h | 5217m | -5m/s | -8.8°C | 9.7% | 540hPa | 2.5V | 07:54:27 | 02:50:50 | 00:00:00 | |
| BIOWL1-15 | 2026-09-03 01:08:23 | 50.75088 | 8.84975 | 108° | 71km/h | 5222m | -5.1m/s | -8.9°C | 10.5% | 539.6hPa | 2.5V | 07:55:17 | 02:50:49 | 00:00:00 | |
| SO1NDE-10 | 2026-09-03 01:08:22 | 50.75083 | 8.85001 | 109° | 75km/h | 5217m | -5.0m/s | -8.8°C | 9.7% | 540.0hPa | 2.5V | 00:00:00 | 02:50:50 | 00:00:00 | |
| DM0DOS-11 | 2026-09-03 01:08:20 | 50.75118 | 8.84835 | 107° | 73km/h | 5247m | -5.3m/s | -9.1°C | 9.8% | 537.8hPa | 2.5V | 07:54:33 | 02:50:44 | 00:00:00 | |
| HSKMA3-T | 2026-09-03 01:08:16 | 50.75118 | 8.84835 | 108° | 73km/h | 5247m | -5.3m/s | -9.1°C | 10.8% | 537.8hPa | 2.5V | 07:55:17 | 02:50:44 | 00:00:00 | |
| DL1NUX | 2026-09-03 01:08:15 | 50.75141 | 8.84719 | 109° | 77km/h | 5267m | -5.1m/s | -9.3°C | 9.9% | 536.3hPa | 2.5V | 07:54:37 | 02:50:40 | 00:00:00 | |
| BIOWL1-15 | 2026-09-03 01:08:10 | 50.75160 | 8.84634 | 109° | 75km/h | 5283m | -5.2m/s | -9.4°C | 10.7% | 535.3hPa | 2.6V | 07:55:17 | 02:50:37 | 00:00:00 | |
| DM0DOS-11 | 2026-09-03 01:08:09 | 50.75180 | 8.84549 | 110° | 75km/h | 5299m | -5.4m/s | -9.6°C | 9.8% | 534.2hPa | 2.5V | 07:54:43 | 02:50:34 | 00:00:00 | |
| DB0NH | 2026-09-03 01:08:08 | 50.75166 | 8.84605 | 110° | 75km/h | 5288m | -5.4m/s | -9.4°C | 9.8% | 534.9hPa | 2.5V | 00:00:00 | 02:50:36 | 00:00:00 | |
| NBG1-10 | 2026-09-03 01:08:06 | 50.75180 | 8.84549 | 111° | 75km/h | 5299m | -5.4m/s | -9.5°C | 9.8% | 534.2hPa | 2.5V | 00:00:00 | 02:50:34 | 00:00:00 | |
| DL1NUX | 2026-09-03 01:08:05 | 50.75204 | 8.84436 | 108° | 77km/h | 5319m | -5.3m/s | -9.7°C | 10.2% | 532.8hPa | 2.5V | 07:54:47 | 02:50:30 | 00:00:00 | |
| HSKMA3-T | 2026-09-03 01:08:05 | 50.75186 | 8.84521 | 110° | 73km/h | 5304m | -5.2m/s | -9.6°C | 10.9% | 533.9hPa | 2.6V | 07:55:17 | 02:50:33 | 00:00:00 | |
| DO3DL | 2026-09-03 01:08:05 | 50.75186 | 8.84521 | 111° | 73km/h | 5304m | -5.2m/s | -9.6°C | 9.5% | 533.9hPa | 2.5V | 07:55:00 | 00:00:00 | 00:00:00 | |
| HARRO8 | 2026-09-03 01:08:04 | 50.75198 | 8.84465 | 108° | 75km/h | 5314m | -5.0m/s | -9.7°C | 9.7% | 533.2hPa | 2.5V | 00:00:00 | 00:00:00 | 00:00:00 | |
| DM0DOS-11 | 2026-09-03 01:07:59 | 50.75240 | 8.84266 | 109° | 77km/h | 5349m | -5.2m/s | -9.9°C | 10.2% | 530.6hPa | 2.5V | 07:54:53 | 02:50:24 | 00:00:00 | |
| BIOWL1-15 | 2026-09-03 01:07:59 | 50.75222 | 8.84353 | 108° | 73km/h | 5334m | -5.1m/s | -9.8°C | 11.3% | 531.7hPa | 2.6V | 07:55:17 | 02:50:27 | 00:00:00 | |
| SONCRA | 2026-09-03 01:07:56 | 50.75319 | 8.83924 | 111° | 77km/h | 5411m | -5.0m/s | -10.4°C | 10.0% | 526.4hPa | 2.5V | 00:00:00 | 00:00:00 | 00:00:00 | |
| DL1NUX | 2026-09-03 01:07:55 | 50.75267 | 8.84152 | 110° | 78km/h | 5370m | -5.3m/s | -10.1°C | 10.2% | 529.3hPa | 2.5V | 07:54:57 | 02:50:20 | 00:00:00 | |
| HSKMA3-T | 2026-09-03 01:07:55 | 50.75247 | 8.84238 | 111° | 77km/h | 5354m | -5.2m/s | -10°C | 11.3% | 530.4hPa | 2.6V | 07:55:17 | 02:50:23 | 00:00:00 | |
| DB0ND-19 | 2026-09-03 01:07:53 | 50.75267 | 8.84152 | 110° | 77km/h | 5370m | -5.3m/s | -10.1°C | 9.8% | 529.3hPa | 2.6V | 00:00:00 | 00:00:00 | 00:00:00 | |
| SO1NDE-10 | 2026-09-03 01:07:52 | 50.75267 | 8.84152 | 111° | 77km/h | 5370m | -5.3m/s | -10.0°C | 10.2% | 529.3hPa | 2.6V | 07:54:00 | 02:50:20 | 00:00:00 | |
| DM0DOS-11 | 2026-09-03 01:07:51 | 50.75312 | 8.83953 | 109° | 78km/h | 5407m | -5.2m/s | -10.4°C | 10.3% | 526.7hPa | 2.6V | 07:55:04 | 02:50:13 | 00:00:00 | |
| BIOWL1-15 | 2026-09-03 01:07:49 | 50.75300 | 8.84011 | 107° | 75km/h | 5396m | -5.1m/s | -10.3°C | 11.5% | 527.5hPa | 2.5V | 07:55:17 | 02:50:15 | 00:00:00 | |
| HSKMA3-T | 2026-09-03 01:07:46 | 50.75312 | 8.83953 | 110° | 78km/h | 5407m | -5.2m/s | -10.4°C | 11.5% | 526.7hPa | 2.6V | 07:55:17 | 02:50:13 | 00:00:00 | |
| DL1NUX | 2026-09-03 01:07:45 | 50.75333 | 8.83869 | 110° | 75km/h | 5421m | -5.4m/s | -10.5°C | 10.4% | 525.7hPa | 2.5V | 07:55:07 | 02:50:10 | 00:00:00 | |
| DO3DL | 2026-09-03 01:07:45 | 50.75312 | 8.83953 | 111° | 78km/h | 5407m | -5.2m/s | -10.4°C | 9.9% | 526.7hPa | 2.6V | 07:55:00 | 00:00:00 | 00:00:00 | |
| DB0UT-7 | 2026-09-03 01:07:44 | 50.75319 | 8.83924 | 112° | 75km/h | 5412m | -4.9m/s | -10.4°C | 10.4% | 526.3hPa | 2.6V | 00:00:00 | 00:00:00 | 00:00:00 | |
| DM0DOS-11 | 2026-09-03 01:07:39 | 50.75381 | 8.83668 | 110° | 75km/h | 5458m | -5m/s | -10.8°C | 10.2% | 523.2hPa | 2.6V | 07:55:14 | 02:50:03 | 00:00:00 | |
| BIOWL1-15 | 2026-09-03 01:07:38 | 50.75360 | 8.83753 | 112° | 78km/h | 5443m | -5.3m/s | -10.7°C | 11.6% | 524.3hPa | 2.6V | 07:55:17 | 02:50:06 | 00:00:00 | |
| DB0NH | 2026-09-03 01:07:38 | 50.75360 | 8.83753 | 113° | 75km/h | 5443m | -5.2m/s | -10.6°C | 10.4% | 524.3hPa | 2.6V | 00:00:00 | 02:50:06 | 00:00:00 | |
| DO3DL | 2026-09-03 01:07:37 | 50.75359 | 8.83753 | 113° | 78km/h | 5443m | -5.3m/s | -10.7°C | 10.0% | 524.3hPa | 2.6V | 07:55:00 | 00:00:00 | 00:00:00 | |
| DL1NUX | 2026-09-03 01:07:35 | 50.75402 | 8.83581 | 112° | 77km/h | 5474m | -5.5m/s | -10.9°C | 10.1% | 522.1hPa | 2.6V | 07:55:17 | 02:50:00 | 00:00:00 | |
| HSKMA3-T | 2026-09-03 01:07:35 | 50.75381 | 8.83668 | 110° | 75km/h | 5458m | -5m/s | -10.8°C | 11.3% | 523.2hPa | 2.6V | 07:55:17 | 02:50:03 | 00:00:00 | |
| BIOWL9-15 | 2026-09-03 01:07:34 | 50.75388 | 8.83639 | 110° | 77km/h | 5463m | -5.6m/s | -10.9°C | 9.7% | 522.9hPa | 2.5V | 00:00:00 | 00:00:00 | 00:00:00 | |
| HARRO8 | 2026-09-03 01:07:33 | 50.75402 | 8.83581 | 112° | 77km/h | 5474m | -5.5m/s | -10.9°C | 9.7% | 522.1hPa | 2.5V | 00:00:00 | 00:00:00 | 00:00:00 | |
| DL4BBY-15 | 2026-09-03 01:07:32 | 50.75402 | 8.83581 | 113° | 75km/h | 5474m | -5.4m/s | -9.7°C | 0% | 0hPa | 2.5V | 00:00:00 | 00:00:00 | 00:00:00 | |
| DO3DL | 2026-09-03 01:07:31 | 50.75410 | 8.83553 | 114° | 75km/h | 5479m | -5.1m/s | -11.0°C | 9.8% | 521.8hPa | 2.5V | 07:56:00 | 00:00:00 | 00:00:00 | |
| DM0DOS-11 | 2026-09-03 01:07:29 | 50.75453 | 8.83386 | 114° | 77km/h | 5511m | -5.3m/s | -11.3°C | 10.3% | 519.7hPa | 2.5V | 07:55:24 | 02:49:53 | 00:00:00 | |
| BIOWL1-15 | 2026-09-03 01:07:27 | 50.75438 | 8.83442 | 112° | 77km/h | 5500m | -5.5m/s | -11.2°C | 11.5% | 520.4hPa | 2.6V | 07:56:08 | 02:49:55 | 00:00:00 | |
| DL1NUX | 2026-09-03 01:07:25 | 50.75476 | 8.83303 | 114° | 77km/h | 5527m | -5.5m/s | -11.4°C | 10.2% | 518.6hPa | 2.6V | 07:55:27 | 02:49:50 | 00:00:00 | |
| DB0DAN | 2026-09-03 01:07:25 | 50.75453 | 8.83386 | 114° | 73km/h | 5511m | -5.4m/s | -11.3°C | 9.9% | 519.69hPa | 2.5V | 00:00:00 | 00:00:00 | 00:00:00 | |
| HSKMA3-T | 2026-09-03 01:07:24 | 50.75461 | 8.83358 | 114° | 75km/h | 5516m | -5.6m/s | -11.3°C | 11.3% | 519.3hPa | 2.5V | 07:56:08 | 02:49:52 | 00:00:00 | |
| DO3DL | 2026-09-03 01:07:24 | 50.75461 | 8.83358 | 115° | 75km/h | 5516m | -5.6m/s | -11.3°C | 9.7% | 519.3hPa | 2.6V | 07:56:00 | 00:00:00 | 00:00:00 | |
| DB0ND-19 | 2026-09-03 01:07:22 | 50.75484 | 8.83275 | 115° | 75km/h | 5533m | -5.6m/s | -11.4°C | 9.9% | 518.2hPa | 2.6V | 00:00:00 | 00:00:00 | 00:00:00 | |
| DM0DOS-11 | 2026-09-03 01:07:19 | 50.75530 | 8.83118 | 116° | 71km/h | 5564m | -5.2m/s | -11.7°C | 10.2% | 516hPa | 2.6V | 07:55:34 | 02:49:43 | 00:00:00 | |
| BIOWL1-15 | 2026-09-03 01:07:17 | 50.75559 | 8.83017 | 111° | 69km/h | 5585m | -5.2m/s | -11.8°C | 7.9% | 514.6hPa | 2.6V | 07:56:08 | 02:49:39 | 00:00:00 | |
| DO3DL | 2026-09-03 01:07:16 | 50.75514 | 8.83170 | 115° | 73km/h | 5554m | -5.2m/s | -11.6°C | 10.1% | 516.8hPa | 2.5V | 07:56:00 | 00:00:00 | 00:00:00 | |
| DL1NUX | 2026-09-03 01:07:15 | 50.75552 | 8.83043 | 111° | 68km/h | 5580m | -5.5m/s | -11.8°C | 8.5% | 514.9hPa | 2.5V | 07:55:37 | 02:49:40 | 00:00:00 | |
| HSKMA3-T | 2026-09-03 01:07:14 | 50.75538 | 8.83092 | 116° | 69km/h | 5569m | -5.5m/s | -11.7°C | 10.6% | 515.7hPa | 2.5V | 07:56:08 | 02:49:42 | 00:00:00 | |
| DO2KSM | 2026-09-03 01:07:14 | 50.75538 | 8.83092 | 117° | 69km/h | 5569m | -5.5m/s | -11.7°C | 9.3% | 515.7hPa | 2.6V | 07:56:00 | 00:00:00 | 00:00:00 | |
| DL8OAI-8 | 2026-09-03 01:07:12 | 50.75552 | 8.83042 | 113° | 68km/h | 5580m | -5.5m/s | -11.8°C | 8.2% | 514.9hPa | 2.6V | 00:00:00 | 00:00:00 | 00:00:00 | |
| DB0DAN | 2026-09-03 01:07:10 | 50.75565 | 8.82990 | 111° | 69km/h | 5590m | -5.1m/s | -11.8°C | 6.6% | 514.26hPa | 2.6V | 00:00:00 | 00:00:00 | 00:00:00 | |
| NBG1-10 | 2026-09-03 01:07:09 | 50.75572 | 8.82962 | 113° | 73km/h | 5596m | -4.9m/s | -11.8°C | 6.7% | 513.9hPa | 2.6V | 00:00:00 | 02:49:37 | 00:00:00 | |
| DM0DOS-11 | 2026-09-03 01:07:08 | 50.75604 | 8.82855 | 114° | 71km/h | 5616m | -5.2m/s | -11.9°C | 6.8% | 512.6hPa | 2.6V | 07:55:44 | 02:49:33 | 00:00:00 | |
| DB0NH | 2026-09-03 01:07:08 | 50.75580 | 8.82935 | 115° | 73km/h | 5600m | -5.2m/s | -11.9°C | 6.7% | 513.5hPa | 2.5V | 07:55:00 | 02:49:36 | 00:00:00 | |
| DL1NUX | 2026-09-03 01:07:05 | 50.75635 | 8.82746 | 117° | 75km/h | 5638m | -5.3m/s | -11.9°C | 7.8% | 511.2hPa | 2.5V | 07:55:48 | 02:49:29 | 00:00:00 | |
| HSKMA3-T | 2026-09-03 01:07:04 | 50.75611 | 8.82829 | 113° | 73km/h | 5621m | -5.6m/s | -11.9°C | 5.7% | 512.2hPa | 2.6V | 07:56:08 | 02:49:32 | 00:00:00 | |
| BIOWL9-15 | 2026-09-03 01:07:03 | 50.75619 | 8.82801 | 113° | 75km/h | 5627m | -5.5m/s | -11.9°C | 6.1% | 511.9hPa | 2.6V | 00:00:00 | 00:00:00 | 00:00:00 | |
| HARRO8 | 2026-09-03 01:07:01 | 50.75635 | 8.82746 | 117° | 75km/h | 5638m | -5.3m/s | -11.9°C | 7.4% | 511.2hPa | 2.6V | 00:00:00 | 00:00:00 | 00:00:00 | |
| BIOWL1-15 | 2026-09-03 01:07:01 | 50.75644 | 8.82720 | 119° | 73km/h | 5643m | -5.4m/s | -12°C | 8.6% | 510.8hPa | 2.5V | 07:56:08 | 02:49:28 | 00:00:00 | |
| DJ8HS-15 | 2026-09-03 01:06:59 | 50.75653 | 8.82695 | 119° | 73km/h | 5648m | -5.1m/s | -12.0°C | 8.4% | 510.4hPa | 2.6V | 00:00:00 | 02:49:27 | 00:00:00 | |
| BIOWL7-15 | 2026-09-03 01:06:57 | 50.75661 | 8.82670 | 118° | 69km/h | 5653m | -5.3m/s | -12.1°C | 8.2% | 510.1hPa | 2.6V | 00:00:00 | 00:00:00 | 00:00:00 | |
| DL1NUX | 2026-09-03 01:06:55 | 50.75719 | 8.82491 | 118° | 69km/h | 5689m | -5.5m/s | -12.4°C | 9.3% | 507.7hPa | 2.6V | 07:55:58 | 02:49:19 | 00:00:00 | |
| DB0DAN | 2026-09-03 01:06:55 | 50.75684 | 8.82593 | 115° | 69km/h | 5668m | -5.2m/s | -12.2°C | 8.4% | 509.12hPa | 2.5V | 00:00:00 | 00:00:00 | 00:00:00 | |
| HSKMA3-T | 2026-09-03 01:06:53 | 50.75701 | 8.82541 | 119° | 73km/h | 5679m | -5.6m/s | -12.3°C | 9.6% | 508.4hPa | 2.5V | 07:56:08 | 02:49:21 | 00:00:00 | |
| DB0ND-19 | 2026-09-03 01:06:51 | 50.75727 | 8.82467 | 116° | 68km/h | 5695m | -5.1m/s | -12.4°C | 9.7% | 507.3hPa | 2.5V | 00:00:00 | 00:00:00 | 00:00:00 | |
| BIOWL1-15 | 2026-09-03 01:06:49 | 50.75817 | 8.82175 | 119° | 73km/h | 5753m | -5.3m/s | -12.7°C | 7.8% | 503.5hPa | 2.5V | 07:56:59 | 02:49:07 | 00:00:00 | |
| DM0DOS-11 | 2026-09-03 01:06:48 | 50.75767 | 8.82335 | 116° | 73km/h | 5720m | -5.3m/s | -12.5°C | 9.3% | 505.6hPa | 2.6V | 07:56:04 | 02:49:13 | 00:00:00 | |
| DO9LL-15 | 2026-09-03 01:06:48 | 50.75742 | 8.82415 | 115° | 73km/h | 5705m | -5.2m/s | -12.4°C | 10.5% | 506.6hPa | 2.5V | 00:00:00 | 02:49:16 | 00:00:00 | |
| DL1NUX | 2026-09-03 01:06:45 | 50.75799 | 8.82228 | 116° | 77km/h | 5742m | -5.3m/s | -12.6°C | 7.7% | 504.1hPa | 2.5V | 07:56:08 | 02:49:09 | 00:00:00 | |
| DF7PN | 2026-09-03 01:06:44 | 50.75775 | 8.82309 | 115° | 71km/h | 5726m | -5.5m/s | -12.5°C | 8.1% | 505.2hPa | 2.6V | 00:00:00 | 00:00:00 | 00:00:00 | |
| HSKMA3-T | 2026-09-03 01:06:42 | 50.75791 | 8.82255 | 115° | 75km/h | 5737m | -5.9m/s | -12.6°C | 8% | 504.5hPa | 2.6V | 07:56:08 | 02:49:10 | 00:00:00 | |
| BIOWL1-15 | 2026-09-03 01:06:41 | 50.75834 | 8.82125 | 117° | 71km/h | 5764m | -5.5m/s | -12.8°C | 7.2% | 502.8hPa | 2.6V | 07:56:59 | 02:49:05 | 00:00:00 | |
| DB0DAN | 2026-09-03 01:06:40 | 50.75808 | 8.82201 | 118° | 71km/h | 5748m | -5.2m/s | -12.7°C | 7.3% | 503.77hPa | 2.5V | 00:00:00 | 00:00:00 | 00:00:00 | |
| DJ8HS-15 | 2026-09-03 01:06:39 | 50.75817 | 8.82175 | 120° | 73km/h | 5753m | -5.3m/s | -12.6°C | 7.6% | 503.4hPa | 2.5V | 00:00:00 | 02:49:07 | 00:00:00 | |
| DM0DOS-11 | 2026-09-03 01:06:38 | 50.75851 | 8.82073 | 118° | 73km/h | 5775m | -5.8m/s | -12.8°C | 7% | 502hPa | 2.6V | 07:56:14 | 02:49:03 | 00:00:00 | |
| HSKMA3-T | 2026-09-03 01:06:32 | 50.75878 | 8.81998 | 119° | 71km/h | 5791m | -5.4m/s | -13°C | 6.5% | 501hPa | 2.5V | 07:56:59 | 02:49:00 | 00:00:00 | |
| DL8OAI-8 | 2026-09-03 01:06:31 | 50.75886 | 8.81973 | 118° | 71km/h | 5796m | -5.4m/s | -13.0°C | 6.3% | 500.6hPa | 2.5V | 00:00:00 | 00:00:00 | 00:00:00 | |
| DL4BBY-15 | 2026-09-03 01:06:30 | 50.75895 | 8.81946 | 117° | 75km/h | 5802m | -5.3m/s | -11.8°C | 0% | 0hPa | 2.5V | 00:00:00 | 00:00:00 | 00:00:00 | |
| DM0DOS-11 | 2026-09-03 01:06:27 | 50.75943 | 8.81814 | 121° | 71km/h | 5828m | -5.2m/s | -13.2°C | 6.4% | 498.6hPa | 2.5V | 07:56:24 | 02:48:53 | 00:00:00 | |
| BIOWL1-15 | 2026-09-03 01:06:26 | 50.75975 | 8.81713 | 115° | 75km/h | 5848m | -5.1m/s | -13.4°C | 7.7% | 497.1hPa | 2.6V | 07:56:59 | 02:48:49 | 00:00:00 | |
| HSKMA3-T | 2026-09-03 01:06:22 | 50.75967 | 8.81740 | 115° | 71km/h | 5843m | -5.2m/s | -13.4°C | 7% | 497.5hPa | 2.6V | 07:56:59 | 02:48:50 | 00:00:00 | |
| SO1NDE-10 | 2026-09-03 01:06:22 | 50.75967 | 8.81740 | 115° | 77km/h | 5843m | -5.2m/s | -13.3°C | 7.1% | 497.4hPa | 2.6V | 00:00:00 | 02:48:50 | 00:00:00 | |
| DJ8HS-15 | 2026-09-03 01:06:19 | 50.75992 | 8.81660 | 119° | 75km/h | 5859m | -5.5m/s | -13.5°C | 8.2% | 496.4hPa | 2.6V | 07:56:00 | 02:48:47 | 00:00:00 | |
| DO9LL-15 | 2026-09-03 01:06:18 | 50.76001 | 8.81634 | 120° | 77km/h | 5864m | -5.3m/s | -13.5°C | 8.1% | 496.2hPa | 2.6V | 00:00:00 | 02:48:46 | 00:00:00 | |
| DM0DOS-11 | 2026-09-03 01:06:16 | 50.76030 | 8.81557 | 121° | 77km/h | 5880m | -5.8m/s | -13.6°C | 7.4% | 495.1hPa | 2.6V | 07:56:34 | 02:48:43 | 00:00:00 | |
| BIOWL1-15 | 2026-09-03 01:06:15 | 50.76030 | 8.81557 | 121° | 77km/h | 5880m | -5.8m/s | -13.6°C | 7.5% | 495.1hPa | 2.6V | 07:56:59 | 02:48:43 | 00:00:00 | |
| HSKMA3-T | 2026-09-03 01:06:11 | 50.76070 | 8.81452 | 119° | 77km/h | 5903m | -5.9m/s | -13.8°C | 3.1% | 493.6hPa | 2.6V | 07:56:59 | 02:48:39 | 00:00:00 | |
| DO3DL | 2026-09-03 01:06:11 | 50.76069 | 8.81452 | 120° | 77km/h | 5903m | -5.9m/s | -13.8°C | 4.1% | 493.5hPa | 2.6V | 07:56:00 | 00:00:00 | 00:00:00 | |
| DM0DOS-11 | 2026-09-03 01:06:10 | 50.76125 | 8.81294 | 119° | 75km/h | 5937m | -5.9m/s | -14°C | 3.2% | 491.4hPa | 2.6V | 07:56:44 | 02:48:33 | 00:00:00 | |
| DB0NH | 2026-09-03 01:06:08 | 50.76097 | 8.81373 | 120° | 78km/h | 5920m | -6.0m/s | -13.8°C | 3.5% | 492.4hPa | 2.5V | 00:00:00 | 02:48:36 | 00:00:00 | |
| DL1NUX | 2026-09-03 01:06:05 | 50.76163 | 8.81189 | 119° | 75km/h | 5960m | -5.7m/s | -14.1°C | 3.3% | 489.9hPa | 2.6V | 07:56:48 | 02:48:29 | 00:00:00 | |
| BIOWL1-15 | 2026-09-03 01:06:05 | 50.76125 | 8.81294 | 119° | 75km/h | 5937m | -5.9m/s | -14°C | 1.2% | 491.4hPa | 2.6V | 07:56:59 | 02:48:33 | 00:00:00 | |
| DL8DAS-14 | 2026-09-03 01:06:03 | 50.76163 | 8.81189 | 119° | 75km/h | 5960m | -5.7m/s | -14.1°C | 3.0% | 489.9hPa | 2.5V | 00:00:00 | 00:00:00 | 00:00:00 | |
| BIOWL9-15 | 2026-09-03 01:06:01 | 50.76163 | 8.81189 | 119° | 75km/h | 5960m | -5.7m/s | -14.1°C | 3.0% | 489.9hPa | 2.5V | 00:00:00 | 00:00:00 | 00:00:00 | |
| DM0DOS-11 | 2026-09-03 01:06:00 | 50.76222 | 8.81028 | 120° | 78km/h | 5994m | -6m/s | -14.2°C | 4.1% | 487.7hPa | 2.5V | 07:56:54 | 02:48:23 | 00:00:00 | |
| HSKMA3-T | 2026-09-03 01:06:00 | 50.76172 | 8.81163 | 120° | 77km/h | 5966m | -5.7m/s | -14.1°C | 1.4% | 489.5hPa | 2.6V | 07:56:59 | 02:48:28 | 00:00:00 | |
| DJ8HS-15 | 2026-09-03 01:05:59 | 50.76182 | 8.81136 | 121° | 78km/h | 5971m | -5.7m/s | -14.1°C | 3.4% | 489.1hPa | 2.6V | 00:00:00 | 02:48:27 | 00:00:00 | |
| DO3DL | 2026-09-03 01:05:58 | 50.76192 | 8.81108 | 121° | 78km/h | 5977m | -5.7m/s | -14.2°C | 3.1% | 488.8hPa | 2.6V | 07:56:00 | 00:00:00 | 00:00:00 | |
| BIOWL7-15 | 2026-09-03 01:05:56 | 50.76202 | 8.81082 | 121° | 78km/h | 5983m | -5.8m/s | -14.2°C | 3.2% | 488.4hPa | 2.6V | 00:00:00 | 00:00:00 | 00:00:00 | |
| DL1NUX | 2026-09-03 01:05:55 | 50.76262 | 8.80921 | 120° | 78km/h | 6016m | -5.8m/s | -14.3°C | 4.5% | 486.2hPa | 2.6V | 07:56:58 | 02:48:19 | 00:00:00 | |
| BIOWL1-15 | 2026-09-03 01:05:55 | 50.76222 | 8.81028 | 120° | 78km/h | 5994m | -6.1m/s | -14.2°C | 2.6% | 487.7hPa | 2.5V | 07:56:59 | 02:48:23 | 00:00:00 | |
| HSKMA3-T | 2026-09-03 01:05:50 | 50.76272 | 8.80894 | 120° | 78km/h | 6022m | -5.9m/s | -14.3°C | 3.4% | 485.9hPa | 2.5V | 07:56:59 | 02:48:18 | 00:00:00 | |
| BIOWL1-15 | 2026-09-03 01:05:46 | 50.76333 | 8.80731 | 122° | 80km/h | 6057m | -5.9m/s | -14.5°C | 4.3% | 483.7hPa | 2.5V | 07:57:50 | 02:48:12 | 00:00:00 | |
| DL1NUX | 2026-09-03 01:05:46 | 50.76365 | 8.80648 | 121° | 82km/h | 6075m | -6.2m/s | -14.6°C | 6.1% | 482.6hPa | 2.6V | 07:57:08 | 02:48:09 | 00:00:00 | |
| DD1CC8 | 2026-09-03 01:05:45 | 50.76322 | 8.80759 | 120° | 78km/h | 6051m | -5.8m/s | -14.5°C | 4.6% | 484.0hPa | 2.6V | 00:00:00 | 00:00:00 | 00:00:00 | |
| HSKMA3-T | 2026-09-03 01:05:40 | 50.76376 | 8.80620 | 122° | 82km/h | 6081m | -6.2m/s | -14.6°C | 5.8% | 482.1hPa | 2.6V | 07:57:50 | 02:48:08 | 00:00:00 | |
| DJ8HS-15 | 2026-09-03 01:05:39 | 50.76386 | 8.80592 | 121° | 78km/h | 6087m | -5.8m/s | -14.6°C | 6.2% | 481.8hPa | 2.5V | 00:00:00 | 02:48:07 | 00:00:00 | |
| DB0NH | 2026-09-03 01:05:38 | 50.76397 | 8.80565 | 122° | 77km/h | 6093m | -5.6m/s | -14.6°C | 6.2% | 481.3hPa | 2.5V | 00:00:00 | 02:48:06 | 00:00:00 | |
| DO3DL | 2026-09-03 01:05:37 | 50.76397 | 8.80565 | 122° | 80km/h | 6093m | -5.6m/s | -14.7°C | 5.8% | 481.4hPa | 2.5V | 07:57:00 | 00:00:00 | 00:00:00 | |
| DL1NUX | 2026-09-03 01:05:35 | 50.76472 | 8.80376 | 120° | 78km/h | 6133m | -5.8m/s | -14.8°C | 6.7% | 478.9hPa | 2.5V | 07:57:18 | 02:47:59 | 00:00:00 | |
| BIOWL1-15 | 2026-09-03 01:05:33 | 50.76451 | 8.80430 | 122° | 78km/h | 6121m | -5.7m/s | -14.8°C | 6.5% | 479.7hPa | 2.6V | 07:57:50 | 02:48:01 | 00:00:00 | |
| DO3DL | 2026-09-03 01:05:31 | 50.76461 | 8.80403 | 123° | 78km/h | 6127m | -5.9m/s | -14.8°C | 6.2% | 479.3hPa | 2.5V | 07:57:00 | 00:00:00 | 00:00:00 | |
| NBG1-10 | 2026-09-03 01:05:30 | 50.76481 | 8.80349 | 120° | 75km/h | 6139m | -5.8m/s | -14.8°C | 6.7% | 478.4hPa | 2.5V | 00:00:00 | 02:47:58 | 00:00:00 | |
| DM0DOS-11 | 2026-09-03 01:05:29 | 50.76530 | 8.80214 | 119° | 77km/h | 6167m | -5.6m/s | -15°C | 7.2% | 476.7hPa | 2.5V | 07:57:24 | 02:47:53 | 00:00:00 | |
| HSKMA3-T | 2026-09-03 01:05:29 | 50.76491 | 8.80322 | 121° | 77km/h | 6144m | -5.7m/s | -14.9°C | 6.6% | 478.2hPa | 2.6V | 07:57:50 | 02:47:57 | 00:00:00 | |
| DJ2DS-15 | 2026-09-03 01:05:28 | 50.76501 | 8.80295 | 120° | 77km/h | 6150m | -5.8m/s | -14.9°C | 6.3% | 477.7hPa | 2.5V | 00:00:00 | 00:00:00 | 00:00:00 | |
| DL4BBY-15 | 2026-09-03 01:05:27 | 50.76511 | 8.80268 | 119° | 75km/h | 6156m | -5.7m/s | -13.7°C | 0% | 0hPa | 2.5V | 00:00:00 | 00:00:00 | 00:00:00 | |
| DL8DAS-15 | 2026-09-03 01:05:26 | 50.76511 | 8.80268 | 120° | 78km/h | 6156m | -5.7m/s | -14.9°C | 6.4% | 477.5hPa | 2.5V | 00:00:00 | 00:00:00 | 00:00:00 | |
| DL1NUX | 2026-09-03 01:05:25 | 50.76568 | 8.80108 | 119° | 75km/h | 6190m | -6m/s | -15.1°C | 7% | 475.2hPa | 2.5V | 07:57:28 | 02:47:49 | 00:00:00 | |
| BIOWL1-15 | 2026-09-03 01:05:23 | 50.76559 | 8.80134 | 119° | 75km/h | 6184m | -5.7m/s | -15°C | 7% | 475.6hPa | 2.6V | 07:57:50 | 02:47:50 | 00:00:00 | |
| SO1NDE-10 | 2026-09-03 01:05:22 | 50.76558 | 8.80134 | 120° | 73km/h | 6184m | -5.6m/s | -15.0°C | 7.0% | 475.6hPa | 2.5V | 00:00:00 | 02:47:50 | 00:00:00 | |
| DM0DOS-11 | 2026-09-03 01:05:19 | 50.76624 | 8.79953 | 119° | 73km/h | 6225m | -5.9m/s | -15.2°C | 6.7% | 473.1hPa | 2.5V | 07:57:34 | 02:47:43 | 00:00:00 | |
| HSKMA3-T | 2026-09-03 01:05:19 | 50.76586 | 8.80055 | 119° | 75km/h | 6201m | -6.1m/s | -15.1°C | 6.9% | 474.6hPa | 2.5V | 07:57:50 | 02:47:47 | 00:00:00 | |
| BIOWL1-15 | 2026-09-03 01:05:13 | 50.76652 | 8.79877 | 119° | 75km/h | 6242m | -5.6m/s | -15.4°C | 6.5% | 471.9hPa | 2.6V | 07:57:50 | 02:47:40 | 00:00:00 | |
| DL1NUX | 2026-09-03 01:05:11 | 50.76661 | 8.79851 | 119° | 73km/h | 6248m | -6m/s | -15.4°C | 6.7% | 471.7hPa | 2.6V | 07:57:38 | 02:47:39 | 00:00:00 | |
| DF7PN | 2026-09-03 01:05:11 | 50.76661 | 8.79851 | 119° | 73km/h | 6248m | -6.0m/s | -15.4°C | 6.2% | 471.7hPa | 2.6V | 00:00:00 | 00:00:00 | 00:00:00 | |
| DM0DOS-11 | 2026-09-03 01:05:09 | 50.76717 | 8.79698 | 121° | 75km/h | 6283m | -5.9m/s | -15.6°C | 6.8% | 469.6hPa | 2.6V | 07:57:44 | 02:47:33 | 00:00:00 | |
| HSKMA3-T | 2026-09-03 01:05:08 | 50.76689 | 8.79774 | 120° | 75km/h | 6266m | -6.4m/s | -15.5°C | 6.7% | 470.6hPa | 2.5V | 07:57:50 | 02:47:36 | 00:00:00 | |
| BIOWL1-15 | 2026-09-03 01:05:03 | 50.76756 | 8.79599 | 122° | 73km/h | 6306m | -6m/s | -15.7°C | 8.3% | 467.9hPa | 2.6V | 07:57:50 | 02:47:29 | 00:00:00 | |
| DL1NUX | 2026-09-03 01:05:01 | 50.76756 | 8.79599 | 121° | 73km/h | 6306m | -6m/s | -15.7°C | 7.9% | 467.9hPa | 2.6V | 07:57:48 | 02:47:29 | 00:00:00 | |
| HSKMA3-T | 2026-09-03 01:04:58 | 50.76786 | 8.79525 | 123° | 73km/h | 6323m | -6m/s | -15.8°C | 9.8% | 466.9hPa | 2.5V | 07:58:41 | 02:47:26 | 00:00:00 | |
| DL4BBY-15 | 2026-09-03 01:04:57 | 50.76795 | 8.79500 | 122° | 75km/h | 6330m | -5.8m/s | -14.7°C | 0% | 0hPa | 2.6V | 00:00:00 | 00:00:00 | 00:00:00 | |
| DL1NUX | 2026-09-03 01:04:55 | 50.76855 | 8.79350 | 123° | 73km/h | 6364m | -5.7m/s | -16.2°C | 15.9% | 464.4hPa | 2.6V | 07:57:58 | 02:47:19 | 00:00:00 | |
| BIOWL1-15 | 2026-09-03 01:04:51 | 50.76855 | 8.79350 | 123° | 73km/h | 6364m | -5.7m/s | -16.2°C | 18.4% | 464.4hPa | 2.6V | 07:58:41 | 02:47:19 | 00:00:00 | |
| DO3DL | 2026-09-03 01:04:50 | 50.76855 | 8.79350 | 124° | 73km/h | 6364m | -5.7m/s | -16.2°C | 15.1% | 464.4hPa | 2.6V | 07:58:00 | 00:00:00 | 00:00:00 | |
| DM0DOS-11 | 2026-09-03 01:04:48 | 50.76928 | 8.79176 | 123° | 75km/h | 6404m | -5.7m/s | -16.5°C | 20.2% | 461.9hPa | 2.6V | 07:58:05 | 02:47:12 | 00:00:00 | |
| HSKMA3-T | 2026-09-03 01:04:47 | 50.76896 | 8.79250 | 123° | 73km/h | 6386m | -5.6m/s | -16.4°C | 21.9% | 463hPa | 2.5V | 07:58:41 | 02:47:15 | 00:00:00 | |
| DB0ND-19 | 2026-09-03 01:04:46 | 50.76907 | 8.79225 | 124° | 73km/h | 6392m | -5.9m/s | -16.4°C | 18.7% | 462.8hPa | 2.6V | 00:00:00 | 00:00:00 | 00:00:00 | |
| BIOWL1-15 | 2026-09-03 01:04:40 | 50.76993 | 8.79025 | 125° | 77km/h | 6439m | -5.8m/s | -16.8°C | 25% | 459.8hPa | 2.6V | 07:58:41 | 02:47:06 | 00:00:00 | |
| HSKMA3-T | 2026-09-03 01:04:36 | 50.77015 | 8.78974 | 124° | 78km/h | 6450m | -5.7m/s | -16.9°C | 25.6% | 459.2hPa | 2.5V | 07:58:41 | 02:47:04 | 00:00:00 | |
| BIOWL1-15 | 2026-09-03 01:04:30 | 50.77081 | 8.78822 | 125° | 77km/h | 6484m | -6m/s | -17.2°C | 29.9% | 457.1hPa | 2.5V | 07:58:41 | 02:46:58 | 00:00:00 | |
| DO3DL | 2026-09-03 01:04:30 | 50.77081 | 8.78822 | 126° | 77km/h | 6484m | -6.0m/s | -17.2°C | 25.4% | 457.1hPa | 2.6V | 07:58:00 | 00:00:00 | 00:00:00 | |
| DD1CC3-15 | 2026-09-03 01:04:29 | 50.77092 | 8.78797 | 125° | 77km/h | 6489m | -5.7m/s | -17.2°C | 28.3% | 456.7hPa | 2.6V | 07:58:00 | 00:00:00 | 00:00:00 | |
| BIOWL9-15 | 2026-09-03 01:04:28 | 50.77103 | 8.78771 | 122° | 77km/h | 6495m | -5.8m/s | -17.3°C | 30.1% | 456.4hPa | 2.6V | 00:00:00 | 00:00:00 | 00:00:00 | |
| DL4BBY-15 | 2026-09-03 01:04:27 | 50.77113 | 8.78746 | 124° | 78km/h | 6501m | -6.0m/s | -16.1°C | 0% | 0hPa | 2.6V | 00:00:00 | 00:00:00 | 00:00:00 | |
| HARRO8 | 2026-09-03 01:04:26 | 50.77124 | 8.78721 | 124° | 75km/h | 6507m | -6.0m/s | -17.4°C | 30.7% | 455.7hPa | 2.6V | 00:00:00 | 00:00:00 | 00:00:00 | |
| DL1NUX | 2026-09-03 01:04:25 | 50.77179 | 8.78593 | 124° | 78km/h | 6536m | -5.7m/s | -17.7°C | 35.4% | 453.9hPa | 2.6V | 07:58:28 | 02:46:49 | 00:00:00 | |
| HSKMA3-T | 2026-09-03 01:04:25 | 50.77135 | 8.78695 | 124° | 77km/h | 6513m | -5.9m/s | -17.5°C | 35% | 455.4hPa | 2.6V | 07:58:41 | 02:46:53 | 00:00:00 | |
| BIOWL1-15 | 2026-09-03 01:04:21 | 50.77211 | 8.78516 | 124° | 78km/h | 6553m | -5.6m/s | -17.9°C | 42.8% | 452.9hPa | 2.5V | 07:58:41 | 02:46:46 | 00:00:00 | |
| DJ8HS-15 | 2026-09-03 01:04:19 | 50.77200 | 8.78541 | 124° | 78km/h | 6548m | -5.8m/s | -17.8°C | 38.1% | 453.2hPa | 2.6V | 00:00:00 | 02:46:47 | 00:00:00 | |
| DL3AQ-11 | 2026-09-03 01:04:18 | 50.77222 | 8.78490 | 124° | 78km/h | 6559m | -5.5m/s | -17.9°C | 39.4% | 452.6hPa | 2.6V | 00:00:00 | 00:00:00 | 00:00:00 | |
| DO3DL | 2026-09-03 01:04:17 | 50.77222 | 8.78490 | 125° | 78km/h | 6559m | -5.5m/s | -17.9°C | 39.4% | 452.6hPa | 2.6V | 07:58:00 | 00:00:00 | 00:00:00 | |
| DM0DOS-11 | 2026-09-03 01:04:16 | 50.77255 | 8.78411 | 123° | 78km/h | 6576m | -5.7m/s | -18.1°C | 42.6% | 451.5hPa | 2.6V | 07:58:35 | 02:46:42 | 00:00:00 | |
| DL1NUX | 2026-09-03 01:04:15 | 50.77287 | 8.78332 | 122° | 77km/h | 6593m | -5.8m/s | -18.3°C | 43.6% | 450.5hPa | 2.5V | 07:58:38 | 02:46:39 | 00:00:00 | |
| HSKMA3-T | 2026-09-03 01:04:15 | 50.77244 | 8.78437 | 123° | 78km/h | 6570m | -5.9m/s | -18°C | 44.3% | 451.9hPa | 2.6V | 07:58:41 | 02:46:43 | 00:00:00 | |
| BIOWL1-15 | 2026-09-03 01:04:08 | 50.77320 | 8.78253 | 123° | 80km/h | 6610m | -5.8m/s | -18.4°C | 46.2% | 449.5hPa | 2.6V | 07:58:41 | 02:46:36 | 00:00:00 | |
| DD1CC3-15 | 2026-09-03 01:04:08 | 50.77320 | 8.78253 | 124° | 80km/h | 6610m | -5.8m/s | -18.4°C | 41.4% | 449.5hPa | 2.6V | 07:58:00 | 00:00:00 | 00:00:00 | |
| DO2KSM | 2026-09-03 01:04:07 | 50.77320 | 8.78253 | 124° | 80km/h | 6610m | -5.8m/s | -18.4°C | 41.4% | 449.5hPa | 2.6V | 07:58:00 | 00:00:00 | 00:00:00 | |
| DM0DOS-11 | 2026-09-03 01:04:05 | 50.77363 | 8.78148 | 122° | 80km/h | 6633m | -5.9m/s | -18.7°C | 57.8% | 448hPa | 2.6V | 07:58:45 | 02:46:32 | 00:00:00 | |
| DL1NUX | 2026-09-03 01:04:05 | 50.77396 | 8.78068 | 123° | 78km/h | 6650m | -6m/s | -18.9°C | 58.8% | 447hPa | 2.5V | 07:58:48 | 02:46:29 | 00:00:00 | |
| HSKMA3-T | 2026-09-03 01:04:04 | 50.77363 | 8.78148 | 123° | 80km/h | 6633m | -5.9m/s | -18.7°C | 59.9% | 448hPa | 2.6V | 07:59:32 | 02:46:32 | 00:00:00 | |
| DO3DL | 2026-09-03 01:04:03 | 50.77374 | 8.78121 | 123° | 78km/h | 6639m | -5.7m/s | -18.7°C | 56.0% | 447.7hPa | 2.6V | 07:59:00 | 00:00:00 | 00:00:00 | |
| BIOWL7-15 | 2026-09-03 01:04:01 | 50.77395 | 8.78068 | 124° | 78km/h | 6651m | -6.0m/s | -18.9°C | 56.7% | 447.0hPa | 2.6V | 07:59:00 | 00:00:00 | 00:00:00 | |
| DM0DOS-11 | 2026-09-03 01:04:00 | 50.77481 | 8.77858 | 122° | 78km/h | 6696m | -5.9m/s | -19.3°C | 59.3% | 444.3hPa | 2.6V | 07:58:56 | 02:46:21 | 00:00:00 | |
| BIOWL1-15 | 2026-09-03 01:03:59 | 50.77438 | 8.77964 | 124° | 77km/h | 6674m | -5.7m/s | -19.1°C | 60.7% | 445.6hPa | 2.6V | 07:59:32 | 02:46:25 | 00:00:00 | |
| DJ8HS-15 | 2026-09-03 01:03:59 | 50.77417 | 8.78015 | 123° | 78km/h | 6662m | -5.7m/s | -18.9°C | 59.1% | 446.2hPa | 2.5V | 00:00:00 | 02:46:27 | 00:00:00 | |
| DO3DL | 2026-09-03 01:03:57 | 50.77438 | 8.77964 | 125° | 77km/h | 6674m | -5.7m/s | -19.1°C | 57.0% | 445.6hPa | 2.5V | 07:59:00 | 00:00:00 | 00:00:00 | |
| DL1NUX | 2026-09-03 01:03:56 | 50.77502 | 8.77804 | 121° | 80km/h | 6707m | -5.8m/s | -19.4°C | 59.8% | 443.5hPa | 2.5V | 07:58:58 | 02:46:19 | 00:00:00 | |
| HSKMA3-T | 2026-09-03 01:03:50 | 50.77512 | 8.77777 | 121° | 78km/h | 6713m | -5.5m/s | -19.5°C | 61.4% | 443.3hPa | 2.5V | 07:59:32 | 02:46:18 | 00:00:00 | |
| DL3AQ-11 | 2026-09-03 01:03:49 | 50.77533 | 8.77723 | 121° | 78km/h | 6724m | -5.5m/s | -19.6°C | 58.1% | 442.6hPa | 2.6V | 00:00:00 | 00:00:00 | 00:00:00 | |
| DM0DOS-11 | 2026-09-03 01:03:48 | 50.77596 | 8.77561 | 120° | 78km/h | 6758m | -5.8m/s | -19.9°C | 54.2% | 440.5hPa | 2.6V | 07:59:07 | 02:46:10 | 00:00:00 | |
| BIOWL1-15 | 2026-09-03 01:03:46 | 50.77575 | 8.77615 | 122° | 78km/h | 6746m | -5.9m/s | -19.8°C | 58% | 441.2hPa | 2.5V | 07:59:32 | 02:46:12 | 00:00:00 | |
| DL1LOL-11 | 2026-09-03 01:03:45 | 50.77555 | 8.77669 | 122° | 80km/h | 6735m | -5.9m/s | -19.7°C | 56.3% | 441.9hPa | 2.5V | 00:00:00 | 00:00:00 | 00:00:00 | |
| DO3DL | 2026-09-03 01:03:44 | 50.77575 | 8.77615 | 123° | 78km/h | 6746m | -5.9m/s | -19.8°C | 54.2% | 441.2hPa | 2.5V | 07:59:00 | 00:00:00 | 00:00:00 | |
| SONCRA | 2026-09-03 01:03:43 | 50.77596 | 8.77561 | 120° | 78km/h | 6758m | -5.8m/s | -19.9°C | 52.1% | 440.5hPa | 2.5V | 00:00:00 | 00:00:00 | 00:00:00 | |
| DB0DAN | 2026-09-03 01:03:40 | 50.77617 | 8.77507 | 122° | 77km/h | 6770m | -5.6m/s | -20°C | 50.4% | 439.83hPa | 2.5V | 00:00:00 | 00:00:00 | 00:00:00 | |
| HSKMA3-T | 2026-09-03 01:03:40 | 50.77617 | 8.77507 | 122° | 80km/h | 6770m | -5.6m/s | -20°C | 54.4% | 439.8hPa | 2.5V | 07:59:32 | 02:46:08 | 00:00:00 | |
| BIOWL1-15 | 2026-09-03 01:03:38 | 50.77660 | 8.77393 | 121° | 86km/h | 6793m | -5.9m/s | -20.1°C | 46.1% | 438.5hPa | 2.6V | 07:59:32 | 02:46:04 | 00:00:00 | |
| DF7PN | 2026-09-03 01:03:38 | 50.77649 | 8.77422 | 121° | 82km/h | 6787m | -5.6m/s | -20.1°C | 46.1% | 438.9hPa | 2.5V | 00:00:00 | 00:00:00 | 00:00:00 | |
| DL3AQ-11 | 2026-09-03 01:03:37 | 50.77649 | 8.77422 | 121° | 82km/h | 6787m | -5.6m/s | -20.1°C | 46.1% | 438.9hPa | 2.5V | 00:00:00 | 00:00:00 | 00:00:00 | |
| DM0DOS-11 | 2026-09-03 01:03:36 | 50.77704 | 8.77276 | 120° | 86km/h | 6816m | -6.1m/s | -20.3°C | 39.8% | 437.1hPa | 2.5V | 07:59:17 | 02:46:00 | 00:00:00 | |
| HSKMA3-T | 2026-09-03 01:03:29 | 50.77736 | 8.77189 | 120° | 84km/h | 6833m | -5.8m/s | -20.5°C | 44% | 436.1hPa | 2.6V | 07:59:32 | 02:45:57 | 00:00:00 | |
| BIOWL1-15 | 2026-09-03 01:03:26 | 50.77779 | 8.77072 | 120° | 84km/h | 6856m | -6m/s | -20.6°C | 54.6% | 434.7hPa | 2.6V | 07:59:32 | 02:45:53 | 00:00:00 | |
| DL1NUX | 2026-09-03 01:03:26 | 50.77822 | 8.76953 | 120° | 86km/h | 6879m | -5.9m/s | -20.8°C | 56.5% | 433.5hPa | 2.6V | 07:59:28 | 02:45:49 | 00:00:00 | |
| DB0DAN | 2026-09-03 01:03:25 | 50.77779 | 8.77072 | 120° | 80km/h | 6856m | -6m/s | -20.6°C | 50.7% | 434.68hPa | 2.6V | 00:00:00 | 00:00:00 | 00:00:00 | |
| DM0DOS-11 | 2026-09-03 01:03:25 | 50.77811 | 8.76983 | 119° | 86km/h | 6873m | -5.7m/s | -20.8°C | 56.2% | 433.7hPa | 2.6V | 07:59:27 | 02:45:50 | 00:00:00 | |
| HSKMA3-T | 2026-09-03 01:03:19 | 50.77845 | 8.76892 | 121° | 89km/h | 6890m | -5.7m/s | -20.9°C | 58.5% | 432.8hPa | 2.5V | 07:59:32 | 02:45:47 | 00:00:00 | |
| DJ8HS-15 | 2026-09-03 01:03:19 | 50.77845 | 8.76892 | 121° | 91km/h | 6890m | -5.7m/s | -20.9°C | 56.9% | 432.7hPa | 2.6V | 00:00:00 | 02:45:47 | 00:00:00 | |
| NBG1-10 | 2026-09-03 01:03:18 | 50.77857 | 8.76862 | 121° | 95km/h | 6895m | -5.8m/s | -21.0°C | 56.5% | 432.5hPa | 2.6V | 00:00:00 | 02:45:46 | 00:00:00 | |
| DM0DOS-11 | 2026-09-03 01:03:17 | 50.77926 | 8.76678 | 121° | 89km/h | 6929m | -6.2m/s | -21.3°C | 58.5% | 430.5hPa | 2.6V | 07:59:37 | 02:45:40 | 00:00:00 | |
| BIOWL1-15 | 2026-09-03 01:03:15 | 50.77892 | 8.76770 | 120° | 89km/h | 6913m | -5.8m/s | -21.1°C | 60.1% | 431.5hPa | 2.5V | 08:00:23 | 02:45:43 | 00:00:00 | |
| DO3DL | 2026-09-03 01:03:15 | 50.77880 | 8.76800 | 122° | 89km/h | 6907m | -6.1m/s | -21.1°C | 55.5% | 431.8hPa | 2.5V | 08:00:00 | 00:00:00 | 00:00:00 | |
| DD8BA-10 | 2026-09-03 01:03:14 | 50.77903 | 8.76738 | 120° | 91km/h | 6918m | -5.5m/s | -21.1°C | 58.8% | 431.1hPa | 2.5V | 00:00:00 | 00:00:00 | 00:00:00 | |
| DO9LL-15 | 2026-09-03 01:03:13 | 50.77914 | 8.76708 | 121° | 97km/h | 6924m | -5.5m/s | -21.2°C | 58.7% | 430.7hPa | 2.5V | 00:00:00 | 02:45:41 | 00:00:00 | |
| DL1NUX | 2026-09-03 01:03:11 | 50.77938 | 8.76647 | 121° | 91km/h | 6935m | -5.9m/s | -21.3°C | 58.8% | 430.2hPa | 2.6V | 07:59:38 | 02:45:39 | 00:00:00 | |
| DB0DAN | 2026-09-03 01:03:10 | 50.77950 | 8.76616 | 121° | 88km/h | 6941m | -5.7m/s | -21.4°C | 0% | 429.84hPa | 2.6V | 00:00:00 | 00:00:00 | 00:00:00 | |
| HSKMA3-T | 2026-09-03 01:03:08 | 50.77974 | 8.76553 | 121° | 93km/h | 6952m | -5.8m/s | -21.5°C | 61.2% | 429.2hPa | 2.5V | 08:00:23 | 02:45:36 | 00:00:00 | |
| BIOWL1-15 | 2026-09-03 01:03:05 | 50.78058 | 8.76324 | 120° | 95km/h | 6992m | -5.8m/s | -21.8°C | 64.5% | 426.8hPa | 2.5V | 08:00:23 | 02:45:29 | 00:00:00 | |
| DL1NUX | 2026-09-03 01:03:05 | 50.78058 | 8.76324 | 120° | 95km/h | 6992m | -5.8m/s | -21.8°C | 63.3% | 426.8hPa | 2.5V | 07:59:48 | 02:45:29 | 00:00:00 | |
| HSKMA3-T | 2026-09-03 01:02:57 | 50.78107 | 8.76191 | 121° | 95km/h | 7015m | -5.7m/s | -22°C | 65% | 425.4hPa | 2.5V | 08:00:23 | 02:45:25 | 00:00:00 | |
| DL8DAS-14 | 2026-09-03 01:02:56 | 50.78120 | 8.76158 | 120° | 97km/h | 7021m | -6.0m/s | -22.0°C | 60.8% | 425.1hPa | 2.6V | 00:00:00 | 00:00:00 | 00:00:00 | |
| BIOWL9-15 | 2026-09-03 01:02:55 | 50.78145 | 8.76090 | 120° | 99km/h | 7032m | -6.0m/s | -22.1°C | 59.6% | 424.5hPa | 2.6V | 00:00:00 | 00:00:00 | 00:00:00 | |
| DM0DOS-11 | 2026-09-03 01:02:54 | 50.78171 | 8.76023 | 120° | 100km/h | 7044m | -6m/s | -22.1°C | 57.9% | 423.9hPa | 2.6V | 07:59:57 | 02:45:20 | 00:00:00 | |
| BIOWL1-15 | 2026-09-03 01:02:51 | 50.78196 | 8.75953 | 119° | 99km/h | 7056m | -5.7m/s | -22.2°C | 61.3% | 423.1hPa | 2.5V | 08:00:23 | 02:45:18 | 00:00:00 | |
| HSKMA3-T | 2026-09-03 01:02:46 | 50.78246 | 8.75814 | 119° | 100km/h | 7079m | -6m/s | -22.4°C | 60.5% | 421.9hPa | 2.6V | 08:00:23 | 02:45:14 | 00:00:00 | |
| DL1NUX | 2026-09-03 01:02:45 | 50.78308 | 8.75640 | 120° | 99km/h | 7108m | -5.9m/s | -22.6°C | 60.1% | 420.1hPa | 2.6V | 08:00:08 | 02:45:09 | 00:00:00 | |
| NBG1-10 | 2026-09-03 01:02:45 | 50.78271 | 8.75745 | 120° | 100km/h | 7090m | -5.9m/s | -22.4°C | 60.3% | 421.1hPa | 2.5V | 00:00:00 | 02:45:12 | 00:00:00 | |
| DD8BA-10 | 2026-09-03 01:02:44 | 50.78271 | 8.75745 | 120° | 100km/h | 7090m | -5.9m/s | -22.4°C | 60.3% | 421.1hPa | 2.5V | 08:00:00 | 00:00:00 | 00:00:00 | |
| DM0DOS-11 | 2026-09-03 01:02:43 | 50.78296 | 8.75675 | 119° | 100km/h | 7102m | -5.8m/s | -22.6°C | 60.4% | 420.5hPa | 2.6V | 08:00:07 | 02:45:10 | 00:00:00 | |
| BIOWL1-15 | 2026-09-03 01:02:40 | 50.78321 | 8.75606 | 120° | 100km/h | 7114m | -5.7m/s | -22.7°C | 60.2% | 419.9hPa | 2.6V | 08:00:23 | 02:45:08 | 00:00:00 | |
| DJ2DS-15 | 2026-09-03 01:02:39 | 50.78334 | 8.75571 | 120° | 100km/h | 7120m | -6.2m/s | -22.6°C | 56.5% | 419.5hPa | 2.5V | 00:00:00 | 02:45:07 | 00:00:00 | |
| DB0NH | 2026-09-03 01:02:38 | 50.78346 | 8.75536 | 120° | 100km/h | 7125m | -5.8m/s | -22.7°C | 55.1% | 419.1hPa | 2.5V | 00:00:00 | 02:45:06 | 00:00:00 | |
| DF7PN | 2026-09-03 01:02:36 | 50.78384 | 8.75431 | 118° | 100km/h | 7143m | -5.6m/s | -22.9°C | 47.2% | 418.2hPa | 2.5V | 00:00:00 | 00:00:00 | 00:00:00 | |
| DL1NUX | 2026-09-03 01:02:35 | 50.78433 | 8.75290 | 118° | 100km/h | 7166m | -6.1m/s | -23°C | 44% | 416.8hPa | 2.5V | 08:00:18 | 02:44:59 | 00:00:00 | |
| HSKMA3-T | 2026-09-03 01:02:35 | 50.78384 | 8.75431 | 119° | 102km/h | 7143m | -5.6m/s | -22.9°C | 51.7% | 418.2hPa | 2.6V | 08:00:23 | 02:45:03 | 00:00:00 | |
| BIOWL1-15 | 2026-09-03 01:02:29 | 50.78457 | 8.75220 | 119° | 100km/h | 7177m | -5.7m/s | -23.1°C | 50.8% | 416.1hPa | 2.6V | 08:00:23 | 02:44:57 | 00:00:00 | |
| DL3AQ-11 | 2026-09-03 01:02:29 | 50.78470 | 8.75185 | 119° | 100km/h | 7183m | -5.8m/s | -23.2°C | 49.9% | 415.9hPa | 2.6V | 00:00:00 | 00:00:00 | 00:00:00 | |
| DJ2DS-15 | 2026-09-03 01:02:28 | 50.78470 | 8.75185 | 119° | 100km/h | 7183m | -5.8m/s | -23.2°C | 49.9% | 415.9hPa | 2.6V | 00:00:00 | 00:00:00 | 00:00:00 | |
| DM0DOS-11 | 2026-09-03 01:02:27 | 50.78543 | 8.74975 | 118° | 99km/h | 7218m | -6m/s | -23.5°C | 64.1% | 413.9hPa | 2.6V | 08:00:27 | 02:44:50 | 00:00:00 | |
| DL4BBY-15 | 2026-09-03 01:02:27 | 50.78482 | 8.75150 | 119° | 99km/h | 7189m | -5.8m/s | -22.1°C | 0% | 0hPa | 2.5V | 00:00:00 | 00:00:00 | 00:00:00 | |
| DL1NUX | 2026-09-03 01:02:25 | 50.78555 | 8.74940 | 119° | 99km/h | 7223m | -5.7m/s | -23.5°C | 65.5% | 413.5hPa | 2.5V | 08:00:28 | 02:44:49 | 00:00:00 | |
| HSKMA3-T | 2026-09-03 01:02:24 | 50.78519 | 8.75045 | 119° | 100km/h | 7206m | -5.8m/s | -23.4°C | 62.2% | 414.6hPa | 2.6V | 08:01:14 | 02:44:52 | 00:00:00 | |
| BIOWL1-15 | 2026-09-03 01:02:18 | 50.78616 | 8.74768 | 120° | 99km/h | 7252m | -6.2m/s | -23.8°C | 69.3% | 412hPa | 2.6V | 08:01:14 | 02:44:44 | 00:00:00 | |
| DL3AQ-11 | 2026-09-03 01:02:18 | 50.78604 | 8.74802 | 119° | 97km/h | 7247m | -5.8m/s | -23.7°C | 65.2% | 412.3hPa | 2.6V | 00:00:00 | 00:00:00 | 00:00:00 | |
| DO3DL | 2026-09-03 01:02:16 | 50.78604 | 8.74802 | 121° | 97km/h | 7247m | -5.8m/s | -23.7°C | 65.2% | 412.3hPa | 2.6V | 08:01:00 | 00:00:00 | 00:00:00 | |
| DM0DOS-11 | 2026-09-03 01:02:15 | 50.78666 | 8.74631 | 119° | 99km/h | 7276m | -6m/s | -24°C | 71.6% | 410.6hPa | 2.6V | 08:00:37 | 02:44:40 | 00:00:00 | |
| DL1NUX | 2026-09-03 01:02:15 | 50.78678 | 8.74597 | 119° | 99km/h | 7282m | -6m/s | -24.1°C | 73.4% | 410.3hPa | 2.6V | 08:00:38 | 02:44:39 | 00:00:00 | |
| HSKMA3-T | 2026-09-03 01:02:14 | 50.78641 | 8.74700 | 119° | 99km/h | 7265m | -6m/s | -23.9°C | 69.9% | 411.3hPa | 2.5V | 08:01:14 | 02:44:42 | 00:00:00 | |
| BIOWL1-15 | 2026-09-03 01:02:07 | 50.78726 | 8.74462 | 119° | 97km/h | 7306m | -5.8m/s | -24.3°C | 81.7% | 408.9hPa | 2.5V | 08:01:14 | 02:44:35 | 00:00:00 | |
| DL1NUX | 2026-09-03 01:02:05 | 50.78798 | 8.74263 | 120° | 95km/h | 7340m | -6.1m/s | -24.5°C | 83.3% | 407hPa | 2.5V | 08:00:48 | 02:44:29 | 00:00:00 | |
| DF7PN | 2026-09-03 01:02:05 | 50.78762 | 8.74362 | 120° | 95km/h | 7323m | -6.0m/s | -24.4°C | 80.9% | 408.0hPa | 2.5V | 00:00:00 | 00:00:00 | 00:00:00 | |
| DM0DOS-11 | 2026-09-03 01:02:04 | 50.78786 | 8.74296 | 119° | 95km/h | 7335m | -5.9m/s | -24.5°C | 82.9% | 407.3hPa | 2.5V | 08:00:47 | 02:44:30 | 00:00:00 | |
| HSKMA3-T | 2026-09-03 01:02:03 | 50.78774 | 8.74329 | 120° | 97km/h | 7329m | -5.8m/s | -24.4°C | 81.7% | 407.7hPa | 2.5V | 08:01:14 | 02:44:31 | 00:00:00 | |
| BIOWL1-15 | 2026-09-03 01:01:56 | 50.78932 | 8.73896 | 121° | 97km/h | 7406m | -5.9m/s | -24.9°C | 81% | 403.4hPa | 2.5V | 08:01:14 | 02:44:18 | 00:00:00 | |
| DO3DL | 2026-09-03 01:01:56 | 50.78858 | 8.74098 | 121° | 97km/h | 7370m | -6.2m/s | -24.7°C | 79.5% | 405.3hPa | 2.6V | 08:01:00 | 00:00:00 | 00:00:00 | |
| DL1NUX | 2026-09-03 01:01:55 | 50.78920 | 8.73930 | 121° | 99km/h | 7400m | -5.9m/s | -24.9°C | 82.9% | 403.8hPa | 2.6V | 08:00:58 | 02:44:19 | 00:00:00 | |
| HSKMA3-T | 2026-09-03 01:01:53 | 50.78894 | 8.73996 | 120° | 97km/h | 7388m | -6.1m/s | -24.8°C | 81.5% | 404.4hPa | 2.5V | 08:01:14 | 02:44:21 | 00:00:00 | |
| BIOWL9-15 | 2026-09-03 01:01:53 | 50.78907 | 8.73963 | 120° | 97km/h | 7394m | -6.1m/s | -24.8°C | 79.6% | 404.0hPa | 2.5V | 00:00:00 | 00:00:00 | 00:00:00 | |
| DJ2DS-15 | 2026-09-03 01:01:52 | 50.78920 | 8.73930 | 121° | 97km/h | 7400m | -5.9m/s | -24.9°C | 79.4% | 403.8hPa | 2.5V | 00:00:00 | 00:00:00 | 00:00:00 | |
| HARRO8 | 2026-09-03 01:01:51 | 50.78932 | 8.73896 | 121° | 97km/h | 7406m | -5.9m/s | -24.9°C | 78.6% | 403.4hPa | 2.5V | 00:00:00 | 00:00:00 | 00:00:00 | |
| BUE01 | 2026-09-03 01:01:50 | 50.78945 | 8.73863 | 121° | 95km/h | 7412m | -5.9m/s | -25.0°C | 78.5% | 403.1hPa | 2.5V | 00:00:00 | 00:00:00 | 00:00:00 | |
| DL3AQ-11 | 2026-09-03 01:01:49 | 50.78958 | 8.73831 | 122° | 95km/h | 7418m | -5.7m/s | -25.0°C | 78.8% | 402.7hPa | 2.5V | 00:00:00 | 00:00:00 | 00:00:00 | |
| DM0DOS-11 | 2026-09-03 01:01:45 | 50.79037 | 8.73635 | 121° | 99km/h | 7452m | -5.9m/s | -25.2°C | 85.6% | 400.8hPa | 2.5V | 08:01:07 | 02:44:10 | 00:00:00 | |
| DL1NUX | 2026-09-03 01:01:45 | 50.79050 | 8.73602 | 121° | 99km/h | 7458m | -5.8m/s | -25.1°C | 85.8% | 400.4hPa | 2.6V | 08:01:08 | 02:44:09 | 00:00:00 | |
| HSKMA3-T | 2026-09-03 01:01:42 | 50.79037 | 8.73635 | 122° | 99km/h | 7452m | -5.9m/s | -25.2°C | 83.6% | 400.8hPa | 2.5V | 08:01:14 | 02:44:10 | 00:00:00 | |
| BIOWL1-15 | 2026-09-03 01:01:39 | 50.79115 | 8.73437 | 122° | 97km/h | 7488m | -5.7m/s | -25.1°C | 85.1% | 398.9hPa | 2.5V | 08:01:14 | 02:44:04 | 00:00:00 | |
| DJ2DS-15 | 2026-09-03 01:01:39 | 50.79076 | 8.73536 | 123° | 97km/h | 7470m | -6.1m/s | -25.0°C | 85.8% | 399.7hPa | 2.5V | 00:00:00 | 02:44:07 | 00:00:00 | |
| DL3AQ-11 | 2026-09-03 01:01:38 | 50.79102 | 8.73470 | 121° | 97km/h | 7482m | -6.3m/s | -25.1°C | 82.3% | 399.2hPa | 2.5V | 00:00:00 | 00:00:00 | 00:00:00 | |
| DD1CC8 | 2026-09-03 01:01:37 | 50.79102 | 8.73470 | 121° | 97km/h | 7482m | -6.3m/s | -25.1°C | 82.3% | 399.2hPa | 2.5V | 00:00:00 | 00:00:00 | 00:00:00 | |
| DD8BA-10 | 2026-09-03 01:01:36 | 50.79115 | 8.73437 | 123° | 97km/h | 7488m | -5.6m/s | -25.0°C | 85.8% | 398.8hPa | 2.5V | 00:00:00 | 00:00:00 | 00:00:00 | |
| DL1NUX | 2026-09-03 01:01:35 | 50.79182 | 8.73273 | 123° | 99km/h | 7518m | -5.9m/s | -25.2°C | 86.2% | 397.2hPa | 2.5V | 08:01:18 | 02:43:59 | 00:00:00 | |
| DM0DOS-11 | 2026-09-03 01:01:33 | 50.79169 | 8.73305 | 123° | 97km/h | 7512m | -5.9m/s | -25.2°C | 86.1% | 397.6hPa | 2.5V | 08:01:17 | 02:44:00 | 00:00:00 | |
| HSKMA3-T | 2026-09-03 01:01:32 | 50.79169 | 8.73305 | 124° | 97km/h | 7512m | -5.9m/s | -25.2°C | 85.3% | 397.6hPa | 2.5V | 08:02:05 | 02:44:00 | 00:00:00 | |
| BIOWL1-15 | 2026-09-03 01:01:28 | 50.79291 | 8.73016 | 124° | 97km/h | 7565m | -6.1m/s | -25.5°C | 86% | 394.7hPa | 2.5V | 08:02:05 | 02:43:51 | 00:00:00 | |
| DM0DOS-11 | 2026-09-03 01:01:27 | 50.79318 | 8.72952 | 123° | 97km/h | 7577m | -5.9m/s | -25.6°C | 85.9% | 394hPa | 2.5V | 08:01:28 | 02:43:49 | 00:00:00 | |
| DL4BBY-15 | 2026-09-03 01:01:27 | 50.79237 | 8.73144 | 125° | 97km/h | 7542m | -6.1m/s | -24.2°C | 0% | 0hPa | 2.5V | 00:00:00 | 00:00:00 | 00:00:00 | |
| DL1NUX | 2026-09-03 01:01:25 | 50.79318 | 8.72952 | 123° | 97km/h | 7577m | -5.9m/s | -25.6°C | 85.9% | 394hPa | 2.5V | 08:01:28 | 02:43:49 | 00:00:00 | |
| HSKMA3-T | 2026-09-03 01:01:22 | 50.79304 | 8.72984 | 124° | 97km/h | 7571m | -6m/s | -25.5°C | 85.9% | 394.4hPa | 2.5V | 08:02:05 | 02:43:50 | 00:00:00 | |
| BIOWL1-15 | 2026-09-03 01:01:16 | 50.79414 | 8.72729 | 125° | 97km/h | 7619m | -6m/s | -25.8°C | 82% | 391.7hPa | 2.6V | 08:02:05 | 02:43:42 | 00:00:00 | |
| DJ2DS-15 | 2026-09-03 01:01:16 | 50.79400 | 8.72760 | 124° | 95km/h | 7612m | -6.3m/s | -25.8°C | 79.5% | 392.1hPa | 2.5V | 00:00:00 | 00:00:00 | 00:00:00 | |
| DL1NUX | 2026-09-03 01:01:15 | 50.79455 | 8.72633 | 124° | 95km/h | 7636m | -5.9m/s | -25.9°C | 79.8% | 390.8hPa | 2.5V | 08:01:38 | 02:43:39 | 00:00:00 | |
| HSKMA3-T | 2026-09-03 01:01:11 | 50.79455 | 8.72633 | 124° | 95km/h | 7637m | -5.9m/s | -25.9°C | 80.4% | 390.8hPa | 2.5V | 08:02:05 | 02:43:39 | 00:00:00 | |
| DL3AQ-11 | 2026-09-03 01:01:09 | 50.79496 | 8.72537 | 123° | 95km/h | 7655m | -6.3m/s | -26.1°C | 75.3% | 389.8hPa | 2.5V | 00:00:00 | 00:00:00 | 00:00:00 | |
| DB0NH | 2026-09-03 01:01:08 | 50.79496 | 8.72536 | 124° | 97km/h | 7655m | -6.2m/s | -26.0°C | 79.0% | 389.8hPa | 2.5V | 00:00:00 | 02:43:36 | 00:00:00 | |
| SONCRA | 2026-09-03 01:01:07 | 50.79509 | 8.72505 | 124° | 95km/h | 7661m | -6.6m/s | -26.1°C | 75.0% | 389.5hPa | 2.5V | 00:00:00 | 00:00:00 | 00:00:00 | |
| DD1CC8 | 2026-09-03 01:01:06 | 50.79523 | 8.72473 | 124° | 97km/h | 7667m | -6.4m/s | -26.1°C | 74.7% | 389.1hPa | 2.5V | 00:00:00 | 00:00:00 | 00:00:00 | |
| DL1NUX | 2026-09-03 01:01:05 | 50.79592 | 8.72315 | 124° | 95km/h | 7698m | -6.3m/s | -26.4°C | 78.9% | 387.4hPa | 2.5V | 08:01:48 | 02:43:29 | 00:00:00 | |
| BIOWL1-15 | 2026-09-03 01:01:04 | 50.79659 | 8.72158 | 123° | 95km/h | 7728m | -6.1m/s | -26.6°C | 79.5% | 385.8hPa | 2.6V | 08:02:05 | 02:43:24 | 00:00:00 | |
| DM0DOS-11 | 2026-09-03 01:01:03 | 50.79578 | 8.72346 | 125° | 95km/h | 7692m | -6.1m/s | -26.3°C | 78.3% | 387.8hPa | 2.6V | 08:01:47 | 02:43:30 | 00:00:00 | |
| HSKMA3-T | 2026-09-03 01:01:00 | 50.79605 | 8.72284 | 124° | 93km/h | 7704m | -6.1m/s | -26.4°C | 80% | 387hPa | 2.5V | 08:02:05 | 02:43:28 | 00:00:00 | |
| DL3AQ-11 | 2026-09-03 01:00:58 | 50.79645 | 8.72190 | 123° | 95km/h | 7722m | -6.2m/s | -26.6°C | 75.2% | 386.1hPa | 2.5V | 00:00:00 | 00:00:00 | 00:00:00 | |
| DM0DOS-11 | 2026-09-03 01:00:57 | 50.79725 | 8.71997 | 123° | 95km/h | 7758m | -6.1m/s | -26.9°C | 79.2% | 384.2hPa | 2.5V | 08:01:58 | 02:43:19 | 00:00:00 | |
| DL4BBY-15 | 2026-09-03 01:00:57 | 50.79645 | 8.72190 | 124° | 97km/h | 7722m | -6.2m/s | -25.4°C | 0% | 0hPa | 2.5V | 00:00:00 | 00:00:00 | 00:00:00 | |
| DO3DL | 2026-09-03 01:00:56 | 50.79645 | 8.72190 | 124° | 95km/h | 7722m | -6.2m/s | -26.6°C | 75.2% | 386.1hPa | 2.5V | 08:02:00 | 00:00:00 | 00:00:00 | |
| DL1NUX | 2026-09-03 01:00:55 | 50.79725 | 8.71997 | 123° | 95km/h | 7758m | -6.1m/s | -26.9°C | 79.2% | 384.2hPa | 2.5V | 08:01:58 | 02:43:19 | 00:00:00 | |
| BIOWL1-15 | 2026-09-03 01:00:50 | 50.79738 | 8.71965 | 124° | 97km/h | 7764m | -6.1m/s | -26.9°C | 80% | 383.9hPa | 2.5V | 08:02:05 | 02:43:18 | 00:00:00 | |
| AU51GT2 | 2026-09-03 01:00:50 | 50.79738 | 8.71965 | 124° | 95km/h | 7764m | -6.1m/s | -26.9°C | 75.5% | 383.9hPa | 2.5V | 00:00:00 | 00:00:00 | 00:00:00 | |
| HARRO8 | 2026-09-03 01:00:49 | 50.79766 | 8.71900 | 122° | 97km/h | 7776m | -6.0m/s | -27.0°C | 76.1% | 383.3hPa | 2.5V | 00:00:00 | 00:00:00 | 00:00:00 | |
| HSKMA3-T | 2026-09-03 01:00:49 | 50.79752 | 8.71933 | 124° | 99km/h | 7770m | -6m/s | -27°C | 80.3% | 383.6hPa | 2.5V | 08:02:05 | 02:43:17 | 00:00:00 | |
| DL1NUX | 2026-09-03 01:00:45 | 50.79862 | 8.71674 | 123° | 99km/h | 7819m | -6.6m/s | -27.4°C | 79.5% | 381.1hPa | 2.5V | 08:02:08 | 02:43:09 | 00:00:00 | |
| BIOWL1-15 | 2026-09-03 01:00:40 | 50.79876 | 8.71641 | 123° | 99km/h | 7825m | -6.1m/s | -27.4°C | 79.4% | 380.7hPa | 2.5V | 08:02:56 | 02:43:08 | 00:00:00 | |
| HSKMA3-T | 2026-09-03 01:00:39 | 50.79889 | 8.71608 | 123° | 97km/h | 7832m | -6m/s | -27.5°C | 78.7% | 380.5hPa | 2.5V | 08:02:56 | 02:43:07 | 00:00:00 | |
| DB0NH | 2026-09-03 01:00:38 | 50.79903 | 8.71576 | 124° | 97km/h | 7838m | -6.0m/s | -27.5°C | 77.3% | 380.0hPa | 2.5V | 00:00:00 | 02:43:06 | 00:00:00 | |
| SONCRA | 2026-09-03 01:00:36 | 50.79929 | 8.71512 | 122° | 97km/h | 7850m | -6.1m/s | -27.6°C | 73.2% | 379.5hPa | 2.5V | 00:00:00 | 00:00:00 | 00:00:00 | |
| DL1NUX | 2026-09-03 01:00:35 | 50.79996 | 8.71350 | 122° | 99km/h | 7880m | -6.2m/s | -27.9°C | 77.9% | 377.8hPa | 2.5V | 08:02:18 | 02:42:59 | 00:00:00 | |
| BIOWL1-15 | 2026-09-03 01:00:30 | 50.80009 | 8.71318 | 123° | 97km/h | 7886m | -6.4m/s | -28°C | 79.1% | 377.6hPa | 2.5V | 08:02:56 | 02:42:58 | 00:00:00 | |
| HSKMA3-T | 2026-09-03 01:00:29 | 50.80022 | 8.71286 | 124° | 97km/h | 7892m | -6.1m/s | -28°C | 79.1% | 377.1hPa | 2.5V | 08:02:56 | 02:42:57 | 00:00:00 | |
| DL3AQ-11 | 2026-09-03 01:00:29 | 50.80036 | 8.71253 | 124° | 97km/h | 7898m | -6.4m/s | -28.1°C | 74.6% | 376.9hPa | 2.5V | 00:00:00 | 00:00:00 | 00:00:00 | |
| DM0DOS-11 | 2026-09-03 01:00:24 | 50.80133 | 8.71031 | 124° | 95km/h | 7941m | -6.1m/s | -28.5°C | 79.9% | 374.6hPa | 2.5V | 08:02:28 | 02:42:49 | 00:00:00 | |
| BIOWL1-15 | 2026-09-03 01:00:23 | 50.80254 | 8.70742 | 124° | 99km/h | 7996m | -6.5m/s | -29°C | 81.7% | 371.8hPa | 2.5V | 08:02:56 | 02:42:40 | 00:00:00 | |
| HSKMA3-T | 2026-09-03 01:00:19 | 50.80160 | 8.70969 | 123° | 97km/h | 7953m | -6.1m/s | -28.6°C | 80.1% | 374hPa | 2.5V | 08:02:56 | 02:42:47 | 00:00:00 | |
| DJ2DS-15 | 2026-09-03 01:00:19 | 50.80160 | 8.70969 | 124° | 100km/h | 7953m | -6.0m/s | -28.6°C | 80.8% | 374.0hPa | 2.5V | 00:00:00 | 02:42:47 | 00:00:00 | |
| DL3AQ-11 | 2026-09-03 01:00:18 | 50.80186 | 8.70904 | 122° | 93km/h | 7965m | -6.3m/s | -28.7°C | 77.3% | 373.3hPa | 2.5V | 00:00:00 | 00:00:00 | 00:00:00 | |
| DL1NUX | 2026-09-03 01:00:17 | 50.80268 | 8.70709 | 124° | 100km/h | 8003m | -6.3m/s | -29.1°C | 83% | 371.4hPa | 2.5V | 08:02:38 | 02:42:39 | 00:00:00 | |
| DO3DL | 2026-09-03 01:00:15 | 50.80199 | 8.70872 | 124° | 95km/h | 7972m | -6.4m/s | -28.8°C | 77.6% | 373.0hPa | 2.5V | 08:02:00 | 00:00:00 | 00:00:00 | |
| DB0UT-7 | 2026-09-03 01:00:14 | 50.80226 | 8.70808 | 124° | 106km/h | 7984m | -6.3m/s | -28.9°C | 82.3% | 372.4hPa | 2.5V | 00:00:00 | 02:42:42 | 00:00:00 | |
| DL1LOL-11 | 2026-09-03 01:00:12 | 50.80240 | 8.70775 | 124° | 99km/h | 7990m | -6.3m/s | -29.0°C | 78.3% | 372.1hPa | 2.5V | 00:00:00 | 00:00:00 | 00:00:00 | |
| DM0DOS-11 | 2026-09-03 01:00:11 | 50.80310 | 8.70610 | 125° | 100km/h | 8021m | -6.3m/s | -29.2°C | 82.5% | 370.4hPa | 2.5V | 08:02:41 | 02:42:36 | 00:00:00 | |
| DL1XH-west | 2026-09-03 01:00:11 | 50.80268 | 8.70709 | 124° | 100km/h | 8003m | -6.3m/s | -29.1°C | 81.7% | 371.4hPa | 2.5V | 08:02:56 | 02:42:39 | 00:00:00 | |
| HSKMA3-T | 2026-09-03 01:00:08 | 50.80311 | 8.70610 | 125° | 100km/h | 8022m | -6.3m/s | -29.2°C | 81% | 370.4hPa | 2.5V | 08:02:56 | 02:42:36 | 00:00:00 | |
| DB0NH | 2026-09-03 01:00:08 | 50.80310 | 8.70610 | 126° | 113km/h | 8022m | -6.2m/s | -29.2°C | 82.5% | 370.4hPa | 2.5V | 00:00:00 | 02:42:36 | 00:00:00 | |
| DB0ND-19 | 2026-09-03 01:00:07 | 50.80340 | 8.70543 | 124° | 102km/h | 8034m | -6.3m/s | -29.3°C | 75.8% | 369.8hPa | 2.5V | 00:00:00 | 00:00:00 | 00:00:00 | |
| DL1NUX | 2026-09-03 01:00:05 | 50.80415 | 8.70375 | 125° | 106km/h | 8064m | -6.5m/s | -29.3°C | 59.5% | 368.2hPa | 2.5V | 08:02:48 | 02:42:29 | 00:00:00 | |
| BIOWL1-15 | 2026-09-03 01:00:03 | 50.80399 | 8.70409 | 125° | 104km/h | 8058m | -6.1m/s | -29.3°C | 64.7% | 368.6hPa | 2.5V | 08:02:56 | 02:42:30 | 00:00:00 | |
| DM0DOS-11 | 2026-09-03 01:00:01 | 50.80462 | 8.70272 | 125° | 108km/h | 8083m | -6.4m/s | -29.3°C | 50.2% | 367.2hPa | 2.5V | 08:02:51 | 02:42:26 | 00:00:00 | |
| DL1XH-west | 2026-09-03 00:59:58 | 50.80461 | 8.70272 | 126° | 108km/h | 8083m | -6.4m/s | -29.3°C | 52% | 367.2hPa | 2.5V | 08:02:56 | 02:42:26 | 00:00:00 | |
| HSKMA3-T | 2026-09-03 00:59:57 | 50.80477 | 8.70237 | 126° | 106km/h | 8089m | -6.6m/s | -29.3°C | 48.4% | 366.9hPa | 2.5V | 08:02:56 | 02:42:25 | 00:00:00 | |
| DL4BBY-15 | 2026-09-03 00:59:57 | 50.80477 | 8.70237 | 127° | 111km/h | 8089m | -6.6m/s | -28.2°C | 0% | 0hPa | 2.5V | 00:00:00 | 00:00:00 | 00:00:00 | |
| DO3DL | 2026-09-03 00:59:55 | 50.80493 | 8.70203 | 128° | 106km/h | 8096m | -6.7m/s | -29.3°C | 39.3% | 366.6hPa | 2.5V | 08:02:00 | 00:00:00 | 00:00:00 | |
| BIOWL1-15 | 2026-09-03 00:59:52 | 50.81055 | 8.69094 | 129° | 113km/h | 8302m | -6.9m/s | -30°C | 13.8% | 356hPa | 2.5V | 08:03:47 | 02:41:52 | 00:00:00 | |
| DM0DOS-11 | 2026-09-03 00:59:51 | 50.80626 | 8.69927 | 127° | 110km/h | 8147m | -6.3m/s | -29.4°C | 25.4% | 364hPa | 2.5V | 08:03:01 | 02:42:16 | 00:00:00 | |
| DL8DAS-14 | 2026-09-03 00:59:50 | 50.80626 | 8.69927 | 127° | 108km/h | 8147m | -6.4m/s | -29.4°C | 23.4% | 364.0hPa | 2.5V | 00:00:00 | 00:00:00 | 00:00:00 | |
| DL1XH-west | 2026-09-03 00:59:48 | 50.80713 | 8.69753 | 129° | 111km/h | 8179m | -6.5m/s | -29.5°C | 21.8% | 362.3hPa | 2.5V | 08:03:47 | 02:42:11 | 00:00:00 | |
| HSKMA3-T | 2026-09-03 00:59:46 | 50.80660 | 8.69857 | 128° | 111km/h | 8159m | -6.3m/s | -29.4°C | 25.5% | 363.3hPa | 2.5V | 08:03:47 | 02:42:14 | 00:00:00 | |
| DM0DOS-11 | 2026-09-03 00:59:46 | 50.80838 | 8.69508 | 128° | 113km/h | 8224m | -6.7m/s | -29.8°C | 16.4% | 360hPa | 2.5V | 08:03:13 | 02:42:04 | 00:00:00 | |
| DB0UT-7 | 2026-09-03 00:59:44 | 50.80695 | 8.69788 | 129° | 113km/h | 8172m | -6.4m/s | -29.5°C | 20.7% | 362.6hPa | 2.5V | 08:03:00 | 00:00:00 | 00:00:00 | |
| BIOWL1-15 | 2026-09-03 00:59:42 | 50.81130 | 8.68952 | 129° | 115km/h | 8329m | -6.6m/s | -30.1°C | 12.4% | 354.8hPa | 2.5V | 08:03:47 | 02:41:48 | 00:00:00 | |
| DL1XH-west | 2026-09-03 00:59:38 | 50.81000 | 8.69198 | 130° | 111km/h | 8283m | -6.9m/s | -30°C | 16.3% | 357.1hPa | 2.5V | 08:03:47 | 02:41:55 | 00:00:00 | |
| DJ2DS-15 | 2026-09-03 00:59:38 | 50.80801 | 8.69579 | 129° | 113km/h | 8211m | -6.7m/s | -29.6°C | 16.4% | 360.7hPa | 2.4V | 00:00:00 | 02:42:06 | 00:00:00 | |
| DL1NUX | 2026-09-03 00:59:37 | 50.80928 | 8.69336 | 129° | 111km/h | 8256m | -6.4m/s | -29.9°C | 15.4% | 358.4hPa | 2.4V | 08:03:18 | 02:41:59 | 00:00:00 | |
| HSKMA3-T | 2026-09-03 00:59:37 | 50.80856 | 8.69474 | 130° | 111km/h | 8230m | -6.4m/s | -29.8°C | 18.4% | 359.7hPa | 2.5V | 08:03:47 | 02:42:03 | 00:00:00 | |
| BIOWL1-15 | 2026-09-03 00:59:26 | 50.81148 | 8.68917 | 129° | 115km/h | 8336m | -6.9m/s | -30.1°C | 12.3% | 354.5hPa | 2.5V | 08:03:47 | 02:41:47 | 00:00:00 | |
| DL1NUX | 2026-09-03 00:59:26 | 50.81111 | 8.68988 | 129° | 117km/h | 8322m | -6.8m/s | -30°C | 11.2% | 355.1hPa | 2.5V | 08:03:28 | 02:41:49 | 00:00:00 | |
| HSKMA3-T | 2026-09-03 00:59:26 | 50.81037 | 8.69129 | 130° | 113km/h | 8296m | -6.4m/s | -30°C | 14.7% | 356.4hPa | 2.4V | 08:03:47 | 02:41:53 | 00:00:00 | |
| DL1XH-west | 2026-09-03 00:59:18 | 50.81166 | 8.68881 | 129° | 117km/h | 8342m | -6.8m/s | -30.1°C | 12.2% | 354.1hPa | 2.5V | 08:03:47 | 02:41:46 | 00:00:00 | |
| DD8BA-10 | 2026-09-03 00:59:18 | 50.81185 | 8.68844 | 129° | 117km/h | 8349m | -6.9m/s | -30.0°C | 10.9% | 353.7hPa | 2.5V | 00:00:00 | 00:00:00 | 00:00:00 | |
| DO2KSM | 2026-09-03 00:59:17 | 50.81185 | 8.68845 | 130° | 117km/h | 8349m | -7.0m/s | -30.0°C | 9.6% | 353.8hPa | 2.5V | 08:03:00 | 00:00:00 | 00:00:00 | |
| HARRO8 | 2026-09-03 00:59:16 | 50.81221 | 8.68771 | 127° | 115km/h | 8362m | -6.7m/s | -30.1°C | 9.8% | 353.1hPa | 2.5V | 00:00:00 | 00:00:00 | 00:00:00 | |
| DL1NUX | 2026-09-03 00:59:15 | 50.81294 | 8.68624 | 127° | 117km/h | 8389m | -6.4m/s | -30.2°C | 11.7% | 351.8hPa | 2.5V | 08:03:38 | 02:41:39 | 00:00:00 | |
| HSKMA3-T | 2026-09-03 00:59:14 | 50.81239 | 8.68735 | 129° | 117km/h | 8369m | -6.5m/s | -30.1°C | 12.7% | 352.8hPa | 2.5V | 08:03:47 | 02:41:42 | 00:00:00 | |
| BIOWL1-15 | 2026-09-03 00:59:10 | 50.81312 | 8.68587 | 128° | 117km/h | 8395m | -6.6m/s | -30.3°C | 13.6% | 351.6hPa | 2.5V | 08:03:47 | 02:41:38 | 00:00:00 | |
| DL1XH-west | 2026-09-03 00:59:06 | 50.81385 | 8.68437 | 127° | 117km/h | 8422m | -6.3m/s | -30.5°C | 14.6% | 350.2hPa | 2.5V | 08:03:47 | 02:41:34 | 00:00:00 | |
| HSKMA3-T | 2026-09-03 00:59:03 | 50.81440 | 8.68323 | 127° | 120km/h | 8441m | -6.7m/s | -30.6°C | 15% | 349.2hPa | 2.5V | 08:03:47 | 02:41:31 | 00:00:00 | |
| BIOWL1-15 | 2026-09-03 00:59:00 | 50.81495 | 8.68208 | 127° | 122km/h | 8461m | -7m/s | -30.8°C | 15.4% | 348.2hPa | 2.5V | 08:04:38 | 02:41:28 | 00:00:00 | |
| DM0DOS-11 | 2026-09-03 00:58:59 | 50.81569 | 8.68051 | 126° | 122km/h | 8488m | -7.1m/s | -30.9°C | 13.6% | 346.9hPa | 2.5V | 08:03:53 | 02:41:24 | 00:00:00 | |
| DL1XH-west | 2026-09-03 00:58:56 | 50.81569 | 8.68051 | 127° | 122km/h | 8488m | -7.1m/s | -30.9°C | 15.6% | 346.9hPa | 2.5V | 08:04:38 | 02:41:24 | 00:00:00 | |
| DL1NUX | 2026-09-03 00:58:55 | 50.81659 | 8.67854 | 125° | 120km/h | 8522m | -7.1m/s | -31.2°C | 13.7% | 345.3hPa | 2.5V | 08:03:58 | 02:41:19 | 00:00:00 | |
| HSKMA3-T | 2026-09-03 00:58:53 | 50.81623 | 8.67932 | 126° | 120km/h | 8508m | -6.6m/s | -31.1°C | 15.7% | 345.9hPa | 2.5V | 08:04:38 | 02:41:21 | 00:00:00 | |
| NBG1-10 | 2026-09-03 00:58:53 | 50.81623 | 8.67932 | 126° | 120km/h | 8508m | -6.6m/s | -31.1°C | 13.6% | 345.9hPa | 2.4V | 00:00:00 | 02:41:21 | 00:00:00 | |
| DL1XH1-15 | 2026-09-03 00:58:52 | 50.81731 | 8.67698 | 125° | 122km/h | 8548m | -6.8m/s | -31.4°C | 14% | 344hPa | 2.4V | 08:04:02 | 02:41:15 | 00:00:00 | |
| BIOWL1-15 | 2026-09-03 00:58:52 | 50.81677 | 8.67815 | 126° | 120km/h | 8528m | -6.8m/s | -31.3°C | 15.7% | 344.9hPa | 2.5V | 08:04:38 | 02:41:18 | 00:00:00 | |
| DM0DOS-11 | 2026-09-03 00:58:49 | 50.81749 | 8.67658 | 125° | 122km/h | 8555m | -7.1m/s | -31.4°C | 14.1% | 343.7hPa | 2.4V | 08:04:03 | 02:41:14 | 00:00:00 | |
| DL1XH-west | 2026-09-03 00:58:45 | 50.81767 | 8.67619 | 126° | 120km/h | 8562m | -6.5m/s | -31.5°C | 16.4% | 343.3hPa | 2.5V | 08:04:38 | 02:41:13 | 00:00:00 | |
| DL1NUX | 2026-09-03 00:58:45 | 50.81840 | 8.67461 | 126° | 122km/h | 8590m | -6.9m/s | -31.7°C | 14.9% | 341.9hPa | 2.5V | 08:04:08 | 02:41:09 | 00:00:00 | |
| HARRO8 | 2026-09-03 00:58:44 | 50.81785 | 8.67579 | 126° | 120km/h | 8569m | -7.0m/s | -31.6°C | 12.8% | 343.0hPa | 2.5V | 00:00:00 | 00:00:00 | 00:00:00 | |
| HSKMA3-T | 2026-09-03 00:58:42 | 50.81822 | 8.67500 | 126° | 122km/h | 8583m | -7.1m/s | -31.6°C | 17% | 342.3hPa | 2.5V | 08:04:38 | 02:41:10 | 00:00:00 | |
| DO9LL-15 | 2026-09-03 00:58:42 | 50.81821 | 8.67500 | 126° | 120km/h | 8583m | -7.1m/s | -31.6°C | 14.7% | 342.2hPa | 2.5V | 08:04:00 | 02:41:10 | 00:00:00 | |
| DB0DAN | 2026-09-03 00:58:40 | 50.81858 | 8.67422 | 126° | 117km/h | 8596m | -7.1m/s | -31.8°C | 0% | 0hPa | 2.4V | 00:00:00 | 00:00:00 | 00:00:00 | |
| BIOWL1-15 | 2026-09-03 00:58:40 | 50.81912 | 8.67304 | 127° | 120km/h | 8617m | -7m/s | -31.9°C | 17.6% | 340.7hPa | 2.5V | 08:04:38 | 02:41:05 | 00:00:00 | |
| DJ8HS-15 | 2026-09-03 00:58:39 | 50.81876 | 8.67382 | 126° | 120km/h | 8604m | -7.1m/s | -31.8°C | 15.1% | 341.3hPa | 2.4V | 08:04:00 | 02:41:07 | 00:00:00 | |
| DJ2DS-15 | 2026-09-03 00:58:38 | 50.81894 | 8.67343 | 126° | 120km/h | 8611m | -7.0m/s | -31.8°C | 15.2% | 340.9hPa | 2.5V | 00:00:00 | 02:41:06 | 00:00:00 | |
| DM0DOS-11 | 2026-09-03 00:58:37 | 50.81931 | 8.67266 | 126° | 122km/h | 8624m | -7m/s | -32°C | 15.5% | 340.3hPa | 2.5V | 08:04:13 | 02:41:04 | 00:00:00 | |
| DL1NUX | 2026-09-03 00:58:35 | 50.82021 | 8.67071 | 125° | 120km/h | 8659m | -6.7m/s | -32.2°C | 17.8% | 338.7hPa | 2.5V | 08:04:18 | 02:40:59 | 00:00:00 | |
| DL1XH-west | 2026-09-03 00:58:34 | 50.81966 | 8.67187 | 126° | 120km/h | 8638m | -6.9m/s | -32.1°C | 18.9% | 339.7hPa | 2.5V | 08:04:38 | 02:41:02 | 00:00:00 | |
| HSKMA3-T | 2026-09-03 00:58:32 | 50.82003 | 8.67110 | 127° | 120km/h | 8652m | -6.9m/s | -32.2°C | 20% | 339hPa | 2.4V | 08:04:38 | 02:41:00 | 00:00:00 | |
| BIOWL1-15 | 2026-09-03 00:58:29 | 50.82111 | 8.66877 | 126° | 120km/h | 8692m | -6.7m/s | -32.5°C | 27.3% | 337hPa | 2.5V | 08:04:38 | 02:40:54 | 00:00:00 | |
| DL1XH1-15 | 2026-09-03 00:58:29 | 50.82111 | 8.66877 | 126° | 120km/h | 8692m | -6.7m/s | -32.5°C | 23.9% | 337hPa | 2.5V | 08:04:23 | 02:40:54 | 00:00:00 | |
| DL3AQ-11 | 2026-09-03 00:58:29 | 50.82074 | 8.66956 | 126° | 120km/h | 8679m | -6.5m/s | -32.4°C | 19.8% | 337.7hPa | 2.4V | 00:00:00 | 00:00:00 | 00:00:00 | |
| DL8OAI-8 | 2026-09-03 00:58:28 | 50.82074 | 8.66956 | 128° | 120km/h | 8679m | -6.5m/s | -32.4°C | 19.8% | 337.7hPa | 2.4V | 08:04:00 | 00:00:00 | 00:00:00 | |
| DL4BBY-15 | 2026-09-03 00:58:27 | 50.82093 | 8.66917 | 127° | 120km/h | 8685m | -6.7m/s | -31.3°C | 0% | 0hPa | 2.4V | 00:00:00 | 00:00:00 | 00:00:00 | |
| DB0DAN | 2026-09-03 00:58:25 | 50.82129 | 8.66839 | 127° | 115km/h | 8699m | -7.3m/s | -32.6°C | 0% | 0hPa | 2.4V | 00:00:00 | 00:00:00 | 00:00:00 | |
| DL1XH-west | 2026-09-03 00:58:23 | 50.82165 | 8.66760 | 126° | 122km/h | 8713m | -6.8m/s | -32.7°C | 29.4% | 336.1hPa | 2.5V | 08:04:38 | 02:40:51 | 00:00:00 | |
| HSKMA3-T | 2026-09-03 00:58:22 | 50.82184 | 8.66722 | 127° | 120km/h | 8720m | -6.7m/s | -32.8°C | 30.1% | 335.7hPa | 2.5V | 08:04:38 | 02:40:50 | 00:00:00 | |
| BIOWL1-15 | 2026-09-03 00:58:18 | 50.82331 | 8.66415 | 128° | 119km/h | 8775m | -6.8m/s | -33.3°C | 37.4% | 333.1hPa | 2.5V | 08:04:38 | 02:40:42 | 00:00:00 | |
| DL3AQ-11 | 2026-09-03 00:58:18 | 50.82276 | 8.66529 | 127° | 120km/h | 8754m | -7.1m/s | -33.1°C | 27.6% | 334.1hPa | 2.4V | 00:00:00 | 00:00:00 | 00:00:00 | |
| DL8DAS-14 | 2026-09-03 00:58:17 | 50.82276 | 8.66529 | 127° | 120km/h | 8754m | -7.1m/s | -33.1°C | 27.6% | 334.1hPa | 2.4V | 00:00:00 | 00:00:00 | 00:00:00 | |
| DL1NUX | 2026-09-03 00:58:15 | 50.82386 | 8.66300 | 127° | 120km/h | 8795m | -7.3m/s | -33.5°C | 34.3% | 332.1hPa | 2.4V | 08:04:38 | 02:40:39 | 00:00:00 | |
| DL1XH-west | 2026-09-03 00:58:12 | 50.82368 | 8.66339 | 127° | 120km/h | 8788m | -7.1m/s | -33.4°C | 37.9% | 332.5hPa | 2.4V | 08:04:38 | 02:40:40 | 00:00:00 | |
| HSKMA3-T | 2026-09-03 00:58:11 | 50.82386 | 8.66300 | 128° | 120km/h | 8795m | -7.3m/s | -33.5°C | 37.8% | 332.1hPa | 2.4V | 08:04:38 | 02:40:39 | 00:00:00 | |
| BIOWL1-15 | 2026-09-03 00:58:05 | 50.82498 | 8.66068 | 127° | 120km/h | 8836m | -7.1m/s | -33.8°C | 36.5% | 330.3hPa | 2.4V | 08:05:29 | 02:40:33 | 00:00:00 | |
| DL1NUX | 2026-09-03 00:58:05 | 50.82570 | 8.65917 | 127° | 119km/h | 8863m | -6.8m/s | -34.1°C | 31.9% | 328.9hPa | 2.5V | 08:04:48 | 02:40:29 | 00:00:00 | |
| DL1XH-west | 2026-09-03 00:58:02 | 50.82551 | 8.65954 | 128° | 117km/h | 8856m | -6.5m/s | -34°C | 35.8% | 329.2hPa | 2.5V | 08:05:29 | 02:40:30 | 00:00:00 | |
| HSKMA3-T | 2026-09-03 00:58:00 | 50.82588 | 8.65880 | 127° | 117km/h | 8870m | -7.1m/s | -34.1°C | 35.6% | 328.6hPa | 2.4V | 08:05:29 | 02:40:28 | 00:00:00 | |
| DD1CC8 | 2026-09-03 00:57:59 | 50.82605 | 8.65842 | 126° | 115km/h | 8877m | -7.1m/s | -34.2°C | 29.4% | 328.3hPa | 2.5V | 00:00:00 | 00:00:00 | 00:00:00 | |
| DF7PN | 2026-09-03 00:57:56 | 50.82658 | 8.65730 | 126° | 115km/h | 8898m | -7.0m/s | -34.4°C | 29.7% | 327.4hPa | 2.5V | 00:00:00 | 00:00:00 | 00:00:00 | |
| DL1NUX | 2026-09-03 00:57:55 | 50.82745 | 8.65544 | 126° | 115km/h | 8932m | -6.8m/s | -34.7°C | 33.6% | 325.7hPa | 2.5V | 08:04:58 | 02:40:19 | 00:00:00 | |
| BIOWL1-15 | 2026-09-03 00:57:54 | 50.82692 | 8.65656 | 127° | 117km/h | 8911m | -6.9m/s | -34.5°C | 36.8% | 326.6hPa | 2.4V | 08:05:29 | 02:40:22 | 00:00:00 | |
| DL1XH-west | 2026-09-03 00:57:51 | 50.82745 | 8.65544 | 127° | 115km/h | 8932m | -6.8m/s | -34.7°C | 37.3% | 325.7hPa | 2.5V | 08:05:29 | 02:40:19 | 00:00:00 | |
| HSKMA3-T | 2026-09-03 00:57:50 | 50.82762 | 8.65507 | 127° | 115km/h | 8939m | -7.2m/s | -34.7°C | 37.5% | 325.4hPa | 2.5V | 08:05:29 | 02:40:18 | 00:00:00 | |
| DL3AQ-11 | 2026-09-03 00:57:48 | 50.82797 | 8.65433 | 126° | 113km/h | 8953m | -6.8m/s | -34.8°C | 31.0% | 324.7hPa | 2.5V | 00:00:00 | 00:00:00 | 00:00:00 | |
| DL1XH1-15 | 2026-09-03 00:57:47 | 50.82832 | 8.65361 | 127° | 115km/h | 8967m | -6.8m/s | -34.9°C | 34.6% | 324.1hPa | 2.5V | 08:05:03 | 02:40:14 | 00:00:00 | |
| DL8DAS-14 | 2026-09-03 00:57:46 | 50.82832 | 8.65361 | 127° | 113km/h | 8967m | -6.8m/s | -34.9°C | 31.5% | 324.1hPa | 2.5V | 00:00:00 | 00:00:00 | 00:00:00 | |
| DL1NUX | 2026-09-03 00:57:45 | 50.82920 | 8.65179 | 125° | 117km/h | 9001m | -6.8m/s | -35.3°C | 35.9% | 322.5hPa | 2.5V | 08:05:08 | 02:40:09 | 00:00:00 | |
| BIOWL1-15 | 2026-09-03 00:57:44 | 50.82921 | 8.65179 | 126° | 117km/h | 9001m | -6.8m/s | -35.3°C | 39.4% | 322.5hPa | 2.5V | 08:05:29 | 02:40:09 | 00:00:00 | |
| DL1XH-west | 2026-09-03 00:57:41 | 50.82938 | 8.65141 | 125° | 115km/h | 9007m | -7m/s | -35.3°C | 39.7% | 322.2hPa | 2.5V | 08:05:29 | 02:40:08 | 00:00:00 | |
| HSKMA3-T | 2026-09-03 00:57:39 | 50.82955 | 8.65103 | 126° | 117km/h | 9014m | -6.9m/s | -35.4°C | 39.9% | 321.8hPa | 2.5V | 08:05:29 | 02:40:07 | 00:00:00 | |
| DJ8HS-15 | 2026-09-03 00:57:39 | 50.82955 | 8.65103 | 126° | 115km/h | 9014m | -6.9m/s | -35.4°C | 36.5% | 321.7hPa | 2.5V | 00:00:00 | 02:40:07 | 00:00:00 | |
| DJ2DS-15 | 2026-09-03 00:57:38 | 50.82972 | 8.65065 | 126° | 115km/h | 9021m | -7.2m/s | -35.4°C | 36.7% | 321.5hPa | 2.4V | 00:00:00 | 02:40:06 | 00:00:00 | |
| DM0DOS-11 | 2026-09-03 00:57:37 | 50.83005 | 8.64988 | 124° | 113km/h | 9035m | -6.8m/s | -35.6°C | 37.4% | 320.9hPa | 2.4V | 08:05:13 | 02:40:04 | 00:00:00 | |
| DD8BA-10 | 2026-09-03 00:57:37 | 50.82988 | 8.65026 | 124° | 115km/h | 9028m | -6.7m/s | -35.5°C | 36.9% | 321.2hPa | 2.4V | 00:00:00 | 00:00:00 | 00:00:00 | |
| DL1NUX | 2026-09-03 00:57:35 | 50.83091 | 8.64804 | 126° | 115km/h | 9068m | -7.7m/s | -35.9°C | 37.9% | 319.2hPa | 2.4V | 08:05:18 | 02:39:59 | 00:00:00 | |
| BIOWL1-15 | 2026-09-03 00:57:34 | 50.83074 | 8.64841 | 126° | 115km/h | 9061m | -7.4m/s | -35.9°C | 40.8% | 319.6hPa | 2.5V | 08:05:29 | 02:40:00 | 00:00:00 | |
| DO2KSM | 2026-09-03 00:57:33 | 50.83039 | 8.64914 | 128° | 115km/h | 9047m | -5.7m/s | -35.7°C | 34.3% | 320.3hPa | 2.4V | 08:05:00 | 00:00:00 | 00:00:00 | |
| DB0ND-19 | 2026-09-03 00:57:32 | 50.83091 | 8.64804 | 126° | 115km/h | 9068m | -7.7m/s | -35.9°C | 34.5% | 319.3hPa | 2.4V | 00:00:00 | 00:00:00 | 00:00:00 | |
| DL1XH1-15 | 2026-09-03 00:57:31 | 50.83195 | 8.64584 | 126° | 115km/h | 9114m | -8.1m/s | -36.4°C | 38.6% | 317.2hPa | 2.4V | 08:05:24 | 02:39:53 | 00:00:00 | |
| DL1XH-west | 2026-09-03 00:57:29 | 50.83126 | 8.64731 | 126° | 115km/h | 9084m | -7.9m/s | -36.1°C | 41.3% | 318.6hPa | 2.4V | 08:05:29 | 02:39:57 | 00:00:00 | |
| HSKMA3-T | 2026-09-03 00:57:28 | 50.83143 | 8.64694 | 126° | 117km/h | 9091m | -7.3m/s | -36.2°C | 41.4% | 318.3hPa | 2.5V | 08:05:29 | 02:39:56 | 00:00:00 | |
| BIOWL1-15 | 2026-09-03 00:57:22 | 50.83247 | 8.64473 | 127° | 113km/h | 9136m | -7.2m/s | -36.6°C | 42.6% | 316.2hPa | 2.5V | 08:05:29 | 02:39:50 | 00:00:00 | |
| DL3AQ-11 | 2026-09-03 00:57:22 | 50.83264 | 8.64436 | 125° | 113km/h | 9143m | -7.9m/s | -36.7°C | 36.3% | 315.9hPa | 2.4V | 00:00:00 | 00:00:00 | 00:00:00 | |
| DM0DOS-11 | 2026-09-03 00:57:21 | 50.83350 | 8.64251 | 127° | 115km/h | 9182m | -7.6m/s | -37°C | 40.9% | 314hPa | 2.4V | 08:05:33 | 02:39:44 | 00:00:00 | |
| DL1NUX | 2026-09-03 00:57:21 | 50.83264 | 8.64436 | 125° | 113km/h | 9143m | -7.9m/s | -36.7°C | 39.8% | 315.9hPa | 2.4V | 08:05:28 | 02:39:49 | 00:00:00 | |
| DL1XH1-15 | 2026-09-03 00:57:20 | 50.83367 | 8.64215 | 126° | 115km/h | 9190m | -8m/s | -37.1°C | 40.9% | 313.7hPa | 2.4V | 08:05:34 | 02:39:43 | 00:00:00 | |
| DL1XH-west | 2026-09-03 00:57:19 | 50.83298 | 8.64362 | 127° | 115km/h | 9159m | -8m/s | -36.8°C | 43.4% | 315.1hPa | 2.5V | 08:06:20 | 02:39:47 | 00:00:00 | |
| HSKMA3-T | 2026-09-03 00:57:18 | 50.83315 | 8.64325 | 126° | 113km/h | 9167m | -8.2m/s | -36.9°C | 43.6% | 314.8hPa | 2.5V | 08:06:20 | 02:39:46 | 00:00:00 | |
| BIOWL1-15 | 2026-09-03 00:57:11 | 50.83436 | 8.64066 | 127° | 117km/h | 9219m | -7.4m/s | -37.4°C | 43.8% | 312.4hPa | 2.4V | 08:06:20 | 02:39:39 | 00:00:00 | |
| DL1NUX | 2026-09-03 00:57:11 | 50.83436 | 8.64066 | 126° | 117km/h | 9219m | -7.4m/s | -37.4°C | 41.1% | 312.4hPa | 2.4V | 08:05:38 | 02:39:39 | 00:00:00 | |
| DM0DOS-11 | 2026-09-03 00:57:10 | 50.83524 | 8.63877 | 126° | 117km/h | 9258m | -8.1m/s | -37.7°C | 40.9% | 310.7hPa | 2.4V | 08:05:43 | 02:39:34 | 00:00:00 | |
| DL1XH1-15 | 2026-09-03 00:57:10 | 50.83542 | 8.63839 | 126° | 119km/h | 9266m | -7.5m/s | -37.8°C | 41.3% | 310.4hPa | 2.4V | 08:05:44 | 02:39:33 | 00:00:00 | |
| HSKMA3-T | 2026-09-03 00:57:08 | 50.83488 | 8.63953 | 126° | 117km/h | 9242m | -8.3m/s | -37.6°C | 43.3% | 311.4hPa | 2.5V | 08:06:20 | 02:39:36 | 00:00:00 | |
| DD8BA-10 | 2026-09-03 00:57:06 | 50.83524 | 8.63877 | 127° | 120km/h | 9258m | -8.0m/s | -37.7°C | 40.9% | 310.6hPa | 2.4V | 00:00:00 | 00:00:00 | 00:00:00 | |
| DL1NUX | 2026-09-03 00:57:05 | 50.83615 | 8.63687 | 127° | 120km/h | 9295m | -7.8m/s | -38.1°C | 44.8% | 309hPa | 2.4V | 08:05:48 | 02:39:29 | 00:00:00 | |
| BIOWL1-15 | 2026-09-03 00:57:03 | 50.83671 | 8.63573 | 128° | 122km/h | 9318m | -7.8m/s | -38.3°C | 52.4% | 308hPa | 2.5V | 08:06:20 | 02:39:26 | 00:00:00 | |
| DB0ND-19 | 2026-09-03 00:57:01 | 50.83634 | 8.63649 | 127° | 119km/h | 9302m | -7.6m/s | -38.1°C | 42.2% | 308.6hPa | 2.4V | 00:00:00 | 00:00:00 | 00:00:00 | |
| DM0DOS-11 | 2026-09-03 00:57:00 | 50.83709 | 8.63497 | 128° | 122km/h | 9333m | -7.6m/s | -38.4°C | 56.3% | 307.3hPa | 2.4V | 08:05:53 | 02:39:24 | 00:00:00 | |
| DL1XH1-15 | 2026-09-03 00:57:00 | 50.83747 | 8.63420 | 127° | 122km/h | 9349m | -8.3m/s | -38.5°C | 61.4% | 306.6hPa | 2.4V | 08:05:55 | 02:39:22 | 00:00:00 | |
| HSKMA3-T | 2026-09-03 00:56:57 | 50.83690 | 8.63535 | 128° | 120km/h | 9325m | -8.1m/s | -38.3°C | 55% | 307.6hPa | 2.5V | 08:06:20 | 02:39:25 | 00:00:00 | |
| DF7PN | 2026-09-03 00:56:55 | 50.83747 | 8.63420 | 127° | 120km/h | 9349m | -8.3m/s | -38.5°C | 56.5% | 306.6hPa | 2.5V | 00:00:00 | 00:00:00 | 00:00:00 | |
| DB0NH | 2026-09-03 00:56:53 | 50.83766 | 8.63381 | 128° | 120km/h | 9357m | -7.9m/s | -38.5°C | 64.7% | 306.3hPa | 2.5V | 08:05:00 | 02:39:21 | 00:00:00 | |
| SO1NDE-10 | 2026-09-03 00:56:52 | 50.83785 | 8.63342 | 128° | 120km/h | 9364m | -7.3m/s | -38.6°C | 68.0% | 305.9hPa | 2.5V | 00:00:00 | 02:39:20 | 00:00:00 | |
| DO3DL | 2026-09-03 00:56:51 | 50.83785 | 8.63342 | 128° | 122km/h | 9364m | -7.4m/s | -38.6°C | 62.7% | 305.9hPa | 2.4V | 08:06:00 | 00:00:00 | 00:00:00 | |
| DM0DOS-11 | 2026-09-03 00:56:50 | 50.83897 | 8.63113 | 127° | 120km/h | 9409m | -8.6m/s | -38.9°C | 76.5% | 303.9hPa | 2.4V | 08:06:03 | 02:39:14 | 00:00:00 | |
| DL1XH1-15 | 2026-09-03 00:56:49 | 50.83935 | 8.63037 | 128° | 120km/h | 9426m | -7.7m/s | -39°C | 76.2% | 303.2hPa | 2.4V | 08:06:05 | 02:39:12 | 00:00:00 | |
| BIOWL1-15 | 2026-09-03 00:56:48 | 50.84104 | 8.62697 | 128° | 119km/h | 9494m | -8.2m/s | -39.4°C | 73.7% | 300.2hPa | 2.4V | 08:06:20 | 02:39:03 | 00:00:00 | |
| HSKMA3-T | 2026-09-03 00:56:47 | 50.83879 | 8.63150 | 128° | 120km/h | 9401m | -8m/s | -38.8°C | 76.5% | 304.3hPa | 2.5V | 08:06:20 | 02:39:15 | 00:00:00 | |
| DL1XH-west | 2026-09-03 00:56:46 | 50.83897 | 8.63113 | 128° | 120km/h | 9409m | -8.6m/s | -38.9°C | 76.6% | 303.9hPa | 2.4V | 08:06:20 | 02:39:14 | 00:00:00 | |
| DD8BA-10 | 2026-09-03 00:56:46 | 50.83897 | 8.63112 | 128° | 131km/h | 9409m | -8.5m/s | -38.8°C | 76.5% | 303.8hPa | 2.4V | 00:00:00 | 00:00:00 | 00:00:00 | |
| DL1NUX | 2026-09-03 00:56:45 | 50.83992 | 8.62923 | 128° | 120km/h | 9449m | -7.7m/s | -39.1°C | 75.2% | 302.2hPa | 2.4V | 08:06:08 | 02:39:09 | 00:00:00 | |
| DB0UT-7 | 2026-09-03 00:56:44 | 50.83935 | 8.63037 | 129° | 120km/h | 9426m | -7.7m/s | -39.0°C | 76.2% | 303.2hPa | 2.4V | 00:00:00 | 00:00:00 | 00:00:00 | |
| AU51GT2 | 2026-09-03 00:56:42 | 50.83992 | 8.62923 | 128° | 119km/h | 9449m | -7.7m/s | -39.1°C | 69.5% | 302.2hPa | 2.4V | 00:00:00 | 00:00:00 | 00:00:00 | |
| BUE01 | 2026-09-03 00:56:40 | 50.84029 | 8.62848 | 128° | 119km/h | 9463m | -7.9m/s | -39.2°C | 69.4% | 301.5hPa | 2.4V | 00:00:00 | 00:00:00 | 00:00:00 | |
| DL1XH1-15 | 2026-09-03 00:56:39 | 50.84123 | 8.62660 | 128° | 120km/h | 9502m | -7.9m/s | -39.4°C | 72.8% | 299.8hPa | 2.4V | 08:06:15 | 02:39:02 | 00:00:00 | |
| DJ8HS-15 | 2026-09-03 00:56:39 | 50.84029 | 8.62848 | 129° | 120km/h | 9464m | -7.8m/s | -39.2°C | 75.1% | 301.4hPa | 2.5V | 00:00:00 | 02:39:07 | 00:00:00 | |
| DM0DOS-11 | 2026-09-03 00:56:38 | 50.84086 | 8.62735 | 128° | 119km/h | 9486m | -7.9m/s | -39.4°C | 74.2% | 300.5hPa | 2.4V | 08:06:13 | 02:39:04 | 00:00:00 | |
| BIOWL1-15 | 2026-09-03 00:56:37 | 50.84142 | 8.62622 | 128° | 119km/h | 9510m | -8m/s | -39.5°C | 72.9% | 299.6hPa | 2.5V | 08:06:20 | 02:39:01 | 00:00:00 | |
| HSKMA3-T | 2026-09-03 00:56:37 | 50.84067 | 8.62772 | 128° | 120km/h | 9479m | -7.3m/s | -39.3°C | 74.6% | 300.8hPa | 2.5V | 08:06:20 | 02:39:05 | 00:00:00 | |
| DL1XH-west | 2026-09-03 00:56:36 | 50.84086 | 8.62735 | 129° | 119km/h | 9487m | -7.9m/s | -39.4°C | 74.2% | 300.5hPa | 2.4V | 08:06:20 | 02:39:04 | 00:00:00 | |
| DL1NUX | 2026-09-03 00:56:36 | 50.84179 | 8.62547 | 128° | 120km/h | 9526m | -7.5m/s | -39.6°C | 72.6% | 298.8hPa | 2.4V | 08:06:18 | 02:38:59 | 00:00:00 | |
| DO2KSM | 2026-09-03 00:56:32 | 50.84142 | 8.62622 | 129° | 119km/h | 9510m | -8.0m/s | -39.5°C | 67.0% | 299.6hPa | 2.5V | 08:06:00 | 00:00:00 | 00:00:00 | |
| DO3DL | 2026-09-03 00:56:31 | 50.84160 | 8.62585 | 129° | 120km/h | 9518m | -7.5m/s | -39.5°C | 66.8% | 299.1hPa | 2.5V | 08:06:00 | 00:00:00 | 00:00:00 | |
| DB0ND-19 | 2026-09-03 00:56:30 | 50.84217 | 8.62472 | 129° | 119km/h | 9540m | -7.7m/s | -39.7°C | 67.4% | 298.2hPa | 2.5V | 00:00:00 | 00:00:00 | 00:00:00 | |
| DL1XH1-15 | 2026-09-03 00:56:29 | 50.84313 | 8.62284 | 128° | 120km/h | 9578m | -8m/s | -40°C | 73.9% | 296.5hPa | 2.5V | 08:06:25 | 02:38:52 | 00:00:00 | |
| DL3AQ-11 | 2026-09-03 00:56:29 | 50.84236 | 8.62434 | 128° | 119km/h | 9548m | -7.8m/s | -39.8°C | 0% | 297.9hPa | 2.4V | 00:00:00 | 00:00:00 | 00:00:00 | |
| DM0DOS-11 | 2026-09-03 00:56:28 | 50.84274 | 8.62359 | 129° | 120km/h | 9563m | -7.8m/s | -39.9°C | 73.9% | 297.1hPa | 2.4V | 08:06:23 | 02:38:54 | 00:00:00 | |
| DL1XH-west | 2026-09-03 00:56:26 | 50.84274 | 8.62359 | 129° | 120km/h | 9563m | -7.8m/s | -39.9°C | 73.8% | 297.1hPa | 2.4V | 08:07:11 | 02:38:54 | 00:00:00 | |
| DO2JMG | 2026-09-03 00:56:19 | 50.84409 | 8.62094 | 128° | 122km/h | 9617m | -8m/s | 0°C | 0% | 0hPa | 2.5V | 18:12:15 | 02:38:47 | 00:00:00 | |
| DL1XH1-15 | 2026-09-03 00:56:19 | 50.84504 | 8.61900 | 127° | 124km/h | 9656m | -8.3m/s | -40.7°C | 73.7% | 293.2hPa | 2.5V | 08:06:35 | 02:38:42 | 00:00:00 | |
| DJ8HS-15 | 2026-09-03 00:56:19 | 50.84409 | 8.62094 | 129° | 126km/h | 9617m | -7.9m/s | -40.3°C | 74.3% | 294.8hPa | 2.4V | 00:00:00 | 02:38:47 | 00:00:00 | |
| DM0DOS-11 | 2026-09-03 00:56:18 | 50.84466 | 8.61978 | 127° | 122km/h | 9641m | -7.9m/s | -40.5°C | 74% | 293.8hPa | 2.4V | 08:06:33 | 02:38:44 | 00:00:00 | |
| DO1YAY-16 | 2026-09-03 00:56:17 | 50.84485 | 8.61939 | 127° | 120km/h | 9648m | -8.2m/s | -40.6°C | 68.0% | 293.5hPa | 2.4V | 00:00:00 | 00:00:00 | 00:00:00 | |
| DL1NUX | 2026-09-03 00:56:16 | 50.84561 | 8.61782 | 127° | 124km/h | 9680m | -8.1m/s | -40.8°C | 72.3% | 292.2hPa | 2.4V | 08:06:38 | 02:38:39 | 00:00:00 | |
| BIOWL1-15 | 2026-09-03 00:56:16 | 50.84466 | 8.61978 | 128° | 122km/h | 9641m | -7.9m/s | -40.5°C | 74.2% | 293.8hPa | 2.4V | 08:07:11 | 02:38:44 | 00:00:00 | |
| DD1CC3-15 | 2026-09-03 00:56:15 | 50.84466 | 8.61978 | 129° | 122km/h | 9641m | -7.9m/s | -40.5°C | 68.1% | 293.8hPa | 2.4V | 08:07:00 | 00:00:00 | 00:00:00 | |
| DB0UT-7 | 2026-09-03 00:56:14 | 50.84504 | 8.61900 | 128° | 130km/h | 9656m | -8.2m/s | -40.6°C | 73.7% | 293.2hPa | 2.4V | 00:00:00 | 02:38:42 | 00:00:00 | |
| DL8DAS-14 | 2026-09-03 00:56:13 | 50.84523 | 8.61861 | 127° | 122km/h | 9664m | -8.0m/s | -40.7°C | 67.5% | 292.8hPa | 2.4V | 00:00:00 | 00:00:00 | 00:00:00 | |
| DO9LL-15 | 2026-09-03 00:56:12 | 50.84542 | 8.61822 | 128° | 130km/h | 9672m | -8.1m/s | -40.7°C | 73.0% | 292.5hPa | 2.4V | 00:00:00 | 02:38:40 | 00:00:00 | |
| DO2KSM | 2026-09-03 00:56:11 | 50.84542 | 8.61822 | 129° | 124km/h | 9672m | -8.1m/s | -40.8°C | 67.1% | 292.5hPa | 2.4V | 08:07:00 | 00:00:00 | 00:00:00 | |
| DO3DL | 2026-09-03 00:56:10 | 50.84561 | 8.61782 | 128° | 124km/h | 9680m | -8.1m/s | -40.8°C | 66.5% | 292.2hPa | 2.4V | 08:07:00 | 00:00:00 | 00:00:00 | |
| DL1XH1-15 | 2026-09-03 00:56:09 | 50.84695 | 8.61501 | 126° | 128km/h | 9734m | -8m/s | -41.1°C | 70.4% | 289.8hPa | 2.4V | 08:06:45 | 02:38:32 | 00:00:00 | |
| DM0DOS-11 | 2026-09-03 00:56:08 | 50.84657 | 8.61583 | 127° | 126km/h | 9719m | -7.6m/s | -41°C | 70.7% | 290.5hPa | 2.4V | 08:06:43 | 02:38:34 | 00:00:00 | |
| DL1XH-west | 2026-09-03 00:56:06 | 50.84696 | 8.61501 | 127° | 128km/h | 9734m | -8m/s | -41.1°C | 71.3% | 289.9hPa | 2.4V | 08:07:11 | 02:38:32 | 00:00:00 | |
| DL1NUX | 2026-09-03 00:56:05 | 50.84753 | 8.61378 | 126° | 128km/h | 9757m | -7.7m/s | -41.3°C | 68.7% | 288.8hPa | 2.4V | 08:06:48 | 02:38:29 | 00:00:00 | |
| HSKMA3-T | 2026-09-03 00:56:05 | 50.84676 | 8.61542 | 126° | 128km/h | 9726m | -7.6m/s | -41°C | 71.4% | 290.2hPa | 2.4V | 08:07:11 | 02:38:33 | 00:00:00 | |
| DO3DL | 2026-09-03 00:56:03 | 50.84695 | 8.61501 | 128° | 128km/h | 9734m | -8.0m/s | -41.1°C | 64.6% | 289.8hPa | 2.4V | 08:07:00 | 00:00:00 | 00:00:00 | |
| DL3AQ-11 | 2026-09-03 00:56:01 | 50.84753 | 8.61378 | 126° | 126km/h | 9757m | -7.7m/s | -41.3°C | 63.0% | 288.9hPa | 2.4V | 00:00:00 | 00:00:00 | 00:00:00 | |
| DL1XH1-15 | 2026-09-03 00:55:59 | 50.84889 | 8.61085 | 125° | 131km/h | 9812m | -8.2m/s | -41.7°C | 64.7% | 286.5hPa | 2.4V | 08:06:55 | 02:38:22 | 00:00:00 | |
| DB0ND-19 | 2026-09-03 00:55:59 | 50.84811 | 8.61254 | 126° | 130km/h | 9780m | -8.0m/s | -41.5°C | 61.4% | 287.9hPa | 2.5V | 00:00:00 | 00:00:00 | 00:00:00 | |
| DM0DOS-11 | 2026-09-03 00:55:58 | 50.84850 | 8.61170 | 126° | 130km/h | 9796m | -8m/s | -41.6°C | 66.2% | 287.2hPa | 2.5V | 08:06:53 | 02:38:24 | 00:00:00 | |
| HSKMA3-T | 2026-09-03 00:55:54 | 50.84889 | 8.61085 | 126° | 131km/h | 9812m | -8.2m/s | -41.7°C | 66.3% | 286.5hPa | 2.4V | 08:07:11 | 02:38:22 | 00:00:00 | |
| DL1XH-west | 2026-09-03 00:55:53 | 50.84909 | 8.61043 | 126° | 131km/h | 9819m | -7.8m/s | -41.8°C | 65.8% | 286.2hPa | 2.4V | 08:07:11 | 02:38:21 | 00:00:00 | |
| DB0NH | 2026-09-03 00:55:53 | 50.84909 | 8.61043 | 127° | 135km/h | 9820m | -7.8m/s | -41.7°C | 64.1% | 286.2hPa | 2.4V | 00:00:00 | 02:38:21 | 00:00:00 | |
| DL1NUX | 2026-09-03 00:55:52 | 50.84948 | 8.60957 | 125° | 131km/h | 9835m | -8m/s | -41.9°C | 62.9% | 285.5hPa | 2.4V | 08:06:58 | 02:38:19 | 00:00:00 | |
| SO1NDE-10 | 2026-09-03 00:55:52 | 50.84928 | 8.61000 | 126° | 135km/h | 9827m | -7.9m/s | -41.8°C | 63.5% | 285.9hPa | 2.5V | 00:00:00 | 02:38:20 | 00:00:00 | |
| DO3DL | 2026-09-03 00:55:51 | 50.84948 | 8.60957 | 127° | 131km/h | 9835m | -8.0m/s | -41.9°C | 57.3% | 285.5hPa | 2.5V | 08:07:00 | 00:00:00 | 00:00:00 | |
| DL1XH1-15 | 2026-09-03 00:55:49 | 50.85084 | 8.60655 | 125° | 133km/h | 9889m | -8m/s | -42.3°C | 57.8% | 283.3hPa | 2.5V | 08:07:05 | 02:38:12 | 00:00:00 | |
| DL3AQ-11 | 2026-09-03 00:55:49 | 50.85006 | 8.60827 | 125° | 131km/h | 9858m | -7.9m/s | -42.1°C | 55.3% | 284.6hPa | 2.4V | 00:00:00 | 00:00:00 | 00:00:00 | |
| DM0DOS-11 | 2026-09-03 00:55:48 | 50.85045 | 8.60741 | 124° | 133km/h | 9874m | -8m/s | -42.1°C | 59.1% | 283.9hPa | 2.4V | 08:07:03 | 02:38:14 | 00:00:00 | |
| BIOWL1-15 | 2026-09-03 00:55:43 | 50.85181 | 8.60437 | 124° | 135km/h | 9928m | -7.7m/s | -42.6°C | 60.1% | 281.6hPa | 2.5V | 08:07:11 | 02:38:07 | 00:00:00 | |
| HSKMA3-T | 2026-09-03 00:55:43 | 50.85104 | 8.60612 | 125° | 131km/h | 9897m | -8.4m/s | -42.3°C | 59.5% | 282.9hPa | 2.4V | 08:07:11 | 02:38:11 | 00:00:00 | |
| DO9LL-15 | 2026-09-03 00:55:42 | 50.85123 | 8.60568 | 126° | 137km/h | 9905m | -7.8m/s | -42.3°C | 57.4% | 282.6hPa | 2.4V | 00:00:00 | 02:38:10 | 00:00:00 | |
| AU51GT2 | 2026-09-03 00:55:40 | 50.85181 | 8.60437 | 124° | 133km/h | 9928m | -7.7m/s | -42.6°C | 52.7% | 281.6hPa | 2.4V | 00:00:00 | 00:00:00 | 00:00:00 | |
| DL1XH1-15 | 2026-09-03 00:55:39 | 50.85279 | 8.60215 | 125° | 137km/h | 9968m | -7.6m/s | -42.9°C | 60.6% | 280.1hPa | 2.4V | 08:07:15 | 02:38:02 | 00:00:00 | |
| DJ8HS-15 | 2026-09-03 00:55:39 | 50.85181 | 8.60436 | 125° | 137km/h | 9928m | -7.6m/s | -42.5°C | 58.1% | 281.5hPa | 2.5V | 08:07:00 | 02:38:07 | 00:00:00 | |
| DM0DOS-11 | 2026-09-03 00:55:38 | 50.85239 | 8.60303 | 124° | 133km/h | 9952m | -8.2m/s | -42.8°C | 59.6% | 280.7hPa | 2.4V | 08:07:13 | 02:38:04 | 00:00:00 | |
| HSKMA3-T | 2026-09-03 00:55:33 | 50.85298 | 8.60171 | 125° | 135km/h | 9975m | -7.8m/s | -43°C | 63% | 279.8hPa | 2.4V | 08:08:02 | 02:38:01 | 00:00:00 | |
| DL1XH-west | 2026-09-03 00:55:33 | 50.85318 | 8.60126 | 125° | 135km/h | 9983m | -8m/s | -43.1°C | 63.5% | 279.4hPa | 2.5V | 08:08:02 | 02:38:00 | 00:00:00 | |
| BIOWL1-15 | 2026-09-03 00:55:31 | 50.85455 | 8.59812 | 124° | 139km/h | 10038m | -7.8m/s | -43.6°C | 66.9% | 277.1hPa | 2.4V | 08:08:02 | 02:37:53 | 00:00:00 | |
| DO2KSM | 2026-09-03 00:55:30 | 50.85337 | 8.60081 | 126° | 135km/h | 9991m | -7.9m/s | -43.1°C | 56.3% | 279.1hPa | 2.4V | 08:08:00 | 00:00:00 | 00:00:00 | |
| DL1XH1-15 | 2026-09-03 00:55:29 | 50.85474 | 8.59766 | 124° | 139km/h | 10045m | -7.6m/s | -43.6°C | 65.9% | 276.9hPa | 2.4V | 08:07:25 | 02:37:52 | 00:00:00 | |
| DM0DOS-11 | 2026-09-03 00:55:27 | 50.85435 | 8.59857 | 124° | 137km/h | 10030m | -8.1m/s | -43.5°C | 64.6% | 277.5hPa | 2.5V | 08:07:23 | 02:37:54 | 00:00:00 | |
| DL4BBY-15 | 2026-09-03 00:55:27 | 50.85415 | 8.59902 | 125° | 137km/h | 10022m | -7.8m/s | -42.4°C | 0% | 0hPa | 2.5V | 00:00:00 | 00:00:00 | 00:00:00 | |
| DO3DL | 2026-09-03 00:55:25 | 50.85455 | 8.59812 | 125° | 139km/h | 10038m | -7.8m/s | -43.6°C | 59.2% | 277.1hPa | 2.5V | 08:08:00 | 00:00:00 | 00:00:00 | |
| DL1NUX | 2026-09-03 00:55:24 | 50.85533 | 8.59630 | 124° | 139km/h | 10068m | -8m/s | -43.8°C | 66.7% | 275.9hPa | 2.5V | 08:07:28 | 02:37:49 | 00:00:00 | |
| HSKMA3-T | 2026-09-03 00:55:22 | 50.85514 | 8.59675 | 124° | 137km/h | 10061m | -7.6m/s | -43.8°C | 68.4% | 276.2hPa | 2.5V | 08:08:02 | 02:37:50 | 00:00:00 | |
| DL3AQ-11 | 2026-09-03 00:55:22 | 50.85533 | 8.59630 | 124° | 137km/h | 10069m | -8.0m/s | -43.8°C | 60.5% | 275.9hPa | 2.5V | 00:00:00 | 00:00:00 | 00:00:00 | |
| DF7PN | 2026-09-03 00:55:21 | 50.85553 | 8.59584 | 124° | 137km/h | 10076m | -7.7m/s | -43.9°C | 0% | 275.6hPa | 2.5V | 00:00:00 | 00:00:00 | 00:00:00 | |
| DL1XH1-15 | 2026-09-03 00:55:19 | 50.85669 | 8.59310 | 123° | 139km/h | 10123m | -8m/s | -44.3°C | 64.6% | 273.8hPa | 2.5V | 08:07:35 | 02:37:42 | 00:00:00 | |
| BIOWL1-15 | 2026-09-03 00:55:18 | 50.85650 | 8.59357 | 123° | 139km/h | 10115m | -7.7m/s | -44.3°C | 67.2% | 274.1hPa | 2.5V | 08:08:02 | 02:37:43 | 00:00:00 | |
| HSKMA3-T | 2026-09-03 00:55:12 | 50.85708 | 8.59219 | 124° | 137km/h | 10139m | -7.9m/s | -44.4°C | 64.4% | 273.1hPa | 2.4V | 08:08:02 | 02:37:40 | 00:00:00 | |
| DL1NUX | 2026-09-03 00:55:11 | 50.85728 | 8.59173 | 123° | 139km/h | 10146m | -7.7m/s | -44.5°C | 61.5% | 272.8hPa | 2.4V | 08:07:38 | 02:37:39 | 00:00:00 | |
| DD8BA-10 | 2026-09-03 00:55:11 | 50.85728 | 8.59173 | 124° | 137km/h | 10147m | -7.7m/s | -44.4°C | 61.5% | 272.7hPa | 2.4V | 00:00:00 | 00:00:00 | 00:00:00 | |
| DO2KSM | 2026-09-03 00:55:10 | 50.85728 | 8.59173 | 125° | 139km/h | 10147m | -7.7m/s | -44.5°C | 55.5% | 272.8hPa | 2.4V | 08:08:00 | 00:00:00 | 00:00:00 | |
| DL1XH1-15 | 2026-09-03 00:55:09 | 50.85862 | 8.58853 | 123° | 139km/h | 10202m | -7.8m/s | -45°C | 55.1% | 270.5hPa | 2.4V | 08:07:45 | 02:37:32 | 00:00:00 | |
| BIOWL1-15 | 2026-09-03 00:55:06 | 50.85824 | 8.58945 | 123° | 135km/h | 10186m | -7.9m/s | -44.8°C | 59.7% | 271.1hPa | 2.5V | 08:08:02 | 02:37:34 | 00:00:00 | |
| DL1NUX | 2026-09-03 00:55:06 | 50.85919 | 8.58714 | 123° | 139km/h | 10225m | -7.6m/s | -45.1°C | 51.8% | 269.6hPa | 2.5V | 08:07:48 | 02:37:29 | 00:00:00 | |
| HSKMA3-T | 2026-09-03 00:55:03 | 50.85900 | 8.58761 | 123° | 139km/h | 10217m | -7.9m/s | -45.1°C | 54.7% | 269.9hPa | 2.5V | 08:08:02 | 02:37:30 | 00:00:00 | |
| DL1XH-west | 2026-09-03 00:55:01 | 50.85938 | 8.58668 | 123° | 139km/h | 10232m | -7.6m/s | -45.2°C | 53% | 269.2hPa | 2.5V | 08:08:02 | 02:37:28 | 00:00:00 | |
| BIOWL1-15 | 2026-09-03 00:54:56 | 50.86072 | 8.58342 | 124° | 139km/h | 10286m | -8.1m/s | -45.5°C | 59.1% | 267.1hPa | 2.5V | 08:08:02 | 02:37:21 | 00:00:00 | |
| DL1NUX | 2026-09-03 00:54:56 | 50.86110 | 8.58250 | 123° | 139km/h | 10303m | -8.2m/s | -45.6°C | 60.9% | 266.4hPa | 2.4V | 08:07:58 | 02:37:19 | 00:00:00 | |
| DM0DOS-11 | 2026-09-03 00:54:55 | 50.86052 | 8.58389 | 123° | 139km/h | 10278m | -8.2m/s | -45.5°C | 54.3% | 267.4hPa | 2.5V | 08:07:55 | 02:37:22 | 00:00:00 | |
| DL1XH-west | 2026-09-03 00:54:51 | 50.86130 | 8.58204 | 123° | 137km/h | 10311m | -8.2m/s | -45.7°C | 63.7% | 266.1hPa | 2.4V | 08:08:02 | 02:37:18 | 00:00:00 | |
| HSKMA3-T | 2026-09-03 00:54:51 | 50.86110 | 8.58250 | 124° | 139km/h | 10303m | -8.2m/s | -45.6°C | 63% | 266.4hPa | 2.4V | 08:08:02 | 02:37:19 | 00:00:00 | |
| DF7PN | 2026-09-03 00:54:50 | 50.86149 | 8.58157 | 122° | 137km/h | 10319m | -8.0m/s | -45.8°C | 56.8% | 265.8hPa | 2.4V | 00:00:00 | 00:00:00 | 00:00:00 | |
| NBG1-10 | 2026-09-03 00:54:49 | 50.86149 | 8.58157 | 123° | 137km/h | 10319m | -7.9m/s | -45.7°C | 63.1% | 265.7hPa | 2.4V | 00:00:00 | 02:37:17 | 00:00:00 | |
| DL1CLM-18 | 2026-09-03 00:54:46 | 50.86187 | 8.58065 | 124° | 139km/h | 10334m | -7.8m/s | -45.9°C | 59.6% | 265.2hPa | 2.4V | 08:08:00 | 00:00:00 | 00:00:00 | |
| DM0DOS-11 | 2026-09-03 00:54:45 | 50.86244 | 8.57925 | 123° | 139km/h | 10358m | -7.9m/s | -46.1°C | 71.2% | 264.2hPa | 2.4V | 08:08:05 | 02:37:12 | 00:00:00 | |
| DL1NUX | 2026-09-03 00:54:45 | 50.86301 | 8.57784 | 123° | 141km/h | 10381m | -7.9m/s | -46.4°C | 72.7% | 263.3hPa | 2.5V | 08:08:08 | 02:37:09 | 00:00:00 | |
| BIOWL1-15 | 2026-09-03 00:54:43 | 50.86263 | 8.57878 | 123° | 139km/h | 10366m | -7.7m/s | -46.2°C | 73.4% | 263.9hPa | 2.5V | 08:08:53 | 02:37:11 | 00:00:00 | |
| HSKMA3-T | 2026-09-03 00:54:41 | 50.86301 | 8.57784 | 123° | 141km/h | 10381m | -7.9m/s | -46.4°C | 74.1% | 263.3hPa | 2.5V | 08:08:53 | 02:37:09 | 00:00:00 | |
| DL1XH-west | 2026-09-03 00:54:40 | 50.86339 | 8.57691 | 123° | 139km/h | 10397m | -8.1m/s | -46.5°C | 74.9% | 262.7hPa | 2.4V | 08:08:53 | 02:37:07 | 00:00:00 | |
| DL1XH1-15 | 2026-09-03 00:54:39 | 50.86434 | 8.57458 | 122° | 137km/h | 10437m | -8m/s | -46.8°C | 74.5% | 261.1hPa | 2.5V | 08:08:15 | 02:37:02 | 00:00:00 | |
| DJ2DS-15 | 2026-09-03 00:54:39 | 50.86358 | 8.57644 | 122° | 139km/h | 10405m | -8.0m/s | -46.5°C | 66.6% | 262.4hPa | 2.4V | 00:00:00 | 00:00:00 | 00:00:00 | |
| DL8OAI-8 | 2026-09-03 00:54:38 | 50.86358 | 8.57643 | 124° | 139km/h | 10405m | -8.0m/s | -46.5°C | 66.6% | 262.4hPa | 2.4V | 08:08:00 | 00:00:00 | 00:00:00 | |
| DJ2DS-15 | 2026-09-03 00:54:37 | 50.86377 | 8.57597 | 123° | 137km/h | 10413m | -7.9m/s | -46.5°C | 73.6% | 262.0hPa | 2.4V | 00:00:00 | 02:37:05 | 00:00:00 | |
| HARRO8 | 2026-09-03 00:54:36 | 50.86396 | 8.57550 | 122° | 137km/h | 10421m | -8.1m/s | -46.7°C | 66.7% | 261.7hPa | 2.4V | 00:00:00 | 00:00:00 | 00:00:00 | |
| DL1NUX | 2026-09-03 00:54:35 | 50.86490 | 8.57319 | 123° | 137km/h | 10461m | -8.2m/s | -47°C | 74.6% | 260.2hPa | 2.4V | 08:08:18 | 02:36:59 | 00:00:00 | |
| BIOWL1-15 | 2026-09-03 00:54:33 | 50.86453 | 8.57411 | 122° | 137km/h | 10445m | -8.1m/s | -46.9°C | 76.2% | 260.8hPa | 2.5V | 08:08:53 | 02:37:01 | 00:00:00 | |
| HSKMA3-T | 2026-09-03 00:54:31 | 50.86490 | 8.57319 | 123° | 137km/h | 10461m | -8.2m/s | -47°C | 76.3% | 260.2hPa | 2.4V | 08:08:53 | 02:36:59 | 00:00:00 | |
| DL1XH-west | 2026-09-03 00:54:30 | 50.86528 | 8.57227 | 123° | 137km/h | 10478m | -8.1m/s | -47.2°C | 76% | 259.6hPa | 2.4V | 08:08:53 | 02:36:57 | 00:00:00 | |
| DL1XH1-15 | 2026-09-03 00:54:29 | 50.86620 | 8.56998 | 121° | 135km/h | 10518m | -8.1m/s | -47.5°C | 73.9% | 258hPa | 2.4V | 08:08:25 | 02:36:52 | 00:00:00 | |
| DL3AQ-11 | 2026-09-03 00:54:29 | 50.86547 | 8.57181 | 122° | 135km/h | 10485m | -8.1m/s | -47.2°C | 67.0% | 259.2hPa | 2.5V | 00:00:00 | 00:00:00 | 00:00:00 | |
| DL4BBY-15 | 2026-09-03 00:54:27 | 50.86565 | 8.57135 | 123° | 137km/h | 10494m | -8.2m/s | -46.3°C | 0% | 0hPa | 2.5V | 00:00:00 | 00:00:00 | 00:00:00 | |
| DL1NUX | 2026-09-03 00:54:26 | 50.86674 | 8.56859 | 121° | 135km/h | 10542m | -8.3m/s | -47.6°C | 73.8% | 257hPa | 2.5V | 08:08:28 | 02:36:49 | 00:00:00 | |
| HSKMA3-T | 2026-09-03 00:54:20 | 50.86692 | 8.56812 | 121° | 137km/h | 10551m | -8m/s | -47.7°C | 75.2% | 256.6hPa | 2.5V | 08:08:53 | 02:36:48 | 00:00:00 | |
| DL1XH-west | 2026-09-03 00:54:19 | 50.86710 | 8.56765 | 121° | 137km/h | 10559m | -8.1m/s | -47.8°C | 75.3% | 256.4hPa | 2.5V | 08:08:53 | 02:36:47 | 00:00:00 | |
| DF7PN | 2026-09-03 00:54:19 | 50.86727 | 8.56718 | 120° | 135km/h | 10567m | -8.3m/s | -47.9°C | 66.9% | 256.0hPa | 2.5V | 00:00:00 | 00:00:00 | 00:00:00 | |
| DL3AQ-11 | 2026-09-03 00:54:18 | 50.86745 | 8.56672 | 120° | 137km/h | 10575m | -8.0m/s | -47.9°C | 67.0% | 255.7hPa | 2.5V | 00:00:00 | 00:00:00 | 00:00:00 | |
| DJ2DS-15 | 2026-09-03 00:54:17 | 50.86745 | 8.56671 | 121° | 137km/h | 10575m | -8.0m/s | -47.9°C | 74.6% | 255.7hPa | 2.5V | 00:00:00 | 02:36:45 | 00:00:00 | |
| DJ3KS | 2026-09-03 00:54:16 | 50.86745 | 8.56671 | 122° | 137km/h | 10575m | -8.0m/s | -47.9°C | 67.1% | 255.7hPa | 2.5V | 00:00:00 | 00:00:00 | 00:00:00 | |
| DL1NUX | 2026-09-03 00:54:14 | 50.86851 | 8.56394 | 120° | 133km/h | 10622m | -8m/s | -48.4°C | 72.6% | 253.9hPa | 2.5V | 08:08:38 | 02:36:39 | 00:00:00 | |
| HSKMA3-T | 2026-09-03 00:54:10 | 50.86868 | 8.56347 | 120° | 135km/h | 10631m | -8.2m/s | -48.5°C | 71.4% | 253.5hPa | 2.4V | 08:08:53 | 02:36:38 | 00:00:00 | |
| BIOWL1-15 | 2026-09-03 00:54:09 | 50.86919 | 8.56207 | 119° | 137km/h | 10655m | -8.2m/s | -48.7°C | 67.5% | 252.6hPa | 2.4V | 08:08:53 | 02:36:35 | 00:00:00 | |
| DL1XH-west | 2026-09-03 00:54:09 | 50.86885 | 8.56301 | 120° | 135km/h | 10638m | -8.3m/s | -48.5°C | 70.3% | 253.2hPa | 2.4V | 08:08:53 | 02:36:37 | 00:00:00 | |
| DL1XH1-15 | 2026-09-03 00:54:08 | 50.86969 | 8.56064 | 118° | 139km/h | 10680m | -8.5m/s | -48.8°C | 61.9% | 251.6hPa | 2.5V | 08:08:45 | 02:36:32 | 00:00:00 | |
| BIOWL9-15 | 2026-09-03 00:54:07 | 50.86936 | 8.56160 | 119° | 135km/h | 10663m | -8.4m/s | -48.7°C | 58.6% | 252.3hPa | 2.4V | 00:00:00 | 00:00:00 | 00:00:00 | |
| AU51GT2 | 2026-09-03 00:54:06 | 50.86936 | 8.56160 | 119° | 135km/h | 10663m | -8.4m/s | -48.7°C | 58.6% | 252.3hPa | 2.4V | 00:00:00 | 00:00:00 | 00:00:00 | |
| HARRO8 | 2026-09-03 00:54:05 | 50.86952 | 8.56112 | 118° | 137km/h | 10671m | -8.4m/s | -48.8°C | 56.8% | 252.0hPa | 2.4V | 00:00:00 | 00:00:00 | 00:00:00 | |
| DO3DL | 2026-09-03 00:54:04 | 50.86953 | 8.56112 | 120° | 137km/h | 10672m | -8.4m/s | -48.8°C | 56.8% | 252.0hPa | 2.4V | 08:08:00 | 00:00:00 | 00:00:00 | |
| DL1NUX | 2026-09-03 00:54:03 | 50.87020 | 8.55918 | 118° | 139km/h | 10705m | -8.5m/s | -49°C | 55.3% | 250.7hPa | 2.4V | 08:08:48 | 02:36:29 | 00:00:00 | |
| HSKMA3-T | 2026-09-03 00:54:00 | 50.87054 | 8.55820 | 119° | 139km/h | 10722m | -8.4m/s | -49°C | 51.2% | 250hPa | 2.4V | 08:08:53 | 02:36:27 | 00:00:00 | |
| DL1XH-west | 2026-09-03 00:53:58 | 50.87071 | 8.55772 | 119° | 141km/h | 10730m | -8.2m/s | -49°C | 48.8% | 249.7hPa | 2.5V | 08:08:53 | 02:36:26 | 00:00:00 | |
| DM0DOS-11 | 2026-09-03 00:53:58 | 50.87159 | 8.55525 | 119° | 142km/h | 10772m | -8.5m/s | -48.9°C | 39.7% | 248.1hPa | 2.5V | 08:08:56 | 02:36:21 | 00:00:00 | |
| BIOWL1-15 | 2026-09-03 00:53:56 | 50.87106 | 8.55673 | 119° | 141km/h | 10747m | -8.7m/s | -49.1°C | 44.4% | 249.1hPa | 2.4V | 08:08:53 | 02:36:24 | 00:00:00 | |
| DL1NUX | 2026-09-03 00:53:56 | 50.87195 | 8.55427 | 120° | 142km/h | 10789m | -8.3m/s | -49°C | 40.3% | 247.5hPa | 2.5V | 08:08:58 | 02:36:19 | 00:00:00 | |
| HSKMA3-T | 2026-09-03 00:53:49 | 50.87231 | 8.55329 | 121° | 142km/h | 10806m | -8.5m/s | -48.9°C | 43.2% | 246.9hPa | 2.4V | 08:09:44 | 02:36:17 | 00:00:00 | |
| DL1XH-west | 2026-09-03 00:53:48 | 50.87268 | 8.55231 | 121° | 141km/h | 10823m | -8.3m/s | -49°C | 43.9% | 246.2hPa | 2.4V | 08:09:44 | 02:36:15 | 00:00:00 | |
| DL1XH1-15 | 2026-09-03 00:53:47 | 50.87322 | 8.55085 | 120° | 141km/h | 10847m | -8.4m/s | -49.2°C | 42.3% | 245.3hPa | 2.5V | 08:09:05 | 02:36:12 | 00:00:00 | |
| BIOWL1-15 | 2026-09-03 00:53:46 | 50.87359 | 8.54987 | 121° | 142km/h | 10864m | -8.5m/s | -49.4°C | 45.7% | 244.7hPa | 2.5V | 08:09:44 | 02:36:10 | 00:00:00 | |
| HSKMA3-T | 2026-09-03 00:53:38 | 50.87433 | 8.54792 | 121° | 142km/h | 10897m | -8.2m/s | -49.7°C | 47.3% | 243.5hPa | 2.5V | 08:09:44 | 02:36:06 | 00:00:00 | |
| BIOWL1-15 | 2026-09-03 00:53:36 | 50.87470 | 8.54695 | 122° | 142km/h | 10913m | -8.2m/s | -49.8°C | 48% | 242.9hPa | 2.5V | 08:09:44 | 02:36:04 | 00:00:00 | |
| DM0DOS-11 | 2026-09-03 00:53:36 | 50.87527 | 8.54551 | 121° | 142km/h | 10938m | -8.3m/s | -50°C | 46.5% | 241.9hPa | 2.4V | 08:09:16 | 02:36:01 | 00:00:00 | |
| DL1XH1-15 | 2026-09-03 00:53:36 | 50.87508 | 8.54599 | 121° | 141km/h | 10930m | -8.4m/s | -50°C | 46.1% | 242.2hPa | 2.5V | 08:09:15 | 02:36:02 | 00:00:00 | |
| DO3MHA-12 | 2026-09-03 00:53:35 | 50.87490 | 8.54647 | 123° | 142km/h | 10922m | -8.1m/s | -49.8°C | 45.9% | 242.5hPa | 2.4V | 00:00:00 | 02:36:03 | 00:00:00 | |
| HARRO8 | 2026-09-03 00:53:34 | 50.87508 | 8.54599 | 121° | 141km/h | 10930m | -8.5m/s | -50.0°C | 40.0% | 242.2hPa | 2.4V | 00:00:00 | 00:00:00 | 00:00:00 | |
| BUE01 | 2026-09-03 00:53:33 | 50.87527 | 8.54551 | 121° | 142km/h | 10938m | -8.3m/s | -50.0°C | 40.3% | 242.0hPa | 2.4V | 00:00:00 | 00:00:00 | 00:00:00 | |
| DD8BA-10 | 2026-09-03 00:53:31 | 50.87566 | 8.54454 | 123° | 142km/h | 10955m | -8.3m/s | -50.1°C | 47.3% | 241.3hPa | 2.4V | 00:00:00 | 00:00:00 | 00:00:00 | |
| DO3DL | 2026-09-03 00:53:30 | 50.87566 | 8.54454 | 123° | 142km/h | 10955m | -8.4m/s | -50.2°C | 41.1% | 241.3hPa | 2.4V | 08:09:00 | 00:00:00 | 00:00:00 | |
| DL1XH1-15 | 2026-09-03 00:53:29 | 50.87701 | 8.54117 | 122° | 142km/h | 11013m | -8.5m/s | -50.7°C | 49.7% | 239.2hPa | 2.4V | 08:09:25 | 02:35:52 | 00:00:00 | |
| BIOWL1-15 | 2026-09-03 00:53:29 | 50.87701 | 8.54117 | 123° | 142km/h | 11013m | -8.5m/s | -50.7°C | 51.7% | 239.2hPa | 2.4V | 08:09:44 | 02:35:52 | 00:00:00 | |
| HSKMA3-T | 2026-09-03 00:53:27 | 50.87643 | 8.54261 | 122° | 142km/h | 10988m | -8.4m/s | -50.5°C | 50.9% | 240.1hPa | 2.5V | 08:09:44 | 02:35:55 | 00:00:00 | |
| DL1XH-west | 2026-09-03 00:53:26 | 50.87681 | 8.54165 | 122° | 141km/h | 11005m | -8.6m/s | -50.7°C | 51.5% | 239.5hPa | 2.4V | 08:09:44 | 02:35:53 | 00:00:00 | |
| DM0DOS-11 | 2026-09-03 00:53:25 | 50.87720 | 8.54070 | 123° | 142km/h | 11022m | -8.3m/s | -50.8°C | 49.9% | 238.9hPa | 2.4V | 08:09:26 | 02:35:51 | 00:00:00 | |
| DL1NUX | 2026-09-03 00:53:23 | 50.87760 | 8.53974 | 123° | 144km/h | 11038m | -8.5m/s | -50.9°C | 50.3% | 238.2hPa | 2.5V | 08:09:28 | 02:35:49 | 00:00:00 | |
| DB0NH | 2026-09-03 00:53:23 | 50.87720 | 8.54070 | 124° | 146km/h | 11022m | -8.2m/s | -50.7°C | 49.9% | 238.8hPa | 2.5V | 00:00:00 | 02:35:51 | 00:00:00 | |
| DL3AQ-11 | 2026-09-03 00:53:22 | 50.87760 | 8.53974 | 123° | 142km/h | 11038m | -8.5m/s | -50.9°C | 43.7% | 238.2hPa | 2.5V | 00:00:00 | 00:00:00 | 00:00:00 | |
| DD8BA-10 | 2026-09-03 00:53:21 | 50.87760 | 8.53974 | 124° | 146km/h | 11038m | -8.4m/s | -50.9°C | 50.3% | 238.2hPa | 2.5V | 00:00:00 | 00:00:00 | 00:00:00 | |
| DD1CC8 | 2026-09-03 00:53:20 | 50.87780 | 8.53926 | 123° | 142km/h | 11047m | -8.4m/s | -51.0°C | 43.8% | 237.9hPa | 2.5V | 00:00:00 | 00:00:00 | 00:00:00 | |
| DM0DOS-11 | 2026-09-03 00:53:19 | 50.87922 | 8.53585 | 123° | 148km/h | 11105m | -8.4m/s | -51.3°C | 51.9% | 235.8hPa | 2.5V | 08:09:36 | 02:35:41 | 00:00:00 | |
| DL1XH1-15 | 2026-09-03 00:53:18 | 50.87902 | 8.53634 | 123° | 148km/h | 11097m | -8.4m/s | -51.2°C | 51.6% | 236.1hPa | 2.5V | 08:09:35 | 02:35:42 | 00:00:00 | |
| BIOWL1-15 | 2026-09-03 00:53:16 | 50.87861 | 8.53732 | 123° | 146km/h | 11080m | -8.4m/s | -51.2°C | 52.7% | 236.7hPa | 2.4V | 08:09:44 | 02:35:44 | 00:00:00 | |
| DL1XH-west | 2026-09-03 00:53:15 | 50.87881 | 8.53683 | 123° | 148km/h | 11088m | -8.3m/s | -51.2°C | 53% | 236.4hPa | 2.4V | 08:09:44 | 02:35:43 | 00:00:00 | |
| DO3MHA-12 | 2026-09-03 00:53:15 | 50.87881 | 8.53683 | 123° | 148km/h | 11088m | -8.2m/s | -51.2°C | 51.2% | 236.4hPa | 2.4V | 00:00:00 | 02:35:43 | 00:00:00 | |
| DB0UT-7 | 2026-09-03 00:53:14 | 50.87901 | 8.53634 | 124° | 153km/h | 11097m | -8.4m/s | -51.2°C | 51.6% | 236.1hPa | 2.5V | 00:00:00 | 02:35:42 | 00:00:00 | |
| DD8BA-10 | 2026-09-03 00:53:11 | 50.87963 | 8.53486 | 124° | 150km/h | 11122m | -8.4m/s | -51.3°C | 52.9% | 235.2hPa | 2.5V | 00:00:00 | 00:00:00 | 00:00:00 | |
| DL3AQ-11 | 2026-09-03 00:53:09 | 50.88026 | 8.53337 | 123° | 150km/h | 11147m | -8.5m/s | -51.5°C | 46.4% | 234.3hPa | 2.5V | 00:00:00 | 00:00:00 | 00:00:00 | |
| DM0DOS-11 | 2026-09-03 00:53:08 | 50.88153 | 8.53039 | 124° | 151km/h | 11198m | -8.5m/s | -51.8°C | 55.9% | 232.5hPa | 2.5V | 08:09:47 | 02:35:30 | 00:00:00 | |
| DL1XH1-15 | 2026-09-03 00:53:08 | 50.88110 | 8.53138 | 124° | 150km/h | 11181m | -8.6m/s | -51.6°C | 55.1% | 233.1hPa | 2.5V | 08:09:45 | 02:35:32 | 00:00:00 | |
| BIOWL1-15 | 2026-09-03 00:53:06 | 50.88068 | 8.53237 | 124° | 150km/h | 11164m | -8.5m/s | -51.5°C | 56.6% | 233.7hPa | 2.4V | 08:09:44 | 02:35:34 | 00:00:00 | |
| DL1XH-west | 2026-09-03 00:53:04 | 50.88132 | 8.53088 | 124° | 150km/h | 11190m | -8.3m/s | -51.7°C | 57.7% | 232.8hPa | 2.5V | 08:10:35 | 02:35:31 | 00:00:00 | |
| DL1NUX | 2026-09-03 00:53:01 | 50.88174 | 8.52989 | 123° | 150km/h | 11207m | -9.2m/s | -51.9°C | 56.3% | 232.2hPa | 2.4V | 08:09:48 | 02:35:29 | 00:00:00 | |
| DD8BA-10 | 2026-09-03 00:53:01 | 50.88174 | 8.52988 | 124° | 153km/h | 11207m | -9.2m/s | -51.8°C | 56.3% | 232.2hPa | 2.5V | 00:00:00 | 00:00:00 | 00:00:00 | |
| DL1XH1-15 | 2026-09-03 00:52:58 | 50.88326 | 8.52634 | 123° | 155km/h | 11266m | -8.4m/s | -52.2°C | 58.2% | 230.1hPa | 2.5V | 08:09:55 | 02:35:22 | 00:00:00 | |
| DM0DOS-11 | 2026-09-03 00:52:57 | 50.88369 | 8.52530 | 123° | 155km/h | 11283m | -8.3m/s | -52.4°C | 60.1% | 229.5hPa | 2.5V | 08:09:57 | 02:35:20 | 00:00:00 | |
| HSKMA3-T | 2026-09-03 00:52:55 | 50.88304 | 8.52685 | 124° | 153km/h | 11257m | -8.5m/s | -52.2°C | 59.7% | 230.4hPa | 2.4V | 08:10:35 | 02:35:23 | 00:00:00 | |
| DL1XH-west | 2026-09-03 00:52:53 | 50.88369 | 8.52530 | 124° | 155km/h | 11283m | -8.3m/s | -52.4°C | 62.2% | 229.5hPa | 2.5V | 08:10:35 | 02:35:20 | 00:00:00 | |
| DL1NUX | 2026-09-03 00:52:53 | 50.88391 | 8.52478 | 123° | 157km/h | 11291m | -8.3m/s | -52.4°C | 60.9% | 229.2hPa | 2.5V | 08:09:58 | 02:35:19 | 00:00:00 | |
| WPPR-10 | 2026-09-03 00:52:53 | 50.88369 | 8.52530 | 123° | 155km/h | 11283m | -8.3m/s | -52.4°C | 52.4% | 229.5hPa | 2.4V | 00:00:00 | 00:00:00 | 00:00:00 | |
| EDDB2-11 | 2026-09-03 00:52:52 | 50.88369 | 8.52530 | 123° | 155km/h | 11283m | -8.3m/s | -52.4°C | 52.4% | 229.5hPa | 2.4V | 00:00:00 | 00:00:00 | 00:00:00 | |
| DJ2DS-15 | 2026-09-03 00:52:51 | 50.88414 | 8.52425 | 123° | 157km/h | 11300m | -8.5m/s | -52.5°C | 54.1% | 228.9hPa | 2.4V | 00:00:00 | 00:00:00 | 00:00:00 | |
| SONCRA | 2026-09-03 00:52:50 | 50.88414 | 8.52425 | 123° | 157km/h | 11300m | -8.5m/s | -52.5°C | 54.1% | 228.9hPa | 2.4V | 00:00:00 | 00:00:00 | 00:00:00 | |
| DD1CC8 | 2026-09-03 00:52:49 | 50.88436 | 8.52373 | 123° | 157km/h | 11308m | -8.6m/s | -52.6°C | 54.9% | 228.6hPa | 2.4V | 00:00:00 | 00:00:00 | 00:00:00 | |
| DD1CC3-15 | 2026-09-03 00:52:48 | 50.88436 | 8.52373 | 125° | 157km/h | 11308m | -8.6m/s | -52.6°C | 55.0% | 228.6hPa | 2.4V | 08:10:00 | 00:00:00 | 00:00:00 | |
| DL1XH1-15 | 2026-09-03 00:52:47 | 50.88548 | 8.52110 | 123° | 161km/h | 11350m | -8.4m/s | -52.9°C | 67.8% | 227.1hPa | 2.4V | 08:10:05 | 02:35:12 | 00:00:00 | |
| DO3MHA-11 | 2026-09-03 00:52:46 | 50.88503 | 8.52215 | 124° | 159km/h | 11333m | -8.1m/s | -52.7°C | 66.3% | 227.6hPa | 2.5V | 00:00:00 | 02:35:14 | 00:00:00 | |
| DL1NUX | 2026-09-03 00:52:45 | 50.88615 | 8.51951 | 124° | 159km/h | 11375m | -8.4m/s | -53°C | 68.5% | 226.2hPa | 2.5V | 08:10:08 | 02:35:09 | 00:00:00 | |
| DM0DOS-11 | 2026-09-03 00:52:45 | 50.88593 | 8.52004 | 124° | 159km/h | 11367m | -8.6m/s | -52.9°C | 68.1% | 226.5hPa | 2.5V | 08:10:07 | 02:35:10 | 00:00:00 | |
| HSKMA3-T | 2026-09-03 00:52:44 | 50.88548 | 8.52110 | 124° | 161km/h | 11350m | -8.4m/s | -52.9°C | 69% | 227.1hPa | 2.4V | 08:10:35 | 02:35:12 | 00:00:00 | |
| BIOWL1-15 | 2026-09-03 00:52:44 | 50.88593 | 8.52004 | 124° | 159km/h | 11367m | -8.6m/s | -52.9°C | 69.9% | 226.5hPa | 2.5V | 08:10:35 | 02:35:10 | 00:00:00 | |
| DL1XH-west | 2026-09-03 00:52:43 | 50.88570 | 8.52057 | 124° | 159km/h | 11358m | -8.3m/s | -52.9°C | 69.7% | 226.8hPa | 2.5V | 08:10:35 | 02:35:11 | 00:00:00 | |
| DL3AQ-11 | 2026-09-03 00:52:42 | 50.88615 | 8.51951 | 124° | 159km/h | 11375m | -8.4m/s | -53.0°C | 60.0% | 226.2hPa | 2.5V | 00:00:00 | 00:00:00 | 00:00:00 | |
| DD8BA-10 | 2026-09-03 00:52:41 | 50.88615 | 8.51951 | 125° | 161km/h | 11375m | -8.4m/s | -53.0°C | 68.5% | 226.2hPa | 2.5V | 00:00:00 | 00:00:00 | 00:00:00 | |
| DO9LL-15 | 2026-09-03 00:52:40 | 50.88638 | 8.51899 | 125° | 161km/h | 11384m | -8.5m/s | -53.0°C | 68.7% | 225.9hPa | 2.5V | 00:00:00 | 02:35:08 | 00:00:00 | |
| DM0DOS-11 | 2026-09-03 00:52:39 | 50.88843 | 8.51420 | 124° | 162km/h | 11460m | -8.5m/s | -53.7°C | 69.9% | 223.2hPa | 2.5V | 08:10:18 | 02:34:59 | 00:00:00 | |
| DJ2DS-15 | 2026-09-03 00:52:37 | 50.88706 | 8.51740 | 125° | 161km/h | 11409m | -8.3m/s | -53.2°C | 69.1% | 225.0hPa | 2.4V | 00:00:00 | 02:35:05 | 00:00:00 | |
| DL1XH1-15 | 2026-09-03 00:52:36 | 50.88774 | 8.51581 | 123° | 161km/h | 11434m | -8.4m/s | -53.5°C | 69.3% | 224.2hPa | 2.4V | 08:10:15 | 02:35:02 | 00:00:00 | |
| DO3MHA-11 | 2026-09-03 00:52:36 | 50.88729 | 8.51687 | 125° | 162km/h | 11418m | -8.5m/s | -53.3°C | 69.0% | 224.7hPa | 2.5V | 00:00:00 | 02:35:04 | 00:00:00 | |
| DL1NUX | 2026-09-03 00:52:35 | 50.88843 | 8.51420 | 124° | 162km/h | 11460m | -8.5m/s | -53.7°C | 69.9% | 223.2hPa | 2.5V | 08:10:18 | 02:34:59 | 00:00:00 | |
| HSKMA3-T | 2026-09-03 00:52:34 | 50.88774 | 8.51581 | 124° | 161km/h | 11435m | -8.5m/s | -53.5°C | 70.8% | 224.2hPa | 2.4V | 08:10:35 | 02:35:02 | 00:00:00 | |
| DL1XH-west | 2026-09-03 00:52:33 | 50.88797 | 8.51527 | 124° | 162km/h | 11443m | -8.5m/s | -53.6°C | 71% | 223.9hPa | 2.5V | 08:10:35 | 02:35:01 | 00:00:00 | |
| HARRO8 | 2026-09-03 00:52:32 | 50.88820 | 8.51474 | 124° | 161km/h | 11451m | -8.7m/s | -53.6°C | 60.9% | 223.5hPa | 2.5V | 00:00:00 | 00:00:00 | 00:00:00 | |
| DD8BA-10 | 2026-09-03 00:52:31 | 50.88843 | 8.51420 | 125° | 162km/h | 11460m | -8.5m/s | -53.7°C | 69.9% | 223.2hPa | 2.5V | 00:00:00 | 00:00:00 | 00:00:00 | |
| DO3DL | 2026-09-03 00:52:30 | 50.88843 | 8.51420 | 125° | 162km/h | 11460m | -8.5m/s | -53.7°C | 61.2% | 223.2hPa | 2.5V | 08:10:00 | 00:00:00 | 00:00:00 | |
| DL3AQ-11 | 2026-09-03 00:52:29 | 50.88913 | 8.51260 | 124° | 161km/h | 11485m | -8.5m/s | -53.9°C | 61.8% | 222.4hPa | 2.5V | 00:00:00 | 00:00:00 | 00:00:00 | |
| DL4BBY-15 | 2026-09-03 00:52:27 | 50.88936 | 8.51207 | 125° | 162km/h | 11494m | -8.3m/s | -53.0°C | 0% | 0hPa | 2.5V | 00:00:00 | 00:00:00 | 00:00:00 | |
| DL1XH1-15 | 2026-09-03 00:52:26 | 50.89007 | 8.51049 | 125° | 161km/h | 11519m | -8.4m/s | -54.2°C | 70.8% | 221.3hPa | 2.5V | 08:10:25 | 02:34:52 | 00:00:00 | |
| DJ2KF-10 | 2026-09-03 00:52:26 | 50.88960 | 8.51154 | 126° | 159km/h | 11502m | -8.1m/s | -54.0°C | 71.1% | 221.7hPa | 2.4V | 00:00:00 | 02:34:54 | 00:00:00 | |
| DL1NUX | 2026-09-03 00:52:25 | 50.89078 | 8.50891 | 125° | 161km/h | 11544m | -8.5m/s | -54.4°C | 71% | 220.3hPa | 2.4V | 08:10:28 | 02:34:49 | 00:00:00 | |
| BIOWL1-15 | 2026-09-03 00:52:23 | 50.89125 | 8.50786 | 126° | 162km/h | 11561m | -8.5m/s | -54.6°C | 72.4% | 219.7hPa | 2.5V | 08:10:35 | 02:34:47 | 00:00:00 | |
| HSKMA3-T | 2026-09-03 00:52:23 | 50.89030 | 8.50996 | 125° | 162km/h | 11527m | -8.5m/s | -54.3°C | 72% | 220.9hPa | 2.5V | 08:10:35 | 02:34:51 | 00:00:00 | |
| DL1XH-west | 2026-09-03 00:52:22 | 50.89054 | 8.50944 | 126° | 161km/h | 11536m | -8.8m/s | -54.3°C | 72.1% | 220.6hPa | 2.5V | 08:10:35 | 02:34:50 | 00:00:00 | |
| SO1NDE-10 | 2026-09-03 00:52:22 | 50.89054 | 8.50944 | 126° | 162km/h | 11536m | -8.7m/s | -54.3°C | 70.6% | 220.6hPa | 2.5V | 00:00:00 | 02:34:50 | 00:00:00 | |
| DD8BA-10 | 2026-09-03 00:52:21 | 50.89077 | 8.50891 | 126° | 162km/h | 11545m | -8.5m/s | -54.4°C | 71.0% | 220.3hPa | 2.4V | 00:00:00 | 00:00:00 | 00:00:00 | |
| DJ8HS-15 | 2026-09-03 00:52:19 | 50.89125 | 8.50786 | 126° | 162km/h | 11562m | -8.4m/s | -54.5°C | 71.2% | 219.7hPa | 2.5V | 00:00:00 | 02:34:47 | 00:00:00 | |
| DD1CC8 | 2026-09-03 00:52:18 | 50.89149 | 8.50734 | 125° | 161km/h | 11570m | -8.6m/s | -54.6°C | 62.0% | 219.5hPa | 2.5V | 00:00:00 | 00:00:00 | 00:00:00 | |
| DJ2DS-15 | 2026-09-03 00:52:17 | 50.89173 | 8.50681 | 126° | 162km/h | 11578m | -8.4m/s | -54.7°C | 71.3% | 219.1hPa | 2.5V | 00:00:00 | 02:34:45 | 00:00:00 | |
| DL1XH1-15 | 2026-09-03 00:52:16 | 50.89245 | 8.50523 | 125° | 162km/h | 11604m | -8.4m/s | -54.9°C | 71.6% | 218.3hPa | 2.5V | 08:10:35 | 02:34:42 | 00:00:00 | |
| DO3MHA-11 | 2026-09-03 00:52:16 | 50.89197 | 8.50628 | 126° | 162km/h | 11587m | -8.6m/s | -54.7°C | 71.4% | 218.8hPa | 2.5V | 00:00:00 | 02:34:44 | 00:00:00 | |
| DL1NUX | 2026-09-03 00:52:15 | 50.89318 | 8.50365 | 125° | 162km/h | 11630m | -8.4m/s | -55.2°C | 72.1% | 217.4hPa | 2.5V | 08:10:38 | 02:34:39 | 00:00:00 | |
| DM0DOS-11 | 2026-09-03 00:52:15 | 50.89342 | 8.50312 | 126° | 162km/h | 11638m | -8.8m/s | -55.2°C | 72.1% | 217.2hPa | 2.5V | 08:10:39 | 02:34:38 | 00:00:00 | |
| HSKMA3-T | 2026-09-03 00:52:13 | 50.89270 | 8.50470 | 126° | 162km/h | 11613m | -8.7m/s | -55°C | 72.6% | 218hPa | 2.4V | 08:11:26 | 02:34:41 | 00:00:00 | |
| DL1XH-west | 2026-09-03 00:52:12 | 50.89294 | 8.50418 | 126° | 162km/h | 11621m | -8.5m/s | -55.1°C | 72.7% | 217.7hPa | 2.5V | 08:11:26 | 02:34:40 | 00:00:00 | |
| BIOWL1-15 | 2026-09-03 00:52:11 | 50.89318 | 8.50365 | 126° | 162km/h | 11630m | -8.5m/s | -55.2°C | 72.7% | 217.5hPa | 2.5V | 08:11:26 | 02:34:39 | 00:00:00 | |
| DD8BA-10 | 2026-09-03 00:52:11 | 50.89318 | 8.50365 | 126° | 162km/h | 11630m | -8.4m/s | -55.1°C | 72.1% | 217.4hPa | 2.4V | 00:00:00 | 00:00:00 | 00:00:00 | |
| DO9LL-15 | 2026-09-03 00:52:10 | 50.89342 | 8.50312 | 127° | 162km/h | 11638m | -8.8m/s | -55.2°C | 72.1% | 217.1hPa | 2.4V | 00:00:00 | 02:34:38 | 00:00:00 | |
| DO3DL | 2026-09-03 00:52:09 | 50.89342 | 8.50312 | 127° | 162km/h | 11638m | -8.8m/s | -55.2°C | 62.8% | 217.2hPa | 2.4V | 08:11:00 | 00:00:00 | 00:00:00 | |
| DL1XH1-15 | 2026-09-03 00:52:06 | 50.89487 | 8.49997 | 125° | 162km/h | 11691m | -8.8m/s | -55.7°C | 72% | 215.4hPa | 2.4V | 08:10:45 | 02:34:32 | 00:00:00 | |
| DO2KSM | 2026-09-03 00:52:06 | 50.89438 | 8.50102 | 127° | 162km/h | 11673m | -8.7m/s | -55.5°C | 62.7% | 216.0hPa | 2.5V | 08:11:00 | 00:00:00 | 00:00:00 | |
| DL1NUX | 2026-09-03 00:52:05 | 50.89559 | 8.49839 | 125° | 162km/h | 11716m | -8.5m/s | -55.9°C | 71.6% | 214.5hPa | 2.5V | 08:10:48 | 02:34:29 | 00:00:00 | |
| HSKMA3-T | 2026-09-03 00:52:03 | 50.89511 | 8.49944 | 126° | 162km/h | 11699m | -8.6m/s | -55.8°C | 72.4% | 215.1hPa | 2.5V | 08:11:26 | 02:34:31 | 00:00:00 | |
| DM0DOS-11 | 2026-09-03 00:52:02 | 50.89583 | 8.49786 | 125° | 162km/h | 11725m | -8.6m/s | -56°C | 71.2% | 214.2hPa | 2.5V | 08:10:49 | 02:34:28 | 00:00:00 | |
| DL1XH-west | 2026-09-03 00:52:02 | 50.89535 | 8.49892 | 126° | 161km/h | 11708m | -8.7m/s | -55.8°C | 72.2% | 214.8hPa | 2.5V | 08:11:26 | 02:34:30 | 00:00:00 | |
| BIOWL1-15 | 2026-09-03 00:52:01 | 50.89559 | 8.49839 | 126° | 162km/h | 11717m | -8.5m/s | -55.9°C | 71.9% | 214.5hPa | 2.5V | 08:11:26 | 02:34:29 | 00:00:00 | |
| BUE01 | 2026-09-03 00:52:00 | 50.89583 | 8.49787 | 125° | 161km/h | 11725m | -8.6m/s | -56.0°C | 61.7% | 214.2hPa | 2.5V | 00:00:00 | 00:00:00 | 00:00:00 | |
| DJ8HS-15 | 2026-09-03 00:51:59 | 50.89607 | 8.49734 | 126° | 162km/h | 11734m | -8.7m/s | -56.0°C | 71.1% | 213.9hPa | 2.5V | 00:00:00 | 02:34:27 | 00:00:00 | |
| DK9SH | 2026-09-03 00:51:58 | 50.89607 | 8.49734 | 126° | 162km/h | 11734m | -8.8m/s | -56.1°C | 61.6% | 213.9hPa | 2.5V | 08:11:00 | 00:00:00 | 00:00:00 | |
| DL4BBY-15 | 2026-09-03 00:51:57 | 50.89654 | 8.49627 | 126° | 164km/h | 11751m | -8.5m/s | -55.3°C | 0% | 0hPa | 2.5V | 00:00:00 | 00:00:00 | 00:00:00 | |
| DL1XH1-15 | 2026-09-03 00:51:56 | 50.89726 | 8.49469 | 125° | 162km/h | 11777m | -8.8m/s | -56.4°C | 69.5% | 212.4hPa | 2.5V | 08:10:55 | 02:34:22 | 00:00:00 | |
| DJ2DS-15 | 2026-09-03 00:51:56 | 50.89678 | 8.49575 | 126° | 162km/h | 11759m | -8.5m/s | -56.2°C | 70.3% | 213.0hPa | 2.4V | 00:00:00 | 02:34:24 | 00:00:00 | |
| DL1NUX | 2026-09-03 00:51:55 | 50.89797 | 8.49311 | 125° | 162km/h | 11803m | -8.9m/s | -56.6°C | 68.7% | 211.6hPa | 2.5V | 08:10:58 | 02:34:19 | 00:00:00 | |
| HSKMA3-T | 2026-09-03 00:51:52 | 50.89774 | 8.49363 | 125° | 161km/h | 11794m | -8.8m/s | -56.6°C | 69% | 211.9hPa | 2.5V | 08:11:26 | 02:34:20 | 00:00:00 | |
| DM0DOS-11 | 2026-09-03 00:51:52 | 50.89821 | 8.49258 | 125° | 162km/h | 11812m | -8.7m/s | -56.7°C | 68.4% | 211.3hPa | 2.5V | 08:10:59 | 02:34:18 | 00:00:00 | |
| DL1XH-west | 2026-09-03 00:51:51 | 50.89797 | 8.49311 | 125° | 162km/h | 11803m | -8.9m/s | -56.6°C | 68.7% | 211.6hPa | 2.5V | 08:11:26 | 02:34:19 | 00:00:00 | |
| BIOWL1-15 | 2026-09-03 00:51:51 | 50.89844 | 8.49205 | 125° | 161km/h | 11821m | -8.8m/s | -56.8°C | 67.9% | 211hPa | 2.4V | 08:11:26 | 02:34:17 | 00:00:00 | |
| WPPR-10 | 2026-09-03 00:51:50 | 50.89821 | 8.49258 | 125° | 161km/h | 11812m | -8.7m/s | -56.7°C | 58.9% | 211.3hPa | 2.5V | 00:00:00 | 00:00:00 | 00:00:00 | |
| SONCRA | 2026-09-03 00:51:48 | 50.89868 | 8.49152 | 124° | 161km/h | 11830m | -8.7m/s | -56.8°C | 58.2% | 210.7hPa | 2.5V | 00:00:00 | 00:00:00 | 00:00:00 | |
| DD1CC8 | 2026-09-03 00:51:47 | 50.89891 | 8.49099 | 124° | 161km/h | 11838m | -8.8m/s | -56.9°C | 57.6% | 210.4hPa | 2.5V | 00:00:00 | 00:00:00 | 00:00:00 | |
| DL1XH1-15 | 2026-09-03 00:51:46 | 50.89961 | 8.48938 | 124° | 162km/h | 11865m | -8.7m/s | -57°C | 65.6% | 209.6hPa | 2.5V | 08:11:05 | 02:34:12 | 00:00:00 | |
| DM0DOS-11 | 2026-09-03 00:51:46 | 50.90082 | 8.48669 | 125° | 166km/h | 11908m | -8.7m/s | -57.2°C | 63.1% | 208.1hPa | 2.5V | 08:11:10 | 02:34:07 | 00:00:00 | |
| DO3MHA-12 | 2026-09-03 00:51:45 | 50.89938 | 8.48992 | 125° | 164km/h | 11856m | -8.8m/s | -57.0°C | 66.2% | 209.8hPa | 2.5V | 00:00:00 | 02:34:13 | 00:00:00 | |
| DB0UT-7 | 2026-09-03 00:51:44 | 50.89961 | 8.48938 | 125° | 164km/h | 11865m | -8.7m/s | -57.0°C | 65.6% | 209.5hPa | 2.4V | 00:00:00 | 00:00:00 | 00:00:00 | |
| DL1NUX | 2026-09-03 00:51:43 | 50.90033 | 8.48777 | 125° | 166km/h | 11891m | -8.6m/s | -57.2°C | 64.9% | 208.7hPa | 2.4V | 08:11:08 | 02:34:09 | 00:00:00 | |
| HSKMA3-T | 2026-09-03 00:51:42 | 50.90009 | 8.48831 | 125° | 166km/h | 11882m | -8.8m/s | -57.2°C | 64.4% | 209hPa | 2.5V | 08:11:26 | 02:34:10 | 00:00:00 | |
| DL1XH-west | 2026-09-03 00:51:41 | 50.90057 | 8.48723 | 126° | 166km/h | 11899m | -8.7m/s | -57.3°C | 63.4% | 208.4hPa | 2.5V | 08:11:26 | 02:34:08 | 00:00:00 | |
| DL1XH1-15 | 2026-09-03 00:51:40 | 50.90204 | 8.48400 | 125° | 164km/h | 11951m | -8.7m/s | -57.5°C | 61.1% | 206.7hPa | 2.5V | 08:11:15 | 02:34:02 | 00:00:00 | |
| BIOWL1-15 | 2026-09-03 00:51:39 | 50.90082 | 8.48669 | 126° | 166km/h | 11908m | -8.7m/s | -57.2°C | 62.8% | 208.1hPa | 2.5V | 08:11:26 | 02:34:07 | 00:00:00 | |
| DJ2DS-15 | 2026-09-03 00:51:39 | 50.90106 | 8.48615 | 126° | 166km/h | 11916m | -8.6m/s | -57.3°C | 53.4% | 207.8hPa | 2.5V | 00:00:00 | 00:00:00 | 00:00:00 | |
| DO1YAY-16 | 2026-09-03 00:51:37 | 50.90131 | 8.48561 | 125° | 164km/h | 11925m | -8.5m/s | -57.3°C | 52.7% | 207.5hPa | 2.5V | 00:00:00 | 00:00:00 | 00:00:00 | |
| DJ2DS-15 | 2026-09-03 00:51:36 | 50.90155 | 8.48508 | 126° | 164km/h | 11934m | -8.6m/s | -57.3°C | 61.5% | 207.2hPa | 2.5V | 00:00:00 | 02:34:04 | 00:00:00 | |
| DO3MHA-12 | 2026-09-03 00:51:35 | 50.90180 | 8.48454 | 126° | 166km/h | 11943m | -8.7m/s | -57.4°C | 61.3% | 207.0hPa | 2.5V | 00:00:00 | 02:34:03 | 00:00:00 | |
| DM0DOS-11 | 2026-09-03 00:51:34 | 50.90324 | 8.48130 | 124° | 166km/h | 11995m | -9m/s | -57.8°C | 59.4% | 205.2hPa | 2.5V | 08:11:20 | 02:33:57 | 00:00:00 | |
| DL4XJ-10 | 2026-09-03 00:51:34 | 50.90204 | 8.48401 | 126° | 142km/h | 11951m | -8.7m/s | -56.5°C | 0% | 0hPa | 2.5V | 00:00:00 | 00:00:00 | 00:00:00 | |
| DL1NUX | 2026-09-03 00:51:32 | 50.90276 | 8.48239 | 125° | 166km/h | 11977m | -8.9m/s | -57.7°C | 60.4% | 205.8hPa | 2.5V | 08:11:18 | 02:33:59 | 00:00:00 | |
| HSKMA3-T | 2026-09-03 00:51:31 | 50.90276 | 8.48239 | 125° | 166km/h | 11977m | -8.9m/s | -57.7°C | 60.1% | 205.8hPa | 2.5V | 08:11:26 | 02:33:59 | 00:00:00 | |
| DL1XH-west | 2026-09-03 00:51:30 | 50.90300 | 8.48185 | 125° | 166km/h | 11986m | -8.8m/s | -57.8°C | 59.7% | 205.6hPa | 2.5V | 08:11:26 | 02:33:58 | 00:00:00 | |
| BUE01 | 2026-09-03 00:51:29 | 50.90324 | 8.48130 | 124° | 164km/h | 11995m | -9.0m/s | -57.8°C | 50.3% | 205.2hPa | 2.5V | 00:00:00 | 00:00:00 | 00:00:00 | |
| DL1XH1-15 | 2026-09-03 00:51:27 | 50.90445 | 8.47860 | 125° | 164km/h | 12040m | -9.1m/s | -58°C | 56.8% | 203.8hPa | 2.5V | 08:11:25 | 02:33:52 | 00:00:00 | |
| DL4BBY-15 | 2026-09-03 00:51:27 | 50.90373 | 8.48022 | 126° | 161km/h | 12014m | -9.1m/s | -57.0°C | 0% | 0hPa | 2.5V | 00:00:00 | 00:00:00 | 00:00:00 | |
| DL1NUX | 2026-09-03 00:51:25 | 50.90517 | 8.47699 | 125° | 164km/h | 12066m | -9m/s | -58.2°C | 55.6% | 202.9hPa | 2.5V | 08:11:28 | 02:33:49 | 00:00:00 | |
| DO3MHA-12 | 2026-09-03 00:51:25 | 50.90421 | 8.47914 | 126° | 164km/h | 12031m | -8.8m/s | -58.0°C | 57.6% | 204.1hPa | 2.4V | 00:00:00 | 02:33:53 | 00:00:00 | |
| DM0DOS-11 | 2026-09-03 00:51:24 | 50.90565 | 8.47592 | 125° | 162km/h | 12084m | -8.9m/s | -58.3°C | 54.7% | 202.3hPa | 2.4V | 08:11:30 | 02:33:47 | 00:00:00 | |
| HSKMA3-T | 2026-09-03 00:51:20 | 50.90541 | 8.47645 | 126° | 164km/h | 12075m | -9m/s | -58.3°C | 55% | 202.7hPa | 2.4V | 08:12:17 | 02:33:48 | 00:00:00 | |
| DL1XH-west | 2026-09-03 00:51:20 | 50.90565 | 8.47592 | 126° | 162km/h | 12084m | -8.9m/s | -58.3°C | 54.5% | 202.3hPa | 2.4V | 08:12:17 | 02:33:47 | 00:00:00 | |
| DJ8HS-15 | 2026-09-03 00:51:19 | 50.90565 | 8.47592 | 126° | 161km/h | 12084m | -8.9m/s | -58.3°C | 54.7% | 202.3hPa | 2.5V | 00:00:00 | 02:33:47 | 00:00:00 | |
| DK9SH | 2026-09-03 00:51:18 | 50.90565 | 8.47592 | 127° | 162km/h | 12084m | -8.9m/s | -58.3°C | 45.8% | 202.3hPa | 2.5V | 08:12:00 | 00:00:00 | 00:00:00 | |
| DL1XH1-15 | 2026-09-03 00:51:17 | 50.90683 | 8.47327 | 124° | 162km/h | 12129m | -9m/s | -58.6°C | 52.2% | 200.9hPa | 2.5V | 08:11:35 | 02:33:42 | 00:00:00 | |
| SONCRA | 2026-09-03 00:51:17 | 50.90613 | 8.47486 | 125° | 162km/h | 12102m | -8.9m/s | -58.4°C | 44.9% | 201.8hPa | 2.5V | 00:00:00 | 00:00:00 | 00:00:00 | |
| DJ2DS-15 | 2026-09-03 00:51:16 | 50.90636 | 8.47433 | 126° | 159km/h | 12111m | -8.5m/s | -58.4°C | 53.2% | 201.5hPa | 2.5V | 00:00:00 | 02:33:44 | 00:00:00 | |
| DL1NUX | 2026-09-03 00:51:15 | 50.90753 | 8.47169 | 124° | 161km/h | 12155m | -8.9m/s | -58.8°C | 51.2% | 200.1hPa | 2.5V | 08:11:38 | 02:33:39 | 00:00:00 | |
| DO3MHA-12 | 2026-09-03 00:51:15 | 50.90660 | 8.47380 | 126° | 161km/h | 12120m | -8.9m/s | -58.5°C | 52.7% | 201.2hPa | 2.5V | 00:00:00 | 02:33:43 | 00:00:00 | |
| DM0DOS-11 | 2026-09-03 00:51:14 | 50.90800 | 8.47065 | 125° | 159km/h | 12173m | -9.1m/s | -58.9°C | 50.2% | 199.6hPa | 2.5V | 08:11:40 | 02:33:37 | 00:00:00 | |
| DF7PN | 2026-09-03 00:51:13 | 50.90730 | 8.47222 | 124° | 159km/h | 12147m | -9.0m/s | -58.7°C | 42.7% | 200.4hPa | 2.5V | 00:00:00 | 00:00:00 | 00:00:00 | |
| BIOWL1-15 | 2026-09-03 00:51:13 | 50.90777 | 8.47117 | 125° | 159km/h | 12164m | -8.8m/s | -58.8°C | 50.5% | 199.8hPa | 2.5V | 08:12:17 | 02:33:38 | 00:00:00 | |
| DL1XH-15 | 2026-09-03 00:51:11 | 50.90870 | 8.46910 | 125° | 159km/h | 12200m | -8.8m/s | -59.1°C | 48.8% | 198.6hPa | 2.5V | 08:11:43 | 02:33:34 | 00:00:00 | |
| HSKMA3-T | 2026-09-03 00:51:09 | 50.90800 | 8.47065 | 125° | 159km/h | 12173m | -9.1m/s | -58.9°C | 50% | 199.6hPa | 2.5V | 08:12:17 | 02:33:37 | 00:00:00 | |
| DL3AQ-11 | 2026-09-03 00:51:09 | 50.90823 | 8.47013 | 125° | 159km/h | 12182m | -8.9m/s | -59.0°C | 41.1% | 199.2hPa | 2.5V | 00:00:00 | 00:00:00 | 00:00:00 | |
| DL1NUX | 2026-09-03 00:51:06 | 50.90989 | 8.46655 | 126° | 159km/h | 12243m | -8.7m/s | -59.4°C | 45.9% | 197.3hPa | 2.5V | 08:11:48 | 02:33:29 | 00:00:00 | |
| BIOWL1-15 | 2026-09-03 00:51:01 | 50.91012 | 8.46604 | 127° | 159km/h | 12252m | -8.9m/s | -59.4°C | 44.6% | 197hPa | 2.5V | 08:12:17 | 02:33:28 | 00:00:00 | |
| DM0DOS-11 | 2026-09-03 00:51:01 | 50.91037 | 8.46553 | 126° | 159km/h | 12261m | -9m/s | -59.5°C | 44.4% | 196.7hPa | 2.5V | 08:11:50 | 02:33:27 | 00:00:00 | |
| HSKMA3-T | 2026-09-03 00:50:59 | 50.91037 | 8.46553 | 127° | 159km/h | 12261m | -9m/s | -59.5°C | 43.9% | 196.7hPa | 2.5V | 08:12:17 | 02:33:27 | 00:00:00 | |
| DL3AQ-11 | 2026-09-03 00:50:58 | 50.91085 | 8.46452 | 127° | 157km/h | 12279m | -9.1m/s | -59.5°C | 34.9% | 196.2hPa | 2.5V | 00:00:00 | 00:00:00 | 00:00:00 | |
| DL4BBY-15 | 2026-09-03 00:50:57 | 50.91085 | 8.46452 | 128° | 144km/h | 12279m | -9.0m/s | -58.6°C | 0% | 0hPa | 2.5V | 00:00:00 | 00:00:00 | 00:00:00 | |
| DJ2DS-15 | 2026-09-03 00:50:56 | 50.91109 | 8.46402 | 128° | 148km/h | 12288m | -8.8m/s | -59.5°C | 42.2% | 195.8hPa | 2.5V | 08:11:00 | 02:33:24 | 00:00:00 | |
| DL1NUX | 2026-09-03 00:50:55 | 50.91229 | 8.46158 | 128° | 151km/h | 12333m | -9.1m/s | -59.7°C | 39% | 194.5hPa | 2.5V | 08:11:58 | 02:33:19 | 00:00:00 | |
| DM0DOS-11 | 2026-09-03 00:50:55 | 50.91276 | 8.46063 | 128° | 150km/h | 12351m | -9.1m/s | -59.8°C | 38.4% | 193.9hPa | 2.5V | 08:12:00 | 02:33:17 | 00:00:00 | |
| DL1XH-west | 2026-09-03 00:50:48 | 50.91299 | 8.46016 | 128° | 150km/h | 12360m | -8.9m/s | -59.9°C | 36.9% | 193.6hPa | 2.5V | 08:12:17 | 02:33:16 | 00:00:00 | |
| EDDB2-11 | 2026-09-03 00:50:48 | 50.91299 | 8.46016 | 128° | 148km/h | 12360m | -8.9m/s | -59.9°C | 30.1% | 193.6hPa | 2.4V | 00:00:00 | 00:00:00 | 00:00:00 | |
| SONCRA | 2026-09-03 00:50:46 | 50.91346 | 8.45923 | 128° | 146km/h | 12378m | -9.1m/s | -60.0°C | 29.2% | 193.0hPa | 2.4V | 00:00:00 | 00:00:00 | 00:00:00 | |
| DJ2KF-10 | 2026-09-03 00:50:45 | 50.91369 | 8.45877 | 129° | 135km/h | 12387m | -9.2m/s | -60.0°C | 36.3% | 192.7hPa | 2.4V | 00:00:00 | 02:33:13 | 00:00:00 | |
| DO2KSM | 2026-09-03 00:50:44 | 50.91392 | 8.45832 | 129° | 146km/h | 12397m | -9.2m/s | -60.1°C | 28.3% | 192.5hPa | 2.5V | 08:12:00 | 00:00:00 | 00:00:00 | |
| DM0DOS-11 | 2026-09-03 00:50:43 | 50.91504 | 8.45606 | 127° | 141km/h | 12442m | -9.1m/s | -60.1°C | 33.3% | 191.1hPa | 2.5V | 08:12:10 | 02:33:07 | 00:00:00 | |
| DO3MHA-11 | 2026-09-03 00:50:41 | 50.91460 | 8.45696 | 128° | 139km/h | 12424m | -9.0m/s | -60.1°C | 34.4% | 191.6hPa | 2.5V | 00:00:00 | 02:33:09 | 00:00:00 | |
| DO9LL-15 | 2026-09-03 00:50:40 | 50.91482 | 8.45651 | 128° | 133km/h | 12433m | -8.9m/s | -60.1°C | 33.9% | 191.3hPa | 2.5V | 00:00:00 | 02:33:08 | 00:00:00 | |
| DL1XH1-15 | 2026-09-03 00:50:39 | 50.91610 | 8.45381 | 125° | 137km/h | 12487m | -9.4m/s | -60.3°C | 31.6% | 189.7hPa | 2.5V | 08:12:15 | 02:33:02 | 00:00:00 | |
| HSKMA3-T | 2026-09-03 00:50:38 | 50.91526 | 8.45561 | 127° | 141km/h | 12451m | -9.1m/s | -60.2°C | 31.5% | 190.8hPa | 2.4V | 08:12:17 | 02:33:06 | 00:00:00 | |
| DL1XH-west | 2026-09-03 00:50:37 | 50.91547 | 8.45515 | 127° | 141km/h | 12460m | -9.2m/s | -60.2°C | 31.1% | 190.5hPa | 2.5V | 08:12:17 | 02:33:05 | 00:00:00 | |
| AM1SDL-15 | 2026-09-03 00:50:37 | 50.91547 | 8.45515 | 127° | 137km/h | 12460m | -9.1m/s | -60.1°C | 32.6% | 190.5hPa | 2.5V | 08:12:00 | 02:33:05 | 00:00:00 | |
| DJ2DS-15 | 2026-09-03 00:50:36 | 50.91568 | 8.45471 | 127° | 133km/h | 12469m | -9.0m/s | -60.2°C | 32.3% | 190.2hPa | 2.5V | 00:00:00 | 02:33:04 | 00:00:00 | |
| DO3MHA-12 | 2026-09-03 00:50:35 | 50.91589 | 8.45426 | 126° | 135km/h | 12478m | -9.2m/s | -60.2°C | 32.1% | 189.9hPa | 2.5V | 00:00:00 | 02:33:03 | 00:00:00 | |
| DD8BA-10 | 2026-09-03 00:50:34 | 50.91610 | 8.45381 | 126° | 133km/h | 12487m | -9.3m/s | -60.2°C | 31.6% | 189.6hPa | 2.5V | 00:00:00 | 00:00:00 | 00:00:00 | |
| DM0DOS-11 | 2026-09-03 00:50:33 | 50.91706 | 8.45159 | 123° | 133km/h | 12533m | -9.3m/s | -60.3°C | 29.1% | 188.2hPa | 2.5V | 08:12:20 | 02:32:57 | 00:00:00 | |
| DL1NUX | 2026-09-03 00:50:33 | 50.91725 | 8.45114 | 122° | 133km/h | 12543m | -9.2m/s | -60.3°C | 28.7% | 188hPa | 2.5V | 08:12:21 | 02:32:56 | 00:00:00 | |
| DL8DAS-14 | 2026-09-03 00:50:32 | 50.91669 | 8.45248 | 124° | 135km/h | 12515m | -9.2m/s | -60.2°C | 23.1% | 188.8hPa | 2.5V | 00:00:00 | 00:00:00 | 00:00:00 | |
| DO3MHA-11 | 2026-09-03 00:50:31 | 50.91669 | 8.45248 | 125° | 131km/h | 12515m | -9.1m/s | -60.2°C | 30.1% | 188.8hPa | 2.5V | 08:12:00 | 02:32:59 | 00:00:00 | |
| BIOWL9-15 | 2026-09-03 00:50:30 | 50.91706 | 8.45159 | 123° | 133km/h | 12533m | -9.3m/s | -60.3°C | 22.1% | 188.3hPa | 2.5V | 00:00:00 | 00:00:00 | 00:00:00 | |
| DL1XH1-15 | 2026-09-03 00:50:29 | 50.91810 | 8.44889 | 119° | 130km/h | 12590m | -9.5m/s | -60.1°C | 26% | 186.6hPa | 2.5V | 08:12:26 | 02:32:51 | 00:00:00 | |
| HSKMA3-T | 2026-09-03 00:50:28 | 50.91725 | 8.45114 | 123° | 133km/h | 12543m | -9.3m/s | -60.3°C | 26.7% | 188hPa | 2.5V | 08:13:08 | 02:32:56 | 00:00:00 | |
| DL1XH-west | 2026-09-03 00:50:27 | 50.91743 | 8.45069 | 122° | 131km/h | 12552m | -9.5m/s | -60.3°C | 26.2% | 187.7hPa | 2.4V | 08:13:08 | 02:32:55 | 00:00:00 | |
| BIOWL1-15 | 2026-09-03 00:50:26 | 50.91826 | 8.44844 | 119° | 130km/h | 12599m | -9.3m/s | -60.1°C | 23.4% | 186.4hPa | 2.5V | 08:13:08 | 02:32:50 | 00:00:00 | |
| DO3MHA-12 | 2026-09-03 00:50:25 | 50.91777 | 8.44979 | 121° | 130km/h | 12571m | -9.3m/s | -60.2°C | 27.1% | 187.1hPa | 2.4V | 00:00:00 | 02:32:53 | 00:00:00 | |
| DO3DL | 2026-09-03 00:50:24 | 50.91777 | 8.44979 | 122° | 131km/h | 12571m | -9.3m/s | -60.2°C | 20.4% | 187.1hPa | 2.4V | 08:13:00 | 00:00:00 | 00:00:00 | |
| DL1NUX | 2026-09-03 00:50:23 | 50.91886 | 8.44661 | 116° | 130km/h | 12637m | -9.6m/s | -60.1°C | 23.7% | 185.2hPa | 2.4V | 08:12:31 | 02:32:46 | 00:00:00 | |
| DM0DOS-11 | 2026-09-03 00:50:22 | 50.91872 | 8.44707 | 117° | 130km/h | 12627m | -9.4m/s | -60.1°C | 24% | 185.5hPa | 2.5V | 08:12:30 | 02:32:47 | 00:00:00 | |
| DL1XH-15 | 2026-09-03 00:50:22 | 50.91901 | 8.44614 | 115° | 131km/h | 12646m | -9.4m/s | -60°C | 23.2% | 185hPa | 2.5V | 08:12:32 | 02:32:45 | 00:00:00 | |
| SO1NDE-10 | 2026-09-03 00:50:22 | 50.91826 | 8.44844 | 119° | 135km/h | 12599m | -9.3m/s | -60.1°C | 25.5% | 186.3hPa | 2.5V | 00:00:00 | 02:32:50 | 00:00:00 | |
| DO3MHA-11 | 2026-09-03 00:50:21 | 50.91841 | 8.44799 | 119° | 131km/h | 12609m | -9.4m/s | -60.1°C | 25.0% | 186.0hPa | 2.5V | 00:00:00 | 02:32:49 | 00:00:00 | |
| DJ8HS-15 | 2026-09-03 00:50:19 | 50.91871 | 8.44707 | 118° | 137km/h | 12628m | -9.3m/s | -60.0°C | 24.0% | 185.4hPa | 2.5V | 00:00:00 | 02:32:47 | 00:00:00 | |
| DL1XH1-15 | 2026-09-03 00:50:18 | 50.91957 | 8.44422 | 114° | 133km/h | 12684m | -9.5m/s | -59.7°C | 21.1% | 183.8hPa | 2.5V | 08:12:36 | 02:32:41 | 00:00:00 | |
| HSKMA3-T | 2026-09-03 00:50:17 | 50.91901 | 8.44614 | 116° | 131km/h | 12646m | -9.5m/s | -60°C | 20.9% | 185hPa | 2.5V | 08:13:08 | 02:32:45 | 00:00:00 | |
| DL1XH-west | 2026-09-03 00:50:16 | 50.91915 | 8.44567 | 116° | 131km/h | 12656m | -9.2m/s | -59.9°C | 20.3% | 184.7hPa | 2.5V | 08:13:08 | 02:32:44 | 00:00:00 | |
| DJ2DS-15 | 2026-09-03 00:50:16 | 50.91915 | 8.44567 | 116° | 137km/h | 12656m | -9.2m/s | -59.9°C | 22.6% | 184.6hPa | 2.5V | 00:00:00 | 02:32:44 | 00:00:00 | |
| DO3MHA-12 | 2026-09-03 00:50:15 | 50.91929 | 8.44519 | 115° | 137km/h | 12665m | -9.4m/s | -59.8°C | 22.1% | 184.4hPa | 2.5V | 00:00:00 | 02:32:43 | 00:00:00 | |
| DD1CC8 | 2026-09-03 00:50:14 | 50.91957 | 8.44422 | 114° | 133km/h | 12684m | -9.5m/s | -59.7°C | 15.2% | 183.8hPa | 2.5V | 00:00:00 | 00:00:00 | 00:00:00 | |
| DL1NUX | 2026-09-03 00:50:13 | 50.92028 | 8.44172 | 114° | 141km/h | 12731m | -9.4m/s | -59.3°C | 18.9% | 182.5hPa | 2.5V | 08:12:41 | 02:32:36 | 00:00:00 | |
| DM0DOS-11 | 2026-09-03 00:50:12 | 50.92014 | 8.44223 | 114° | 139km/h | 12721m | -9.3m/s | -59.4°C | 19.3% | 182.7hPa | 2.5V | 08:12:40 | 02:32:37 | 00:00:00 | |
| DL1XH-15 | 2026-09-03 00:50:11 | 50.92044 | 8.44121 | 115° | 141km/h | 12740m | -9.5m/s | -59.2°C | 18.5% | 182.2hPa | 2.5V | 08:12:42 | 02:32:35 | 00:00:00 | |
| DO3MHA-11 | 2026-09-03 00:50:11 | 50.91985 | 8.44323 | 115° | 141km/h | 12703m | -9.3m/s | -59.6°C | 20.4% | 183.3hPa | 2.5V | 00:00:00 | 02:32:39 | 00:00:00 | |
| DO9LL-15 | 2026-09-03 00:50:10 | 50.91999 | 8.44273 | 115° | 135km/h | 12712m | -9.6m/s | -59.6°C | 20.0% | 182.9hPa | 2.5V | 00:00:00 | 02:32:38 | 00:00:00 | |
| DL1XH1-15 | 2026-09-03 00:50:08 | 50.92105 | 8.43918 | 116° | 141km/h | 12778m | -9.5m/s | -59.2°C | 17.4% | 181.1hPa | 2.5V | 08:12:46 | 02:32:31 | 00:00:00 | |
| DL1XH-west | 2026-09-03 00:50:06 | 50.92059 | 8.44070 | 115° | 141km/h | 12750m | -9.5m/s | -59.2°C | 15.8% | 181.9hPa | 2.4V | 08:13:08 | 02:32:34 | 00:00:00 | |
| DO3MHA-12 | 2026-09-03 00:50:05 | 50.92074 | 8.44019 | 116° | 137km/h | 12759m | -9.4m/s | -59.1°C | 17.9% | 181.6hPa | 2.5V | 00:00:00 | 02:32:33 | 00:00:00 | |
| DO1YAY-16 | 2026-09-03 00:50:04 | 50.92090 | 8.43969 | 116° | 141km/h | 12768m | -9.7m/s | -59.2°C | 12.3% | 181.3hPa | 2.5V | 00:00:00 | 00:00:00 | 00:00:00 | |
| DL1NUX | 2026-09-03 00:50:03 | 50.92188 | 8.43674 | 119° | 135km/h | 12825m | -9.4m/s | -58.8°C | 15.6% | 179.7hPa | 2.5V | 08:12:51 | 02:32:26 | 00:00:00 | |
| DL3AQ-11 | 2026-09-03 00:50:02 | 50.92138 | 8.43819 | 117° | 139km/h | 12797m | -9.5m/s | -58.9°C | 11.3% | 180.5hPa | 2.5V | 00:00:00 | 00:00:00 | 00:00:00 | |
| DM0DOS-11 | 2026-09-03 00:50:01 | 50.92171 | 8.43722 | 118° | 137km/h | 12815m | -9.6m/s | -58.8°C | 15.8% | 180hPa | 2.5V | 08:12:50 | 02:32:27 | 00:00:00 | |
| DL8DAS-14 | 2026-09-03 00:50:01 | 50.92154 | 8.43770 | 118° | 137km/h | 12806m | -9.4m/s | -58.8°C | 11.0% | 180.3hPa | 2.4V | 00:00:00 | 00:00:00 | 00:00:00 | |
| AU51GT2 | 2026-09-03 00:49:59 | 50.92188 | 8.43674 | 119° | 135km/h | 12825m | -9.4m/s | -58.8°C | 10.5% | 179.7hPa | 2.4V | 00:00:00 | 00:00:00 | 00:00:00 | |
| DL1XH1-15 | 2026-09-03 00:49:58 | 50.92268 | 8.43445 | 118° | 130km/h | 12870m | -9.1m/s | -58.5°C | 13.6% | 178.5hPa | 2.4V | 08:12:56 | 02:32:21 | 00:00:00 | |
| DL1XH-west | 2026-09-03 00:49:56 | 50.92252 | 8.43491 | 118° | 130km/h | 12860m | -8.9m/s | -58.6°C | 11.2% | 178.7hPa | 2.4V | 08:13:08 | 02:32:22 | 00:00:00 | |
| HSKMA3-T | 2026-09-03 00:49:55 | 50.92237 | 8.43536 | 119° | 130km/h | 12852m | -8.7m/s | -58.6°C | 11.7% | 178.9hPa | 2.5V | 08:13:08 | 02:32:23 | 00:00:00 | |
| DJ2DS-15 | 2026-09-03 00:49:55 | 50.92252 | 8.43490 | 118° | 130km/h | 12861m | -8.8m/s | -58.5°C | 14.0% | 178.7hPa | 2.4V | 00:00:00 | 02:32:22 | 00:00:00 | |
| DL1NUX | 2026-09-03 00:49:54 | 50.92346 | 8.43215 | 118° | 131km/h | 12916m | -9.5m/s | -57.6°C | 11.2% | 177.1hPa | 2.5V | 08:13:01 | 02:32:16 | 00:00:00 | |
| BIOWL1-15 | 2026-09-03 00:49:50 | 50.92314 | 8.43307 | 118° | 130km/h | 12897m | -9.5m/s | -58°C | 9.3% | 177.7hPa | 2.5V | 08:13:08 | 02:32:18 | 00:00:00 | |
| DM0DOS-11 | 2026-09-03 00:49:50 | 50.92330 | 8.43261 | 118° | 131km/h | 12907m | -9.3m/s | -57.8°C | 11.7% | 177.4hPa | 2.5V | 08:13:00 | 02:32:17 | 00:00:00 | |
| HSKMA3-T | 2026-09-03 00:49:45 | 50.92395 | 8.43076 | 120° | 135km/h | 12945m | -9.3m/s | -57.1°C | 7.5% | 176.3hPa | 2.5V | 08:13:08 | 02:32:13 | 00:00:00 | |
| DL1XH-west | 2026-09-03 00:49:44 | 50.92412 | 8.43030 | 121° | 133km/h | 12954m | -9.8m/s | -57°C | 7.1% | 176.1hPa | 2.5V | 08:13:08 | 02:32:12 | 00:00:00 | |
| DB0UT-7 | 2026-09-03 00:49:44 | 50.92412 | 8.43030 | 122° | 122km/h | 12954m | -9.8m/s | -57.0°C | 9.7% | 176.0hPa | 2.5V | 00:00:00 | 00:00:00 | 00:00:00 | |
| DL1NUX | 2026-09-03 00:49:43 | 50.92515 | 8.42766 | 121° | 126km/h | 13012m | -9.5m/s | -56.7°C | 8.6% | 174.5hPa | 2.5V | 08:13:11 | 02:32:06 | 00:00:00 | |
| BIOWL1-15 | 2026-09-03 00:49:39 | 50.92565 | 8.42638 | 122° | 124km/h | 13041m | -9.4m/s | -56.2°C | 5.3% | 173.7hPa | 2.5V | 08:13:59 | 02:32:03 | 00:00:00 | |
| DL1XH-west | 2026-09-03 00:49:34 | 50.92582 | 8.42596 | 122° | 124km/h | 13050m | -9.4m/s | -56°C | 5.1% | 173.4hPa | 2.5V | 08:13:59 | 02:32:02 | 00:00:00 | |
| DJ2DS-15 | 2026-09-03 00:49:34 | 50.92582 | 8.42596 | 122° | 119km/h | 13050m | -9.4m/s | -56.0°C | 7.7% | 173.4hPa | 2.5V | 00:00:00 | 02:32:02 | 00:00:00 | |
| DL1XH-15 | 2026-09-03 00:49:33 | 50.92614 | 8.42512 | 120° | 122km/h | 13069m | -9.5m/s | -55.8°C | 7.4% | 172.9hPa | 2.5V | 08:13:17 | 02:32:00 | 00:00:00 | |
| BIOWL1-15 | 2026-09-03 00:49:29 | 50.92694 | 8.42304 | 122° | 120km/h | 13116m | -9.8m/s | -55.6°C | 4.4% | 171.6hPa | 2.5V | 08:13:59 | 02:31:55 | 00:00:00 | |
| DL1LOL-11 | 2026-09-03 00:49:28 | 50.92662 | 8.42386 | 123° | 122km/h | 13097m | -9.2m/s | -55.7°C | 3.9% | 172.2hPa | 2.6V | 00:00:00 | 00:00:00 | 00:00:00 | |
| DL4BBY-15 | 2026-09-03 00:49:27 | 50.92694 | 8.42304 | 123° | 113km/h | 13116m | -9.8m/s | -54.6°C | 0% | 0hPa | 2.6V | 00:00:00 | 00:00:00 | 00:00:00 | |
| DL1XH1-15 | 2026-09-03 00:49:26 | 50.92759 | 8.42147 | 122° | 115km/h | 13153m | -9.4m/s | -55.5°C | 6.9% | 170.6hPa | 2.6V | 08:13:26 | 02:31:51 | 00:00:00 | |
| DL1XH-15 | 2026-09-03 00:49:26 | 50.92775 | 8.42109 | 123° | 115km/h | 13163m | -9.2m/s | -55.5°C | 6.8% | 170.4hPa | 2.5V | 08:13:27 | 02:31:50 | 00:00:00 | |
| HSKMA3-T | 2026-09-03 00:49:23 | 50.92759 | 8.42147 | 123° | 115km/h | 13153m | -9.4m/s | -55.5°C | 4.3% | 170.7hPa | 2.6V | 08:13:59 | 02:31:51 | 00:00:00 | |
| DD1CC3-15 | 2026-09-03 00:49:22 | 50.92775 | 8.42109 | 125° | 115km/h | 13163m | -9.2m/s | -55.5°C | 3.7% | 170.4hPa | 2.5V | 08:13:00 | 00:00:00 | 00:00:00 | |
| DO2KSM | 2026-09-03 00:49:21 | 50.92775 | 8.42109 | 125° | 115km/h | 13163m | -9.2m/s | -55.5°C | 3.6% | 170.4hPa | 2.5V | 08:13:00 | 00:00:00 | 00:00:00 | |
| DJ8HS-15 | 2026-09-03 00:49:19 | 50.92822 | 8.41996 | 122° | 111km/h | 13190m | -9.3m/s | -55.5°C | 6.9% | 169.6hPa | 2.5V | 00:00:00 | 02:31:47 | 00:00:00 | |
| DL1XH1-15 | 2026-09-03 00:49:18 | 50.92923 | 8.41758 | 128° | 120km/h | 13247m | -10.1m/s | -55.5°C | 6.7% | 168.2hPa | 2.5V | 08:13:36 | 02:31:41 | 00:00:00 | |
| BIOWL1-15 | 2026-09-03 00:49:17 | 50.92853 | 8.41917 | 122° | 120km/h | 13209m | -9.1m/s | -55.7°C | 4.1% | 169.2hPa | 2.5V | 08:13:59 | 02:31:45 | 00:00:00 | |
| DO3MHA-12 | 2026-09-03 00:49:15 | 50.92886 | 8.41836 | 125° | 108km/h | 13227m | -9.6m/s | -55.5°C | 6.7% | 168.7hPa | 2.5V | 08:13:00 | 02:31:43 | 00:00:00 | |
| DM0DOS-11 | 2026-09-03 00:49:14 | 50.93010 | 8.41596 | 125° | 93km/h | 13290m | -9m/s | -55.3°C | 6.3% | 167hPa | 2.5V | 08:13:41 | 02:31:36 | 00:00:00 | |
| DJ2KF-10 | 2026-09-03 00:49:14 | 50.92904 | 8.41797 | 127° | 106km/h | 13237m | -10.0m/s | -55.5°C | 6.7% | 168.4hPa | 2.5V | 00:00:00 | 02:31:42 | 00:00:00 | |
| DL1XH-15 | 2026-09-03 00:49:13 | 50.92942 | 8.41722 | 130° | 115km/h | 13256m | -9.3m/s | -55.4°C | 6.6% | 167.9hPa | 2.5V | 08:13:37 | 02:31:40 | 00:00:00 | |
| HSKMA3-T | 2026-09-03 00:49:13 | 50.92923 | 8.41758 | 128° | 120km/h | 13247m | -10.1m/s | -55.6°C | 3.9% | 168.2hPa | 2.5V | 08:13:59 | 02:31:41 | 00:00:00 | |
| DL1XH-west | 2026-09-03 00:49:12 | 50.92942 | 8.41722 | 130° | 115km/h | 13256m | -9.3m/s | -55.4°C | 3.9% | 167.9hPa | 2.5V | 08:13:59 | 02:31:40 | 00:00:00 | |
| DO9LL-15 | 2026-09-03 00:49:10 | 50.92978 | 8.41656 | 132° | 102km/h | 13274m | -8.2m/s | -55.2°C | 6.4% | 167.4hPa | 2.5V | 00:00:00 | 02:31:38 | 00:00:00 | |
| DL3AQ-11 | 2026-09-03 00:49:09 | 50.93009 | 8.41596 | 125° | 93km/h | 13290m | -9.0m/s | -55.3°C | 3.2% | 167.0hPa | 2.5V | 00:00:00 | 00:00:00 | 00:00:00 | |
| DF7PN | 2026-09-03 00:49:08 | 50.93009 | 8.41596 | 125° | 93km/h | 13290m | -9.0m/s | -55.3°C | 3.2% | 167.0hPa | 2.5V | 00:00:00 | 00:00:00 | 00:00:00 | |
| DL1XH1-15 | 2026-09-03 00:49:07 | 50.93070 | 8.41422 | 116° | 111km/h | 13336m | -9m/s | -55.4°C | 6.5% | 165.8hPa | 2.5V | 08:13:46 | 02:31:31 | 00:00:00 | |
| BIOWL1-15 | 2026-09-03 00:49:07 | 50.93070 | 8.41422 | 116° | 111km/h | 13336m | -9m/s | -55.4°C | 3.7% | 165.8hPa | 2.5V | 08:13:59 | 02:31:31 | 00:00:00 | |
| DO3DL | 2026-09-03 00:49:06 | 50.93023 | 8.41564 | 123° | 95km/h | 13300m | -9.8m/s | -55.4°C | 3.2% | 166.7hPa | 2.5V | 08:13:00 | 00:00:00 | 00:00:00 | |
| DO3MHA-12 | 2026-09-03 00:49:05 | 50.93046 | 8.41497 | 118° | 115km/h | 13319m | -8.6m/s | -55.3°C | 6.4% | 166.2hPa | 2.5V | 00:00:00 | 02:31:33 | 00:00:00 | |
| DM0DOS-11 | 2026-09-03 00:49:03 | 50.93130 | 8.41255 | 125° | 124km/h | 13369m | -8.3m/s | -55.5°C | 6.5% | 164.9hPa | 2.5V | 08:13:50 | 02:31:27 | 00:00:00 | |
| HSKMA3-T | 2026-09-03 00:49:02 | 50.93083 | 8.41381 | 118° | 117km/h | 13345m | -9.1m/s | -55.4°C | 3.7% | 165.6hPa | 2.5V | 08:13:59 | 02:31:30 | 00:00:00 | |
| DL1XH-west | 2026-09-03 00:49:01 | 50.93097 | 8.41339 | 119° | 120km/h | 13354m | -7.9m/s | -55.4°C | 3.7% | 165.3hPa | 2.5V | 08:13:59 | 02:31:29 | 00:00:00 | |
| DL8DAS-14 | 2026-09-03 00:48:59 | 50.93149 | 8.41216 | 128° | 120km/h | 13378m | -8.0m/s | -55.5°C | 3.3% | 164.8hPa | 2.5V | 00:00:00 | 00:00:00 | 00:00:00 | |
| DL3AQ-11 | 2026-09-03 00:48:58 | 50.93168 | 8.41179 | 130° | 115km/h | 13386m | -8.2m/s | -55.6°C | 3.3% | 164.5hPa | 2.5V | 00:00:00 | 00:00:00 | 00:00:00 | |
| AU51GT2 | 2026-09-03 00:48:56 | 50.93187 | 8.41145 | 131° | 108km/h | 13394m | -8.8m/s | -55.6°C | 3.3% | 164.3hPa | 2.5V | 00:00:00 | 00:00:00 | 00:00:00 | |
| DL1XH1-15 | 2026-09-03 00:48:55 | 50.93236 | 8.41055 | 127° | 91km/h | 13420m | -8.8m/s | -55.4°C | 6.3% | 163.6hPa | 2.5V | 08:13:56 | 02:31:21 | 00:00:00 | |
| BIOWL1-15 | 2026-09-03 00:48:54 | 50.93221 | 8.41084 | 131° | 97km/h | 13412m | -8.3m/s | -55.6°C | 3.5% | 163.8hPa | 2.5V | 08:13:59 | 02:31:22 | 00:00:00 | |
| BUE01 | 2026-09-03 00:48:54 | 50.93236 | 8.41055 | 127° | 89km/h | 13420m | -8.8m/s | -55.4°C | 3.2% | 163.6hPa | 2.5V | 00:00:00 | 00:00:00 | 00:00:00 | |
| DL1NUX | 2026-09-03 00:48:53 | 50.93295 | 8.40903 | 116° | 95km/h | 13462m | -7.7m/s | -55.2°C | 6.2% | 162.5hPa | 2.5V | 08:14:01 | 02:31:16 | 00:00:00 | |
| HSKMA3-T | 2026-09-03 00:48:52 | 50.93250 | 8.41026 | 125° | 88km/h | 13429m | -8.9m/s | -55.3°C | 3.4% | 163.5hPa | 2.6V | 08:13:59 | 02:31:20 | 00:00:00 | |
| SO1NDE-10 | 2026-09-03 00:48:52 | 50.93250 | 8.41026 | 126° | 95km/h | 13429m | -8.8m/s | -55.2°C | 6.2% | 163.4hPa | 2.5V | 00:00:00 | 02:31:20 | 00:00:00 | |
| DM0DOS-11 | 2026-09-03 00:48:51 | 50.93284 | 8.40936 | 118° | 89km/h | 13455m | -8m/s | -55.2°C | 6.2% | 162.7hPa | 2.5V | 08:14:00 | 02:31:17 | 00:00:00 | |
| DL1XH-west | 2026-09-03 00:48:51 | 50.93262 | 8.40997 | 122° | 88km/h | 13438m | -8.9m/s | -55.2°C | 3.4% | 163.2hPa | 2.6V | 08:13:59 | 02:31:19 | 00:00:00 | |
| DO3MHA-11 | 2026-09-03 00:48:51 | 50.93262 | 8.40997 | 123° | 99km/h | 13438m | -8.9m/s | -55.2°C | 6.2% | 163.1hPa | 2.5V | 00:00:00 | 02:31:19 | 00:00:00 | |
| DL1XH-15 | 2026-09-03 00:48:47 | 50.93374 | 8.40696 | 128° | 95km/h | 13512m | -8.5m/s | -55.2°C | 6.2% | 161.3hPa | 2.5V | 08:14:07 | 02:31:10 | 00:00:00 | |
| DL1XH1-15 | 2026-09-03 00:48:45 | 50.93359 | 8.40727 | 126° | 100km/h | 13504m | -8.7m/s | -55.2°C | 6.2% | 161.5hPa | 2.5V | 08:14:06 | 02:31:11 | 00:00:00 | |
| EDDB2-11 | 2026-09-03 00:48:44 | 50.93345 | 8.40760 | 123° | 104km/h | 13495m | -8.7m/s | -55.2°C | 3.2% | 161.7hPa | 2.5V | 00:00:00 | 00:00:00 | 00:00:00 | |
| BIOWL1-15 | 2026-09-03 00:48:43 | 50.93374 | 8.40696 | 128° | 95km/h | 13513m | -8.5m/s | -55.2°C | 3.4% | 161.3hPa | 2.5V | 08:14:50 | 02:31:10 | 00:00:00 | |
| DL1NUX | 2026-09-03 00:48:43 | 50.93422 | 8.40580 | 115° | 86km/h | 13549m | -8.4m/s | -54.9°C | 6.2% | 160.4hPa | 2.5V | 08:14:11 | 02:31:06 | 00:00:00 | |
| DD8BA-10 | 2026-09-03 00:48:43 | 50.93360 | 8.40727 | 127° | 95km/h | 13504m | -8.6m/s | -55.2°C | 6.2% | 161.5hPa | 2.6V | 00:00:00 | 00:00:00 | 00:00:00 | |
| DL3AQ-11 | 2026-09-03 00:48:42 | 50.93388 | 8.40667 | 127° | 88km/h | 13521m | -8.9m/s | -55.2°C | 3.1% | 161.1hPa | 2.6V | 00:00:00 | 00:00:00 | 00:00:00 | |
| DM0DOS-11 | 2026-09-03 00:48:41 | 50.93412 | 8.40610 | 119° | 84km/h | 13540m | -9.5m/s | -55°C | 6.2% | 160.6hPa | 2.6V | 08:14:10 | 02:31:07 | 00:00:00 | |
| AA1-15 | 2026-09-03 00:48:41 | 50.93388 | 8.40667 | 127° | 88km/h | 13521m | -8.9m/s | -55.2°C | 3.4% | 161.1hPa | 2.5V | 08:14:50 | 02:31:09 | 00:00:00 | |
| DL1XH-west | 2026-09-03 00:48:40 | 50.93401 | 8.40639 | 124° | 84km/h | 13530m | -9.4m/s | -55.1°C | 3.4% | 160.8hPa | 2.5V | 08:14:50 | 02:31:08 | 00:00:00 | |
| DO9LL-15 | 2026-09-03 00:48:40 | 50.93401 | 8.40639 | 124° | 97km/h | 13531m | -9.4m/s | -55.1°C | 6.2% | 160.8hPa | 2.6V | 00:00:00 | 02:31:08 | 00:00:00 | |
| DJ8HS-15 | 2026-09-03 00:48:39 | 50.93412 | 8.40610 | 120° | 95km/h | 13540m | -9.5m/s | -55.0°C | 6.2% | 160.5hPa | 2.6V | 00:00:00 | 02:31:07 | 00:00:00 | |
| DJ2DS-15 | 2026-09-03 00:48:38 | 50.93422 | 8.40580 | 115° | 86km/h | 13549m | -8.4m/s | -54.9°C | 3.1% | 160.4hPa | 2.5V | 00:00:00 | 00:00:00 | 00:00:00 | |
| DL1XH-15 | 2026-09-03 00:48:37 | 50.93485 | 8.40359 | 119° | 106km/h | 13602m | -9.9m/s | -54.7°C | 6.2% | 159.1hPa | 2.5V | 08:14:17 | 02:31:00 | 00:00:00 | |
| DL1XH1-15 | 2026-09-03 00:48:35 | 50.93473 | 8.40397 | 117° | 110km/h | 13592m | -9.9m/s | -54.7°C | 6.1% | 159.3hPa | 2.5V | 08:14:16 | 02:31:01 | 00:00:00 | |
| DO3MHA-12 | 2026-09-03 00:48:35 | 50.93450 | 8.40475 | 113° | 95km/h | 13574m | -8.3m/s | -54.6°C | 6.1% | 159.7hPa | 2.5V | 00:00:00 | 02:31:03 | 00:00:00 | |
| DJ2DS-15 | 2026-09-03 00:48:34 | 50.93460 | 8.40436 | 115° | 100km/h | 13583m | -8.9m/s | -54.6°C | 6.1% | 159.5hPa | 2.5V | 00:00:00 | 02:31:02 | 00:00:00 | |
| DL1NUX | 2026-09-03 00:48:33 | 50.93532 | 8.40229 | 115° | 80km/h | 13636m | -8.7m/s | -54.8°C | 6.1% | 158.2hPa | 2.5V | 08:14:21 | 02:30:56 | 00:00:00 | |
| DD8BA-10 | 2026-09-03 00:48:33 | 50.93473 | 8.40397 | 118° | 93km/h | 13592m | -9.8m/s | -54.6°C | 6.1% | 159.3hPa | 2.5V | 00:00:00 | 00:00:00 | 00:00:00 | |
| DM0DOS-11 | 2026-09-03 00:48:31 | 50.93523 | 8.40259 | 119° | 86km/h | 13628m | -8.2m/s | -54.8°C | 6.2% | 158.4hPa | 2.5V | 08:14:20 | 02:30:57 | 00:00:00 | |
| HSKMA3-T | 2026-09-03 00:48:31 | 50.93511 | 8.40290 | 121° | 93km/h | 13620m | -8.1m/s | -54.7°C | 3.5% | 158.7hPa | 2.5V | 08:14:50 | 02:30:58 | 00:00:00 | |
| DL1XH-west | 2026-09-03 00:48:30 | 50.93523 | 8.40259 | 119° | 86km/h | 13628m | -8.2m/s | -54.8°C | 3.5% | 158.4hPa | 2.5V | 08:14:50 | 02:30:57 | 00:00:00 | |
| AA1-15 | 2026-09-03 00:48:29 | 50.93532 | 8.40229 | 115° | 80km/h | 13636m | -8.7m/s | -54.8°C | 3.4% | 158.2hPa | 2.5V | 08:14:50 | 02:30:56 | 00:00:00 | |
| DL8DAS-14 | 2026-09-03 00:48:28 | 50.93540 | 8.40199 | 110° | 78km/h | 13645m | -9.1m/s | -54.9°C | 3.1% | 158.0hPa | 2.5V | 00:00:00 | 00:00:00 | 00:00:00 | |
| DL1XH-15 | 2026-09-03 00:48:27 | 50.93568 | 8.40023 | 103° | 102km/h | 13692m | -9.2m/s | -55°C | 6.3% | 156.8hPa | 2.5V | 08:14:27 | 02:30:50 | 00:00:00 | |
| DO3DL | 2026-09-03 00:48:27 | 50.93540 | 8.40199 | 111° | 80km/h | 13645m | -9.1m/s | -54.9°C | 3.1% | 158.0hPa | 2.5V | 08:14:00 | 00:00:00 | 00:00:00 | |
| DO3MHA-12 | 2026-09-03 00:48:25 | 50.93552 | 8.40135 | 104° | 80km/h | 13664m | -9.4m/s | -54.9°C | 6.1% | 157.5hPa | 2.5V | 00:00:00 | 02:30:53 | 00:00:00 | |
| HARRO8 | 2026-09-03 00:48:24 | 50.93562 | 8.40062 | 102° | 97km/h | 13682m | -9.5m/s | -55.1°C | 3.2% | 157.1hPa | 2.5V | 00:00:00 | 00:00:00 | 00:00:00 | |
| DL1NUX | 2026-09-03 00:48:23 | 50.93599 | 8.39855 | 110° | 115km/h | 13728m | -9.3m/s | -54.8°C | 6.2% | 155.9hPa | 2.5V | 08:14:31 | 02:30:46 | 00:00:00 | |
| BIOWL1-15 | 2026-09-03 00:48:21 | 50.93675 | 8.39596 | 109° | 84km/h | 13789m | -9.3m/s | -55°C | 3.2% | 154.5hPa | 2.5V | 08:14:50 | 02:30:39 | 00:00:00 | |
| DO3DL | 2026-09-03 00:48:21 | 50.93574 | 8.39982 | 105° | 106km/h | 13701m | -9.2m/s | -54.9°C | 3.2% | 156.5hPa | 2.5V | 08:14:00 | 00:00:00 | 00:00:00 | |
| DM0DOS-11 | 2026-09-03 00:48:20 | 50.93589 | 8.39898 | 107° | 113km/h | 13719m | -8.9m/s | -54.8°C | 6.2% | 156.1hPa | 2.5V | 08:14:30 | 02:30:47 | 00:00:00 | |
| HSKMA3-T | 2026-09-03 00:48:19 | 50.93589 | 8.39898 | 108° | 113km/h | 13719m | -8.9m/s | -54.8°C | 3.5% | 156.1hPa | 2.5V | 08:14:50 | 02:30:47 | 00:00:00 | |
| AA1-15 | 2026-09-03 00:48:19 | 50.93599 | 8.39855 | 110° | 115km/h | 13728m | -9.3m/s | -54.8°C | 3.5% | 155.9hPa | 2.5V | 08:14:50 | 02:30:46 | 00:00:00 | |
| BIOWL1-15 | 2026-09-03 00:48:16 | 50.93681 | 8.39563 | 105° | 86km/h | 13798m | -9.7m/s | -55°C | 3.2% | 154.2hPa | 2.5V | 08:14:50 | 02:30:38 | 00:00:00 | |
| DM0DOS-11 | 2026-09-03 00:48:15 | 50.93686 | 8.39529 | 101° | 89km/h | 13808m | -9.6m/s | -55.1°C | 6% | 154hPa | 2.5V | 08:14:40 | 02:30:37 | 00:00:00 | |
| DO3DL | 2026-09-03 00:48:15 | 50.93633 | 8.39731 | 118° | 108km/h | 13755m | -8.1m/s | -54.9°C | 3.1% | 155.2hPa | 2.6V | 08:14:00 | 00:00:00 | 00:00:00 | |
| DJ2DS-15 | 2026-09-03 00:48:14 | 50.93645 | 8.39694 | 119° | 102km/h | 13763m | -7.8m/s | -54.9°C | 6.2% | 155.0hPa | 2.6V | 00:00:00 | 02:30:42 | 00:00:00 | |
| DL1NUX | 2026-09-03 00:48:13 | 50.93690 | 8.39492 | 100° | 95km/h | 13817m | -9.9m/s | -55°C | 6% | 153.8hPa | 2.6V | 08:14:41 | 02:30:36 | 00:00:00 | |
| HSKMA3-T | 2026-09-03 00:48:09 | 50.93686 | 8.39529 | 101° | 89km/h | 13808m | -9.6m/s | -55.1°C | 3.2% | 154hPa | 2.5V | 08:14:50 | 02:30:37 | 00:00:00 | |
| DL1XH-west | 2026-09-03 00:48:07 | 50.93695 | 8.39454 | 100° | 99km/h | 13827m | -9.3m/s | -55°C | 3.1% | 153.6hPa | 2.6V | 08:14:50 | 02:30:35 | 00:00:00 | |
| DF7PN | 2026-09-03 00:48:06 | 50.93704 | 8.39372 | 101° | 110km/h | 13845m | -8.7m/s | -55.0°C | 2.9% | 153.1hPa | 2.5V | 00:00:00 | 00:00:00 | 00:00:00 | |
| DM0DOS-11 | 2026-09-03 00:48:04 | 50.93781 | 8.39077 | 120° | 106km/h | 13907m | -9.7m/s | -55.2°C | 5.9% | 151.6hPa | 2.5V | 08:14:51 | 02:30:26 | 00:00:00 | |
| DL1XH1-15 | 2026-09-03 00:48:04 | 50.93719 | 8.39283 | 107° | 119km/h | 13862m | -9m/s | -55.1°C | 6% | 152.6hPa | 2.5V | 08:14:46 | 02:30:31 | 00:00:00 | |
| DL1NUX | 2026-09-03 00:48:03 | 50.93781 | 8.39077 | 120° | 106km/h | 13907m | -9.7m/s | -55.2°C | 5.9% | 151.6hPa | 2.5V | 08:14:51 | 02:30:26 | 00:00:00 | |
| HSKMA3-T | 2026-09-03 00:47:59 | 50.93768 | 8.39114 | 120° | 110km/h | 13897m | -8.9m/s | -55.1°C | 3.1% | 151.8hPa | 2.5V | 08:14:50 | 02:30:27 | 00:00:00 | |
| AA1-15 | 2026-09-03 00:47:57 | 50.93795 | 8.39042 | 121° | 100km/h | 13916m | -9.7m/s | -55.2°C | 3.1% | 151.3hPa | 2.5V | 08:19:05 | 02:30:25 | 00:00:00 | |
| DL1XH-15 | 2026-09-03 00:47:57 | 50.93851 | 8.38881 | 112° | 88km/h | 13963m | -8.4m/s | -55.2°C | 6.1% | 150.2hPa | 2.5V | 08:14:57 | 02:30:20 | 00:00:00 | |
| DL1XH-west | 2026-09-03 00:47:57 | 50.93808 | 8.39008 | 121° | 97km/h | 13926m | -9.7m/s | -55.3°C | 3.1% | 151.1hPa | 2.6V | 08:15:41 | 02:30:24 | 00:00:00 | |
| DL1XH1-15 | 2026-09-03 00:47:54 | 50.93842 | 8.38912 | 115° | 88km/h | 13954m | -8.9m/s | -55.2°C | 6.1% | 150.4hPa | 2.5V | 08:14:56 | 02:30:21 | 00:00:00 | |
| DJ2DS-15 | 2026-09-03 00:47:54 | 50.93831 | 8.38944 | 119° | 100km/h | 13945m | -9.3m/s | -55.2°C | 6.1% | 150.6hPa | 2.5V | 08:14:00 | 02:30:22 | 00:00:00 | |
| DM0DOS-11 | 2026-09-03 00:47:53 | 50.93872 | 8.38774 | 105° | 104km/h | 13986m | -8.1m/s | -55.1°C | 5.9% | 149.7hPa | 2.6V | 08:15:00 | 02:30:17 | 00:00:00 | |
| DL1NUX | 2026-09-03 00:47:53 | 50.93880 | 8.38732 | 107° | 113km/h | 13995m | -9.1m/s | -55°C | 5.8% | 149.6hPa | 2.5V | 08:15:01 | 02:30:16 | 00:00:00 | |
| HSKMA3-T | 2026-09-03 00:47:48 | 50.93880 | 8.38732 | 108° | 113km/h | 13995m | -9.1m/s | -55°C | 2.9% | 149.6hPa | 2.5V | 08:15:41 | 02:30:16 | 00:00:00 | |
| DO3DL | 2026-09-03 00:47:48 | 50.93880 | 8.38732 | 109° | 113km/h | 13995m | -9.1m/s | -55.0°C | 2.8% | 149.6hPa | 2.5V | 08:15:00 | 00:00:00 | 00:00:00 | |
| DL1XH-15 | 2026-09-03 00:47:47 | 50.93979 | 8.38452 | 127° | 102km/h | 14062m | -8.6m/s | -54.7°C | 5.5% | 147.9hPa | 2.5V | 08:15:08 | 02:30:09 | 00:00:00 | |
| AA1-15 | 2026-09-03 00:47:46 | 50.93902 | 8.38645 | 114° | 119km/h | 14014m | -9.9m/s | -54.9°C | 2.9% | 149.1hPa | 2.5V | 08:19:05 | 02:30:14 | 00:00:00 | |
| DL1XH-west | 2026-09-03 00:47:46 | 50.93915 | 8.38602 | 118° | 119km/h | 14024m | -10m/s | -54.7°C | 2.9% | 148.8hPa | 2.5V | 08:15:41 | 02:30:13 | 00:00:00 | |
| DB0NH | 2026-09-03 00:47:44 | 50.93930 | 8.38561 | 122° | 99km/h | 14034m | -10.1m/s | -54.5°C | 5.5% | 148.6hPa | 2.5V | 00:00:00 | 02:30:12 | 00:00:00 | |
| DL1NUX | 2026-09-03 00:47:43 | 50.94022 | 8.38362 | 123° | 86km/h | 14089m | -10.1m/s | -54.9°C | 5.6% | 147.3hPa | 2.6V | 08:15:11 | 02:30:06 | 00:00:00 | |
| DJ2KF-10 | 2026-09-03 00:47:43 | 50.93946 | 8.38522 | 125° | 106km/h | 14044m | -9.7m/s | -54.5°C | 5.6% | 148.3hPa | 2.6V | 08:15:00 | 02:30:11 | 00:00:00 | |
| DO3DL | 2026-09-03 00:47:42 | 50.93962 | 8.38486 | 127° | 110km/h | 14053m | -9.1m/s | -54.6°C | 2.7% | 148.1hPa | 2.5V | 08:15:00 | 00:00:00 | 00:00:00 | |
| DO9LL-15 | 2026-09-03 00:47:40 | 50.93994 | 8.38420 | 129° | 102km/h | 14071m | -8.7m/s | -54.7°C | 5.6% | 147.7hPa | 2.5V | 00:00:00 | 02:30:08 | 00:00:00 | |
| DJ8HS-15 | 2026-09-03 00:47:39 | 50.94008 | 8.38390 | 127° | 100km/h | 14080m | -9.6m/s | -54.8°C | 5.5% | 147.5hPa | 2.5V | 00:00:00 | 02:30:07 | 00:00:00 | |
| DL1XH1-15 | 2026-09-03 00:47:38 | 50.94077 | 8.38162 | 109° | 108km/h | 14147m | -9.4m/s | -55°C | 5.7% | 146hPa | 2.6V | 08:15:17 | 02:30:00 | 00:00:00 | |
| HSKMA3-T | 2026-09-03 00:47:38 | 50.94021 | 8.38362 | 124° | 86km/h | 14089m | -10.1m/s | -54.9°C | 2.8% | 147.3hPa | 2.6V | 08:15:41 | 02:30:06 | 00:00:00 | |
| AA1-15 | 2026-09-03 00:47:35 | 50.94052 | 8.38272 | 113° | 88km/h | 14118m | -9.5m/s | -55.1°C | 2.8% | 146.7hPa | 2.5V | 08:19:05 | 02:30:03 | 00:00:00 | |
| DL1XH-west | 2026-09-03 00:47:35 | 50.94060 | 8.38238 | 110° | 95km/h | 14128m | -9.6m/s | -55.1°C | 2.8% | 146.4hPa | 2.5V | 08:15:41 | 02:30:02 | 00:00:00 | |
| DJ2DS-15 | 2026-09-03 00:47:34 | 50.94060 | 8.38238 | 111° | 100km/h | 14128m | -9.6m/s | -55.0°C | 5.7% | 146.4hPa | 2.5V | 00:00:00 | 02:30:02 | 00:00:00 | |
| DD8BA-10 | 2026-09-03 00:47:33 | 50.94068 | 8.38201 | 110° | 113km/h | 14138m | -9.3m/s | -55.0°C | 5.6% | 146.2hPa | 2.5V | 00:00:00 | 00:00:00 | 00:00:00 | |
| DM0DOS-11 | 2026-09-03 00:47:32 | 50.94110 | 8.38035 | 115° | 120km/h | 14174m | -9.6m/s | -55°C | 5.5% | 145.4hPa | 2.5V | 08:15:20 | 02:29:57 | 00:00:00 | |
| BIOWL1-15 | 2026-09-03 00:47:28 | 50.94124 | 8.37992 | 119° | 120km/h | 14184m | -9.7m/s | -55.1°C | 2.7% | 145.2hPa | 2.5V | 08:15:41 | 02:29:56 | 00:00:00 | |
| HSKMA3-T | 2026-09-03 00:47:27 | 50.94139 | 8.37950 | 122° | 119km/h | 14194m | -9.6m/s | -55.1°C | 2.7% | 144.9hPa | 2.5V | 08:15:41 | 02:29:55 | 00:00:00 | |
| AA1-15 | 2026-09-03 00:47:25 | 50.94172 | 8.37874 | 127° | 111km/h | 14212m | -9m/s | -55.1°C | 2.7% | 144.5hPa | 2.6V | 08:19:05 | 02:29:53 | 00:00:00 | |
| DL1XH-15 | 2026-09-03 00:47:25 | 50.94233 | 8.37753 | 126° | 82km/h | 14248m | -9.4m/s | -55.2°C | 5.5% | 143.7hPa | 2.5V | 08:15:28 | 02:29:49 | 00:00:00 | |
| DL1XH-west | 2026-09-03 00:47:23 | 50.94205 | 8.37809 | 130° | 97km/h | 14230m | -8.4m/s | -55.1°C | 2.6% | 144.1hPa | 2.5V | 08:15:41 | 02:29:51 | 00:00:00 | |
| DD8BA-10 | 2026-09-03 00:47:23 | 50.94205 | 8.37809 | 131° | 89km/h | 14230m | -8.4m/s | -55.0°C | 5.5% | 144.1hPa | 2.6V | 00:00:00 | 00:00:00 | 00:00:00 | |
| HARRO8 | 2026-09-03 00:47:22 | 50.94233 | 8.37753 | 126° | 82km/h | 14248m | -9.4m/s | -55.2°C | 2.5% | 143.7hPa | 2.6V | 00:00:00 | 00:00:00 | 00:00:00 | |
| DM0DOS-11 | 2026-09-03 00:47:20 | 50.94255 | 8.37699 | 118° | 78km/h | 14268m | -10.5m/s | -55.3°C | 5.6% | 143.3hPa | 2.6V | 08:15:30 | 02:29:47 | 00:00:00 | |
| BIOWL1-15 | 2026-09-03 00:47:17 | 50.94288 | 8.37575 | 110° | 93km/h | 14306m | -9.3m/s | -55.6°C | 2.5% | 142.4hPa | 2.5V | 08:15:41 | 02:29:43 | 00:00:00 | |
| HSKMA3-T | 2026-09-03 00:47:16 | 50.94280 | 8.37609 | 110° | 88km/h | 14297m | -9.5m/s | -55.6°C | 2.6% | 142.6hPa | 2.5V | 08:15:41 | 02:29:44 | 00:00:00 | |
| DL1XH-15 | 2026-09-03 00:47:15 | 50.94331 | 8.37423 | 119° | 111km/h | 14342m | -8.3m/s | -55.7°C | 5.6% | 141.6hPa | 2.5V | 08:15:38 | 02:29:39 | 00:00:00 | |
| DL1NUX | 2026-09-03 00:47:14 | 50.94377 | 8.37314 | 127° | 106km/h | 14370m | -10.1m/s | -55.8°C | 5.6% | 141hPa | 2.5V | 08:15:41 | 02:29:36 | 00:00:00 | |
| DL1XH-west | 2026-09-03 00:47:12 | 50.94318 | 8.37462 | 116° | 110km/h | 14334m | -8.4m/s | -55.7°C | 2.5% | 141.8hPa | 2.6V | 08:15:41 | 02:29:40 | 00:00:00 | |
| HSKMA3-T | 2026-09-03 00:47:06 | 50.94410 | 8.37250 | 131° | 99km/h | 14391m | -9.7m/s | -55.7°C | 2.4% | 140.6hPa | 2.5V | 08:16:32 | 02:29:34 | 00:00:00 | |
| NBG1-10 | 2026-09-03 00:47:05 | 50.94426 | 8.37222 | 134° | 77km/h | 14401m | -9.7m/s | -55.5°C | 5.6% | 140.3hPa | 2.6V | 00:00:00 | 02:29:33 | 00:00:00 | |
| DL1XH-15 | 2026-09-03 00:47:04 | 50.94481 | 8.37129 | 128° | 69km/h | 14438m | -8.9m/s | -55.4°C | 5.3% | 139.5hPa | 2.6V | 08:15:48 | 02:29:29 | 00:00:00 | |
| DM0DOS-11 | 2026-09-03 00:47:02 | 50.94507 | 8.37058 | 112° | 71km/h | 14465m | -9.3m/s | -55.4°C | 5.2% | 138.9hPa | 2.5V | 08:15:51 | 02:29:26 | 00:00:00 | |
| DL1XH-west | 2026-09-03 00:47:02 | 50.94470 | 8.37150 | 133° | 73km/h | 14429m | -9m/s | -55.4°C | 2.2% | 139.7hPa | 2.6V | 08:16:32 | 02:29:30 | 00:00:00 | |
| HSKMA3-T | 2026-09-03 00:46:56 | 50.94521 | 8.37000 | 111° | 84km/h | 14484m | -9.5m/s | -55.5°C | 2.1% | 138.5hPa | 2.6V | 08:16:32 | 02:29:24 | 00:00:00 | |
| BIOWL1-15 | 2026-09-03 00:46:53 | 50.94550 | 8.36899 | 120° | 100km/h | 14511m | -8.8m/s | -55.6°C | 2% | 137.9hPa | 2.5V | 08:16:32 | 02:29:21 | 00:00:00 | |
| AU51GT2 | 2026-09-03 00:46:53 | 50.94563 | 8.36865 | 124° | 100km/h | 14520m | -9.3m/s | -55.6°C | 2.2% | 137.7hPa | 2.6V | 00:00:00 | 00:00:00 | 00:00:00 | |
| DM0DOS-11 | 2026-09-03 00:46:52 | 50.94627 | 8.36751 | 136° | 84km/h | 14558m | -9.4m/s | -55.5°C | 5.1% | 136.9hPa | 2.6V | 08:16:01 | 02:29:16 | 00:00:00 | |
| DL1XH-west | 2026-09-03 00:46:51 | 50.94578 | 8.36832 | 129° | 100km/h | 14530m | -9.3m/s | -55.7°C | 2% | 137.6hPa | 2.5V | 08:16:32 | 02:29:19 | 00:00:00 | |
| DO3DL | 2026-09-03 00:46:50 | 50.94595 | 8.36802 | 133° | 97km/h | 14539m | -9.2m/s | -55.6°C | 2.2% | 137.3hPa | 2.5V | 08:16:00 | 00:00:00 | 00:00:00 | |
| DL1XH1-15 | 2026-09-03 00:46:46 | 50.94700 | 8.36634 | 126° | 57km/h | 14616m | -10m/s | -55.6°C | 5.3% | 135.6hPa | 2.5V | 08:16:07 | 02:29:10 | 00:00:00 | |
| HSKMA3-T | 2026-09-03 00:46:46 | 50.94656 | 8.36708 | 137° | 73km/h | 14576m | -9.4m/s | -55.7°C | 1.9% | 136.5hPa | 2.5V | 08:16:32 | 02:29:14 | 00:00:00 | |
| BIOWL1-15 | 2026-09-03 00:46:43 | 50.94738 | 8.36503 | 106° | 73km/h | 14671m | -9.1m/s | -55.5°C | 1.8% | 134.5hPa | 2.6V | 08:16:32 | 02:29:04 | 00:00:00 | |
| DL1XH-15 | 2026-09-03 00:46:42 | 50.94708 | 8.36615 | 123° | 57km/h | 14626m | -9.8m/s | -55.5°C | 5.2% | 135.4hPa | 2.5V | 08:16:08 | 02:29:09 | 00:00:00 | |
| DL3AQ-11 | 2026-09-03 00:46:42 | 50.94708 | 8.36615 | 123° | 57km/h | 14626m | -9.8m/s | -55.5°C | 2.2% | 135.4hPa | 2.6V | 00:00:00 | 00:00:00 | 00:00:00 | |
| DM0DOS-11 | 2026-09-03 00:46:41 | 50.94728 | 8.36554 | 110° | 60km/h | 14653m | -8.7m/s | -55.5°C | 5.2% | 134.8hPa | 2.6V | 08:16:11 | 02:29:06 | 00:00:00 | |
| DL1XH-west | 2026-09-03 00:46:40 | 50.94716 | 8.36596 | 120° | 57km/h | 14635m | -9.4m/s | -55.5°C | 1.9% | 135.2hPa | 2.5V | 08:16:32 | 02:29:08 | 00:00:00 | |
| WPPR-10 | 2026-09-03 00:46:40 | 50.94722 | 8.36576 | 113° | 57km/h | 14644m | -9.0m/s | -55.5°C | 2.1% | 135.0hPa | 2.5V | 00:00:00 | 00:00:00 | 00:00:00 | |
| DJ8HS-15 | 2026-09-03 00:46:39 | 50.94722 | 8.36576 | 114° | 68km/h | 14645m | -9.0m/s | -55.4°C | 5.2% | 135.0hPa | 2.5V | 08:16:00 | 02:29:07 | 00:00:00 | |
| DL1XH-15 | 2026-09-03 00:46:37 | 50.94778 | 8.36355 | 122° | 84km/h | 14718m | -8.9m/s | -55.3°C | 5.1% | 133.5hPa | 2.6V | 08:16:18 | 02:28:59 | 00:00:00 | |
| DL1XH1-15 | 2026-09-03 00:46:36 | 50.94768 | 8.36384 | 118° | 84km/h | 14710m | -9m/s | -55.4°C | 5.1% | 133.7hPa | 2.5V | 08:16:17 | 02:29:00 | 00:00:00 | |
| HSKMA3-T | 2026-09-03 00:46:36 | 50.94743 | 8.36474 | 108° | 78km/h | 14680m | -10m/s | -55.4°C | 1.7% | 134.3hPa | 2.5V | 08:16:32 | 02:29:03 | 00:00:00 | |
| BIOWL1-15 | 2026-09-03 00:46:33 | 50.94778 | 8.36355 | 123° | 84km/h | 14718m | -8.9m/s | -55.3°C | 1.8% | 133.5hPa | 2.6V | 08:16:32 | 02:28:59 | 00:00:00 | |
| DF7PN | 2026-09-03 00:46:33 | 50.94768 | 8.36384 | 118° | 84km/h | 14710m | -9.0m/s | -55.4°C | 2.1% | 133.7hPa | 2.5V | 00:00:00 | 00:00:00 | 00:00:00 | |
| DD8BA-10 | 2026-09-03 00:46:32 | 50.94768 | 8.36384 | 119° | 71km/h | 14710m | -8.9m/s | -55.3°C | 5.1% | 133.6hPa | 2.5V | 08:16:00 | 00:00:00 | 00:00:00 | |
| DK9SH | 2026-09-03 00:46:31 | 50.94778 | 8.36355 | 124° | 84km/h | 14719m | -8.9m/s | -55.3°C | 2.1% | 133.5hPa | 2.5V | 08:16:00 | 00:00:00 | 00:00:00 | |
| DM0DOS-11 | 2026-09-03 00:46:30 | 50.94817 | 8.36279 | 133° | 77km/h | 14748m | -10.5m/s | -55.3°C | 5% | 132.9hPa | 2.5V | 08:16:21 | 02:28:56 | 00:00:00 | |
| DL1XH-west | 2026-09-03 00:46:30 | 50.94791 | 8.36328 | 128° | 84km/h | 14728m | -9.4m/s | -55.3°C | 1.8% | 133.3hPa | 2.6V | 08:16:32 | 02:28:58 | 00:00:00 | |
| HSKMA3-T | 2026-09-03 00:46:24 | 50.94866 | 8.36208 | 140° | 53km/h | 14787m | -9.5m/s | -55.1°C | 1.7% | 132hPa | 2.5V | 08:16:32 | 02:28:52 | 00:00:00 | |
| DL1XH-15 | 2026-09-03 00:46:24 | 50.94890 | 8.36168 | 124° | 42km/h | 14816m | -9.3m/s | -55°C | 4.8% | 131.4hPa | 2.6V | 08:16:28 | 02:28:49 | 00:00:00 | |
| BIOWL1-15 | 2026-09-03 00:46:23 | 50.94890 | 8.36168 | 124° | 42km/h | 14816m | -9.3m/s | -55°C | 1.6% | 131.4hPa | 2.6V | 08:16:32 | 02:28:49 | 00:00:00 | |
| DD8BA-10 | 2026-09-03 00:46:22 | 50.94884 | 8.36181 | 133° | 57km/h | 14807m | -9.7m/s | -55.0°C | 4.8% | 131.6hPa | 2.5V | 00:00:00 | 00:00:00 | 00:00:00 | |
| AU51GT2 | 2026-09-03 00:46:21 | 50.94896 | 8.36153 | 114° | 42km/h | 14825m | -9.1m/s | -55.1°C | 1.9% | 131.3hPa | 2.5V | 00:00:00 | 00:00:00 | 00:00:00 | |
| DM0DOS-11 | 2026-09-03 00:46:19 | 50.94903 | 8.36116 | 101° | 53km/h | 14844m | -9.4m/s | -55.2°C | 4.7% | 130.9hPa | 2.5V | 08:16:31 | 02:28:46 | 00:00:00 | |
| DL1XH-west | 2026-09-03 00:46:19 | 50.94900 | 8.36136 | 107° | 47km/h | 14834m | -9.2m/s | -55.2°C | 1.6% | 131.1hPa | 2.5V | 08:16:32 | 02:28:47 | 00:00:00 | |
| DJ8HS-15 | 2026-09-03 00:46:19 | 50.94900 | 8.36136 | 107° | 69km/h | 14835m | -9.2m/s | -55.1°C | 4.8% | 131.1hPa | 2.5V | 00:00:00 | 02:28:47 | 00:00:00 | |
| DL3AQ-11 | 2026-09-03 00:46:18 | 50.94906 | 8.36094 | 101° | 58km/h | 14854m | -9.9m/s | -55.3°C | 1.9% | 130.7hPa | 2.5V | 00:00:00 | 00:00:00 | 00:00:00 | |
| DO3DL | 2026-09-03 00:46:17 | 50.94906 | 8.36094 | 102° | 58km/h | 14854m | -9.9m/s | -55.3°C | 1.9% | 130.7hPa | 2.5V | 08:16:00 | 00:00:00 | 00:00:00 | |
| DL1XH-15 | 2026-09-03 00:46:16 | 50.94936 | 8.35928 | 113° | 84km/h | 14912m | -9.6m/s | -55.5°C | 4.9% | 129.4hPa | 2.5V | 08:16:38 | 02:28:39 | 00:00:00 | |
| DL1XH1-15 | 2026-09-03 00:46:15 | 50.94929 | 8.35958 | 110° | 80km/h | 14903m | -9.7m/s | -55.4°C | 4.9% | 129.7hPa | 2.5V | 08:16:37 | 02:28:40 | 00:00:00 | |
| HSKMA3-T | 2026-09-03 00:46:14 | 50.94917 | 8.36017 | 105° | 73km/h | 14883m | -9.7m/s | -55.3°C | 1.6% | 130.1hPa | 2.6V | 08:17:23 | 02:28:42 | 00:00:00 | |
| DB0UT-7 | 2026-09-03 00:46:14 | 50.94917 | 8.36017 | 106° | 78km/h | 14883m | -9.6m/s | -55.3°C | 4.8% | 130.0hPa | 2.6V | 08:16:00 | 02:28:42 | 00:00:00 | |
| DL1NUX | 2026-09-03 00:46:13 | 50.94968 | 8.35839 | 124° | 84km/h | 14942m | -9.9m/s | -55.6°C | 5% | 128.9hPa | 2.6V | 08:16:41 | 02:28:36 | 00:00:00 | |
| BIOWL1-15 | 2026-09-03 00:46:12 | 50.94993 | 8.35788 | 131° | 78km/h | 14961m | -9.3m/s | -55.7°C | 1.7% | 128.5hPa | 2.5V | 08:17:23 | 02:28:34 | 00:00:00 | |
| DL1XH-west | 2026-09-03 00:46:08 | 50.94968 | 8.35839 | 124° | 84km/h | 14942m | -9.9m/s | -55.6°C | 1.7% | 128.9hPa | 2.6V | 08:17:23 | 02:28:36 | 00:00:00 | |
| DL1XH-15 | 2026-09-03 00:46:06 | 50.95047 | 8.35690 | 123° | 53km/h | 15008m | -9.5m/s | -56.1°C | 5.1% | 127.5hPa | 2.5V | 08:16:48 | 02:28:29 | 00:00:00 | |
| DD1CC8 | 2026-09-03 00:46:06 | 50.95005 | 8.35765 | 133° | 73km/h | 14970m | -9.4m/s | -55.8°C | 2.0% | 128.3hPa | 2.6V | 00:00:00 | 00:00:00 | 00:00:00 | |
| DL1XH1-15 | 2026-09-03 00:46:04 | 50.95039 | 8.35708 | 129° | 57km/h | 14999m | -9.3m/s | -56°C | 5.1% | 127.7hPa | 2.6V | 08:16:47 | 02:28:30 | 00:00:00 | |
| HSKMA3-T | 2026-09-03 00:46:04 | 50.95018 | 8.35745 | 134° | 68km/h | 14980m | -9.8m/s | -55.9°C | 1.7% | 128.1hPa | 2.5V | 08:17:23 | 02:28:32 | 00:00:00 | |
| DL1NUX | 2026-09-03 00:46:03 | 50.95064 | 8.35629 | 104° | 60km/h | 15036m | -9.3m/s | -56.2°C | 5% | 127hPa | 2.6V | 08:16:51 | 02:28:26 | 00:00:00 | |
| DM0DOS-11 | 2026-09-03 00:46:02 | 50.95071 | 8.35577 | 101° | 73km/h | 15055m | -10.2m/s | -56.2°C | 5% | 126.6hPa | 2.5V | 08:16:53 | 02:28:24 | 00:00:00 | |
| DL1XH-west | 2026-09-03 00:45:58 | 50.95064 | 8.35629 | 105° | 60km/h | 15036m | -9.3m/s | -56.2°C | 1.7% | 127hPa | 2.6V | 08:17:23 | 02:28:26 | 00:00:00 | |
| DL4BBY-15 | 2026-09-03 00:45:57 | 50.95067 | 8.35604 | 102° | 84km/h | 15046m | -9.4m/s | -55.2°C | 0% | 0hPa | 2.5V | 00:00:00 | 00:00:00 | 00:00:00 | |
| DL1XH-15 | 2026-09-03 00:45:56 | 50.95094 | 8.35414 | 105° | 93km/h | 15107m | -10.7m/s | -56.2°C | 5.1% | 125.6hPa | 2.5V | 08:16:58 | 02:28:19 | 00:00:00 | |
| DO1YAY-16 | 2026-09-03 00:45:56 | 50.95075 | 8.35547 | 101° | 77km/h | 15066m | -10.4m/s | -56.2°C | 2.0% | 126.4hPa | 2.6V | 00:00:00 | 00:00:00 | 00:00:00 | |
| DO3DL | 2026-09-03 00:45:55 | 50.95071 | 8.35577 | 102° | 73km/h | 15055m | -10.3m/s | -56.2°C | 1.9% | 126.6hPa | 2.6V | 08:17:00 | 00:00:00 | 00:00:00 | |
| DL1XH1-15 | 2026-09-03 00:45:54 | 50.95088 | 8.35449 | 104° | 89km/h | 15096m | -10.6m/s | -56.2°C | 5% | 125.8hPa | 2.6V | 08:16:57 | 02:28:20 | 00:00:00 | |
| DJ2KF-10 | 2026-09-03 00:45:54 | 50.95079 | 8.35516 | 102° | 80km/h | 15076m | -10.3m/s | -56.1°C | 5.0% | 126.2hPa | 2.5V | 00:00:00 | 02:28:22 | 00:00:00 | |
| DL1NUX | 2026-09-03 00:45:53 | 50.95119 | 8.35304 | 114° | 102km/h | 15136m | -8.8m/s | -56.2°C | 5.1% | 125hPa | 2.5V | 08:17:01 | 02:28:16 | 00:00:00 | |
| HSKMA3-T | 2026-09-03 00:45:53 | 50.95083 | 8.35483 | 103° | 86km/h | 15086m | -10.4m/s | -56.2°C | 1.6% | 126hPa | 2.6V | 08:17:23 | 02:28:21 | 00:00:00 | |
| DL8DAS-14 | 2026-09-03 00:45:53 | 50.95088 | 8.35449 | 104° | 89km/h | 15097m | -10.6m/s | -56.2°C | 2.0% | 125.8hPa | 2.6V | 00:00:00 | 00:00:00 | 00:00:00 | |
| SO1NDE-10 | 2026-09-03 00:45:52 | 50.95088 | 8.35449 | 105° | 86km/h | 15097m | -10.6m/s | -56.1°C | 5.0% | 125.8hPa | 2.6V | 00:00:00 | 02:28:20 | 00:00:00 | |
| DM0DOS-11 | 2026-09-03 00:45:51 | 50.95131 | 8.35268 | 119° | 102km/h | 15146m | -9m/s | -56.3°C | 5.1% | 124.8hPa | 2.6V | 08:17:02 | 02:28:15 | 00:00:00 | |
| DL1XH-west | 2026-09-03 00:45:48 | 50.95120 | 8.35304 | 115° | 102km/h | 15136m | -8.8m/s | -56.2°C | 1.7% | 125hPa | 2.5V | 08:17:23 | 02:28:16 | 00:00:00 | |
| BUE01 | 2026-09-03 00:45:48 | 50.95131 | 8.35268 | 119° | 100km/h | 15146m | -9.0m/s | -56.3°C | 1.9% | 124.8hPa | 2.6V | 00:00:00 | 00:00:00 | 00:00:00 | |
| DL1XH-15 | 2026-09-03 00:45:46 | 50.95229 | 8.35072 | 131° | 75km/h | 15215m | -10m/s | -56.6°C | 5.3% | 123.4hPa | 2.6V | 08:17:09 | 02:28:08 | 00:00:00 | |
| DL1XH1-15 | 2026-09-03 00:45:44 | 50.95202 | 8.35119 | 131° | 84km/h | 15195m | -10.1m/s | -56.5°C | 5.2% | 123.8hPa | 2.5V | 08:17:07 | 02:28:10 | 00:00:00 | |
| DB0UT-7 | 2026-09-03 00:45:44 | 50.95173 | 8.35172 | 130° | 75km/h | 15174m | -10.6m/s | -56.4°C | 5.1% | 124.2hPa | 2.5V | 00:00:00 | 00:00:00 | 00:00:00 | |
| DL1NUX | 2026-09-03 00:45:43 | 50.95252 | 8.35029 | 126° | 66km/h | 15234m | -9.2m/s | -56.6°C | 5.3% | 123.1hPa | 2.5V | 08:17:11 | 02:28:06 | 00:00:00 | |
| HSKMA3-T | 2026-09-03 00:45:43 | 50.95188 | 8.35145 | 131° | 88km/h | 15185m | -10.6m/s | -56.5°C | 1.7% | 124hPa | 2.5V | 08:17:23 | 02:28:11 | 00:00:00 | |
| DO3DL | 2026-09-03 00:45:42 | 50.95188 | 8.35145 | 132° | 88km/h | 15185m | -10.6m/s | -56.5°C | 2.0% | 124.0hPa | 2.5V | 08:17:00 | 00:00:00 | 00:00:00 | |
| DM0DOS-11 | 2026-09-03 00:45:40 | 50.95261 | 8.35008 | 122° | 64km/h | 15243m | -9m/s | -56.5°C | 5.3% | 122.8hPa | 2.5V | 08:17:12 | 02:28:05 | 00:00:00 | |
| DL1XH-west | 2026-09-03 00:45:38 | 50.95252 | 8.35029 | 127° | 66km/h | 15235m | -9.2m/s | -56.6°C | 1.7% | 123.1hPa | 2.5V | 08:17:23 | 02:28:06 | 00:00:00 | |
| DL3AQ-11 | 2026-09-03 00:45:38 | 50.95261 | 8.35008 | 122° | 62km/h | 15244m | -9.0m/s | -56.5°C | 2.0% | 122.8hPa | 2.5V | 00:00:00 | 00:00:00 | 00:00:00 | |
| WPPR-10 | 2026-09-03 00:45:37 | 50.95261 | 8.35008 | 122° | 62km/h | 15244m | -9.0m/s | -56.5°C | 2.0% | 122.8hPa | 2.5V | 00:00:00 | 00:00:00 | 00:00:00 | |
| DO3DL | 2026-09-03 00:45:36 | 50.95269 | 8.34986 | 118° | 64km/h | 15252m | -9.0m/s | -56.5°C | 2.0% | 122.7hPa | 2.5V | 08:17:00 | 00:00:00 | 00:00:00 | |
| DL1XH-15 | 2026-09-03 00:45:35 | 50.95306 | 8.34844 | 116° | 91km/h | 15299m | -9.3m/s | -56°C | 4.9% | 121.8hPa | 2.5V | 08:17:18 | 02:27:59 | 00:00:00 | |
| DD1CC3-15 | 2026-09-03 00:45:35 | 50.95282 | 8.34935 | 112° | 73km/h | 15272m | -10.0m/s | -56.3°C | 2.0% | 122.3hPa | 2.5V | 08:17:00 | 00:00:00 | 00:00:00 | |
| DL1XH1-15 | 2026-09-03 00:45:34 | 50.95297 | 8.34877 | 112° | 86km/h | 15290m | -8.8m/s | -56.1°C | 5% | 122hPa | 2.5V | 08:17:17 | 02:28:00 | 00:00:00 | |
| HSKMA3-T | 2026-09-03 00:45:33 | 50.95289 | 8.34907 | 111° | 78km/h | 15281m | -9.2m/s | -56.2°C | 1.6% | 122.2hPa | 2.5V | 08:17:23 | 02:28:01 | 00:00:00 | |
| DJ2DS-15 | 2026-09-03 00:45:33 | 50.95289 | 8.34907 | 111° | 73km/h | 15281m | -9.2m/s | -56.2°C | 5.1% | 122.1hPa | 2.5V | 00:00:00 | 02:28:01 | 00:00:00 | |
| DO3MHA-12 | 2026-09-03 00:45:31 | 50.95306 | 8.34844 | 117° | 88km/h | 15299m | -9.2m/s | -55.9°C | 4.9% | 121.8hPa | 2.5V | 00:00:00 | 02:27:59 | 00:00:00 | |
| DM0DOS-11 | 2026-09-03 00:45:30 | 50.95360 | 8.34720 | 132° | 93km/h | 15338m | -9.4m/s | -55.9°C | 4.8% | 121.1hPa | 2.5V | 08:17:22 | 02:27:55 | 00:00:00 | |
| DL1XH-west | 2026-09-03 00:45:28 | 50.95344 | 8.34749 | 128° | 95km/h | 15328m | -9.6m/s | -55.9°C | 1.4% | 121.3hPa | 2.5V | 08:17:23 | 02:27:56 | 00:00:00 | |
| DL4BBY-15 | 2026-09-03 00:45:27 | 50.95360 | 8.34720 | 133° | 62km/h | 15338m | -9.3m/s | -54.9°C | 0% | 0hPa | 2.5V | 00:00:00 | 00:00:00 | 00:00:00 | |
| NBG1-10 | 2026-09-03 00:45:25 | 50.95392 | 8.34671 | 140° | 58km/h | 15358m | -10.2m/s | -55.8°C | 4.7% | 120.7hPa | 2.5V | 00:00:00 | 02:27:53 | 00:00:00 | |
| DL1XH-15 | 2026-09-03 00:45:24 | 50.95455 | 8.34600 | 148° | 66km/h | 15397m | -10m/s | -55.9°C | 4.8% | 119.9hPa | 2.5V | 08:17:28 | 02:27:49 | 00:00:00 | |
| HSKMA3-T | 2026-09-03 00:45:23 | 50.95425 | 8.34631 | 146° | 77km/h | 15377m | -10.1m/s | -55.9°C | 1.3% | 120.4hPa | 2.6V | 08:18:14 | 02:27:51 | 00:00:00 | |
| DL1XH-west | 2026-09-03 00:45:18 | 50.95505 | 8.34554 | 147° | 47km/h | 15438m | -10.5m/s | -56°C | 1.4% | 119.2hPa | 2.6V | 08:18:14 | 02:27:45 | 00:00:00 | |
| BUE01 | 2026-09-03 00:45:17 | 50.95514 | 8.34544 | 143° | 42km/h | 15448m | -10.1m/s | -56.1°C | 1.8% | 119.0hPa | 2.5V | 00:00:00 | 00:00:00 | 00:00:00 | |
| DO3DL | 2026-09-03 00:45:16 | 50.95514 | 8.34544 | 145° | 44km/h | 15449m | -10.1m/s | -56.1°C | 1.8% | 119.0hPa | 2.5V | 08:18:00 | 00:00:00 | 00:00:00 | |
| DO3MHA-11 | 2026-09-03 00:45:15 | 50.95522 | 8.34533 | 137° | 55km/h | 15459m | -10.2m/s | -56.1°C | 4.8% | 118.7hPa | 2.5V | 00:00:00 | 02:27:43 | 00:00:00 | |
| DL1XH-15 | 2026-09-03 00:45:14 | 50.95544 | 8.34474 | 108° | 49km/h | 15500m | -9.2m/s | -56.4°C | 4.9% | 118hPa | 2.6V | 08:17:38 | 02:27:39 | 00:00:00 | |
| HSKMA3-T | 2026-09-03 00:45:12 | 50.95539 | 8.34492 | 113° | 46km/h | 15490m | -10.2m/s | -56.3°C | 1.4% | 118.2hPa | 2.6V | 08:18:14 | 02:27:40 | 00:00:00 | |
| DL1XH-west | 2026-09-03 00:45:06 | 50.95576 | 8.34354 | 122° | 75km/h | 15550m | -9.7m/s | -56.5°C | 1.5% | 117.1hPa | 2.6V | 08:18:14 | 02:27:34 | 00:00:00 | |
| BIOWL1-15 | 2026-09-03 00:45:03 | 50.95624 | 8.34268 | 141° | 68km/h | 15590m | -9.9m/s | -56.4°C | 1.4% | 116.4hPa | 2.6V | 08:18:14 | 02:27:30 | 00:00:00 | |
| DL1NUX | 2026-09-03 00:45:03 | 50.95670 | 8.34215 | 140° | 44km/h | 15630m | -10m/s | -56.4°C | 5% | 115.6hPa | 2.5V | 08:17:51 | 02:27:26 | 00:00:00 | |
| DM0DOS-11 | 2026-09-03 00:45:03 | 50.95684 | 8.34191 | 122° | 40km/h | 15650m | -10.2m/s | -56.4°C | 5% | 115.3hPa | 2.6V | 08:17:53 | 02:27:24 | 00:00:00 | |
| DL1XH-15 | 2026-09-03 00:45:02 | 50.95637 | 8.34252 | 143° | 62km/h | 15599m | -9.6m/s | -56.3°C | 5% | 116.2hPa | 2.6V | 08:17:48 | 02:27:29 | 00:00:00 | |
| HSKMA3-T | 2026-09-03 00:45:01 | 50.95637 | 8.34252 | 144° | 62km/h | 15599m | -9.6m/s | -56.3°C | 1.4% | 116.2hPa | 2.6V | 08:18:14 | 02:27:29 | 00:00:00 | |
| DO3MHA-12 | 2026-09-03 00:45:01 | 50.95637 | 8.34252 | 144° | 53km/h | 15600m | -9.6m/s | -56.3°C | 5.0% | 116.1hPa | 2.6V | 08:17:00 | 02:27:29 | 00:00:00 | |
| DD8BA-10 | 2026-09-03 00:45:00 | 50.95649 | 8.34238 | 146° | 55km/h | 15609m | -9.8m/s | -56.3°C | 5.0% | 116.0hPa | 2.5V | 08:17:00 | 00:00:00 | 00:00:00 | |
| DJ8HS-15 | 2026-09-03 00:44:59 | 50.95660 | 8.34226 | 145° | 64km/h | 15619m | -10.2m/s | -56.3°C | 5.0% | 115.8hPa | 2.6V | 00:00:00 | 02:27:27 | 00:00:00 | |
| DL1XH1-15 | 2026-09-03 00:44:57 | 50.95700 | 8.34109 | 105° | 71km/h | 15689m | -9.9m/s | -56.5°C | 5% | 114.5hPa | 2.6V | 08:17:57 | 02:27:20 | 00:00:00 | |
| DL1XH-west | 2026-09-03 00:44:56 | 50.95684 | 8.34191 | 122° | 40km/h | 15650m | -10.2m/s | -56.4°C | 1.4% | 115.3hPa | 2.6V | 08:18:14 | 02:27:24 | 00:00:00 | |
| DO1YAY-16 | 2026-09-03 00:44:54 | 50.95696 | 8.34135 | 103° | 60km/h | 15679m | -9.6m/s | -56.5°C | 1.8% | 114.8hPa | 2.5V | 00:00:00 | 00:00:00 | 00:00:00 | |
| DL1NUX | 2026-09-03 00:44:53 | 50.95732 | 8.33988 | 120° | 86km/h | 15731m | -11.1m/s | -56.1°C | 4.8% | 113.9hPa | 2.5V | 08:18:01 | 02:27:16 | 00:00:00 | |
| BIOWL1-15 | 2026-09-03 00:44:52 | 50.95700 | 8.34109 | 105° | 71km/h | 15689m | -9.9m/s | -56.5°C | 1.3% | 114.5hPa | 2.6V | 08:18:14 | 02:27:20 | 00:00:00 | |
| HSKMA3-T | 2026-09-03 00:44:51 | 50.95706 | 8.34080 | 108° | 78km/h | 15699m | -10.4m/s | -56.3°C | 1.3% | 114.4hPa | 2.6V | 08:18:14 | 02:27:19 | 00:00:00 | |
| DM0DOS-11 | 2026-09-03 00:44:51 | 50.95743 | 8.33959 | 124° | 86km/h | 15741m | -10.6m/s | -56.1°C | 4.8% | 113.6hPa | 2.5V | 08:18:02 | 02:27:15 | 00:00:00 | |
| DL1XH-west | 2026-09-03 00:44:46 | 50.95756 | 8.33932 | 129° | 84km/h | 15752m | -10.1m/s | -56°C | 1.3% | 113.4hPa | 2.6V | 08:18:14 | 02:27:14 | 00:00:00 | |
| BUE01 | 2026-09-03 00:44:46 | 50.95770 | 8.33907 | 134° | 80km/h | 15762m | -9.9m/s | -55.9°C | 1.7% | 113.2hPa | 2.5V | 00:00:00 | 00:00:00 | 00:00:00 | |
| DL1XH-15 | 2026-09-03 00:44:45 | 50.95823 | 8.33840 | 144° | 53km/h | 15803m | -10.4m/s | -55.7°C | 4.7% | 112.5hPa | 2.5V | 08:18:08 | 02:27:09 | 00:00:00 | |
| DB0NH | 2026-09-03 00:44:44 | 50.95784 | 8.33886 | 140° | 58km/h | 15772m | -10.0m/s | -55.7°C | 4.6% | 113.0hPa | 2.6V | 00:00:00 | 02:27:12 | 00:00:00 | |
| DL1NUX | 2026-09-03 00:44:43 | 50.95848 | 8.33803 | 122° | 40km/h | 15834m | -10.8m/s | -55.8°C | 4.7% | 112hPa | 2.6V | 08:18:11 | 02:27:06 | 00:00:00 | |
| BIOWL1-15 | 2026-09-03 00:44:42 | 50.95848 | 8.33803 | 122° | 40km/h | 15834m | -10.8m/s | -55.8°C | 1.2% | 112hPa | 2.6V | 08:18:14 | 02:27:06 | 00:00:00 | |
| DO3MHA-12 | 2026-09-03 00:44:41 | 50.95823 | 8.33840 | 145° | 55km/h | 15803m | -10.4m/s | -55.7°C | 4.7% | 112.4hPa | 2.5V | 00:00:00 | 02:27:09 | 00:00:00 | |
| DM0DOS-11 | 2026-09-03 00:44:40 | 50.95853 | 8.33788 | 113° | 42km/h | 15845m | -10.4m/s | -55.7°C | 4.6% | 111.8hPa | 2.5V | 08:18:12 | 02:27:05 | 00:00:00 | |
| HSKMA3-T | 2026-09-03 00:44:40 | 50.95833 | 8.33828 | 141° | 46km/h | 15813m | -10.4m/s | -55.8°C | 1.2% | 112.3hPa | 2.5V | 08:18:14 | 02:27:08 | 00:00:00 | |
| DO9LL-15 | 2026-09-03 00:44:39 | 50.95841 | 8.33816 | 134° | 60km/h | 15824m | -10.5m/s | -55.7°C | 4.7% | 112.1hPa | 2.6V | 08:18:00 | 02:27:07 | 00:00:00 | |
| DL8DAS-15 | 2026-09-03 00:44:38 | 50.95841 | 8.33816 | 134° | 42km/h | 15824m | -10.5m/s | -55.8°C | 1.7% | 112.1hPa | 2.5V | 08:18:00 | 00:00:00 | 00:00:00 | |
| DL1XH1-15 | 2026-09-03 00:44:36 | 50.95876 | 8.33674 | 113° | 78km/h | 15895m | -10.1m/s | -55.8°C | 4.6% | 110.9hPa | 2.5V | 08:18:17 | 02:27:00 | 00:00:00 | |
| DL1XH-west | 2026-09-03 00:44:35 | 50.95860 | 8.33751 | 105° | 55km/h | 15865m | -9.9m/s | -55.8°C | 1.2% | 111.5hPa | 2.5V | 08:18:14 | 02:27:03 | 00:00:00 | |
| DO3MHA-11 | 2026-09-03 00:44:35 | 50.95860 | 8.33751 | 105° | 73km/h | 15866m | -9.9m/s | -55.7°C | 4.6% | 111.4hPa | 2.6V | 00:00:00 | 02:27:03 | 00:00:00 | |
| DL1NUX | 2026-09-03 00:44:33 | 50.95922 | 8.33568 | 134° | 78km/h | 15938m | -10.1m/s | -56°C | 4.7% | 110.2hPa | 2.6V | 08:18:21 | 02:26:56 | 00:00:00 | |
| HSKMA3-T | 2026-09-03 00:44:30 | 50.95896 | 8.33618 | 125° | 82km/h | 15916m | -11.3m/s | -55.9°C | 1.1% | 110.6hPa | 2.5V | 08:19:05 | 02:26:58 | 00:00:00 | |
| DD8BA-10 | 2026-09-03 00:44:30 | 50.95896 | 8.33618 | 125° | 64km/h | 15916m | -11.3m/s | -55.8°C | 4.6% | 110.5hPa | 2.5V | 00:00:00 | 00:00:00 | 00:00:00 | |
| DM0DOS-11 | 2026-09-03 00:44:29 | 50.95936 | 8.33547 | 138° | 75km/h | 15947m | -9.7m/s | -56°C | 4.7% | 110hPa | 2.5V | 08:18:22 | 02:26:55 | 00:00:00 | |
| BIOWL1-15 | 2026-09-03 00:44:29 | 50.95950 | 8.33529 | 143° | 68km/h | 15957m | -10m/s | -56.1°C | 1.1% | 109.8hPa | 2.5V | 08:19:05 | 02:26:54 | 00:00:00 | |
| DL8DAS-15 | 2026-09-03 00:44:29 | 50.95909 | 8.33592 | 130° | 82km/h | 15927m | -10.9m/s | -55.9°C | 1.7% | 110.4hPa | 2.5V | 00:00:00 | 00:00:00 | 00:00:00 | |
| DK9SH | 2026-09-03 00:44:28 | 50.95922 | 8.33568 | 135° | 78km/h | 15938m | -10.1m/s | -56.0°C | 1.7% | 110.2hPa | 2.5V | 08:19:00 | 00:00:00 | 00:00:00 | |
| DL4BBY-15 | 2026-09-03 00:44:27 | 50.95936 | 8.33547 | 139° | 49km/h | 15948m | -9.7m/s | -55.1°C | 0% | 0hPa | 2.5V | 00:00:00 | 00:00:00 | 00:00:00 | |
| DL1XH1-15 | 2026-09-03 00:44:25 | 50.95994 | 8.33477 | 138° | 44km/h | 16000m | -10.4m/s | -56.3°C | 4.8% | 109.1hPa | 2.5V | 08:18:27 | 02:26:50 | 00:00:00 | |
| DL1XH-west | 2026-09-03 00:44:24 | 50.95975 | 8.33500 | 145° | 53km/h | 15979m | -11.1m/s | -56.2°C | 1.1% | 109.5hPa | 2.6V | 08:19:05 | 02:26:52 | 00:00:00 | |
| DL1XH-15 | 2026-09-03 00:44:24 | 50.96002 | 8.33465 | 131° | 40km/h | 16011m | -10.2m/s | -56.3°C | 4.9% | 108.9hPa | 2.5V | 08:18:28 | 02:26:49 | 00:00:00 | |
| HSKMA3-T | 2026-09-03 00:44:19 | 50.96012 | 8.33439 | 113° | 40km/h | 16031m | -10.9m/s | -56.4°C | 1.3% | 108.6hPa | 2.6V | 08:19:05 | 02:26:47 | 00:00:00 | |
| DJ8HS-15 | 2026-09-03 00:44:19 | 50.96012 | 8.33438 | 113° | 49km/h | 16032m | -10.9m/s | -56.4°C | 4.9% | 108.5hPa | 2.5V | 00:00:00 | 02:26:47 | 00:00:00 | |
| DM0DOS-11 | 2026-09-03 00:44:18 | 50.96019 | 8.33404 | 104° | 49km/h | 16054m | -11.7m/s | -56.5°C | 5% | 108.2hPa | 2.5V | 08:18:32 | 02:26:45 | 00:00:00 | |
| DL3AQ-11 | 2026-09-03 00:44:18 | 50.96019 | 8.33404 | 104° | 49km/h | 16054m | -11.7m/s | -56.5°C | 1.7% | 108.2hPa | 2.5V | 00:00:00 | 00:00:00 | 00:00:00 | |
| BIOWL9-15 | 2026-09-03 00:44:17 | 50.96022 | 8.33384 | 103° | 53km/h | 16066m | -10.7m/s | -56.5°C | 1.7% | 108.0hPa | 2.5V | 00:00:00 | 00:00:00 | 00:00:00 | |
| DL1XH1-15 | 2026-09-03 00:44:16 | 50.96048 | 8.33288 | 125° | 73km/h | 16103m | -9.4m/s | -56.4°C | 4.9% | 107.4hPa | 2.5V | 08:18:37 | 02:26:40 | 00:00:00 | |
| BIOWL1-15 | 2026-09-03 00:44:15 | 50.96026 | 8.33362 | 106° | 60km/h | 16076m | -9.6m/s | -56.5°C | 1.3% | 107.8hPa | 2.5V | 08:19:05 | 02:26:43 | 00:00:00 | |
| DL1XH-west | 2026-09-03 00:44:14 | 50.96038 | 8.33313 | 118° | 71km/h | 16094m | -8.8m/s | -56.4°C | 1.2% | 107.5hPa | 2.6V | 08:19:05 | 02:26:41 | 00:00:00 | |
| DL1XH-15 | 2026-09-03 00:44:13 | 50.96059 | 8.33266 | 132° | 73km/h | 16113m | -10.5m/s | -56.3°C | 4.8% | 107.2hPa | 2.5V | 08:18:38 | 02:26:39 | 00:00:00 | |
| DM0DOS-11 | 2026-09-03 00:44:13 | 50.96106 | 8.33202 | 143° | 49km/h | 16159m | -11.6m/s | -56.2°C | 4.8% | 106.4hPa | 2.5V | 08:18:42 | 02:26:35 | 00:00:00 | |
| HSKMA3-T | 2026-09-03 00:44:08 | 50.96096 | 8.33214 | 142° | 57km/h | 16148m | -11.8m/s | -56.2°C | 1.2% | 106.7hPa | 2.6V | 08:19:05 | 02:26:36 | 00:00:00 | |
| DO3DL | 2026-09-03 00:44:08 | 50.96095 | 8.33214 | 143° | 57km/h | 16148m | -11.8m/s | -56.2°C | 1.6% | 106.7hPa | 2.5V | 08:19:00 | 00:00:00 | 00:00:00 | |
| DK9SH | 2026-09-03 00:44:06 | 50.96106 | 8.33201 | 144° | 49km/h | 16160m | -11.6m/s | -56.2°C | 1.6% | 106.4hPa | 2.5V | 08:19:00 | 00:00:00 | 00:00:00 | |
| DO3MHA-11 | 2026-09-03 00:44:05 | 50.96124 | 8.33180 | 143° | 38km/h | 16182m | -10.6m/s | -55.9°C | 4.7% | 106.0hPa | 2.5V | 00:00:00 | 02:26:33 | 00:00:00 | |
| WPPR-10 | 2026-09-03 00:44:04 | 50.96131 | 8.33172 | 135° | 29km/h | 16192m | -10.7m/s | -55.9°C | 1.6% | 105.8hPa | 2.5V | 00:00:00 | 00:00:00 | 00:00:00 | |
| DL1CLM-18 | 2026-09-03 00:44:03 | 50.96130 | 8.33171 | 137° | 31km/h | 16193m | -10.7m/s | -55.9°C | 1.6% | 105.8hPa | 2.5V | 00:00:00 | 00:00:00 | 00:00:00 | |
| DL1XH-15 | 2026-09-03 00:44:02 | 50.96140 | 8.33143 | 95° | 29km/h | 16225m | -11m/s | -55.9°C | 4.7% | 105.3hPa | 2.5V | 08:18:48 | 02:26:29 | 00:00:00 | |
| DM0DOS-11 | 2026-09-03 00:44:02 | 50.96137 | 8.33080 | 87° | 51km/h | 16268m | -10.6m/s | -55.8°C | 4.6% | 104.6hPa | 2.5V | 08:18:52 | 02:26:25 | 00:00:00 | |
| DL1XH-west | 2026-09-03 00:44:02 | 50.96138 | 8.33154 | 108° | 26km/h | 16214m | -10.7m/s | -55.9°C | 1.1% | 105.5hPa | 2.5V | 08:19:05 | 02:26:30 | 00:00:00 | |
| HSKMA3-T | 2026-09-03 00:43:57 | 50.96137 | 8.33080 | 88° | 51km/h | 16268m | -10.6m/s | -55.8°C | 1% | 104.6hPa | 2.5V | 08:19:05 | 02:26:25 | 00:00:00 | |
| DL4BBY-15 | 2026-09-03 00:43:57 | 50.96137 | 8.33080 | 88° | 60km/h | 16268m | -10.6m/s | -54.8°C | 0% | 0hPa | 2.5V | 00:00:00 | 00:00:00 | 00:00:00 | |
| DL1XH1-15 | 2026-09-03 00:43:56 | 50.96147 | 8.32957 | 105° | 69km/h | 16324m | -11.6m/s | -56°C | 4.7% | 103.7hPa | 2.5V | 08:18:57 | 02:26:20 | 00:00:00 | |
| BIOWL1-15 | 2026-09-03 00:43:54 | 50.96159 | 8.32903 | 112° | 71km/h | 16348m | -11.6m/s | -56.1°C | 1.2% | 103.3hPa | 2.5V | 08:19:05 | 02:26:18 | 00:00:00 | |
| AA1-15 | 2026-09-03 00:43:53 | 50.96143 | 8.32983 | 102° | 68km/h | 16313m | -11.8m/s | -55.9°C | 1.1% | 103.9hPa | 2.6V | 08:19:05 | 02:26:21 | 00:00:00 | |
| DL1XH-west | 2026-09-03 00:43:52 | 50.96147 | 8.32957 | 105° | 69km/h | 16325m | -11.6m/s | -56°C | 1.1% | 103.7hPa | 2.5V | 08:19:05 | 02:26:20 | 00:00:00 | |
| DM0DOS-11 | 2026-09-03 00:43:52 | 50.96184 | 8.32831 | 126° | 66km/h | 16380m | -10.2m/s | -56.1°C | 4.8% | 102.8hPa | 2.5V | 08:19:02 | 02:26:15 | 00:00:00 | |
| DO1YAY-16 | 2026-09-03 00:43:51 | 50.96152 | 8.32930 | 109° | 69km/h | 16336m | -12.0m/s | -56.1°C | 1.6% | 103.5hPa | 2.6V | 00:00:00 | 00:00:00 | 00:00:00 | |
| DL3AQ-11 | 2026-09-03 00:43:49 | 50.96174 | 8.32853 | 120° | 68km/h | 16370m | -10.3m/s | -56.1°C | 1.6% | 102.9hPa | 2.6V | 00:00:00 | 00:00:00 | 00:00:00 | |
| DJ2KF-10 | 2026-09-03 00:43:48 | 50.96174 | 8.32853 | 121° | 58km/h | 16370m | -10.3m/s | -56.1°C | 4.8% | 102.9hPa | 2.6V | 00:00:00 | 02:26:16 | 00:00:00 | |
| GOEST3-10 | 2026-09-03 00:43:47 | 50.96184 | 8.32831 | 127° | 53km/h | 16380m | -10.1m/s | -56.0°C | 4.8% | 102.7hPa | 2.5V | 00:00:00 | 02:26:15 | 00:00:00 | |
| DL1XH1-15 | 2026-09-03 00:43:46 | 50.96225 | 8.32755 | 123° | 37km/h | 16435m | -10.6m/s | -56°C | 4.8% | 101.9hPa | 2.5V | 08:19:07 | 02:26:10 | 00:00:00 | |
| HSKMA3-T | 2026-09-03 00:43:46 | 50.96194 | 8.32811 | 131° | 60km/h | 16390m | -10.7m/s | -55.9°C | 1.1% | 102.6hPa | 2.5V | 08:19:05 | 02:26:14 | 00:00:00 | |
| BIOWL9-15 | 2026-09-03 00:43:46 | 50.96203 | 8.32795 | 133° | 51km/h | 16402m | -11.5m/s | -55.9°C | 1.6% | 102.4hPa | 2.6V | 00:00:00 | 00:00:00 | 00:00:00 | |
| HARRO8 | 2026-09-03 00:43:44 | 50.96212 | 8.32780 | 133° | 46km/h | 16413m | -11.4m/s | -55.9°C | 1.6% | 102.2hPa | 2.6V | 00:00:00 | 00:00:00 | 00:00:00 | |
| AA1-15 | 2026-09-03 00:43:43 | 50.96219 | 8.32767 | 130° | 42km/h | 16424m | -11m/s | -56°C | 1.1% | 102.1hPa | 2.6V | 08:19:56 | 02:26:11 | 00:00:00 | |
| BIOWL1-15 | 2026-09-03 00:43:43 | 50.96231 | 8.32729 | 98° | 37km/h | 16456m | -11m/s | -55.9°C | 1.1% | 101.6hPa | 2.5V | 08:19:56 | 02:26:08 | 00:00:00 | |
| DL1XH-west | 2026-09-03 00:43:42 | 50.96225 | 8.32755 | 123° | 37km/h | 16435m | -10.6m/s | -56°C | 1.1% | 101.9hPa | 2.5V | 08:19:56 | 02:26:10 | 00:00:00 | |
| DO3MHA-12 | 2026-09-03 00:43:41 | 50.96229 | 8.32742 | 111° | 57km/h | 16446m | -10.6m/s | -55.9°C | 4.8% | 101.7hPa | 2.5V | 00:00:00 | 02:26:09 | 00:00:00 | |
| DD8BA-10 | 2026-09-03 00:43:40 | 50.96231 | 8.32729 | 98° | 60km/h | 16456m | -10.9m/s | -55.9°C | 4.8% | 101.5hPa | 2.5V | 00:00:00 | 00:00:00 | 00:00:00 | |
| DO9LL-15 | 2026-09-03 00:43:39 | 50.96232 | 8.32714 | 90° | 55km/h | 16468m | -11.4m/s | -55.7°C | 4.7% | 101.3hPa | 2.5V | 00:00:00 | 02:26:07 | 00:00:00 | |
| DL3AQ-11 | 2026-09-03 00:43:38 | 50.96231 | 8.32676 | 86° | 51km/h | 16491m | -11.2m/s | -55.5°C | 1.5% | 101.0hPa | 2.5V | 00:00:00 | 00:00:00 | 00:00:00 | |
| DL1XH1-15 | 2026-09-03 00:43:36 | 50.96237 | 8.32541 | 104° | 78km/h | 16545m | -10.8m/s | -55.5°C | 4.6% | 100.1hPa | 2.5V | 08:19:17 | 02:26:00 | 00:00:00 | |
| HSKMA3-T | 2026-09-03 00:43:35 | 50.96230 | 8.32628 | 91° | 66km/h | 16512m | -11.1m/s | -55.6°C | 1% | 100.7hPa | 2.5V | 08:19:56 | 02:26:03 | 00:00:00 | |
| DO3MHA-11 | 2026-09-03 00:43:35 | 50.96230 | 8.32628 | 91° | 75km/h | 16513m | -11.0m/s | -55.5°C | 4.6% | 100.6hPa | 2.6V | 00:00:00 | 02:26:03 | 00:00:00 | |
| WPPR-10 | 2026-09-03 00:43:34 | 50.96233 | 8.32572 | 99° | 75km/h | 16534m | -10.7m/s | -55.5°C | 1.5% | 100.3hPa | 2.6V | 00:00:00 | 00:00:00 | 00:00:00 | |
| DL1NUX | 2026-09-03 00:43:33 | 50.96269 | 8.32426 | 122° | 77km/h | 16588m | -10.9m/s | -55.5°C | 4.5% | 99.5hPa | 2.6V | 08:19:21 | 02:25:56 | 00:00:00 | |
| AA1-15 | 2026-09-03 00:43:33 | 50.96233 | 8.32572 | 99° | 75km/h | 16534m | -10.7m/s | -55.5°C | 1% | 100.3hPa | 2.6V | 08:19:56 | 02:26:01 | 00:00:00 | |
| DJ2DS-15 | 2026-09-03 00:43:33 | 50.96233 | 8.32571 | 100° | 58km/h | 16534m | -10.6m/s | -55.5°C | 4.6% | 100.3hPa | 2.5V | 00:00:00 | 02:26:01 | 00:00:00 | |
| DL1XH-15 | 2026-09-03 00:43:32 | 50.96243 | 8.32511 | 109° | 80km/h | 16555m | -11.1m/s | -55.5°C | 4.6% | 100hPa | 2.5V | 08:19:18 | 02:25:59 | 00:00:00 | |
| DL1XH-west | 2026-09-03 00:43:32 | 50.96237 | 8.32542 | 105° | 78km/h | 16545m | -10.8m/s | -55.5°C | 1.1% | 100.1hPa | 2.5V | 08:19:56 | 02:26:00 | 00:00:00 | |
| BIOWL1-15 | 2026-09-03 00:43:29 | 50.96259 | 8.32453 | 118° | 78km/h | 16577m | -11m/s | -55.5°C | 1% | 99.6hPa | 2.6V | 08:19:56 | 02:25:57 | 00:00:00 | |
| DO3DL | 2026-09-03 00:43:28 | 50.96269 | 8.32426 | 123° | 77km/h | 16588m | -10.9m/s | -55.5°C | 1.5% | 99.5hPa | 2.5V | 08:19:00 | 00:00:00 | 00:00:00 | |
| DL1XH-15 | 2026-09-03 00:43:27 | 50.96346 | 8.32293 | 140° | 49km/h | 16667m | -11.3m/s | -55.6°C | 4.5% | 98.3hPa | 2.5V | 08:19:28 | 02:25:49 | 00:00:00 | |
| DL1XH1-15 | 2026-09-03 00:43:26 | 50.96336 | 8.32306 | 139° | 55km/h | 16655m | -11.3m/s | -55.6°C | 4.5% | 98.4hPa | 2.5V | 08:19:27 | 02:25:50 | 00:00:00 | |
| HSKMA3-T | 2026-09-03 00:43:25 | 50.96303 | 8.32357 | 132° | 68km/h | 16622m | -11.3m/s | -55.6°C | 1% | 99hPa | 2.5V | 08:19:56 | 02:25:53 | 00:00:00 | |
| DO3MHA-11 | 2026-09-03 00:43:25 | 50.96303 | 8.32357 | 133° | 46km/h | 16622m | -11.2m/s | -55.6°C | 4.6% | 98.9hPa | 2.6V | 00:00:00 | 02:25:53 | 00:00:00 | |
| DL1NUX | 2026-09-03 00:43:23 | 50.96369 | 8.32260 | 132° | 33km/h | 16701m | -11.9m/s | -55.5°C | 4.5% | 97.7hPa | 2.6V | 08:19:31 | 02:25:46 | 00:00:00 | |
| AA1-15 | 2026-09-03 00:43:22 | 50.96336 | 8.32306 | 140° | 55km/h | 16655m | -11.3m/s | -55.6°C | 0.9% | 98.4hPa | 2.5V | 08:19:56 | 02:25:50 | 00:00:00 | |
| DL1XH-west | 2026-09-03 00:43:22 | 50.96346 | 8.32293 | 141° | 49km/h | 16667m | -11.3m/s | -55.6°C | 1% | 98.3hPa | 2.5V | 08:19:56 | 02:25:49 | 00:00:00 | |
| DO3MHA-12 | 2026-09-03 00:43:21 | 50.96346 | 8.32292 | 141° | 37km/h | 16667m | -11.2m/s | -55.5°C | 4.5% | 98.2hPa | 2.5V | 00:00:00 | 02:25:49 | 00:00:00 | |
| DD8BA-10 | 2026-09-03 00:43:20 | 50.96355 | 8.32281 | 141° | 37km/h | 16678m | -11.4m/s | -55.5°C | 4.5% | 98.1hPa | 2.5V | 00:00:00 | 00:00:00 | 00:00:00 | |
| DJ8HS-15 | 2026-09-03 00:43:19 | 50.96363 | 8.32270 | 138° | 51km/h | 16690m | -11.5m/s | -55.5°C | 4.5% | 97.9hPa | 2.5V | 00:00:00 | 02:25:47 | 00:00:00 | |
| DJ2KF-10 | 2026-09-03 00:43:18 | 50.96369 | 8.32260 | 133° | 51km/h | 16702m | -11.8m/s | -55.5°C | 4.5% | 97.7hPa | 2.5V | 00:00:00 | 02:25:46 | 00:00:00 | |
| DL8DAS-14 | 2026-09-03 00:43:17 | 50.96374 | 8.32251 | 124° | 29km/h | 16713m | -11.7m/s | -55.4°C | 1.4% | 97.6hPa | 2.5V | 00:00:00 | 00:00:00 | 00:00:00 | |
| DL1XH-15 | 2026-09-03 00:43:16 | 50.96377 | 8.32172 | 79° | 46km/h | 16781m | -11.7m/s | -55.6°C | 4.5% | 96.5hPa | 2.5V | 08:19:38 | 02:25:39 | 00:00:00 | |
| DL1XH1-15 | 2026-09-03 00:43:16 | 50.96379 | 8.32189 | 80° | 42km/h | 16769m | -11.4m/s | -55.5°C | 4.5% | 96.7hPa | 2.5V | 08:19:37 | 02:25:40 | 00:00:00 | |
| HSKMA3-T | 2026-09-03 00:43:14 | 50.96381 | 8.32218 | 92° | 31km/h | 16747m | -11.1m/s | -55.5°C | 0.9% | 97hPa | 2.6V | 08:19:56 | 02:25:42 | 00:00:00 | |
| DB0UT-7 | 2026-09-03 00:43:14 | 50.96381 | 8.32218 | 92° | 55km/h | 16747m | -11.1m/s | -55.4°C | 4.4% | 97.0hPa | 2.6V | 00:00:00 | 02:25:42 | 00:00:00 | |
| DL1NUX | 2026-09-03 00:43:13 | 50.96370 | 8.32109 | 81° | 58km/h | 16817m | -11.8m/s | -55.8°C | 4.7% | 95.9hPa | 2.6V | 08:19:41 | 02:25:36 | 00:00:00 | |
| AA1-15 | 2026-09-03 00:43:11 | 50.96377 | 8.32172 | 79° | 46km/h | 16781m | -11.7m/s | -55.6°C | 0.9% | 96.5hPa | 2.5V | 08:19:56 | 02:25:39 | 00:00:00 | |
| DL1XH-west | 2026-09-03 00:43:10 | 50.96375 | 8.32152 | 79° | 51km/h | 16793m | -12.2m/s | -55.7°C | 0.9% | 96.3hPa | 2.5V | 08:19:56 | 02:25:38 | 00:00:00 | |
| BIOWL1-15 | 2026-09-03 00:43:07 | 50.96368 | 8.32085 | 84° | 62km/h | 16829m | -11.6m/s | -55.9°C | 1.1% | 95.8hPa | 2.5V | 08:19:56 | 02:25:35 | 00:00:00 | |
| GOEST3-10 | 2026-09-03 00:43:07 | 50.96368 | 8.32085 | 84° | 69km/h | 16829m | -11.6m/s | -55.8°C | 4.8% | 95.7hPa | 2.5V | 00:00:00 | 00:00:00 | 00:00:00 | |
| DL1XH-15 | 2026-09-03 00:43:06 | 50.96381 | 8.31921 | 110° | 69km/h | 16896m | -11.2m/s | -56.2°C | 5% | 94.7hPa | 2.5V | 08:19:48 | 02:25:29 | 00:00:00 | |
| HSKMA3-T | 2026-09-03 00:43:04 | 50.96368 | 8.32004 | 96° | 71km/h | 16863m | -11.2m/s | -56.1°C | 1.2% | 95.2hPa | 2.6V | 08:19:56 | 02:25:32 | 00:00:00 | |
| AA1-15 | 2026-09-03 00:43:01 | 50.96381 | 8.31921 | 111° | 69km/h | 16896m | -11.2m/s | -56.2°C | 1.2% | 94.7hPa | 2.5V | 08:19:56 | 02:25:29 | 00:00:00 | |
| DL1XH-west | 2026-09-03 00:43:00 | 50.96388 | 8.31896 | 115° | 68km/h | 16908m | -11.4m/s | -56.3°C | 1.1% | 94.6hPa | 2.5V | 08:19:56 | 02:25:28 | 00:00:00 | |
| BIOWL1-15 | 2026-09-03 00:42:57 | 50.96410 | 8.31831 | 121° | 57km/h | 16942m | -12m/s | -56°C | 1.1% | 94.1hPa | 2.5V | 08:19:56 | 02:25:25 | 00:00:00 | |
| GOEST3-10 | 2026-09-03 00:42:57 | 50.96410 | 8.31831 | 121° | 58km/h | 16942m | -12.0m/s | -56.0°C | 4.8% | 94.1hPa | 2.5V | 00:00:00 | 00:00:00 | 00:00:00 | |
| DO3DL | 2026-09-03 00:42:55 | 50.96424 | 8.31795 | 121° | 49km/h | 16966m | -12.1m/s | -55.6°C | 1.5% | 93.7hPa | 2.5V | 08:19:00 | 00:00:00 | 00:00:00 | |
| DL1XH1-15 | 2026-09-03 00:42:55 | 50.96438 | 8.31749 | 109° | 38km/h | 17002m | -12.3m/s | -54.9°C | 4.5% | 93.2hPa | 2.5V | 08:19:57 | 02:25:20 | 00:00:00 | |
| DL1XH-15 | 2026-09-03 00:42:54 | 50.96441 | 8.31735 | 103° | 37km/h | 17014m | -12.2m/s | -54.7°C | 4.4% | 93hPa | 2.5V | 08:19:58 | 02:25:19 | 00:00:00 | |
| HSKMA3-T | 2026-09-03 00:42:53 | 50.96434 | 8.31764 | 115° | 40km/h | 16990m | -12m/s | -55.2°C | 1% | 93.4hPa | 2.6V | 08:19:56 | 02:25:21 | 00:00:00 | |
| AA1-15 | 2026-09-03 00:42:50 | 50.96442 | 8.31720 | 96° | 37km/h | 17026m | -11.7m/s | -54.6°C | 0.8% | 92.8hPa | 2.5V | 08:20:47 | 02:25:18 | 00:00:00 | |
| DL1XH-west | 2026-09-03 00:42:50 | 50.96443 | 8.31705 | 88° | 42km/h | 17038m | -11.3m/s | -54.6°C | 0.8% | 92.7hPa | 2.6V | 08:20:47 | 02:25:17 | 00:00:00 | |
| BIOWL1-15 | 2026-09-03 00:42:47 | 50.96438 | 8.31641 | 86° | 66km/h | 17072m | -11.3m/s | -54.6°C | 0.8% | 92.2hPa | 2.5V | 08:20:47 | 02:25:14 | 00:00:00 | |
| DL8DAS-14 | 2026-09-03 00:42:46 | 50.96438 | 8.31641 | 85° | 64km/h | 17072m | -11.3m/s | -54.6°C | 1.4% | 92.2hPa | 2.5V | 00:00:00 | 00:00:00 | 00:00:00 | |
| DO3MHA-11 | 2026-09-03 00:42:45 | 50.96438 | 8.31614 | 91° | 80km/h | 17084m | -11.2m/s | -54.5°C | 4.3% | 91.9hPa | 2.5V | 00:00:00 | 02:25:13 | 00:00:00 | |
| DL1XH1-15 | 2026-09-03 00:42:44 | 50.96447 | 8.31520 | 107° | 84km/h | 17118m | -12.1m/s | -54.5°C | 4.2% | 91.5hPa | 2.5V | 08:20:07 | 02:25:10 | 00:00:00 | |
| DL1NUX | 2026-09-03 00:42:44 | 50.96487 | 8.31402 | 128° | 80km/h | 17168m | -11.8m/s | -54.5°C | 4.3% | 90.8hPa | 2.6V | 08:20:11 | 02:25:06 | 00:00:00 | |
| HSKMA3-T | 2026-09-03 00:42:42 | 50.96447 | 8.31520 | 107° | 84km/h | 17119m | -12.1m/s | -54.5°C | 0.8% | 91.5hPa | 2.5V | 08:20:47 | 02:25:10 | 00:00:00 | |
| DL1XH-west | 2026-09-03 00:42:39 | 50.96475 | 8.31429 | 123° | 84km/h | 17156m | -12.5m/s | -54.5°C | 0.8% | 91hPa | 2.6V | 08:20:47 | 02:25:07 | 00:00:00 | |
| BIOWL1-15 | 2026-09-03 00:42:36 | 50.96590 | 8.31204 | 95° | 57km/h | 17325m | -12.1m/s | -54.8°C | 0.9% | 88.6hPa | 2.5V | 08:20:47 | 02:24:53 | 00:00:00 | |
| DO3MHA-11 | 2026-09-03 00:42:35 | 50.96527 | 8.31339 | 143° | 46km/h | 17203m | -11.9m/s | -54.4°C | 4.3% | 90.3hPa | 2.6V | 00:00:00 | 02:25:03 | 00:00:00 | |
| DL1NUX | 2026-09-03 00:42:34 | 50.96586 | 8.31257 | 106° | 35km/h | 17289m | -12.1m/s | -54.7°C | 4.3% | 89.1hPa | 2.6V | 08:20:21 | 02:24:56 | 00:00:00 | |
| DL1XH-15 | 2026-09-03 00:42:33 | 50.96571 | 8.31290 | 141° | 40km/h | 17253m | -12m/s | -54.6°C | 4.3% | 89.6hPa | 2.5V | 08:20:18 | 02:24:59 | 00:00:00 | |
| DL1XH1-15 | 2026-09-03 00:42:33 | 50.96561 | 8.31300 | 145° | 46km/h | 17240m | -12.3m/s | -54.5°C | 4.3% | 89.7hPa | 2.5V | 08:20:17 | 02:25:00 | 00:00:00 | |
| HSKMA3-T | 2026-09-03 00:42:32 | 50.96562 | 8.31300 | 146° | 47km/h | 17240m | -12.3m/s | -54.5°C | 0.8% | 89.8hPa | 2.5V | 08:20:47 | 02:25:00 | 00:00:00 | |
| DL1XH-west | 2026-09-03 00:42:29 | 50.96582 | 8.31269 | 119° | 33km/h | 17277m | -12.7m/s | -54.6°C | 0.8% | 89.2hPa | 2.6V | 08:20:47 | 02:24:57 | 00:00:00 | |
| DL3AQ-11 | 2026-09-03 00:42:29 | 50.96586 | 8.31257 | 106° | 33km/h | 17290m | -12.1m/s | -54.7°C | 1.4% | 89.1hPa | 2.5V | 00:00:00 | 00:00:00 | 00:00:00 | |
| DD1CC8 | 2026-09-03 00:42:28 | 50.96588 | 8.31242 | 97° | 38km/h | 17301m | -11.5m/s | -54.7°C | 1.4% | 88.9hPa | 2.5V | 00:00:00 | 00:00:00 | 00:00:00 | |
| DL1XH-15 | 2026-09-03 00:42:27 | 50.96613 | 8.31069 | 116° | 77km/h | 17385m | -12.4m/s | -54.9°C | 4.5% | 87.9hPa | 2.5V | 08:20:29 | 02:24:48 | 00:00:00 | |
| BIOWL1-15 | 2026-09-03 00:42:24 | 50.96594 | 8.31153 | 102° | 69km/h | 17349m | -11.8m/s | -54.9°C | 0.9% | 88.3hPa | 2.6V | 08:20:47 | 02:24:51 | 00:00:00 | |
| DF7PN | 2026-09-03 00:42:24 | 50.96591 | 8.31179 | 98° | 64km/h | 17337m | -12.2m/s | -54.9°C | 1.4% | 88.5hPa | 2.6V | 00:00:00 | 00:00:00 | 00:00:00 | |
| DL1NUX | 2026-09-03 00:42:23 | 50.96633 | 8.31018 | 126° | 73km/h | 17410m | -12.6m/s | -54.8°C | 4.5% | 87.5hPa | 2.6V | 08:20:31 | 02:24:46 | 00:00:00 | |
| DL1XH1-15 | 2026-09-03 00:42:22 | 50.96599 | 8.31125 | 107° | 73km/h | 17360m | -11.8m/s | -54.9°C | 4.5% | 88.2hPa | 2.5V | 08:20:27 | 02:24:50 | 00:00:00 | |
| HSKMA3-T | 2026-09-03 00:42:21 | 50.96605 | 8.31097 | 112° | 77km/h | 17372m | -11.9m/s | -55°C | 0.9% | 88hPa | 2.5V | 08:20:47 | 02:24:49 | 00:00:00 | |
| DM0DOS-11 | 2026-09-03 00:42:21 | 50.96678 | 8.30947 | 143° | 51km/h | 17459m | -11.8m/s | -54.4°C | 4.3% | 86.8hPa | 2.6V | 08:20:35 | 02:24:42 | 00:00:00 | |
| DL1XH-west | 2026-09-03 00:42:20 | 50.96622 | 8.31043 | 122° | 75km/h | 17397m | -12.5m/s | -54.9°C | 0.9% | 87.7hPa | 2.6V | 08:20:47 | 02:24:47 | 00:00:00 | |
| DO1YAY-16 | 2026-09-03 00:42:19 | 50.96633 | 8.31018 | 126° | 71km/h | 17410m | -12.6m/s | -54.8°C | 1.4% | 87.5hPa | 2.5V | 00:00:00 | 00:00:00 | 00:00:00 | |
| DL3AQ-11 | 2026-09-03 00:42:18 | 50.96644 | 8.30996 | 130° | 69km/h | 17422m | -12.4m/s | -54.7°C | 1.4% | 87.3hPa | 2.5V | 00:00:00 | 00:00:00 | 00:00:00 | |
| DO3MHA-11 | 2026-09-03 00:42:15 | 50.96667 | 8.30960 | 141° | 35km/h | 17447m | -11.9m/s | -54.4°C | 4.3% | 86.9hPa | 2.5V | 00:00:00 | 02:24:43 | 00:00:00 | |
| DL1XH-15 | 2026-09-03 00:42:14 | 50.96701 | 8.30918 | 133° | 27km/h | 17494m | -12m/s | -54.5°C | 4.3% | 86.3hPa | 2.5V | 08:20:38 | 02:24:39 | 00:00:00 | |
| BIOWL1-15 | 2026-09-03 00:42:14 | 50.96678 | 8.30947 | 143° | 51km/h | 17459m | -11.8m/s | -54.4°C | 0.8% | 86.8hPa | 2.6V | 08:20:47 | 02:24:42 | 00:00:00 | |
| DO2JMG | 2026-09-03 00:42:13 | 50.96687 | 8.30936 | 144° | 42km/h | 17471m | -11.9m/s | -54.4°C | 0.8% | 0hPa | 2.6V | 08:20:47 | 02:24:41 | 00:00:00 | |
| DL1XH1-15 | 2026-09-03 00:42:12 | 50.96695 | 8.30927 | 142° | 35km/h | 17482m | -11.8m/s | -54.5°C | 4.3% | 86.5hPa | 2.5V | 08:20:37 | 02:24:40 | 00:00:00 | |
| HSKMA3-T | 2026-09-03 00:42:10 | 50.96704 | 8.30910 | 118° | 22km/h | 17506m | -12.5m/s | -54.5°C | 0.8% | 86.2hPa | 2.5V | 08:20:47 | 02:24:38 | 00:00:00 | |
| AA1-15 | 2026-09-03 00:42:09 | 50.96706 | 8.30902 | 103° | 24km/h | 17519m | -12.4m/s | -54.4°C | 0.8% | 86hPa | 2.6V | 08:20:47 | 02:24:37 | 00:00:00 | |
| DL1XH-west | 2026-09-03 00:42:08 | 50.96707 | 8.30892 | 92° | 26km/h | 17531m | -12.1m/s | -54.3°C | 0.8% | 85.9hPa | 2.6V | 08:20:47 | 02:24:36 | 00:00:00 | |
| DL1XH1-15 | 2026-09-03 00:42:07 | 50.96686 | 8.30778 | 72° | 58km/h | 17616m | -12.1m/s | -54.2°C | 4.3% | 84.7hPa | 2.5V | 08:20:48 | 02:24:29 | 00:00:00 | |
| DJTTGO | 2026-09-03 00:42:06 | 50.96704 | 8.30868 | 77° | 35km/h | 17555m | -11.9m/s | -54.3°C | 1.3% | 85.5hPa | 2.5V | 00:00:00 | 00:00:00 | 00:00:00 | |
| DO3MHA-11 | 2026-09-03 00:42:05 | 50.96702 | 8.30853 | 73° | 60km/h | 17567m | -12.2m/s | -54.2°C | 4.3% | 85.3hPa | 2.5V | 00:00:00 | 02:24:33 | 00:00:00 | |
| DL1XH-15 | 2026-09-03 00:42:04 | 50.96686 | 8.30778 | 72° | 58km/h | 17616m | -12.1m/s | -54.2°C | 4.3% | 84.7hPa | 2.5V | 08:20:48 | 02:24:29 | 00:00:00 | |
| DL1NUX | 2026-09-03 00:42:03 | 50.96674 | 8.30701 | 80° | 73km/h | 17652m | -12.6m/s | -54.1°C | 4.3% | 84.2hPa | 2.6V | 08:20:51 | 02:24:26 | 00:00:00 | |
| DO2JMG | 2026-09-03 00:42:03 | 50.96695 | 8.30819 | 71° | 49km/h | 17592m | -12.3m/s | 0°C | 0% | 0hPa | 2.6V | 08:20:47 | 02:24:31 | 00:00:00 | |
| HSKMA3-T | 2026-09-03 00:42:00 | 50.96682 | 8.30754 | 74° | 64km/h | 17628m | -11.9m/s | -54.1°C | 0.8% | 84.5hPa | 2.5V | 08:21:38 | 02:24:28 | 00:00:00 | |
| AA1-15 | 2026-09-03 00:41:58 | 50.96674 | 8.30701 | 80° | 73km/h | 17653m | -12.6m/s | -54.1°C | 0.8% | 84.2hPa | 2.6V | 08:21:38 | 02:24:26 | 00:00:00 | |
| DL1XH-west | 2026-09-03 00:41:57 | 50.96672 | 8.30671 | 83° | 77km/h | 17665m | -12.4m/s | -54.1°C | 0.8% | 84.1hPa | 2.5V | 08:21:38 | 02:24:25 | 00:00:00 | |
| DD1CC8 | 2026-09-03 00:41:57 | 50.96670 | 8.30640 | 86° | 78km/h | 17678m | -12.4m/s | -54.0°C | 1.4% | 83.8hPa | 2.5V | 00:00:00 | 00:00:00 | 00:00:00 | |
| DL1XH1-15 | 2026-09-03 00:41:56 | 50.96678 | 8.30510 | 104° | 82km/h | 17728m | -12.3m/s | -53.8°C | 4.2% | 83.2hPa | 2.5V | 08:20:57 | 02:24:20 | 00:00:00 | |
| GOEST3-10 | 2026-09-03 00:41:55 | 50.96669 | 8.30608 | 92° | 82km/h | 17690m | -12.5m/s | -53.8°C | 4.2% | 83.7hPa | 2.5V | 00:00:00 | 02:24:23 | 00:00:00 | |
| DL1XH-15 | 2026-09-03 00:41:53 | 50.96684 | 8.30479 | 109° | 82km/h | 17740m | -11.9m/s | -53.8°C | 4.2% | 83.1hPa | 2.5V | 08:20:58 | 02:24:19 | 00:00:00 | |
| DL1NUX | 2026-09-03 00:41:53 | 50.96711 | 8.30394 | 122° | 75km/h | 17777m | -12.5m/s | -53.8°C | 4.2% | 82.6hPa | 2.6V | 08:21:01 | 02:24:16 | 00:00:00 | |
| BIOWL1-15 | 2026-09-03 00:41:53 | 50.96684 | 8.30479 | 109° | 82km/h | 17740m | -11.9m/s | -53.8°C | 0.7% | 83.1hPa | 2.5V | 08:21:38 | 02:24:19 | 00:00:00 | |
| DO2JMG | 2026-09-03 00:41:52 | 50.96678 | 8.30510 | 105° | 82km/h | 17728m | -12.3m/s | 0°C | 0% | 0hPa | 2.5V | 18:12:15 | 02:24:20 | 00:00:00 | |
| HSKMA3-T | 2026-09-03 00:41:49 | 50.96701 | 8.30421 | 119° | 78km/h | 17764m | -12.2m/s | -53.8°C | 0.7% | 82.8hPa | 2.6V | 08:21:38 | 02:24:17 | 00:00:00 | |
| AA1-15 | 2026-09-03 00:41:49 | 50.96710 | 8.30394 | 123° | 75km/h | 17777m | -12.5m/s | -53.8°C | 0.8% | 82.6hPa | 2.6V | 08:21:38 | 02:24:16 | 00:00:00 | |
| DL1XH-west | 2026-09-03 00:41:48 | 50.96721 | 8.30370 | 126° | 71km/h | 17789m | -12.2m/s | -53.8°C | 0.8% | 82.4hPa | 2.5V | 08:21:38 | 02:24:15 | 00:00:00 | |
| DD1CC3-15 | 2026-09-03 00:41:46 | 50.96732 | 8.30348 | 130° | 68km/h | 17801m | -12.0m/s | -53.8°C | 1.3% | 82.2hPa | 2.6V | 08:21:00 | 00:00:00 | 00:00:00 | |
| DJTTGO | 2026-09-03 00:41:45 | 50.96742 | 8.30328 | 133° | 64km/h | 17813m | -12.0m/s | -53.8°C | 1.3% | 82.1hPa | 2.6V | 00:00:00 | 00:00:00 | 00:00:00 | |
| DB0NH | 2026-09-03 00:41:44 | 50.96753 | 8.30310 | 135° | 47km/h | 17825m | -12.3m/s | -53.7°C | 4.2% | 81.9hPa | 2.6V | 08:21:00 | 02:24:12 | 00:00:00 | |
| DL1NUX | 2026-09-03 00:41:43 | 50.96803 | 8.30236 | 130° | 33km/h | 17899m | -12.2m/s | -53.7°C | 4.2% | 81hPa | 2.6V | 08:21:11 | 02:24:06 | 00:00:00 | |
| DL1XH-15 | 2026-09-03 00:41:42 | 50.96782 | 8.30268 | 138° | 44km/h | 17862m | -12.3m/s | -53.6°C | 4.2% | 81.5hPa | 2.5V | 08:21:08 | 02:24:09 | 00:00:00 | |
| BIOWL1-15 | 2026-09-03 00:41:41 | 50.96782 | 8.30268 | 138° | 44km/h | 17862m | -12.3m/s | -53.6°C | 0.7% | 81.5hPa | 2.5V | 08:21:38 | 02:24:09 | 00:00:00 | |
| HSKMA3-T | 2026-09-03 00:41:38 | 50.96803 | 8.30236 | 130° | 33km/h | 17899m | -12.2m/s | -53.7°C | 0.7% | 81hPa | 2.6V | 08:21:38 | 02:24:06 | 00:00:00 | |
| DO9LL-15 | 2026-09-03 00:41:38 | 50.96803 | 8.30236 | 131° | 42km/h | 17899m | -12.1m/s | -53.6°C | 4.2% | 80.9hPa | 2.6V | 00:00:00 | 02:24:06 | 00:00:00 | |
| DM0DOS-11 | 2026-09-03 00:41:37 | 50.96815 | 8.30193 | 100° | 31km/h | 17948m | -12.6m/s | -53.6°C | 4.2% | 80.3hPa | 2.6V | 08:21:15 | 02:24:02 | 00:00:00 | |
| DL1XH-west | 2026-09-03 00:41:37 | 50.96807 | 8.30226 | 123° | 31km/h | 17911m | -12.1m/s | -53.7°C | 0.7% | 80.8hPa | 2.5V | 08:21:38 | 02:24:05 | 00:00:00 | |
| DL1XH1-15 | 2026-09-03 00:41:35 | 50.96817 | 8.30166 | 89° | 37km/h | 17973m | -12.4m/s | -53.7°C | 4.2% | 80hPa | 2.5V | 08:21:17 | 02:24:00 | 00:00:00 | |
| GOEST3-10 | 2026-09-03 00:41:35 | 50.96814 | 8.30204 | 108° | 35km/h | 17936m | -12.5m/s | -53.5°C | 4.2% | 80.5hPa | 2.6V | 00:00:00 | 02:24:03 | 00:00:00 | |
| DJ2DS-15 | 2026-09-03 00:41:33 | 50.96817 | 8.30180 | 94° | 49km/h | 17961m | -12.4m/s | -53.6°C | 4.2% | 80.2hPa | 2.6V | 00:00:00 | 02:24:01 | 00:00:00 | |
| DL1NUX | 2026-09-03 00:41:32 | 50.96816 | 8.30093 | 92° | 55km/h | 18023m | -12.6m/s | -53.5°C | 4.2% | 79.5hPa | 2.6V | 08:21:21 | 02:23:56 | 00:00:00 | |
| HSKMA3-T | 2026-09-03 00:41:28 | 50.96816 | 8.30093 | 92° | 55km/h | 18023m | -12.6m/s | -53.5°C | 0.8% | 79.5hPa | 2.6V | 08:21:38 | 02:23:56 | 00:00:00 | |
| DL1XH-west | 2026-09-03 00:41:27 | 50.96817 | 8.30070 | 95° | 60km/h | 18036m | -12.6m/s | -53.5°C | 0.7% | 79.3hPa | 2.5V | 08:21:38 | 02:23:55 | 00:00:00 | |
| AA1-15 | 2026-09-03 00:41:27 | 50.96819 | 8.30046 | 99° | 64km/h | 18049m | -12.3m/s | -53.4°C | 0.7% | 79.2hPa | 2.5V | 08:21:38 | 02:23:54 | 00:00:00 | |
| DM0DOS-11 | 2026-09-03 00:41:26 | 50.96827 | 8.29995 | 108° | 68km/h | 18073m | -12.4m/s | -53.5°C | 4.1% | 78.8hPa | 2.6V | 08:21:25 | 02:23:52 | 00:00:00 | |
| GOEST3-10 | 2026-09-03 00:41:25 | 50.96822 | 8.30021 | 104° | 68km/h | 18061m | -12.4m/s | -53.4°C | 4.1% | 78.9hPa | 2.5V | 00:00:00 | 02:23:53 | 00:00:00 | |
| DL1CLM-18 | 2026-09-03 00:41:24 | 50.96822 | 8.30021 | 105° | 66km/h | 18061m | -12.4m/s | -53.4°C | 1.2% | 79.0hPa | 2.6V | 00:00:00 | 00:00:00 | 00:00:00 | |
| SO1NDE-10 | 2026-09-03 00:41:22 | 50.96841 | 8.29945 | 120° | 46km/h | 18099m | -12.6m/s | -53.5°C | 4.1% | 78.5hPa | 2.6V | 00:00:00 | 02:23:50 | 00:00:00 | |
| DL8DAS-15 | 2026-09-03 00:41:21 | 50.96841 | 8.29945 | 121° | 68km/h | 18099m | -12.7m/s | -53.5°C | 1.3% | 78.5hPa | 2.6V | 00:00:00 | 00:00:00 | 00:00:00 | |
| DM0DOS-11 | 2026-09-03 00:41:20 | 50.96901 | 8.29835 | 118° | 20km/h | 18200m | -13.2m/s | -53°C | 4% | 77.3hPa | 2.6V | 08:21:35 | 02:23:42 | 00:00:00 | |
| BIOWL1-15 | 2026-09-03 00:41:20 | 50.96868 | 8.29886 | 134° | 55km/h | 18136m | -12.1m/s | -53.5°C | 0.8% | 78.1hPa | 2.6V | 08:21:38 | 02:23:47 | 00:00:00 | |
| DL1NUX | 2026-09-03 00:41:19 | 50.96877 | 8.29871 | 136° | 47km/h | 18148m | -12.2m/s | -53.5°C | 4.2% | 77.9hPa | 2.6V | 08:21:31 | 02:23:46 | 00:00:00 | |
| DL1XH-west | 2026-09-03 00:41:17 | 50.96886 | 8.29860 | 139° | 40km/h | 18161m | -12.9m/s | -53.4°C | 0.7% | 77.8hPa | 2.5V | 08:21:38 | 02:23:45 | 00:00:00 | |
| AA1-15 | 2026-09-03 00:41:15 | 50.96897 | 8.29842 | 132° | 26km/h | 18187m | -13.1m/s | -53.1°C | 0.6% | 77.5hPa | 2.5V | 08:21:38 | 02:23:43 | 00:00:00 | |
| GOEST3-10 | 2026-09-03 00:41:15 | 50.96897 | 8.29842 | 132° | 22km/h | 18187m | -13.1m/s | -53.0°C | 4.0% | 77.5hPa | 2.6V | 00:00:00 | 02:23:43 | 00:00:00 | |
| DB0NH | 2026-09-03 00:41:14 | 50.96901 | 8.29835 | 119° | 40km/h | 18201m | -13.2m/s | -52.9°C | 4.0% | 77.3hPa | 2.6V | 00:00:00 | 02:23:42 | 00:00:00 | |
| DJ2DS-15 | 2026-09-03 00:41:13 | 50.96902 | 8.29828 | 98° | 47km/h | 18214m | -13.2m/s | -52.9°C | 3.9% | 77.1hPa | 2.6V | 00:00:00 | 02:23:41 | 00:00:00 | |
| DL1NUX | 2026-09-03 00:41:11 | 50.96889 | 8.29770 | 71° | 49km/h | 18277m | -13.2m/s | -52.9°C | 4% | 76.4hPa | 2.6V | 08:21:41 | 02:23:36 | 00:00:00 | |
| AU51GT2 | 2026-09-03 00:41:11 | 50.96897 | 8.29800 | 65° | 33km/h | 18252m | -12.1m/s | -53.0°C | 1.2% | 76.7hPa | 2.6V | 00:00:00 | 00:00:00 | 00:00:00 | |
| DD8BA-10 | 2026-09-03 00:41:10 | 50.96897 | 8.29800 | 66° | 57km/h | 18252m | -12.1m/s | -53.0°C | 4.0% | 76.7hPa | 2.6V | 00:00:00 | 00:00:00 | 00:00:00 | |
| DM0DOS-11 | 2026-09-03 00:41:09 | 50.96883 | 8.29677 | 96° | 66km/h | 18329m | -13.7m/s | -52.8°C | 3.9% | 75.8hPa | 2.6V | 08:21:45 | 02:23:32 | 00:00:00 | |
| DL1XH-west | 2026-09-03 00:41:06 | 50.96883 | 8.29727 | 83° | 60km/h | 18303m | -12.9m/s | -52.7°C | 0.6% | 76.1hPa | 2.5V | 08:22:29 | 02:23:34 | 00:00:00 | |
| DL1XH1-15 | 2026-09-03 00:41:05 | 50.96891 | 8.29625 | 108° | 66km/h | 18357m | -13m/s | -52.9°C | 3.9% | 75.5hPa | 2.5V | 08:21:47 | 02:23:30 | 00:00:00 | |
| AA1-15 | 2026-09-03 00:41:05 | 50.96882 | 8.29702 | 90° | 64km/h | 18316m | -13.2m/s | -52.7°C | 0.7% | 76hPa | 2.5V | 08:22:29 | 02:23:33 | 00:00:00 | |
| GOEST3-10 | 2026-09-03 00:41:05 | 50.96882 | 8.29702 | 90° | 66km/h | 18316m | -13.2m/s | -52.7°C | 3.9% | 75.9hPa | 2.5V | 00:00:00 | 02:23:33 | 00:00:00 | |
| DD1CC3-15 | 2026-09-03 00:41:04 | 50.96882 | 8.29702 | 91° | 64km/h | 18316m | -13.2m/s | -52.7°C | 1.3% | 76.0hPa | 2.5V | 08:22:00 | 00:00:00 | 00:00:00 | |
| DO9LL-15 | 2026-09-03 00:41:02 | 50.96890 | 8.29625 | 109° | 38km/h | 18357m | -13.0m/s | -52.8°C | 3.9% | 75.4hPa | 2.5V | 00:00:00 | 02:23:30 | 00:00:00 | |
| GOEST3-10 | 2026-09-03 00:41:00 | 50.96905 | 8.29578 | 125° | 53km/h | 18382m | -12.5m/s | -52.9°C | 3.9% | 75.2hPa | 2.5V | 00:00:00 | 00:00:00 | 00:00:00 | |
| DL1NUX | 2026-09-03 00:40:59 | 50.96944 | 8.29523 | 152° | 42km/h | 18435m | -12.8m/s | -53.1°C | 4% | 74.5hPa | 2.5V | 08:21:53 | 02:23:24 | 00:00:00 | |
| DM0DOS-11 | 2026-09-03 00:40:59 | 50.96960 | 8.29512 | 162° | 27km/h | 18460m | -13.1m/s | -53.1°C | 4% | 74.2hPa | 2.6V | 08:21:55 | 02:23:22 | 00:00:00 | |
| HSKMA3-T | 2026-09-03 00:40:56 | 50.96944 | 8.29522 | 152° | 42km/h | 18435m | -12.8m/s | -53.1°C | 0.7% | 74.6hPa | 2.5V | 08:22:29 | 02:23:24 | 00:00:00 | |
| SONCRA | 2026-09-03 00:40:56 | 50.96953 | 8.29516 | 158° | 35km/h | 18447m | -12.8m/s | -53.1°C | 1.2% | 74.4hPa | 2.5V | 00:00:00 | 00:00:00 | 00:00:00 | |
| DL1XH1-15 | 2026-09-03 00:40:55 | 50.96971 | 8.29506 | 154° | 15km/h | 18487m | -13.3m/s | -53.1°C | 4% | 74hPa | 2.5V | 08:21:57 | 02:23:20 | 00:00:00 | |
| DL1XH-west | 2026-09-03 00:40:55 | 50.96953 | 8.29516 | 158° | 35km/h | 18447m | -12.8m/s | -53.1°C | 0.7% | 74.4hPa | 2.5V | 08:22:29 | 02:23:23 | 00:00:00 | |
| AA1-15 | 2026-09-03 00:40:54 | 50.96961 | 8.29512 | 163° | 27km/h | 18461m | -13.1m/s | -53.1°C | 0.7% | 74.2hPa | 2.6V | 08:22:29 | 02:23:22 | 00:00:00 | |
| DJ2DS-15 | 2026-09-03 00:40:53 | 50.96966 | 8.29509 | 162° | 38km/h | 18474m | -13.4m/s | -53.1°C | 4.0% | 74.1hPa | 2.6V | 00:00:00 | 02:23:21 | 00:00:00 | |
| SO1NDE-10 | 2026-09-03 00:40:52 | 50.96971 | 8.29506 | 155° | 35km/h | 18487m | -13.3m/s | -53.1°C | 4.0% | 73.9hPa | 2.5V | 00:00:00 | 02:23:20 | 00:00:00 | |
| DL1NUX | 2026-09-03 00:40:51 | 50.96965 | 8.29462 | 70° | 40km/h | 18568m | -13.6m/s | -53.6°C | 4.2% | 73hPa | 2.5V | 08:22:03 | 02:23:14 | 00:00:00 | |
| DF7PN | 2026-09-03 00:40:51 | 50.96974 | 8.29500 | 87° | 9km/h | 18514m | -13.2m/s | -53.2°C | 1.2% | 73.7hPa | 2.6V | 00:00:00 | 00:00:00 | 00:00:00 | |
| DD8BA-10 | 2026-09-03 00:40:50 | 50.96974 | 8.29500 | 88° | 40km/h | 18514m | -13.1m/s | -53.2°C | 4.0% | 73.6hPa | 2.6V | 00:00:00 | 00:00:00 | 00:00:00 | |
| DK9SH | 2026-09-03 00:40:49 | 50.96974 | 8.29499 | 89° | 11km/h | 18514m | -13.2m/s | -53.2°C | 1.2% | 73.7hPa | 2.6V | 08:22:00 | 00:00:00 | 00:00:00 | |
| DM0DOS-11 | 2026-09-03 00:40:48 | 50.96959 | 8.29426 | 82° | 53km/h | 18595m | -13.1m/s | -53.8°C | 4.2% | 72.7hPa | 2.6V | 08:22:05 | 02:23:12 | 00:00:00 | |
| DL1XH-15 | 2026-09-03 00:40:46 | 50.96968 | 8.29333 | 115° | 62km/h | 18646m | -12.2m/s | -53.8°C | 4.3% | 72.1hPa | 2.5V | 08:22:09 | 02:23:08 | 00:00:00 | |
| DL1XH1-15 | 2026-09-03 00:40:45 | 50.96959 | 8.29380 | 97° | 62km/h | 18621m | -13.1m/s | -53.8°C | 4.3% | 72.4hPa | 2.5V | 08:22:07 | 02:23:10 | 00:00:00 | |
| BIOWL1-15 | 2026-09-03 00:40:45 | 50.96961 | 8.29446 | 75° | 46km/h | 18582m | -13.3m/s | -53.7°C | 0.8% | 72.9hPa | 2.5V | 08:22:29 | 02:23:13 | 00:00:00 | |
| DL1XH-west | 2026-09-03 00:40:44 | 50.96959 | 8.29426 | 82° | 53km/h | 18595m | -13.1m/s | -53.8°C | 0.8% | 72.7hPa | 2.6V | 08:22:29 | 02:23:12 | 00:00:00 | |
| AA1-15 | 2026-09-03 00:40:43 | 50.96958 | 8.29404 | 90° | 58km/h | 18608m | -13.4m/s | -53.8°C | 0.8% | 72.5hPa | 2.6V | 08:22:29 | 02:23:11 | 00:00:00 | |
| AM1SDL-15 | 2026-09-03 00:40:42 | 50.96959 | 8.29380 | 98° | 51km/h | 18622m | -13.0m/s | -53.8°C | 4.3% | 72.3hPa | 2.5V | 00:00:00 | 02:23:10 | 00:00:00 | |
| DL3AQ-11 | 2026-09-03 00:40:41 | 50.96962 | 8.29356 | 106° | 62km/h | 18634m | -12.5m/s | -53.8°C | 1.3% | 72.3hPa | 2.5V | 00:00:00 | 00:00:00 | 00:00:00 | |
| DL1NUX | 2026-09-03 00:40:40 | 50.97006 | 8.29268 | 150° | 46km/h | 18699m | -13.8m/s | -53.8°C | 4.3% | 71.5hPa | 2.5V | 08:22:13 | 02:23:04 | 00:00:00 | |
| DJ8HS-15 | 2026-09-03 00:40:39 | 50.96976 | 8.29311 | 126° | 37km/h | 18659m | -12.6m/s | -53.8°C | 4.3% | 71.9hPa | 2.6V | 08:22:00 | 02:23:07 | 00:00:00 | |
| BUE01 | 2026-09-03 00:40:38 | 50.96996 | 8.29279 | 143° | 51km/h | 18685m | -13.5m/s | -53.8°C | 1.3% | 71.7hPa | 2.5V | 00:00:00 | 00:00:00 | 00:00:00 | |
| DM0DOS-11 | 2026-09-03 00:40:37 | 50.97024 | 8.29255 | 161° | 33km/h | 18727m | -13.6m/s | -53.7°C | 4.3% | 71.2hPa | 2.5V | 08:22:15 | 02:23:02 | 00:00:00 | |
| DL1XH1-15 | 2026-09-03 00:40:35 | 50.97037 | 8.29250 | 168° | 18km/h | 18754m | -13.5m/s | -53.4°C | 4.2% | 70.9hPa | 2.6V | 08:22:17 | 02:23:00 | 00:00:00 | |
| HSKMA3-T | 2026-09-03 00:40:35 | 50.97016 | 8.29260 | 156° | 40km/h | 18713m | -13.6m/s | -53.8°C | 0.9% | 71.4hPa | 2.5V | 08:22:29 | 02:23:03 | 00:00:00 | |
| BIOWL1-15 | 2026-09-03 00:40:34 | 50.97037 | 8.29234 | 61° | 22km/h | 18821m | -13.6m/s | -53.2°C | 0.8% | 70.2hPa | 2.6V | 08:22:29 | 02:22:55 | 00:00:00 | |
| DL1XH-west | 2026-09-03 00:40:34 | 50.97024 | 8.29255 | 161° | 33km/h | 18727m | -13.6m/s | -53.7°C | 0.9% | 71.2hPa | 2.5V | 08:22:29 | 02:23:02 | 00:00:00 | |
| AA1-15 | 2026-09-03 00:40:33 | 50.97031 | 8.29252 | 165° | 26km/h | 18740m | -13.8m/s | -53.5°C | 0.8% | 71.1hPa | 2.6V | 08:22:29 | 02:23:01 | 00:00:00 | |
| DO3DL | 2026-09-03 00:40:33 | 50.97031 | 8.29252 | 166° | 26km/h | 18741m | -13.8m/s | -53.5°C | 1.3% | 71.1hPa | 2.6V | 08:22:00 | 00:00:00 | 00:00:00 | |
| DL1NUX | 2026-09-03 00:40:31 | 50.97034 | 8.29225 | 66° | 29km/h | 18835m | -13.5m/s | -53.1°C | 4.1% | 70hPa | 2.6V | 08:22:23 | 02:22:54 | 00:00:00 | |
| DJ2KF-10 | 2026-09-03 00:40:31 | 50.97040 | 8.29248 | 164° | 24km/h | 18767m | -13.2m/s | -53.4°C | 4.2% | 70.7hPa | 2.6V | 08:22:00 | 02:22:59 | 00:00:00 | |
| DD8BA-10 | 2026-09-03 00:40:30 | 50.97041 | 8.29247 | 117° | 35km/h | 18781m | -13.4m/s | -53.4°C | 4.2% | 70.6hPa | 2.5V | 08:22:00 | 00:00:00 | 00:00:00 | |
| DL3AQ-11 | 2026-09-03 00:40:29 | 50.97040 | 8.29241 | 56° | 15km/h | 18808m | -13.4m/s | -53.4°C | 1.3% | 70.3hPa | 2.5V | 00:00:00 | 00:00:00 | 00:00:00 | |
| DL4BBY-15 | 2026-09-03 00:40:27 | 50.97037 | 8.29234 | 61° | 35km/h | 18822m | -13.6m/s | -52.2°C | 0% | 0hPa | 2.5V | 00:00:00 | 00:00:00 | 00:00:00 | |
| DM0DOS-11 | 2026-09-03 00:40:26 | 50.97030 | 8.29197 | 83° | 44km/h | 18862m | -13.7m/s | -53.1°C | 4.1% | 69.8hPa | 2.5V | 08:22:25 | 02:22:52 | 00:00:00 | |
| DL1XH-15 | 2026-09-03 00:40:25 | 50.97038 | 8.29116 | 114° | 58km/h | 18914m | -12.9m/s | -53.1°C | 4.1% | 69.2hPa | 2.5V | 08:22:29 | 02:22:48 | 00:00:00 | |
| DL1XH1-15 | 2026-09-03 00:40:25 | 50.97030 | 8.29158 | 97° | 53km/h | 18889m | -12.7m/s | -53.1°C | 4.1% | 69.5hPa | 2.6V | 08:22:27 | 02:22:50 | 00:00:00 | |
| BIOWL1-15 | 2026-09-03 00:40:24 | 50.97030 | 8.29197 | 83° | 44km/h | 18862m | -13.7m/s | -53.1°C | 0.7% | 69.8hPa | 2.5V | 08:22:29 | 02:22:52 | 00:00:00 | |
| AA1-15 | 2026-09-03 00:40:23 | 50.97029 | 8.29179 | 90° | 47km/h | 18876m | -13.5m/s | -53.1°C | 0.8% | 69.6hPa | 2.5V | 08:22:29 | 02:22:51 | 00:00:00 | |
| DO9LL-15 | 2026-09-03 00:40:22 | 50.97030 | 8.29158 | 98° | 38km/h | 18889m | -12.6m/s | -53.1°C | 4.1% | 69.4hPa | 2.6V | 00:00:00 | 02:22:50 | 00:00:00 | |
| DO3DL | 2026-09-03 00:40:20 | 50.97038 | 8.29116 | 115° | 58km/h | 18914m | -12.9m/s | -53.1°C | 1.3% | 69.2hPa | 2.6V | 08:22:00 | 00:00:00 | 00:00:00 | |
| DL1NUX | 2026-09-03 00:40:19 | 50.97071 | 8.29049 | 141° | 46km/h | 18968m | -13.3m/s | -52.7°C | 3.9% | 68.6hPa | 2.6V | 08:22:33 | 02:22:44 | 00:00:00 | |
| DJ8HS-15 | 2026-09-03 00:40:19 | 50.97044 | 8.29095 | 123° | 31km/h | 18927m | -13.4m/s | -52.9°C | 4.1% | 69.0hPa | 2.5V | 00:00:00 | 02:22:47 | 00:00:00 | |
| AM1SDL-15 | 2026-09-03 00:40:18 | 50.97061 | 8.29062 | 136° | 26km/h | 18955m | -13.5m/s | -52.7°C | 4.0% | 68.7hPa | 2.5V | 00:00:00 | 02:22:45 | 00:00:00 | |
| DM0DOS-11 | 2026-09-03 00:40:16 | 50.97088 | 8.29032 | 156° | 35km/h | 18995m | -13.4m/s | -52.5°C | 3.9% | 68.3hPa | 2.5V | 08:22:35 | 02:22:42 | 00:00:00 | |
| DL1XH-15 | 2026-09-03 00:40:15 | 50.97109 | 8.29026 | 203° | 9km/h | 19050m | -13.7m/s | -52.8°C | 3.9% | 67.8hPa | 2.6V | 08:22:39 | 02:22:38 | 00:00:00 | |
| BIOWL1-15 | 2026-09-03 00:40:14 | 50.97088 | 8.29032 | 156° | 35km/h | 18995m | -13.4m/s | -52.5°C | 0.6% | 68.3hPa | 2.5V | 08:23:20 | 02:22:42 | 00:00:00 | |
| DO3DL | 2026-09-03 00:40:14 | 50.97088 | 8.29032 | 157° | 35km/h | 18995m | -13.4m/s | -52.5°C | 1.2% | 68.4hPa | 2.5V | 08:23:00 | 00:00:00 | 00:00:00 | |
| DL1XH1-15 | 2026-09-03 00:40:13 | 50.97102 | 8.29026 | 172° | 22km/h | 19022m | -13.9m/s | -52.6°C | 3.9% | 68.1hPa | 2.5V | 08:22:37 | 02:22:40 | 00:00:00 | |
| AA1-15 | 2026-09-03 00:40:13 | 50.97095 | 8.29028 | 164° | 27km/h | 19009m | -13.7m/s | -52.5°C | 0.6% | 68.2hPa | 2.5V | 08:23:20 | 02:22:41 | 00:00:00 | |
| DJ2DS-15 | 2026-09-03 00:40:13 | 50.97095 | 8.29027 | 165° | 31km/h | 19009m | -13.6m/s | -52.5°C | 3.9% | 68.1hPa | 2.5V | 00:00:00 | 02:22:41 | 00:00:00 | |
| DL1NUX | 2026-09-03 00:40:11 | 50.97103 | 8.29030 | 6° | 18km/h | 19105m | -14m/s | -52.8°C | 4% | 67.1hPa | 2.5V | 08:22:43 | 02:22:34 | 00:00:00 | |
| GOEST3-10 | 2026-09-03 00:40:10 | 50.97109 | 8.29026 | 204° | 11km/h | 19050m | -13.7m/s | -52.7°C | 3.9% | 67.7hPa | 2.6V | 08:22:00 | 00:00:00 | 00:00:00 | |
| DM0DOS-11 | 2026-09-03 00:40:09 | 50.97086 | 8.29017 | 42° | 35km/h | 19146m | -13.1m/s | -52.8°C | 3.9% | 66.7hPa | 2.5V | 08:22:46 | 02:22:31 | 00:00:00 | |
| BIOWL9-15 | 2026-09-03 00:40:09 | 50.97109 | 8.29029 | 327° | 5km/h | 19077m | -14.0m/s | -52.9°C | 1.2% | 67.5hPa | 2.5V | 00:00:00 | 00:00:00 | 00:00:00 | |
| DL1XH1-15 | 2026-09-03 00:40:08 | 50.97080 | 8.29005 | 55° | 40km/h | 19159m | -13.7m/s | -52.9°C | 3.9% | 66.6hPa | 2.5V | 08:22:47 | 02:22:30 | 00:00:00 | |
| AA1-15 | 2026-09-03 00:40:03 | 50.97086 | 8.29017 | 43° | 35km/h | 19146m | -13.1m/s | -52.8°C | 0.7% | 66.8hPa | 2.5V | 08:23:20 | 02:22:31 | 00:00:00 | |
| DL1XH-west | 2026-09-03 00:40:02 | 50.97080 | 8.29005 | 55° | 40km/h | 19159m | -13.7m/s | -52.9°C | 0.6% | 66.6hPa | 2.5V | 08:23:20 | 02:22:30 | 00:00:00 | |
| DD1CC3-15 | 2026-09-03 00:40:01 | 50.97080 | 8.29005 | 56° | 40km/h | 19159m | -13.7m/s | -52.9°C | 1.2% | 66.6hPa | 2.6V | 08:23:00 | 00:00:00 | 00:00:00 | |
| DL1XH-15 | 2026-09-03 00:40:00 | 50.97071 | 8.28975 | 73° | 46km/h | 19187m | -14m/s | -53°C | 3.9% | 66.4hPa | 2.6V | 08:22:49 | 02:22:28 | 00:00:00 | |
| DD8BA-10 | 2026-09-03 00:40:00 | 50.97071 | 8.28975 | 74° | 49km/h | 19187m | -14.0m/s | -53.0°C | 3.9% | 66.3hPa | 2.6V | 00:00:00 | 00:00:00 | 00:00:00 | |
| DJ8HS-15 | 2026-09-03 00:39:59 | 50.97069 | 8.28956 | 82° | 37km/h | 19201m | -13.8m/s | -53.1°C | 4.0% | 66.1hPa | 2.6V | 00:00:00 | 02:22:27 | 00:00:00 | |
| DM0DOS-11 | 2026-09-03 00:39:58 | 50.97084 | 8.28860 | 123° | 53km/h | 19271m | -14.1m/s | -53.2°C | 4% | 65.4hPa | 2.6V | 08:22:55 | 02:22:22 | 00:00:00 | |
| DL1XH1-15 | 2026-09-03 00:39:57 | 50.97109 | 8.28816 | 143° | 46km/h | 19313m | -14.1m/s | -53.4°C | 4.1% | 65hPa | 2.5V | 08:22:58 | 02:22:19 | 00:00:00 | |
| BIOWL1-15 | 2026-09-03 00:39:53 | 50.97144 | 8.28785 | 98° | 9km/h | 19397m | -13.8m/s | -53.5°C | 0.8% | 64.2hPa | 2.5V | 08:23:20 | 02:22:13 | 00:00:00 | |
| AA1-15 | 2026-09-03 00:39:52 | 50.97100 | 8.28828 | 137° | 49km/h | 19299m | -14.1m/s | -53.4°C | 0.7% | 65.2hPa | 2.5V | 08:23:20 | 02:22:20 | 00:00:00 | |
| DL1XH-west | 2026-09-03 00:39:51 | 50.97109 | 8.28816 | 144° | 46km/h | 19313m | -14.1m/s | -53.4°C | 0.7% | 65hPa | 2.5V | 08:23:20 | 02:22:19 | 00:00:00 | |
| DF7PN | 2026-09-03 00:39:49 | 50.97134 | 8.28795 | 159° | 27km/h | 19355m | -13.5m/s | -53.7°C | 1.2% | 64.6hPa | 2.5V | 00:00:00 | 00:00:00 | 00:00:00 | |
| DL3AQ-11 | 2026-09-03 00:39:48 | 50.97134 | 8.28795 | 159° | 27km/h | 19355m | -13.5m/s | -53.7°C | 1.2% | 64.6hPa | 2.5V | 00:00:00 | 00:00:00 | 00:00:00 | |
| DL3OBA | 2026-09-03 00:39:47 | 50.97134 | 8.28795 | 161° | 27km/h | 19355m | -13.5m/s | -53.7°C | 1.2% | 64.6hPa | 2.5V | 08:23:00 | 00:00:00 | 00:00:00 | |
| DM0DOS-11 | 2026-09-03 00:39:46 | 50.97144 | 8.28781 | 66° | 15km/h | 19411m | -13.9m/s | -53.6°C | 4.1% | 64hPa | 2.5V | 08:23:05 | 02:22:12 | 00:00:00 | |
| DL1XH1-15 | 2026-09-03 00:39:46 | 50.97139 | 8.28765 | 64° | 29km/h | 19439m | -14.4m/s | -53.5°C | 4.1% | 63.8hPa | 2.6V | 08:23:07 | 02:22:10 | 00:00:00 | |
| HSKMA3-T | 2026-09-03 00:39:42 | 50.97139 | 8.28765 | 64° | 29km/h | 19439m | -14.4m/s | -53.6°C | 0.8% | 63.8hPa | 2.6V | 08:23:20 | 02:22:10 | 00:00:00 | |
| DL1XH-15 | 2026-09-03 00:39:41 | 50.97132 | 8.28737 | 77° | 46km/h | 19467m | -14m/s | -53.6°C | 4.2% | 63.5hPa | 2.5V | 08:23:09 | 02:22:08 | 00:00:00 | |
| DL1XH-west | 2026-09-03 00:39:40 | 50.97133 | 8.28737 | 77° | 46km/h | 19467m | -14m/s | -53.6°C | 0.8% | 63.5hPa | 2.5V | 08:23:20 | 02:22:08 | 00:00:00 | |
| DD8BA-10 | 2026-09-03 00:39:40 | 50.97132 | 8.28737 | 78° | 57km/h | 19468m | -13.9m/s | -53.6°C | 4.2% | 63.4hPa | 2.5V | 00:00:00 | 00:00:00 | 00:00:00 | |
| DM0DOS-11 | 2026-09-03 00:39:39 | 50.97161 | 8.28587 | 135° | 57km/h | 19565m | -15m/s | -53.4°C | 4.1% | 62.5hPa | 2.5V | 08:23:16 | 02:22:01 | 00:00:00 | |
| DJ8HS-15 | 2026-09-03 00:39:39 | 50.97130 | 8.28718 | 85° | 33km/h | 19482m | -13.8m/s | -53.6°C | 4.1% | 63.3hPa | 2.5V | 00:00:00 | 02:22:07 | 00:00:00 | |
| BIOWL9-15 | 2026-09-03 00:39:38 | 50.97133 | 8.28672 | 101° | 60km/h | 19509m | -13.7m/s | -53.7°C | 1.3% | 63.1hPa | 2.6V | 00:00:00 | 00:00:00 | 00:00:00 | |
| DL1XH1-15 | 2026-09-03 00:39:37 | 50.97172 | 8.28573 | 142° | 53km/h | 19580m | -14.8m/s | -53.4°C | 4% | 62.4hPa | 2.6V | 08:23:17 | 02:22:00 | 00:00:00 | |
| DJ2DS-15 | 2026-09-03 00:39:37 | 50.97133 | 8.28672 | 101° | 60km/h | 19509m | -13.7m/s | -53.7°C | 1.3% | 63.1hPa | 2.6V | 00:00:00 | 00:00:00 | 00:00:00 | |
| HARRO8 | 2026-09-03 00:39:36 | 50.97143 | 8.28626 | 118° | 62km/h | 19537m | -14.0m/s | -53.7°C | 1.2% | 62.8hPa | 2.6V | 00:00:00 | 00:00:00 | 00:00:00 | |
| DL1XH-15 | 2026-09-03 00:39:35 | 50.97192 | 8.28554 | 158° | 42km/h | 19610m | -14.5m/s | -53.5°C | 4.1% | 62.1hPa | 2.6V | 08:23:19 | 02:21:58 | 00:00:00 | |
| BIOWL1-15 | 2026-09-03 00:39:34 | 50.97152 | 8.28605 | 127° | 60km/h | 19551m | -14.5m/s | -53.6°C | 0.8% | 62.7hPa | 2.5V | 08:23:20 | 02:22:02 | 00:00:00 | |
| AA1-15 | 2026-09-03 00:39:31 | 50.97182 | 8.28562 | 150° | 47km/h | 19595m | -14.6m/s | -53.4°C | 0.7% | 62.2hPa | 2.6V | 08:23:20 | 02:21:59 | 00:00:00 | |
| DL1XH-west | 2026-09-03 00:39:30 | 50.97192 | 8.28554 | 158° | 42km/h | 19610m | -14.5m/s | -53.5°C | 0.7% | 62.1hPa | 2.6V | 08:23:20 | 02:21:58 | 00:00:00 | |
| DD8BA-10 | 2026-09-03 00:39:30 | 50.97192 | 8.28554 | 159° | 20km/h | 19610m | -14.5m/s | -53.4°C | 4.1% | 62.0hPa | 2.6V | 00:00:00 | 00:00:00 | 00:00:00 | |
| AM1SDL-15 | 2026-09-03 00:39:29 | 50.97201 | 8.28549 | 168° | 22km/h | 19625m | -14.5m/s | -53.5°C | 4.1% | 61.9hPa | 2.5V | 00:00:00 | 02:21:57 | 00:00:00 | |
| DF8AY | 2026-09-03 00:39:29 | 50.97202 | 8.28549 | 167° | 37km/h | 19624m | -14.5m/s | -53.5°C | 0.7% | 62hPa | 2.5V | 08:23:20 | 02:21:57 | 00:00:00 | |
| DL8DAS-15 | 2026-09-03 00:39:28 | 50.97201 | 8.28549 | 168° | 37km/h | 19625m | -14.5m/s | -53.5°C | 1.3% | 62.0hPa | 2.5V | 08:23:00 | 00:00:00 | 00:00:00 | |
| DL4BBY-15 | 2026-09-03 00:39:27 | 50.97215 | 8.28548 | 190° | 33km/h | 19653m | -13.9m/s | -52.7°C | 0% | 0hPa | 2.5V | 00:00:00 | 00:00:00 | 00:00:00 | |
| DJ2KF-10 | 2026-09-03 00:39:26 | 50.97220 | 8.28549 | 206° | 26km/h | 19667m | -13.9m/s | -53.8°C | 4.2% | 61.5hPa | 2.5V | 00:00:00 | 02:21:54 | 00:00:00 | |
| DL1XH1-15 | 2026-09-03 00:39:25 | 50.97216 | 8.28552 | 21° | 18km/h | 19724m | -14.5m/s | -54°C | 4.3% | 61hPa | 2.5V | 08:23:27 | 02:21:50 | 00:00:00 | |
| BIOWL1-15 | 2026-09-03 00:39:24 | 50.97199 | 8.28533 | 46° | 37km/h | 19767m | -14.5m/s | -53.8°C | 0.8% | 60.6hPa | 2.6V | 08:24:11 | 02:21:47 | 00:00:00 | |
| DL1XH-15 | 2026-09-03 00:39:23 | 50.97205 | 8.28542 | 36° | 29km/h | 19753m | -14.3m/s | -53.8°C | 4.2% | 60.7hPa | 2.6V | 08:23:29 | 02:21:48 | 00:00:00 | |
| HSKMA3-T | 2026-09-03 00:39:21 | 50.97211 | 8.28548 | 30° | 24km/h | 19738m | -14.5m/s | -54°C | 0.8% | 60.9hPa | 2.5V | 08:24:11 | 02:21:49 | 00:00:00 | |
| DD1CC3-15 | 2026-09-03 00:39:21 | 50.97211 | 8.28548 | 31° | 24km/h | 19738m | -14.5m/s | -54.0°C | 1.3% | 60.9hPa | 2.5V | 08:24:00 | 00:00:00 | 00:00:00 | |
| DL1NUX | 2026-09-03 00:39:20 | 50.97177 | 8.28471 | 73° | 53km/h | 19825m | -14.4m/s | -54°C | 4.3% | 60hPa | 2.5V | 08:23:34 | 02:21:43 | 00:00:00 | |
| DL1XH-west | 2026-09-03 00:39:20 | 50.97205 | 8.28542 | 37° | 29km/h | 19753m | -14.4m/s | -53.8°C | 0.8% | 60.7hPa | 2.6V | 08:24:11 | 02:21:48 | 00:00:00 | |
| DD8BA-10 | 2026-09-03 00:39:20 | 50.97205 | 8.28542 | 37° | 47km/h | 19753m | -14.3m/s | -53.8°C | 4.2% | 60.7hPa | 2.5V | 00:00:00 | 00:00:00 | 00:00:00 | |
| DJ8HS-15 | 2026-09-03 00:39:19 | 50.97199 | 8.28533 | 46° | 42km/h | 19767m | -14.5m/s | -53.8°C | 4.3% | 60.5hPa | 2.5V | 00:00:00 | 02:21:47 | 00:00:00 | |
| AM1SDL-15 | 2026-09-03 00:39:18 | 50.97187 | 8.28507 | 60° | 35km/h | 19796m | -14.6m/s | -53.8°C | 4.3% | 60.3hPa | 2.5V | 08:23:00 | 02:21:45 | 00:00:00 | |
| DL1XH1-15 | 2026-09-03 00:39:17 | 50.97173 | 8.28406 | 94° | 57km/h | 19870m | -14.7m/s | -53.6°C | 4.2% | 59.6hPa | 2.5V | 08:23:37 | 02:21:40 | 00:00:00 | |
| DB0UT-7 | 2026-09-03 00:39:14 | 50.97174 | 8.28450 | 81° | 40km/h | 19840m | -14.6m/s | -53.9°C | 4.3% | 59.9hPa | 2.5V | 00:00:00 | 02:21:42 | 00:00:00 | |
| DJ2DS-15 | 2026-09-03 00:39:13 | 50.97172 | 8.28428 | 88° | 33km/h | 19855m | -14.9m/s | -53.8°C | 4.3% | 59.7hPa | 2.5V | 00:00:00 | 02:21:41 | 00:00:00 | |
| DO3MHA-11 | 2026-09-03 00:39:12 | 50.97173 | 8.28406 | 95° | 42km/h | 19870m | -14.6m/s | -53.6°C | 4.2% | 59.6hPa | 2.5V | 00:00:00 | 02:21:40 | 00:00:00 | |
| DL1XH-15 | 2026-09-03 00:39:11 | 50.97178 | 8.28362 | 109° | 55km/h | 19898m | -14m/s | -53.5°C | 4.1% | 59.4hPa | 2.5V | 08:23:39 | 02:21:38 | 00:00:00 | |
| BIOWL1-15 | 2026-09-03 00:39:10 | 50.97190 | 8.28325 | 125° | 49km/h | 19927m | -15.2m/s | -53.5°C | 0.8% | 59.1hPa | 2.6V | 08:24:11 | 02:21:36 | 00:00:00 | |
| AA1-15 | 2026-09-03 00:39:10 | 50.97178 | 8.28362 | 109° | 55km/h | 19898m | -14m/s | -53.6°C | 0.7% | 59.4hPa | 2.5V | 08:24:11 | 02:21:38 | 00:00:00 | |
| DL8DAS-14 | 2026-09-03 00:39:10 | 50.97184 | 8.28342 | 117° | 51km/h | 19912m | -14.5m/s | -53.5°C | 1.3% | 59.2hPa | 2.5V | 00:00:00 | 00:00:00 | 00:00:00 | |
| DM0DOS-11 | 2026-09-03 00:39:10 | 50.97223 | 8.28280 | 154° | 33km/h | 19988m | -15.9m/s | -53.4°C | 4.2% | 58.5hPa | 2.5V | 08:23:45 | 02:21:32 | 00:00:00 | |
| GOEST3-10 | 2026-09-03 00:39:09 | 50.97184 | 8.28342 | 118° | 46km/h | 19913m | -14.4m/s | -53.5°C | 4.2% | 59.2hPa | 2.5V | 00:00:00 | 00:00:00 | 00:00:00 | |
| DL1XH-west | 2026-09-03 00:39:09 | 50.97184 | 8.28342 | 118° | 53km/h | 19912m | -14.5m/s | -53.5°C | 0.8% | 59.2hPa | 2.5V | 08:24:11 | 02:21:37 | 00:00:00 | |
| DL1CLM-18 | 2026-09-03 00:39:08 | 50.97184 | 8.28342 | 118° | 53km/h | 19913m | -14.5m/s | -53.5°C | 0% | 59.2hPa | 2.5V | 00:00:00 | 00:00:00 | 00:00:00 | |
| DO3MHA-12 | 2026-09-03 00:39:07 | 50.97198 | 8.28310 | 133° | 22km/h | 19942m | -15.0m/s | -53.5°C | 4.2% | 58.9hPa | 2.5V | 00:00:00 | 02:21:35 | 00:00:00 | |
| BIOWL9-15 | 2026-09-03 00:39:06 | 50.97206 | 8.28298 | 139° | 42km/h | 19957m | -15.0m/s | -53.5°C | 1.2% | 58.8hPa | 2.5V | 00:00:00 | 00:00:00 | 00:00:00 | |
| HARRO8 | 2026-09-03 00:39:05 | 50.97223 | 8.28280 | 154° | 33km/h | 19988m | -15.9m/s | -53.4°C | 1.3% | 58.5hPa | 2.5V | 00:00:00 | 00:00:00 | 00:00:00 | |
| DL1XH-15 | 2026-09-03 00:39:04 | 50.97244 | 8.28273 | 190° | 7km/h | 20047m | -13.6m/s | -53.4°C | 4.2% | 58hPa | 2.5V | 08:23:49 | 02:21:28 | 00:00:00 | |
| DF8AY | 2026-09-03 00:39:01 | 50.97233 | 8.28255 | 55° | 29km/h | 20122m | -15.3m/s | -53.2°C | 0.8% | 57.4hPa | 2.6V | 08:24:11 | 02:21:23 | 00:00:00 | |
| AA1-15 | 2026-09-03 00:39:00 | 50.97244 | 8.28273 | 190° | 7km/h | 20047m | -13.6m/s | -53.4°C | 0.8% | 58hPa | 2.5V | 08:24:11 | 02:21:28 | 00:00:00 | |
| BIOWL1-15 | 2026-09-03 00:38:58 | 50.97222 | 8.28213 | 79° | 46km/h | 20168m | -15.3m/s | -53.1°C | 0.8% | 56.9hPa | 2.5V | 08:24:11 | 02:21:20 | 00:00:00 | |
| DL1XH-west | 2026-09-03 00:38:58 | 50.97243 | 8.28272 | 31° | 11km/h | 20076m | -15m/s | -53.4°C | 0.9% | 57.8hPa | 2.5V | 08:24:11 | 02:21:26 | 00:00:00 | |
| DM0DOS-11 | 2026-09-03 00:38:58 | 50.97229 | 8.28244 | 63° | 35km/h | 20137m | -15.3m/s | -53.1°C | 4.2% | 57.2hPa | 2.6V | 08:23:55 | 02:21:22 | 00:00:00 | |
| WPPR-10 | 2026-09-03 00:38:54 | 50.97225 | 8.28230 | 71° | 40km/h | 20152m | -15.5m/s | -53.1°C | 1.2% | 57.1hPa | 2.6V | 00:00:00 | 00:00:00 | 00:00:00 | |
| DO3DL | 2026-09-03 00:38:53 | 50.97229 | 8.28244 | 64° | 35km/h | 20137m | -15.4m/s | -53.1°C | 1.2% | 57.2hPa | 2.6V | 08:24:00 | 00:00:00 | 00:00:00 | |
| DL1XH-15 | 2026-09-03 00:38:52 | 50.97220 | 8.28173 | 90° | 55km/h | 20198m | -14.9m/s | -53.1°C | 4.2% | 56.7hPa | 2.6V | 08:23:59 | 02:21:18 | 00:00:00 | |
| AA1-15 | 2026-09-03 00:38:49 | 50.97221 | 8.28151 | 98° | 57km/h | 20213m | -14.8m/s | -53°C | 0.8% | 56.5hPa | 2.6V | 08:24:11 | 02:21:17 | 00:00:00 | |
| DF8AY | 2026-09-03 00:38:47 | 50.97236 | 8.28085 | 121° | 60km/h | 20258m | -15.3m/s | -53.2°C | 0.8% | 56.2hPa | 2.5V | 08:24:11 | 02:21:14 | 00:00:00 | |
| DL1XH-west | 2026-09-03 00:38:47 | 50.97229 | 8.28106 | 114° | 60km/h | 20242m | -15.1m/s | -53.1°C | 0.8% | 56.3hPa | 2.5V | 08:24:11 | 02:21:15 | 00:00:00 | |
| DF7PN | 2026-09-03 00:38:46 | 50.97236 | 8.28085 | 121° | 60km/h | 20258m | -15.3m/s | -53.2°C | 1.2% | 56.2hPa | 2.5V | 00:00:00 | 00:00:00 | 00:00:00 | |
| DL1NUX | 2026-09-03 00:38:45 | 50.97245 | 8.28065 | 128° | 60km/h | 20273m | -15.4m/s | -53.2°C | 4.2% | 56hPa | 2.5V | 08:24:04 | 02:21:13 | 00:00:00 | |
| BIOWL1-15 | 2026-09-03 00:38:45 | 50.97266 | 8.28033 | 144° | 57km/h | 20304m | -15.4m/s | -53°C | 0.7% | 55.8hPa | 2.6V | 08:24:11 | 02:21:11 | 00:00:00 | |
| AM1SDL-15 | 2026-09-03 00:38:45 | 50.97245 | 8.28065 | 129° | 35km/h | 20273m | -15.4m/s | -53.2°C | 4.2% | 56.0hPa | 2.6V | 00:00:00 | 02:21:13 | 00:00:00 | |
| DB0UT-7 | 2026-09-03 00:38:44 | 50.97255 | 8.28048 | 137° | 42km/h | 20289m | -15.2m/s | -53.1°C | 4.2% | 55.8hPa | 2.6V | 00:00:00 | 00:00:00 | 00:00:00 | |
| DL3AQ-11 | 2026-09-03 00:38:42 | 50.97289 | 8.28013 | 158° | 47km/h | 20335m | -15.5m/s | -52.8°C | 1.2% | 55.5hPa | 2.5V | 00:00:00 | 00:00:00 | 00:00:00 | |
| DO1YAY-16 | 2026-09-03 00:38:41 | 50.97289 | 8.28013 | 158° | 47km/h | 20335m | -15.5m/s | -52.8°C | 1.2% | 55.5hPa | 2.5V | 00:00:00 | 00:00:00 | 00:00:00 | |
| DL1NUX | 2026-09-03 00:38:40 | 50.97330 | 8.28009 | 216° | 5km/h | 20426m | -16.1m/s | -52.3°C | 4% | 54.7hPa | 2.5V | 08:24:14 | 02:21:03 | 00:00:00 | |
| AA1-15 | 2026-09-03 00:38:39 | 50.97309 | 8.28005 | 174° | 37km/h | 20365m | -14.6m/s | -52.8°C | 0.7% | 55.2hPa | 2.5V | 08:24:11 | 02:21:07 | 00:00:00 | |
| DL1XH-west | 2026-09-03 00:38:37 | 50.97324 | 8.28006 | 193° | 22km/h | 20394m | -15.4m/s | -52.7°C | 0.8% | 55hPa | 2.6V | 08:25:02 | 02:21:05 | 00:00:00 | |
| DF8AY | 2026-09-03 00:38:36 | 50.97328 | 8.28008 | 202° | 13km/h | 20410m | -16.1m/s | -52.5°C | 0.7% | 54.9hPa | 2.5V | 08:25:02 | 02:21:04 | 00:00:00 | |
| BIOWL1-15 | 2026-09-03 00:38:35 | 50.97330 | 8.28009 | 217° | 5km/h | 20426m | -16.1m/s | -52.3°C | 0.7% | 54.7hPa | 2.5V | 08:25:02 | 02:21:03 | 00:00:00 | |
| HARRO8 | 2026-09-03 00:38:34 | 50.97329 | 8.28008 | 35° | 11km/h | 20458m | -15.7m/s | -52.1°C | 1.2% | 54.4hPa | 2.6V | 00:00:00 | 00:00:00 | 00:00:00 | |
| DL1XH-15 | 2026-09-03 00:38:33 | 50.97316 | 8.27986 | 55° | 38km/h | 20505m | -15.8m/s | -52.1°C | 3.9% | 54hPa | 2.6V | 08:24:19 | 02:20:58 | 00:00:00 | |
| DO3DL | 2026-09-03 00:38:33 | 50.97329 | 8.28008 | 36° | 11km/h | 20458m | -15.7m/s | -52.1°C | 1.2% | 54.4hPa | 2.6V | 08:25:00 | 00:00:00 | 00:00:00 | |
| DJ2DS-15 | 2026-09-03 00:38:32 | 50.97325 | 8.28004 | 42° | 44km/h | 20474m | -15.5m/s | -52.0°C | 3.9% | 54.3hPa | 2.6V | 00:00:00 | 02:21:00 | 00:00:00 | |
| DL1NUX | 2026-09-03 00:38:30 | 50.97298 | 8.27886 | 90° | 64km/h | 20582m | -15.6m/s | -52.4°C | 4% | 53.4hPa | 2.6V | 08:24:24 | 02:20:53 | 00:00:00 | |
| AA1-15 | 2026-09-03 00:38:28 | 50.97306 | 8.27954 | 69° | 51km/h | 20536m | -15.6m/s | -52.3°C | 0.7% | 53.7hPa | 2.5V | 08:25:02 | 02:20:56 | 00:00:00 | |
| DM0DOS-11 | 2026-09-03 00:38:28 | 50.97299 | 8.27860 | 98° | 66km/h | 20598m | -15.8m/s | -52.4°C | 4% | 53.2hPa | 2.5V | 08:24:25 | 02:20:52 | 00:00:00 | |
| BIOWL1-15 | 2026-09-03 00:38:27 | 50.97298 | 8.27886 | 91° | 64km/h | 20583m | -15.6m/s | -52.4°C | 0.7% | 53.4hPa | 2.6V | 08:25:02 | 02:20:53 | 00:00:00 | |
| DL1XH-west | 2026-09-03 00:38:26 | 50.97299 | 8.27910 | 83° | 60km/h | 20567m | -15.4m/s | -52.4°C | 0.7% | 53.5hPa | 2.6V | 08:25:02 | 02:20:54 | 00:00:00 | |
| DF8AY | 2026-09-03 00:38:24 | 50.97299 | 8.27860 | 99° | 66km/h | 20598m | -15.8m/s | -52.4°C | 0.7% | 53.2hPa | 2.5V | 08:25:02 | 02:20:52 | 00:00:00 | |
| DL1XH1-15 | 2026-09-03 00:38:24 | 50.97308 | 8.27811 | 114° | 62km/h | 20629m | -15.9m/s | -52.3°C | 4% | 53hPa | 2.5V | 08:24:27 | 02:20:50 | 00:00:00 | |
| DB0ND-19 | 2026-09-03 00:38:24 | 50.97303 | 8.27835 | 106° | 64km/h | 20614m | -15.8m/s | -52.3°C | 1.2% | 53.1hPa | 2.6V | 00:00:00 | 00:00:00 | 00:00:00 | |
| EDDB2-11 | 2026-09-03 00:38:23 | 50.97303 | 8.27835 | 106° | 64km/h | 20614m | -15.8m/s | -52.3°C | 1.2% | 53.1hPa | 2.6V | 00:00:00 | 00:00:00 | 00:00:00 | |
| DL1XH-15 | 2026-09-03 00:38:22 | 50.97324 | 8.27771 | 131° | 57km/h | 20662m | -16.3m/s | -52.2°C | 4% | 52.7hPa | 2.6V | 08:24:29 | 02:20:48 | 00:00:00 | |
| DO9LL-15 | 2026-09-03 00:38:22 | 50.97308 | 8.27810 | 115° | 31km/h | 20630m | -15.8m/s | -52.3°C | 4.0% | 53.0hPa | 2.5V | 00:00:00 | 02:20:50 | 00:00:00 | |
| DL1NUX | 2026-09-03 00:38:20 | 50.97369 | 8.27730 | 176° | 22km/h | 20738m | -15.3m/s | -52.2°C | 3.9% | 52.1hPa | 2.5V | 08:24:34 | 02:20:43 | 00:00:00 | |
| AA1-15 | 2026-09-03 00:38:19 | 50.97344 | 8.27744 | 148° | 47km/h | 20693m | -15.1m/s | -52.1°C | 0.7% | 52.5hPa | 2.6V | 08:25:02 | 02:20:46 | 00:00:00 | |
| HSKMA3-T | 2026-09-03 00:38:16 | 50.97362 | 8.27732 | 169° | 29km/h | 20723m | -15.5m/s | -52.2°C | 0.7% | 52.2hPa | 2.5V | 08:25:02 | 02:20:44 | 00:00:00 | |
| DM0DOS-11 | 2026-09-03 00:38:15 | 50.97373 | 8.27730 | 191° | 13km/h | 20754m | -15.3m/s | -52.1°C | 3.9% | 51.9hPa | 2.6V | 08:24:35 | 02:20:42 | 00:00:00 | |
| DL1XH-west | 2026-09-03 00:38:15 | 50.97369 | 8.27730 | 177° | 22km/h | 20739m | -15.3m/s | -52.2°C | 0.7% | 52.1hPa | 2.5V | 08:25:02 | 02:20:43 | 00:00:00 | |
| BIOWL1-15 | 2026-09-03 00:38:14 | 50.97375 | 8.27732 | 344° | 4km/h | 20785m | -16.2m/s | -52.2°C | 0.6% | 51.7hPa | 2.5V | 08:25:02 | 02:20:40 | 00:00:00 | |
| DF8AY | 2026-09-03 00:38:13 | 50.97375 | 8.27731 | 212° | 5km/h | 20769m | -15.8m/s | -52.1°C | 0.7% | 51.9hPa | 2.6V | 08:25:02 | 02:20:41 | 00:00:00 | |
| DJ2DS-15 | 2026-09-03 00:38:12 | 50.97375 | 8.27732 | 345° | 27km/h | 20786m | -16.1m/s | -52.1°C | 3.9% | 51.7hPa | 2.5V | 00:00:00 | 02:20:40 | 00:00:00 | |
| HTAHTA | 2026-09-03 00:38:11 | 50.97363 | 8.27719 | 52° | 26km/h | 20850m | -15.5m/s | -52.1°C | 1.1% | 51.1hPa | 2.5V | 00:00:00 | 00:00:00 | 00:00:00 | |
| DM0DOS-11 | 2026-09-03 00:38:10 | 50.97361 | 8.27647 | 111° | 42km/h | 20927m | -15.7m/s | -51.8°C | 3.7% | 50.6hPa | 2.5V | 08:24:46 | 02:20:31 | 00:00:00 | |
| AA1-15 | 2026-09-03 00:38:07 | 50.97360 | 8.27709 | 69° | 33km/h | 20865m | -15.3m/s | -52°C | 0.6% | 51.1hPa | 2.6V | 08:25:02 | 02:20:35 | 00:00:00 | |
| DO3DL | 2026-09-03 00:38:06 | 50.97359 | 8.27709 | 70° | 33km/h | 20865m | -15.3m/s | -52.0°C | 1.1% | 51.1hPa | 2.5V | 08:25:00 | 00:00:00 | 00:00:00 | |
| DL1NUX | 2026-09-03 00:38:05 | 50.97356 | 8.27680 | 91° | 42km/h | 20896m | -15.3m/s | -51.9°C | 3.7% | 50.8hPa | 2.5V | 08:24:44 | 02:20:33 | 00:00:00 | |
| DL1XH-west | 2026-09-03 00:38:05 | 50.97356 | 8.27680 | 92° | 42km/h | 20896m | -15.3m/s | -51.9°C | 0.5% | 50.8hPa | 2.5V | 08:25:02 | 02:20:33 | 00:00:00 | |
| GOEST3-10 | 2026-09-03 00:38:04 | 50.97358 | 8.27663 | 101° | 40km/h | 20912m | -14.9m/s | -51.7°C | 3.7% | 50.6hPa | 2.6V | 00:00:00 | 02:20:32 | 00:00:00 | |
| DL1XH-15 | 2026-09-03 00:38:03 | 50.97379 | 8.27609 | 141° | 38km/h | 20976m | -15.9m/s | -51.8°C | 3.8% | 50.2hPa | 2.6V | 08:24:49 | 02:20:28 | 00:00:00 | |
| BIOWL1-15 | 2026-09-03 00:38:02 | 50.97365 | 8.27632 | 122° | 42km/h | 20943m | -16.4m/s | -51.8°C | 0.5% | 50.5hPa | 2.5V | 08:25:02 | 02:20:30 | 00:00:00 | |
| DF8AY | 2026-09-03 00:38:01 | 50.97406 | 8.27596 | 199° | 22km/h | 21039m | -16.1m/s | -51.7°C | 0.5% | 49.7hPa | 2.5V | 08:25:02 | 02:20:24 | 00:00:00 | |
| DL1NUX | 2026-09-03 00:38:00 | 50.97411 | 8.27600 | 210° | 22km/h | 21055m | -16m/s | -51.8°C | 3.6% | 49.6hPa | 2.6V | 08:24:54 | 02:20:23 | 00:00:00 | |
| DD8BA-10 | 2026-09-03 00:38:00 | 50.97378 | 8.27609 | 142° | 24km/h | 20976m | -15.8m/s | -51.8°C | 3.8% | 50.2hPa | 2.6V | 00:00:00 | 00:00:00 | 00:00:00 | |
| DJ8HS-15 | 2026-09-03 00:37:59 | 50.97386 | 8.27601 | 154° | 27km/h | 20992m | -15.7m/s | -51.8°C | 3.7% | 50.1hPa | 2.6V | 00:00:00 | 02:20:27 | 00:00:00 | |
| DM0DOS-11 | 2026-09-03 00:37:58 | 50.97415 | 8.27604 | 229° | 16km/h | 21071m | -16.2m/s | -51.8°C | 3.6% | 49.5hPa | 2.6V | 08:24:55 | 02:20:22 | 00:00:00 | |
| AA1-15 | 2026-09-03 00:37:57 | 50.97400 | 8.27594 | 183° | 26km/h | 21023m | -16.4m/s | -51.7°C | 0.5% | 49.9hPa | 2.5V | 08:25:02 | 02:20:25 | 00:00:00 | |
| DF8AY | 2026-09-03 00:37:56 | 50.97415 | 8.27620 | 304° | 16km/h | 21120m | -16.3m/s | -52.2°C | 0.5% | 49.1hPa | 2.5V | 08:25:02 | 02:20:19 | 00:00:00 | |
| DL1XH-west | 2026-09-03 00:37:54 | 50.97415 | 8.27604 | 229° | 16km/h | 21071m | -16.2m/s | -51.8°C | 0.4% | 49.5hPa | 2.6V | 08:25:02 | 02:20:22 | 00:00:00 | |
| WPPR-10 | 2026-09-03 00:37:52 | 50.97391 | 8.27626 | 16° | 27km/h | 21200m | -15.7m/s | -52.9°C | 1.1% | 48.5hPa | 2.6V | 00:00:00 | 00:00:00 | 00:00:00 | |
| BIOWL1-15 | 2026-09-03 00:37:51 | 50.97355 | 8.27582 | 48° | 42km/h | 21279m | -15.8m/s | -53.4°C | 0.8% | 47.9hPa | 2.6V | 08:25:53 | 02:20:09 | 00:00:00 | |
| DL1XH-15 | 2026-09-03 00:37:51 | 50.97412 | 8.27625 | 316° | 16km/h | 21136m | -15.6m/s | -52.3°C | 3.7% | 49hPa | 2.5V | 08:24:59 | 02:20:18 | 00:00:00 | |
| AA1-15 | 2026-09-03 00:37:46 | 50.97391 | 8.27626 | 17° | 29km/h | 21200m | -15.7m/s | -52.9°C | 0.7% | 48.5hPa | 2.5V | 08:25:53 | 02:20:14 | 00:00:00 | |
| DL1XH-15 | 2026-09-03 00:37:45 | 50.97341 | 8.27553 | 53° | 49km/h | 21311m | -16.7m/s | -53.6°C | 4.3% | 47.7hPa | 2.5V | 08:25:10 | 02:20:07 | 00:00:00 | |
| DF7PN | 2026-09-03 00:37:44 | 50.97377 | 8.27614 | 36° | 35km/h | 21231m | -15.6m/s | -53.1°C | 1.2% | 48.3hPa | 2.5V | 00:00:00 | 00:00:00 | 00:00:00 | |
| HSKMA3-T | 2026-09-03 00:37:43 | 50.97370 | 8.27605 | 42° | 38km/h | 21247m | -16.5m/s | -53.2°C | 0.7% | 48.2hPa | 2.5V | 08:25:53 | 02:20:11 | 00:00:00 | |
| DL1XH1-15 | 2026-09-03 00:37:43 | 50.97363 | 8.27594 | 42° | 42km/h | 21263m | -16.3m/s | -53.3°C | 4.1% | 48.1hPa | 2.6V | 08:25:07 | 02:20:10 | 00:00:00 | |
| DL1XH-west | 2026-09-03 00:37:43 | 50.97362 | 8.27594 | 43° | 42km/h | 21263m | -16.3m/s | -53.3°C | 0.8% | 48.1hPa | 2.6V | 08:25:53 | 02:20:10 | 00:00:00 | |
| DF8AY | 2026-09-03 00:37:40 | 50.97348 | 8.27568 | 51° | 46km/h | 21295m | -15.9m/s | -53.5°C | 0.8% | 47.8hPa | 2.6V | 18:12:15 | 02:20:08 | 00:00:00 | |
| DM0DOS-11 | 2026-09-03 00:37:40 | 50.97312 | 8.27475 | 75° | 42km/h | 21396m | -15.3m/s | -53.4°C | 4.2% | 47hPa | 2.5V | 08:25:15 | 02:20:02 | 00:00:00 | |
| DO3DL | 2026-09-03 00:37:40 | 50.97348 | 8.27568 | 52° | 47km/h | 21295m | -15.9m/s | -53.5°C | 1.2% | 47.8hPa | 2.5V | 08:25:00 | 00:00:00 | 00:00:00 | |
| GOEST3-10 | 2026-09-03 00:37:39 | 50.97341 | 8.27553 | 54° | 46km/h | 21312m | -16.7m/s | -53.5°C | 4.3% | 47.7hPa | 2.5V | 00:00:00 | 00:00:00 | 00:00:00 | |
| DL3AQ-11 | 2026-09-03 00:37:38 | 50.97327 | 8.27523 | 55° | 46km/h | 21346m | -17.3m/s | -53.6°C | 1.3% | 47.4hPa | 2.5V | 00:00:00 | 00:00:00 | 00:00:00 | |
| DL1XH1-15 | 2026-09-03 00:37:37 | 50.97311 | 8.27443 | 100° | 38km/h | 21429m | -17.7m/s | -53.6°C | 4.3% | 46.8hPa | 2.5V | 08:25:17 | 02:20:00 | 00:00:00 | |
| AA1-15 | 2026-09-03 00:37:36 | 50.97321 | 8.27507 | 60° | 46km/h | 21363m | -17.6m/s | -53.5°C | 0.8% | 47.3hPa | 2.6V | 08:25:53 | 02:20:04 | 00:00:00 | |
| GOEST3-10 | 2026-09-03 00:37:34 | 50.97312 | 8.27475 | 76° | 38km/h | 21396m | -15.3m/s | -53.4°C | 4.2% | 47.0hPa | 2.6V | 00:00:00 | 02:20:02 | 00:00:00 | |
| DL1XH-15 | 2026-09-03 00:37:33 | 50.97317 | 8.27414 | 113° | 37km/h | 21464m | -18.4m/s | -53.6°C | 4.3% | 46.6hPa | 2.6V | 08:25:19 | 02:19:58 | 00:00:00 | |
| HSKMA3-T | 2026-09-03 00:37:33 | 50.97311 | 8.27458 | 89° | 40km/h | 21412m | -16.3m/s | -53.5°C | 0.9% | 46.9hPa | 2.5V | 08:25:53 | 02:20:01 | 00:00:00 | |
| DL1XH-west | 2026-09-03 00:37:31 | 50.97314 | 8.27428 | 107° | 37km/h | 21446m | -18.1m/s | -53.6°C | 0.9% | 46.7hPa | 2.5V | 08:25:53 | 02:19:59 | 00:00:00 | |
| BIOWL1-15 | 2026-09-03 00:37:30 | 50.97326 | 8.27391 | 130° | 31km/h | 21500m | -17.2m/s | -53.5°C | 0.9% | 46.3hPa | 2.6V | 08:25:53 | 02:19:56 | 00:00:00 | |
| DF8AY | 2026-09-03 00:37:29 | 50.97321 | 8.27402 | 122° | 35km/h | 21482m | -17.7m/s | -53.6°C | 0.9% | 0hPa | 2.6V | 18:12:15 | 02:19:57 | 00:00:00 | |
| GOEST3-10 | 2026-09-03 00:37:29 | 50.97321 | 8.27402 | 123° | 27km/h | 21483m | -17.7m/s | -53.5°C | 4.3% | 46.4hPa | 2.5V | 00:00:00 | 00:00:00 | 00:00:00 | |
| DL4BBY-15 | 2026-09-03 00:37:27 | 50.97331 | 8.27383 | 137° | 20km/h | 21517m | -17.6m/s | -52.5°C | 0% | 0hPa | 2.5V | 00:00:00 | 00:00:00 | 00:00:00 | |
| DL3OBA | 2026-09-03 00:37:26 | 50.97331 | 8.27383 | 138° | 27km/h | 21517m | -17.7m/s | -53.5°C | 1.3% | 46.2hPa | 2.5V | 08:25:00 | 00:00:00 | 00:00:00 | |
| DL1NUX | 2026-09-03 00:37:25 | 50.97340 | 8.27370 | 135° | 20km/h | 21553m | -18.3m/s | -53.4°C | 4.3% | 45.9hPa | 2.5V | 08:25:24 | 02:19:53 | 00:00:00 | |
| AA1-15 | 2026-09-03 00:37:25 | 50.97340 | 8.27370 | 136° | 20km/h | 21553m | -18.3m/s | -53.4°C | 0.9% | 45.9hPa | 2.5V | 08:25:53 | 02:19:53 | 00:00:00 | |
| GOEST3-10 | 2026-09-03 00:37:24 | 50.97344 | 8.27364 | 127° | 31km/h | 21572m | -17.3m/s | -53.3°C | 4.3% | 45.7hPa | 2.5V | 00:00:00 | 02:19:52 | 00:00:00 | |
| DL1XH1-15 | 2026-09-03 00:37:23 | 50.97351 | 8.27346 | 116° | 31km/h | 21605m | -15.4m/s | -53.2°C | 4.3% | 45.6hPa | 2.6V | 08:25:27 | 02:19:50 | 00:00:00 | |
| HSKMA3-T | 2026-09-03 00:37:23 | 50.97347 | 8.27356 | 119° | 26km/h | 21589m | -17m/s | -53.3°C | 1% | 45.7hPa | 2.6V | 08:25:53 | 02:19:51 | 00:00:00 | |
| BIOWL1-15 | 2026-09-03 00:37:20 | 50.97360 | 8.27321 | 125° | 40km/h | 21636m | -16.6m/s | -52.8°C | 0.7% | 45.4hPa | 2.5V | 08:25:53 | 02:19:48 | 00:00:00 | |
| DF8AY | 2026-09-03 00:37:19 | 50.97366 | 8.27308 | 131° | 40km/h | 21653m | -17.5m/s | -52.6°C | 0.7% | 0hPa | 2.5V | 18:12:15 | 02:19:47 | 00:00:00 | |
| DJ8HS-15 | 2026-09-03 00:37:19 | 50.97366 | 8.27308 | 131° | 16km/h | 21653m | -17.5m/s | -52.6°C | 4.0% | 45.2hPa | 2.5V | 00:00:00 | 02:19:47 | 00:00:00 | |
| AM1SDL-15 | 2026-09-03 00:37:18 | 50.97373 | 8.27297 | 140° | 20km/h | 21671m | -18.7m/s | -52.5°C | 3.9% | 45.1hPa | 2.5V | 00:00:00 | 02:19:46 | 00:00:00 | |
| DL1XH1-15 | 2026-09-03 00:37:17 | 50.97407 | 8.27289 | 218° | 18km/h | 21782m | -19.4m/s | -52°C | 3.7% | 44.3hPa | 2.5V | 08:25:37 | 02:19:40 | 00:00:00 | |
| AA1-15 | 2026-09-03 00:37:15 | 50.97392 | 8.27281 | 176° | 24km/h | 21726m | -18.8m/s | -52.1°C | 0.6% | 44.7hPa | 2.6V | 08:25:53 | 02:19:43 | 00:00:00 | |
| HSKMA3-T | 2026-09-03 00:37:12 | 50.97407 | 8.27289 | 218° | 18km/h | 21782m | -19.4m/s | -52°C | 0.5% | 44.3hPa | 2.5V | 08:25:53 | 02:19:40 | 00:00:00 | |
| DJ2DS-15 | 2026-09-03 00:37:12 | 50.97407 | 8.27289 | 219° | 15km/h | 21782m | -19.3m/s | -52.0°C | 3.7% | 44.3hPa | 2.5V | 00:00:00 | 02:19:40 | 00:00:00 | |
| DL1NUX | 2026-09-03 00:37:10 | 50.97427 | 8.27302 | 127° | 7km/h | 21904m | -19.1m/s | -52.8°C | 4% | 43.5hPa | 2.5V | 08:25:44 | 02:19:33 | 00:00:00 | |
| DL1XH-west | 2026-09-03 00:37:10 | 50.97414 | 8.27299 | 218° | 16km/h | 21818m | -18m/s | -52.3°C | 0.6% | 44.1hPa | 2.5V | 08:25:53 | 02:19:38 | 00:00:00 | |
| DF8AY | 2026-09-03 00:37:09 | 50.97421 | 8.27306 | 200° | 11km/h | 21851m | -16.5m/s | -52.5°C | 0.7% | 0hPa | 2.6V | 18:12:15 | 02:19:36 | 00:00:00 | |
| AA1-15 | 2026-09-03 00:37:04 | 50.97428 | 8.27300 | 119° | 4km/h | 21923m | -19.9m/s | -52.9°C | 0.7% | 43.4hPa | 2.5V | 08:25:53 | 02:19:32 | 00:00:00 | |
| BIOWL1-15 | 2026-09-03 00:37:04 | 50.97418 | 8.27289 | 46° | 16km/h | 22041m | -19.7m/s | -53.4°C | 0.8% | 42.6hPa | 2.5V | 08:25:53 | 02:19:26 | 00:00:00 | |
| DL1XH-15 | 2026-09-03 00:37:04 | 50.97423 | 8.27295 | 30° | 13km/h | 22002m | -19.6m/s | -53.3°C | 4.1% | 42.9hPa | 2.6V | 08:25:49 | 02:19:28 | 00:00:00 | |
| DL1XH1-15 | 2026-09-03 00:37:03 | 50.97426 | 8.27298 | 13° | 5km/h | 21963m | -19.5m/s | -53.1°C | 4.1% | 43.1hPa | 2.6V | 08:25:47 | 02:19:30 | 00:00:00 | |
| HSKMA3-T | 2026-09-03 00:37:02 | 50.97426 | 8.27298 | 14° | 5km/h | 21963m | -19.5m/s | -53.1°C | 0.8% | 43.1hPa | 2.6V | 08:25:53 | 02:19:30 | 00:00:00 | |
| BIOWL9-15 | 2026-09-03 00:37:02 | 50.97426 | 8.27298 | 13° | 5km/h | 21963m | -19.5m/s | -53.1°C | 1.2% | 43.1hPa | 2.6V | 00:00:00 | 00:00:00 | 00:00:00 | |
| HARRO8 | 2026-09-03 00:37:01 | 50.97423 | 8.27295 | 30° | 11km/h | 22002m | -19.6m/s | -53.3°C | 1.2% | 42.9hPa | 2.6V | 00:00:00 | 00:00:00 | 00:00:00 | |
| DM0DOS-11 | 2026-09-03 00:37:00 | 50.97409 | 8.27251 | 89° | 26km/h | 22142m | -19.9m/s | -53.5°C | 4.3% | 42hPa | 2.6V | 08:25:56 | 02:19:21 | 00:00:00 | |
| DL1XH-west | 2026-09-03 00:36:59 | 50.97420 | 8.27292 | 25° | 13km/h | 22022m | -19.1m/s | -53.4°C | 0.8% | 42.8hPa | 2.5V | 08:25:53 | 02:19:27 | 00:00:00 | |
| DF8AY | 2026-09-03 00:36:58 | 50.97415 | 8.27284 | 51° | 18km/h | 22061m | -19.9m/s | 0°C | 0% | 0hPa | 2.5V | 18:12:15 | 02:19:25 | 00:00:00 | |
| DL4BBY-15 | 2026-09-03 00:36:57 | 50.97415 | 8.27284 | 52° | 20km/h | 22061m | -19.8m/s | -52.5°C | 0% | 0hPa | 2.5V | 00:00:00 | 00:00:00 | 00:00:00 | |
| DL1XH1-15 | 2026-09-03 00:36:56 | 50.97409 | 8.27240 | 91° | 26km/h | 22162m | -20.6m/s | -53.5°C | 4.3% | 41.8hPa | 2.5V | 08:25:57 | 02:19:20 | 00:00:00 | |
| AA1-15 | 2026-09-03 00:36:54 | 50.97410 | 8.27261 | 80° | 24km/h | 22122m | -19.8m/s | -53.5°C | 0.8% | 42.1hPa | 2.6V | 08:26:44 | 02:19:22 | 00:00:00 | |
| HSKMA3-T | 2026-09-03 00:36:52 | 50.97409 | 8.27240 | 91° | 26km/h | 22162m | -20.7m/s | -53.5°C | 0.9% | 41.8hPa | 2.5V | 08:26:44 | 02:19:20 | 00:00:00 | |
| DJ2DS-15 | 2026-09-03 00:36:52 | 50.97409 | 8.27240 | 92° | 20km/h | 22162m | -20.6m/s | -53.4°C | 4.3% | 41.8hPa | 2.5V | 00:00:00 | 02:19:20 | 00:00:00 | |
| DL1XH-15 | 2026-09-03 00:36:51 | 50.97411 | 8.27218 | 104° | 27km/h | 22203m | -20.6m/s | -53.3°C | 4.3% | 41.6hPa | 2.5V | 08:25:59 | 02:19:18 | 00:00:00 | |
| DJ2KF-10 | 2026-09-03 00:36:51 | 50.97410 | 8.27229 | 101° | 22km/h | 22183m | -20.4m/s | -53.3°C | 4.3% | 41.6hPa | 2.5V | 00:00:00 | 02:19:19 | 00:00:00 | |
| DL1NUX | 2026-09-03 00:36:50 | 50.97422 | 8.27172 | 111° | 18km/h | 22304m | -20.1m/s | -53°C | 4.2% | 40.9hPa | 2.5V | 08:26:04 | 02:19:13 | 00:00:00 | |
| DL1XH-west | 2026-09-03 00:36:48 | 50.97416 | 8.27196 | 110° | 26km/h | 22243m | -20.4m/s | -53.2°C | 0.8% | 41.3hPa | 2.6V | 08:26:44 | 02:19:16 | 00:00:00 | |
| SONCRA | 2026-09-03 00:36:48 | 50.97418 | 8.27187 | 112° | 24km/h | 22264m | -20.6m/s | -53.1°C | 1.2% | 41.2hPa | 2.6V | 00:00:00 | 00:00:00 | 00:00:00 | |
| BIOWL1-15 | 2026-09-03 00:36:47 | 50.97424 | 8.27140 | 88° | 15km/h | 22428m | -21.1m/s | -52.7°C | 0.8% | 40.1hPa | 2.6V | 08:26:44 | 02:19:07 | 00:00:00 | |
| DF8AY | 2026-09-03 00:36:45 | 50.97422 | 8.27172 | 112° | 18km/h | 22304m | -20.2m/s | 0°C | 0% | 0hPa | 2.5V | 18:12:15 | 02:19:13 | 00:00:00 | |
| DL1XH-15 | 2026-09-03 00:36:45 | 50.97424 | 8.27145 | 93° | 13km/h | 22407m | -20.9m/s | -52.6°C | 4.1% | 40.3hPa | 2.6V | 08:26:09 | 02:19:08 | 00:00:00 | |
| AA1-15 | 2026-09-03 00:36:44 | 50.97424 | 8.27161 | 100° | 15km/h | 22345m | -21.1m/s | -52.8°C | 0.8% | 40.6hPa | 2.5V | 08:26:44 | 02:19:11 | 00:00:00 | |
| HSKMA3-T | 2026-09-03 00:36:41 | 50.97424 | 8.27151 | 90° | 15km/h | 22386m | -20.7m/s | -52.7°C | 0.8% | 40.4hPa | 2.6V | 08:26:44 | 02:19:09 | 00:00:00 | |
| DO3DL | 2026-09-03 00:36:40 | 50.97424 | 8.27145 | 95° | 13km/h | 22407m | -20.9m/s | -52.6°C | 1.2% | 40.3hPa | 2.5V | 08:26:00 | 00:00:00 | 00:00:00 | |
| DL1NUX | 2026-09-03 00:36:39 | 50.97425 | 8.27115 | 96° | 18km/h | 22512m | -20.3m/s | -52.6°C | 4.2% | 39.6hPa | 2.5V | 08:26:14 | 02:19:03 | 00:00:00 | |
| DJ8HS-15 | 2026-09-03 00:36:39 | 50.97424 | 8.27140 | 89° | 24km/h | 22428m | -21.0m/s | -52.6°C | 4.2% | 40.1hPa | 2.6V | 00:00:00 | 02:19:07 | 00:00:00 | |
| HTAHTA | 2026-09-03 00:36:38 | 50.97425 | 8.27128 | 88° | 13km/h | 22470m | -21.6m/s | -52.8°C | 1.2% | 39.9hPa | 2.6V | 00:00:00 | 00:00:00 | 00:00:00 | |
| DM0DOS-11 | 2026-09-03 00:36:37 | 50.97426 | 8.27100 | 94° | 22km/h | 22554m | -20.7m/s | -52.2°C | 4% | 39.4hPa | 2.6V | 08:26:16 | 02:19:01 | 00:00:00 | |
| DL1XH-west | 2026-09-03 00:36:37 | 50.97425 | 8.27128 | 88° | 15km/h | 22470m | -21.6m/s | -52.8°C | 0.8% | 39.9hPa | 2.5V | 08:26:44 | 02:19:05 | 00:00:00 | |
| DF8AY | 2026-09-03 00:36:34 | 50.97438 | 8.27032 | 125° | 31km/h | 22701m | -20.8m/s | 0°C | 0% | 0hPa | 2.6V | 18:12:15 | 02:18:54 | 00:00:00 | |
| DL1XH-15 | 2026-09-03 00:36:34 | 50.97428 | 8.27072 | 96° | 24km/h | 22616m | -21m/s | -51.8°C | 4% | 39hPa | 2.5V | 08:26:19 | 02:18:58 | 00:00:00 | |
| AA1-15 | 2026-09-03 00:36:32 | 50.97427 | 8.27091 | 93° | 22km/h | 22574m | -20.8m/s | -52°C | 0.7% | 39.3hPa | 2.6V | 08:26:44 | 02:19:00 | 00:00:00 | |
| HSKMA3-T | 2026-09-03 00:36:30 | 50.97428 | 8.27072 | 96° | 24km/h | 22616m | -21m/s | -51.8°C | 0.7% | 39hPa | 2.5V | 08:26:44 | 02:18:58 | 00:00:00 | |
| DF8AY | 2026-09-03 00:36:28 | 50.97455 | 8.27006 | 145° | 31km/h | 22763m | -20.6m/s | 0°C | 0% | 0hPa | 2.5V | 18:12:15 | 02:18:51 | 00:00:00 | |
| DL1XH-west | 2026-09-03 00:36:27 | 50.97434 | 8.27042 | 118° | 27km/h | 22679m | -21.9m/s | -51.9°C | 0.7% | 38.6hPa | 2.6V | 08:26:44 | 02:18:55 | 00:00:00 | |
| DL4BBY-15 | 2026-09-03 00:36:27 | 50.97434 | 8.27042 | 119° | 20km/h | 22680m | -21.8m/s | -50.9°C | 0% | 0hPa | 2.5V | 00:00:00 | 00:00:00 | 00:00:00 | |
| DM0DOS-11 | 2026-09-03 00:36:26 | 50.97454 | 8.27006 | 144° | 31km/h | 22763m | -20.6m/s | -51.7°C | 3.9% | 38.1hPa | 2.5V | 08:26:26 | 02:18:51 | 00:00:00 | |
| DL3OBA | 2026-09-03 00:36:25 | 50.97438 | 8.27032 | 126° | 31km/h | 22701m | -20.8m/s | -51.9°C | 1.1% | 38.5hPa | 2.5V | 08:26:00 | 00:00:00 | 00:00:00 | |
| DO3MHA-11 | 2026-09-03 00:36:24 | 50.97448 | 8.27013 | 140° | 26km/h | 22742m | -21.1m/s | -51.8°C | 3.9% | 38.2hPa | 2.5V | 00:00:00 | 02:18:52 | 00:00:00 | |
| DL1XH1-15 | 2026-09-03 00:36:23 | 50.97461 | 8.26999 | 147° | 31km/h | 22784m | -21.2m/s | -51.6°C | 3.9% | 38hPa | 2.5V | 08:26:27 | 02:18:50 | 00:00:00 | |
| AA1-15 | 2026-09-03 00:36:22 | 50.97461 | 8.26999 | 148° | 31km/h | 22784m | -21.2m/s | -51.6°C | 0.7% | 38hPa | 2.5V | 08:26:44 | 02:18:50 | 00:00:00 | |
| SO1NDE-10 | 2026-09-03 00:36:22 | 50.97461 | 8.26999 | 148° | 20km/h | 22784m | -21.1m/s | -51.5°C | 3.9% | 37.9hPa | 2.6V | 00:00:00 | 02:18:50 | 00:00:00 | |
| DL1XH-15 | 2026-09-03 00:36:21 | 50.97474 | 8.26988 | 159° | 26km/h | 22827m | -21.5m/s | -51.8°C | 3.9% | 37.7hPa | 2.6V | 08:26:29 | 02:18:48 | 00:00:00 | |
| HSKMA3-T | 2026-09-03 00:36:20 | 50.97474 | 8.26988 | 159° | 27km/h | 22827m | -21.5m/s | -51.8°C | 0.7% | 37.7hPa | 2.6V | 08:26:44 | 02:18:48 | 00:00:00 | |
| DL1NUX | 2026-09-03 00:36:19 | 50.97501 | 8.26977 | 174° | 15km/h | 22936m | -21.8m/s | -51.6°C | 3.9% | 37.1hPa | 2.5V | 08:26:34 | 02:18:43 | 00:00:00 | |
| BIOWL7-15 | 2026-09-03 00:36:19 | 50.97480 | 8.26984 | 159° | 26km/h | 22850m | -21.8m/s | -51.9°C | 1.1% | 37.6hPa | 2.6V | 00:00:00 | 00:00:00 | 00:00:00 | |
| DL3AQ-11 | 2026-09-03 00:36:18 | 50.97492 | 8.26979 | 164° | 20km/h | 22893m | -21.6m/s | -51.9°C | 1.1% | 37.4hPa | 2.6V | 00:00:00 | 00:00:00 | 00:00:00 | |
| DL1XH1-15 | 2026-09-03 00:36:17 | 50.97515 | 8.26974 | 154° | 9km/h | 23024m | -21.6m/s | -51.1°C | 3.7% | 36.6hPa | 2.6V | 08:26:38 | 02:18:39 | 00:00:00 | |
| DL1XH-west | 2026-09-03 00:36:16 | 50.97497 | 8.26978 | 169° | 20km/h | 22915m | -21.3m/s | -51.7°C | 0.7% | 37.3hPa | 2.5V | 08:26:44 | 02:18:44 | 00:00:00 | |
| DO2KSM | 2026-09-03 00:36:16 | 50.97497 | 8.26978 | 170° | 20km/h | 22915m | -21.3m/s | -51.7°C | 1.1% | 37.3hPa | 2.5V | 08:26:00 | 00:00:00 | 00:00:00 | |
| DL1XH-15 | 2026-09-03 00:36:15 | 50.97519 | 8.26971 | 148° | 9km/h | 23068m | -22.3m/s | -51.2°C | 3.8% | 36.3hPa | 2.5V | 08:26:40 | 02:18:37 | 00:00:00 | |
| DD1CC8 | 2026-09-03 00:36:15 | 50.97501 | 8.26977 | 174° | 13km/h | 22937m | -21.8m/s | -51.6°C | 1.1% | 37.1hPa | 2.6V | 00:00:00 | 00:00:00 | 00:00:00 | |
| DM0DOS-11 | 2026-09-03 00:36:14 | 50.97509 | 8.26976 | 172° | 15km/h | 22980m | -21.6m/s | -51.4°C | 3.8% | 36.9hPa | 2.6V | 08:26:36 | 02:18:41 | 00:00:00 | |
| DF8AY | 2026-09-03 00:36:13 | 50.97509 | 8.26975 | 173° | 15km/h | 22980m | -21.7m/s | 0°C | 0% | 0hPa | 2.6V | 18:12:15 | 02:18:41 | 00:00:00 | |
| AA1-15 | 2026-09-03 00:36:12 | 50.97515 | 8.26974 | 155° | 9km/h | 23024m | -21.6m/s | -51.1°C | 0.6% | 36.6hPa | 2.6V | 08:26:44 | 02:18:39 | 00:00:00 | |
| BIOWL1-15 | 2026-09-03 00:36:11 | 50.97521 | 8.26969 | 133° | 9km/h | 23090m | -22.2m/s | -51.1°C | 0.6% | 36.3hPa | 2.5V | 08:26:44 | 02:18:36 | 00:00:00 | |
| DF7PN | 2026-09-03 00:36:11 | 50.97515 | 8.26974 | 154° | 9km/h | 23024m | -21.6m/s | -51.1°C | 1.1% | 36.6hPa | 2.6V | 00:00:00 | 00:00:00 | 00:00:00 | |
| DL1NUX | 2026-09-03 00:36:10 | 50.97528 | 8.26964 | 159° | 13km/h | 23155m | -22.1m/s | -51°C | 3.7% | 35.9hPa | 2.6V | 08:26:44 | 02:18:33 | 00:00:00 | |
| HSKMA3-T | 2026-09-03 00:36:10 | 50.97519 | 8.26971 | 149° | 9km/h | 23068m | -22.3m/s | -51.2°C | 0.6% | 36.3hPa | 2.5V | 08:26:44 | 02:18:37 | 00:00:00 | |
| DL8DAS-15 | 2026-09-03 00:36:10 | 50.97517 | 8.26973 | 156° | 7km/h | 23046m | -22.0m/s | -51.1°C | 1.1% | 36.5hPa | 2.5V | 08:26:00 | 00:00:00 | 00:00:00 | |
| DM0DOS-11 | 2026-09-03 00:36:09 | 50.97534 | 8.26961 | 164° | 15km/h | 23199m | -22.1m/s | -51°C | 3.7% | 35.6hPa | 2.5V | 08:26:46 | 02:18:31 | 00:00:00 | |
| HTAHTA | 2026-09-03 00:36:07 | 50.97528 | 8.26964 | 159° | 13km/h | 23155m | -22.1m/s | -51.0°C | 1.0% | 35.9hPa | 2.5V | 00:00:00 | 00:00:00 | 00:00:00 | |
| DL1XH1-15 | 2026-09-03 00:36:06 | 50.97542 | 8.26958 | 171° | 18km/h | 23243m | -22.5m/s | -51°C | 3.6% | 35.4hPa | 2.5V | 08:26:48 | 02:18:29 | 00:00:00 | |
| DL1XH-west | 2026-09-03 00:36:06 | 50.97528 | 8.26964 | 160° | 13km/h | 23155m | -22.1m/s | -51°C | 0.5% | 35.9hPa | 2.6V | 08:26:44 | 02:18:33 | 00:00:00 | |
| BIOWL1-15 | 2026-09-03 00:36:00 | 50.97547 | 8.26957 | 170° | 22km/h | 23266m | -23m/s | -51°C | 0.5% | 35.3hPa | 2.5V | 08:27:35 | 02:18:28 | 00:00:00 | |
| HSKMA3-T | 2026-09-03 00:35:58 | 50.97559 | 8.26953 | 173° | 27km/h | 23312m | -23.5m/s | -51°C | 0.5% | 35hPa | 2.6V | 08:27:35 | 02:18:26 | 00:00:00 | |
| DM0DOS-11 | 2026-09-03 00:35:58 | 50.97596 | 8.26952 | 184° | 33km/h | 23428m | -23m/s | -51.5°C | 3.7% | 34.4hPa | 2.5V | 08:26:56 | 02:18:21 | 00:00:00 | |
| BUE01 | 2026-09-03 00:35:58 | 50.97565 | 8.26952 | 175° | 27km/h | 23335m | -23.5m/s | -51.1°C | 1.0% | 34.9hPa | 2.6V | 00:00:00 | 00:00:00 | 00:00:00 | |
| DK9SH | 2026-09-03 00:35:57 | 50.97565 | 8.26952 | 177° | 27km/h | 23335m | -23.5m/s | -51.1°C | 1.0% | 34.9hPa | 2.6V | 08:27:00 | 00:00:00 | 00:00:00 | |
| DL1XH1-15 | 2026-09-03 00:35:56 | 50.97610 | 8.26956 | 195° | 29km/h | 23475m | -23.5m/s | -51.6°C | 3.8% | 34.1hPa | 2.6V | 08:26:58 | 02:18:19 | 00:00:00 | |
| DL1XH-west | 2026-09-03 00:35:55 | 50.97580 | 8.26951 | 180° | 31km/h | 23382m | -23.2m/s | -51.4°C | 0.5% | 34.6hPa | 2.5V | 08:27:35 | 02:18:23 | 00:00:00 | |
| BIOWL1-15 | 2026-09-03 00:35:50 | 50.97617 | 8.26960 | 197° | 29km/h | 23498m | -23.8m/s | -51.7°C | 0.6% | 34hPa | 2.6V | 08:27:35 | 02:18:18 | 00:00:00 | |
| HSKMA3-T | 2026-09-03 00:35:49 | 50.97630 | 8.26969 | 209° | 26km/h | 23546m | -24.2m/s | -51.7°C | 0.6% | 33.8hPa | 2.5V | 08:27:35 | 02:18:16 | 00:00:00 | |
| DM0DOS-11 | 2026-09-03 00:35:48 | 50.97648 | 8.26999 | 253° | 18km/h | 23666m | -24m/s | -51.5°C | 3.8% | 33.1hPa | 2.6V | 08:27:06 | 02:18:11 | 00:00:00 | |
| WPPR-10 | 2026-09-03 00:35:48 | 50.97635 | 8.26974 | 212° | 24km/h | 23570m | -24.0m/s | -51.6°C | 1.1% | 33.6hPa | 2.5V | 00:00:00 | 00:00:00 | 00:00:00 | |
| AM1SDL-15 | 2026-09-03 00:35:47 | 50.97635 | 8.26974 | 213° | 13km/h | 23570m | -23.9m/s | -51.6°C | 3.8% | 33.6hPa | 2.5V | 00:00:00 | 02:18:15 | 00:00:00 | |
| DL1XH1-15 | 2026-09-03 00:35:46 | 50.97650 | 8.27012 | 261° | 16km/h | 23713m | -24.4m/s | -51.7°C | 3.8% | 32.9hPa | 2.5V | 08:27:08 | 02:18:09 | 00:00:00 | |
| DL1XH-15 | 2026-09-03 00:35:45 | 50.97649 | 8.27024 | 290° | 15km/h | 23762m | -23.8m/s | -51.9°C | 4% | 32.7hPa | 2.5V | 08:27:10 | 02:18:07 | 00:00:00 | |
| DL1XH-west | 2026-09-03 00:35:44 | 50.97647 | 8.26992 | 238° | 20km/h | 23641m | -24.2m/s | -51.5°C | 0.6% | 33.3hPa | 2.6V | 08:27:35 | 02:18:12 | 00:00:00 | |
| BIOWL1-15 | 2026-09-03 00:35:40 | 50.97650 | 8.27018 | 276° | 15km/h | 23738m | -23.8m/s | -51.8°C | 0.7% | 32.8hPa | 2.5V | 08:27:35 | 02:18:08 | 00:00:00 | |
| AA1-15 | 2026-09-03 00:35:40 | 50.97649 | 8.27024 | 291° | 15km/h | 23762m | -23.8m/s | -51.9°C | 0.7% | 32.7hPa | 2.5V | 08:27:35 | 02:18:07 | 00:00:00 | |
| DL1NUX | 2026-09-03 00:35:39 | 50.97642 | 8.27040 | 330° | 9km/h | 23858m | -24.2m/s | -52°C | 4% | 32.2hPa | 2.5V | 08:27:14 | 02:18:03 | 00:00:00 | |
| GOEST3-10 | 2026-09-03 00:35:39 | 50.97649 | 8.27024 | 291° | 13km/h | 23762m | -23.8m/s | -51.9°C | 4.0% | 32.7hPa | 2.5V | 08:27:00 | 00:00:00 | 00:00:00 | |
| DM0DOS-11 | 2026-09-03 00:35:38 | 50.97639 | 8.27042 | 359° | 4km/h | 23906m | -24.1m/s | -52.1°C | 4% | 31.9hPa | 2.5V | 08:27:16 | 02:18:01 | 00:00:00 | |
| HSKMA3-T | 2026-09-03 00:35:38 | 50.97648 | 8.27029 | 302° | 16km/h | 23785m | -24.2m/s | -51.9°C | 0.7% | 32.5hPa | 2.6V | 08:27:35 | 02:18:06 | 00:00:00 | |
| DL1XH-west | 2026-09-03 00:35:34 | 50.97640 | 8.27041 | 336° | 7km/h | 23883m | -24.1m/s | -52.1°C | 0.7% | 32.1hPa | 2.5V | 08:27:35 | 02:18:02 | 00:00:00 | |
| DL1XH1-15 | 2026-09-03 00:35:34 | 50.97638 | 8.27042 | 180° | 2km/h | 23954m | -23.5m/s | -52.2°C | 4.1% | 31.7hPa | 2.6V | 08:27:18 | 02:17:59 | 00:00:00 | |
| GOEST3-10 | 2026-09-03 00:35:34 | 50.97640 | 8.27041 | 336° | 4km/h | 23883m | -24.0m/s | -52.0°C | 4.0% | 32.0hPa | 2.6V | 00:00:00 | 02:18:02 | 00:00:00 | |
| DL1XH-15 | 2026-09-03 00:35:33 | 50.97639 | 8.27042 | 181° | 4km/h | 23978m | -23.7m/s | -52.2°C | 4.1% | 31.6hPa | 2.6V | 08:27:19 | 02:17:58 | 00:00:00 | |
| BIOWL1-15 | 2026-09-03 00:35:30 | 50.97648 | 8.27047 | 203° | 13km/h | 24073m | -24.6m/s | -51.6°C | 0.6% | 31.1hPa | 2.5V | 08:27:35 | 02:17:54 | 00:00:00 | |
| AA1-15 | 2026-09-03 00:35:29 | 50.97640 | 8.27042 | 191° | 7km/h | 24001m | -23.3m/s | -52.1°C | 0.7% | 31.4hPa | 2.6V | 08:27:35 | 02:17:57 | 00:00:00 | |
| HSKMA3-T | 2026-09-03 00:35:28 | 50.97642 | 8.27043 | 199° | 11km/h | 24026m | -23.6m/s | -51.8°C | 0.7% | 31.4hPa | 2.5V | 08:27:35 | 02:17:56 | 00:00:00 | |
| DL4BBY-15 | 2026-09-03 00:35:27 | 50.97646 | 8.27045 | 201° | 11km/h | 24049m | -24.3m/s | -50.7°C | 0% | 0hPa | 2.5V | 00:00:00 | 00:00:00 | 00:00:00 | |
| DL1NUX | 2026-09-03 00:35:26 | 50.97651 | 8.27049 | 212° | 16km/h | 24097m | -24.6m/s | -51.5°C | 3.9% | 31hPa | 2.5V | 08:27:24 | 02:17:53 | 00:00:00 | |
| DL1XH-west | 2026-09-03 00:35:23 | 50.97656 | 8.27057 | 225° | 15km/h | 24147m | -24.9m/s | -51.2°C | 0.5% | 30.8hPa | 2.6V | 08:27:35 | 02:17:51 | 00:00:00 | |
| SO1NDE-10 | 2026-09-03 00:35:22 | 50.97658 | 8.27061 | 234° | 9km/h | 24172m | -24.8m/s | -51.2°C | 3.8% | 30.6hPa | 2.5V | 00:00:00 | 02:17:50 | 00:00:00 | |
| DL1XH-15 | 2026-09-03 00:35:21 | 50.97660 | 8.27070 | 251° | 13km/h | 24221m | -24.3m/s | -51.3°C | 3.8% | 30.4hPa | 2.5V | 08:27:29 | 02:17:48 | 00:00:00 | |
| DJ2KF-10 | 2026-09-03 00:35:21 | 50.97660 | 8.27066 | 242° | 9km/h | 24196m | -24.3m/s | -51.2°C | 3.8% | 30.5hPa | 2.6V | 00:00:00 | 02:17:49 | 00:00:00 | |
| DL1NUX | 2026-09-03 00:35:20 | 50.97662 | 8.27081 | 28° | 7km/h | 24344m | -24.4m/s | -51.2°C | 3.8% | 29.9hPa | 2.6V | 08:27:34 | 02:17:43 | 00:00:00 | |
| HSKMA3-T | 2026-09-03 00:35:18 | 50.97662 | 8.27078 | 261° | 7km/h | 24270m | -25m/s | -51.3°C | 0.6% | 30.2hPa | 2.5V | 08:27:35 | 02:17:46 | 00:00:00 | |
| EDDB2-11 | 2026-09-03 00:35:17 | 50.97663 | 8.27082 | 345° | 2km/h | 24319m | -25.0m/s | -51.2°C | 1.1% | 29.9hPa | 2.5V | 00:00:00 | 00:00:00 | 00:00:00 | |
| DL1XH1-15 | 2026-09-03 00:35:16 | 50.97654 | 8.27069 | 55° | 15km/h | 24443m | -25.8m/s | -51.2°C | 3.8% | 29.4hPa | 2.5V | 08:27:38 | 02:17:39 | 00:00:00 | |
| DL1XH-15 | 2026-09-03 00:35:15 | 50.97651 | 8.27060 | 57° | 15km/h | 24494m | -26.1m/s | -51.4°C | 3.9% | 29.1hPa | 2.6V | 08:27:40 | 02:17:37 | 00:00:00 | |
| DL1XH-west | 2026-09-03 00:35:13 | 50.97659 | 8.27077 | 41° | 11km/h | 24393m | -24.9m/s | -51.3°C | 0.6% | 29.6hPa | 2.5V | 08:28:26 | 02:17:41 | 00:00:00 | |
| DJ2DS-15 | 2026-09-03 00:35:12 | 50.97656 | 8.27073 | 46° | 11km/h | 24418m | -25.5m/s | -51.2°C | 3.8% | 29.5hPa | 2.5V | 00:00:00 | 02:17:40 | 00:00:00 | |
| DL1NUX | 2026-09-03 00:35:10 | 50.97647 | 8.27039 | 93° | 15km/h | 24596m | -24.6m/s | -51.6°C | 4% | 28.7hPa | 2.5V | 08:27:44 | 02:17:33 | 00:00:00 | |
| BIOWL1-15 | 2026-09-03 00:35:10 | 50.97647 | 8.27039 | 93° | 15km/h | 24596m | -24.6m/s | -51.7°C | 0.8% | 28.7hPa | 2.5V | 08:28:26 | 02:17:33 | 00:00:00 | |
| AA1-15 | 2026-09-03 00:35:08 | 50.97649 | 8.27055 | 62° | 15km/h | 24520m | -25.4m/s | -51.5°C | 0.7% | 29.1hPa | 2.6V | 08:28:26 | 02:17:36 | 00:00:00 | |
| HSKMA3-T | 2026-09-03 00:35:07 | 50.97648 | 8.27050 | 77° | 13km/h | 24546m | -24.8m/s | -51.5°C | 0.7% | 29hPa | 2.5V | 08:28:26 | 02:17:35 | 00:00:00 | |
| BIOWL7-15 | 2026-09-03 00:35:07 | 50.97648 | 8.27049 | 78° | 13km/h | 24547m | -24.8m/s | -51.5°C | 1.1% | 29.0hPa | 2.6V | 00:00:00 | 00:00:00 | 00:00:00 | |
| DM0DOS-11 | 2026-09-03 00:35:05 | 50.97647 | 8.27026 | 93° | 15km/h | 24646m | -25.6m/s | -51.6°C | 4% | 28.5hPa | 2.6V | 08:27:46 | 02:17:31 | 00:00:00 | |
| HTAHTA | 2026-09-03 00:35:05 | 50.97648 | 8.27033 | 92° | 15km/h | 24621m | -25.4m/s | -51.6°C | 1.1% | 28.6hPa | 2.5V | 00:00:00 | 00:00:00 | 00:00:00 | |
| DL1XH-15 | 2026-09-03 00:35:04 | 50.97649 | 8.27012 | 114° | 9km/h | 24724m | -25.7m/s | -51.7°C | 4.2% | 28.2hPa | 2.5V | 08:27:49 | 02:17:28 | 00:00:00 | |
| DL1XH-west | 2026-09-03 00:35:02 | 50.97648 | 8.27021 | 100° | 15km/h | 24672m | -25.9m/s | -51.6°C | 0.7% | 28.4hPa | 2.6V | 08:28:26 | 02:17:30 | 00:00:00 | |
| DL8DAS-14 | 2026-09-03 00:35:01 | 50.97649 | 8.27016 | 106° | 11km/h | 24698m | -26.0m/s | -51.7°C | 1.1% | 28.3hPa | 2.6V | 00:00:00 | 00:00:00 | 00:00:00 | |
| DL1NUX | 2026-09-03 00:35:00 | 50.97653 | 8.27005 | 193° | 4km/h | 24850m | -25.8m/s | -51°C | 3.9% | 27.6hPa | 2.6V | 08:27:54 | 02:17:23 | 00:00:00 | |
| AA1-15 | 2026-09-03 00:34:58 | 50.97651 | 8.27006 | 141° | 4km/h | 24799m | -25.6m/s | -51.4°C | 0.7% | 27.9hPa | 2.5V | 08:28:26 | 02:17:25 | 00:00:00 | |
| HSKMA3-T | 2026-09-03 00:34:56 | 50.97652 | 8.27005 | 146° | 4km/h | 24824m | -25.8m/s | -51.1°C | 0.7% | 27.7hPa | 2.6V | 08:28:26 | 02:17:24 | 00:00:00 | |
| DM0DOS-11 | 2026-09-03 00:34:55 | 50.97655 | 8.27007 | 208° | 5km/h | 24900m | -26.2m/s | -50.9°C | 3.9% | 27.4hPa | 2.5V | 08:27:56 | 02:17:21 | 00:00:00 | |
| GOEST3-10 | 2026-09-03 00:34:54 | 50.97654 | 8.27006 | 218° | 9km/h | 24875m | -26.0m/s | -50.9°C | 3.9% | 27.5hPa | 2.6V | 08:27:00 | 02:17:22 | 00:00:00 | |
| DL1XH-15 | 2026-09-03 00:34:52 | 50.97662 | 8.27011 | 194° | 13km/h | 24978m | -25.9m/s | -50.7°C | 3.8% | 27.1hPa | 2.5V | 08:27:59 | 02:17:18 | 00:00:00 | |
| DL1XH-west | 2026-09-03 00:34:51 | 50.97659 | 8.27009 | 202° | 11km/h | 24952m | -26.3m/s | -50.8°C | 0.6% | 27.1hPa | 2.5V | 08:28:26 | 02:17:19 | 00:00:00 | |
| AA1-15 | 2026-09-03 00:34:46 | 50.97683 | 8.27020 | 203° | 16km/h | 25110m | -26.4m/s | -50.2°C | 0.6% | 26.5hPa | 2.5V | 08:28:26 | 02:17:13 | 00:00:00 | |
| HSKMA3-T | 2026-09-03 00:34:46 | 50.97679 | 8.27018 | 200° | 18km/h | 25084m | -26.6m/s | -50.2°C | 0.5% | 26.6hPa | 2.5V | 08:28:26 | 02:17:14 | 00:00:00 | |
| EDDB2-11 | 2026-09-03 00:34:46 | 50.97683 | 8.27020 | 202° | 15km/h | 25110m | -26.4m/s | -50.2°C | 1.0% | 26.5hPa | 2.5V | 00:00:00 | 00:00:00 | 00:00:00 | |
| WPPR-10 | 2026-09-03 00:34:45 | 50.97683 | 8.27020 | 202° | 15km/h | 25110m | -26.4m/s | -50.2°C | 1.0% | 26.5hPa | 2.5V | 00:00:00 | 00:00:00 | 00:00:00 | |
| DM0DOS-11 | 2026-09-03 00:34:44 | 50.97689 | 8.27025 | 218° | 11km/h | 25162m | -25.3m/s | -50.1°C | 3.7% | 26.3hPa | 2.5V | 08:28:06 | 02:17:11 | 00:00:00 | |
| DB0UT-7 | 2026-09-03 00:34:44 | 50.97686 | 8.27023 | 209° | 9km/h | 25136m | -26.0m/s | -50.1°C | 3.7% | 26.4hPa | 2.6V | 00:00:00 | 00:00:00 | 00:00:00 | |
| SONCRA | 2026-09-03 00:34:43 | 50.97689 | 8.27025 | 218° | 9km/h | 25162m | -25.3m/s | -50.1°C | 1.0% | 26.3hPa | 2.6V | 00:00:00 | 00:00:00 | 00:00:00 | |
| DL1XH-15 | 2026-09-03 00:34:42 | 50.97692 | 8.27027 | 147° | 7km/h | 25241m | -26.5m/s | -50°C | 3.6% | 26hPa | 2.6V | 08:28:09 | 02:17:08 | 00:00:00 | |
| DL1XH-west | 2026-09-03 00:34:41 | 50.97692 | 8.27027 | 148° | 7km/h | 25241m | -26.5m/s | -50°C | 0.5% | 26hPa | 2.6V | 08:28:26 | 02:17:08 | 00:00:00 | |
| HSKMA3-T | 2026-09-03 00:34:36 | 50.97699 | 8.27009 | 111° | 18km/h | 25347m | -26.4m/s | -50°C | 0.5% | 25.6hPa | 2.5V | 08:28:26 | 02:17:04 | 00:00:00 | |
| AA1-15 | 2026-09-03 00:34:35 | 50.97701 | 8.27002 | 102° | 20km/h | 25374m | -27m/s | -50°C | 0.5% | 25.5hPa | 2.6V | 08:28:26 | 02:17:03 | 00:00:00 | |
| GOEST3-10 | 2026-09-03 00:34:34 | 50.97702 | 8.26994 | 101° | 13km/h | 25401m | -26.6m/s | -50.0°C | 3.7% | 25.3hPa | 2.5V | 00:00:00 | 02:17:02 | 00:00:00 | |
| DL1XH-15 | 2026-09-03 00:34:32 | 50.97698 | 8.26974 | 43° | 4km/h | 25504m | -25.9m/s | -50.2°C | 3.8% | 25hPa | 2.5V | 08:28:19 | 02:16:58 | 00:00:00 | |
| BIOWL1-15 | 2026-09-03 00:34:30 | 50.97686 | 8.26966 | 100° | 7km/h | 25813m | -30.4m/s | -49.8°C | 0.7% | 23.8hPa | 2.6V | 08:29:17 | 02:16:47 | 00:00:00 | |
| DL1XH-west | 2026-09-03 00:34:30 | 50.97697 | 8.26974 | 9° | 0km/h | 25529m | -25.8m/s | -50.3°C | 0.7% | 24.9hPa | 2.5V | 08:28:26 | 02:16:57 | 00:00:00 | |
| DD8BA-10 | 2026-09-03 00:34:30 | 50.97698 | 8.26974 | 44° | 7km/h | 25504m | -25.9m/s | -50.2°C | 3.8% | 24.9hPa | 2.5V | 08:28:00 | 00:00:00 | 00:00:00 | |
| DL3AQ-11 | 2026-09-03 00:34:29 | 50.97697 | 8.26974 | 20° | 0km/h | 25556m | -26.8m/s | -50.3°C | 1.0% | 24.8hPa | 2.6V | 00:00:00 | 00:00:00 | 00:00:00 | |
| BIOWL9-15 | 2026-09-03 00:34:27 | 50.97697 | 8.26974 | 3° | 2km/h | 25611m | -28.4m/s | -50.2°C | 1.1% | 24.5hPa | 2.6V | 00:00:00 | 00:00:00 | 00:00:00 | |
| DL1XH1-15 | 2026-09-03 00:34:26 | 50.97687 | 8.26970 | 34° | 7km/h | 25753m | -29.3m/s | -50°C | 3.9% | 24hPa | 2.6V | 08:28:28 | 02:16:49 | 00:00:00 | |
| HSKMA3-T | 2026-09-03 00:34:26 | 50.97697 | 8.26974 | 4° | 4km/h | 25611m | -28.4m/s | -50.2°C | 0.7% | 24.5hPa | 2.6V | 08:28:26 | 02:16:54 | 00:00:00 | |
| AA1-15 | 2026-09-03 00:34:25 | 50.97695 | 8.26973 | 20° | 9km/h | 25640m | -28.2m/s | -50.3°C | 0.7% | 24.4hPa | 2.5V | 08:28:26 | 02:16:53 | 00:00:00 | |
| BIOWL1-15 | 2026-09-03 00:34:19 | 50.97687 | 8.26961 | 136° | 9km/h | 25871m | -27.4m/s | -49.7°C | 0.7% | 23.6hPa | 2.5V | 08:29:17 | 02:16:45 | 00:00:00 | |
| DL1XH-west | 2026-09-03 00:34:18 | 50.97686 | 8.26964 | 110° | 5km/h | 25843m | -29.1m/s | -49.8°C | 0.7% | 23.7hPa | 2.5V | 08:29:17 | 02:16:46 | 00:00:00 | |
| DD8BA-10 | 2026-09-03 00:34:18 | 50.97686 | 8.26964 | 111° | 5km/h | 25843m | -29.0m/s | -49.8°C | 3.9% | 23.7hPa | 2.6V | 00:00:00 | 00:00:00 | 00:00:00 | |
| DO3DL | 2026-09-03 00:34:17 | 50.97686 | 8.26964 | 111° | 5km/h | 25843m | -29.1m/s | -49.8°C | 1.1% | 23.7hPa | 2.6V | 08:29:00 | 00:00:00 | 00:00:00 | |
| DM0DOS-11 | 2026-09-03 00:34:15 | 50.97694 | 8.26953 | 170° | 4km/h | 25992m | -34.1m/s | -49°C | 3.7% | 23.2hPa | 2.6V | 08:28:36 | 02:16:41 | 00:00:00 | |
| DL1XH1-15 | 2026-09-03 00:34:15 | 50.97694 | 8.26952 | 335° | 2km/h | 26066m | -40.1m/s | -48.9°C | 3.6% | 22.9hPa | 2.5V | 08:28:38 | 02:16:39 | 00:00:00 | |
| AA1-15 | 2026-09-03 00:34:15 | 50.97691 | 8.26956 | 139° | 9km/h | 25929m | -29.9m/s | -49.4°C | 0.6% | 23.4hPa | 2.5V | 08:29:17 | 02:16:43 | 00:00:00 | |
| EDDB2-11 | 2026-09-03 00:34:15 | 50.97692 | 8.26954 | 147° | 5km/h | 25960m | -32.0m/s | -49.2°C | 1.0% | 23.3hPa | 2.6V | 00:00:00 | 00:00:00 | 00:00:00 | |
| DK9SH | 2026-09-03 00:34:14 | 50.97692 | 8.26954 | 149° | 7km/h | 25960m | -32.0m/s | -49.2°C | 1.0% | 23.3hPa | 2.6V | 08:29:00 | 00:00:00 | 00:00:00 | |
| DJTTGO | 2026-09-03 00:34:13 | 50.97692 | 8.26954 | 149° | 7km/h | 25960m | -32.0m/s | -49.2°C | 1.0% | 23.3hPa | 2.6V | 00:00:00 | 00:00:00 | 00:00:00 | |
| DJ2DS-15 | 2026-09-03 00:34:12 | 50.97694 | 8.26952 | 183° | 7km/h | 26028m | -37.0m/s | -48.9°C | 3.6% | 23.1hPa | 2.6V | 00:00:00 | 02:16:40 | 00:00:00 | |
| DD1CC8 | 2026-09-03 00:34:11 | 50.97694 | 8.26952 | 335° | 2km/h | 26066m | -40.1m/s | -48.9°C | 1.0% | 23.0hPa | 2.6V | 00:00:00 | 00:00:00 | 00:00:00 | |
| DL1NUX | 2026-09-03 00:34:10 | 50.97689 | 8.26949 | 31° | 5km/h | 26311m | -39.2m/s | -48.8°C | 3.7% | 22.1hPa | 2.6V | 08:28:44 | 02:16:33 | 00:00:00 | |
| BIOWL1-15 | 2026-09-03 00:34:09 | 50.97693 | 8.26952 | 12° | 2km/h | 26146m | -40.4m/s | -48.8°C | 0.5% | 22.7hPa | 2.5V | 08:29:17 | 02:16:37 | 00:00:00 | |
| DL1XH-west | 2026-09-03 00:34:08 | 50.97692 | 8.26952 | 13° | 5km/h | 26231m | -42.8m/s | -48.7°C | 0.6% | 22.4hPa | 2.6V | 08:29:17 | 02:16:35 | 00:00:00 | |
| DM0DOS-11 | 2026-09-03 00:34:05 | 50.97687 | 8.26946 | 50° | 7km/h | 26384m | -36.6m/s | -48.6°C | 3.6% | 21.9hPa | 2.5V | 08:28:46 | 02:16:31 | 00:00:00 | |
| AA1-15 | 2026-09-03 00:34:04 | 50.97689 | 8.26948 | 53° | 5km/h | 26348m | -35.5m/s | -48.8°C | 0.6% | 22hPa | 2.5V | 08:29:17 | 02:16:32 | 00:00:00 | |
| DO3MHA-12 | 2026-09-03 00:34:04 | 50.97688 | 8.26948 | 54° | 9km/h | 26349m | -35.5m/s | -48.7°C | 3.7% | 21.9hPa | 2.5V | 08:28:00 | 02:16:32 | 00:00:00 | |
| DO3DL | 2026-09-03 00:34:03 | 50.97689 | 8.26948 | 54° | 5km/h | 26349m | -35.5m/s | -48.8°C | 1.0% | 22.0hPa | 2.6V | 08:29:00 | 00:00:00 | 00:00:00 | |
| DL1XH-15 | 2026-09-03 00:34:01 | 50.97685 | 8.26936 | 69° | 11km/h | 26501m | -42.2m/s | -48.3°C | 3.5% | 21.5hPa | 2.6V | 08:28:49 | 02:16:28 | 00:00:00 | |
| BIOWL1-15 | 2026-09-03 00:33:59 | 50.97684 | 8.26932 | 61° | 9km/h | 26543m | -42m/s | -48.2°C | 0.4% | 21.4hPa | 2.6V | 08:29:17 | 02:16:27 | 00:00:00 | |
| DL1XH-west | 2026-09-03 00:33:56 | 50.97682 | 8.26919 | 94° | 13km/h | 26664m | -41.3m/s | -47.6°C | 0.4% | 21hPa | 2.5V | 08:29:17 | 02:16:24 | 00:00:00 | |
| BIOWL9-15 | 2026-09-03 00:33:56 | 50.97683 | 8.26915 | 121° | 13km/h | 26706m | -43.9m/s | -47.3°C | 0.9% | 20.9hPa | 2.6V | 00:00:00 | 00:00:00 | 00:00:00 | |
| DM0DOS-11 | 2026-09-03 00:33:55 | 50.97688 | 8.26906 | 141° | 16km/h | 26796m | -45.8m/s | -46.8°C | 3.1% | 20.6hPa | 2.6V | 08:28:56 | 02:16:21 | 00:00:00 | |
| DL1XH-15 | 2026-09-03 00:33:55 | 50.97706 | 8.26899 | 181° | 20km/h | 26985m | -47m/s | -46.6°C | 3% | 20hPa | 2.5V | 08:29:00 | 02:16:17 | 00:00:00 | |
| HARRO8 | 2026-09-03 00:33:54 | 50.97685 | 8.26910 | 135° | 15km/h | 26751m | -45.9m/s | -47.0°C | 0.9% | 20.7hPa | 2.6V | 00:00:00 | 00:00:00 | 00:00:00 | |
| AA1-15 | 2026-09-03 00:33:54 | 50.97685 | 8.26910 | 135° | 15km/h | 26751m | -45.9m/s | -47°C | 0.3% | 20.7hPa | 2.5V | 08:29:17 | 02:16:22 | 00:00:00 | |
| BUE01 | 2026-09-03 00:33:53 | 50.97688 | 8.26906 | 141° | 16km/h | 26797m | -45.8m/s | -46.8°C | 0.9% | 20.6hPa | 2.6V | 00:00:00 | 00:00:00 | 00:00:00 | |
| DJ2DS-15 | 2026-09-03 00:33:52 | 50.97692 | 8.26903 | 156° | 15km/h | 26844m | -46.3m/s | -46.5°C | 3.0% | 20.5hPa | 2.6V | 00:00:00 | 02:16:20 | 00:00:00 | |
| DL4XJ-10 | 2026-09-03 00:33:51 | 50.97696 | 8.26901 | 166° | 15km/h | 26890m | -46.9m/s | -45.5°C | 0% | 0hPa | 2.6V | 00:00:00 | 00:00:00 | 00:00:00 | |
| DL1NUX | 2026-09-03 00:33:50 | 50.97724 | 8.26910 | 224° | 18km/h | 27174m | -46.8m/s | -47.2°C | 3.2% | 19.5hPa | 2.6V | 08:29:04 | 02:16:13 | 00:00:00 | |
| DL3AQ-11 | 2026-09-03 00:33:49 | 50.97711 | 8.26900 | 187° | 20km/h | 27032m | -46.1m/s | -46.6°C | 0.8% | 19.9hPa | 2.6V | 00:00:00 | 00:00:00 | 00:00:00 | |
| BIOWL1-15 | 2026-09-03 00:33:48 | 50.97739 | 8.26943 | 236° | 11km/h | 27442m | -46.5m/s | -47.6°C | 0.4% | 18.7hPa | 2.6V | 08:29:17 | 02:16:07 | 00:00:00 | |
| DL1XH-west | 2026-09-03 00:33:45 | 50.97724 | 8.26910 | 225° | 18km/h | 27174m | -46.8m/s | -47.2°C | 0.3% | 19.5hPa | 2.6V | 08:29:17 | 02:16:13 | 00:00:00 | |
| DO3MHA-11 | 2026-09-03 00:33:45 | 50.97724 | 8.26910 | 225° | 15km/h | 27174m | -46.8m/s | -47.1°C | 3.2% | 19.4hPa | 2.5V | 00:00:00 | 02:16:13 | 00:00:00 | |
| DM0DOS-11 | 2026-09-03 00:33:44 | 50.97730 | 8.26921 | 238° | 20km/h | 27263m | -43.8m/s | -47.4°C | 3.3% | 19.1hPa | 2.5V | 08:29:06 | 02:16:11 | 00:00:00 | |
| AA1-15 | 2026-09-03 00:33:43 | 50.97730 | 8.26921 | 238° | 20km/h | 27263m | -43.8m/s | -47.4°C | 0.3% | 19.1hPa | 2.5V | 08:29:17 | 02:16:11 | 00:00:00 | |
| WPPR-10 | 2026-09-03 00:33:43 | 50.97730 | 8.26921 | 238° | 18km/h | 27264m | -43.8m/s | -47.4°C | 0.9% | 19.1hPa | 2.5V | 00:00:00 | 00:00:00 | 00:00:00 | |
| DO9LL-15 | 2026-09-03 00:33:42 | 50.97732 | 8.26927 | 243° | 9km/h | 27308m | -44.9m/s | -47.5°C | 3.3% | 19.0hPa | 2.5V | 08:29:00 | 02:16:10 | 00:00:00 | |
| SONCRA | 2026-09-03 00:33:41 | 50.97735 | 8.26934 | 242° | 16km/h | 27352m | -44.1m/s | -47.6°C | 0.9% | 18.9hPa | 2.5V | 00:00:00 | 00:00:00 | 00:00:00 | |
| DL1NUX | 2026-09-03 00:33:40 | 50.97745 | 8.26953 | 225° | 7km/h | 27629m | -47.2m/s | -47.4°C | 3.3% | 18.1hPa | 2.5V | 08:29:14 | 02:16:03 | 00:00:00 | |
| DD1CC8 | 2026-09-03 00:33:40 | 50.97737 | 8.26939 | 239° | 13km/h | 27397m | -44.8m/s | -47.5°C | 0.9% | 18.8hPa | 2.6V | 00:00:00 | 00:00:00 | 00:00:00 | |
| DJ8HS-15 | 2026-09-03 00:33:39 | 50.97739 | 8.26943 | 236° | 11km/h | 27443m | -46.5m/s | -47.5°C | 3.4% | 18.6hPa | 2.6V | 00:00:00 | 02:16:07 | 00:00:00 | |
| DM0DOS-11 | 2026-09-03 00:33:38 | 50.97748 | 8.26958 | 223° | 11km/h | 27724m | -48.9m/s | -47.5°C | 3.4% | 17.9hPa | 2.5V | 08:29:16 | 02:16:01 | 00:00:00 | |
| BIOWL1-15 | 2026-09-03 00:33:36 | 50.97743 | 8.26951 | 227° | 9km/h | 27583m | -47.3m/s | -47.4°C | 0.3% | 18.3hPa | 2.5V | 08:29:17 | 02:16:04 | 00:00:00 | |
| DL1XH-west | 2026-09-03 00:33:35 | 50.97745 | 8.26953 | 225° | 7km/h | 27629m | -47.2m/s | -47.4°C | 0.3% | 18.1hPa | 2.5V | 08:29:17 | 02:16:03 | 00:00:00 | |
| DL1XH-15 | 2026-09-03 00:33:35 | 50.97752 | 8.26970 | 242° | 13km/h | 27870m | -47.1m/s | -47°C | 3.3% | 17.5hPa | 2.6V | 08:30:00 | 02:15:58 | 00:00:00 | |
| AA1-15 | 2026-09-03 00:33:33 | 50.97748 | 8.26958 | 224° | 11km/h | 27724m | -48.9m/s | -47.5°C | 0.4% | 17.9hPa | 2.5V | 08:29:17 | 02:16:01 | 00:00:00 | |
| DJ2DS-15 | 2026-09-03 00:33:32 | 50.97749 | 8.26961 | 241° | 9km/h | 27773m | -49.3m/s | -47.4°C | 3.4% | 17.7hPa | 2.6V | 00:00:00 | 02:16:00 | 00:00:00 | |
| DL1NUX | 2026-09-03 00:33:30 | 50.97756 | 8.27001 | 280° | 15km/h | 28101m | -46.5m/s | -46.8°C | 3.2% | 16.9hPa | 2.6V | 08:30:00 | 02:15:53 | 00:00:00 | |
| DO2JMG | 2026-09-03 00:33:28 | 50.97755 | 8.26981 | 260° | 18km/h | 27961m | -45.5m/s | -46.8°C | 0.3% | 17.2hPa | 2.5V | 18:12:15 | 02:15:56 | 00:00:00 | |
| BIOWL1-15 | 2026-09-03 00:33:25 | 50.97755 | 8.27006 | 279° | 13km/h | 28148m | -47.2m/s | -46.8°C | 0.3% | 16.8hPa | 2.6V | 18:12:15 | 02:15:52 | 00:00:00 | |
| DM0DOS-11 | 2026-09-03 00:33:25 | 50.97754 | 8.27010 | 298° | 13km/h | 28195m | -47.3m/s | -46.6°C | 3.2% | 16.6hPa | 2.6V | 08:30:00 | 02:15:51 | 00:00:00 | |
| BIOWL9-15 | 2026-09-03 00:33:25 | 50.97755 | 8.27006 | 278° | 11km/h | 28148m | -47.2m/s | -46.8°C | 0.9% | 16.8hPa | 2.6V | 00:00:00 | 00:00:00 | 00:00:00 | |
| DL1XH-west | 2026-09-03 00:33:25 | 50.97756 | 8.27001 | 281° | 15km/h | 28101m | -46.5m/s | -46.8°C | 0.3% | 16.9hPa | 2.6V | 18:12:15 | 02:15:53 | 00:00:00 | |
| GOEST3-10 | 2026-09-03 00:33:24 | 50.97755 | 8.27006 | 279° | 9km/h | 28148m | -47.2m/s | -46.7°C | 3.2% | 16.7hPa | 2.6V | 00:00:00 | 02:15:52 | 08:30:00 | |
| DL1XH1-15 | 2026-09-03 00:33:23 | 50.97751 | 8.27015 | 309° | 5km/h | 28288m | -46.9m/s | -46.6°C | 3.3% | 16.4hPa | 2.5V | 08:30:00 | 02:15:49 | 00:00:00 | |
| HSKMA3-T | 2026-09-03 00:33:23 | 50.97754 | 8.27010 | 299° | 13km/h | 28195m | -47.3m/s | -46.6°C | 0.3% | 16.6hPa | 2.6V | 18:12:15 | 02:15:51 | 00:00:00 | |
| AA1-15 | 2026-09-03 00:33:22 | 50.97753 | 8.27013 | 302° | 9km/h | 28242m | -46.8m/s | -46.6°C | 0.3% | 16.5hPa | 2.5V | 18:12:15 | 02:15:50 | 00:00:00 | |
| DL3AQ-11 | 2026-09-03 00:33:22 | 50.97751 | 8.27015 | 309° | 5km/h | 28289m | -46.9m/s | -46.6°C | 0.9% | 16.4hPa | 2.5V | 00:00:00 | 00:00:00 | 00:00:00 | |
| DL1NUX | 2026-09-03 00:33:21 | 50.97751 | 8.27015 | 132° | 5km/h | 28580m | -47.9m/s | -47.1°C | 3.5% | 15.7hPa | 2.5V | 08:30:00 | 02:15:43 | 00:00:00 | |
| DL1XH-west | 2026-09-03 00:33:15 | 50.97751 | 8.27015 | 132° | 5km/h | 28580m | -47.9m/s | -47.1°C | 0.5% | 15.7hPa | 2.5V | 18:12:15 | 02:15:43 | 00:00:00 | |
| DO3MHA-11 | 2026-09-03 00:33:15 | 50.97751 | 8.27015 | 133° | 4km/h | 28580m | -47.8m/s | -47.1°C | 3.5% | 15.6hPa | 2.6V | 00:00:00 | 02:15:43 | 00:00:00 | |
| DB0UT-7 | 2026-09-03 00:33:14 | 50.97752 | 8.27014 | 87° | 5km/h | 28629m | -50.2m/s | -47.1°C | 3.5% | 15.5hPa | 2.6V | 00:00:00 | 02:15:42 | 00:00:00 | |
| DL1XH1-15 | 2026-09-03 00:33:13 | 50.97752 | 8.27011 | 14° | 2km/h | 28778m | -49m/s | -47.1°C | 3.6% | 15.2hPa | 2.6V | 08:30:00 | 02:15:39 | 00:00:00 | |
| BIOWL1-15 | 2026-09-03 00:33:13 | 50.97752 | 8.27012 | 96° | 4km/h | 28679m | -50.4m/s | -47.1°C | 0.5% | 15.5hPa | 2.5V | 18:12:15 | 02:15:41 | 00:00:00 | |
| HSKMA3-T | 2026-09-03 00:33:12 | 50.97752 | 8.27011 | 42° | 4km/h | 28729m | -48.6m/s | -47°C | 0.5% | 15.3hPa | 2.5V | 18:12:15 | 02:15:40 | 00:00:00 | |
| AA1-15 | 2026-09-03 00:33:11 | 50.97752 | 8.27011 | 14° | 2km/h | 28778m | -49m/s | -47.1°C | 0.5% | 15.2hPa | 2.6V | 18:12:15 | 02:15:39 | 00:00:00 | |
| DL1NUX | 2026-09-03 00:33:10 | 50.97747 | 8.27015 | 319° | 4km/h | 29078m | -51.2m/s | -45.1°C | 3.1% | 14.5hPa | 2.5V | 08:30:00 | 02:15:33 | 00:00:00 | |
| DL1XH-west | 2026-09-03 00:33:04 | 50.97746 | 8.27016 | 328° | 5km/h | 29129m | -53m/s | -44.9°C | 0.1% | 14.4hPa | 2.6V | 18:12:15 | 02:15:32 | 00:00:00 | |
| GOEST3-10 | 2026-09-03 00:33:04 | 50.97746 | 8.27016 | 329° | 5km/h | 29129m | -52.9m/s | -44.9°C | 3.0% | 14.4hPa | 2.5V | 00:00:00 | 02:15:32 | 00:00:00 | |
| DL1XH1-15 | 2026-09-03 00:33:03 | 50.97742 | 8.27019 | 319° | 5km/h | 29288m | -52m/s | -44.8°C | 3% | 14.1hPa | 2.5V | 08:30:00 | 02:15:29 | 00:00:00 | |
| BIOWL1-15 | 2026-09-03 00:33:02 | 50.97736 | 8.27021 | 349° | 7km/h | 29484m | -47.7m/s | -44.9°C | 0.2% | 13.7hPa | 2.6V | 18:12:15 | 02:15:25 | 00:00:00 | |
| HSKMA3-T | 2026-09-03 00:33:01 | 50.97742 | 8.27019 | 319° | 5km/h | 29289m | -52m/s | -44.8°C | 0.2% | 14.1hPa | 2.5V | 18:12:15 | 02:15:29 | 00:00:00 | |
| AA1-15 | 2026-09-03 00:33:00 | 50.97741 | 8.27020 | 339° | 7km/h | 29339m | -50.5m/s | -44.8°C | 0.2% | 14hPa | 2.5V | 18:12:15 | 02:15:28 | 00:00:00 | |
| DL1NUX | 2026-09-03 00:33:00 | 50.97732 | 8.27021 | 0° | 7km/h | 29579m | -46.2m/s | -44.7°C | 3.1% | 13.4hPa | 2.6V | 08:30:00 | 02:15:23 | 00:00:00 | |
| DO2JMG | 2026-09-03 00:32:58 | 50.97738 | 8.27021 | 358° | 9km/h | 29437m | -47.3m/s | -44.9°C | 0.2% | 13.7hPa | 2.5V | 18:12:15 | 02:15:26 | 00:00:00 | |
| DL3AQ-11 | 2026-09-03 00:32:58 | 50.97736 | 8.27021 | 349° | 7km/h | 29484m | -47.7m/s | -44.9°C | 0.8% | 13.7hPa | 2.6V | 00:00:00 | 00:00:00 | 00:00:00 | |
| DL4BBY-15 | 2026-09-03 00:32:57 | 50.97736 | 8.27021 | 350° | 11km/h | 29485m | -47.6m/s | -43.9°C | 0% | 0hPa | 2.6V | 00:00:00 | 00:00:00 | 00:00:00 | |
| DL1XH-15 | 2026-09-03 00:32:56 | 50.97724 | 8.27015 | 46° | 9km/h | 29757m | -29.5m/s | -44°C | 3% | 13hPa | 2.6V | 08:30:00 | 02:15:18 | 00:00:00 | |
| DL1XH-west | 2026-09-03 00:32:54 | 50.97730 | 8.27021 | 20° | 7km/h | 29622m | -40.9m/s | -44.5°C | 0.1% | 13.3hPa | 2.5V | 18:12:15 | 02:15:22 | 00:00:00 | |
| BIOWL9-15 | 2026-09-03 00:32:54 | 50.97729 | 8.27020 | 23° | 5km/h | 29662m | -37.2m/s | -44.4°C | 0.8% | 13.2hPa | 2.5V | 00:00:00 | 00:00:00 | 00:00:00 | |
| DL1XH1-15 | 2026-09-03 00:32:53 | 50.97725 | 8.27017 | 38° | 7km/h | 29728m | -29m/s | -44.2°C | 3% | 13.1hPa | 2.5V | 08:30:00 | 02:15:19 | 00:00:00 | |
| BIOWL1-15 | 2026-09-03 00:32:51 | 50.97725 | 8.27017 | 38° | 7km/h | 29728m | -29m/s | -44.2°C | 0.1% | 13.1hPa | 2.5V | 18:12:15 | 02:15:19 | 00:00:00 | |
| AA1-15 | 2026-09-03 00:32:51 | 50.97724 | 8.27015 | 46° | 9km/h | 29757m | -29.5m/s | -44°C | 0.1% | 13hPa | 2.6V | 18:12:15 | 02:15:18 | 00:00:00 | |
| DL1NUX | 2026-09-03 00:32:50 | 50.97718 | 8.26999 | 71° | 9km/h | 29915m | -27.1m/s | -43.3°C | 2.8% | 12.7hPa | 2.5V | 08:30:00 | 02:15:13 | 00:00:00 | |
| DO2JMG | 2026-09-03 00:32:47 | 50.97720 | 8.27005 | 54° | 11km/h | 29855m | -31.7m/s | -43.2°C | 0% | 12.8hPa | 2.5V | 18:12:15 | 02:15:15 | 00:00:00 | |
| DD8BA-10 | 2026-09-03 00:32:47 | 50.97720 | 8.27005 | 54° | 5km/h | 29855m | -31.7m/s | -43.2°C | 2.7% | 12.8hPa | 2.6V | 00:00:00 | 00:00:00 | 00:00:00 | |
| DO3MHA-11 | 2026-09-03 00:32:45 | 50.97718 | 8.26999 | 72° | 7km/h | 29916m | -27.0m/s | -43.2°C | 2.8% | 12.7hPa | 2.6V | 00:00:00 | 02:15:13 | 00:00:00 | |
| DM0DOS-11 | 2026-09-03 00:32:44 | 50.97718 | 8.26995 | 122° | 4km/h | 29972m | -27.9m/s | -43°C | 2.7% | 12.6hPa | 2.6V | 08:30:00 | 02:15:11 | 00:00:00 | |
| DL1XH-west | 2026-09-03 00:32:44 | 50.97718 | 8.26996 | 98° | 5km/h | 29943m | -29.1m/s | -43.2°C | 0% | 12.7hPa | 2.5V | 18:12:15 | 02:15:12 | 00:00:00 | |
| DB0UT-7 | 2026-09-03 00:32:44 | 50.97718 | 8.26996 | 99° | 11km/h | 29944m | -29.1m/s | -43.2°C | 2.8% | 12.6hPa | 2.5V | 00:00:00 | 00:00:00 | 08:30:00 | |
| DL1XH-15 | 2026-09-03 00:32:43 | 50.97721 | 8.26993 | 196° | 2km/h | 30058m | -28.5m/s | -42.9°C | 2.7% | 12.4hPa | 2.5V | 08:30:00 | 02:15:08 | 00:00:00 | |
| BIOWL1-15 | 2026-09-03 00:32:41 | 50.97720 | 8.26993 | 177° | 4km/h | 30030m | -28.2m/s | -42.8°C | 0% | 12.4hPa | 2.6V | 18:12:15 | 02:15:09 | 00:00:00 | |
| HSKMA3-T | 2026-09-03 00:32:40 | 50.97721 | 8.26993 | 197° | 2km/h | 30058m | -28.5m/s | -42.9°C | 0% | 12.4hPa | 2.5V | 18:12:15 | 02:15:08 | 00:00:00 | |
| AA1-15 | 2026-09-03 00:32:39 | 50.97721 | 8.26992 | 57° | 4km/h | 30111m | -27m/s | -42.9°C | 0% | 12.3hPa | 2.5V | 18:12:15 | 02:15:06 | 00:00:00 | |
| DO2JMG | 2026-09-03 00:32:37 | 50.97720 | 8.26991 | 47° | 7km/h | 30136m | -24.4m/s | -42.9°C | 0% | 12.2hPa | 2.5V | 18:12:15 | 02:15:05 | 00:00:00 | |
| DD8BA-10 | 2026-09-03 00:32:37 | 50.97720 | 8.26990 | 48° | 18km/h | 30137m | -24.4m/s | -42.9°C | 2.7% | 12.2hPa | 2.5V | 00:00:00 | 00:00:00 | 00:00:00 | |
| DL8DAS-15 | 2026-09-03 00:32:36 | 50.97720 | 8.26990 | 48° | 7km/h | 30137m | -24.4m/s | -42.9°C | 0.8% | 12.2hPa | 2.5V | 00:00:00 | 00:00:00 | 00:00:00 | |
| DO3MHA-11 | 2026-09-03 00:32:35 | 50.97716 | 8.26984 | 42° | 15km/h | 30181m | -22.4m/s | -42.8°C | 2.7% | 12.1hPa | 2.5V | 00:00:00 | 02:15:03 | 00:00:00 | |
| DM0DOS-11 | 2026-09-03 00:32:34 | 50.97708 | 8.26972 | 41° | 24km/h | 30218m | -16.9m/s | -42.8°C | 2.7% | 12.1hPa | 2.5V | 08:30:00 | 02:15:01 | 00:00:00 | |
| DL1XH-west | 2026-09-03 00:32:33 | 50.97708 | 8.26972 | 42° | 24km/h | 30218m | -16.9m/s | -42.8°C | 0% | 12.1hPa | 2.5V | 18:12:15 | 02:15:01 | 00:00:00 | |
| BIOWL1-15 | 2026-09-03 00:32:33 | 50.97699 | 8.26959 | 40° | 24km/h | 30253m | -16.8m/s | -42.8°C | 0% | 12hPa | 2.5V | 18:12:15 | 02:14:59 | 00:00:00 | |
| DL1XH-15 | 2026-09-03 00:32:32 | 50.97694 | 8.26953 | 42° | 22km/h | 30270m | -17.6m/s | -42.8°C | 2.7% | 12hPa | 2.5V | 08:30:00 | 02:14:58 | 00:00:00 | |
| HSKMA3-T | 2026-09-03 00:32:30 | 50.97694 | 8.26953 | 43° | 22km/h | 30271m | -17.6m/s | -42.8°C | 0% | 12hPa | 2.5V | 18:12:15 | 02:14:58 | 00:00:00 | |
| AA1-15 | 2026-09-03 00:32:28 | 50.97688 | 8.26944 | 47° | 13km/h | 30305m | -14.6m/s | -42.7°C | 0% | 11.9hPa | 2.6V | 18:12:15 | 02:14:56 | 00:00:00 | |
| DO2JMG | 2026-09-03 00:32:25 | 50.97685 | 8.26937 | 67° | 2km/h | 30345m | -18.4m/s | -42.6°C | 0% | 11.9hPa | 2.5V | 18:12:15 | 02:14:53 | 00:00:00 | |
| DM0DOS-11 | 2026-09-03 00:32:24 | 50.97684 | 8.26936 | 40° | 4km/h | 30389m | -22.9m/s | -42.5°C | 2.5% | 11.8hPa | 2.5V | 08:30:00 | 02:14:51 | 00:00:00 | |
| DL1XH-west | 2026-09-03 00:32:23 | 50.97684 | 8.26936 | 41° | 4km/h | 30389m | -22.9m/s | -42.5°C | 0% | 11.8hPa | 2.5V | 18:12:15 | 02:14:51 | 00:00:00 | |
| AU51GT2 | 2026-09-03 00:32:23 | 50.97683 | 8.26934 | 63° | 7km/h | 30412m | -21.9m/s | -42.4°C | 0.7% | 11.8hPa | 2.6V | 00:00:00 | 00:00:00 | 00:00:00 | |
| SO1NDE-10 | 2026-09-03 00:32:22 | 50.97683 | 8.26934 | 64° | 13km/h | 30412m | -21.9m/s | -42.4°C | 2.5% | 11.7hPa | 2.6V | 00:00:00 | 02:14:50 | 00:00:00 | |
| DJ2KF-10 | 2026-09-03 00:32:21 | 50.97682 | 8.26931 | 58° | 13km/h | 30433m | -19.8m/s | -42.4°C | 2.6% | 11.7hPa | 2.6V | 00:00:00 | 02:14:49 | 00:00:00 | |
| DL1NUX | 2026-09-03 00:32:20 | 50.97675 | 8.26911 | 65° | 15km/h | 30433m | 5.8m/s | -42.5°C | 2.6% | 11.7hPa | 2.6V | 08:30:00 | 02:14:43 | 00:00:00 | |
| HSKMA3-T | 2026-09-03 00:32:19 | 50.97680 | 8.26927 | 52° | 7km/h | 30455m | -1.5m/s | -42.5°C | 0% | 11.7hPa | 2.5V | 18:12:15 | 02:14:47 | 00:00:00 | |
| DB0NH | 2026-09-03 00:32:19 | 50.97680 | 8.26927 | 52° | 13km/h | 30455m | -1.5m/s | -42.5°C | 2.6% | 11.6hPa | 2.5V | 00:00:00 | 02:14:47 | 08:30:00 | |
| DM0DOS-11 | 2026-09-03 00:32:18 | 50.97672 | 8.26901 | 65° | 15km/h | 30422m | 4.9m/s | -42.6°C | 2.6% | 11.7hPa | 2.6V | 08:30:00 | 02:14:41 | 00:00:00 | |
| AA1-15 | 2026-09-03 00:32:16 | 50.97676 | 8.26917 | 68° | 15km/h | 30439m | 4.9m/s | -42.5°C | 0% | 11.7hPa | 2.5V | 18:12:15 | 02:14:44 | 00:00:00 | |
| DO2JMG | 2026-09-03 00:32:15 | 50.97675 | 8.26911 | 66° | 15km/h | 30433m | 5.8m/s | -42.6°C | 0% | 11.7hPa | 2.6V | 18:12:15 | 02:14:43 | 00:00:00 | |
| DO3MHA-11 | 2026-09-03 00:32:15 | 50.97675 | 8.26911 | 66° | 15km/h | 30434m | 5.7m/s | -42.5°C | 2.6% | 11.6hPa | 2.6V | 00:00:00 | 02:14:43 | 08:30:00 | |
| DB0UT-7 | 2026-09-03 00:32:14 | 50.97673 | 8.26906 | 64° | 13km/h | 30428m | 5.9m/s | -42.5°C | 2.6% | 11.6hPa | 2.5V | 00:00:00 | 02:14:42 | 00:00:00 | |
| DL1XH-15 | 2026-09-03 00:32:12 | 50.97670 | 8.26881 | 90° | 20km/h | 30406m | 6.1m/s | -42.6°C | 2.6% | 11.7hPa | 2.5V | 08:30:00 | 02:14:38 | 00:00:00 | |
| DL1XH-west | 2026-09-03 00:32:12 | 50.97671 | 8.26895 | 74° | 16km/h | 30417m | 4.7m/s | -42.6°C | 0% | 11.7hPa | 2.5V | 18:12:15 | 02:14:40 | 00:00:00 | |
| DJ2DS-15 | 2026-09-03 00:32:12 | 50.97671 | 8.26895 | 74° | 13km/h | 30418m | 4.7m/s | -42.6°C | 2.6% | 11.7hPa | 2.5V | 00:00:00 | 02:14:40 | 00:00:00 | |
| NBG1-10 | 2026-09-03 00:32:11 | 50.97670 | 8.26888 | 84° | 13km/h | 30412m | 5.6m/s | -42.6°C | 2.6% | 11.7hPa | 2.5V | 00:00:00 | 02:14:39 | 00:00:00 | |
| DL1NUX | 2026-09-03 00:32:10 | 50.97669 | 8.26850 | 44° | 7km/h | 30379m | 5.7m/s | -42.7°C | 2.7% | 11.8hPa | 2.5V | 08:30:00 | 02:14:33 | 00:00:00 | |
| HSKMA3-T | 2026-09-03 00:32:09 | 50.97670 | 8.26873 | 95° | 22km/h | 30400m | 4.9m/s | -42.7°C | 0% | 11.7hPa | 2.5V | 18:12:15 | 02:14:37 | 00:00:00 | |
| BIOWL1-15 | 2026-09-03 00:32:06 | 50.97670 | 8.26853 | 75° | 9km/h | 30385m | 6.2m/s | -42.7°C | 0% | 11.8hPa | 2.6V | 18:12:15 | 02:14:34 | 00:00:00 | |
| DL1XH1-15 | 2026-09-03 00:32:06 | 50.97665 | 8.26843 | 86° | 7km/h | 30357m | 5.2m/s | -42.8°C | 2.6% | 11.8hPa | 2.6V | 08:30:00 | 02:14:29 | 00:00:00 | |
| AA1-15 | 2026-09-03 00:32:05 | 50.97669 | 8.26850 | 44° | 7km/h | 30379m | 5.7m/s | -42.7°C | 0% | 11.8hPa | 2.5V | 18:12:15 | 02:14:33 | 00:00:00 | |
| DO2JMG | 2026-09-03 00:32:04 | 50.97668 | 8.26849 | 29° | 7km/h | 30374m | 5m/s | -42.8°C | 0% | 11.8hPa | 2.5V | 18:12:15 | 02:14:32 | 00:00:00 | |
| DL1XH-west | 2026-09-03 00:32:02 | 50.97666 | 8.26845 | 67° | 7km/h | 30363m | 5.9m/s | -42.8°C | 0% | 11.8hPa | 2.5V | 18:12:15 | 02:14:30 | 00:00:00 | |
| DL3AQ-11 | 2026-09-03 00:32:02 | 50.97665 | 8.26843 | 86° | 7km/h | 30357m | 5.2m/s | -42.8°C | 0.7% | 11.8hPa | 2.5V | 00:00:00 | 00:00:00 | 00:00:00 | |
| DL1NUX | 2026-09-03 00:32:00 | 50.97662 | 8.26819 | 74° | 15km/h | 30326m | 6.1m/s | -42.8°C | 2.6% | 11.8hPa | 2.5V | 08:30:00 | 02:14:23 | 00:00:00 | |
| HSKMA3-T | 2026-09-03 00:31:58 | 50.97665 | 8.26832 | 75° | 9km/h | 30341m | 5.8m/s | -42.8°C | 0% | 11.8hPa | 2.5V | 18:12:15 | 02:14:26 | 00:00:00 | |
| BIOWL1-15 | 2026-09-03 00:31:56 | 50.97663 | 8.26825 | 69° | 13km/h | 30331m | 4.6m/s | -42.8°C | 0% | 11.9hPa | 2.5V | 18:12:15 | 02:14:24 | 00:00:00 | |
| DL1XH1-15 | 2026-09-03 00:31:55 | 50.97656 | 8.26795 | 46° | 15km/h | 30304m | 6m/s | -42.9°C | 2.7% | 11.9hPa | 2.5V | 08:30:00 | 02:14:19 | 00:00:00 | |
| AA1-15 | 2026-09-03 00:31:55 | 50.97662 | 8.26819 | 74° | 15km/h | 30326m | 6.1m/s | -42.8°C | 0% | 11.9hPa | 2.5V | 18:12:15 | 02:14:23 | 00:00:00 | |
| DL8DAS-14 | 2026-09-03 00:31:55 | 50.97661 | 8.26813 | 75° | 16km/h | 30320m | 5.9m/s | -42.8°C | 0.7% | 11.9hPa | 2.6V | 00:00:00 | 00:00:00 | 00:00:00 | |
| DM0DOS-11 | 2026-09-03 00:31:54 | 50.97660 | 8.26806 | 73° | 18km/h | 30314m | 4.8m/s | -42.9°C | 2.7% | 11.9hPa | 2.6V | 08:30:00 | 02:14:21 | 00:00:00 | |
| DO2JMG | 2026-09-03 00:31:53 | 50.97660 | 8.26806 | 73° | 18km/h | 30314m | 4.8m/s | -42.9°C | 0% | 11.9hPa | 2.6V | 18:12:15 | 02:14:21 | 00:00:00 | |
| DL1XH-15 | 2026-09-03 00:31:52 | 50.97653 | 8.26791 | 22° | 13km/h | 30298m | 6.2m/s | -42.9°C | 2.7% | 11.9hPa | 2.5V | 08:30:00 | 02:14:18 | 00:00:00 | |
| DL1XH-west | 2026-09-03 00:31:51 | 50.97656 | 8.26795 | 47° | 15km/h | 30304m | 6m/s | -42.9°C | 0% | 11.9hPa | 2.5V | 18:12:15 | 02:14:19 | 00:00:00 | |
| BIOWL9-15 | 2026-09-03 00:31:51 | 50.97656 | 8.26795 | 46° | 13km/h | 30305m | 6.0m/s | -42.9°C | 0.7% | 11.9hPa | 2.5V | 00:00:00 | 00:00:00 | 00:00:00 | |
| HARRO8 | 2026-09-03 00:31:50 | 50.97653 | 8.26791 | 22° | 13km/h | 30299m | 6.3m/s | -42.9°C | 0.7% | 11.9hPa | 2.5V | 00:00:00 | 00:00:00 | 00:00:00 | |
| DB0NH | 2026-09-03 00:31:49 | 50.97650 | 8.26790 | 4° | 11km/h | 30293m | 5.2m/s | -42.9°C | 2.7% | 11.9hPa | 2.5V | 00:00:00 | 02:14:17 | 00:00:00 | |
| DM0DOS-11 | 2026-09-03 00:31:48 | 50.97643 | 8.26767 | 84° | 16km/h | 30257m | 5.2m/s | -42.9°C | 2.7% | 12hPa | 2.5V | 08:30:00 | 02:14:10 | 00:00:00 | |
| HSKMA3-T | 2026-09-03 00:31:47 | 50.97645 | 8.26790 | 12° | 7km/h | 30283m | 5.1m/s | -42.9°C | 0% | 12hPa | 2.6V | 18:12:15 | 02:14:15 | 00:00:00 | |
| BIOWL1-15 | 2026-09-03 00:31:46 | 50.97643 | 8.26789 | 55° | 7km/h | 30277m | 6.2m/s | -42.9°C | 0% | 12hPa | 2.6V | 18:12:15 | 02:14:14 | 00:00:00 | |
| DL1XH1-15 | 2026-09-03 00:31:45 | 50.97643 | 8.26761 | 66° | 15km/h | 30251m | 5.8m/s | -43°C | 2.7% | 12hPa | 2.5V | 08:30:00 | 02:14:09 | 00:00:00 | |
| DO3DL | 2026-09-03 00:31:45 | 50.97642 | 8.26785 | 90° | 11km/h | 30272m | 5.6m/s | -42.9°C | 0.7% | 12.0hPa | 2.6V | 00:00:00 | 00:00:00 | 00:00:00 | |
| AA1-15 | 2026-09-03 00:31:45 | 50.97643 | 8.26780 | 97° | 16km/h | 30266m | 4.7m/s | -42.9°C | 0% | 12hPa | 2.5V | 18:12:15 | 02:14:12 | 00:00:00 | |
| DB0UT-7 | 2026-09-03 00:31:44 | 50.97643 | 8.26780 | 98° | 9km/h | 30267m | 4.6m/s | -42.9°C | 2.7% | 11.9hPa | 2.6V | 00:00:00 | 00:00:00 | 00:00:00 | |
| DL1XH-15 | 2026-09-03 00:31:43 | 50.97640 | 8.26756 | 39° | 13km/h | 30246m | 5.5m/s | -43°C | 2.7% | 12hPa | 2.6V | 08:30:00 | 02:14:08 | 00:00:00 | |
| DO2JMG | 2026-09-03 00:31:42 | 50.97643 | 8.26767 | 85° | 16km/h | 30257m | 5.2m/s | -42.9°C | 0% | 12hPa | 2.5V | 18:12:15 | 02:14:10 | 00:00:00 | |
| DL1XH-west | 2026-09-03 00:31:40 | 50.97640 | 8.26757 | 39° | 13km/h | 30246m | 5.5m/s | -43°C | 0% | 12hPa | 2.6V | 18:12:15 | 02:14:08 | 00:00:00 | |
| DL1NUX | 2026-09-03 00:31:40 | 50.97626 | 8.26747 | 60° | 7km/h | 30219m | 5.6m/s | -43°C | 2.7% | 12.1hPa | 2.5V | 08:30:00 | 02:14:03 | 00:00:00 | |
| HSKMA3-T | 2026-09-03 00:31:36 | 50.97628 | 8.26750 | 28° | 9km/h | 30225m | 5.9m/s | -43°C | 0% | 12.1hPa | 2.5V | 18:12:15 | 02:14:04 | 00:00:00 | |
| DD1CC8 | 2026-09-03 00:31:36 | 50.97627 | 8.26747 | 60° | 7km/h | 30220m | 5.6m/s | -43.0°C | 0.7% | 12.1hPa | 2.6V | 00:00:00 | 00:00:00 | 00:00:00 | |
| DL1XH1-15 | 2026-09-03 00:31:35 | 50.97625 | 8.26733 | 60° | 9km/h | 30198m | 5.8m/s | -43.2°C | 2.7% | 12.1hPa | 2.6V | 08:30:00 | 02:13:59 | 00:00:00 | |
| AA1-15 | 2026-09-03 00:31:34 | 50.97626 | 8.26740 | 86° | 9km/h | 30209m | 5m/s | -43.1°C | 0% | 12.1hPa | 2.6V | 18:12:15 | 02:14:01 | 00:00:00 | |
| GOEST3-10 | 2026-09-03 00:31:33 | 50.97626 | 8.26740 | 87° | 9km/h | 30209m | 5.0m/s | -43.1°C | 2.7% | 12.1hPa | 2.5V | 00:00:00 | 02:14:01 | 00:00:00 | |
| DL1XH-15 | 2026-09-03 00:31:32 | 50.97623 | 8.26730 | 50° | 11km/h | 30192m | 5m/s | -43.2°C | 2.8% | 12.1hPa | 2.5V | 08:30:00 | 02:13:58 | 00:00:00 | |
| DJ2DS-15 | 2026-09-03 00:31:32 | 50.97625 | 8.26736 | 76° | 7km/h | 30204m | 5.6m/s | -43.1°C | 2.7% | 12.0hPa | 2.6V | 00:00:00 | 02:14:00 | 00:00:00 | |
| DO2JMG | 2026-09-03 00:31:32 | 50.97625 | 8.26737 | 76° | 9km/h | 30204m | 5.7m/s | -43.1°C | 0% | 12.1hPa | 2.6V | 18:12:15 | 02:14:00 | 00:00:00 | |
| DL1NUX | 2026-09-03 00:31:31 | 50.97620 | 8.26715 | 89° | 5km/h | 30166m | 4.5m/s | -43.2°C | 2.8% | 12.2hPa | 2.6V | 08:30:00 | 02:13:53 | 00:00:00 | |
| DL1XH-west | 2026-09-03 00:31:29 | 50.97622 | 8.26727 | 52° | 9km/h | 30187m | 4.7m/s | -43.2°C | 0% | 12.1hPa | 2.5V | 18:12:15 | 02:13:57 | 00:00:00 | |
| HSKMA3-T | 2026-09-03 00:31:26 | 50.97620 | 8.26717 | 94° | 7km/h | 30171m | 4.9m/s | -43.2°C | 0% | 12.2hPa | 2.6V | 18:12:15 | 02:13:54 | 00:00:00 | |
| DD8BA-10 | 2026-09-03 00:31:26 | 50.97619 | 8.26717 | 94° | 7km/h | 30171m | 4.9m/s | -43.2°C | 2.7% | 12.1hPa | 2.6V | 00:00:00 | 00:00:00 | 08:30:00 | |
| DL1XH-15 | 2026-09-03 00:31:25 | 50.97614 | 8.26710 | 43° | 5km/h | 30140m | 5.3m/s | -43.1°C | 2.7% | 12.2hPa | 2.5V | 08:30:00 | 02:13:48 | 00:00:00 | |
| DL1XH1-15 | 2026-09-03 00:31:25 | 50.97615 | 8.26711 | 13° | 7km/h | 30144m | 4.6m/s | -43.1°C | 2.7% | 12.2hPa | 2.5V | 08:30:00 | 02:13:49 | 00:00:00 | |
| BIOWL1-15 | 2026-09-03 00:31:25 | 50.97615 | 8.26701 | 115° | 11km/h | 30123m | 4.5m/s | -43.1°C | 0% | 12.3hPa | 2.6V | 18:12:15 | 02:13:45 | 00:00:00 | |
| DM0DOS-11 | 2026-09-03 00:31:25 | 50.97618 | 8.26712 | 20° | 5km/h | 30155m | 6.2m/s | -43.2°C | 2.7% | 12.2hPa | 2.5V | 08:30:00 | 02:13:51 | 00:00:00 | |
| AA1-15 | 2026-09-03 00:31:23 | 50.97618 | 8.26712 | 20° | 5km/h | 30155m | 6.2m/s | -43.2°C | 0% | 12.2hPa | 2.5V | 18:12:15 | 02:13:51 | 00:00:00 | |
| DO2JMG | 2026-09-03 00:31:21 | 50.97615 | 8.26711 | 13° | 7km/h | 30144m | 4.6m/s | -43.2°C | 0% | 12.2hPa | 2.5V | 18:12:15 | 02:13:49 | 00:00:00 | |
| DJ2KF-10 | 2026-09-03 00:31:21 | 50.97615 | 8.26710 | 14° | 7km/h | 30145m | 4.6m/s | -43.1°C | 2.7% | 12.1hPa | 2.5V | 00:00:00 | 02:13:49 | 08:30:00 | |
| DL1NUX | 2026-09-03 00:31:20 | 50.97616 | 8.26694 | 80° | 7km/h | 30113m | 6.2m/s | -43.1°C | 2.7% | 12.2hPa | 2.5V | 08:30:00 | 02:13:43 | 00:00:00 | |
| DL1XH-west | 2026-09-03 00:31:19 | 50.97614 | 8.26705 | 114° | 9km/h | 30128m | 5.3m/s | -43.1°C | 0% | 12.2hPa | 2.6V | 18:12:15 | 02:13:46 | 00:00:00 | |
| HSKMA3-T | 2026-09-03 00:31:16 | 50.97616 | 8.26697 | 105° | 9km/h | 30119m | 4.7m/s | -43.1°C | 0% | 12.3hPa | 2.5V | 18:12:15 | 02:13:44 | 00:00:00 | |
| AA1-15 | 2026-09-03 00:31:13 | 50.97613 | 8.26689 | 23° | 11km/h | 30102m | 4.9m/s | -43.2°C | 0% | 12.3hPa | 2.5V | 18:12:15 | 02:13:41 | 00:00:00 | |
| DL1XH-15 | 2026-09-03 00:31:12 | 50.97606 | 8.26683 | 51° | 7km/h | 30087m | 6m/s | -43.2°C | 2.7% | 12.3hPa | 2.6V | 08:30:00 | 02:13:38 | 00:00:00 | |
| DO2JMG | 2026-09-03 00:31:10 | 50.97606 | 8.26683 | 52° | 7km/h | 30087m | 6m/s | -43.2°C | 0% | 12.3hPa | 2.6V | 18:12:15 | 02:13:38 | 00:00:00 | |
| DL1XH-west | 2026-09-03 00:31:09 | 50.97605 | 8.26678 | 87° | 7km/h | 30076m | 5.1m/s | -43.2°C | 0% | 12.3hPa | 2.5V | 18:12:15 | 02:13:36 | 00:00:00 | |
| HSKMA3-T | 2026-09-03 00:31:06 | 50.97605 | 8.26672 | 69° | 7km/h | 30064m | 5.9m/s | -43.2°C | 0% | 12.3hPa | 2.5V | 18:12:15 | 02:13:34 | 00:00:00 | |
| SONCRA | 2026-09-03 00:31:06 | 50.97604 | 8.26669 | 61° | 5km/h | 30059m | 4.8m/s | -43.2°C | 0.7% | 12.4hPa | 2.5V | 00:00:00 | 00:00:00 | 00:00:00 | |
| DL1XH-15 | 2026-09-03 00:31:05 | 50.97604 | 8.26657 | 88° | 5km/h | 30033m | 4.6m/s | -43.4°C | 2.7% | 12.4hPa | 2.5V | 08:30:00 | 02:13:28 | 00:00:00 | |
| AA1-15 | 2026-09-03 00:31:02 | 50.97603 | 8.26662 | 103° | 7km/h | 30044m | 5.8m/s | -43.3°C | 0% | 12.4hPa | 2.5V | 18:12:15 | 02:13:30 | 00:00:00 | |
| DO2JMG | 2026-09-03 00:31:00 | 50.97604 | 8.26657 | 88° | 5km/h | 30034m | 4.6m/s | -43.4°C | 0% | 12.4hPa | 2.5V | 18:12:15 | 02:13:28 | 00:00:00 | |
| DL1XH-west | 2026-09-03 00:30:58 | 50.97599 | 8.26654 | 352° | 11km/h | 30017m | 5.2m/s | -43.4°C | 0% | 12.4hPa | 2.6V | 18:12:15 | 02:13:25 | 00:00:00 | |
| HSKMA3-T | 2026-09-03 00:30:55 | 50.97594 | 8.26655 | 359° | 9km/h | 30008m | 4.5m/s | -43.4°C | 0% | 12.5hPa | 2.5V | 18:12:15 | 02:13:23 | 00:00:00 | |
| DM0DOS-11 | 2026-09-03 00:30:54 | 50.97592 | 8.26653 | 111° | 5km/h | 29996m | 5.9m/s | -43.5°C | 2.7% | 12.5hPa | 2.5V | 08:30:00 | 02:13:21 | 00:00:00 | |
| DL1XH1-15 | 2026-09-03 00:30:53 | 50.97595 | 8.26649 | 148° | 11km/h | 29986m | 4.8m/s | -43.6°C | 2.7% | 12.5hPa | 2.6V | 08:30:00 | 02:13:19 | 00:00:00 | |
| AA1-15 | 2026-09-03 00:30:51 | 50.97595 | 8.26649 | 149° | 11km/h | 29986m | 4.8m/s | -43.6°C | 0% | 12.5hPa | 2.6V | 18:12:15 | 02:13:19 | 00:00:00 | |
| DJ2KF-10 | 2026-09-03 00:30:51 | 50.97595 | 8.26649 | 149° | 9km/h | 29986m | 4.8m/s | -43.6°C | 2.7% | 12.4hPa | 2.6V | 00:00:00 | 02:13:19 | 00:00:00 | |
| DL1NUX | 2026-09-03 00:30:50 | 50.97604 | 8.26652 | 193° | 4km/h | 29954m | 5.9m/s | -43.8°C | 2.8% | 12.6hPa | 2.6V | 08:30:00 | 02:13:13 | 00:00:00 | |
| DO2JMG | 2026-09-03 00:30:49 | 50.97599 | 8.26647 | 185° | 7km/h | 29975m | 5.5m/s | -43.7°C | 0% | 12.5hPa | 2.5V | 18:12:15 | 02:13:17 | 00:00:00 | |
| DB0NH | 2026-09-03 00:30:49 | 50.97599 | 8.26647 | 186° | 9km/h | 29975m | 5.4m/s | -43.7°C | 2.7% | 12.5hPa | 2.5V | 00:00:00 | 02:13:17 | 00:00:00 | |
| DM0DOS-11 | 2026-09-03 00:30:48 | 50.97605 | 8.26650 | 81° | 4km/h | 29944m | 4.6m/s | -43.8°C | 2.8% | 12.6hPa | 2.5V | 08:30:00 | 02:13:11 | 00:00:00 | |
| DL1XH-west | 2026-09-03 00:30:47 | 50.97601 | 8.26649 | 228° | 5km/h | 29965m | 4.5m/s | -43.8°C | 0% | 12.6hPa | 2.5V | 18:12:15 | 02:13:15 | 00:00:00 | |
| DL4XJ-10 | 2026-09-03 00:30:47 | 50.97601 | 8.26649 | 228° | 9km/h | 29965m | 4.4m/s | -42.7°C | 0% | 0hPa | 2.6V | 00:00:00 | 00:00:00 | 00:00:00 | |
| DD8BA-10 | 2026-09-03 00:30:46 | 50.97603 | 8.26651 | 222° | 11km/h | 29961m | 5.6m/s | -43.7°C | 2.7% | 12.5hPa | 2.6V | 00:00:00 | 00:00:00 | 00:00:00 | |
| DL1XH-15 | 2026-09-03 00:30:45 | 50.97596 | 8.26640 | 30° | 16km/h | 29923m | 4.4m/s | -43.7°C | 2.7% | 12.6hPa | 2.6V | 08:30:00 | 02:13:07 | 00:00:00 | |
| DL1XH1-15 | 2026-09-03 00:30:45 | 50.97602 | 8.26646 | 31° | 11km/h | 29933m | 6.3m/s | -43.7°C | 2.7% | 12.6hPa | 2.5V | 08:30:00 | 02:13:09 | 00:00:00 | |
| HSKMA3-T | 2026-09-03 00:30:45 | 50.97604 | 8.26652 | 193° | 4km/h | 29955m | 5.9m/s | -43.8°C | 0% | 12.6hPa | 2.6V | 18:12:15 | 02:13:13 | 00:00:00 | |
| BIOWL1-15 | 2026-09-03 00:30:44 | 50.97592 | 8.26636 | 42° | 16km/h | 29918m | 4.8m/s | -43.7°C | 0% | 12.6hPa | 2.6V | 18:12:15 | 02:13:06 | 00:00:00 | |
| AA1-15 | 2026-09-03 00:30:41 | 50.97602 | 8.26646 | 31° | 11km/h | 29933m | 6.3m/s | -43.7°C | 0% | 12.6hPa | 2.5V | 18:12:15 | 02:13:09 | 00:00:00 | |
| DO2JMG | 2026-09-03 00:30:40 | 50.97596 | 8.26640 | 30° | 16km/h | 29923m | 4.4m/s | -43.7°C | 0% | 12.6hPa | 2.6V | 18:12:15 | 02:13:07 | 00:00:00 | |
| DL1XH-west | 2026-09-03 00:30:36 | 50.97588 | 8.26625 | 79° | 16km/h | 29907m | 5.7m/s | -43.6°C | 0% | 12.6hPa | 2.5V | 18:12:15 | 02:13:04 | 00:00:00 | |
| HSKMA3-T | 2026-09-03 00:30:34 | 50.97588 | 8.26613 | 97° | 13km/h | 29896m | 4.9m/s | -43.6°C | 0% | 12.7hPa | 2.5V | 18:12:15 | 02:13:02 | 00:00:00 | |
| DD1CC8 | 2026-09-03 00:30:34 | 50.97588 | 8.26608 | 92° | 9km/h | 29891m | 5.7m/s | -43.6°C | 0.7% | 12.7hPa | 2.6V | 00:00:00 | 00:00:00 | 00:00:00 | |
| DL1XH1-15 | 2026-09-03 00:30:33 | 50.97588 | 8.26603 | 45° | 5km/h | 29880m | 4.6m/s | -43.7°C | 2.7% | 12.7hPa | 2.6V | 08:30:00 | 02:12:59 | 00:00:00 | |
| AA1-15 | 2026-09-03 00:30:31 | 50.97587 | 8.26602 | 38° | 5km/h | 29876m | 5.3m/s | -43.8°C | 0% | 12.7hPa | 2.6V | 18:12:15 | 02:12:58 | 00:00:00 | |
| DO2JMG | 2026-09-03 00:30:28 | 50.97585 | 8.26599 | 59° | 5km/h | 29864m | 5.4m/s | -43.9°C | 0% | 12.7hPa | 2.5V | 18:12:15 | 02:12:56 | 00:00:00 | |
| DL1XH-west | 2026-09-03 00:30:26 | 50.97583 | 8.26594 | 48° | 7km/h | 29854m | 4.7m/s | -44°C | 0% | 12.8hPa | 2.5V | 18:12:15 | 02:12:54 | 00:00:00 | |
| HSKMA3-T | 2026-09-03 00:30:23 | 50.97577 | 8.26593 | 348° | 11km/h | 29838m | 5.3m/s | -44.3°C | 0% | 12.8hPa | 2.6V | 18:12:15 | 02:12:51 | 00:00:00 | |
| DL1XH1-15 | 2026-09-03 00:30:23 | 50.97573 | 8.26593 | 10° | 7km/h | 29828m | 5m/s | -44.4°C | 2.8% | 12.8hPa | 2.5V | 08:30:00 | 02:12:49 | 00:00:00 | |
| AA1-15 | 2026-09-03 00:30:21 | 50.97570 | 8.26589 | 79° | 11km/h | 29817m | 5.4m/s | -44.5°C | 0% | 12.8hPa | 2.5V | 18:12:15 | 02:12:47 | 00:00:00 | |
| DJ8HS-15 | 2026-09-03 00:30:20 | 50.97570 | 8.26589 | 80° | 7km/h | 29817m | 5.3m/s | -44.4°C | 2.8% | 12.8hPa | 2.5V | 00:00:00 | 02:12:47 | 00:00:00 | |
| DB0NH | 2026-09-03 00:30:19 | 50.97570 | 8.26589 | 80° | 11km/h | 29817m | 5.3m/s | -44.4°C | 2.8% | 12.8hPa | 2.5V | 00:00:00 | 02:12:47 | 00:00:00 | |
| DM0DOS-11 | 2026-09-03 00:30:18 | 50.97563 | 8.26568 | 37° | 9km/h | 29786m | 4.8m/s | -44.7°C | 2.9% | 12.9hPa | 2.5V | 08:30:00 | 02:12:41 | 00:00:00 | |
| DO2JMG | 2026-09-03 00:30:17 | 50.97569 | 8.26580 | 78° | 11km/h | 29807m | 5.7m/s | -44.6°C | 0% | 12.9hPa | 2.6V | 18:12:15 | 02:12:45 | 00:00:00 | |
| DL1XH-west | 2026-09-03 00:30:16 | 50.97565 | 8.26570 | 35° | 9km/h | 29791m | 4.7m/s | -44.7°C | 0% | 12.9hPa | 2.5V | 18:12:15 | 02:12:42 | 00:00:00 | |
| HSKMA3-T | 2026-09-03 00:30:13 | 50.97563 | 8.26568 | 37° | 9km/h | 29786m | 4.8m/s | -44.7°C | 0% | 12.9hPa | 2.5V | 18:12:15 | 02:12:41 | 00:00:00 | |
| DL1XH1-15 | 2026-09-03 00:30:13 | 50.97561 | 8.26563 | 75° | 7km/h | 29774m | 5.6m/s | -44.7°C | 2.8% | 12.9hPa | 2.6V | 08:30:00 | 02:12:39 | 00:00:00 | |
| DL1XH-15 | 2026-09-03 00:30:12 | 50.97561 | 8.26560 | 101° | 5km/h | 29770m | 4.6m/s | -44.7°C | 2.9% | 12.9hPa | 2.6V | 08:30:00 | 02:12:38 | 00:00:00 | |
| AA1-15 | 2026-09-03 00:30:09 | 50.97561 | 8.26559 | 119° | 2km/h | 29765m | 4.5m/s | -44.7°C | 0.1% | 12.9hPa | 2.6V | 18:12:15 | 02:12:37 | 00:00:00 | |
| DO3DL | 2026-09-03 00:30:08 | 50.97561 | 8.26559 | 120° | 2km/h | 29765m | 4.5m/s | -44.7°C | 0.8% | 12.9hPa | 2.6V | 00:00:00 | 00:00:00 | 00:00:00 | |
| DM0DOS-11 | 2026-09-03 00:30:07 | 50.97560 | 8.26569 | 137° | 2km/h | 29734m | 5.8m/s | -44.8°C | 2.8% | 13hPa | 2.6V | 08:30:00 | 02:12:31 | 00:00:00 | |
| DL1NUX | 2026-09-03 00:30:07 | 50.97560 | 8.26566 | 283° | 7km/h | 29744m | 4.2m/s | -44.8°C | 2.9% | 13hPa | 2.5V | 08:30:00 | 02:12:33 | 00:00:00 | |
| DO2JMG | 2026-09-03 00:30:07 | 50.97561 | 8.26560 | 283° | 5km/h | 29754m | 6.1m/s | -44.8°C | 0% | 12.9hPa | 2.5V | 18:12:15 | 02:12:35 | 00:00:00 | |
| BIOWL1-15 | 2026-09-03 00:30:05 | 50.97560 | 8.26569 | 138° | 2km/h | 29734m | 5.8m/s | -44.8°C | 0% | 13hPa | 2.6V | 18:12:15 | 02:12:31 | 00:00:00 | |
| DL1XH-15 | 2026-09-03 00:30:05 | 50.97559 | 8.26558 | 67° | 16km/h | 29718m | 5.6m/s | -44.9°C | 2.8% | 13hPa | 2.5V | 08:30:00 | 02:12:28 | 00:00:00 | |
| DL1XH-west | 2026-09-03 00:30:04 | 50.97560 | 8.26568 | 275° | 5km/h | 29739m | 5.4m/s | -44.8°C | 0% | 13hPa | 2.6V | 18:12:15 | 02:12:32 | 00:00:00 | |
| SONCRA | 2026-09-03 00:30:04 | 50.97560 | 8.26569 | 137° | 0km/h | 29734m | 5.8m/s | -44.8°C | 0.8% | 13.0hPa | 2.5V | 00:00:00 | 00:00:00 | 00:00:00 | |
| DL1XH1-15 | 2026-09-03 00:30:03 | 50.97560 | 8.26563 | 80° | 13km/h | 29723m | 4.9m/s | -44.8°C | 2.9% | 13hPa | 2.5V | 08:30:00 | 02:12:29 | 00:00:00 | |
| HSKMA3-T | 2026-09-03 00:30:02 | 50.97560 | 8.26567 | 95° | 7km/h | 29728m | 5.3m/s | -44.8°C | 0% | 13hPa | 2.6V | 18:12:15 | 02:12:30 | 00:00:00 | |
| AA1-15 | 2026-09-03 00:29:59 | 50.97556 | 8.26551 | 56° | 20km/h | 29712m | 6.5m/s | -44.9°C | 0% | 13hPa | 2.5V | 18:12:15 | 02:12:27 | 00:00:00 | |
| DO2JMG | 2026-09-03 00:29:56 | 50.97545 | 8.26534 | 42° | 20km/h | 29695m | 5.4m/s | -44.9°C | 0% | 13.1hPa | 2.6V | 18:12:15 | 02:12:24 | 00:00:00 | |
| DD8BA-10 | 2026-09-03 00:29:56 | 50.97545 | 8.26534 | 43° | 11km/h | 29696m | 5.4m/s | -44.9°C | 2.8% | 13.0hPa | 2.6V | 00:00:00 | 00:00:00 | 08:30:00 | |
| GOEST3-10 | 2026-09-03 00:29:55 | 50.97542 | 8.26529 | 45° | 11km/h | 29690m | 5.8m/s | -44.9°C | 2.9% | 13.0hPa | 2.5V | 00:00:00 | 00:00:00 | 00:00:00 | |
| DM0DOS-11 | 2026-09-03 00:29:54 | 50.97538 | 8.26523 | 25° | 7km/h | 29679m | 4.8m/s | -45°C | 2.9% | 13.1hPa | 2.5V | 08:30:00 | 02:12:21 | 00:00:00 | |
| DL1XH-west | 2026-09-03 00:29:53 | 50.97538 | 8.26523 | 25° | 7km/h | 29679m | 4.9m/s | -45°C | 0% | 13.1hPa | 2.5V | 18:12:15 | 02:12:21 | 00:00:00 | |
| DL1XH1-15 | 2026-09-03 00:29:53 | 50.97534 | 8.26523 | 337° | 11km/h | 29668m | 6m/s | -45.1°C | 2.9% | 13.1hPa | 2.6V | 08:30:00 | 02:12:19 | 00:00:00 | |
| BIOWL1-15 | 2026-09-03 00:29:52 | 50.97536 | 8.26522 | 355° | 7km/h | 29674m | 6.1m/s | -45.1°C | 0% | 13.1hPa | 2.5V | 18:12:15 | 02:12:20 | 00:00:00 | |
| DL1XH-15 | 2026-09-03 00:29:52 | 50.97531 | 8.26525 | 336° | 11km/h | 29663m | 4.9m/s | -45.1°C | 2.9% | 13.2hPa | 2.6V | 08:30:00 | 02:12:18 | 00:00:00 | |
| HSKMA3-T | 2026-09-03 00:29:51 | 50.97534 | 8.26523 | 337° | 11km/h | 29668m | 6m/s | -45.1°C | 0% | 13.1hPa | 2.6V | 18:12:15 | 02:12:19 | 00:00:00 | |
| DL8DAS-14 | 2026-09-03 00:29:51 | 50.97531 | 8.26525 | 336° | 11km/h | 29663m | 4.9m/s | -45.1°C | 0.8% | 13.2hPa | 2.6V | 00:00:00 | 00:00:00 | 00:00:00 | |
| DL1NUX | 2026-09-03 00:29:50 | 50.97522 | 8.26517 | 58° | 13km/h | 29636m | 4.7m/s | -45.3°C | 2.9% | 13.2hPa | 2.6V | 08:30:00 | 02:12:13 | 00:00:00 | |
| AA1-15 | 2026-09-03 00:29:48 | 50.97526 | 8.26526 | 11° | 9km/h | 29652m | 6m/s | -45.2°C | 0% | 13.2hPa | 2.5V | 18:12:15 | 02:12:16 | 00:00:00 | |
| DO2JMG | 2026-09-03 00:29:46 | 50.97523 | 8.26522 | 63° | 11km/h | 29641m | 5m/s | -45.3°C | 0% | 13.2hPa | 2.5V | 18:12:15 | 02:12:14 | 00:00:00 | |
| HARRO8 | 2026-09-03 00:29:46 | 50.97522 | 8.26518 | 58° | 11km/h | 29636m | 4.7m/s | -45.3°C | 0.8% | 13.2hPa | 2.5V | 00:00:00 | 00:00:00 | 00:00:00 | |
| DL1XH-15 | 2026-09-03 00:29:45 | 50.97505 | 8.26511 | 346° | 16km/h | 29609m | 5.6m/s | -45.7°C | 3% | 13.2hPa | 2.5V | 08:30:00 | 02:12:08 | 00:00:00 | |
| BIOWL1-15 | 2026-09-03 00:29:43 | 50.97501 | 8.26512 | 343° | 13km/h | 29603m | 6.3m/s | -45.8°C | 0.2% | 13.3hPa | 2.5V | 18:12:15 | 02:12:07 | 00:00:00 | |
| DL1XH-west | 2026-09-03 00:29:43 | 50.97517 | 8.26511 | 23° | 15km/h | 29625m | 6.2m/s | -45.5°C | 0.1% | 13.2hPa | 2.6V | 18:12:15 | 02:12:11 | 00:00:00 | |
| HSKMA3-T | 2026-09-03 00:29:40 | 50.97505 | 8.26511 | 347° | 16km/h | 29609m | 5.6m/s | -45.7°C | 0.1% | 13.2hPa | 2.5V | 18:12:15 | 02:12:08 | 00:00:00 | |
| AA1-15 | 2026-09-03 00:29:38 | 50.97499 | 8.26514 | 338° | 9km/h | 29597m | 5.3m/s | -45.8°C | 0.1% | 13.3hPa | 2.6V | 18:12:15 | 02:12:06 | 00:00:00 | |
| DO2JMG | 2026-09-03 00:29:36 | 50.97495 | 8.26517 | 329° | 9km/h | 29587m | 5m/s | -45.8°C | 0.1% | 13.3hPa | 2.6V | 18:12:15 | 02:12:04 | 00:00:00 | |
| EDDB2-11 | 2026-09-03 00:29:36 | 50.97493 | 8.26519 | 329° | 11km/h | 29581m | 6.3m/s | -45.8°C | 0.8% | 13.3hPa | 2.6V | 00:00:00 | 00:00:00 | 00:00:00 | |
| WPPR-10 | 2026-09-03 00:29:35 | 50.97490 | 8.26522 | 332° | 13km/h | 29575m | 5.8m/s | -45.8°C | 0.8% | 13.3hPa | 2.6V | 00:00:00 | 00:00:00 | 00:00:00 | |
| DL1XH1-15 | 2026-09-03 00:29:33 | 50.97480 | 8.26525 | 2° | 13km/h | 29559m | 6.3m/s | -45.8°C | 3.1% | 13.3hPa | 2.6V | 08:30:00 | 02:11:59 | 00:00:00 | |
| DL1XH-west | 2026-09-03 00:29:33 | 50.97483 | 8.26525 | 350° | 13km/h | 29564m | 5.5m/s | -45.8°C | 0.2% | 13.3hPa | 2.5V | 18:12:15 | 02:12:00 | 00:00:00 | |
| HSKMA3-T | 2026-09-03 00:29:30 | 50.97477 | 8.26525 | 9° | 13km/h | 29552m | 5.2m/s | -45.8°C | 0.2% | 13.3hPa | 2.6V | 18:12:15 | 02:11:58 | 00:00:00 | |
| DM0DOS-11 | 2026-09-03 00:29:28 | 50.97448 | 8.26548 | 309° | 18km/h | 29513m | 5.8m/s | -45.8°C | 3% | 13.4hPa | 2.5V | 08:30:00 | 02:11:51 | 00:00:00 | |
| BIOWL1-15 | 2026-09-03 00:29:28 | 50.97470 | 8.26525 | 350° | 16km/h | 29543m | 5.8m/s | -45.8°C | 0.2% | 13.4hPa | 2.5V | 18:12:15 | 02:11:56 | 00:00:00 | |
| AA1-15 | 2026-09-03 00:29:28 | 50.97465 | 8.26527 | 337° | 20km/h | 29537m | 6.4m/s | -45.8°C | 0.1% | 13.4hPa | 2.5V | 18:12:15 | 02:11:55 | 00:00:00 | |
| DO2JMG | 2026-09-03 00:29:25 | 50.97456 | 8.26537 | 321° | 24km/h | 29525m | 5.2m/s | -45.8°C | 0.1% | 13.4hPa | 2.6V | 18:12:15 | 02:11:53 | 00:00:00 | |
| DJ2DS-15 | 2026-09-03 00:29:24 | 50.97448 | 8.26548 | 309° | 16km/h | 29513m | 5.8m/s | -45.8°C | 0.8% | 13.4hPa | 2.5V | 00:00:00 | 00:00:00 | 00:00:00 | |
| DL1XH1-15 | 2026-09-03 00:29:23 | 50.97444 | 8.26559 | 300° | 15km/h | 29502m | 5.3m/s | -45.8°C | 3% | 13.4hPa | 2.5V | 08:30:00 | 02:11:49 | 00:00:00 | |
| DL1XH-west | 2026-09-03 00:29:22 | 50.97444 | 8.26559 | 300° | 15km/h | 29502m | 5.3m/s | -45.8°C | 0.2% | 13.4hPa | 2.5V | 18:12:15 | 02:11:49 | 00:00:00 | |
| SO1NDE-10 | 2026-09-03 00:29:22 | 50.97445 | 8.26554 | 304° | 9km/h | 29508m | 5.2m/s | -45.7°C | 3.0% | 13.4hPa | 2.5V | 00:00:00 | 02:11:50 | 00:00:00 | |
| DL4XJ-10 | 2026-09-03 00:29:21 | 50.97443 | 8.26558 | 301° | 9km/h | 29503m | 5.3m/s | -44.7°C | 0% | 0hPa | 2.5V | 00:00:00 | 00:00:00 | 00:00:00 | |
| DL1NUX | 2026-09-03 00:29:20 | 50.97434 | 8.26573 | 41° | 5km/h | 29468m | 5.8m/s | -45.7°C | 3% | 13.6hPa | 2.5V | 08:30:00 | 02:11:43 | 00:00:00 | |
| HSKMA3-T | 2026-09-03 00:29:19 | 50.97440 | 8.26568 | 305° | 13km/h | 29490m | 5.4m/s | -45.8°C | 0.2% | 13.5hPa | 2.6V | 18:12:15 | 02:11:47 | 00:00:00 | |
| DM0DOS-11 | 2026-09-03 00:29:18 | 50.97430 | 8.26571 | 8° | 11km/h | 29458m | 5.6m/s | -45.7°C | 3% | 13.6hPa | 2.5V | 08:30:00 | 02:11:41 | 00:00:00 | |
| BIOWL1-15 | 2026-09-03 00:29:18 | 50.97437 | 8.26574 | 330° | 7km/h | 29481m | 5.3m/s | -45.8°C | 0.1% | 13.5hPa | 2.6V | 18:12:15 | 02:11:45 | 00:00:00 | |
| AA1-15 | 2026-09-03 00:29:16 | 50.97435 | 8.26574 | 7° | 5km/h | 29474m | 6.7m/s | -45.8°C | 0.1% | 13.5hPa | 2.5V | 18:12:15 | 02:11:44 | 00:00:00 | |
| DO2JMG | 2026-09-03 00:29:14 | 50.97433 | 8.26572 | 30° | 7km/h | 29463m | 4.6m/s | -45.7°C | 0.1% | 13.5hPa | 2.5V | 18:12:15 | 02:11:42 | 00:00:00 | |
| DB0UT-7 | 2026-09-03 00:29:14 | 50.97432 | 8.26572 | 30° | 7km/h | 29463m | 4.5m/s | -45.7°C | 3.0% | 13.5hPa | 2.6V | 00:00:00 | 02:11:42 | 00:00:00 | |
| DL1XH1-15 | 2026-09-03 00:29:13 | 50.97424 | 8.26573 | 334° | 18km/h | 29446m | 5.2m/s | -45.6°C | 3% | 13.6hPa | 2.6V | 08:30:00 | 02:11:39 | 00:00:00 | |
| DL1XH-west | 2026-09-03 00:29:11 | 50.97424 | 8.26573 | 335° | 18km/h | 29446m | 5.2m/s | -45.7°C | 0.1% | 13.6hPa | 2.6V | 18:12:15 | 02:11:39 | 00:00:00 | |
| DL1NUX | 2026-09-03 00:29:10 | 50.97410 | 8.26592 | 302° | 5km/h | 29413m | 5.4m/s | -45.6°C | 3% | 13.6hPa | 2.6V | 08:30:00 | 02:11:33 | 00:00:00 | |
| HSKMA3-T | 2026-09-03 00:29:09 | 50.97416 | 8.26581 | 321° | 16km/h | 29436m | 5.8m/s | -45.7°C | 0.1% | 13.6hPa | 2.5V | 18:12:15 | 02:11:37 | 00:00:00 | |
| BIOWL7-15 | 2026-09-03 00:29:08 | 50.97416 | 8.26581 | 322° | 16km/h | 29436m | 5.8m/s | -45.7°C | 0.8% | 13.6hPa | 2.6V | 00:00:00 | 00:00:00 | 00:00:00 | |
| DM0DOS-11 | 2026-09-03 00:29:07 | 50.97408 | 8.26596 | 328° | 7km/h | 29401m | 5.5m/s | -45.6°C | 3% | 13.7hPa | 2.6V | 08:30:00 | 02:11:31 | 00:00:00 | |
| BIOWL1-15 | 2026-09-03 00:29:06 | 50.97409 | 8.26594 | 316° | 5km/h | 29407m | 6.4m/s | -45.6°C | 0.1% | 13.7hPa | 2.6V | 18:12:15 | 02:11:32 | 00:00:00 | |
| AA1-15 | 2026-09-03 00:29:06 | 50.97410 | 8.26590 | 300° | 5km/h | 29419m | 5.4m/s | -45.6°C | 0.1% | 13.6hPa | 2.5V | 18:12:15 | 02:11:34 | 00:00:00 | |
| DO2JMG | 2026-09-03 00:29:03 | 50.97407 | 8.26596 | 328° | 7km/h | 29401m | 5.5m/s | -45.6°C | 0.2% | 0hPa | 2.6V | 18:12:15 | 02:11:31 | 00:00:00 | |
| DO3MHA-12 | 2026-09-03 00:29:03 | 50.97407 | 8.26595 | 329° | 7km/h | 29402m | 5.5m/s | -45.6°C | 3.0% | 13.6hPa | 2.6V | 00:00:00 | 02:11:31 | 00:00:00 | |
| DL1XH-15 | 2026-09-03 00:29:02 | 50.97403 | 8.26597 | 27° | 4km/h | 29384m | 6.5m/s | -45.6°C | 3% | 13.7hPa | 2.5V | 08:30:00 | 02:11:28 | 00:00:00 | |
| DL1XH-west | 2026-09-03 00:29:01 | 50.97404 | 8.26597 | 1° | 5km/h | 29390m | 6.1m/s | -45.6°C | 0.1% | 13.7hPa | 2.5V | 18:12:15 | 02:11:29 | 00:00:00 | |
| DL1NUX | 2026-09-03 00:29:00 | 50.97396 | 8.26600 | 310° | 11km/h | 29356m | 4.7m/s | -45.6°C | 3% | 13.8hPa | 2.5V | 08:30:00 | 02:11:23 | 00:00:00 | |
| HSKMA3-T | 2026-09-03 00:28:58 | 50.97401 | 8.26595 | 12° | 4km/h | 29373m | 5m/s | -45.6°C | 0.1% | 13.7hPa | 2.6V | 18:12:15 | 02:11:26 | 00:00:00 | |
| BIOWL1-15 | 2026-09-03 00:28:56 | 50.97398 | 8.26597 | 321° | 9km/h | 29361m | 5.8m/s | -45.6°C | 0.1% | 13.8hPa | 2.6V | 18:12:15 | 02:11:24 | 00:00:00 | |
| AA1-15 | 2026-09-03 00:28:55 | 50.97395 | 8.26603 | 302° | 9km/h | 29350m | 5.1m/s | -45.6°C | 0.2% | 13.8hPa | 2.5V | 18:12:15 | 02:11:22 | 00:00:00 | |
| DO2JMG | 2026-09-03 00:28:52 | 50.97394 | 8.26607 | 281° | 2km/h | 29339m | 5.4m/s | -45.6°C | 0.1% | 0hPa | 2.6V | 18:12:15 | 02:11:20 | 00:00:00 | |
| DL1XH-west | 2026-09-03 00:28:50 | 50.97392 | 8.26607 | 356° | 5km/h | 29317m | 5.9m/s | -45.6°C | 0.1% | 13.8hPa | 2.5V | 18:12:15 | 02:11:16 | 00:00:00 | |
| DL1NUX | 2026-09-03 00:28:50 | 50.97388 | 8.26607 | 30° | 5km/h | 29302m | 5.4m/s | -45.7°C | 3% | 13.8hPa | 2.6V | 08:30:00 | 02:11:13 | 00:00:00 | |
| HSKMA3-T | 2026-09-03 00:28:48 | 50.97389 | 8.26607 | 2° | 5km/h | 29307m | 4.7m/s | -45.7°C | 0.1% | 13.9hPa | 2.6V | 18:12:15 | 02:11:14 | 00:00:00 | |
| BIOWL1-15 | 2026-09-03 00:28:45 | 50.97388 | 8.26607 | 31° | 5km/h | 29302m | 5.4m/s | -45.7°C | 0.1% | 13.9hPa | 2.6V | 18:12:15 | 02:11:13 | 00:00:00 | |
| DO2JMG | 2026-09-03 00:28:42 | 50.97386 | 8.26594 | 71° | 9km/h | 29280m | 4.8m/s | -45.7°C | 0.1% | 0hPa | 2.5V | 18:12:15 | 02:11:09 | 00:00:00 | |
| DD1CC3-15 | 2026-09-03 00:28:41 | 50.97386 | 8.26598 | 85° | 11km/h | 29285m | 5.2m/s | -45.7°C | 0.9% | 13.9hPa | 2.5V | 00:00:00 | 00:00:00 | 00:00:00 | |
| DL4XJ-10 | 2026-09-03 00:28:40 | 50.97384 | 8.26592 | 41° | 11km/h | 29274m | 6.2m/s | -44.7°C | 0% | 0hPa | 2.5V | 00:00:00 | 00:00:00 | 00:00:00 | |
| DL1NUX | 2026-09-03 00:28:39 | 50.97378 | 8.26599 | 234° | 7km/h | 29246m | 5.8m/s | -45.8°C | 3% | 14hPa | 2.5V | 08:30:00 | 02:11:03 | 00:00:00 | |
| DJ8HS-15 | 2026-09-03 00:28:39 | 50.97383 | 8.26591 | 356° | 9km/h | 29268m | 5.8m/s | -45.7°C | 3.0% | 13.9hPa | 2.6V | 00:00:00 | 02:11:07 | 08:30:00 | |
| DM0DOS-11 | 2026-09-03 00:28:37 | 50.97382 | 8.26603 | 206° | 11km/h | 29235m | 5.3m/s | -45.8°C | 3% | 14hPa | 2.5V | 08:30:00 | 02:11:01 | 00:00:00 | |
| DL1XH-west | 2026-09-03 00:28:37 | 50.97379 | 8.26594 | 313° | 9km/h | 29258m | 5.1m/s | -45.8°C | 0.2% | 13.9hPa | 2.6V | 18:12:15 | 02:11:05 | 00:00:00 | |
| DD8BA-10 | 2026-09-03 00:28:36 | 50.97378 | 8.26597 | 287° | 7km/h | 29253m | 6.1m/s | -45.7°C | 3.0% | 13.9hPa | 2.6V | 00:00:00 | 00:00:00 | 00:00:00 | |
| DL1XH1-15 | 2026-09-03 00:28:35 | 50.97386 | 8.26607 | 223° | 7km/h | 29224m | 6.1m/s | -45.8°C | 3.1% | 14hPa | 2.6V | 08:30:00 | 02:10:59 | 00:00:00 | |
| AA1-15 | 2026-09-03 00:28:35 | 50.97378 | 8.26599 | 235° | 7km/h | 29246m | 5.8m/s | -45.8°C | 0.1% | 14hPa | 2.5V | 18:12:15 | 02:11:03 | 00:00:00 | |
| BIOWL1-15 | 2026-09-03 00:28:34 | 50.97380 | 8.26601 | 211° | 9km/h | 29241m | 5.5m/s | -45.8°C | 0.2% | 14hPa | 2.5V | 18:12:15 | 02:11:02 | 00:00:00 | |
| DO2JMG | 2026-09-03 00:28:30 | 50.97387 | 8.26609 | 258° | 4km/h | 29218m | 5.1m/s | 0°C | 0% | 0hPa | 2.6V | 18:12:15 | 02:10:58 | 00:00:00 | |
| SONCRA | 2026-09-03 00:28:30 | 50.97387 | 8.26609 | 258° | 2km/h | 29218m | 5.1m/s | -45.7°C | 0.8% | 14.1hPa | 2.6V | 00:00:00 | 00:00:00 | 00:00:00 | |
| DL1NUX | 2026-09-03 00:28:29 | 50.97379 | 8.26595 | 46° | 16km/h | 29190m | 4.7m/s | -45.7°C | 3% | 14.1hPa | 2.6V | 08:30:00 | 02:10:53 | 00:00:00 | |
| DM0DOS-11 | 2026-09-03 00:28:29 | 50.97372 | 8.26589 | 13° | 13km/h | 29179m | 6m/s | -45.7°C | 3% | 14.2hPa | 2.5V | 08:30:00 | 02:10:51 | 00:00:00 | |
| DL1XH-west | 2026-09-03 00:28:27 | 50.97384 | 8.26605 | 52° | 13km/h | 29201m | 6.8m/s | -45.7°C | 0.1% | 14.1hPa | 2.5V | 18:12:15 | 02:10:55 | 00:00:00 | |
| HSKMA3-T | 2026-09-03 00:28:25 | 50.97379 | 8.26595 | 47° | 16km/h | 29190m | 4.7m/s | -45.7°C | 0.1% | 14.1hPa | 2.6V | 18:12:15 | 02:10:53 | 00:00:00 | |
| AA1-15 | 2026-09-03 00:28:24 | 50.97375 | 8.26591 | 34° | 16km/h | 29185m | 6m/s | -45.7°C | 0.1% | 14.1hPa | 2.5V | 18:12:15 | 02:10:52 | 00:00:00 | |
| BIOWL1-15 | 2026-09-03 00:28:23 | 50.97372 | 8.26589 | 14° | 13km/h | 29179m | 6m/s | -45.7°C | 0.1% | 14.2hPa | 2.5V | 18:12:15 | 02:10:51 | 00:00:00 | |
| GOEST3-10 | 2026-09-03 00:28:23 | 50.97372 | 8.26588 | 14° | 13km/h | 29179m | 5.9m/s | -45.6°C | 3.0% | 14.1hPa | 2.5V | 00:00:00 | 00:00:00 | 00:00:00 | |
| DL1XH1-15 | 2026-09-03 00:28:22 | 50.97367 | 8.26590 | 327° | 7km/h | 29168m | 5m/s | -45.7°C | 3% | 14.2hPa | 2.5V | 08:30:00 | 02:10:49 | 00:00:00 | |
| DO2JMG | 2026-09-03 00:28:20 | 50.97366 | 8.26591 | 304° | 5km/h | 29162m | 6.5m/s | 0°C | 0% | 0hPa | 2.6V | 18:12:15 | 02:10:48 | 00:00:00 | |
| BIOWL1-15 | 2026-09-03 00:28:19 | 50.97353 | 8.26565 | 45° | 15km/h | 29097m | 5.5m/s | -45.9°C | 0.2% | 14.3hPa | 2.5V | 18:12:15 | 02:10:36 | 00:00:00 | |
| DB0NH | 2026-09-03 00:28:19 | 50.97365 | 8.26593 | 248° | 11km/h | 29156m | 5.8m/s | -45.7°C | 3.0% | 14.1hPa | 2.6V | 00:00:00 | 02:10:47 | 00:00:00 | |
| DM0DOS-11 | 2026-09-03 00:28:18 | 50.97364 | 8.26594 | 44° | 11km/h | 29124m | 5.1m/s | -45.8°C | 3% | 14.3hPa | 2.6V | 08:30:00 | 02:10:41 | 00:00:00 | |
| DL1NUX | 2026-09-03 00:28:18 | 50.97367 | 8.26597 | 351° | 4km/h | 29133m | 5.1m/s | -45.8°C | 3% | 14.2hPa | 2.5V | 08:30:00 | 02:10:43 | 00:00:00 | |
| DL1XH-west | 2026-09-03 00:28:17 | 50.97367 | 8.26596 | 263° | 2km/h | 29139m | 6.3m/s | -45.8°C | 0.2% | 14.2hPa | 2.5V | 18:12:15 | 02:10:44 | 00:00:00 | |
| DL1XH1-15 | 2026-09-03 00:28:17 | 50.97360 | 8.26584 | 65° | 18km/h | 29112m | 6.1m/s | -45.9°C | 3% | 14.3hPa | 2.6V | 08:30:00 | 02:10:39 | 00:00:00 | |
| HSKMA3-T | 2026-09-03 00:28:14 | 50.97365 | 8.26596 | 27° | 7km/h | 29129m | 4.5m/s | -45.8°C | 0.1% | 14.2hPa | 2.5V | 18:12:15 | 02:10:42 | 00:00:00 | |
| DB0UT-7 | 2026-09-03 00:28:14 | 50.97365 | 8.26596 | 27° | 13km/h | 29129m | 4.5m/s | -45.8°C | 3.0% | 14.2hPa | 2.5V | 00:00:00 | 02:10:42 | 08:30:00 | |
| HARRO8 | 2026-09-03 00:28:13 | 50.97362 | 8.26590 | 57° | 15km/h | 29118m | 6.6m/s | -45.9°C | 0.8% | 14.3hPa | 2.5V | 00:00:00 | 00:00:00 | 00:00:00 | |
| DJ2DS-15 | 2026-09-03 00:28:12 | 50.97362 | 8.26590 | 58° | 13km/h | 29118m | 6.6m/s | -45.8°C | 3.0% | 14.2hPa | 2.5V | 00:00:00 | 02:10:40 | 00:00:00 | |
| GOEST3-10 | 2026-09-03 00:28:11 | 50.97360 | 8.26584 | 66° | 15km/h | 29112m | 6.0m/s | -45.8°C | 3.0% | 14.3hPa | 2.5V | 00:00:00 | 02:10:39 | 00:00:00 | |
| DL1NUX | 2026-09-03 00:28:10 | 50.97344 | 8.26563 | 326° | 11km/h | 29079m | 4.9m/s | -46°C | 3% | 14.4hPa | 2.5V | 08:30:00 | 02:10:33 | 00:00:00 | |
| DO2JMG | 2026-09-03 00:28:10 | 50.97358 | 8.26577 | 66° | 20km/h | 29106m | 4.9m/s | 0°C | 0% | 0hPa | 2.5V | 18:12:15 | 02:10:38 | 00:00:00 | |
| DM0DOS-11 | 2026-09-03 00:28:08 | 50.97342 | 8.26571 | 210° | 5km/h | 29063m | 5.6m/s | -46.1°C | 3% | 14.4hPa | 2.5V | 08:30:00 | 02:10:30 | 00:00:00 | |
| DL1XH1-15 | 2026-09-03 00:28:06 | 50.97344 | 8.26571 | 184° | 7km/h | 29057m | 4.8m/s | -46.1°C | 3% | 14.4hPa | 2.6V | 08:30:00 | 02:10:29 | 00:00:00 | |
| DL1XH-west | 2026-09-03 00:28:06 | 50.97347 | 8.26562 | 349° | 13km/h | 29085m | 5.6m/s | -46°C | 0.1% | 14.3hPa | 2.6V | 18:12:15 | 02:10:34 | 00:00:00 | |
| AA1-15 | 2026-09-03 00:28:04 | 50.97342 | 8.26566 | 306° | 9km/h | 29074m | 5.6m/s | -46°C | 0.1% | 14.3hPa | 2.5V | 18:12:15 | 02:10:32 | 00:00:00 | |
| HSKMA3-T | 2026-09-03 00:28:03 | 50.97342 | 8.26569 | 267° | 5km/h | 29068m | 6.2m/s | -46°C | 0.1% | 14.4hPa | 2.5V | 18:12:15 | 02:10:31 | 00:00:00 | |
| DB0ND-19 | 2026-09-03 00:28:03 | 50.97342 | 8.26571 | 210° | 5km/h | 29063m | 5.6m/s | -46.1°C | 0.8% | 14.4hPa | 2.6V | 00:00:00 | 00:00:00 | 00:00:00 | |
| DL1XH-15 | 2026-09-03 00:28:02 | 50.97346 | 8.26571 | 169° | 7km/h | 29052m | 5.7m/s | -46.1°C | 3% | 14.4hPa | 2.6V | 08:30:00 | 02:10:28 | 00:00:00 | |
| BIOWL1-15 | 2026-09-03 00:28:01 | 50.97344 | 8.26571 | 184° | 7km/h | 29057m | 4.8m/s | -46.1°C | 0.1% | 14.4hPa | 2.6V | 18:12:15 | 02:10:29 | 00:00:00 | |
| SONCRA | 2026-09-03 00:27:59 | 50.97347 | 8.26570 | 137° | 4km/h | 29047m | 6.0m/s | -46.1°C | 0.8% | 14.4hPa | 2.6V | 00:00:00 | 00:00:00 | 00:00:00 | |
| DD1CC8 | 2026-09-03 00:27:58 | 50.97347 | 8.26569 | 80° | 5km/h | 29041m | 5.7m/s | -46.2°C | 0.8% | 14.5hPa | 2.6V | 00:00:00 | 00:00:00 | 00:00:00 | |
| DM0DOS-11 | 2026-09-03 00:27:57 | 50.97336 | 8.26546 | 27° | 18km/h | 29014m | 4.6m/s | -46.5°C | 3% | 14.5hPa | 2.6V | 08:30:00 | 02:10:21 | 00:00:00 | |
| DL1NUX | 2026-09-03 00:27:57 | 50.97343 | 8.26556 | 55° | 18km/h | 29023m | 5.5m/s | -46.4°C | 3% | 14.5hPa | 2.5V | 08:30:00 | 02:10:23 | 00:00:00 | |
| DL1XH-west | 2026-09-03 00:27:56 | 50.97345 | 8.26562 | 60° | 15km/h | 29029m | 6.5m/s | -46.3°C | 0.2% | 14.5hPa | 2.5V | 18:12:15 | 02:10:24 | 00:00:00 | |
| AA1-15 | 2026-09-03 00:27:54 | 50.97340 | 8.26551 | 45° | 18km/h | 29018m | 4.2m/s | -46.4°C | 0.1% | 14.5hPa | 2.6V | 18:12:15 | 02:10:22 | 00:00:00 | |
| HSKMA3-T | 2026-09-03 00:27:53 | 50.97336 | 8.26547 | 27° | 18km/h | 29014m | 4.6m/s | -46.5°C | 0.1% | 14.5hPa | 2.6V | 18:12:15 | 02:10:21 | 00:00:00 | |
| DO3DL | 2026-09-03 00:27:53 | 50.97336 | 8.26546 | 28° | 18km/h | 29014m | 4.6m/s | -46.5°C | 0.8% | 14.5hPa | 2.6V | 00:00:00 | 00:00:00 | 00:00:00 | |
| DJ2DS-15 | 2026-09-03 00:27:52 | 50.97332 | 8.26544 | 8° | 11km/h | 29008m | 6.4m/s | -46.5°C | 3.0% | 14.4hPa | 2.6V | 00:00:00 | 02:10:20 | 00:00:00 | |
| DL1XH-15 | 2026-09-03 00:27:51 | 50.97323 | 8.26548 | 322° | 18km/h | 28996m | 5.2m/s | -46.6°C | 3% | 14.5hPa | 2.5V | 08:30:00 | 02:10:18 | 00:00:00 | |
| DJ2KF-10 | 2026-09-03 00:27:51 | 50.97327 | 8.26545 | 344° | 9km/h | 29002m | 6.1m/s | -46.5°C | 3.0% | 14.5hPa | 2.5V | 00:00:00 | 02:10:19 | 00:00:00 | |
| DL1NUX | 2026-09-03 00:27:50 | 50.97324 | 8.26565 | 189° | 11km/h | 28968m | 4.8m/s | -46.8°C | 3.1% | 14.6hPa | 2.5V | 08:30:00 | 02:10:13 | 00:00:00 | |
| BIOWL1-15 | 2026-09-03 00:27:50 | 50.97323 | 8.26548 | 322° | 18km/h | 28996m | 5.2m/s | -46.6°C | 0.1% | 14.5hPa | 2.5V | 18:12:15 | 02:10:18 | 00:00:00 | |
| GOEST3-10 | 2026-09-03 00:27:50 | 50.97323 | 8.26548 | 323° | 16km/h | 28996m | 5.2m/s | -46.5°C | 3.0% | 14.5hPa | 2.5V | 00:00:00 | 02:10:18 | 00:00:00 | |
| DB0NH | 2026-09-03 00:27:49 | 50.97320 | 8.26553 | 303° | 9km/h | 28991m | 5.2m/s | -46.6°C | 3.0% | 14.5hPa | 2.5V | 00:00:00 | 02:10:17 | 08:30:00 | |
| DM0DOS-11 | 2026-09-03 00:27:47 | 50.97328 | 8.26566 | 187° | 4km/h | 28958m | 5.5m/s | -47°C | 3.1% | 14.6hPa | 2.5V | 08:30:00 | 02:10:11 | 00:00:00 | |
| DL1XH1-15 | 2026-09-03 00:27:46 | 50.97327 | 8.26566 | 11° | 7km/h | 28947m | 5.2m/s | -47.1°C | 3.1% | 14.6hPa | 2.6V | 08:30:00 | 02:10:09 | 00:00:00 | |
| DL1XH-west | 2026-09-03 00:27:46 | 50.97321 | 8.26564 | 203° | 11km/h | 28973m | 4.9m/s | -46.7°C | 0.2% | 14.6hPa | 2.5V | 18:12:15 | 02:10:14 | 00:00:00 | |
| DO2JMG | 2026-09-03 00:27:43 | 50.97328 | 8.26566 | 188° | 4km/h | 28958m | 5.5m/s | 0°C | 0% | 0hPa | 2.5V | 18:12:15 | 02:10:11 | 00:00:00 | |
| HSKMA3-T | 2026-09-03 00:27:42 | 50.97328 | 8.26566 | 360° | 2km/h | 28953m | 5m/s | -47°C | 0.2% | 14.6hPa | 2.6V | 18:12:15 | 02:10:10 | 00:00:00 | |
| HARRO8 | 2026-09-03 00:27:42 | 50.97327 | 8.26566 | 11° | 5km/h | 28948m | 5.2m/s | -47.1°C | 0.8% | 14.7hPa | 2.6V | 00:00:00 | 00:00:00 | 00:00:00 | |
| BUE01 | 2026-09-03 00:27:41 | 50.97324 | 8.26565 | 19° | 11km/h | 28942m | 5.3m/s | -47.2°C | 0.9% | 14.7hPa | 2.6V | 00:00:00 | 00:00:00 | 00:00:00 | |
| DL1NUX | 2026-09-03 00:27:40 | 50.97309 | 8.26550 | 15° | 11km/h | 28915m | 5.5m/s | -47.4°C | 3.2% | 14.8hPa | 2.6V | 08:30:00 | 02:10:03 | 00:00:00 | |
| BIOWL1-15 | 2026-09-03 00:27:40 | 50.97324 | 8.26565 | 19° | 11km/h | 28942m | 5.3m/s | -47.2°C | 0.2% | 14.7hPa | 2.6V | 18:12:15 | 02:10:08 | 00:00:00 | |
| DL4XJ-10 | 2026-09-03 00:27:40 | 50.97324 | 8.26565 | 20° | 7km/h | 28942m | 5.3m/s | -46.2°C | 0% | 0hPa | 2.5V | 00:00:00 | 00:00:00 | 00:00:00 | |
| DJ8HS-15 | 2026-09-03 00:27:39 | 50.97321 | 8.26563 | 28° | 9km/h | 28937m | 6.1m/s | -47.2°C | 3.2% | 14.6hPa | 2.5V | 00:00:00 | 02:10:07 | 00:00:00 | |
| DL3AQ-11 | 2026-09-03 00:27:38 | 50.97315 | 8.26556 | 40° | 15km/h | 28925m | 4.9m/s | -47.4°C | 0.9% | 14.7hPa | 2.6V | 00:00:00 | 00:00:00 | 00:00:00 | |
| DM0DOS-11 | 2026-09-03 00:27:36 | 50.97306 | 8.26552 | 307° | 9km/h | 28904m | 5.1m/s | -47.5°C | 3.2% | 14.8hPa | 2.6V | 08:30:00 | 02:10:01 | 00:00:00 | |
| DJ2DS-15 | 2026-09-03 00:27:36 | 50.97310 | 8.26550 | 15° | 9km/h | 28916m | 5.5m/s | -47.4°C | 0.8% | 14.8hPa | 2.5V | 00:00:00 | 00:00:00 | 00:00:00 | |
| DL1XH1-15 | 2026-09-03 00:27:35 | 50.97305 | 8.26559 | 262° | 7km/h | 28894m | 6.2m/s | -47.5°C | 3.2% | 14.8hPa | 2.5V | 08:30:00 | 02:09:59 | 00:00:00 | |
| DL1XH-west | 2026-09-03 00:27:35 | 50.97310 | 8.26550 | 16° | 11km/h | 28915m | 5.5m/s | -47.4°C | 0.2% | 14.8hPa | 2.6V | 18:12:15 | 02:10:03 | 00:00:00 | |
| AA1-15 | 2026-09-03 00:27:33 | 50.97306 | 8.26552 | 307° | 9km/h | 28904m | 5.1m/s | -47.5°C | 0.3% | 14.8hPa | 2.6V | 18:12:15 | 02:10:01 | 00:00:00 | |
| DL1XH-15 | 2026-09-03 00:27:32 | 50.97305 | 8.26561 | 229° | 5km/h | 28888m | 6m/s | -47.5°C | 3.3% | 14.8hPa | 2.5V | 08:30:00 | 02:09:58 | 00:00:00 | |
| DO2JMG | 2026-09-03 00:27:32 | 50.97305 | 8.26555 | 283° | 9km/h | 28899m | 4.8m/s | 0°C | 0% | 0hPa | 2.5V | 18:12:15 | 02:10:00 | 00:00:00 | |
| DB0ND-19 | 2026-09-03 00:27:32 | 50.97304 | 8.26559 | 262° | 7km/h | 28894m | 6.2m/s | -47.5°C | 0.9% | 14.8hPa | 2.5V | 00:00:00 | 00:00:00 | 00:00:00 | |
| EDDB2-11 | 2026-09-03 00:27:31 | 50.97304 | 8.26559 | 262° | 7km/h | 28894m | 6.2m/s | -47.5°C | 0.9% | 14.8hPa | 2.5V | 00:00:00 | 00:00:00 | 00:00:00 | |
| DL1NUX | 2026-09-03 00:27:30 | 50.97307 | 8.26560 | 53° | 4km/h | 28860m | 4.7m/s | -47.6°C | 3.3% | 14.8hPa | 2.5V | 08:30:00 | 02:09:53 | 00:00:00 | |
| GOEST3-10 | 2026-09-03 00:27:30 | 50.97305 | 8.26561 | 230° | 4km/h | 28888m | 6.0m/s | -47.5°C | 3.3% | 14.7hPa | 2.6V | 00:00:00 | 02:09:58 | 00:00:00 | |
| DL3OBA | 2026-09-03 00:27:29 | 50.97305 | 8.26561 | 231° | 5km/h | 28888m | 6.0m/s | -47.6°C | 0.9% | 14.8hPa | 2.6V | 00:00:00 | 00:00:00 | 00:00:00 | |
| SONCRA | 2026-09-03 00:27:28 | 50.97307 | 8.26562 | 161° | 2km/h | 28877m | 5.3m/s | -47.6°C | 0.9% | 14.8hPa | 2.6V | 00:00:00 | 00:00:00 | 00:00:00 | |
| DL4BBY-15 | 2026-09-03 00:27:27 | 50.97307 | 8.26562 | 128° | 9km/h | 28872m | 6.1m/s | -46.6°C | 0% | 0hPa | 2.6V | 00:00:00 | 00:00:00 | 00:00:00 | |
| DL1XH1-15 | 2026-09-03 00:27:25 | 50.97306 | 8.26547 | 96° | 11km/h | 28838m | 4.7m/s | -47.6°C | 3.3% | 14.9hPa | 2.6V | 08:30:00 | 02:09:49 | 00:00:00 | |
| DL1XH-west | 2026-09-03 00:27:24 | 50.97306 | 8.26558 | 65° | 7km/h | 28855m | 5m/s | -47.7°C | 0.3% | 14.8hPa | 2.5V | 18:12:15 | 02:09:52 | 00:00:00 | |
| DM0DOS-11 | 2026-09-03 00:27:24 | 50.97306 | 8.26555 | 79° | 9km/h | 28849m | 6.4m/s | -47.6°C | 3.3% | 14.9hPa | 2.6V | 08:30:00 | 02:09:51 | 00:00:00 | |
| DF7PN | 2026-09-03 00:27:23 | 50.97306 | 8.26555 | 79° | 9km/h | 28850m | 6.4m/s | -47.7°C | 0.9% | 14.9hPa | 2.5V | 00:00:00 | 00:00:00 | 00:00:00 | |
| AA1-15 | 2026-09-03 00:27:23 | 50.97306 | 8.26555 | 80° | 9km/h | 28849m | 6.4m/s | -47.7°C | 0.4% | 14.9hPa | 2.6V | 18:12:15 | 02:09:51 | 00:00:00 | |
| DL1XH-15 | 2026-09-03 00:27:22 | 50.97306 | 8.26543 | 101° | 7km/h | 28833m | 5.7m/s | -47.6°C | 3.3% | 14.9hPa | 2.5V | 08:30:00 | 02:09:48 | 00:00:00 | |
| HSKMA3-T | 2026-09-03 00:27:21 | 50.97306 | 8.26547 | 97° | 11km/h | 28838m | 4.7m/s | -47.6°C | 0.3% | 14.9hPa | 2.6V | 18:12:15 | 02:09:49 | 00:00:00 | |
| DJ2KF-10 | 2026-09-03 00:27:21 | 50.97306 | 8.26547 | 97° | 9km/h | 28838m | 4.6m/s | -47.6°C | 3.3% | 14.9hPa | 2.5V | 00:00:00 | 02:09:49 | 00:00:00 | |
| DL4XJ-10 | 2026-09-03 00:27:20 | 50.97306 | 8.26543 | 102° | 7km/h | 28833m | 5.7m/s | -46.6°C | 0% | 0hPa | 2.5V | 00:00:00 | 00:00:00 | 00:00:00 | |
| DB0NH | 2026-09-03 00:27:19 | 50.97306 | 8.26541 | 118° | 9km/h | 28827m | 6.0m/s | -47.6°C | 3.3% | 14.9hPa | 2.5V | 00:00:00 | 02:09:47 | 00:00:00 | |
| DM0DOS-11 | 2026-09-03 00:27:18 | 50.97316 | 8.26525 | 126° | 11km/h | 28790m | 5.3m/s | -47.6°C | 3.3% | 15hPa | 2.5V | 08:30:00 | 02:09:40 | 00:00:00 | |
| BIOWL1-15 | 2026-09-03 00:27:15 | 50.97318 | 8.26522 | 129° | 9km/h | 28784m | 6.2m/s | -47.6°C | 0.4% | 15hPa | 2.5V | 18:12:15 | 02:09:39 | 00:00:00 | |
| DL1XH-west | 2026-09-03 00:27:13 | 50.97315 | 8.26529 | 125° | 15km/h | 28795m | 4.2m/s | -47.6°C | 0.3% | 15hPa | 2.5V | 18:12:15 | 02:09:41 | 00:00:00 | |
| DL1XH-15 | 2026-09-03 00:27:12 | 50.97319 | 8.26520 | 135° | 5km/h | 28779m | 5.2m/s | -47.6°C | 3.4% | 15hPa | 2.6V | 08:30:00 | 02:09:38 | 00:00:00 | |
| DL1XH1-15 | 2026-09-03 00:27:12 | 50.97318 | 8.26522 | 128° | 9km/h | 28784m | 6.2m/s | -47.6°C | 3.4% | 15hPa | 2.5V | 08:30:00 | 02:09:39 | 00:00:00 | |
| AA1-15 | 2026-09-03 00:27:12 | 50.97317 | 8.26525 | 126° | 13km/h | 28790m | 5.3m/s | -47.6°C | 0.4% | 15hPa | 2.5V | 18:12:15 | 02:09:40 | 00:00:00 | |
| HSKMA3-T | 2026-09-03 00:27:10 | 50.97319 | 8.26520 | 136° | 5km/h | 28779m | 5.2m/s | -47.6°C | 0.4% | 15hPa | 2.6V | 18:12:15 | 02:09:38 | 00:00:00 | |
| BUE01 | 2026-09-03 00:27:10 | 50.97320 | 8.26519 | 135° | 4km/h | 28774m | 4.9m/s | -47.6°C | 0.9% | 15.1hPa | 2.6V | 00:00:00 | 00:00:00 | 00:00:00 | |
| DL3AQ-11 | 2026-09-03 00:27:09 | 50.97321 | 8.26517 | 125° | 4km/h | 28769m | 5.5m/s | -47.6°C | 0.9% | 15.1hPa | 2.6V | 00:00:00 | 00:00:00 | 00:00:00 | |
| DM0DOS-11 | 2026-09-03 00:27:07 | 50.97328 | 8.26500 | 136° | 11km/h | 28741m | 6.2m/s | -47.5°C | 3.3% | 15.1hPa | 2.6V | 08:30:00 | 02:09:31 | 00:00:00 | |
| DL1XH1-15 | 2026-09-03 00:27:07 | 50.97332 | 8.26495 | 146° | 9km/h | 28730m | 4.9m/s | -47.5°C | 3.3% | 15.1hPa | 2.5V | 08:30:00 | 02:09:29 | 00:00:00 | |
| BIOWL1-15 | 2026-09-03 00:27:05 | 50.97334 | 8.26493 | 136° | 9km/h | 28725m | 5.2m/s | -47.4°C | 0.4% | 15.2hPa | 2.5V | 18:12:15 | 02:09:28 | 00:00:00 | |
| DL1XH-west | 2026-09-03 00:27:02 | 50.97330 | 8.26497 | 146° | 9km/h | 28735m | 5.4m/s | -47.5°C | 0.3% | 15.1hPa | 2.6V | 18:12:15 | 02:09:30 | 00:00:00 | |
| AA1-15 | 2026-09-03 00:27:02 | 50.97332 | 8.26495 | 147° | 9km/h | 28730m | 4.9m/s | -47.5°C | 0.3% | 15.2hPa | 2.5V | 18:12:15 | 02:09:29 | 00:00:00 | |
| DL1XH-15 | 2026-09-03 00:27:01 | 50.97334 | 8.26493 | 136° | 9km/h | 28725m | 5.2m/s | -47.4°C | 3.3% | 15.2hPa | 2.5V | 08:30:00 | 02:09:28 | 00:00:00 | |
| DB0ND-19 | 2026-09-03 00:27:01 | 50.97334 | 8.26493 | 136° | 9km/h | 28725m | 5.2m/s | -47.4°C | 0.9% | 15.2hPa | 2.6V | 00:00:00 | 00:00:00 | 00:00:00 | |
| DL4XJ-10 | 2026-09-03 00:27:00 | 50.97334 | 8.26493 | 137° | 9km/h | 28725m | 5.1m/s | -46.4°C | 0% | 0hPa | 2.6V | 00:00:00 | 00:00:00 | 00:00:00 | |
| DL1NUX | 2026-09-03 00:26:59 | 50.97338 | 8.26469 | 75° | 9km/h | 28699m | 5.9m/s | -47.3°C | 3.3% | 15.2hPa | 2.6V | 08:30:00 | 02:09:23 | 00:00:00 | |
| HSKMA3-T | 2026-09-03 00:26:59 | 50.97335 | 8.26490 | 123° | 11km/h | 28719m | 6.3m/s | -47.4°C | 0.3% | 15.2hPa | 2.5V | 18:12:15 | 02:09:27 | 00:00:00 | |
| DJ8HS-15 | 2026-09-03 00:26:59 | 50.97335 | 8.26490 | 124° | 9km/h | 28719m | 6.3m/s | -47.4°C | 3.3% | 15.1hPa | 2.5V | 00:00:00 | 02:09:27 | 00:00:00 | |
| DM0DOS-11 | 2026-09-03 00:26:58 | 50.97336 | 8.26465 | 4° | 4km/h | 28687m | 5.2m/s | -47.3°C | 3.2% | 15.2hPa | 2.5V | 08:30:00 | 02:09:21 | 00:00:00 | |
| DL3AQ-11 | 2026-09-03 00:26:58 | 50.97338 | 8.26479 | 101° | 15km/h | 28708m | 4.5m/s | -47.4°C | 0.9% | 15.2hPa | 2.6V | 00:00:00 | 00:00:00 | 00:00:00 | |
| DL4BBY-15 | 2026-09-03 00:26:57 | 50.97338 | 8.26479 | 102° | 9km/h | 28708m | 4.5m/s | -46.3°C | 0% | 0hPa | 2.6V | 00:00:00 | 00:00:00 | 00:00:00 | |
| DL1XH1-15 | 2026-09-03 00:26:56 | 50.97335 | 8.26466 | 236° | 2km/h | 28676m | 6m/s | -47.3°C | 3.2% | 15.3hPa | 2.6V | 08:30:00 | 02:09:19 | 00:00:00 | |
| BIOWL1-15 | 2026-09-03 00:26:55 | 50.97336 | 8.26465 | 5° | 4km/h | 28687m | 5.3m/s | -47.3°C | 0.3% | 15.2hPa | 2.5V | 18:12:15 | 02:09:21 | 00:00:00 | |
| DL1XH-west | 2026-09-03 00:26:52 | 50.97335 | 8.26465 | 328° | 4km/h | 28682m | 5.4m/s | -47.3°C | 0.3% | 15.3hPa | 2.5V | 18:12:15 | 02:09:20 | 00:00:00 | |
| SO1NDE-10 | 2026-09-03 00:26:52 | 50.97335 | 8.26465 | 329° | 11km/h | 28682m | 5.3m/s | -47.2°C | 3.2% | 15.2hPa | 2.5V | 00:00:00 | 02:09:20 | 08:30:00 | |
| DL1XH-15 | 2026-09-03 00:26:51 | 50.97335 | 8.26466 | 163° | 5km/h | 28670m | 5.8m/s | -47.3°C | 3.2% | 15.3hPa | 2.6V | 08:30:00 | 02:09:18 | 00:00:00 | |
| AA1-15 | 2026-09-03 00:26:51 | 50.97335 | 8.26466 | 236° | 2km/h | 28676m | 6.1m/s | -47.3°C | 0.3% | 15.3hPa | 2.6V | 18:12:15 | 02:09:19 | 00:00:00 | |
| HSKMA3-T | 2026-09-03 00:26:49 | 50.97337 | 8.26465 | 156° | 7km/h | 28665m | 4.8m/s | -47.3°C | 0.3% | 15.3hPa | 2.5V | 18:12:15 | 02:09:17 | 00:00:00 | |
| DO1YAY-16 | 2026-09-03 00:26:47 | 50.97342 | 8.26460 | 133° | 4km/h | 28650m | 5.9m/s | -47.4°C | 0.9% | 15.3hPa | 2.5V | 00:00:00 | 00:00:00 | 00:00:00 | |
| DL3OBA | 2026-09-03 00:26:46 | 50.97341 | 8.26462 | 152° | 7km/h | 28656m | 5.6m/s | -47.4°C | 0.9% | 15.3hPa | 2.5V | 00:00:00 | 00:00:00 | 00:00:00 | |
| DL1XH1-15 | 2026-09-03 00:26:45 | 50.97334 | 8.26443 | 47° | 18km/h | 28622m | 4.2m/s | -47.5°C | 3.3% | 15.4hPa | 2.5V | 08:30:00 | 02:09:09 | 00:00:00 | |
| DL8DAS-14 | 2026-09-03 00:26:44 | 50.97341 | 8.26457 | 50° | 7km/h | 28639m | 5.2m/s | -47.5°C | 0.9% | 15.4hPa | 2.6V | 00:00:00 | 00:00:00 | 00:00:00 | |
| BIOWL1-15 | 2026-09-03 00:26:43 | 50.97340 | 8.26453 | 52° | 13km/h | 28633m | 6.2m/s | -47.5°C | 0.4% | 15.4hPa | 2.6V | 18:12:15 | 02:09:11 | 00:00:00 | |
| DL1XH-west | 2026-09-03 00:26:42 | 50.97334 | 8.26443 | 48° | 18km/h | 28622m | 4.2m/s | -47.5°C | 0.4% | 15.4hPa | 2.5V | 18:12:15 | 02:09:09 | 00:00:00 | |
| AA1-15 | 2026-09-03 00:26:41 | 50.97331 | 8.26438 | 37° | 18km/h | 28618m | 4m/s | -47.5°C | 0.3% | 15.4hPa | 2.5V | 18:12:15 | 02:09:08 | 00:00:00 | |
| DL1XH-15 | 2026-09-03 00:26:40 | 50.97327 | 8.26435 | 22° | 16km/h | 28613m | 5.9m/s | -47.5°C | 3.3% | 15.4hPa | 2.5V | 08:30:00 | 02:09:07 | 00:00:00 | |
| HSKMA3-T | 2026-09-03 00:26:38 | 50.97323 | 8.26433 | 2° | 16km/h | 28607m | 6m/s | -47.5°C | 0.4% | 15.4hPa | 2.6V | 18:12:15 | 02:09:06 | 00:00:00 | |
| DD1CC3-15 | 2026-09-03 00:26:37 | 50.97323 | 8.26433 | 3° | 16km/h | 28608m | 6.0m/s | -47.5°C | 0.9% | 15.4hPa | 2.5V | 00:00:00 | 00:00:00 | 00:00:00 | |
| DM0DOS-11 | 2026-09-03 00:26:36 | 50.97317 | 8.26443 | 205° | 5km/h | 28579m | 4.5m/s | -47.5°C | 3.3% | 15.5hPa | 2.5V | 08:30:00 | 02:09:01 | 00:00:00 | |
| DL1XH1-15 | 2026-09-03 00:26:35 | 50.97318 | 8.26444 | 276° | 0km/h | 28570m | 5.8m/s | -47.5°C | 3.3% | 15.5hPa | 2.6V | 08:30:00 | 02:08:59 | 00:00:00 | |
| DL1XH-west | 2026-09-03 00:26:32 | 50.97318 | 8.26444 | 200° | 4km/h | 28575m | 4.3m/s | -47.5°C | 0.3% | 15.5hPa | 2.6V | 18:12:15 | 02:09:00 | 00:00:00 | |
| DO9LL-15 | 2026-09-03 00:26:32 | 50.97318 | 8.26444 | 200° | 11km/h | 28575m | 4.3m/s | -47.5°C | 3.3% | 15.5hPa | 2.5V | 00:00:00 | 02:09:00 | 00:00:00 | |
| DL1XH-15 | 2026-09-03 00:26:31 | 50.97315 | 8.26444 | 11° | 13km/h | 28559m | 5.2m/s | -47.5°C | 3.3% | 15.6hPa | 2.5V | 08:30:00 | 02:08:57 | 00:00:00 | |
| DJ2DS-15 | 2026-09-03 00:26:31 | 50.97318 | 8.26444 | 277° | 11km/h | 28570m | 5.8m/s | -47.4°C | 3.3% | 15.5hPa | 2.6V | 00:00:00 | 02:08:59 | 00:00:00 | |
| DL1NUX | 2026-09-03 00:26:30 | 50.97300 | 8.26431 | 34° | 20km/h | 28537m | 3.9m/s | -47.4°C | 3.3% | 15.6hPa | 2.6V | 08:30:00 | 02:08:53 | 00:00:00 | |
| AA1-15 | 2026-09-03 00:26:29 | 50.97315 | 8.26444 | 12° | 13km/h | 28559m | 5.2m/s | -47.5°C | 0.4% | 15.6hPa | 2.5V | 18:12:15 | 02:08:57 | 00:00:00 | |
| DL3AQ-11 | 2026-09-03 00:26:29 | 50.97312 | 8.26442 | 20° | 16km/h | 28554m | 5.2m/s | -47.4°C | 0.9% | 15.6hPa | 2.5V | 00:00:00 | 00:00:00 | 00:00:00 | |
| DM0DOS-11 | 2026-09-03 00:26:28 | 50.97291 | 8.26424 | 17° | 16km/h | 28528m | 5.5m/s | -47.4°C | 3.3% | 15.6hPa | 2.5V | 08:30:00 | 02:08:51 | 00:00:00 | |
| HSKMA3-T | 2026-09-03 00:26:27 | 50.97308 | 8.26440 | 29° | 18km/h | 28548m | 6.2m/s | -47.4°C | 0.3% | 15.6hPa | 2.5V | 18:12:15 | 02:08:55 | 00:00:00 | |
| DL4BBY-15 | 2026-09-03 00:26:27 | 50.97308 | 8.26439 | 29° | 11km/h | 28548m | 6.2m/s | -46.4°C | 0% | 0hPa | 2.6V | 00:00:00 | 00:00:00 | 00:00:00 | |
| SONCRA | 2026-09-03 00:26:26 | 50.97304 | 8.26435 | 34° | 20km/h | 28542m | 5.1m/s | -47.4°C | 0.9% | 15.6hPa | 2.6V | 00:00:00 | 00:00:00 | 00:00:00 | |
| DD8BA-10 | 2026-09-03 00:26:25 | 50.97299 | 8.26431 | 35° | 9km/h | 28538m | 3.9m/s | -47.4°C | 3.3% | 15.6hPa | 2.6V | 00:00:00 | 00:00:00 | 00:00:00 | |
| DJ2DS-15 | 2026-09-03 00:26:24 | 50.97291 | 8.26424 | 17° | 16km/h | 28528m | 5.5m/s | -47.4°C | 0.9% | 15.6hPa | 2.5V | 00:00:00 | 00:00:00 | 00:00:00 | |
| DL1XH1-15 | 2026-09-03 00:26:23 | 50.97284 | 8.26423 | 356° | 11km/h | 28518m | 4.8m/s | -47.4°C | 3.3% | 15.7hPa | 2.5V | 08:30:00 | 02:08:49 | 00:00:00 | |
| DL1XH-west | 2026-09-03 00:26:21 | 50.97284 | 8.26423 | 356° | 11km/h | 28518m | 4.8m/s | -47.4°C | 0.3% | 15.7hPa | 2.5V | 18:12:15 | 02:08:49 | 00:00:00 | |
| DJ2KF-10 | 2026-09-03 00:26:21 | 50.97284 | 8.26423 | 357° | 11km/h | 28518m | 4.8m/s | -47.3°C | 3.3% | 15.6hPa | 2.6V | 00:00:00 | 02:08:49 | 00:00:00 | |
| DL1XH-15 | 2026-09-03 00:26:20 | 50.97281 | 8.26423 | 13° | 2km/h | 28506m | 6m/s | -47.3°C | 3.2% | 15.7hPa | 2.6V | 08:30:00 | 02:08:47 | 00:00:00 | |
| GOEST3-10 | 2026-09-03 00:26:20 | 50.97282 | 8.26423 | 355° | 4km/h | 28513m | 6.0m/s | -47.3°C | 3.3% | 15.6hPa | 2.5V | 00:00:00 | 00:00:00 | 00:00:00 | |
| DL1NUX | 2026-09-03 00:26:19 | 50.97284 | 8.26427 | 263° | 7km/h | 28485m | 5.8m/s | -47.4°C | 3.3% | 15.8hPa | 2.5V | 08:30:00 | 02:08:43 | 00:00:00 | |
| AA1-15 | 2026-09-03 00:26:19 | 50.97281 | 8.26423 | 13° | 2km/h | 28506m | 6m/s | -47.3°C | 0.3% | 15.7hPa | 2.6V | 18:12:15 | 02:08:47 | 00:00:00 | |
| HSKMA3-T | 2026-09-03 00:26:16 | 50.97283 | 8.26424 | 235° | 5km/h | 28491m | 5.6m/s | -47.4°C | 0.3% | 15.7hPa | 2.5V | 18:12:15 | 02:08:44 | 00:00:00 | |
| DO2KSM | 2026-09-03 00:26:16 | 50.97283 | 8.26424 | 236° | 5km/h | 28491m | 5.6m/s | -47.4°C | 0.9% | 15.7hPa | 2.5V | 00:00:00 | 00:00:00 | 00:00:00 | |
| DD8BA-10 | 2026-09-03 00:26:15 | 50.97283 | 8.26427 | 264° | 11km/h | 28485m | 5.8m/s | -47.3°C | 3.3% | 15.7hPa | 2.5V | 00:00:00 | 00:00:00 | 00:00:00 | |
| DB0UT-7 | 2026-09-03 00:26:14 | 50.97283 | 8.26430 | 287° | 15km/h | 28480m | 4.8m/s | -47.3°C | 3.3% | 15.7hPa | 2.5V | 00:00:00 | 02:08:42 | 00:00:00 | |
| DL8DAS-14 | 2026-09-03 00:26:13 | 50.97282 | 8.26433 | 306° | 9km/h | 28475m | 4.8m/s | -47.4°C | 0.9% | 15.8hPa | 2.5V | 00:00:00 | 00:00:00 | 00:00:00 | |
| DL1XH-15 | 2026-09-03 00:26:12 | 50.97272 | 8.26436 | 2° | 13km/h | 28454m | 4.5m/s | -47.3°C | 3.2% | 15.8hPa | 2.5V | 08:30:00 | 02:08:37 | 00:00:00 | |
| DL1XH-west | 2026-09-03 00:26:10 | 50.97276 | 8.26436 | 8° | 11km/h | 28459m | 4.6m/s | -47.4°C | 0.3% | 15.8hPa | 2.5V | 18:12:15 | 02:08:38 | 00:00:00 | |
| DL1NUX | 2026-09-03 00:26:10 | 50.97260 | 8.26445 | 311° | 15km/h | 28433m | 4.3m/s | -47.4°C | 3.3% | 15.9hPa | 2.6V | 08:30:00 | 02:08:33 | 00:00:00 | |
| AA1-15 | 2026-09-03 00:26:09 | 50.97269 | 8.26436 | 352° | 15km/h | 28449m | 5.8m/s | -47.4°C | 0.3% | 15.8hPa | 2.5V | 18:12:15 | 02:08:36 | 00:00:00 | |
| HSKMA3-T | 2026-09-03 00:26:06 | 50.97262 | 8.26441 | 324° | 16km/h | 28438m | 4.7m/s | -47.4°C | 0.3% | 15.8hPa | 2.6V | 18:12:15 | 02:08:34 | 00:00:00 | |
| DD8BA-10 | 2026-09-03 00:26:05 | 50.97259 | 8.26445 | 312° | 11km/h | 28434m | 4.2m/s | -47.4°C | 3.3% | 15.8hPa | 2.5V | 00:00:00 | 00:00:00 | 00:00:00 | |
| DO9LL-15 | 2026-09-03 00:26:02 | 50.97257 | 8.26454 | 243° | 16km/h | 28418m | 4.7m/s | -47.4°C | 3.3% | 15.8hPa | 2.5V | 00:00:00 | 02:08:30 | 00:00:00 | |
| DL1XH-15 | 2026-09-03 00:26:01 | 50.97256 | 8.26459 | 323° | 9km/h | 28404m | 5.7m/s | -47.5°C | 3.3% | 15.9hPa | 2.5V | 08:30:00 | 02:08:27 | 00:00:00 | |
| DL1XH-west | 2026-09-03 00:26:00 | 50.97257 | 8.26457 | 293° | 4km/h | 28409m | 4.6m/s | -47.5°C | 0.4% | 15.9hPa | 2.6V | 18:12:15 | 02:08:28 | 00:00:00 | |
| AA1-15 | 2026-09-03 00:25:58 | 50.97249 | 8.26465 | 336° | 20km/h | 28393m | 5m/s | -47.5°C | 0.3% | 16hPa | 2.5V | 18:12:15 | 02:08:25 | 00:00:00 | |
| DM0DOS-11 | 2026-09-03 00:25:57 | 50.97231 | 8.26478 | 319° | 15km/h | 28373m | 4.4m/s | -47.5°C | 3.4% | 16hPa | 2.6V | 08:30:00 | 02:08:21 | 00:00:00 | |
| WPPR-10 | 2026-09-03 00:25:57 | 50.97249 | 8.26465 | 335° | 20km/h | 28393m | 5.0m/s | -47.5°C | 0.9% | 16.0hPa | 2.5V | 00:00:00 | 00:00:00 | 00:00:00 | |
| SONCRA | 2026-09-03 00:25:55 | 50.97239 | 8.26472 | 337° | 20km/h | 28383m | 5.6m/s | -47.5°C | 0.9% | 16.0hPa | 2.5V | 00:00:00 | 00:00:00 | 00:00:00 | |
| HSKMA3-T | 2026-09-03 00:25:55 | 50.97239 | 8.26472 | 338° | 20km/h | 28383m | 5.6m/s | -47.5°C | 0.3% | 16hPa | 2.6V | 18:12:15 | 02:08:23 | 00:00:00 | |
| DD1CC8 | 2026-09-03 00:25:54 | 50.97235 | 8.26475 | 333° | 16km/h | 28378m | 5.1m/s | -47.5°C | 0.9% | 16.0hPa | 2.5V | 00:00:00 | 00:00:00 | 00:00:00 | |
| SO1NDE-10 | 2026-09-03 00:25:52 | 50.97229 | 8.26482 | 302° | 18km/h | 28369m | 4.3m/s | -47.4°C | 3.3% | 16.0hPa | 2.5V | 00:00:00 | 02:08:20 | 00:00:00 | |
| DL1XH-15 | 2026-09-03 00:25:51 | 50.97225 | 8.26505 | 278° | 24km/h | 28352m | 5.3m/s | -47.4°C | 3.3% | 16hPa | 2.5V | 08:30:00 | 02:08:17 | 00:00:00 | |
| DL1XH-west | 2026-09-03 00:25:50 | 50.97226 | 8.26496 | 284° | 22km/h | 28358m | 6m/s | -47.4°C | 0.3% | 16.1hPa | 2.5V | 18:12:15 | 02:08:18 | 00:00:00 | |
| AA1-15 | 2026-09-03 00:25:47 | 50.97224 | 8.26524 | 270° | 22km/h | 28342m | 5.7m/s | -47.3°C | 0.3% | 16.1hPa | 2.6V | 18:12:15 | 02:08:15 | 00:00:00 | |
| DM0DOS-11 | 2026-09-03 00:25:47 | 50.97225 | 8.26550 | 278° | 15km/h | 28320m | 6m/s | -47.1°C | 3.3% | 16.1hPa | 2.5V | 08:30:00 | 02:08:11 | 00:00:00 | |
| HSKMA3-T | 2026-09-03 00:25:45 | 50.97225 | 8.26539 | 261° | 15km/h | 28331m | 5m/s | -47.2°C | 0.4% | 16.1hPa | 2.5V | 18:12:15 | 02:08:13 | 00:00:00 | |
| DO1YAY-16 | 2026-09-03 00:25:45 | 50.97225 | 8.26544 | 267° | 13km/h | 28326m | 4.7m/s | -47.2°C | 0.9% | 16.1hPa | 2.6V | 00:00:00 | 00:00:00 | 00:00:00 | |
| DB0UT-7 | 2026-09-03 00:25:44 | 50.97225 | 8.26544 | 268° | 18km/h | 28326m | 4.7m/s | -47.1°C | 3.3% | 16.1hPa | 2.6V | 00:00:00 | 00:00:00 | 00:00:00 | |
| DL1LOL-11 | 2026-09-03 00:25:43 | 50.97225 | 8.26544 | 268° | 13km/h | 28326m | 4.7m/s | -47.2°C | 0.9% | 16.1hPa | 2.6V | 00:00:00 | 00:00:00 | 00:00:00 | |
| GOEST3-10 | 2026-09-03 00:25:42 | 50.97224 | 8.26555 | 288° | 20km/h | 28315m | 5.0m/s | -47.1°C | 3.2% | 16.1hPa | 2.6V | 00:00:00 | 02:08:10 | 00:00:00 | |
| DL1XH-15 | 2026-09-03 00:25:41 | 50.97220 | 8.26572 | 286° | 13km/h | 28300m | 5.8m/s | -47°C | 3.2% | 16.2hPa | 2.5V | 08:30:00 | 02:08:07 | 00:00:00 | |
| DL3OBA | 2026-09-03 00:25:41 | 50.97223 | 8.26561 | 292° | 15km/h | 28311m | 4.4m/s | -47.1°C | 0.9% | 16.2hPa | 2.6V | 00:00:00 | 00:00:00 | 00:00:00 | |
| DL1NUX | 2026-09-03 00:25:40 | 50.97220 | 8.26598 | 270° | 24km/h | 28280m | 5.2m/s | -46.9°C | 3.2% | 16.2hPa | 2.6V | 08:30:00 | 02:08:03 | 00:00:00 | |
| DL1XH-west | 2026-09-03 00:25:39 | 50.97220 | 8.26572 | 286° | 13km/h | 28300m | 5.8m/s | -47°C | 0.3% | 16.2hPa | 2.5V | 18:12:15 | 02:08:07 | 00:00:00 | |
| BIOWL9-15 | 2026-09-03 00:25:39 | 50.97220 | 8.26576 | 274° | 11km/h | 28295m | 4.7m/s | -47.0°C | 0.9% | 16.2hPa | 2.5V | 00:00:00 | 00:00:00 | 00:00:00 | |
| DL3AQ-11 | 2026-09-03 00:25:38 | 50.97220 | 8.26582 | 266° | 15km/h | 28290m | 4.4m/s | -47.0°C | 0.9% | 16.2hPa | 2.5V | 00:00:00 | 00:00:00 | 00:00:00 | |
| DM0DOS-11 | 2026-09-03 00:25:37 | 50.97219 | 8.26619 | 281° | 27km/h | 28271m | 4.1m/s | -46.9°C | 3.2% | 16.2hPa | 2.5V | 08:30:00 | 02:08:01 | 00:00:00 | |
| BIOWL1-15 | 2026-09-03 00:25:36 | 50.97220 | 8.26598 | 270° | 24km/h | 28281m | 5.2m/s | -46.9°C | 0.3% | 16.2hPa | 2.6V | 18:12:15 | 02:08:03 | 00:00:00 | |
| AA1-15 | 2026-09-03 00:25:36 | 50.97220 | 8.26589 | 266° | 20km/h | 28285m | 5m/s | -46.9°C | 0.3% | 16.2hPa | 2.6V | 18:12:15 | 02:08:04 | 00:00:00 | |
| HSKMA3-T | 2026-09-03 00:25:35 | 50.97220 | 8.26608 | 276° | 27km/h | 28275m | 4.9m/s | -46.9°C | 0.3% | 16.3hPa | 2.6V | 18:12:15 | 02:08:02 | 00:00:00 | |
| BIOWL7-15 | 2026-09-03 00:25:35 | 50.97220 | 8.26598 | 271° | 24km/h | 28281m | 5.2m/s | -46.9°C | 0.9% | 16.2hPa | 2.5V | 00:00:00 | 00:00:00 | 00:00:00 | |
| GOEST3-10 | 2026-09-03 00:25:34 | 50.97220 | 8.26608 | 277° | 22km/h | 28276m | 4.8m/s | -46.8°C | 3.2% | 16.2hPa | 2.5V | 00:00:00 | 00:00:00 | 00:00:00 | |
| DO2KSM | 2026-09-03 00:25:33 | 50.97220 | 8.26608 | 277° | 27km/h | 28276m | 4.9m/s | -46.9°C | 0.9% | 16.3hPa | 2.5V | 00:00:00 | 00:00:00 | 00:00:00 | |
| DO9LL-15 | 2026-09-03 00:25:32 | 50.97217 | 8.26629 | 287° | 18km/h | 28267m | 3.9m/s | -46.8°C | 3.2% | 16.2hPa | 2.5V | 00:00:00 | 02:08:00 | 00:00:00 | |
| DJ2DS-15 | 2026-09-03 00:25:31 | 50.97216 | 8.26636 | 287° | 18km/h | 28263m | 4.6m/s | -46.8°C | 3.2% | 16.2hPa | 2.5V | 00:00:00 | 02:07:59 | 00:00:00 | |
| DL1NUX | 2026-09-03 00:25:30 | 50.97224 | 8.26659 | 251° | 16km/h | 28232m | 5.3m/s | -46.8°C | 3.1% | 16.3hPa | 2.5V | 08:30:00 | 02:07:53 | 00:00:00 | |
| DL1XH-west | 2026-09-03 00:25:29 | 50.97215 | 8.26646 | 238° | 7km/h | 28252m | 5.7m/s | -46.8°C | 0.3% | 16.3hPa | 2.6V | 18:12:15 | 02:07:57 | 00:00:00 | |
| AA1-15 | 2026-09-03 00:25:26 | 50.97224 | 8.26659 | 251° | 16km/h | 28232m | 5.3m/s | -46.8°C | 0.2% | 16.3hPa | 2.5V | 18:12:15 | 02:07:53 | 00:00:00 | |
| BIOWL1-15 | 2026-09-03 00:25:26 | 50.97227 | 8.26735 | 233° | 26km/h | 28187m | 5.3m/s | -47.1°C | 0.3% | 16.4hPa | 2.5V | 18:12:15 | 02:07:44 | 00:00:00 | |
| HSKMA3-T | 2026-09-03 00:25:24 | 50.97225 | 8.26667 | 269° | 22km/h | 28227m | 5.5m/s | -46.9°C | 0.2% | 16.4hPa | 2.6V | 18:12:15 | 02:07:52 | 00:00:00 | |
| GOEST3-10 | 2026-09-03 00:25:24 | 50.97225 | 8.26667 | 269° | 22km/h | 28227m | 5.5m/s | -46.8°C | 3.1% | 16.3hPa | 2.6V | 00:00:00 | 00:00:00 | 00:00:00 | |
| DD1CC8 | 2026-09-03 00:25:23 | 50.97224 | 8.26676 | 280° | 24km/h | 28222m | 5.2m/s | -46.9°C | 0.8% | 16.4hPa | 2.6V | 00:00:00 | 00:00:00 | 00:00:00 | |
| SO1NDE-10 | 2026-09-03 00:25:22 | 50.97223 | 8.26686 | 286° | 20km/h | 28217m | 4.5m/s | -46.9°C | 3.2% | 16.3hPa | 2.6V | 00:00:00 | 02:07:50 | 00:00:00 | |
| DJ2KF-10 | 2026-09-03 00:25:21 | 50.97221 | 8.26695 | 286° | 20km/h | 28212m | 4.8m/s | -46.9°C | 3.2% | 16.4hPa | 2.5V | 00:00:00 | 02:07:49 | 00:00:00 | |
| DL1NUX | 2026-09-03 00:25:20 | 50.97231 | 8.26743 | 232° | 26km/h | 28182m | 4.8m/s | -47.1°C | 3.2% | 16.5hPa | 2.5V | 08:30:00 | 02:07:43 | 00:00:00 | |
| DL1XH-15 | 2026-09-03 00:25:20 | 50.97220 | 8.26711 | 264° | 18km/h | 28203m | 4.3m/s | -47°C | 3.2% | 16.4hPa | 2.5V | 08:30:00 | 02:07:47 | 00:00:00 | |
| DL1XH-west | 2026-09-03 00:25:18 | 50.97221 | 8.26719 | 248° | 20km/h | 28198m | 5.1m/s | -47°C | 0.2% | 16.4hPa | 2.6V | 18:12:15 | 02:07:46 | 00:00:00 | |
| AA1-15 | 2026-09-03 00:25:16 | 50.97231 | 8.26743 | 233° | 26km/h | 28182m | 4.8m/s | -47.1°C | 0.3% | 16.5hPa | 2.5V | 18:12:15 | 02:07:43 | 00:00:00 | |
| BIOWL1-15 | 2026-09-03 00:25:14 | 50.97240 | 8.26777 | 267° | 18km/h | 28156m | 5.8m/s | -47.2°C | 0.3% | 16.5hPa | 2.6V | 18:12:15 | 02:07:38 | 00:00:00 | |
| HSKMA3-T | 2026-09-03 00:25:13 | 50.97237 | 8.26758 | 243° | 18km/h | 28171m | 5.6m/s | -47.2°C | 0.3% | 16.5hPa | 2.5V | 18:12:15 | 02:07:41 | 00:00:00 | |
| GOEST3-10 | 2026-09-03 00:25:13 | 50.97237 | 8.26758 | 243° | 20km/h | 28171m | 5.5m/s | -47.1°C | 3.2% | 16.5hPa | 2.5V | 00:00:00 | 00:00:00 | 00:00:00 | |
| DO2KSM | 2026-09-03 00:25:12 | 50.97237 | 8.26758 | 243° | 18km/h | 28171m | 5.6m/s | -47.2°C | 0.9% | 16.5hPa | 2.5V | 00:00:00 | 00:00:00 | 00:00:00 | |
| DL1XH-15 | 2026-09-03 00:25:11 | 50.97240 | 8.26784 | 264° | 20km/h | 28150m | 5.3m/s | -47.2°C | 3.3% | 16.6hPa | 2.5V | 08:30:00 | 02:07:37 | 00:00:00 | |
| DJ2DS-15 | 2026-09-03 00:25:11 | 50.97240 | 8.26770 | 266° | 20km/h | 28161m | 4.6m/s | -47.2°C | 3.2% | 16.5hPa | 2.6V | 00:00:00 | 02:07:39 | 00:00:00 | |
| DL1NUX | 2026-09-03 00:25:10 | 50.97245 | 8.26818 | 254° | 18km/h | 28130m | 6.1m/s | -47.2°C | 3.3% | 16.6hPa | 2.6V | 08:30:00 | 02:07:33 | 00:00:00 | |
| DL1XH-west | 2026-09-03 00:25:08 | 50.97241 | 8.26793 | 260° | 22km/h | 28145m | 4.8m/s | -47.2°C | 0.3% | 16.6hPa | 2.5V | 18:12:15 | 02:07:36 | 00:00:00 | |
| DO2JMG | 2026-09-03 00:25:07 | 50.97242 | 8.26802 | 257° | 22km/h | 28140m | 4.5m/s | 0°C | 0% | 0hPa | 2.5V | 18:12:15 | 02:07:35 | 00:00:00 | |
| AA1-15 | 2026-09-03 00:25:05 | 50.97245 | 8.26818 | 255° | 18km/h | 28130m | 6.1m/s | -47.2°C | 0.3% | 16.6hPa | 2.6V | 18:12:15 | 02:07:33 | 00:00:00 | |
| BIOWL1-15 | 2026-09-03 00:25:04 | 50.97250 | 8.26846 | 252° | 24km/h | 28108m | 5.5m/s | -47.2°C | 0.3% | 16.7hPa | 2.5V | 18:12:15 | 02:07:29 | 00:00:00 | |
| HSKMA3-T | 2026-09-03 00:25:03 | 50.97248 | 8.26838 | 251° | 20km/h | 28114m | 5.9m/s | -47.2°C | 0.3% | 16.7hPa | 2.5V | 18:12:15 | 02:07:30 | 00:00:00 | |
| DL1XH1-15 | 2026-09-03 00:25:02 | 50.97250 | 8.26846 | 251° | 24km/h | 28108m | 5.5m/s | -47.2°C | 3.2% | 16.7hPa | 2.5V | 08:30:00 | 02:07:29 | 00:00:00 | |
| GOEST3-10 | 2026-09-03 00:25:01 | 50.97250 | 8.26846 | 252° | 22km/h | 28109m | 5.5m/s | -47.2°C | 3.2% | 16.6hPa | 2.5V | 00:00:00 | 00:00:00 | 00:00:00 | |
| DL1NUX | 2026-09-03 00:25:00 | 50.97254 | 8.26895 | 268° | 16km/h | 28077m | 5.8m/s | -47.2°C | 3.2% | 16.7hPa | 2.5V | 08:30:00 | 02:07:23 | 00:00:00 | |
| DL1XH-15 | 2026-09-03 00:25:00 | 50.97253 | 8.26865 | 257° | 24km/h | 28099m | 4.8m/s | -47.2°C | 3.2% | 16.7hPa | 2.6V | 08:30:00 | 02:07:27 | 00:00:00 | |
| DL1XH-west | 2026-09-03 00:24:57 | 50.97255 | 8.26881 | 271° | 18km/h | 28087m | 5.5m/s | -47.2°C | 0.3% | 16.7hPa | 2.5V | 18:12:15 | 02:07:25 | 00:00:00 | |
| DO2JMG | 2026-09-03 00:24:56 | 50.97254 | 8.26888 | 273° | 16km/h | 28082m | 4.9m/s | 0°C | 0% | 0hPa | 2.5V | 18:12:15 | 02:07:24 | 00:00:00 | |
| DM0DOS-11 | 2026-09-03 00:24:56 | 50.97255 | 8.26909 | 256° | 18km/h | 28066m | 4.8m/s | -47.2°C | 3.2% | 16.8hPa | 2.6V | 08:30:00 | 02:07:21 | 00:00:00 | |
| EDDB2-11 | 2026-09-03 00:24:56 | 50.97254 | 8.26895 | 268° | 16km/h | 28077m | 5.8m/s | -47.2°C | 0.9% | 16.7hPa | 2.5V | 00:00:00 | 00:00:00 | 00:00:00 | |
| WPPR-10 | 2026-09-03 00:24:55 | 50.97254 | 8.26895 | 268° | 16km/h | 28077m | 5.8m/s | -47.2°C | 0.9% | 16.7hPa | 2.5V | 00:00:00 | 00:00:00 | 00:00:00 | |
| AA1-15 | 2026-09-03 00:24:55 | 50.97254 | 8.26895 | 269° | 16km/h | 28077m | 5.8m/s | -47.2°C | 0.3% | 16.7hPa | 2.5V | 18:12:15 | 02:07:23 | 00:00:00 | |
| SONCRA | 2026-09-03 00:24:53 | 50.97255 | 8.26909 | 256° | 16km/h | 28066m | 4.8m/s | -47.2°C | 0.9% | 16.8hPa | 2.5V | 00:00:00 | 00:00:00 | 00:00:00 | |
| DL1XH1-15 | 2026-09-03 00:24:52 | 50.97258 | 8.26921 | 254° | 13km/h | 28056m | 6.2m/s | -47.2°C | 3.2% | 16.8hPa | 2.5V | 08:30:00 | 02:07:19 | 00:00:00 | |
| HSKMA3-T | 2026-09-03 00:24:51 | 50.97258 | 8.26921 | 255° | 13km/h | 28056m | 6.2m/s | -47.2°C | 0.3% | 16.8hPa | 2.5V | 18:12:15 | 02:07:19 | 00:00:00 | |
| BIOWL1-15 | 2026-09-03 00:24:50 | 50.97260 | 8.26934 | 243° | 13km/h | 28040m | 5.5m/s | -47.3°C | 0.3% | 16.8hPa | 2.6V | 18:12:15 | 02:07:16 | 00:00:00 | |
| DL1NUX | 2026-09-03 00:24:50 | 50.97266 | 8.26951 | 248° | 18km/h | 28023m | 5m/s | -47.2°C | 3.3% | 16.9hPa | 2.5V | 08:30:00 | 02:07:13 | 00:00:00 | |
| DL1XH-west | 2026-09-03 00:24:47 | 50.97262 | 8.26938 | 242° | 15km/h | 28034m | 6.2m/s | -47.3°C | 0.3% | 16.9hPa | 2.6V | 18:12:15 | 02:07:15 | 00:00:00 | |
| AA1-15 | 2026-09-03 00:24:44 | 50.97267 | 8.26957 | 255° | 16km/h | 28018m | 6m/s | -47.2°C | 0.3% | 16.9hPa | 2.5V | 18:12:15 | 02:07:12 | 00:00:00 | |
| DB0UT-7 | 2026-09-03 00:24:44 | 50.97267 | 8.26957 | 256° | 15km/h | 28018m | 5.9m/s | -47.2°C | 3.2% | 16.9hPa | 2.6V | 00:00:00 | 00:00:00 | 00:00:00 | |
| DL1XH1-15 | 2026-09-03 00:24:42 | 50.97268 | 8.26978 | 264° | 20km/h | 28003m | 5.4m/s | -47.2°C | 3.2% | 16.9hPa | 2.6V | 08:30:00 | 02:07:09 | 00:00:00 | |
| DL1XH-15 | 2026-09-03 00:24:41 | 50.97270 | 8.26995 | 253° | 22km/h | 27991m | 5.2m/s | -47.2°C | 3.2% | 16.9hPa | 2.5V | 08:30:00 | 02:07:07 | 00:00:00 | |
| HSKMA3-T | 2026-09-03 00:24:41 | 50.97268 | 8.26978 | 265° | 20km/h | 28003m | 5.4m/s | -47.2°C | 0.3% | 16.9hPa | 2.6V | 18:12:15 | 02:07:09 | 00:00:00 | |
| BIOWL1-15 | 2026-09-03 00:24:38 | 50.97272 | 8.27002 | 246° | 20km/h | 27986m | 4.3m/s | -47.2°C | 0.3% | 17hPa | 2.5V | 18:12:15 | 02:07:06 | 00:00:00 | |
| DM0DOS-11 | 2026-09-03 00:24:38 | 50.97281 | 8.27013 | 169° | 9km/h | 27960m | 4.9m/s | -47.3°C | 3.2% | 17hPa | 2.5V | 08:30:00 | 02:07:01 | 00:00:00 | |
| DL1XH-west | 2026-09-03 00:24:36 | 50.97276 | 8.27012 | 223° | 11km/h | 27977m | 6.4m/s | -47.2°C | 0.3% | 17hPa | 2.6V | 18:12:15 | 02:07:04 | 00:00:00 | |
| AA1-15 | 2026-09-03 00:24:33 | 50.97281 | 8.27013 | 169° | 9km/h | 27960m | 4.9m/s | -47.3°C | 0.3% | 17hPa | 2.5V | 18:12:15 | 02:07:01 | 00:00:00 | |
| HSKMA3-T | 2026-09-03 00:24:30 | 50.97289 | 8.27019 | 229° | 16km/h | 27944m | 4.8m/s | -47.3°C | 0.3% | 17.1hPa | 2.6V | 18:12:15 | 02:06:58 | 00:00:00 | |
| DL1XH-15 | 2026-09-03 00:24:29 | 50.97292 | 8.27025 | 241° | 18km/h | 27939m | 4.8m/s | -47.3°C | 3.2% | 17.1hPa | 2.6V | 08:30:00 | 02:06:57 | 00:00:00 | |
| BIOWL1-15 | 2026-09-03 00:24:27 | 50.97295 | 8.27038 | 257° | 16km/h | 27928m | 5.4m/s | -47.3°C | 0.3% | 17.1hPa | 2.5V | 18:12:15 | 02:06:55 | 00:00:00 | |
| DL1XH-west | 2026-09-03 00:24:26 | 50.97296 | 8.27043 | 255° | 15km/h | 27923m | 4.7m/s | -47.3°C | 0.3% | 17.1hPa | 2.5V | 18:12:15 | 02:06:54 | 00:00:00 | |
| DD8BA-10 | 2026-09-03 00:24:25 | 50.97297 | 8.27048 | 242° | 11km/h | 27918m | 5.0m/s | -47.3°C | 3.2% | 17.1hPa | 2.5V | 00:00:00 | 00:00:00 | 00:00:00 | |
| DL1NUX | 2026-09-03 00:24:24 | 50.97302 | 8.27057 | 212° | 16km/h | 27907m | 5.4m/s | -47.3°C | 3.2% | 17.2hPa | 2.6V | 08:30:00 | 02:06:51 | 00:00:00 | |
| DL1XH-15 | 2026-09-03 00:24:24 | 50.97315 | 8.27063 | 177° | 7km/h | 27885m | 6m/s | -47.4°C | 3.2% | 17.2hPa | 2.5V | 08:30:00 | 02:06:47 | 00:00:00 | |
| AA1-15 | 2026-09-03 00:24:23 | 50.97305 | 8.27060 | 204° | 16km/h | 27902m | 4.6m/s | -47.4°C | 0.3% | 17.2hPa | 2.6V | 18:12:15 | 02:06:50 | 00:00:00 | |
| DL1XH1-15 | 2026-09-03 00:24:22 | 50.97309 | 8.27062 | 196° | 15km/h | 27897m | 4.8m/s | -47.4°C | 3.2% | 17.2hPa | 2.5V | 08:30:00 | 02:06:49 | 00:00:00 | |
| HSKMA3-T | 2026-09-03 00:24:19 | 50.97315 | 8.27063 | 177° | 7km/h | 27886m | 6m/s | -47.4°C | 0.3% | 17.2hPa | 2.5V | 18:12:15 | 02:06:47 | 00:00:00 | |
| BIOWL1-15 | 2026-09-03 00:24:17 | 50.97320 | 8.27064 | 199° | 9km/h | 27868m | 5.9m/s | -47.6°C | 0.2% | 17.3hPa | 2.5V | 18:12:15 | 02:06:44 | 00:00:00 | |
| DL1XH-west | 2026-09-03 00:24:15 | 50.97322 | 8.27065 | 213° | 9km/h | 27863m | 4.8m/s | -47.7°C | 0.3% | 17.3hPa | 2.5V | 18:12:15 | 02:06:43 | 00:00:00 | |
| DM0DOS-11 | 2026-09-03 00:24:15 | 50.97326 | 8.27070 | 236° | 7km/h | 27852m | 6.4m/s | -47.8°C | 3.2% | 17.3hPa | 2.5V | 08:30:00 | 02:06:41 | 00:00:00 | |
| AA1-15 | 2026-09-03 00:24:11 | 50.97328 | 8.27076 | 234° | 7km/h | 27841m | 5.1m/s | -47.8°C | 0.4% | 17.4hPa | 2.6V | 18:12:15 | 02:06:39 | 00:00:00 | |
| DL1XH-15 | 2026-09-03 00:24:11 | 50.97331 | 8.27080 | 208° | 13km/h | 27830m | 6.2m/s | -48°C | 3.3% | 17.4hPa | 2.5V | 08:30:00 | 02:06:37 | 00:00:00 | |
| HSKMA3-T | 2026-09-03 00:24:09 | 50.97331 | 8.27080 | 208° | 13km/h | 27830m | 6.2m/s | -48°C | 0.4% | 17.4hPa | 2.5V | 18:12:15 | 02:06:37 | 00:00:00 | |
| DO3MHA-12 | 2026-09-03 00:24:09 | 50.97331 | 8.27080 | 209° | 5km/h | 27830m | 6.2m/s | -47.9°C | 3.3% | 17.3hPa | 2.5V | 00:00:00 | 02:06:37 | 00:00:00 | |
| DO3DL | 2026-09-03 00:24:08 | 50.97331 | 8.27080 | 209° | 13km/h | 27830m | 6.2m/s | -48.0°C | 0.9% | 17.4hPa | 2.5V | 00:00:00 | 00:00:00 | 00:00:00 | |
| AU51GT2 | 2026-09-03 00:24:06 | 50.97340 | 8.27086 | 202° | 9km/h | 27815m | 5.3m/s | -48.0°C | 0.9% | 17.4hPa | 2.5V | 00:00:00 | 00:00:00 | 00:00:00 | |
| DD8BA-10 | 2026-09-03 00:24:05 | 50.97342 | 8.27088 | 209° | 4km/h | 27809m | 6.3m/s | -48.0°C | 3.3% | 17.4hPa | 2.5V | 00:00:00 | 00:00:00 | 00:00:00 | |
| DL1NUX | 2026-09-03 00:24:04 | 50.97342 | 8.27089 | 348° | 4km/h | 27797m | 5m/s | -48.1°C | 3.3% | 17.5hPa | 2.5V | 08:30:00 | 02:06:31 | 00:00:00 | |
| DL1XH-west | 2026-09-03 00:24:04 | 50.97342 | 8.27088 | 320° | 2km/h | 27803m | 5.8m/s | -48.1°C | 0.4% | 17.5hPa | 2.5V | 18:12:15 | 02:06:32 | 00:00:00 | |
| AA1-15 | 2026-09-03 00:24:01 | 50.97341 | 8.27089 | 200° | 2km/h | 27780m | 4.8m/s | -48.3°C | 0.3% | 17.6hPa | 2.6V | 18:12:15 | 02:06:28 | 00:00:00 | |
| DL1XH-15 | 2026-09-03 00:24:01 | 50.97341 | 8.27090 | 164° | 2km/h | 27775m | 5.8m/s | -48.3°C | 3.4% | 17.6hPa | 2.6V | 08:30:00 | 02:06:27 | 00:00:00 | |
| HSKMA3-T | 2026-09-03 00:23:58 | 50.97342 | 8.27089 | 148° | 4km/h | 27769m | 5.9m/s | -48.3°C | 0.4% | 17.5hPa | 2.6V | 18:12:15 | 02:06:26 | 00:00:00 | |
| BIOWL1-15 | 2026-09-03 00:23:55 | 50.97349 | 8.27088 | 181° | 16km/h | 27752m | 6.5m/s | -48.3°C | 0.4% | 17.6hPa | 2.5V | 18:12:15 | 02:06:23 | 00:00:00 | |
| DD8BA-10 | 2026-09-03 00:23:55 | 50.97349 | 8.27088 | 182° | 13km/h | 27753m | 6.5m/s | -48.2°C | 3.4% | 17.5hPa | 2.5V | 00:00:00 | 00:00:00 | 08:30:00 | |
| DL1XH1-15 | 2026-09-03 00:23:54 | 50.97366 | 8.27092 | 201° | 11km/h | 27732m | 5.9m/s | -48.2°C | 3.4% | 17.6hPa | 2.5V | 08:30:00 | 02:06:19 | 00:00:00 | |
| DL1XH-west | 2026-09-03 00:23:54 | 50.97353 | 8.27088 | 185° | 20km/h | 27747m | 5m/s | -48.3°C | 0.4% | 17.6hPa | 2.6V | 18:12:15 | 02:06:22 | 00:00:00 | |
| AA1-15 | 2026-09-03 00:23:51 | 50.97366 | 8.27092 | 202° | 11km/h | 27732m | 5.9m/s | -48.2°C | 0.5% | 17.6hPa | 2.5V | 18:12:15 | 02:06:19 | 00:00:00 | |
| HSKMA3-T | 2026-09-03 00:23:48 | 50.97368 | 8.27100 | 276° | 9km/h | 27715m | 5.7m/s | -48.1°C | 0.4% | 17.7hPa | 2.6V | 18:12:15 | 02:06:16 | 00:00:00 | |
| BIOWL1-15 | 2026-09-03 00:23:45 | 50.97370 | 8.27112 | 241° | 9km/h | 27699m | 4.3m/s | -48.1°C | 0.5% | 17.8hPa | 2.5V | 18:12:15 | 02:06:13 | 00:00:00 | |
| DL1XH-west | 2026-09-03 00:23:44 | 50.97371 | 8.27115 | 221° | 7km/h | 27694m | 5.1m/s | -48.1°C | 0.4% | 17.8hPa | 2.5V | 18:12:15 | 02:06:12 | 00:00:00 | |
| DB0UT-7 | 2026-09-03 00:23:44 | 50.97371 | 8.27115 | 222° | 15km/h | 27694m | 5.0m/s | -48.0°C | 3.4% | 17.7hPa | 2.5V | 00:00:00 | 00:00:00 | 08:30:00 | |
| DL1XH1-15 | 2026-09-03 00:23:43 | 50.97374 | 8.27114 | 142° | 5km/h | 27678m | 4.5m/s | -48.1°C | 3.4% | 17.8hPa | 2.6V | 08:30:00 | 02:06:09 | 00:00:00 | |
| DO3DL | 2026-09-03 00:23:43 | 50.97372 | 8.27116 | 192° | 5km/h | 27689m | 6.2m/s | -48.1°C | 0.9% | 17.8hPa | 2.5V | 00:00:00 | 00:00:00 | 00:00:00 | |
| DL1XH-15 | 2026-09-03 00:23:41 | 50.97377 | 8.27114 | 199° | 9km/h | 27668m | 5.6m/s | -48.1°C | 3.4% | 17.8hPa | 2.5V | 08:30:00 | 02:06:07 | 00:00:00 | |
| AA1-15 | 2026-09-03 00:23:40 | 50.97380 | 8.27116 | 216° | 15km/h | 27662m | 5.8m/s | -48.1°C | 0.4% | 17.9hPa | 2.5V | 18:12:15 | 02:06:06 | 00:00:00 | |
| HSKMA3-T | 2026-09-03 00:23:38 | 50.97383 | 8.27120 | 222° | 18km/h | 27657m | 5.3m/s | -48.1°C | 0.4% | 17.9hPa | 2.5V | 18:12:15 | 02:06:05 | 00:00:00 | |
| DO3MHA-11 | 2026-09-03 00:23:36 | 50.97386 | 8.27125 | 228° | 13km/h | 27652m | 4.9m/s | -48.0°C | 3.4% | 17.8hPa | 2.5V | 00:00:00 | 02:06:04 | 00:00:00 | |
| DD8BA-10 | 2026-09-03 00:23:35 | 50.97389 | 8.27130 | 233° | 13km/h | 27647m | 5.7m/s | -48.0°C | 3.4% | 17.8hPa | 2.5V | 00:00:00 | 00:00:00 | 00:00:00 | |
| DM0DOS-11 | 2026-09-03 00:23:34 | 50.97392 | 8.27139 | 252° | 9km/h | 27635m | 4.6m/s | -48°C | 3.4% | 17.9hPa | 2.5V | 08:30:00 | 02:06:01 | 00:00:00 | |
| BIOWL1-15 | 2026-09-03 00:23:34 | 50.97394 | 8.27155 | 262° | 15km/h | 27615m | 5.5m/s | -48°C | 0.4% | 18hPa | 2.6V | 18:12:15 | 02:05:57 | 00:00:00 | |
| DL1XH1-15 | 2026-09-03 00:23:33 | 50.97393 | 8.27146 | 263° | 9km/h | 27626m | 5.6m/s | -48°C | 3.3% | 17.9hPa | 2.5V | 08:30:00 | 02:05:59 | 00:00:00 | |
| DL1XH-west | 2026-09-03 00:23:33 | 50.97392 | 8.27139 | 253° | 9km/h | 27635m | 4.6m/s | -48°C | 0.4% | 17.9hPa | 2.5V | 18:12:15 | 02:06:01 | 00:00:00 | |
| AA1-15 | 2026-09-03 00:23:30 | 50.97393 | 8.27150 | 264° | 11km/h | 27620m | 6.1m/s | -48°C | 0.4% | 17.9hPa | 2.6V | 18:12:15 | 02:05:58 | 00:00:00 | |
| BIOWL1-15 | 2026-09-03 00:23:28 | 50.97393 | 8.27185 | 280° | 15km/h | 27588m | 4.3m/s | -48°C | 0.4% | 18.1hPa | 2.6V | 18:12:15 | 02:05:52 | 00:00:00 | |
| HSKMA3-T | 2026-09-03 00:23:27 | 50.97394 | 8.27167 | 270° | 16km/h | 27604m | 4.8m/s | -48°C | 0.3% | 18hPa | 2.5V | 18:12:15 | 02:05:55 | 00:00:00 | |
| DL1XH-west | 2026-09-03 00:23:22 | 50.97393 | 8.27198 | 254° | 18km/h | 27578m | 6.5m/s | -48.1°C | 0.4% | 18.1hPa | 2.6V | 18:12:15 | 02:05:50 | 00:00:00 | |
| AA1-15 | 2026-09-03 00:23:19 | 50.97403 | 8.27229 | 248° | 22km/h | 27556m | 5.6m/s | -48.1°C | 0.4% | 18.1hPa | 2.6V | 18:12:15 | 02:05:46 | 00:00:00 | |
| HSKMA3-T | 2026-09-03 00:23:16 | 50.97404 | 8.27245 | 274° | 20km/h | 27546m | 4.7m/s | -48.2°C | 0.4% | 18.2hPa | 2.5V | 18:12:15 | 02:05:44 | 00:00:00 | |
| DO3MHA-11 | 2026-09-03 00:23:16 | 50.97404 | 8.27245 | 275° | 27km/h | 27546m | 4.7m/s | -48.1°C | 3.3% | 18.1hPa | 2.5V | 00:00:00 | 02:05:44 | 00:00:00 | |
| DD8BA-10 | 2026-09-03 00:23:15 | 50.97404 | 8.27253 | 280° | 16km/h | 27541m | 4.8m/s | -48.1°C | 3.3% | 18.1hPa | 2.5V | 00:00:00 | 00:00:00 | 00:00:00 | |
| DM0DOS-11 | 2026-09-03 00:23:14 | 50.97403 | 8.27271 | 268° | 22km/h | 27530m | 5.2m/s | -48.2°C | 3.3% | 18.2hPa | 2.5V | 08:30:00 | 02:05:41 | 00:00:00 | |
| BIOWL1-15 | 2026-09-03 00:23:13 | 50.97403 | 8.27271 | 269° | 22km/h | 27530m | 5.2m/s | -48.2°C | 0.4% | 18.2hPa | 2.5V | 18:12:15 | 02:05:41 | 00:00:00 | |
| DL1XH-west | 2026-09-03 00:23:12 | 50.97403 | 8.27280 | 258° | 20km/h | 27525m | 4.9m/s | -48.2°C | 0.4% | 18.2hPa | 2.6V | 18:12:15 | 02:05:40 | 00:00:00 | |
| DL1XH-15 | 2026-09-03 00:23:11 | 50.97408 | 8.27296 | 225° | 11km/h | 27510m | 6m/s | -48.3°C | 3.4% | 18.3hPa | 2.5V | 08:30:00 | 02:05:37 | 00:00:00 | |
| AA1-15 | 2026-09-03 00:23:08 | 50.97412 | 8.27301 | 221° | 11km/h | 27500m | 4.5m/s | -48.3°C | 0.4% | 18.3hPa | 2.5V | 18:12:15 | 02:05:35 | 00:00:00 | |
| HSKMA3-T | 2026-09-03 00:23:05 | 50.97417 | 8.27311 | 234° | 22km/h | 27489m | 6.1m/s | -48.4°C | 0.4% | 18.3hPa | 2.6V | 18:12:15 | 02:05:33 | 00:00:00 | |
| DD8BA-10 | 2026-09-03 00:23:05 | 50.97417 | 8.27310 | 234° | 26km/h | 27490m | 6.1m/s | -48.3°C | 3.4% | 18.3hPa | 2.5V | 00:00:00 | 00:00:00 | 00:00:00 | |
| DL1NUX | 2026-09-03 00:23:04 | 50.97425 | 8.27329 | 241° | 33km/h | 27478m | 4.5m/s | -48.4°C | 3.4% | 18.3hPa | 2.5V | 08:30:00 | 02:05:31 | 00:00:00 | |
| BIOWL1-15 | 2026-09-03 00:23:03 | 50.97425 | 8.27329 | 242° | 33km/h | 27478m | 4.5m/s | -48.4°C | 0.5% | 18.4hPa | 2.5V | 18:12:15 | 02:05:31 | 00:00:00 | |
| DL1XH-west | 2026-09-03 00:23:02 | 50.97432 | 8.27352 | 246° | 29km/h | 27467m | 5.8m/s | -48.4°C | 0.4% | 18.4hPa | 2.5V | 18:12:15 | 02:05:29 | 00:00:00 | |
| DL1XH-15 | 2026-09-03 00:23:01 | 50.97438 | 8.27371 | 239° | 24km/h | 27457m | 5.3m/s | -48.4°C | 3.4% | 18.4hPa | 2.6V | 08:30:00 | 02:05:27 | 00:00:00 | |
| DO3MHA-11 | 2026-09-03 00:23:01 | 50.97432 | 8.27352 | 247° | 26km/h | 27468m | 5.7m/s | -48.4°C | 3.4% | 18.3hPa | 2.6V | 00:00:00 | 02:05:29 | 00:00:00 | |
| GOEST3-10 | 2026-09-03 00:23:00 | 50.97435 | 8.27362 | 245° | 24km/h | 27462m | 5.1m/s | -48.4°C | 3.4% | 18.3hPa | 2.6V | 00:00:00 | 02:05:28 | 00:00:00 | |
| DO3MHA-12 | 2026-09-03 00:22:59 | 50.97438 | 8.27371 | 240° | 29km/h | 27457m | 5.3m/s | -48.3°C | 3.4% | 18.4hPa | 2.6V | 00:00:00 | 02:05:27 | 00:00:00 | |
| DM0DOS-11 | 2026-09-03 00:22:58 | 50.97459 | 8.27404 | 210° | 15km/h | 27425m | 6.2m/s | -48.3°C | 3.4% | 18.5hPa | 2.6V | 08:30:00 | 02:05:21 | 00:00:00 | |
| AA1-15 | 2026-09-03 00:22:56 | 50.97448 | 8.27391 | 224° | 22km/h | 27441m | 5.4m/s | -48.3°C | 0.4% | 18.5hPa | 2.5V | 18:12:15 | 02:05:24 | 00:00:00 | |
| HSKMA3-T | 2026-09-03 00:22:55 | 50.97452 | 8.27397 | 219° | 20km/h | 27436m | 4.8m/s | -48.3°C | 0.4% | 18.5hPa | 2.5V | 18:12:15 | 02:05:23 | 00:00:00 | |
| DD8BA-10 | 2026-09-03 00:22:55 | 50.97452 | 8.27397 | 220° | 24km/h | 27436m | 4.8m/s | -48.3°C | 3.4% | 18.4hPa | 2.5V | 00:00:00 | 00:00:00 | 00:00:00 | |
| DL1XH1-15 | 2026-09-03 00:22:54 | 50.97466 | 8.27410 | 206° | 18km/h | 27414m | 4.9m/s | -48.2°C | 3.4% | 18.5hPa | 2.5V | 08:30:00 | 02:05:19 | 00:00:00 | |
| BIOWL1-15 | 2026-09-03 00:22:52 | 50.97462 | 8.27407 | 206° | 15km/h | 27419m | 5.2m/s | -48.3°C | 0.4% | 18.5hPa | 2.5V | 18:12:15 | 02:05:20 | 00:00:00 | |
| DL1XH-west | 2026-09-03 00:22:51 | 50.97466 | 8.27410 | 207° | 18km/h | 27414m | 4.9m/s | -48.3°C | 0.4% | 18.5hPa | 2.5V | 18:12:15 | 02:05:19 | 00:00:00 | |
| DL1XH-15 | 2026-09-03 00:22:51 | 50.97476 | 8.27419 | 214° | 27km/h | 27403m | 5.2m/s | -48.3°C | 3.4% | 18.6hPa | 2.5V | 08:30:00 | 02:05:17 | 00:00:00 | |
| HSKMA3-T | 2026-09-03 00:22:45 | 50.97499 | 8.27452 | 232° | 29km/h | 27381m | 5.5m/s | -48.4°C | 0.5% | 18.7hPa | 2.5V | 18:12:15 | 02:05:13 | 00:00:00 | |
| DL1NUX | 2026-09-03 00:22:45 | 50.97507 | 8.27470 | 235° | 27km/h | 27370m | 5.8m/s | -48.4°C | 3.5% | 18.7hPa | 2.5V | 08:30:00 | 02:05:11 | 00:00:00 | |
| DO3MHA-11 | 2026-09-03 00:22:44 | 50.97503 | 8.27461 | 236° | 20km/h | 27376m | 5.0m/s | -48.4°C | 3.5% | 18.6hPa | 2.5V | 00:00:00 | 02:05:12 | 08:30:00 | |
| DL1XH1-15 | 2026-09-03 00:22:43 | 50.97515 | 8.27486 | 226° | 24km/h | 27360m | 4.7m/s | -48.4°C | 3.5% | 18.7hPa | 2.6V | 08:30:00 | 02:05:09 | 00:00:00 | |
| BIOWL1-15 | 2026-09-03 00:22:42 | 50.97511 | 8.27479 | 232° | 27km/h | 27365m | 5.6m/s | -48.4°C | 0.5% | 18.7hPa | 2.6V | 18:12:15 | 02:05:10 | 00:00:00 | |
| DL1XH-west | 2026-09-03 00:22:41 | 50.97515 | 8.27486 | 227° | 24km/h | 27360m | 4.7m/s | -48.4°C | 0.5% | 18.7hPa | 2.6V | 18:12:15 | 02:05:09 | 00:00:00 | |
| GOEST3-10 | 2026-09-03 00:22:40 | 50.97519 | 8.27493 | 221° | 26km/h | 27355m | 4.9m/s | -48.3°C | 3.5% | 18.6hPa | 2.5V | 00:00:00 | 00:00:00 | 00:00:00 | |
| DJ8HS-15 | 2026-09-03 00:22:39 | 50.97523 | 8.27497 | 214° | 22km/h | 27349m | 6.5m/s | -48.3°C | 3.5% | 18.7hPa | 2.5V | 00:00:00 | 02:05:07 | 08:30:00 | |
| DO1YAY-16 | 2026-09-03 00:22:38 | 50.97526 | 8.27500 | 196° | 13km/h | 27343m | 5.6m/s | -48.3°C | 1.0% | 18.7hPa | 2.5V | 00:00:00 | 00:00:00 | 00:00:00 | |
| DM0DOS-11 | 2026-09-03 00:22:36 | 50.97553 | 8.27507 | 196° | 29km/h | 27316m | 4.7m/s | -48.2°C | 3.4% | 18.8hPa | 2.5V | 08:30:00 | 02:05:01 | 00:00:00 | |
| HSKMA3-T | 2026-09-03 00:22:34 | 50.97546 | 8.27504 | 192° | 27km/h | 27321m | 5.2m/s | -48.2°C | 0.4% | 18.8hPa | 2.6V | 18:12:15 | 02:05:02 | 00:00:00 | |
| DO3MHA-11 | 2026-09-03 00:22:34 | 50.97546 | 8.27504 | 193° | 24km/h | 27322m | 5.1m/s | -48.2°C | 3.4% | 18.8hPa | 2.5V | 00:00:00 | 02:05:02 | 00:00:00 | |
| AU51GT2 | 2026-09-03 00:22:33 | 50.97553 | 8.27507 | 196° | 27km/h | 27317m | 4.7m/s | -48.2°C | 1.0% | 18.8hPa | 2.5V | 00:00:00 | 00:00:00 | 00:00:00 | |
| DL1XH1-15 | 2026-09-03 00:22:32 | 50.97565 | 8.27514 | 205° | 24km/h | 27306m | 5.8m/s | -48.2°C | 3.4% | 18.8hPa | 2.5V | 08:30:00 | 02:04:59 | 00:00:00 | |
| BIOWL1-15 | 2026-09-03 00:22:32 | 50.97559 | 8.27510 | 200° | 27km/h | 27311m | 5.7m/s | -48.2°C | 0.4% | 18.8hPa | 2.5V | 18:12:15 | 02:05:00 | 00:00:00 | |
| DL1XH-west | 2026-09-03 00:22:30 | 50.97571 | 8.27519 | 211° | 22km/h | 27300m | 5.1m/s | -48.2°C | 0.4% | 18.9hPa | 2.6V | 18:12:15 | 02:04:58 | 00:00:00 | |
| DO3DL | 2026-09-03 00:22:30 | 50.97571 | 8.27519 | 212° | 22km/h | 27301m | 5.1m/s | -48.2°C | 0.9% | 18.9hPa | 2.5V | 00:00:00 | 00:00:00 | 00:00:00 | |
| DL3AQ-11 | 2026-09-03 00:22:29 | 50.97580 | 8.27528 | 211° | 22km/h | 27290m | 6.1m/s | -48.1°C | 1.0% | 18.9hPa | 2.5V | 00:00:00 | 00:00:00 | 00:00:00 | |
| DL4BBY-15 | 2026-09-03 00:22:27 | 50.97585 | 8.27532 | 206° | 24km/h | 27284m | 5.5m/s | -47.1°C | 0% | 0hPa | 2.5V | 00:00:00 | 00:00:00 | 00:00:00 | |
| DL1XH1-15 | 2026-09-03 00:22:26 | 50.97617 | 8.27538 | 177° | 22km/h | 27251m | 6m/s | -48°C | 3.4% | 19hPa | 2.5V | 08:30:00 | 02:04:49 | 00:00:00 | |
| DD8BA-10 | 2026-09-03 00:22:25 | 50.97596 | 8.27538 | 192° | 24km/h | 27274m | 5.0m/s | -48.0°C | 3.4% | 18.9hPa | 2.6V | 00:00:00 | 00:00:00 | 08:30:00 | |
| DM0DOS-11 | 2026-09-03 00:22:24 | 50.97606 | 8.27540 | 175° | 18km/h | 27262m | 5.6m/s | -48°C | 3.4% | 19hPa | 2.5V | 08:30:00 | 02:04:51 | 00:00:00 | |
| HSKMA3-T | 2026-09-03 00:22:24 | 50.97601 | 8.27540 | 184° | 20km/h | 27268m | 6.4m/s | -48.1°C | 0.4% | 18.9hPa | 2.6V | 18:12:15 | 02:04:52 | 00:00:00 | |
| AA1-15 | 2026-09-03 00:22:23 | 50.97606 | 8.27540 | 176° | 18km/h | 27262m | 5.6m/s | -48.1°C | 0.4% | 19hPa | 2.5V | 18:12:15 | 02:04:51 | 00:00:00 | |
| DL1XH-west | 2026-09-03 00:22:19 | 50.97630 | 8.27540 | 190° | 29km/h | 27240m | 4.7m/s | -48°C | 0.4% | 19hPa | 2.6V | 18:12:15 | 02:04:47 | 00:00:00 | |
| DM0DOS-11 | 2026-09-03 00:22:19 | 50.97672 | 8.27554 | 182° | 24km/h | 27205m | 5.6m/s | -48°C | 3.4% | 19.1hPa | 2.6V | 08:30:00 | 02:04:40 | 00:00:00 | |
| HSKMA3-T | 2026-09-03 00:22:13 | 50.97666 | 8.27553 | 184° | 20km/h | 27210m | 4.7m/s | -48°C | 0.4% | 19.1hPa | 2.6V | 18:12:15 | 02:04:41 | 00:00:00 | |
| DL1XH1-15 | 2026-09-03 00:22:12 | 50.97678 | 8.27554 | 180° | 26km/h | 27199m | 5.4m/s | -47.9°C | 3.4% | 19.1hPa | 2.5V | 08:30:00 | 02:04:39 | 00:00:00 | |
| AA1-15 | 2026-09-03 00:22:12 | 50.97672 | 8.27554 | 183° | 24km/h | 27205m | 5.6m/s | -48°C | 0.4% | 19.1hPa | 2.6V | 18:12:15 | 02:04:40 | 00:00:00 | |
| DL1XH-west | 2026-09-03 00:22:08 | 50.97696 | 8.27553 | 175° | 22km/h | 27183m | 5.9m/s | -47.9°C | 0.4% | 19.2hPa | 2.5V | 18:12:15 | 02:04:36 | 00:00:00 | |
| DO3MHA-12 | 2026-09-03 00:22:08 | 50.97696 | 8.27553 | 175° | 22km/h | 27183m | 5.9m/s | -47.8°C | 3.4% | 19.2hPa | 2.6V | 00:00:00 | 02:04:36 | 00:00:00 | |
| DM0DOS-11 | 2026-09-03 00:22:07 | 50.97739 | 8.27534 | 153° | 22km/h | 27145m | 5.6m/s | -47.9°C | 3.4% | 19.3hPa | 2.6V | 08:30:00 | 02:04:29 | 00:00:00 | |
| DL1XH1-15 | 2026-09-03 00:22:06 | 50.97739 | 8.27534 | 153° | 22km/h | 27145m | 5.6m/s | -47.9°C | 3.4% | 19.3hPa | 2.6V | 08:30:00 | 02:04:29 | 00:00:00 | |
| DD8BA-10 | 2026-09-03 00:22:05 | 50.97714 | 8.27548 | 167° | 22km/h | 27167m | 6.0m/s | -47.8°C | 3.4% | 19.2hPa | 2.5V | 00:00:00 | 00:00:00 | 00:00:00 | |
| DL1NUX | 2026-09-03 00:22:04 | 50.97727 | 8.27542 | 160° | 27km/h | 27156m | 4.7m/s | -47.9°C | 3.4% | 19.3hPa | 2.5V | 08:30:00 | 02:04:31 | 00:00:00 | |
| HSKMA3-T | 2026-09-03 00:22:03 | 50.97727 | 8.27542 | 160° | 27km/h | 27156m | 4.7m/s | -47.9°C | 0.4% | 19.3hPa | 2.5V | 18:12:15 | 02:04:31 | 00:00:00 | |
| BIOWL1-15 | 2026-09-03 00:22:03 | 50.97765 | 8.27518 | 160° | 22km/h | 27118m | 4.6m/s | -47.8°C | 0.3% | 19.4hPa | 2.6V | 18:12:15 | 02:04:24 | 00:00:00 | |
| AA1-15 | 2026-09-03 00:22:02 | 50.97733 | 8.27538 | 157° | 26km/h | 27150m | 6.3m/s | -47.9°C | 0.4% | 19.3hPa | 2.5V | 18:12:15 | 02:04:30 | 00:00:00 | |
| DL1XH-west | 2026-09-03 00:21:58 | 50.97754 | 8.27524 | 162° | 24km/h | 27128m | 5.7m/s | -47.8°C | 0.3% | 19.4hPa | 2.5V | 18:12:15 | 02:04:26 | 00:00:00 | |
| DL4BBY-15 | 2026-09-03 00:21:57 | 50.97760 | 8.27521 | 164° | 18km/h | 27123m | 4.4m/s | -46.8°C | 0% | 0hPa | 2.6V | 00:00:00 | 00:00:00 | 00:00:00 | |
| GOEST3-10 | 2026-09-03 00:21:55 | 50.97770 | 8.27514 | 154° | 20km/h | 27113m | 6.2m/s | -47.7°C | 3.3% | 19.3hPa | 2.6V | 00:00:00 | 00:00:00 | 00:00:00 | |
| DL3OBA | 2026-09-03 00:21:53 | 50.97775 | 8.27511 | 145° | 18km/h | 27107m | 5.6m/s | -47.8°C | 0.9% | 19.4hPa | 2.5V | 00:00:00 | 00:00:00 | 00:00:00 | |
| DL1XH1-15 | 2026-09-03 00:21:52 | 50.97785 | 8.27496 | 143° | 22km/h | 27091m | 5.8m/s | -47.7°C | 3.3% | 19.5hPa | 2.5V | 08:30:00 | 02:04:19 | 00:00:00 | |
| AA1-15 | 2026-09-03 00:21:52 | 50.97781 | 8.27501 | 139° | 18km/h | 27097m | 5.1m/s | -47.7°C | 0.4% | 19.4hPa | 2.5V | 18:12:15 | 02:04:20 | 00:00:00 | |
| DL1XH-west | 2026-09-03 00:21:48 | 50.97800 | 8.27480 | 138° | 24km/h | 27076m | 6m/s | -47.7°C | 0.4% | 19.5hPa | 2.6V | 18:12:15 | 02:04:16 | 00:00:00 | |
| DD1CC8 | 2026-09-03 00:21:46 | 50.97808 | 8.27466 | 129° | 20km/h | 27064m | 5.1m/s | -47.7°C | 0.9% | 19.6hPa | 2.5V | 00:00:00 | 00:00:00 | 00:00:00 | |
| HSKMA3-T | 2026-09-03 00:21:42 | 50.97821 | 8.27449 | 150° | 13km/h | 27043m | 4.8m/s | -47.6°C | 0.3% | 19.6hPa | 2.5V | 18:12:15 | 02:04:10 | 00:00:00 | |
| AA1-15 | 2026-09-03 00:21:42 | 50.97823 | 8.27446 | 141° | 11km/h | 27038m | 6m/s | -47.6°C | 0.3% | 19.6hPa | 2.5V | 18:12:15 | 02:04:09 | 00:00:00 | |
| DL1XH-west | 2026-09-03 00:21:37 | 50.97833 | 8.27430 | 144° | 18km/h | 27015m | 5.7m/s | -47.7°C | 0.4% | 19.7hPa | 2.6V | 18:12:15 | 02:04:05 | 00:00:00 | |
| HTAHTA | 2026-09-03 00:21:37 | 50.97837 | 8.27426 | 145° | 20km/h | 27010m | 4.4m/s | -47.7°C | 0.9% | 19.7hPa | 2.5V | 00:00:00 | 00:00:00 | 00:00:00 | |
| DM0DOS-11 | 2026-09-03 00:21:36 | 50.97857 | 8.27399 | 159° | 11km/h | 26979m | 5.3m/s | -47.6°C | 3.2% | 19.8hPa | 2.5V | 08:30:00 | 02:03:58 | 00:00:00 | |
| BIOWL1-15 | 2026-09-03 00:21:36 | 50.97837 | 8.27426 | 145° | 22km/h | 27010m | 4.4m/s | -47.7°C | 0.3% | 19.7hPa | 2.6V | 18:12:15 | 02:04:04 | 00:00:00 | |
| DL1XH1-15 | 2026-09-03 00:21:35 | 50.97857 | 8.27399 | 159° | 11km/h | 26979m | 5.3m/s | -47.6°C | 3.2% | 19.8hPa | 2.5V | 08:30:00 | 02:03:58 | 00:00:00 | |
| DJ2DS-15 | 2026-09-03 00:21:35 | 50.97842 | 8.27421 | 141° | 20km/h | 27006m | 5.1m/s | -47.7°C | 0.9% | 19.8hPa | 2.5V | 00:00:00 | 00:00:00 | 00:00:00 | |
| DL1NUX | 2026-09-03 00:21:34 | 50.97849 | 8.27410 | 131° | 18km/h | 26995m | 4.4m/s | -47.6°C | 3.3% | 19.8hPa | 2.5V | 08:30:00 | 02:04:01 | 00:00:00 | |
| HSKMA3-T | 2026-09-03 00:21:32 | 50.97851 | 8.27405 | 134° | 15km/h | 26990m | 4.5m/s | -47.7°C | 0.3% | 19.8hPa | 2.6V | 18:12:15 | 02:04:00 | 00:00:00 | |
| AA1-15 | 2026-09-03 00:21:31 | 50.97859 | 8.27398 | 167° | 9km/h | 26974m | 4.8m/s | -47.6°C | 0.4% | 19.8hPa | 2.5V | 18:12:15 | 02:03:57 | 00:00:00 | |
| DL1XH-15 | 2026-09-03 00:21:31 | 50.97861 | 8.27397 | 159° | 5km/h | 26970m | 4.6m/s | -47.6°C | 3.2% | 19.8hPa | 2.5V | 08:30:00 | 02:03:56 | 00:00:00 | |
| DL1XH-west | 2026-09-03 00:21:27 | 50.97862 | 8.27395 | 123° | 4km/h | 26964m | 6.1m/s | -47.6°C | 0.3% | 19.9hPa | 2.6V | 18:12:15 | 02:03:55 | 00:00:00 | |
| BIOWL1-15 | 2026-09-03 00:21:26 | 50.97862 | 8.27392 | 76° | 5km/h | 26953m | 5m/s | -47.6°C | 0.3% | 19.9hPa | 2.5V | 18:12:15 | 02:03:53 | 00:00:00 | |
| DL1XH1-15 | 2026-09-03 00:21:25 | 50.97868 | 8.27377 | 124° | 15km/h | 26927m | 6.4m/s | -47.6°C | 3.3% | 20hPa | 2.6V | 08:30:00 | 02:03:48 | 00:00:00 | |
| HSKMA3-T | 2026-09-03 00:21:22 | 50.97864 | 8.27385 | 135° | 9km/h | 26937m | 4.7m/s | -47.6°C | 0.3% | 19.9hPa | 2.5V | 18:12:15 | 02:03:50 | 00:00:00 | |
| DD8BA-10 | 2026-09-03 00:21:22 | 50.97864 | 8.27385 | 135° | 13km/h | 26938m | 4.7m/s | -47.6°C | 3.3% | 19.9hPa | 2.5V | 00:00:00 | 00:00:00 | 00:00:00 | |
| DK9SH | 2026-09-03 00:21:21 | 50.97866 | 8.27382 | 132° | 13km/h | 26933m | 4.8m/s | -47.6°C | 0.9% | 20.0hPa | 2.5V | 00:00:00 | 00:00:00 | 00:00:00 | |
| DL1XH-15 | 2026-09-03 00:21:20 | 50.97872 | 8.27366 | 118° | 16km/h | 26916m | 4.8m/s | -47.7°C | 3.3% | 20hPa | 2.5V | 08:30:00 | 02:03:46 | 00:00:00 | |
| AA1-15 | 2026-09-03 00:21:19 | 50.97872 | 8.27366 | 119° | 16km/h | 26916m | 4.8m/s | -47.7°C | 0.3% | 20hPa | 2.5V | 18:12:15 | 02:03:46 | 00:00:00 | |
| DL1XH-west | 2026-09-03 00:21:16 | 50.97876 | 8.27356 | 137° | 13km/h | 26905m | 5.7m/s | -47.8°C | 0.3% | 20hPa | 2.5V | 18:12:15 | 02:03:44 | 00:00:00 | |
| DB0NH | 2026-09-03 00:21:16 | 50.97876 | 8.27356 | 137° | 13km/h | 26906m | 5.7m/s | -47.7°C | 3.3% | 20.0hPa | 2.5V | 00:00:00 | 02:03:44 | 00:00:00 | |
| SONCRA | 2026-09-03 00:21:15 | 50.97879 | 8.27353 | 147° | 9km/h | 26900m | 4.7m/s | -47.8°C | 0.9% | 20.1hPa | 2.5V | 00:00:00 | 00:00:00 | 00:00:00 | |
| DL1NUX | 2026-09-03 00:21:14 | 50.97882 | 8.27349 | 116° | 7km/h | 26890m | 6.1m/s | -47.9°C | 3.3% | 20.1hPa | 2.5V | 08:30:00 | 02:03:41 | 00:00:00 | |
| DB0UT-7 | 2026-09-03 00:21:14 | 50.97880 | 8.27351 | 139° | 13km/h | 26896m | 4.4m/s | -47.8°C | 3.3% | 20.0hPa | 2.5V | 00:00:00 | 02:03:42 | 00:00:00 | |
| DL1XH1-15 | 2026-09-03 00:21:13 | 50.97882 | 8.27336 | 90° | 11km/h | 26873m | 5.9m/s | -47.9°C | 3.3% | 20.1hPa | 2.5V | 08:30:00 | 02:03:38 | 00:00:00 | |
| DO3DL | 2026-09-03 00:21:12 | 50.97882 | 8.27345 | 94° | 9km/h | 26885m | 5.7m/s | -47.9°C | 0.9% | 20.1hPa | 2.6V | 00:00:00 | 00:00:00 | 00:00:00 | |
| DL1XH-15 | 2026-09-03 00:21:11 | 50.97883 | 8.27327 | 103° | 13km/h | 26862m | 4.7m/s | -47.9°C | 3.3% | 20.2hPa | 2.6V | 08:30:00 | 02:03:36 | 00:00:00 | |
| HSKMA3-T | 2026-09-03 00:21:11 | 50.97882 | 8.27341 | 89° | 11km/h | 26879m | 5.4m/s | -47.9°C | 0.3% | 20.1hPa | 2.5V | 18:12:15 | 02:03:39 | 00:00:00 | |
| AA1-15 | 2026-09-03 00:21:08 | 50.97884 | 8.27322 | 104° | 15km/h | 26857m | 4.8m/s | -47.9°C | 0.3% | 20.2hPa | 2.6V | 18:12:15 | 02:03:35 | 00:00:00 | |
| DL1XH-west | 2026-09-03 00:21:06 | 50.97885 | 8.27308 | 99° | 18km/h | 26846m | 5.4m/s | -48°C | 0.4% | 20.2hPa | 2.5V | 18:12:15 | 02:03:33 | 00:00:00 | |
| DO1YAY-16 | 2026-09-03 00:21:05 | 50.97885 | 8.27308 | 99° | 18km/h | 26846m | 5.4m/s | -48.0°C | 0.9% | 20.2hPa | 2.5V | 00:00:00 | 00:00:00 | 00:00:00 | |
| DM0DOS-11 | 2026-09-03 00:21:04 | 50.97890 | 8.27283 | 119° | 7km/h | 26820m | 3.9m/s | -48°C | 3.2% | 20.3hPa | 2.5V | 08:30:00 | 02:03:28 | 00:00:00 | |
| DL1NUX | 2026-09-03 00:21:04 | 50.97887 | 8.27294 | 105° | 16km/h | 26836m | 5.6m/s | -48°C | 3.2% | 20.3hPa | 2.6V | 08:30:00 | 02:03:31 | 00:00:00 | |
| BIOWL1-15 | 2026-09-03 00:21:03 | 50.97887 | 8.27294 | 105° | 16km/h | 26836m | 5.6m/s | -48°C | 0.3% | 20.3hPa | 2.6V | 18:12:15 | 02:03:31 | 00:00:00 | |
| HSKMA3-T | 2026-09-03 00:21:01 | 50.97890 | 8.27286 | 128° | 9km/h | 26825m | 4.9m/s | -48°C | 0.3% | 20.3hPa | 2.5V | 18:12:15 | 02:03:29 | 00:00:00 | |
| AA1-15 | 2026-09-03 00:20:56 | 50.97890 | 8.27265 | 77° | 16km/h | 26799m | 5.1m/s | -48.2°C | 0.3% | 20.3hPa | 2.5V | 18:12:15 | 02:03:24 | 00:00:00 | |
| DL1XH-west | 2026-09-03 00:20:55 | 50.97889 | 8.27259 | 77° | 15km/h | 26794m | 5.8m/s | -48.3°C | 0.3% | 20.4hPa | 2.5V | 18:12:15 | 02:03:23 | 00:00:00 | |
| DL1NUX | 2026-09-03 00:20:54 | 50.97888 | 8.27248 | 84° | 15km/h | 26784m | 4.3m/s | -48.4°C | 3.3% | 20.4hPa | 2.5V | 08:30:00 | 02:03:21 | 00:00:00 | |
| BIOWL1-15 | 2026-09-03 00:20:53 | 50.97888 | 8.27248 | 85° | 15km/h | 26784m | 4.3m/s | -48.4°C | 0.3% | 20.4hPa | 2.5V | 18:12:15 | 02:03:21 | 00:00:00 | |
| SO1NDE-10 | 2026-09-03 00:20:52 | 50.97888 | 8.27242 | 87° | 11km/h | 26779m | 5.4m/s | -48.3°C | 3.3% | 20.4hPa | 2.6V | 00:00:00 | 02:03:20 | 00:00:00 | |
| DL1XH-15 | 2026-09-03 00:20:51 | 50.97886 | 8.27218 | 69° | 11km/h | 26757m | 6.2m/s | -48.5°C | 3.4% | 20.5hPa | 2.5V | 08:30:00 | 02:03:16 | 00:00:00 | |
| HSKMA3-T | 2026-09-03 00:20:50 | 50.97887 | 8.27229 | 86° | 18km/h | 26768m | 4.9m/s | -48.4°C | 0.4% | 20.5hPa | 2.6V | 18:12:15 | 02:03:18 | 00:00:00 | |
| AA1-15 | 2026-09-03 00:20:45 | 50.97881 | 8.27212 | 25° | 9km/h | 26741m | 5.4m/s | -48.6°C | 0.4% | 20.6hPa | 2.6V | 18:12:15 | 02:03:13 | 00:00:00 | |
| SONCRA | 2026-09-03 00:20:45 | 50.97880 | 8.27210 | 44° | 9km/h | 26736m | 5.2m/s | -48.7°C | 0.9% | 20.6hPa | 2.5V | 00:00:00 | 00:00:00 | 00:00:00 | |
| DL1NUX | 2026-09-03 00:20:44 | 50.97878 | 8.27207 | 61° | 11km/h | 26731m | 4.5m/s | -48.7°C | 3.4% | 20.6hPa | 2.5V | 08:30:00 | 02:03:11 | 00:00:00 | |
| BIOWL1-15 | 2026-09-03 00:20:44 | 50.97877 | 8.27203 | 72° | 11km/h | 26726m | 4.6m/s | -48.7°C | 0.4% | 20.6hPa | 2.5V | 18:12:15 | 02:03:10 | 00:00:00 | |
| DB0UT-7 | 2026-09-03 00:20:44 | 50.97880 | 8.27210 | 45° | 11km/h | 26736m | 5.2m/s | -48.6°C | 3.4% | 20.5hPa | 2.5V | 00:00:00 | 00:00:00 | 00:00:00 | |
| DD8BA-10 | 2026-09-03 00:20:42 | 50.97877 | 8.27203 | 72° | 13km/h | 26727m | 4.6m/s | -48.6°C | 3.4% | 20.5hPa | 2.5V | 00:00:00 | 00:00:00 | 00:00:00 | |
| DL1XH-15 | 2026-09-03 00:20:41 | 50.97874 | 8.27186 | 68° | 15km/h | 26706m | 5.6m/s | -48.6°C | 3.4% | 20.7hPa | 2.5V | 08:30:00 | 02:03:06 | 00:00:00 | |
| HSKMA3-T | 2026-09-03 00:20:39 | 50.97875 | 8.27190 | 74° | 11km/h | 26711m | 4.6m/s | -48.7°C | 0.4% | 20.6hPa | 2.5V | 18:12:15 | 02:03:07 | 00:00:00 | |
| DL1XH-west | 2026-09-03 00:20:36 | 50.97868 | 8.27168 | 55° | 15km/h | 26690m | 4.8m/s | -48.6°C | 0.4% | 20.7hPa | 2.6V | 18:12:15 | 02:03:03 | 00:00:00 | |
| AA1-15 | 2026-09-03 00:20:35 | 50.97867 | 8.27164 | 54° | 9km/h | 26685m | 5.8m/s | -48.6°C | 0.4% | 20.7hPa | 2.6V | 18:12:15 | 02:03:02 | 00:00:00 | |
| DD8BA-10 | 2026-09-03 00:20:32 | 50.97866 | 8.27160 | 114° | 9km/h | 26676m | 4.5m/s | -48.6°C | 3.4% | 20.7hPa | 2.6V | 00:00:00 | 00:00:00 | 00:00:00 | |
| DL1XH-15 | 2026-09-03 00:20:31 | 50.97868 | 8.27149 | 96° | 11km/h | 26655m | 4.3m/s | -48.8°C | 3.4% | 20.8hPa | 2.6V | 08:30:00 | 02:02:56 | 00:00:00 | |
| HSKMA3-T | 2026-09-03 00:20:29 | 50.97868 | 8.27154 | 109° | 11km/h | 26659m | 4.7m/s | -48.8°C | 0.4% | 20.8hPa | 2.6V | 18:12:15 | 02:02:57 | 00:00:00 | |
| AU51GT2 | 2026-09-03 00:20:29 | 50.97868 | 8.27149 | 96° | 9km/h | 26655m | 4.3m/s | -48.8°C | 1.0% | 20.8hPa | 2.6V | 00:00:00 | 00:00:00 | 00:00:00 | |
| BIOWL9-15 | 2026-09-03 00:20:28 | 50.97868 | 8.27149 | 96° | 9km/h | 26655m | 4.3m/s | -48.8°C | 1.0% | 20.8hPa | 2.6V | 00:00:00 | 00:00:00 | 00:00:00 | |
| HARRO8 | 2026-09-03 00:20:27 | 50.97868 | 8.27142 | 54° | 7km/h | 26644m | 5.9m/s | -48.9°C | 0.9% | 20.9hPa | 2.6V | 00:00:00 | 00:00:00 | 00:00:00 | |
| DO3MHA-11 | 2026-09-03 00:20:26 | 50.97868 | 8.27142 | 55° | 11km/h | 26644m | 5.8m/s | -48.8°C | 3.4% | 20.8hPa | 2.6V | 00:00:00 | 02:02:54 | 00:00:00 | |
| GOEST3-10 | 2026-09-03 00:20:25 | 50.97866 | 8.27139 | 38° | 13km/h | 26639m | 5.2m/s | -48.9°C | 3.4% | 20.8hPa | 2.6V | 00:00:00 | 02:02:53 | 00:00:00 | |
| DL1NUX | 2026-09-03 00:20:24 | 50.97861 | 8.27133 | 40° | 15km/h | 26627m | 6m/s | -49.1°C | 3.5% | 20.9hPa | 2.6V | 08:30:00 | 02:02:51 | 00:00:00 | |
| DL1XH-west | 2026-09-03 00:20:24 | 50.97863 | 8.27137 | 36° | 13km/h | 26633m | 5.5m/s | -49°C | 0.4% | 20.9hPa | 2.6V | 18:12:15 | 02:02:52 | 00:00:00 | |
| AA1-15 | 2026-09-03 00:20:23 | 50.97861 | 8.27133 | 40° | 15km/h | 26627m | 6m/s | -49.1°C | 0.5% | 20.9hPa | 2.6V | 18:12:15 | 02:02:51 | 00:00:00 | |
| DJ2DS-15 | 2026-09-03 00:20:23 | 50.97858 | 8.27129 | 42° | 15km/h | 26622m | 4.9m/s | -49.2°C | 1.0% | 20.9hPa | 2.6V | 00:00:00 | 00:00:00 | 00:00:00 | |
| DL1XH-15 | 2026-09-03 00:20:22 | 50.97849 | 8.27119 | 38° | 7km/h | 26601m | 4.4m/s | -49.3°C | 3.5% | 21hPa | 2.6V | 08:30:00 | 02:02:46 | 00:00:00 | |
| BIOWL1-15 | 2026-09-03 00:20:21 | 50.97848 | 8.27117 | 60° | 7km/h | 26596m | 6.1m/s | -49.3°C | 0.5% | 21hPa | 2.6V | 18:12:15 | 02:02:45 | 00:00:00 | |
| HSKMA3-T | 2026-09-03 00:20:19 | 50.97850 | 8.27121 | 25° | 9km/h | 26606m | 4.9m/s | -49.2°C | 0.5% | 21hPa | 2.5V | 18:12:15 | 02:02:47 | 00:00:00 | |
| DL3AQ-11 | 2026-09-03 00:20:18 | 50.97848 | 8.27117 | 59° | 5km/h | 26596m | 6.1m/s | -49.3°C | 1.0% | 21.0hPa | 2.5V | 00:00:00 | 00:00:00 | 00:00:00 | |
| DB0ND-19 | 2026-09-03 00:20:17 | 50.97848 | 8.27117 | 59° | 5km/h | 26596m | 6.1m/s | -49.3°C | 1.0% | 21.0hPa | 2.5V | 00:00:00 | 00:00:00 | 00:00:00 | |
| WPPR-10 | 2026-09-03 00:20:16 | 50.97846 | 8.27111 | 72° | 7km/h | 26586m | 4.3m/s | -49.3°C | 1.0% | 21.0hPa | 2.5V | 00:00:00 | 00:00:00 | 00:00:00 | |
| DL1XH1-15 | 2026-09-03 00:20:15 | 50.97837 | 8.27101 | 24° | 13km/h | 26559m | 5.6m/s | -49.3°C | 3.6% | 21.1hPa | 2.5V | 08:30:00 | 02:02:38 | 00:00:00 | |
| DL1XH-west | 2026-09-03 00:20:14 | 50.97845 | 8.27107 | 60° | 9km/h | 26581m | 5.7m/s | -49.4°C | 0.6% | 21.1hPa | 2.5V | 18:12:15 | 02:02:42 | 00:00:00 | |
| AA1-15 | 2026-09-03 00:20:13 | 50.97844 | 8.27105 | 35° | 9km/h | 26575m | 5.7m/s | -49.3°C | 0.5% | 21.1hPa | 2.5V | 18:12:15 | 02:02:41 | 00:00:00 | |
| HSKMA3-T | 2026-09-03 00:20:09 | 50.97831 | 8.27095 | 36° | 13km/h | 26549m | 4.4m/s | -49.3°C | 0.5% | 21.2hPa | 2.5V | 18:12:15 | 02:02:36 | 00:00:00 | |
| BIOWL1-15 | 2026-09-03 00:20:09 | 50.97808 | 8.27091 | 0° | 11km/h | 26491m | 4.7m/s | -49.3°C | 0.5% | 21.4hPa | 2.5V | 18:12:15 | 02:02:25 | 00:00:00 | |
| DF7PN | 2026-09-03 00:20:08 | 50.97831 | 8.27095 | 35° | 13km/h | 26549m | 4.4m/s | -49.3°C | 1.0% | 21.2hPa | 2.6V | 00:00:00 | 00:00:00 | 00:00:00 | |
| DD1CC3-15 | 2026-09-03 00:20:07 | 50.97831 | 8.27095 | 37° | 13km/h | 26549m | 4.4m/s | -49.3°C | 1.0% | 21.2hPa | 2.6V | 00:00:00 | 00:00:00 | 00:00:00 | |
| DO3MHA-11 | 2026-09-03 00:20:06 | 50.97825 | 8.27091 | 11° | 7km/h | 26539m | 6.2m/s | -49.3°C | 3.6% | 21.1hPa | 2.6V | 00:00:00 | 02:02:34 | 00:00:00 | |
| DL1XH1-15 | 2026-09-03 00:20:05 | 50.97814 | 8.27093 | 34° | 5km/h | 26508m | 4.5m/s | -49.3°C | 3.5% | 21.3hPa | 2.6V | 08:30:00 | 02:02:28 | 00:00:00 | |
| DL1NUX | 2026-09-03 00:20:04 | 50.97818 | 8.27094 | 339° | 9km/h | 26523m | 4.9m/s | -49.3°C | 3.5% | 21.2hPa | 2.5V | 08:30:00 | 02:02:31 | 00:00:00 | |
| DL1XH-west | 2026-09-03 00:20:04 | 50.97820 | 8.27092 | 338° | 11km/h | 26528m | 4.6m/s | -49.3°C | 0.5% | 21.3hPa | 2.5V | 18:12:15 | 02:02:32 | 00:00:00 | |
| AA1-15 | 2026-09-03 00:20:03 | 50.97818 | 8.27094 | 339° | 9km/h | 26523m | 4.9m/s | -49.3°C | 0.5% | 21.2hPa | 2.5V | 18:12:15 | 02:02:31 | 00:00:00 | |
| HSKMA3-T | 2026-09-03 00:19:58 | 50.97810 | 8.27091 | 5° | 9km/h | 26497m | 5.6m/s | -49.3°C | 0.5% | 21.3hPa | 2.5V | 18:12:15 | 02:02:26 | 00:00:00 | |
| BIOWL1-15 | 2026-09-03 00:19:58 | 50.97805 | 8.27091 | 6° | 9km/h | 26487m | 4.6m/s | -49.3°C | 0.5% | 21.4hPa | 2.5V | 18:12:15 | 02:02:24 | 00:00:00 | |
| AU51GT2 | 2026-09-03 00:19:58 | 50.97808 | 8.27091 | 0° | 9km/h | 26492m | 4.7m/s | -49.3°C | 1.0% | 21.4hPa | 2.6V | 00:00:00 | 00:00:00 | 00:00:00 | |
| BIOWL9-15 | 2026-09-03 00:19:57 | 50.97808 | 8.27091 | 0° | 9km/h | 26492m | 4.7m/s | -49.3°C | 1.0% | 21.4hPa | 2.6V | 00:00:00 | 00:00:00 | 00:00:00 | |
| HARRO8 | 2026-09-03 00:19:56 | 50.97803 | 8.27090 | 18° | 7km/h | 26482m | 6.1m/s | -49.3°C | 1.0% | 21.4hPa | 2.6V | 00:00:00 | 00:00:00 | 00:00:00 | |
| DM0DOS-11 | 2026-09-03 00:19:55 | 50.97795 | 8.27087 | 329° | 7km/h | 26451m | 4.5m/s | -49.5°C | 3.5% | 21.5hPa | 2.6V | 08:30:00 | 02:02:17 | 00:00:00 | |
| DL1XH1-15 | 2026-09-03 00:19:54 | 50.97797 | 8.27086 | 336° | 7km/h | 26456m | 5.2m/s | -49.4°C | 3.5% | 21.5hPa | 2.5V | 08:30:00 | 02:02:18 | 00:00:00 | |
| DL1NUX | 2026-09-03 00:19:54 | 50.97800 | 8.27087 | 43° | 5km/h | 26471m | 4.2m/s | -49.4°C | 3.5% | 21.4hPa | 2.5V | 08:30:00 | 02:02:21 | 00:00:00 | |
| DL1XH-west | 2026-09-03 00:19:53 | 50.97800 | 8.27087 | 43° | 5km/h | 26471m | 4.2m/s | -49.4°C | 0.5% | 21.4hPa | 2.5V | 18:12:15 | 02:02:21 | 00:00:00 | |
| AA1-15 | 2026-09-03 00:19:52 | 50.97799 | 8.27086 | 31° | 5km/h | 26467m | 4.9m/s | -49.4°C | 0.5% | 21.4hPa | 2.5V | 18:12:15 | 02:02:20 | 00:00:00 | |
| HSKMA3-T | 2026-09-03 00:19:48 | 50.97794 | 8.27088 | 335° | 4km/h | 26447m | 4.6m/s | -49.5°C | 0.5% | 21.5hPa | 2.6V | 18:12:15 | 02:02:16 | 00:00:00 | |
| BIOWL1-15 | 2026-09-03 00:19:46 | 50.97793 | 8.27087 | 95° | 4km/h | 26435m | 5.5m/s | -49.6°C | 0.5% | 21.5hPa | 2.5V | 18:12:15 | 02:02:14 | 00:00:00 | |
| DO3MHA-11 | 2026-09-03 00:19:45 | 50.97793 | 8.27086 | 97° | 4km/h | 26430m | 4.9m/s | -49.5°C | 3.6% | 21.5hPa | 2.5V | 00:00:00 | 02:02:13 | 00:00:00 | |
| DB0UT-7 | 2026-09-03 00:19:44 | 50.97793 | 8.27085 | 80° | 7km/h | 26425m | 6.0m/s | -49.5°C | 3.6% | 21.5hPa | 2.5V | 00:00:00 | 00:00:00 | 00:00:00 | |
| DL1XH1-15 | 2026-09-03 00:19:43 | 50.97794 | 8.27086 | 187° | 4km/h | 26403m | 5.6m/s | -49.7°C | 3.6% | 21.6hPa | 2.5V | 08:30:00 | 02:02:08 | 00:00:00 | |
| DL1XH-west | 2026-09-03 00:19:43 | 50.97793 | 8.27085 | 332° | 2km/h | 26419m | 5.3m/s | -49.6°C | 0.6% | 21.6hPa | 2.6V | 18:12:15 | 02:02:11 | 00:00:00 | |
| AA1-15 | 2026-09-03 00:19:42 | 50.97793 | 8.27085 | 274° | 2km/h | 26414m | 4.7m/s | -49.6°C | 0.5% | 21.6hPa | 2.6V | 18:12:15 | 02:02:10 | 00:00:00 | |
| DD1CC8 | 2026-09-03 00:19:42 | 50.97793 | 8.27086 | 217° | 2km/h | 26409m | 5.8m/s | -49.7°C | 1.0% | 21.6hPa | 2.5V | 00:00:00 | 00:00:00 | 00:00:00 | |
| DO3MHA-12 | 2026-09-03 00:19:41 | 50.97793 | 8.27086 | 218° | 4km/h | 26409m | 5.8m/s | -49.6°C | 3.6% | 21.6hPa | 2.5V | 00:00:00 | 02:02:09 | 00:00:00 | |
| DM0DOS-11 | 2026-09-03 00:19:40 | 50.97795 | 8.27087 | 186° | 5km/h | 26398m | 4.5m/s | -49.7°C | 3.6% | 21.6hPa | 2.5V | 08:30:00 | 02:02:07 | 00:00:00 | |
| DL1XH-15 | 2026-09-03 00:19:39 | 50.97796 | 8.27087 | 203° | 4km/h | 26393m | 5.2m/s | -49.7°C | 3.6% | 21.7hPa | 2.6V | 08:30:00 | 02:02:06 | 00:00:00 | |
| HSKMA3-T | 2026-09-03 00:19:38 | 50.97796 | 8.27087 | 204° | 5km/h | 26393m | 5.2m/s | -49.7°C | 0.5% | 21.7hPa | 2.6V | 18:12:15 | 02:02:06 | 00:00:00 | |
| BIOWL1-15 | 2026-09-03 00:19:36 | 50.97797 | 8.27087 | 71° | 4km/h | 26356m | 4.7m/s | -49.7°C | 0.6% | 21.8hPa | 2.5V | 18:12:15 | 02:01:59 | 00:00:00 | |
| DO3MHA-11 | 2026-09-03 00:19:35 | 50.97797 | 8.27091 | 287° | 5km/h | 26378m | 4.3m/s | -49.6°C | 3.6% | 21.7hPa | 2.5V | 00:00:00 | 02:02:03 | 00:00:00 | |
| DM0DOS-11 | 2026-09-03 00:19:34 | 50.97795 | 8.27087 | 334° | 9km/h | 26345m | 6m/s | -49.7°C | 3.5% | 21.8hPa | 2.5V | 08:30:00 | 02:01:57 | 00:00:00 | |
| GOEST3-10 | 2026-09-03 00:19:34 | 50.97797 | 8.27091 | 119° | 4km/h | 26373m | 5.8m/s | -49.6°C | 3.6% | 21.7hPa | 2.5V | 00:00:00 | 02:02:02 | 00:00:00 | |
| DL1NUX | 2026-09-03 00:19:34 | 50.97797 | 8.27091 | 106° | 4km/h | 26367m | 5.9m/s | -49.7°C | 3.6% | 21.8hPa | 2.6V | 08:30:00 | 02:02:01 | 00:00:00 | |
| DO3DL | 2026-09-03 00:19:33 | 50.97797 | 8.27091 | 0° | 0km/h | 26373m | 5.8m/s | -49.7°C | 1.0% | 21.7hPa | 2.5V | 00:00:00 | 00:00:00 | 00:00:00 | |
| DL1XH1-15 | 2026-09-03 00:19:32 | 50.97797 | 8.27086 | 11° | 4km/h | 26351m | 5.8m/s | -49.7°C | 3.6% | 21.8hPa | 2.5V | 08:30:00 | 02:01:58 | 00:00:00 | |
| AA1-15 | 2026-09-03 00:19:32 | 50.97797 | 8.27089 | 100° | 5km/h | 26361m | 4.9m/s | -49.7°C | 0.5% | 21.8hPa | 2.6V | 18:12:15 | 02:02:00 | 00:00:00 | |
| DO9LL-15 | 2026-09-03 00:19:32 | 50.97797 | 8.27089 | 101° | 9km/h | 26362m | 4.8m/s | -49.6°C | 3.6% | 21.8hPa | 2.5V | 00:00:00 | 02:02:00 | 00:00:00 | |
| DL1XH-15 | 2026-09-03 00:19:31 | 50.97793 | 8.27089 | 321° | 13km/h | 26340m | 5m/s | -49.7°C | 3.6% | 21.8hPa | 2.5V | 08:30:00 | 02:01:56 | 00:00:00 | |
| HSKMA3-T | 2026-09-03 00:19:27 | 50.97791 | 8.27092 | 314° | 13km/h | 26335m | 5m/s | -49.7°C | 0.5% | 21.9hPa | 2.6V | 18:12:15 | 02:01:55 | 00:00:00 | |
| BIOWL1-15 | 2026-09-03 00:19:25 | 50.97788 | 8.27100 | 279° | 9km/h | 26324m | 5m/s | -49.7°C | 0.5% | 21.9hPa | 2.6V | 18:12:15 | 02:01:53 | 00:00:00 | |
| DO3MHA-11 | 2026-09-03 00:19:25 | 50.97788 | 8.27100 | 279° | 11km/h | 26324m | 5.0m/s | -49.6°C | 3.6% | 21.9hPa | 2.5V | 00:00:00 | 02:01:53 | 00:00:00 | |
| DL1NUX | 2026-09-03 00:19:24 | 50.97789 | 8.27108 | 251° | 11km/h | 26313m | 6.1m/s | -49.6°C | 3.6% | 21.9hPa | 2.5V | 08:30:00 | 02:01:51 | 00:00:00 | |
| GOEST3-10 | 2026-09-03 00:19:24 | 50.97788 | 8.27104 | 259° | 9km/h | 26319m | 5.0m/s | -49.6°C | 3.5% | 21.9hPa | 2.6V | 00:00:00 | 02:01:52 | 00:00:00 | |
| DD1CC1-15 | 2026-09-03 00:19:23 | 50.97788 | 8.27104 | 260° | 11km/h | 26319m | 5.1m/s | -49.7°C | 1.0% | 21.9hPa | 2.6V | 00:00:00 | 00:00:00 | 00:00:00 | |
| DL1XH1-15 | 2026-09-03 00:19:22 | 50.97793 | 8.27116 | 184° | 7km/h | 26299m | 4.8m/s | -49.7°C | 3.6% | 22hPa | 2.6V | 08:30:00 | 02:01:48 | 00:00:00 | |
| SO1NDE-10 | 2026-09-03 00:19:22 | 50.97790 | 8.27112 | 244° | 9km/h | 26308m | 4.9m/s | -49.6°C | 3.6% | 21.9hPa | 2.5V | 00:00:00 | 02:01:50 | 00:00:00 | |
| DL1XH-15 | 2026-09-03 00:19:21 | 50.97797 | 8.27113 | 135° | 13km/h | 26287m | 5.4m/s | -49.7°C | 3.6% | 22.1hPa | 2.5V | 08:30:00 | 02:01:46 | 00:00:00 | |
| DL1XH-west | 2026-09-03 00:19:21 | 50.97791 | 8.27115 | 223° | 9km/h | 26303m | 4.1m/s | -49.7°C | 0.5% | 21.9hPa | 2.6V | 18:12:15 | 02:01:49 | 00:00:00 | |
| DM0DOS-11 | 2026-09-03 00:19:21 | 50.97795 | 8.27115 | 155° | 11km/h | 26293m | 6.5m/s | -49.7°C | 3.6% | 22hPa | 2.5V | 08:30:00 | 02:01:47 | 00:00:00 | |
| HSKMA3-T | 2026-09-03 00:19:16 | 50.97801 | 8.27105 | 107° | 9km/h | 26277m | 6m/s | -49.7°C | 0.5% | 22.1hPa | 2.6V | 18:12:15 | 02:01:44 | 00:00:00 | |
| DL1XH1-15 | 2026-09-03 00:19:15 | 50.97800 | 8.27111 | 250° | 9km/h | 26240m | 6m/s | -49.7°C | 3.6% | 22.2hPa | 2.6V | 08:30:00 | 02:01:37 | 00:00:00 | |
| DM0DOS-11 | 2026-09-03 00:19:15 | 50.97800 | 8.27111 | 250° | 9km/h | 26240m | 6m/s | -49.7°C | 3.6% | 22.2hPa | 2.6V | 08:30:00 | 02:01:37 | 00:00:00 | |
| DL1NUX | 2026-09-03 00:19:14 | 50.97799 | 8.27101 | 324° | 4km/h | 26261m | 5.8m/s | -49.7°C | 3.6% | 22.1hPa | 2.5V | 08:30:00 | 02:01:41 | 00:00:00 | |
| DB0UT-7 | 2026-09-03 00:19:14 | 50.97800 | 8.27101 | 13° | 11km/h | 26266m | 4.9m/s | -49.7°C | 3.6% | 22.1hPa | 2.5V | 00:00:00 | 02:01:42 | 08:30:00 | |
| DO3DL | 2026-09-03 00:19:13 | 50.97799 | 8.27101 | 326° | 4km/h | 26261m | 5.8m/s | -49.7°C | 1.0% | 22.1hPa | 2.6V | 00:00:00 | 00:00:00 | 00:00:00 | |
| DL1XH-15 | 2026-09-03 00:19:11 | 50.97802 | 8.27115 | 243° | 9km/h | 26234m | 5m/s | -49.7°C | 3.6% | 22.2hPa | 2.6V | 08:30:00 | 02:01:36 | 00:00:00 | |
| AA1-15 | 2026-09-03 00:19:11 | 50.97799 | 8.27105 | 254° | 7km/h | 26250m | 4.8m/s | -49.7°C | 0.5% | 22.2hPa | 2.5V | 18:12:15 | 02:01:39 | 00:00:00 | |
| DL1XH-west | 2026-09-03 00:19:10 | 50.97800 | 8.27108 | 250° | 9km/h | 26245m | 4.7m/s | -49.7°C | 0.5% | 22.2hPa | 2.6V | 18:12:15 | 02:01:38 | 00:00:00 | |
| HSKMA3-T | 2026-09-03 00:19:05 | 50.97808 | 8.27119 | 166° | 15km/h | 26219m | 6.2m/s | -49.8°C | 0.6% | 22.3hPa | 2.5V | 18:12:15 | 02:01:33 | 00:00:00 | |
| DO3MHA-11 | 2026-09-03 00:19:05 | 50.97808 | 8.27119 | 167° | 11km/h | 26219m | 6.1m/s | -49.8°C | 3.6% | 22.2hPa | 2.6V | 00:00:00 | 02:01:33 | 00:00:00 | |
| DL1NUX | 2026-09-03 00:19:04 | 50.97816 | 8.27112 | 141° | 18km/h | 26208m | 4.5m/s | -49.8°C | 3.6% | 22.3hPa | 2.6V | 08:30:00 | 02:01:31 | 00:00:00 | |
| GOEST3-10 | 2026-09-03 00:19:04 | 50.97812 | 8.27116 | 152° | 13km/h | 26213m | 4.9m/s | -49.8°C | 3.6% | 22.2hPa | 2.6V | 00:00:00 | 02:01:32 | 00:00:00 | |
| DM0DOS-11 | 2026-09-03 00:19:02 | 50.97822 | 8.27100 | 72° | 2km/h | 26188m | 6m/s | -49.9°C | 3.7% | 22.4hPa | 2.6V | 08:30:00 | 02:01:27 | 00:00:00 | |
| DL1XH-15 | 2026-09-03 00:19:01 | 50.97821 | 8.27100 | 324° | 2km/h | 26182m | 5.4m/s | -49.9°C | 3.6% | 22.4hPa | 2.6V | 08:30:00 | 02:01:26 | 00:00:00 | |
| AA1-15 | 2026-09-03 00:19:01 | 50.97821 | 8.27104 | 118° | 9km/h | 26198m | 5m/s | -49.9°C | 0.6% | 22.4hPa | 2.5V | 18:12:15 | 02:01:29 | 00:00:00 | |
| DL1XH-west | 2026-09-03 00:19:00 | 50.97822 | 8.27101 | 97° | 5km/h | 26193m | 4.6m/s | -49.9°C | 0.5% | 22.4hPa | 2.5V | 18:12:15 | 02:01:28 | 00:00:00 | |
| HSKMA3-T | 2026-09-03 00:18:55 | 50.97819 | 8.27108 | 295° | 13km/h | 26166m | 5.7m/s | -49.9°C | 0.6% | 22.4hPa | 2.5V | 18:12:15 | 02:01:23 | 00:00:00 | |
| DO3MHA-11 | 2026-09-03 00:18:55 | 50.97819 | 8.27108 | 295° | 13km/h | 26166m | 5.6m/s | -49.9°C | 3.6% | 22.4hPa | 2.6V | 00:00:00 | 02:01:23 | 00:00:00 | |
| DL1NUX | 2026-09-03 00:18:54 | 50.97818 | 8.27115 | 252° | 5km/h | 26157m | 4.1m/s | -49.9°C | 3.6% | 22.5hPa | 2.6V | 08:30:00 | 02:01:21 | 00:00:00 | |
| BIOWL1-15 | 2026-09-03 00:18:52 | 50.97825 | 8.27112 | 140° | 20km/h | 26141m | 5.5m/s | -49.9°C | 0.6% | 22.6hPa | 2.5V | 18:12:15 | 02:01:18 | 00:00:00 | |
| DL1XH-15 | 2026-09-03 00:18:52 | 50.97831 | 8.27100 | 122° | 18km/h | 26129m | 5.1m/s | -49.9°C | 3.6% | 22.6hPa | 2.5V | 08:30:00 | 02:01:16 | 00:00:00 | |
| AA1-15 | 2026-09-03 00:18:51 | 50.97821 | 8.27116 | 153° | 13km/h | 26146m | 5.9m/s | -49.9°C | 0.6% | 22.5hPa | 2.6V | 18:12:15 | 02:01:19 | 00:00:00 | |
| DJ2DS-15 | 2026-09-03 00:18:51 | 50.97821 | 8.27116 | 154° | 11km/h | 26146m | 5.8m/s | -49.8°C | 3.6% | 22.5hPa | 2.6V | 00:00:00 | 02:01:19 | 00:00:00 | |
| DM0DOS-11 | 2026-09-03 00:18:50 | 50.97828 | 8.27106 | 130° | 20km/h | 26135m | 5.7m/s | -49.9°C | 3.6% | 22.6hPa | 2.5V | 08:30:00 | 02:01:17 | 00:00:00 | |
| DL1XH-west | 2026-09-03 00:18:49 | 50.97828 | 8.27106 | 130° | 20km/h | 26135m | 5.7m/s | -49.9°C | 0.5% | 22.6hPa | 2.5V | 18:12:15 | 02:01:17 | 00:00:00 | |
| HSKMA3-T | 2026-09-03 00:18:45 | 50.97836 | 8.27086 | 121° | 9km/h | 26115m | 5.6m/s | -49.9°C | 0.6% | 22.6hPa | 2.5V | 18:12:15 | 02:01:13 | 00:00:00 | |
| DO3MHA-11 | 2026-09-03 00:18:45 | 50.97836 | 8.27086 | 122° | 5km/h | 26116m | 5.5m/s | -49.8°C | 3.6% | 22.6hPa | 2.5V | 00:00:00 | 02:01:13 | 08:30:00 | |
| DB0UT-7 | 2026-09-03 00:18:44 | 50.97837 | 8.27083 | 137° | 7km/h | 26110m | 5.3m/s | -49.8°C | 3.6% | 22.6hPa | 2.5V | 00:00:00 | 00:00:00 | 00:00:00 | |
| EDDB2-11 | 2026-09-03 00:18:43 | 50.97838 | 8.27082 | 160° | 2km/h | 26105m | 4.9m/s | -49.9°C | 1.0% | 22.6hPa | 2.5V | 00:00:00 | 00:00:00 | 00:00:00 | |
| DL1XH-15 | 2026-09-03 00:18:42 | 50.97836 | 8.27085 | 105° | 2km/h | 26079m | 5.6m/s | -49.8°C | 3.6% | 22.7hPa | 2.5V | 08:30:00 | 02:01:06 | 00:00:00 | |
| DO3DL | 2026-09-03 00:18:42 | 50.97838 | 8.27082 | 0° | 0km/h | 26100m | 4.8m/s | -49.9°C | 1.0% | 22.7hPa | 2.5V | 00:00:00 | 00:00:00 | 00:00:00 | |
| DL1XH1-15 | 2026-09-03 00:18:41 | 50.97836 | 8.27085 | 349° | 4km/h | 26084m | 4.3m/s | -49.8°C | 3.6% | 22.8hPa | 2.5V | 08:30:00 | 02:01:07 | 00:00:00 | |
| AA1-15 | 2026-09-03 00:18:40 | 50.97837 | 8.27084 | 332° | 5km/h | 26088m | 5.4m/s | -49.8°C | 0.5% | 22.7hPa | 2.5V | 18:12:15 | 02:01:08 | 00:00:00 | |
| BIOWL1-15 | 2026-09-03 00:18:39 | 50.97836 | 8.27085 | 350° | 4km/h | 26084m | 4.3m/s | -49.8°C | 0.6% | 22.8hPa | 2.5V | 18:12:15 | 02:01:07 | 00:00:00 | |
| DL1XH-west | 2026-09-03 00:18:38 | 50.97836 | 8.27085 | 106° | 2km/h | 26079m | 5.6m/s | -49.8°C | 0.5% | 22.7hPa | 2.5V | 18:12:15 | 02:01:06 | 00:00:00 | |
| HSKMA3-T | 2026-09-03 00:18:35 | 50.97841 | 8.27076 | 133° | 16km/h | 26063m | 4.8m/s | -49.9°C | 0.6% | 22.8hPa | 2.6V | 18:12:15 | 02:01:03 | 00:00:00 | |
| DF7PN | 2026-09-03 00:18:35 | 50.97844 | 8.27071 | 126° | 15km/h | 26058m | 5.9m/s | -49.9°C | 1.0% | 22.8hPa | 2.5V | 00:00:00 | 00:00:00 | 00:00:00 | |
| DL8DAS-15 | 2026-09-03 00:18:34 | 50.97844 | 8.27071 | 128° | 16km/h | 26058m | 5.9m/s | -49.9°C | 1.0% | 22.8hPa | 2.5V | 00:00:00 | 00:00:00 | 00:00:00 | |
| BIOWL7-15 | 2026-09-03 00:18:33 | 50.97846 | 8.27066 | 121° | 15km/h | 26052m | 5.0m/s | -49.9°C | 1.0% | 22.9hPa | 2.5V | 00:00:00 | 00:00:00 | 00:00:00 | |
| DO9LL-15 | 2026-09-03 00:18:32 | 50.97848 | 8.27061 | 116° | 9km/h | 26048m | 4.4m/s | -49.8°C | 3.6% | 22.8hPa | 2.5V | 00:00:00 | 02:01:00 | 00:00:00 | |
| DL1XH-15 | 2026-09-03 00:18:31 | 50.97854 | 8.27052 | 192° | 5km/h | 26026m | 4.8m/s | -50°C | 3.6% | 22.9hPa | 2.5V | 08:30:00 | 02:00:56 | 00:00:00 | |
| DL1XH1-15 | 2026-09-03 00:18:31 | 50.97852 | 8.27053 | 160° | 7km/h | 26031m | 5.4m/s | -49.9°C | 3.6% | 22.9hPa | 2.6V | 08:30:00 | 02:00:57 | 00:00:00 | |
| AA1-15 | 2026-09-03 00:18:30 | 50.97851 | 8.27054 | 136° | 9km/h | 26037m | 6.2m/s | -49.9°C | 0.5% | 22.9hPa | 2.6V | 18:12:15 | 02:00:58 | 00:00:00 | |
| BIOWL1-15 | 2026-09-03 00:18:28 | 50.97855 | 8.27055 | 281° | 5km/h | 26016m | 6m/s | -50°C | 0.5% | 23hPa | 2.5V | 18:12:15 | 02:00:54 | 00:00:00 | |
| DL1XH-west | 2026-09-03 00:18:27 | 50.97855 | 8.27053 | 234° | 5km/h | 26021m | 5.2m/s | -50°C | 0.5% | 23hPa | 2.5V | 18:12:15 | 02:00:55 | 00:00:00 | |
| HSKMA3-T | 2026-09-03 00:18:24 | 50.97853 | 8.27058 | 346° | 4km/h | 26006m | 3.6m/s | -50°C | 0.5% | 23hPa | 2.6V | 18:12:15 | 02:00:52 | 00:00:00 | |
| BIOWL9-15 | 2026-09-03 00:18:24 | 50.97853 | 8.27058 | 59° | 2km/h | 26002m | 5.5m/s | -50.0°C | 1.0% | 23.0hPa | 2.6V | 00:00:00 | 00:00:00 | 00:00:00 | |
| HARRO8 | 2026-09-03 00:18:23 | 50.97853 | 8.27056 | 106° | 7km/h | 25996m | 6.0m/s | -50.0°C | 1.0% | 23.1hPa | 2.6V | 00:00:00 | 00:00:00 | 00:00:00 | |
| SO1NDE-10 | 2026-09-03 00:18:22 | 50.97853 | 8.27056 | 107° | 9km/h | 25996m | 6.0m/s | -50.0°C | 3.6% | 23.0hPa | 2.6V | 00:00:00 | 02:00:50 | 00:00:00 | |
| DL1XH-15 | 2026-09-03 00:18:21 | 50.97858 | 8.27034 | 106° | 13km/h | 25976m | 4.3m/s | -50.2°C | 3.6% | 23.1hPa | 2.6V | 08:30:00 | 02:00:46 | 00:00:00 | |
| AA1-15 | 2026-09-03 00:18:20 | 50.97855 | 8.27046 | 111° | 16km/h | 25985m | 4.8m/s | -50.1°C | 0.5% | 23.1hPa | 2.5V | 18:12:15 | 02:00:48 | 00:00:00 | |
| BIOWL1-15 | 2026-09-03 00:18:17 | 50.97859 | 8.27028 | 139° | 4km/h | 25967m | 5.1m/s | -50.2°C | 0.6% | 23.1hPa | 2.5V | 18:12:15 | 02:00:44 | 00:00:00 | |
| DL1XH-west | 2026-09-03 00:18:17 | 50.97858 | 8.27030 | 109° | 7km/h | 25971m | 4.6m/s | -50.2°C | 0.6% | 23.1hPa | 2.6V | 18:12:15 | 02:00:45 | 00:00:00 | |
| HSKMA3-T | 2026-09-03 00:18:14 | 50.97861 | 8.27029 | 214° | 5km/h | 25956m | 4.9m/s | -50.3°C | 0.6% | 23.1hPa | 2.5V | 18:12:15 | 02:00:42 | 00:00:00 | |
| DL1NUX | 2026-09-03 00:18:14 | 50.97862 | 8.27030 | 209° | 4km/h | 25951m | 4.5m/s | -50.3°C | 3.7% | 23.2hPa | 2.6V | 08:30:00 | 02:00:41 | 00:00:00 | |
| DB0UT-7 | 2026-09-03 00:18:14 | 50.97861 | 8.27029 | 214° | 9km/h | 25956m | 4.8m/s | -50.2°C | 3.7% | 23.1hPa | 2.6V | 00:00:00 | 02:00:42 | 00:00:00 | |
| DB0ND-19 | 2026-09-03 00:18:13 | 50.97862 | 8.27030 | 209° | 2km/h | 25952m | 4.6m/s | -50.3°C | 1.0% | 23.2hPa | 2.6V | 00:00:00 | 00:00:00 | 00:00:00 | |
| NBG1-10 | 2026-09-03 00:18:12 | 50.97862 | 8.27030 | 54° | 9km/h | 25947m | 4.7m/s | -50.3°C | 3.7% | 23.2hPa | 2.6V | 00:00:00 | 02:00:40 | 00:00:00 | |
| DL1XH-15 | 2026-09-03 00:18:11 | 50.97854 | 8.27020 | 44° | 15km/h | 25927m | 4.7m/s | -50.3°C | 3.7% | 23.3hPa | 2.6V | 08:30:00 | 02:00:36 | 00:00:00 | |
| AA1-15 | 2026-09-03 00:18:09 | 50.97857 | 8.27024 | 37° | 15km/h | 25931m | 4.4m/s | -50.3°C | 0.7% | 23.3hPa | 2.5V | 18:12:15 | 02:00:37 | 00:00:00 | |
| DL1XH-west | 2026-09-03 00:18:07 | 50.97852 | 8.27016 | 56° | 13km/h | 25921m | 5.9m/s | -50.3°C | 0.6% | 23.3hPa | 2.6V | 18:12:15 | 02:00:35 | 00:00:00 | |
| BIOWL1-15 | 2026-09-03 00:18:06 | 50.97850 | 8.27008 | 87° | 9km/h | 25911m | 4.3m/s | -50.3°C | 0.6% | 23.4hPa | 2.5V | 18:12:15 | 02:00:33 | 00:00:00 | |
| HSKMA3-T | 2026-09-03 00:18:03 | 50.97849 | 8.27001 | 73° | 7km/h | 25901m | 5.6m/s | -50.3°C | 0.6% | 23.4hPa | 2.6V | 18:12:15 | 02:00:31 | 00:00:00 | |
| DO9LL-15 | 2026-09-03 00:18:02 | 50.97848 | 8.26997 | 53° | 7km/h | 25896m | 5.4m/s | -50.2°C | 3.7% | 23.4hPa | 2.5V | 00:00:00 | 02:00:30 | 00:00:00 | |
| DL1XH-15 | 2026-09-03 00:18:01 | 50.97842 | 8.26989 | 39° | 7km/h | 25875m | 5.3m/s | -50.3°C | 3.7% | 23.5hPa | 2.5V | 08:30:00 | 02:00:26 | 00:00:00 | |
| AA1-15 | 2026-09-03 00:17:58 | 50.97841 | 8.26989 | 40° | 7km/h | 25875m | 5.3m/s | -50.3°C | 0.6% | 23.5hPa | 2.5V | 18:12:15 | 02:00:26 | 00:00:00 | |
| DL1XH-west | 2026-09-03 00:17:56 | 50.97839 | 8.26985 | 30° | 9km/h | 25865m | 5.6m/s | -50.3°C | 0.5% | 23.5hPa | 2.6V | 18:12:15 | 02:00:24 | 00:00:00 | |
| BIOWL1-15 | 2026-09-03 00:17:55 | 50.97833 | 8.26982 | 17° | 15km/h | 25854m | 5m/s | -50.3°C | 0.6% | 23.6hPa | 2.5V | 18:12:15 | 02:00:22 | 00:00:00 | |
| DO3MHA-11 | 2026-09-03 00:17:55 | 50.97836 | 8.26984 | 22° | 9km/h | 25860m | 6.0m/s | -50.3°C | 3.7% | 23.5hPa | 2.5V | 00:00:00 | 02:00:23 | 00:00:00 | |
| DL1NUX | 2026-09-03 00:17:54 | 50.97830 | 8.26981 | 14° | 13km/h | 25849m | 4.9m/s | -50.3°C | 3.7% | 23.6hPa | 2.5V | 08:30:00 | 02:00:21 | 00:00:00 | |
| HSKMA3-T | 2026-09-03 00:17:53 | 50.97830 | 8.26981 | 15° | 13km/h | 25849m | 4.9m/s | -50.3°C | 0.6% | 23.6hPa | 2.5V | 18:12:15 | 02:00:21 | 00:00:00 | |
| BIOWL9-15 | 2026-09-03 00:17:53 | 50.97827 | 8.26979 | 15° | 9km/h | 25843m | 6.1m/s | -50.3°C | 1.0% | 23.6hPa | 2.5V | 00:00:00 | 00:00:00 | 00:00:00 | |
| SO1NDE-10 | 2026-09-03 00:17:52 | 50.97827 | 8.26979 | 16° | 5km/h | 25844m | 6.0m/s | -50.2°C | 3.6% | 23.5hPa | 2.5V | 00:00:00 | 02:00:20 | 08:30:00 | |
| DL1XH1-15 | 2026-09-03 00:17:51 | 50.97822 | 8.26977 | 9° | 5km/h | 25827m | 5.8m/s | -50.3°C | 3.6% | 23.7hPa | 2.5V | 08:30:00 | 02:00:17 | 00:00:00 | |
| AA1-15 | 2026-09-03 00:17:47 | 50.97819 | 8.26976 | 20° | 5km/h | 25817m | 4.4m/s | -50.3°C | 0.6% | 23.7hPa | 2.5V | 18:12:15 | 02:00:15 | 00:00:00 | |
| DL1XH-west | 2026-09-03 00:17:45 | 50.97817 | 8.26974 | 61° | 4km/h | 25806m | 5.7m/s | -50.4°C | 0.6% | 23.7hPa | 2.6V | 18:12:15 | 02:00:13 | 00:00:00 | |
| DO3MHA-11 | 2026-09-03 00:17:45 | 50.97817 | 8.26974 | 61° | 5km/h | 25807m | 5.7m/s | -50.3°C | 3.7% | 23.7hPa | 2.6V | 00:00:00 | 02:00:13 | 00:00:00 | |
| DL1NUX | 2026-09-03 00:17:44 | 50.97816 | 8.26971 | 44° | 4km/h | 25796m | 5.1m/s | -50.4°C | 3.7% | 23.8hPa | 2.5V | 08:30:00 | 02:00:11 | 00:00:00 | |
| HSKMA3-T | 2026-09-03 00:17:43 | 50.97816 | 8.26971 | 45° | 5km/h | 25796m | 5.1m/s | -50.4°C | 0.6% | 23.8hPa | 2.5V | 18:12:15 | 02:00:11 | 00:00:00 | |
| DL1XH-15 | 2026-09-03 00:17:42 | 50.97809 | 8.26971 | 260° | 4km/h | 25769m | 5.6m/s | -50.4°C | 3.7% | 23.9hPa | 2.5V | 08:30:00 | 02:00:06 | 00:00:00 | |
| DM0DOS-11 | 2026-09-03 00:17:41 | 50.97810 | 8.26970 | 334° | 4km/h | 25775m | 5.9m/s | -50.4°C | 3.7% | 23.8hPa | 2.5V | 08:30:00 | 02:00:07 | 00:00:00 | |
| AA1-15 | 2026-09-03 00:17:36 | 50.97811 | 8.26974 | 219° | 5km/h | 25760m | 4.1m/s | -50.4°C | 0.6% | 23.9hPa | 2.5V | 18:12:15 | 02:00:04 | 00:00:00 | |
| DL1XH-west | 2026-09-03 00:17:35 | 50.97812 | 8.26976 | 224° | 4km/h | 25756m | 5.7m/s | -50.4°C | 0.6% | 23.9hPa | 2.6V | 18:12:15 | 02:00:03 | 00:00:00 | |
| DO3MHA-11 | 2026-09-03 00:17:35 | 50.97812 | 8.26975 | 224° | 4km/h | 25756m | 5.7m/s | -50.4°C | 3.7% | 23.8hPa | 2.6V | 00:00:00 | 02:00:03 | 00:00:00 | |
| DL1NUX | 2026-09-03 00:17:34 | 50.97812 | 8.26977 | 350° | 2km/h | 25745m | 4.9m/s | -50.4°C | 3.7% | 24hPa | 2.6V | 08:30:00 | 02:00:01 | 00:00:00 | |
| BIOWL1-15 | 2026-09-03 00:17:34 | 50.97812 | 8.26977 | 271° | 2km/h | 25750m | 5.5m/s | -50.4°C | 0.5% | 24hPa | 2.6V | 18:12:15 | 02:00:02 | 00:00:00 | |
| HSKMA3-T | 2026-09-03 00:17:32 | 50.97812 | 8.26977 | 351° | 2km/h | 25740m | 4.6m/s | -50.4°C | 0.6% | 24hPa | 2.5V | 18:12:15 | 02:00:00 | 00:00:00 | |
| DO9LL-15 | 2026-09-03 00:17:32 | 50.97812 | 8.26977 | 352° | 7km/h | 25740m | 4.5m/s | -50.4°C | 3.7% | 23.9hPa | 2.6V | 00:00:00 | 02:00:00 | 00:00:00 | |
| DL1XH-15 | 2026-09-03 00:17:31 | 50.97813 | 8.26978 | 140° | 5km/h | 25718m | 5.8m/s | -50.6°C | 3.8% | 24.1hPa | 2.6V | 08:30:00 | 01:59:56 | 00:00:00 | |
| AA1-15 | 2026-09-03 00:17:25 | 50.97815 | 8.26969 | 116° | 11km/h | 25703m | 4.7m/s | -50.7°C | 0.7% | 24.1hPa | 2.5V | 18:12:15 | 01:59:53 | 00:00:00 | |
| DL1NUX | 2026-09-03 00:17:24 | 50.97819 | 8.26962 | 139° | 11km/h | 25692m | 4.8m/s | -50.7°C | 3.8% | 24.2hPa | 2.6V | 08:30:00 | 01:59:51 | 00:00:00 | |
| DL1XH-west | 2026-09-03 00:17:24 | 50.97817 | 8.26965 | 128° | 11km/h | 25697m | 6m/s | -50.7°C | 0.7% | 24.1hPa | 2.6V | 18:12:15 | 01:59:52 | 00:00:00 | |
| HSKMA3-T | 2026-09-03 00:17:21 | 50.97822 | 8.26957 | 126° | 7km/h | 25683m | 5.4m/s | -50.6°C | 0.6% | 24.2hPa | 2.5V | 18:12:15 | 01:59:49 | 00:00:00 | |
| AA1-15 | 2026-09-03 00:17:15 | 50.97823 | 8.26944 | 133° | 9km/h | 25650m | 4.7m/s | -50.5°C | 0.6% | 24.3hPa | 2.5V | 18:12:15 | 01:59:43 | 00:00:00 | |
| DO3DL | 2026-09-03 00:17:15 | 50.97823 | 8.26944 | 134° | 9km/h | 25651m | 4.7m/s | -50.5°C | 1.0% | 24.3hPa | 2.5V | 00:00:00 | 00:00:00 | 00:00:00 | |
| DL1NUX | 2026-09-03 00:17:14 | 50.97827 | 8.26936 | 118° | 16km/h | 25639m | 5.8m/s | -50.5°C | 3.7% | 24.4hPa | 2.5V | 08:30:00 | 01:59:41 | 00:00:00 | |
| DL1XH-west | 2026-09-03 00:17:13 | 50.97827 | 8.26936 | 119° | 16km/h | 25639m | 5.8m/s | -50.5°C | 0.6% | 24.4hPa | 2.5V | 18:12:15 | 01:59:41 | 00:00:00 | |
| HSKMA3-T | 2026-09-03 00:17:10 | 50.97833 | 8.26918 | 121° | 15km/h | 25624m | 5.6m/s | -50.4°C | 0.7% | 24.4hPa | 2.5V | 18:12:15 | 01:59:38 | 00:00:00 | |
| AA1-15 | 2026-09-03 00:17:04 | 50.97832 | 8.26902 | 42° | 7km/h | 25593m | 5.5m/s | -50.3°C | 0.6% | 24.5hPa | 2.5V | 18:12:15 | 01:59:32 | 00:00:00 | |
| DL1NUX | 2026-09-03 00:17:04 | 50.97831 | 8.26901 | 40° | 4km/h | 25588m | 5.7m/s | -50.3°C | 3.7% | 24.5hPa | 2.5V | 08:30:00 | 01:59:31 | 00:00:00 | |
| BIOWL1-15 | 2026-09-03 00:17:03 | 50.97831 | 8.26901 | 40° | 4km/h | 25588m | 5.7m/s | -50.3°C | 0.6% | 24.5hPa | 2.5V | 18:12:15 | 01:59:31 | 00:00:00 | |
| DL1XH-west | 2026-09-03 00:17:02 | 50.97830 | 8.26900 | 64° | 4km/h | 25582m | 4.8m/s | -50.4°C | 0.6% | 24.6hPa | 2.6V | 18:12:15 | 01:59:30 | 00:00:00 | |
| HSKMA3-T | 2026-09-03 00:17:00 | 50.97830 | 8.26892 | 93° | 9km/h | 25566m | 4.9m/s | -50.4°C | 0.6% | 24.6hPa | 2.5V | 18:12:15 | 01:59:27 | 00:00:00 | |
| DL3AQ-11 | 2026-09-03 00:16:58 | 50.97831 | 8.26884 | 119° | 9km/h | 25556m | 6.0m/s | -50.4°C | 1.1% | 24.7hPa | 2.5V | 00:00:00 | 00:00:00 | 00:00:00 | |
| DL4BBY-15 | 2026-09-03 00:16:57 | 50.97831 | 8.26884 | 120° | 7km/h | 25556m | 6.0m/s | -49.4°C | 0% | 0hPa | 2.5V | 00:00:00 | 00:00:00 | 00:00:00 | |
| DL1CLM-18 | 2026-09-03 00:16:56 | 50.97831 | 8.26884 | 120° | 9km/h | 25556m | 6.0m/s | -50.4°C | 1.1% | 24.7hPa | 2.5V | 00:00:00 | 00:00:00 | 00:00:00 | |
| DO3DL | 2026-09-03 00:16:55 | 50.97834 | 8.26879 | 135° | 7km/h | 25546m | 4.3m/s | -50.4°C | 1.1% | 24.7hPa | 2.5V | 00:00:00 | 00:00:00 | 00:00:00 | |
| DL1NUX | 2026-09-03 00:16:54 | 50.97836 | 8.26874 | 98° | 7km/h | 25535m | 5.6m/s | -50.4°C | 3.7% | 24.8hPa | 2.5V | 08:30:00 | 01:59:21 | 00:00:00 | |
| AA1-15 | 2026-09-03 00:16:53 | 50.97836 | 8.26874 | 99° | 7km/h | 25535m | 5.6m/s | -50.4°C | 0.6% | 24.8hPa | 2.5V | 18:12:15 | 01:59:21 | 00:00:00 | |
| DL1XH-west | 2026-09-03 00:16:52 | 50.97836 | 8.26871 | 85° | 7km/h | 25530m | 4.8m/s | -50.3°C | 0.6% | 24.8hPa | 2.5V | 18:12:15 | 01:59:20 | 00:00:00 | |
| SO1NDE-10 | 2026-09-03 00:16:52 | 50.97836 | 8.26871 | 86° | 7km/h | 25530m | 4.8m/s | -50.3°C | 3.7% | 24.7hPa | 2.5V | 00:00:00 | 01:59:20 | 00:00:00 | |
| DJ2DS-15 | 2026-09-03 00:16:51 | 50.97836 | 8.26868 | 85° | 5km/h | 25525m | 4.8m/s | -50.3°C | 3.7% | 24.7hPa | 2.5V | 00:00:00 | 01:59:19 | 00:00:00 | |
| DL1XH1-15 | 2026-09-03 00:16:50 | 50.97836 | 8.26865 | 119° | 4km/h | 25514m | 5m/s | -50.3°C | 3.7% | 24.8hPa | 2.6V | 08:30:00 | 01:59:17 | 00:00:00 | |
| HSKMA3-T | 2026-09-03 00:16:49 | 50.97836 | 8.26865 | 119° | 4km/h | 25514m | 5m/s | -50.3°C | 0.6% | 24.8hPa | 2.6V | 18:12:15 | 01:59:17 | 00:00:00 | |
| BUE01 | 2026-09-03 00:16:49 | 50.97836 | 8.26864 | 115° | 4km/h | 25510m | 4.3m/s | -50.3°C | 1.0% | 24.9hPa | 2.5V | 00:00:00 | 00:00:00 | 00:00:00 | |
| DJ2DS-15 | 2026-09-03 00:16:47 | 50.97837 | 8.26859 | 83° | 7km/h | 25499m | 5.7m/s | -50.2°C | 1.0% | 24.9hPa | 2.5V | 00:00:00 | 00:00:00 | 00:00:00 | |
| AA1-15 | 2026-09-03 00:16:43 | 50.97835 | 8.26849 | 81° | 7km/h | 25482m | 5.7m/s | -50.2°C | 0.7% | 24.9hPa | 2.5V | 18:12:15 | 01:59:11 | 00:00:00 | |
| BIOWL1-15 | 2026-09-03 00:16:42 | 50.97835 | 8.26847 | 84° | 5km/h | 25478m | 4.4m/s | -50.2°C | 0.6% | 24.9hPa | 2.5V | 18:12:15 | 01:59:10 | 00:00:00 | |
| DL3AQ-11 | 2026-09-03 00:16:42 | 50.97835 | 8.26845 | 85° | 5km/h | 25473m | 4.4m/s | -50.2°C | 1.1% | 25.0hPa | 2.6V | 00:00:00 | 00:00:00 | 00:00:00 | |
| DL1XH-15 | 2026-09-03 00:16:41 | 50.97834 | 8.26834 | 88° | 11km/h | 25458m | 4.3m/s | -50.2°C | 3.7% | 25hPa | 2.6V | 08:30:00 | 01:59:06 | 00:00:00 | |
| DL1XH-west | 2026-09-03 00:16:41 | 50.97835 | 8.26845 | 86° | 5km/h | 25473m | 4.4m/s | -50.2°C | 0.7% | 25hPa | 2.5V | 18:12:15 | 01:59:09 | 00:00:00 | |
| DL1XH1-15 | 2026-09-03 00:16:40 | 50.97834 | 8.26838 | 81° | 11km/h | 25462m | 5.6m/s | -50.2°C | 3.7% | 25.1hPa | 2.6V | 08:30:00 | 01:59:07 | 00:00:00 | |
| HSKMA3-T | 2026-09-03 00:16:39 | 50.97834 | 8.26838 | 81° | 11km/h | 25462m | 5.6m/s | -50.2°C | 0.6% | 25.1hPa | 2.6V | 18:12:15 | 01:59:07 | 00:00:00 | |
| BIOWL7-15 | 2026-09-03 00:16:39 | 50.97834 | 8.26838 | 82° | 11km/h | 25463m | 5.6m/s | -50.2°C | 1.0% | 25.1hPa | 2.6V | 00:00:00 | 00:00:00 | 00:00:00 | |
| GOEST3-10 | 2026-09-03 00:16:38 | 50.97834 | 8.26834 | 89° | 7km/h | 25458m | 4.3m/s | -50.1°C | 3.7% | 25.0hPa | 2.6V | 00:00:00 | 00:00:00 | 00:00:00 | |
| SONCRA | 2026-09-03 00:16:36 | 50.97835 | 8.26826 | 110° | 7km/h | 25448m | 5.5m/s | -50.1°C | 1.1% | 25.1hPa | 2.6V | 00:00:00 | 00:00:00 | 00:00:00 | |
| DO3MHA-11 | 2026-09-03 00:16:35 | 50.97835 | 8.26824 | 139° | 5km/h | 25443m | 4.9m/s | -50.1°C | 3.7% | 25.0hPa | 2.6V | 00:00:00 | 01:59:03 | 00:00:00 | |
| DL1NUX | 2026-09-03 00:16:34 | 50.97836 | 8.26824 | 317° | 2km/h | 25433m | 5.3m/s | -50.1°C | 3.7% | 25.1hPa | 2.6V | 08:30:00 | 01:59:01 | 00:00:00 | |
| AA1-15 | 2026-09-03 00:16:32 | 50.97835 | 8.26824 | 6° | 4km/h | 25427m | 5.7m/s | -50.1°C | 0.6% | 25.2hPa | 2.6V | 18:12:15 | 01:59:00 | 00:00:00 | |
| BIOWL1-15 | 2026-09-03 00:16:32 | 50.97832 | 8.26815 | 108° | 9km/h | 25402m | 4.9m/s | -50°C | 0.6% | 25.3hPa | 2.6V | 18:12:15 | 01:58:55 | 00:00:00 | |
| DJ2DS-15 | 2026-09-03 00:16:31 | 50.97834 | 8.26823 | 25° | 9km/h | 25422m | 4.5m/s | -50.0°C | 3.7% | 25.1hPa | 2.5V | 00:00:00 | 01:58:59 | 00:00:00 | |
| DL1XH1-15 | 2026-09-03 00:16:30 | 50.97831 | 8.26820 | 63° | 5km/h | 25412m | 6.1m/s | -50°C | 3.6% | 25.2hPa | 2.5V | 08:30:00 | 01:58:57 | 00:00:00 | |
| DL1XH-west | 2026-09-03 00:16:30 | 50.97832 | 8.26822 | 41° | 7km/h | 25418m | 4.3m/s | -50°C | 0.6% | 25.2hPa | 2.5V | 18:12:15 | 01:58:58 | 00:00:00 | |
| DO3MHA-12 | 2026-09-03 00:16:30 | 50.97832 | 8.26822 | 41° | 9km/h | 25418m | 4.2m/s | -50.0°C | 3.7% | 25.2hPa | 2.6V | 00:00:00 | 01:58:58 | 00:00:00 | |
| DL1XH-15 | 2026-09-03 00:16:29 | 50.97831 | 8.26818 | 96° | 7km/h | 25407m | 5.3m/s | -50°C | 3.7% | 25.2hPa | 2.6V | 08:30:00 | 01:58:56 | 00:00:00 | |
| HSKMA3-T | 2026-09-03 00:16:29 | 50.97831 | 8.26820 | 64° | 5km/h | 25412m | 6.1m/s | -50°C | 0.6% | 25.2hPa | 2.5V | 18:12:15 | 01:58:57 | 00:00:00 | |
| GOEST3-10 | 2026-09-03 00:16:29 | 50.97831 | 8.26818 | 97° | 11km/h | 25407m | 5.2m/s | -50.0°C | 3.7% | 25.2hPa | 2.6V | 00:00:00 | 00:00:00 | 00:00:00 | |
| HTAHTA | 2026-09-03 00:16:27 | 50.97832 | 8.26811 | 108° | 11km/h | 25396m | 6.0m/s | -50.0°C | 1.1% | 25.2hPa | 2.6V | 00:00:00 | 00:00:00 | 00:00:00 | |
| DO1YAY-16 | 2026-09-03 00:16:26 | 50.97832 | 8.26811 | 108° | 11km/h | 25396m | 6.0m/s | -50.0°C | 1.1% | 25.2hPa | 2.6V | 00:00:00 | 00:00:00 | 00:00:00 | |
| DO3MHA-11 | 2026-09-03 00:16:25 | 50.97833 | 8.26806 | 103° | 9km/h | 25391m | 5.4m/s | -49.9°C | 3.6% | 25.3hPa | 2.6V | 00:00:00 | 01:58:53 | 00:00:00 | |
| DL1NUX | 2026-09-03 00:16:24 | 50.97835 | 8.26795 | 106° | 11km/h | 25381m | 4.1m/s | -50°C | 3.7% | 25.3hPa | 2.6V | 08:30:00 | 01:58:51 | 00:00:00 | |
| DL8DAS-14 | 2026-09-03 00:16:24 | 50.97835 | 8.26795 | 106° | 11km/h | 25382m | 4.1m/s | -50.0°C | 1.0% | 25.3hPa | 2.5V | 00:00:00 | 00:00:00 | 00:00:00 | |
| DL1XH1-15 | 2026-09-03 00:16:23 | 50.97838 | 8.26791 | 268° | 4km/h | 25361m | 4.5m/s | -50°C | 3.6% | 25.4hPa | 2.5V | 08:30:00 | 01:58:47 | 00:00:00 | |
| AA1-15 | 2026-09-03 00:16:22 | 50.97837 | 8.26790 | 163° | 5km/h | 25371m | 5.6m/s | -49.9°C | 0.5% | 25.4hPa | 2.5V | 18:12:15 | 01:58:49 | 00:00:00 | |
| DL1XH-15 | 2026-09-03 00:16:21 | 50.97838 | 8.26793 | 335° | 4km/h | 25355m | 5.9m/s | -50°C | 3.7% | 25.4hPa | 2.5V | 08:30:00 | 01:58:46 | 00:00:00 | |
| DL1XH-west | 2026-09-03 00:16:20 | 50.97838 | 8.26790 | 223° | 4km/h | 25365m | 4.6m/s | -49.9°C | 0.6% | 25.4hPa | 2.5V | 18:12:15 | 01:58:48 | 00:00:00 | |
| HSKMA3-T | 2026-09-03 00:16:19 | 50.97838 | 8.26791 | 269° | 4km/h | 25361m | 4.5m/s | -50°C | 0.6% | 25.4hPa | 2.5V | 18:12:15 | 01:58:47 | 00:00:00 | |
| DJ8HS-15 | 2026-09-03 00:16:19 | 50.97838 | 8.26791 | 269° | 7km/h | 25361m | 4.5m/s | -49.9°C | 3.6% | 25.4hPa | 2.6V | 00:00:00 | 01:58:47 | 00:00:00 | |
| GOEST3-10 | 2026-09-03 00:16:18 | 50.97838 | 8.26792 | 336° | 9km/h | 25356m | 5.9m/s | -49.9°C | 3.7% | 25.4hPa | 2.6V | 00:00:00 | 00:00:00 | 00:00:00 | |
| DO2KSM | 2026-09-03 00:16:17 | 50.97838 | 8.26792 | 336° | 4km/h | 25356m | 5.9m/s | -50.0°C | 1.0% | 25.5hPa | 2.6V | 00:00:00 | 00:00:00 | 00:00:00 | |
| BIOWL1-15 | 2026-09-03 00:16:17 | 50.97831 | 8.26791 | 18° | 11km/h | 25340m | 5.3m/s | -50.1°C | 0.6% | 25.5hPa | 2.6V | 18:12:15 | 01:58:43 | 00:00:00 | |
| DB0NH | 2026-09-03 00:16:16 | 50.97834 | 8.26792 | 15° | 7km/h | 25345m | 4.5m/s | -50.0°C | 3.6% | 25.4hPa | 2.6V | 00:00:00 | 01:58:44 | 00:00:00 | |
| DO3MHA-11 | 2026-09-03 00:16:15 | 50.97831 | 8.26791 | 18° | 5km/h | 25340m | 5.3m/s | -50.0°C | 3.7% | 25.5hPa | 2.6V | 00:00:00 | 01:58:43 | 00:00:00 | |
| DB0UT-7 | 2026-09-03 00:16:14 | 50.97829 | 8.26790 | 20° | 7km/h | 25335m | 5.5m/s | -50.0°C | 3.7% | 25.5hPa | 2.5V | 00:00:00 | 01:58:42 | 00:00:00 | |
| DL1XH-15 | 2026-09-03 00:16:13 | 50.97823 | 8.26773 | 128° | 5km/h | 25304m | 5.7m/s | -50°C | 3.6% | 25.6hPa | 2.5V | 08:30:00 | 01:58:36 | 00:00:00 | |
| DM0DOS-11 | 2026-09-03 00:16:12 | 50.97822 | 8.26776 | 97° | 7km/h | 25309m | 3.6m/s | -50°C | 3.7% | 25.6hPa | 2.5V | 08:30:00 | 01:58:37 | 00:00:00 | |
| AA1-15 | 2026-09-03 00:16:11 | 50.97823 | 8.26783 | 58° | 11km/h | 25318m | 5.9m/s | -50°C | 0.6% | 25.6hPa | 2.6V | 18:12:15 | 01:58:39 | 00:00:00 | |
| DL1XH-west | 2026-09-03 00:16:10 | 50.97822 | 8.26779 | 75° | 11km/h | 25313m | 4.3m/s | -50°C | 0.6% | 25.6hPa | 2.6V | 18:12:15 | 01:58:38 | 00:00:00 | |
| HSKMA3-T | 2026-09-03 00:16:08 | 50.97823 | 8.26773 | 129° | 5km/h | 25304m | 5.7m/s | -50°C | 0.5% | 25.6hPa | 2.5V | 18:12:15 | 01:58:36 | 00:00:00 | |
| BIOWL1-15 | 2026-09-03 00:16:05 | 50.97828 | 8.26775 | 216° | 7km/h | 25288m | 4.8m/s | -50°C | 0.6% | 25.7hPa | 2.6V | 18:12:15 | 01:58:33 | 00:00:00 | |
| DD1CC8 | 2026-09-03 00:16:04 | 50.97829 | 8.26776 | 221° | 4km/h | 25283m | 5.7m/s | -50.0°C | 1.0% | 25.7hPa | 2.5V | 00:00:00 | 00:00:00 | 00:00:00 | |
| GOEST3-10 | 2026-09-03 00:16:03 | 50.97830 | 8.26777 | 274° | 4km/h | 25277m | 4.9m/s | -49.9°C | 3.6% | 25.7hPa | 2.5V | 00:00:00 | 01:58:31 | 00:00:00 | |
| DO3DL | 2026-09-03 00:16:02 | 50.97829 | 8.26777 | 0° | 0km/h | 25277m | 5.0m/s | -50.0°C | 1.0% | 25.8hPa | 2.5V | 00:00:00 | 00:00:00 | 00:00:00 | |
| DL1XH-15 | 2026-09-03 00:16:01 | 50.97825 | 8.26774 | 50° | 7km/h | 25251m | 4.8m/s | -50.1°C | 3.6% | 25.9hPa | 2.5V | 08:30:00 | 01:58:26 | 00:00:00 | |
| DM0DOS-11 | 2026-09-03 00:16:01 | 50.97826 | 8.26776 | 34° | 5km/h | 25256m | 4.3m/s | -50°C | 3.6% | 25.8hPa | 2.5V | 08:30:00 | 01:58:27 | 00:00:00 | |
| AA1-15 | 2026-09-03 00:16:00 | 50.97827 | 8.26777 | 16° | 4km/h | 25261m | 5.4m/s | -50°C | 0.6% | 25.8hPa | 2.6V | 18:12:15 | 01:58:28 | 00:00:00 | |
| DL1XH-west | 2026-09-03 00:15:59 | 50.97826 | 8.26776 | 35° | 5km/h | 25256m | 4.3m/s | -50.1°C | 0.5% | 25.8hPa | 2.5V | 18:12:15 | 01:58:27 | 00:00:00 | |
| HSKMA3-T | 2026-09-03 00:15:57 | 50.97824 | 8.26771 | 62° | 9km/h | 25246m | 6m/s | -50.1°C | 0.5% | 25.9hPa | 2.5V | 18:12:15 | 01:58:25 | 00:00:00 | |
| BIOWL1-15 | 2026-09-03 00:15:56 | 50.97823 | 8.26763 | 144° | 4km/h | 25232m | 5.2m/s | -50.2°C | 0.6% | 25.9hPa | 2.6V | 18:12:15 | 01:58:22 | 00:00:00 | |
| DO1YAY-16 | 2026-09-03 00:15:55 | 50.97823 | 8.26764 | 87° | 5km/h | 25237m | 3.9m/s | -50.2°C | 1.0% | 25.9hPa | 2.6V | 00:00:00 | 00:00:00 | 00:00:00 | |
| DL8DAS-14 | 2026-09-03 00:15:53 | 50.97826 | 8.26766 | 228° | 13km/h | 25221m | 5.0m/s | -50.1°C | 1.1% | 26.0hPa | 2.6V | 00:00:00 | 00:00:00 | 00:00:00 | |
| SO1NDE-10 | 2026-09-03 00:15:52 | 50.97826 | 8.26766 | 229° | 13km/h | 25221m | 5.0m/s | -50.1°C | 3.7% | 25.9hPa | 2.6V | 00:00:00 | 01:58:20 | 00:00:00 | |
| DL1XH1-15 | 2026-09-03 00:15:51 | 50.97833 | 8.26780 | 228° | 11km/h | 25206m | 5.3m/s | -50.1°C | 3.6% | 26hPa | 2.6V | 08:30:00 | 01:58:17 | 00:00:00 | |
| DJ2KF-10 | 2026-09-03 00:15:51 | 50.97829 | 8.26771 | 230° | 13km/h | 25216m | 4.2m/s | -50.1°C | 3.6% | 25.9hPa | 2.6V | 00:00:00 | 01:58:19 | 00:00:00 | |
| DL1XH-15 | 2026-09-03 00:15:50 | 50.97835 | 8.26782 | 232° | 5km/h | 25201m | 4.9m/s | -50.1°C | 3.6% | 26hPa | 2.6V | 08:30:00 | 01:58:16 | 00:00:00 | |
| AA1-15 | 2026-09-03 00:15:49 | 50.97833 | 8.26780 | 228° | 11km/h | 25206m | 5.3m/s | -50.1°C | 0.6% | 26hPa | 2.6V | 18:12:15 | 01:58:17 | 00:00:00 | |
| DL1XH-west | 2026-09-03 00:15:48 | 50.97835 | 8.26782 | 233° | 5km/h | 25201m | 4.9m/s | -50.1°C | 0.6% | 26hPa | 2.6V | 18:12:15 | 01:58:16 | 00:00:00 | |
| HSKMA3-T | 2026-09-03 00:15:47 | 50.97835 | 8.26783 | 311° | 2km/h | 25196m | 4.9m/s | -50.1°C | 0.5% | 26.1hPa | 2.5V | 18:12:15 | 01:58:15 | 00:00:00 | |
| BIOWL1-15 | 2026-09-03 00:15:44 | 50.97831 | 8.26785 | 335° | 7km/h | 25180m | 5m/s | -50.1°C | 0.6% | 26.1hPa | 2.6V | 18:12:15 | 01:58:12 | 00:00:00 | |
| DB0UT-7 | 2026-09-03 00:15:44 | 50.97831 | 8.26785 | 336° | 13km/h | 25180m | 5.0m/s | -50.1°C | 3.6% | 26.1hPa | 2.6V | 00:00:00 | 00:00:00 | 00:00:00 | |
| DL1XH-15 | 2026-09-03 00:15:43 | 50.97840 | 8.26794 | 213° | 20km/h | 25148m | 6.2m/s | -50.1°C | 3.7% | 26.3hPa | 2.6V | 08:30:00 | 01:58:06 | 00:00:00 | |
| GOEST3-10 | 2026-09-03 00:15:43 | 50.97830 | 8.26786 | 320° | 5km/h | 25176m | 4.2m/s | -50.1°C | 3.7% | 26.1hPa | 2.6V | 00:00:00 | 01:58:11 | 00:00:00 | |
| DL3OBA | 2026-09-03 00:15:42 | 50.97830 | 8.26786 | 320° | 5km/h | 25176m | 4.3m/s | -50.1°C | 1.0% | 26.1hPa | 2.6V | 00:00:00 | 00:00:00 | 00:00:00 | |
| DL1XH1-15 | 2026-09-03 00:15:40 | 50.97836 | 8.26791 | 203° | 16km/h | 25154m | 5.8m/s | -50.1°C | 3.7% | 26.2hPa | 2.6V | 08:30:00 | 01:58:07 | 00:00:00 | |
| DL1XH-west | 2026-09-03 00:15:38 | 50.97840 | 8.26794 | 213° | 20km/h | 25148m | 6.2m/s | -50.1°C | 0.6% | 26.3hPa | 2.6V | 18:12:15 | 01:58:06 | 00:00:00 | |
| HSKMA3-T | 2026-09-03 00:15:37 | 50.97844 | 8.26799 | 221° | 22km/h | 25143m | 4.8m/s | -50.1°C | 0.6% | 26.3hPa | 2.5V | 18:12:15 | 01:58:05 | 00:00:00 | |
| BIOWL1-15 | 2026-09-03 00:15:34 | 50.97862 | 8.26815 | 163° | 4km/h | 25112m | 6.1m/s | -50.2°C | 0.5% | 26.4hPa | 2.6V | 18:12:15 | 01:57:59 | 00:00:00 | |
| GOEST3-10 | 2026-09-03 00:15:33 | 50.97859 | 8.26815 | 191° | 5km/h | 25123m | 5.2m/s | -50.1°C | 3.6% | 26.3hPa | 2.5V | 00:00:00 | 01:58:01 | 00:00:00 | |
| DL1XH-15 | 2026-09-03 00:15:31 | 50.97864 | 8.26816 | 202° | 5km/h | 25097m | 5.2m/s | -50.2°C | 3.6% | 26.4hPa | 2.5V | 08:30:00 | 01:57:56 | 00:00:00 | |
| DJ2DS-15 | 2026-09-03 00:15:31 | 50.97862 | 8.26815 | 164° | 13km/h | 25112m | 6.1m/s | -50.1°C | 3.6% | 26.4hPa | 2.5V | 00:00:00 | 01:57:59 | 00:00:00 | |
| DL1XH1-15 | 2026-09-03 00:15:30 | 50.97863 | 8.26816 | 221° | 2km/h | 25102m | 4.1m/s | -50.2°C | 3.6% | 26.5hPa | 2.5V | 08:30:00 | 01:57:57 | 00:00:00 | |
| DL1XH-west | 2026-09-03 00:15:28 | 50.97864 | 8.26816 | 203° | 5km/h | 25097m | 5.2m/s | -50.3°C | 0.5% | 26.5hPa | 2.5V | 18:12:15 | 01:57:56 | 00:00:00 | |
| AA1-15 | 2026-09-03 00:15:28 | 50.97866 | 8.26818 | 199° | 11km/h | 25092m | 5.7m/s | -50.3°C | 0.5% | 26.5hPa | 2.6V | 18:12:15 | 01:57:55 | 00:00:00 | |
| BIOWL1-15 | 2026-09-03 00:15:26 | 50.97905 | 8.26858 | 208° | 16km/h | 25051m | 4.3m/s | -50.3°C | 0.5% | 26.7hPa | 2.5V | 18:12:15 | 01:57:47 | 00:00:00 | |
| HSKMA3-T | 2026-09-03 00:15:26 | 50.97869 | 8.26820 | 203° | 16km/h | 25086m | 5.2m/s | -50.3°C | 0.6% | 26.5hPa | 2.6V | 18:12:15 | 01:57:54 | 00:00:00 | |
| DL1XH1-15 | 2026-09-03 00:15:25 | 50.97905 | 8.26858 | 207° | 16km/h | 25051m | 4.3m/s | -50.3°C | 3.6% | 26.7hPa | 2.5V | 08:30:00 | 01:57:47 | 00:00:00 | |
| DL1NUX | 2026-09-03 00:15:24 | 50.97884 | 8.26835 | 219° | 29km/h | 25070m | 4.3m/s | -50.3°C | 3.6% | 26.6hPa | 2.5V | 08:30:00 | 01:57:51 | 00:00:00 | |
| DO3MHA-12 | 2026-09-03 00:15:24 | 50.97879 | 8.26829 | 217° | 18km/h | 25075m | 5.8m/s | -50.3°C | 3.6% | 26.5hPa | 2.5V | 00:00:00 | 01:57:52 | 00:00:00 | |
| GOEST3-10 | 2026-09-03 00:15:23 | 50.97884 | 8.26835 | 220° | 26km/h | 25070m | 4.3m/s | -50.3°C | 3.6% | 26.5hPa | 2.5V | 00:00:00 | 01:57:51 | 00:00:00 | |
| DL1XH-15 | 2026-09-03 00:15:22 | 50.97908 | 8.26861 | 215° | 11km/h | 25046m | 5.7m/s | -50.3°C | 3.6% | 26.7hPa | 2.5V | 08:30:00 | 01:57:46 | 00:00:00 | |
| DL1XH-west | 2026-09-03 00:15:18 | 50.97910 | 8.26863 | 240° | 5km/h | 25040m | 6.1m/s | -50.3°C | 0.6% | 26.7hPa | 2.6V | 18:12:15 | 01:57:45 | 00:00:00 | |
| AA1-15 | 2026-09-03 00:15:17 | 50.97910 | 8.26865 | 297° | 4km/h | 25034m | 5m/s | -50.4°C | 0.6% | 26.8hPa | 2.6V | 18:12:15 | 01:57:44 | 00:00:00 | |
| HSKMA3-T | 2026-09-03 00:15:15 | 50.97909 | 8.26866 | 349° | 4km/h | 25029m | 5.1m/s | -50.4°C | 0.6% | 26.7hPa | 2.5V | 18:12:15 | 01:57:43 | 00:00:00 | |
| DL1NUX | 2026-09-03 00:15:14 | 50.97909 | 8.26864 | 106° | 5km/h | 25018m | 5.1m/s | -50.5°C | 3.6% | 26.8hPa | 2.5V | 08:30:00 | 01:57:41 | 00:00:00 | |
| BIOWL1-15 | 2026-09-03 00:15:11 | 50.97914 | 8.26859 | 189° | 13km/h | 25003m | 5.9m/s | -50.7°C | 0.6% | 26.9hPa | 2.6V | 18:12:15 | 01:57:38 | 00:00:00 | |
| DL1XH-15 | 2026-09-03 00:15:11 | 50.97922 | 8.26865 | 209° | 22km/h | 24993m | 4.5m/s | -50.8°C | 3.7% | 26.9hPa | 2.5V | 08:30:00 | 01:57:36 | 00:00:00 | |
| DL1XH1-15 | 2026-09-03 00:15:11 | 50.97918 | 8.26861 | 205° | 16km/h | 24998m | 5.1m/s | -50.8°C | 3.7% | 26.9hPa | 2.6V | 08:30:00 | 01:57:37 | 00:00:00 | |
| DL1XH-west | 2026-09-03 00:15:06 | 50.97932 | 8.26873 | 203° | 24km/h | 24983m | 5.4m/s | -50.8°C | 0.6% | 26.9hPa | 2.5V | 18:12:15 | 01:57:34 | 00:00:00 | |
| EDDB2-11 | 2026-09-03 00:15:06 | 50.97937 | 8.26876 | 200° | 18km/h | 24978m | 4.0m/s | -50.9°C | 1.1% | 26.9hPa | 2.5V | 00:00:00 | 00:00:00 | 00:00:00 | |
| WPPR-10 | 2026-09-03 00:15:05 | 50.97937 | 8.26876 | 200° | 18km/h | 24978m | 4.0m/s | -50.9°C | 1.1% | 26.9hPa | 2.5V | 00:00:00 | 00:00:00 | 00:00:00 | |
| AA1-15 | 2026-09-03 00:15:05 | 50.97937 | 8.26876 | 200° | 20km/h | 24978m | 4m/s | -50.9°C | 0.7% | 26.9hPa | 2.6V | 18:12:15 | 01:57:33 | 00:00:00 | |
| DL1NUX | 2026-09-03 00:15:04 | 50.97943 | 8.26881 | 215° | 9km/h | 24969m | 6.1m/s | -50.9°C | 3.8% | 27hPa | 2.5V | 08:30:00 | 01:57:31 | 00:00:00 | |
| GOEST3-10 | 2026-09-03 00:15:03 | 50.97943 | 8.26880 | 216° | 5km/h | 24969m | 6.0m/s | -50.8°C | 3.8% | 26.9hPa | 2.5V | 00:00:00 | 01:57:31 | 00:00:00 | |
| DL1XH-15 | 2026-09-03 00:15:01 | 50.97943 | 8.26886 | 164° | 5km/h | 24943m | 5.3m/s | -50.9°C | 3.7% | 27.1hPa | 2.5V | 08:30:00 | 01:57:26 | 00:00:00 | |
| BIOWL1-15 | 2026-09-03 00:15:01 | 50.97944 | 8.26884 | 311° | 5km/h | 24958m | 4.9m/s | -50.9°C | 0.7% | 27.1hPa | 2.5V | 18:12:15 | 01:57:29 | 00:00:00 | |
| DL1XH-west | 2026-09-03 00:14:55 | 50.97953 | 8.26885 | 184° | 16km/h | 24928m | 5.5m/s | -50.9°C | 0.6% | 27.2hPa | 2.6V | 18:12:15 | 01:57:23 | 00:00:00 | |
| DL1NUX | 2026-09-03 00:14:54 | 50.97961 | 8.26888 | 204° | 15km/h | 24917m | 4.7m/s | -51°C | 3.7% | 27.2hPa | 2.5V | 08:30:00 | 01:57:21 | 00:00:00 | |
| HSKMA3-T | 2026-09-03 00:14:54 | 50.97957 | 8.26886 | 195° | 16km/h | 24923m | 5.3m/s | -51°C | 0.6% | 27.2hPa | 2.6V | 18:12:15 | 01:57:22 | 00:00:00 | |
| BIOWL1-15 | 2026-09-03 00:14:51 | 50.97967 | 8.26893 | 203° | 13km/h | 24908m | 5.7m/s | -51.1°C | 0.6% | 27.2hPa | 2.5V | 18:12:15 | 01:57:19 | 00:00:00 | |
| DL8DAS-14 | 2026-09-03 00:14:51 | 50.97970 | 8.26894 | 189° | 9km/h | 24903m | 5.1m/s | -51.1°C | 1.0% | 27.3hPa | 2.6V | 00:00:00 | 00:00:00 | 00:00:00 | |
| AU51GT2 | 2026-09-03 00:14:47 | 50.97973 | 8.26892 | 44° | 4km/h | 24888m | 6.2m/s | -51.1°C | 1.1% | 27.4hPa | 2.6V | 00:00:00 | 00:00:00 | 00:00:00 | |
| BIOWL9-15 | 2026-09-03 00:14:46 | 50.97972 | 8.26891 | 18° | 5km/h | 24882m | 5.3m/s | -51.1°C | 1.1% | 27.4hPa | 2.6V | 00:00:00 | 00:00:00 | 00:00:00 | |
| NBG1-10 | 2026-09-03 00:14:45 | 50.97970 | 8.26890 | 21° | 11km/h | 24877m | 4.6m/s | -51.1°C | 3.7% | 27.3hPa | 2.6V | 00:00:00 | 01:57:13 | 00:00:00 | |
| DL1NUX | 2026-09-03 00:14:44 | 50.97969 | 8.26888 | 118° | 5km/h | 24866m | 6.4m/s | -51.1°C | 3.7% | 27.4hPa | 2.6V | 08:30:00 | 01:57:11 | 00:00:00 | |
| DL1XH-west | 2026-09-03 00:14:44 | 50.97969 | 8.26889 | 50° | 5km/h | 24872m | 4.9m/s | -51.2°C | 0.7% | 27.4hPa | 2.5V | 18:12:15 | 01:57:12 | 00:00:00 | |
| AM1SDL-15 | 2026-09-03 00:14:44 | 50.97969 | 8.26888 | 119° | 11km/h | 24867m | 6.3m/s | -51.1°C | 3.7% | 27.4hPa | 2.6V | 00:00:00 | 01:57:11 | 00:00:00 | |
| GOEST3-10 | 2026-09-03 00:14:43 | 50.97969 | 8.26888 | 119° | 11km/h | 24867m | 6.3m/s | -51.1°C | 3.7% | 27.4hPa | 2.6V | 00:00:00 | 01:57:11 | 00:00:00 | |
| HSKMA3-T | 2026-09-03 00:14:43 | 50.97969 | 8.26888 | 119° | 5km/h | 24867m | 6.4m/s | -51.1°C | 0.6% | 27.4hPa | 2.6V | 18:12:15 | 01:57:11 | 00:00:00 | |
| DL3AQ-11 | 2026-09-03 00:14:41 | 50.97973 | 8.26883 | 149° | 13km/h | 24855m | 5.4m/s | -51.1°C | 1.1% | 27.5hPa | 2.6V | 00:00:00 | 00:00:00 | 00:00:00 | |
| DD8BA-10 | 2026-09-03 00:14:40 | 50.97976 | 8.26880 | 153° | 9km/h | 24850m | 6.0m/s | -51.1°C | 3.7% | 27.5hPa | 2.6V | 00:00:00 | 00:00:00 | 00:00:00 | |
| DJTTGO | 2026-09-03 00:14:39 | 50.97979 | 8.26877 | 153° | 13km/h | 24844m | 5.2m/s | -51.2°C | 1.1% | 27.6hPa | 2.6V | 00:00:00 | 00:00:00 | 00:00:00 | |
| GOEST3-10 | 2026-09-03 00:14:38 | 50.97982 | 8.26875 | 148° | 9km/h | 24839m | 4.4m/s | -51.1°C | 3.7% | 27.5hPa | 2.6V | 00:00:00 | 00:00:00 | 00:00:00 | |
| DO3MHA-11 | 2026-09-03 00:14:37 | 50.97984 | 8.26873 | 145° | 9km/h | 24834m | 5.7m/s | -51.2°C | 3.7% | 27.5hPa | 2.6V | 00:00:00 | 01:57:05 | 00:00:00 | |
| DB0ND-19 | 2026-09-03 00:14:36 | 50.97986 | 8.26870 | 135° | 9km/h | 24828m | 5.2m/s | -51.3°C | 1.1% | 27.6hPa | 2.6V | 00:00:00 | 00:00:00 | 00:00:00 | |
| DO2KSM | 2026-09-03 00:14:35 | 50.97986 | 8.26870 | 136° | 9km/h | 24829m | 5.2m/s | -51.3°C | 1.1% | 27.6hPa | 2.6V | 00:00:00 | 00:00:00 | 00:00:00 | |
| DL1NUX | 2026-09-03 00:14:34 | 50.97985 | 8.26864 | 26° | 9km/h | 24813m | 5.7m/s | -51.5°C | 3.8% | 27.6hPa | 2.6V | 08:30:00 | 01:57:01 | 00:00:00 | |
| DL1XH-west | 2026-09-03 00:14:33 | 50.97986 | 8.26864 | 26° | 9km/h | 24813m | 5.7m/s | -51.5°C | 0.7% | 27.6hPa | 2.6V | 18:12:15 | 01:57:01 | 00:00:00 | |
| HSKMA3-T | 2026-09-03 00:14:32 | 50.97983 | 8.26862 | 21° | 11km/h | 24807m | 4.3m/s | -51.5°C | 0.7% | 27.7hPa | 2.6V | 18:12:15 | 01:57:00 | 00:00:00 | |
| SONCRA | 2026-09-03 00:14:32 | 50.97981 | 8.26861 | 32° | 9km/h | 24803m | 4.5m/s | -51.6°C | 1.1% | 27.7hPa | 2.6V | 00:00:00 | 00:00:00 | 00:00:00 | |
| DL1XH-15 | 2026-09-03 00:14:31 | 50.97980 | 8.26850 | 117° | 13km/h | 24788m | 4.5m/s | -51.8°C | 3.9% | 27.8hPa | 2.6V | 08:30:00 | 01:56:56 | 00:00:00 | |
| DJ2DS-15 | 2026-09-03 00:14:31 | 50.97981 | 8.26860 | 33° | 11km/h | 24803m | 4.5m/s | -51.6°C | 3.9% | 27.6hPa | 2.5V | 00:00:00 | 01:56:59 | 00:00:00 | |
| DL1XH1-15 | 2026-09-03 00:14:30 | 50.97979 | 8.26854 | 99° | 11km/h | 24792m | 5.2m/s | -51.7°C | 3.9% | 27.8hPa | 2.5V | 08:30:00 | 01:56:57 | 00:00:00 | |
| DD8BA-10 | 2026-09-03 00:14:30 | 50.97980 | 8.26858 | 63° | 11km/h | 24798m | 5.8m/s | -51.6°C | 3.9% | 27.7hPa | 2.6V | 00:00:00 | 00:00:00 | 00:00:00 | |
| DL3AQ-11 | 2026-09-03 00:14:29 | 50.97980 | 8.26850 | 117° | 13km/h | 24788m | 4.5m/s | -51.8°C | 1.1% | 27.8hPa | 2.6V | 00:00:00 | 00:00:00 | 00:00:00 | |
| GOEST3-10 | 2026-09-03 00:14:28 | 50.97980 | 8.26850 | 118° | 11km/h | 24788m | 4.4m/s | -51.7°C | 3.9% | 27.7hPa | 2.6V | 00:00:00 | 00:00:00 | 08:30:00 | |
| DO9LL-15 | 2026-09-03 00:14:27 | 50.97982 | 8.26845 | 122° | 13km/h | 24783m | 4.9m/s | -51.7°C | 4.0% | 27.7hPa | 2.6V | 00:00:00 | 01:56:55 | 00:00:00 | |
| DO3MHA-11 | 2026-09-03 00:14:26 | 50.97984 | 8.26840 | 120° | 11km/h | 24778m | 5.4m/s | -51.8°C | 4.0% | 27.8hPa | 2.6V | 00:00:00 | 01:56:54 | 00:00:00 | |
| DL1NUX | 2026-09-03 00:14:24 | 50.97985 | 8.26830 | 75° | 7km/h | 24762m | 5m/s | -51.9°C | 4% | 27.9hPa | 2.6V | 08:30:00 | 01:56:51 | 00:00:00 | |
| DL1XH-west | 2026-09-03 00:14:23 | 50.97985 | 8.26830 | 76° | 7km/h | 24762m | 5m/s | -51.9°C | 0.7% | 27.9hPa | 2.6V | 18:12:15 | 01:56:51 | 00:00:00 | |
| AA1-15 | 2026-09-03 00:14:22 | 50.97985 | 8.26827 | 73° | 7km/h | 24757m | 5.4m/s | -51.9°C | 0.8% | 27.9hPa | 2.6V | 18:12:15 | 01:56:50 | 00:00:00 | |
| BIOWL1-15 | 2026-09-03 00:14:21 | 50.97984 | 8.26824 | 76° | 9km/h | 24751m | 6.1m/s | -51.8°C | 0.8% | 27.9hPa | 2.5V | 18:12:15 | 01:56:49 | 00:00:00 | |
| DJ2KF-10 | 2026-09-03 00:14:21 | 50.97984 | 8.26824 | 76° | 13km/h | 24751m | 6.0m/s | -51.8°C | 4.0% | 27.9hPa | 2.5V | 00:00:00 | 01:56:49 | 00:00:00 | |
| DL1XH1-15 | 2026-09-03 00:14:20 | 50.97982 | 8.26816 | 61° | 11km/h | 24741m | 5m/s | -51.8°C | 4% | 28hPa | 2.5V | 08:30:00 | 01:56:47 | 00:00:00 | |
| DL8DAS-14 | 2026-09-03 00:14:20 | 50.97982 | 8.26816 | 61° | 9km/h | 24741m | 5.0m/s | -51.8°C | 1.1% | 28.0hPa | 2.5V | 00:00:00 | 00:00:00 | 00:00:00 | |
| DO3MHA-12 | 2026-09-03 00:14:19 | 50.97982 | 8.26816 | 62° | 13km/h | 24741m | 5.0m/s | -51.8°C | 4.0% | 27.9hPa | 2.5V | 00:00:00 | 01:56:47 | 00:00:00 | |
| GOEST3-10 | 2026-09-03 00:14:18 | 50.97981 | 8.26813 | 49° | 13km/h | 24735m | 5.8m/s | -51.8°C | 3.9% | 28.0hPa | 2.5V | 00:00:00 | 00:00:00 | 00:00:00 | |
| DJTTGO | 2026-09-03 00:14:17 | 50.97981 | 8.26813 | 50° | 11km/h | 24735m | 5.9m/s | -51.8°C | 1.1% | 28.0hPa | 2.5V | 00:00:00 | 00:00:00 | 00:00:00 | |
| AU51GT2 | 2026-09-03 00:14:16 | 50.97977 | 8.26806 | 55° | 11km/h | 24725m | 4.7m/s | -51.8°C | 1.1% | 28.0hPa | 2.5V | 00:00:00 | 00:00:00 | 00:00:00 | |
| DO3MHA-11 | 2026-09-03 00:14:15 | 50.97975 | 8.26801 | 69° | 13km/h | 24720m | 6.0m/s | -51.7°C | 3.9% | 28.0hPa | 2.5V | 00:00:00 | 01:56:43 | 00:00:00 | |
| DL1NUX | 2026-09-03 00:14:14 | 50.97974 | 8.26789 | 81° | 16km/h | 24709m | 4.8m/s | -51.8°C | 3.9% | 28.1hPa | 2.5V | 08:30:00 | 01:56:41 | 00:00:00 | |
| DB0UT-7 | 2026-09-03 00:14:14 | 50.97974 | 8.26795 | 80° | 15km/h | 24714m | 5.2m/s | -51.7°C | 4.0% | 28.0hPa | 2.5V | 00:00:00 | 01:56:42 | 00:00:00 | |
| GOEST3-10 | 2026-09-03 00:14:13 | 50.97974 | 8.26788 | 82° | 11km/h | 24709m | 4.8m/s | -51.7°C | 3.9% | 28.1hPa | 2.5V | 00:00:00 | 01:56:41 | 00:00:00 | |
| DL1XH-15 | 2026-09-03 00:14:12 | 50.97974 | 8.26767 | 122° | 11km/h | 24683m | 5.6m/s | -51.7°C | 4% | 28.2hPa | 2.5V | 08:30:00 | 01:56:36 | 00:00:00 | |
| HSKMA3-T | 2026-09-03 00:14:11 | 50.97973 | 8.26778 | 83° | 11km/h | 24698m | 4.6m/s | -51.8°C | 0.8% | 28.2hPa | 2.6V | 18:12:15 | 01:56:39 | 00:00:00 | |
| DJ2DS-15 | 2026-09-03 00:14:11 | 50.97973 | 8.26777 | 84° | 13km/h | 24699m | 4.5m/s | -51.7°C | 4.0% | 28.1hPa | 2.5V | 00:00:00 | 01:56:39 | 00:00:00 | |
| DL1XH1-15 | 2026-09-03 00:14:10 | 50.97973 | 8.26770 | 114° | 9km/h | 24689m | 5.6m/s | -51.7°C | 3.9% | 28.2hPa | 2.5V | 08:30:00 | 01:56:37 | 00:00:00 | |
| BIOWL1-15 | 2026-09-03 00:14:10 | 50.97976 | 8.26751 | 57° | 11km/h | 24663m | 6.4m/s | -51.6°C | 0.7% | 28.3hPa | 2.5V | 18:12:15 | 01:56:32 | 00:00:00 | |
| DD8BA-10 | 2026-09-03 00:14:10 | 50.97973 | 8.26774 | 98° | 11km/h | 24694m | 4.4m/s | -51.7°C | 3.9% | 28.1hPa | 2.5V | 00:00:00 | 00:00:00 | 00:00:00 | |
| DO3MHA-12 | 2026-09-03 00:14:09 | 50.97973 | 8.26770 | 115° | 13km/h | 24689m | 5.6m/s | -51.7°C | 3.9% | 28.2hPa | 2.5V | 00:00:00 | 01:56:37 | 00:00:00 | |
| GOEST3-10 | 2026-09-03 00:14:08 | 50.97974 | 8.26767 | 123° | 11km/h | 24683m | 5.6m/s | -51.7°C | 4.0% | 28.2hPa | 2.5V | 00:00:00 | 00:00:00 | 00:00:00 | |
| DB0ND-19 | 2026-09-03 00:14:05 | 50.97977 | 8.26754 | 84° | 9km/h | 24668m | 4.7m/s | -51.6°C | 1.1% | 28.3hPa | 2.5V | 00:00:00 | 00:00:00 | 00:00:00 | |
| DL1NUX | 2026-09-03 00:14:04 | 50.97974 | 8.26747 | 35° | 13km/h | 24657m | 5.5m/s | -51.6°C | 3.9% | 28.3hPa | 2.5V | 08:30:00 | 01:56:31 | 00:00:00 | |
| DL1XH-west | 2026-09-03 00:14:02 | 50.97971 | 8.26744 | 36° | 15km/h | 24652m | 4.6m/s | -51.7°C | 0.8% | 28.4hPa | 2.5V | 18:12:15 | 01:56:30 | 00:00:00 | |
| DL1XH-15 | 2026-09-03 00:14:01 | 50.97965 | 8.26722 | 102° | 16km/h | 24631m | 5m/s | -51.8°C | 4% | 28.4hPa | 2.5V | 08:30:00 | 01:56:26 | 00:00:00 | |
| HSKMA3-T | 2026-09-03 00:14:01 | 50.97968 | 8.26740 | 46° | 16km/h | 24647m | 5.2m/s | -51.7°C | 0.7% | 28.4hPa | 2.6V | 18:12:15 | 01:56:29 | 00:00:00 | |
| DB0NH | 2026-09-03 00:14:01 | 50.97968 | 8.26740 | 47° | 15km/h | 24647m | 5.2m/s | -51.7°C | 3.9% | 28.3hPa | 2.5V | 00:00:00 | 01:56:29 | 00:00:00 | |
| DM0DOS-11 | 2026-09-03 00:14:00 | 50.97965 | 8.26729 | 83° | 16km/h | 24636m | 4.7m/s | -51.8°C | 3.9% | 28.4hPa | 2.5V | 08:30:00 | 01:56:27 | 00:00:00 | |
| AA1-15 | 2026-09-03 00:14:00 | 50.97966 | 8.26735 | 63° | 16km/h | 24642m | 5.4m/s | -51.8°C | 0.7% | 28.4hPa | 2.6V | 18:12:15 | 01:56:28 | 00:00:00 | |
| BIOWL1-15 | 2026-09-03 00:14:00 | 50.97968 | 8.26712 | 119° | 13km/h | 24621m | 4.9m/s | -51.9°C | 0.7% | 28.5hPa | 2.5V | 18:12:15 | 01:56:24 | 00:00:00 | |
| DO3MHA-12 | 2026-09-03 00:13:59 | 50.97965 | 8.26729 | 84° | 16km/h | 24637m | 4.6m/s | -51.8°C | 3.9% | 28.4hPa | 2.5V | 00:00:00 | 01:56:27 | 00:00:00 | |
| GOEST3-10 | 2026-09-03 00:13:58 | 50.97965 | 8.26722 | 103° | 13km/h | 24632m | 4.9m/s | -51.8°C | 4.0% | 28.4hPa | 2.5V | 00:00:00 | 00:00:00 | 00:00:00 | |
| DO9LL-15 | 2026-09-03 00:13:57 | 50.97966 | 8.26717 | 115° | 16km/h | 24626m | 6.0m/s | -51.8°C | 4.0% | 28.4hPa | 2.5V | 00:00:00 | 01:56:25 | 00:00:00 | |
| DO3DL | 2026-09-03 00:13:56 | 50.97966 | 8.26717 | 115° | 15km/h | 24626m | 6.0m/s | -51.9°C | 1.1% | 28.5hPa | 2.6V | 00:00:00 | 00:00:00 | 00:00:00 | |
| DO3MHA-11 | 2026-09-03 00:13:55 | 50.97969 | 8.26707 | 114° | 16km/h | 24617m | 3.8m/s | -51.8°C | 3.9% | 28.5hPa | 2.6V | 00:00:00 | 01:56:23 | 00:00:00 | |
| DL1NUX | 2026-09-03 00:13:54 | 50.97971 | 8.26697 | 90° | 16km/h | 24606m | 5.7m/s | -51.8°C | 3.9% | 28.6hPa | 2.6V | 08:30:00 | 01:56:21 | 00:00:00 | |
| DL1XH-west | 2026-09-03 00:13:52 | 50.97969 | 8.26683 | 70° | 20km/h | 24596m | 4.8m/s | -51.8°C | 0.8% | 28.6hPa | 2.5V | 18:12:15 | 01:56:19 | 00:00:00 | |
| DL1XH-15 | 2026-09-03 00:13:52 | 50.97962 | 8.26665 | 43° | 16km/h | 24579m | 5.5m/s | -51.7°C | 3.9% | 28.7hPa | 2.6V | 08:30:00 | 01:56:16 | 00:00:00 | |
| DL1XH1-15 | 2026-09-03 00:13:51 | 50.97964 | 8.26670 | 50° | 18km/h | 24585m | 5.5m/s | -51.7°C | 3.9% | 28.7hPa | 2.6V | 08:30:00 | 01:56:17 | 00:00:00 | |
| HSKMA3-T | 2026-09-03 00:13:50 | 50.97967 | 8.26676 | 60° | 18km/h | 24590m | 5.2m/s | -51.8°C | 0.8% | 28.6hPa | 2.5V | 18:12:15 | 01:56:18 | 00:00:00 | |
| BIOWL1-15 | 2026-09-03 00:13:45 | 50.97952 | 8.26648 | 54° | 24km/h | 24564m | 5.9m/s | -51.6°C | 0.7% | 28.8hPa | 2.5V | 18:12:15 | 01:56:13 | 00:00:00 | |
| DO3MHA-11 | 2026-09-03 00:13:45 | 50.97952 | 8.26648 | 55° | 20km/h | 24564m | 5.8m/s | -51.6°C | 3.9% | 28.7hPa | 2.6V | 00:00:00 | 01:56:13 | 00:00:00 | |
| DL1NUX | 2026-09-03 00:13:44 | 50.97946 | 8.26632 | 64° | 24km/h | 24553m | 5.6m/s | -51.6°C | 3.9% | 28.8hPa | 2.6V | 08:30:00 | 01:56:11 | 00:00:00 | |
| DL1XH-west | 2026-09-03 00:13:41 | 50.97941 | 8.26616 | 66° | 18km/h | 24542m | 4.8m/s | -51.6°C | 0.7% | 28.9hPa | 2.5V | 18:12:15 | 01:56:09 | 00:00:00 | |
| DL1XH-15 | 2026-09-03 00:13:41 | 50.97935 | 8.26597 | 61° | 18km/h | 24526m | 5.2m/s | -51.6°C | 3.9% | 28.9hPa | 2.6V | 08:30:00 | 01:56:06 | 00:00:00 | |
| DL1XH1-15 | 2026-09-03 00:13:40 | 50.97937 | 8.26603 | 62° | 18km/h | 24532m | 5.8m/s | -51.6°C | 4% | 28.9hPa | 2.6V | 08:30:00 | 01:56:07 | 00:00:00 | |
| AA1-15 | 2026-09-03 00:13:40 | 50.97939 | 8.26610 | 64° | 18km/h | 24537m | 4.6m/s | -51.6°C | 0.8% | 28.9hPa | 2.5V | 18:12:15 | 01:56:08 | 00:00:00 | |
| HSKMA3-T | 2026-09-03 00:13:39 | 50.97937 | 8.26603 | 63° | 18km/h | 24532m | 5.8m/s | -51.6°C | 0.8% | 28.9hPa | 2.6V | 18:12:15 | 01:56:07 | 00:00:00 | |
| DO2JMG | 2026-09-03 00:13:36 | 50.97931 | 8.26585 | 58° | 15km/h | 24516m | 5.8m/s | 0°C | 0% | 0hPa | 2.5V | 18:12:15 | 01:56:04 | 00:00:00 | |
| BIOWL1-15 | 2026-09-03 00:13:35 | 50.97928 | 8.26579 | 45° | 9km/h | 24505m | 4.6m/s | -51.6°C | 0.8% | 29hPa | 2.5V | 18:12:15 | 01:56:02 | 00:00:00 | |
| DL1XH-west | 2026-09-03 00:13:31 | 50.97922 | 8.26569 | 46° | 15km/h | 24489m | 4.4m/s | -51.5°C | 0.8% | 29.1hPa | 2.6V | 18:12:15 | 01:55:59 | 00:00:00 | |
| DL1XH-15 | 2026-09-03 00:13:31 | 50.97914 | 8.26556 | 43° | 11km/h | 24473m | 5.4m/s | -51.4°C | 4% | 29.2hPa | 2.5V | 08:30:00 | 01:55:56 | 00:00:00 | |
| AA1-15 | 2026-09-03 00:13:29 | 50.97916 | 8.26560 | 47° | 15km/h | 24479m | 6.3m/s | -51.4°C | 0.8% | 29.1hPa | 2.5V | 18:12:15 | 01:55:57 | 00:00:00 | |
| HSKMA3-T | 2026-09-03 00:13:28 | 50.97914 | 8.26557 | 43° | 11km/h | 24473m | 5.4m/s | -51.4°C | 0.8% | 29.2hPa | 2.5V | 18:12:15 | 01:55:56 | 00:00:00 | |
| BIOWL1-15 | 2026-09-03 00:13:26 | 50.97905 | 8.26544 | 36° | 15km/h | 24452m | 4.8m/s | -51.3°C | 0.8% | 29.3hPa | 2.5V | 18:12:15 | 01:55:52 | 00:00:00 | |
| DO2JMG | 2026-09-03 00:13:26 | 50.97910 | 8.26551 | 39° | 11km/h | 24463m | 4.7m/s | 0°C | 0% | 0hPa | 2.6V | 18:12:15 | 01:55:54 | 00:00:00 | |
| DB0NH | 2026-09-03 00:13:26 | 50.97910 | 8.26551 | 39° | 7km/h | 24464m | 4.6m/s | -51.3°C | 3.9% | 29.2hPa | 2.6V | 00:00:00 | 01:55:54 | 00:00:00 | |
| DO3MHA-11 | 2026-09-03 00:13:25 | 50.97907 | 8.26547 | 39° | 7km/h | 24458m | 6.1m/s | -51.3°C | 3.9% | 29.2hPa | 2.5V | 00:00:00 | 01:55:53 | 00:00:00 | |
| DF7PN | 2026-09-03 00:13:24 | 50.97905 | 8.26544 | 35° | 13km/h | 24452m | 4.8m/s | -51.3°C | 1.1% | 29.3hPa | 2.5V | 00:00:00 | 00:00:00 | 00:00:00 | |
| GOEST3-10 | 2026-09-03 00:13:23 | 50.97902 | 8.26541 | 29° | 5km/h | 24448m | 4.4m/s | -51.3°C | 3.9% | 29.2hPa | 2.5V | 00:00:00 | 01:55:51 | 00:00:00 | |
| DL3AQ-11 | 2026-09-03 00:13:22 | 50.97898 | 8.26540 | 340° | 4km/h | 24436m | 5.5m/s | -51.3°C | 1.1% | 29.3hPa | 2.5V | 00:00:00 | 00:00:00 | 00:00:00 | |
| DL1XH-15 | 2026-09-03 00:13:21 | 50.97896 | 8.26542 | 58° | 2km/h | 24420m | 5.3m/s | -51.2°C | 3.8% | 29.4hPa | 2.5V | 08:30:00 | 01:55:46 | 00:00:00 | |
| DL1XH-west | 2026-09-03 00:13:21 | 50.97898 | 8.26540 | 341° | 5km/h | 24436m | 5.5m/s | -51.3°C | 0.7% | 29.3hPa | 2.6V | 18:12:15 | 01:55:49 | 00:00:00 | |
| DJ2KF-10 | 2026-09-03 00:13:21 | 50.97898 | 8.26540 | 341° | 7km/h | 24436m | 5.5m/s | -51.2°C | 3.9% | 29.3hPa | 2.6V | 00:00:00 | 01:55:49 | 08:30:00 | |
| DM0DOS-11 | 2026-09-03 00:13:20 | 50.97897 | 8.26541 | 318° | 2km/h | 24425m | 6m/s | -51.2°C | 3.9% | 29.4hPa | 2.5V | 08:30:00 | 01:55:47 | 00:00:00 | |
| AA1-15 | 2026-09-03 00:13:19 | 50.97897 | 8.26541 | 319° | 2km/h | 24425m | 6m/s | -51.2°C | 0.7% | 29.4hPa | 2.5V | 18:12:15 | 01:55:47 | 00:00:00 | |
| HSKMA3-T | 2026-09-03 00:13:17 | 50.97896 | 8.26541 | 93° | 2km/h | 24415m | 4.7m/s | -51.2°C | 0.7% | 29.4hPa | 2.6V | 18:12:15 | 01:55:45 | 00:00:00 | |
| DO2JMG | 2026-09-03 00:13:15 | 50.97897 | 8.26539 | 169° | 2km/h | 24405m | 5.9m/s | 0°C | 0% | 0hPa | 2.5V | 18:12:15 | 01:55:43 | 00:00:00 | |
| BIOWL1-15 | 2026-09-03 00:13:13 | 50.97898 | 8.26540 | 215° | 2km/h | 24394m | 4.5m/s | -51.3°C | 0.7% | 29.5hPa | 2.5V | 18:12:15 | 01:55:41 | 00:00:00 | |
| GOEST3-10 | 2026-09-03 00:13:13 | 50.97898 | 8.26540 | 216° | 5km/h | 24395m | 4.5m/s | -51.3°C | 3.9% | 29.5hPa | 2.5V | 00:00:00 | 01:55:41 | 00:00:00 | |
| HARRO8 | 2026-09-03 00:13:12 | 50.97897 | 8.26540 | 15° | 4km/h | 24384m | 5.4m/s | -51.4°C | 1.1% | 29.6hPa | 2.5V | 00:00:00 | 00:00:00 | 00:00:00 | |
| DL1XH-15 | 2026-09-03 00:13:11 | 50.97892 | 8.26542 | 311° | 9km/h | 24368m | 5.6m/s | -51.3°C | 3.8% | 29.6hPa | 2.5V | 08:30:00 | 01:55:36 | 00:00:00 | |
| DL1XH-west | 2026-09-03 00:13:11 | 50.97897 | 8.26540 | 16° | 4km/h | 24383m | 5.4m/s | -51.4°C | 0.7% | 29.6hPa | 2.6V | 18:12:15 | 01:55:39 | 00:00:00 | |
| DL1XH1-15 | 2026-09-03 00:13:11 | 50.97894 | 8.26540 | 334° | 7km/h | 24374m | 5.8m/s | -51.3°C | 3.9% | 29.6hPa | 2.6V | 08:30:00 | 01:55:37 | 00:00:00 | |
| AA1-15 | 2026-09-03 00:13:08 | 50.97892 | 8.26542 | 312° | 9km/h | 24368m | 5.6m/s | -51.3°C | 0.7% | 29.6hPa | 2.5V | 18:12:15 | 01:55:36 | 00:00:00 | |
| HSKMA3-T | 2026-09-03 00:13:07 | 50.97891 | 8.26546 | 302° | 11km/h | 24362m | 5m/s | -51.3°C | 0.7% | 29.7hPa | 2.5V | 18:12:15 | 01:55:35 | 00:00:00 | |
| DO2JMG | 2026-09-03 00:13:05 | 50.97887 | 8.26554 | 304° | 11km/h | 24352m | 6m/s | 0°C | 0% | 0hPa | 2.6V | 18:12:15 | 01:55:33 | 00:00:00 | |
| DO3MHA-11 | 2026-09-03 00:13:05 | 50.97887 | 8.26554 | 305° | 11km/h | 24352m | 5.9m/s | -51.2°C | 3.8% | 29.7hPa | 2.6V | 00:00:00 | 01:55:33 | 00:00:00 | |
| DL1XH1-15 | 2026-09-03 00:13:04 | 50.97887 | 8.26582 | 249° | 15km/h | 24321m | 4.3m/s | -51.2°C | 3.8% | 29.8hPa | 2.6V | 08:30:00 | 01:55:27 | 00:00:00 | |
| BIOWL1-15 | 2026-09-03 00:13:03 | 50.97884 | 8.26571 | 262° | 15km/h | 24331m | 5.7m/s | -51.2°C | 0.7% | 29.8hPa | 2.5V | 18:12:15 | 01:55:29 | 00:00:00 | |
| DB0ND-19 | 2026-09-03 00:13:03 | 50.97884 | 8.26566 | 275° | 11km/h | 24337m | 5.8m/s | -51.2°C | 1.1% | 29.8hPa | 2.5V | 00:00:00 | 00:00:00 | 00:00:00 | |
| EDDB2-11 | 2026-09-03 00:13:02 | 50.97884 | 8.26571 | 261° | 13km/h | 24331m | 5.7m/s | -51.2°C | 1.1% | 29.8hPa | 2.5V | 00:00:00 | 00:00:00 | 00:00:00 | |
| DL1XH-15 | 2026-09-03 00:13:01 | 50.97887 | 8.26587 | 249° | 11km/h | 24316m | 5.9m/s | -51.2°C | 3.8% | 29.9hPa | 2.5V | 08:30:00 | 01:55:26 | 00:00:00 | |
| DL1XH-west | 2026-09-03 00:13:01 | 50.97885 | 8.26577 | 253° | 15km/h | 24326m | 4.6m/s | -51.2°C | 0.7% | 29.8hPa | 2.6V | 18:12:15 | 01:55:28 | 00:00:00 | |
| AA1-15 | 2026-09-03 00:12:58 | 50.97888 | 8.26587 | 250° | 11km/h | 24316m | 5.9m/s | -51.2°C | 0.7% | 29.9hPa | 2.5V | 18:12:15 | 01:55:26 | 00:00:00 | |
| HSKMA3-T | 2026-09-03 00:12:57 | 50.97888 | 8.26590 | 254° | 5km/h | 24311m | 4.9m/s | -51.2°C | 0.7% | 29.9hPa | 2.5V | 18:12:15 | 01:55:25 | 00:00:00 | |
| DO2JMG | 2026-09-03 00:12:54 | 50.97889 | 8.26596 | 270° | 7km/h | 24296m | 5.4m/s | 0°C | 0% | 0hPa | 2.6V | 18:12:15 | 01:55:22 | 00:00:00 | |
| DL1XH1-15 | 2026-09-03 00:12:54 | 50.97887 | 8.26613 | 272° | 5km/h | 24271m | 4.3m/s | -51.3°C | 3.8% | 30.1hPa | 2.6V | 08:30:00 | 01:55:17 | 00:00:00 | |
| DL1NUX | 2026-09-03 00:12:54 | 50.97889 | 8.26599 | 269° | 9km/h | 24291m | 5.2m/s | -51.2°C | 3.8% | 30hPa | 2.5V | 08:30:00 | 01:55:21 | 00:00:00 | |
| DF7PN | 2026-09-03 00:12:53 | 50.97889 | 8.26599 | 269° | 9km/h | 24291m | 5.2m/s | -51.2°C | 1.1% | 30.0hPa | 2.6V | 00:00:00 | 00:00:00 | 00:00:00 | |
| SO1NDE-10 | 2026-09-03 00:12:52 | 50.97888 | 8.26603 | 273° | 13km/h | 24286m | 4.8m/s | -51.2°C | 3.8% | 29.9hPa | 2.6V | 00:00:00 | 01:55:20 | 00:00:00 | |
| DL1XH-15 | 2026-09-03 00:12:51 | 50.97888 | 8.26615 | 230° | 5km/h | 24266m | 4.7m/s | -51.2°C | 3.9% | 30.1hPa | 2.6V | 08:30:00 | 01:55:16 | 00:00:00 | |
| DL1XH-west | 2026-09-03 00:12:50 | 50.97888 | 8.26610 | 288° | 7km/h | 24276m | 5.6m/s | -51.2°C | 0.7% | 30.1hPa | 2.5V | 18:12:15 | 01:55:18 | 00:00:00 | |
| AA1-15 | 2026-09-03 00:12:48 | 50.97888 | 8.26615 | 231° | 5km/h | 24266m | 4.7m/s | -51.3°C | 0.7% | 30.1hPa | 2.6V | 18:12:15 | 01:55:16 | 00:00:00 | |
| HSKMA3-T | 2026-09-03 00:12:47 | 50.97889 | 8.26617 | 211° | 11km/h | 24261m | 6m/s | -51.3°C | 0.7% | 30.1hPa | 2.6V | 18:12:15 | 01:55:15 | 00:00:00 | |
| DL8DAS-14 | 2026-09-03 00:12:46 | 50.97892 | 8.26620 | 208° | 15km/h | 24255m | 5.0m/s | -51.3°C | 1.1% | 30.1hPa | 2.6V | 00:00:00 | 00:00:00 | 00:00:00 | |
| DO3MHA-11 | 2026-09-03 00:12:45 | 50.97896 | 8.26623 | 209° | 15km/h | 24251m | 4.0m/s | -51.2°C | 3.9% | 30.1hPa | 2.6V | 00:00:00 | 01:55:13 | 00:00:00 | |
| DB0UT-7 | 2026-09-03 00:12:44 | 50.97900 | 8.26626 | 211° | 13km/h | 24246m | 5.2m/s | -51.2°C | 3.9% | 30.2hPa | 2.6V | 00:00:00 | 00:00:00 | 00:00:00 | |
| GOEST3-10 | 2026-09-03 00:12:43 | 50.97903 | 8.26629 | 214° | 13km/h | 24241m | 5.3m/s | -51.2°C | 3.9% | 30.2hPa | 2.6V | 00:00:00 | 00:00:00 | 00:00:00 | |
| BIOWL9-15 | 2026-09-03 00:12:42 | 50.97906 | 8.26633 | 220° | 11km/h | 24236m | 4.5m/s | -51.3°C | 1.1% | 30.2hPa | 2.6V | 00:00:00 | 00:00:00 | 00:00:00 | |
| DL1XH-15 | 2026-09-03 00:12:41 | 50.97914 | 8.26649 | 237° | 16km/h | 24216m | 4.8m/s | -51.2°C | 3.8% | 30.3hPa | 2.6V | 08:30:00 | 01:55:06 | 00:00:00 | |
| BIOWL1-15 | 2026-09-03 00:12:40 | 50.97910 | 8.26640 | 233° | 13km/h | 24227m | 5.5m/s | -51.2°C | 0.7% | 30.3hPa | 2.5V | 18:12:15 | 01:55:08 | 00:00:00 | |
| DL1XH1-15 | 2026-09-03 00:12:40 | 50.97912 | 8.26644 | 235° | 15km/h | 24221m | 5.6m/s | -51.2°C | 3.8% | 30.3hPa | 2.5V | 08:30:00 | 01:55:07 | 00:00:00 | |
| DL1XH-west | 2026-09-03 00:12:39 | 50.97912 | 8.26644 | 235° | 15km/h | 24221m | 5.6m/s | -51.2°C | 0.7% | 30.3hPa | 2.5V | 18:12:15 | 01:55:07 | 00:00:00 | |
| AA1-15 | 2026-09-03 00:12:38 | 50.97914 | 8.26649 | 238° | 16km/h | 24216m | 4.8m/s | -51.2°C | 0.7% | 30.4hPa | 2.6V | 18:12:15 | 01:55:06 | 00:00:00 | |
| HSKMA3-T | 2026-09-03 00:12:36 | 50.97918 | 8.26660 | 245° | 13km/h | 24206m | 5.9m/s | -51.2°C | 0.6% | 30.4hPa | 2.5V | 18:12:15 | 01:55:04 | 00:00:00 | |
| DO3MHA-11 | 2026-09-03 00:12:35 | 50.97919 | 8.26664 | 246° | 15km/h | 24201m | 4.7m/s | -51.2°C | 3.8% | 30.4hPa | 2.5V | 00:00:00 | 01:55:03 | 08:30:00 | |
| DL1XH1-15 | 2026-09-03 00:12:34 | 50.97937 | 8.26686 | 207° | 16km/h | 24170m | 5.5m/s | -51.2°C | 3.8% | 30.6hPa | 2.5V | 08:30:00 | 01:54:57 | 00:00:00 | |
| DL1NUX | 2026-09-03 00:12:34 | 50.97923 | 8.26672 | 226° | 13km/h | 24190m | 5.8m/s | -51.2°C | 3.8% | 30.5hPa | 2.6V | 08:30:00 | 01:55:01 | 00:00:00 | |
| DJ2DS-15 | 2026-09-03 00:12:34 | 50.97921 | 8.26668 | 236° | 11km/h | 24196m | 4.7m/s | -51.3°C | 1.1% | 30.4hPa | 2.5V | 00:00:00 | 00:00:00 | 00:00:00 | |
| GOEST3-10 | 2026-09-03 00:12:33 | 50.97923 | 8.26672 | 227° | 16km/h | 24191m | 5.8m/s | -51.2°C | 3.8% | 30.4hPa | 2.5V | 00:00:00 | 00:00:00 | 00:00:00 | |
| DB0ND-19 | 2026-09-03 00:12:32 | 50.97929 | 8.26680 | 210° | 18km/h | 24180m | 4.2m/s | -51.2°C | 1.1% | 30.5hPa | 2.5V | 00:00:00 | 00:00:00 | 00:00:00 | |
| DL1XH-15 | 2026-09-03 00:12:31 | 50.97940 | 8.26689 | 210° | 15km/h | 24165m | 4.5m/s | -51.2°C | 3.8% | 30.6hPa | 2.5V | 08:30:00 | 01:54:56 | 00:00:00 | |
| DL1XH-west | 2026-09-03 00:12:29 | 50.97937 | 8.26686 | 208° | 16km/h | 24170m | 5.5m/s | -51.3°C | 0.7% | 30.6hPa | 2.5V | 18:12:15 | 01:54:57 | 00:00:00 | |
| BIOWL1-15 | 2026-09-03 00:12:29 | 50.97947 | 8.26696 | 217° | 16km/h | 24155m | 5.7m/s | -51.3°C | 0.6% | 30.6hPa | 2.6V | 18:12:15 | 01:54:54 | 00:00:00 | |
| AA1-15 | 2026-09-03 00:12:27 | 50.97943 | 8.26693 | 213° | 16km/h | 24160m | 5m/s | -51.2°C | 0.6% | 30.6hPa | 2.6V | 18:12:15 | 01:54:55 | 00:00:00 | |
| HSKMA3-T | 2026-09-03 00:12:25 | 50.97950 | 8.26701 | 223° | 16km/h | 24150m | 4.3m/s | -51.3°C | 0.7% | 30.7hPa | 2.6V | 18:12:15 | 01:54:53 | 00:00:00 | |
| DB0NH | 2026-09-03 00:12:25 | 50.97950 | 8.26701 | 223° | 7km/h | 24150m | 4.3m/s | -51.2°C | 3.8% | 30.6hPa | 2.5V | 00:00:00 | 01:54:53 | 00:00:00 | |
| DL1NUX | 2026-09-03 00:12:24 | 50.97955 | 8.26710 | 241° | 11km/h | 24140m | 5.8m/s | -51.3°C | 3.8% | 30.7hPa | 2.5V | 08:30:00 | 01:54:51 | 00:00:00 | |
| NBG1-10 | 2026-09-03 00:12:24 | 50.97953 | 8.26705 | 231° | 11km/h | 24146m | 4.4m/s | -51.2°C | 3.8% | 30.6hPa | 2.5V | 00:00:00 | 01:54:52 | 00:00:00 | |
| GOEST3-10 | 2026-09-03 00:12:23 | 50.97955 | 8.26710 | 242° | 9km/h | 24141m | 5.8m/s | -51.2°C | 3.8% | 30.7hPa | 2.5V | 00:00:00 | 00:00:00 | 00:00:00 | |
| SO1NDE-10 | 2026-09-03 00:12:22 | 50.97956 | 8.26713 | 255° | 7km/h | 24136m | 4.5m/s | -51.2°C | 3.8% | 30.7hPa | 2.5V | 00:00:00 | 01:54:50 | 00:00:00 | |
| DL1XH-15 | 2026-09-03 00:12:21 | 50.97961 | 8.26724 | 204° | 13km/h | 24116m | 4.6m/s | -51.5°C | 3.8% | 30.8hPa | 2.5V | 08:30:00 | 01:54:46 | 00:00:00 | |
| BIOWL1-15 | 2026-09-03 00:12:19 | 50.97958 | 8.26722 | 220° | 11km/h | 24121m | 5.6m/s | -51.4°C | 0.7% | 30.8hPa | 2.5V | 18:12:15 | 01:54:47 | 00:00:00 | |
| AA1-15 | 2026-09-03 00:12:17 | 50.97967 | 8.26727 | 184° | 11km/h | 24106m | 6m/s | -51.6°C | 0.7% | 30.8hPa | 2.6V | 18:12:15 | 01:54:44 | 00:00:00 | |
| DL8DAS-14 | 2026-09-03 00:12:16 | 50.97969 | 8.26727 | 168° | 9km/h | 24101m | 5.2m/s | -51.6°C | 1.1% | 30.9hPa | 2.5V | 00:00:00 | 00:00:00 | 00:00:00 | |
| HSKMA3-T | 2026-09-03 00:12:15 | 50.97969 | 8.26727 | 169° | 9km/h | 24101m | 5.2m/s | -51.6°C | 0.7% | 30.9hPa | 2.6V | 18:12:15 | 01:54:43 | 00:00:00 | |
| DO3MHA-11 | 2026-09-03 00:12:15 | 50.97969 | 8.26727 | 169° | 7km/h | 24101m | 5.1m/s | -51.6°C | 3.8% | 30.8hPa | 2.5V | 00:00:00 | 01:54:43 | 00:00:00 | |
| DL1NUX | 2026-09-03 00:12:14 | 50.97974 | 8.26725 | 171° | 9km/h | 24091m | 4.5m/s | -51.7°C | 3.8% | 30.9hPa | 2.5V | 08:30:00 | 01:54:41 | 00:00:00 | |
| DL1XH1-15 | 2026-09-03 00:12:14 | 50.97984 | 8.26725 | 177° | 5km/h | 24071m | 6m/s | -51.7°C | 3.9% | 31hPa | 2.5V | 08:30:00 | 01:54:37 | 00:00:00 | |
| DB0UT-7 | 2026-09-03 00:12:14 | 50.97972 | 8.26725 | 164° | 7km/h | 24096m | 4.5m/s | -51.6°C | 3.8% | 30.9hPa | 2.5V | 00:00:00 | 01:54:42 | 00:00:00 | |
| GOEST3-10 | 2026-09-03 00:12:13 | 50.97974 | 8.26725 | 172° | 9km/h | 24091m | 4.5m/s | -51.6°C | 3.8% | 30.9hPa | 2.5V | 00:00:00 | 00:00:00 | 00:00:00 | |
| AU51GT2 | 2026-09-03 00:12:12 | 50.97976 | 8.26725 | 180° | 9km/h | 24086m | 5.8m/s | -51.7°C | 1.1% | 30.9hPa | 2.5V | 00:00:00 | 00:00:00 | 00:00:00 | |
| DL1XH-15 | 2026-09-03 00:12:11 | 50.97985 | 8.26725 | 143° | 4km/h | 24065m | 5.2m/s | -51.7°C | 3.9% | 31.1hPa | 2.5V | 08:30:00 | 01:54:36 | 00:00:00 | |
| BIOWL1-15 | 2026-09-03 00:12:08 | 50.97988 | 8.26717 | 91° | 4km/h | 24041m | 5.8m/s | -51.8°C | 0.7% | 31.2hPa | 2.6V | 18:12:15 | 01:54:31 | 00:00:00 | |
| AA1-15 | 2026-09-03 00:12:06 | 50.97986 | 8.26722 | 128° | 5km/h | 24055m | 5.6m/s | -51.8°C | 0.8% | 31.1hPa | 2.5V | 18:12:15 | 01:54:34 | 00:00:00 | |
| DO3MHA-11 | 2026-09-03 00:12:05 | 50.97987 | 8.26720 | 135° | 4km/h | 24051m | 4.6m/s | -51.7°C | 4.0% | 31.1hPa | 2.6V | 00:00:00 | 01:54:33 | 00:00:00 | |
| DL1NUX | 2026-09-03 00:12:04 | 50.97988 | 8.26717 | 90° | 4km/h | 24041m | 5.8m/s | -51.8°C | 3.9% | 31.2hPa | 2.6V | 08:30:00 | 01:54:31 | 00:00:00 | |
| DL1XH1-15 | 2026-09-03 00:12:04 | 50.97988 | 8.26714 | 189° | 4km/h | 24021m | 5m/s | -51.9°C | 3.9% | 31.3hPa | 2.6V | 08:30:00 | 01:54:27 | 00:00:00 | |
| HSKMA3-T | 2026-09-03 00:12:04 | 50.97988 | 8.26719 | 121° | 4km/h | 24046m | 4.2m/s | -51.8°C | 0.7% | 31.1hPa | 2.6V | 18:12:15 | 01:54:32 | 00:00:00 | |
| GOEST3-10 | 2026-09-03 00:12:03 | 50.97988 | 8.26717 | 91° | 4km/h | 24041m | 5.7m/s | -51.8°C | 3.9% | 31.1hPa | 2.6V | 00:00:00 | 00:00:00 | 00:00:00 | |
| DL3AQ-11 | 2026-09-03 00:12:02 | 50.97987 | 8.26715 | 56° | 2km/h | 24031m | 4.4m/s | -51.9°C | 1.1% | 31.2hPa | 2.6V | 00:00:00 | 00:00:00 | 00:00:00 | |
| DL1XH-15 | 2026-09-03 00:12:01 | 50.97989 | 8.26714 | 191° | 7km/h | 24016m | 4m/s | -51.9°C | 3.9% | 31.3hPa | 2.6V | 08:30:00 | 01:54:26 | 00:00:00 | |
| BIOWL1-15 | 2026-09-03 00:11:56 | 50.97992 | 8.26715 | 187° | 5km/h | 24006m | 5.5m/s | -52°C | 0.7% | 31.3hPa | 2.5V | 18:12:15 | 01:54:24 | 00:00:00 | |
| DL1XH-west | 2026-09-03 00:11:55 | 50.97994 | 8.26715 | 187° | 4km/h | 24001m | 4.9m/s | -52.1°C | 0.7% | 31.4hPa | 2.5V | 18:12:15 | 01:54:23 | 00:00:00 | |
| DB0NH | 2026-09-03 00:11:55 | 50.97993 | 8.26715 | 188° | 9km/h | 24001m | 4.8m/s | -52.0°C | 3.9% | 31.3hPa | 2.5V | 00:00:00 | 01:54:23 | 08:30:00 | |
| DL1NUX | 2026-09-03 00:11:54 | 50.97996 | 8.26717 | 207° | 7km/h | 23991m | 5.7m/s | -52.2°C | 4% | 31.4hPa | 2.6V | 08:30:00 | 01:54:21 | 00:00:00 | |
| HSKMA3-T | 2026-09-03 00:11:54 | 50.97995 | 8.26716 | 197° | 5km/h | 23996m | 4.6m/s | -52.2°C | 0.8% | 31.4hPa | 2.6V | 18:12:15 | 01:54:22 | 00:00:00 | |
| DF7PN | 2026-09-03 00:11:51 | 50.97999 | 8.26720 | 237° | 5km/h | 23982m | 3.9m/s | -52.2°C | 1.1% | 31.4hPa | 2.6V | 00:00:00 | 00:00:00 | 00:00:00 | |
| DL3AQ-11 | 2026-09-03 00:11:48 | 50.97997 | 8.26727 | 327° | 9km/h | 23966m | 4.9m/s | -52.2°C | 1.2% | 31.5hPa | 2.6V | 00:00:00 | 00:00:00 | 00:00:00 | |
| DO1YAY-16 | 2026-09-03 00:11:47 | 50.97993 | 8.26732 | 314° | 9km/h | 23956m | 5.5m/s | -52.1°C | 1.2% | 31.6hPa | 2.6V | 00:00:00 | 00:00:00 | 00:00:00 | |
| DL1NUX | 2026-09-03 00:11:45 | 50.97989 | 8.26741 | 303° | 9km/h | 23942m | 5.5m/s | -52°C | 4% | 31.6hPa | 2.6V | 08:30:00 | 01:54:11 | 00:00:00 | |
| DL1XH-west | 2026-09-03 00:11:44 | 50.97991 | 8.26738 | 299° | 9km/h | 23947m | 4.2m/s | -52°C | 0.8% | 31.6hPa | 2.5V | 18:12:15 | 01:54:12 | 00:00:00 | |
| DB0UT-7 | 2026-09-03 00:11:44 | 50.97990 | 8.26738 | 299° | 11km/h | 23947m | 4.2m/s | -52.0°C | 4.0% | 31.6hPa | 2.5V | 00:00:00 | 00:00:00 | 00:00:00 | |
| GOEST3-10 | 2026-09-03 00:11:43 | 50.97989 | 8.26741 | 304° | 11km/h | 23942m | 5.5m/s | -51.9°C | 4.0% | 31.6hPa | 2.5V | 00:00:00 | 00:00:00 | 00:00:00 | |
| DM0DOS-11 | 2026-09-03 00:11:41 | 50.97984 | 8.26761 | 270° | 13km/h | 23917m | 4.3m/s | -52.1°C | 4% | 31.8hPa | 2.5V | 08:30:00 | 01:54:06 | 00:00:00 | |
| DJTTGO | 2026-09-03 00:11:41 | 50.97986 | 8.26748 | 306° | 11km/h | 23932m | 4.5m/s | -52.0°C | 1.1% | 31.7hPa | 2.5V | 00:00:00 | 00:00:00 | 00:00:00 | |
| BIOWL9-15 | 2026-09-03 00:11:40 | 50.97985 | 8.26752 | 291° | 11km/h | 23927m | 5.3m/s | -52.0°C | 1.2% | 31.8hPa | 2.5V | 00:00:00 | 00:00:00 | 00:00:00 | |
| HARRO8 | 2026-09-03 00:11:39 | 50.97984 | 8.26761 | 270° | 13km/h | 23917m | 4.4m/s | -52.1°C | 1.1% | 31.8hPa | 2.5V | 00:00:00 | 00:00:00 | 00:00:00 | |
| DD8BA-10 | 2026-09-03 00:11:38 | 50.97984 | 8.26761 | 271° | 11km/h | 23917m | 4.3m/s | -52.1°C | 4.0% | 31.7hPa | 2.5V | 00:00:00 | 00:00:00 | 00:00:00 | |
| DO3DL | 2026-09-03 00:11:37 | 50.97984 | 8.26761 | 272° | 13km/h | 23917m | 4.4m/s | -52.1°C | 1.2% | 31.8hPa | 2.5V | 00:00:00 | 00:00:00 | 00:00:00 | |
| DO3MHA-11 | 2026-09-03 00:11:35 | 50.97982 | 8.26777 | 298° | 11km/h | 23903m | 4.3m/s | -52.1°C | 4.0% | 31.8hPa | 2.5V | 00:00:00 | 01:54:03 | 00:00:00 | |
| DL1NUX | 2026-09-03 00:11:34 | 50.97979 | 8.26785 | 296° | 11km/h | 23894m | 4.8m/s | -52.1°C | 4% | 31.9hPa | 2.5V | 08:30:00 | 01:54:01 | 00:00:00 | |
| AA1-15 | 2026-09-03 00:11:34 | 50.97981 | 8.26781 | 301° | 13km/h | 23898m | 4.2m/s | -52.1°C | 0.8% | 31.9hPa | 2.5V | 18:12:15 | 01:54:02 | 00:00:00 | |
| DL1XH-west | 2026-09-03 00:11:34 | 50.97978 | 8.26788 | 285° | 9km/h | 23889m | 5.1m/s | -52.1°C | 0.8% | 31.9hPa | 2.6V | 18:12:15 | 01:54:00 | 00:00:00 | |
| HSKMA3-T | 2026-09-03 00:11:33 | 50.97979 | 8.26785 | 297° | 11km/h | 23894m | 4.8m/s | -52.1°C | 0.8% | 31.9hPa | 2.5V | 18:12:15 | 01:54:01 | 00:00:00 | |
| GOEST3-10 | 2026-09-03 00:11:33 | 50.97979 | 8.26785 | 297° | 9km/h | 23894m | 4.8m/s | -52.1°C | 4.0% | 31.9hPa | 2.5V | 00:00:00 | 00:00:00 | 00:00:00 | |
| DJ2DS-15 | 2026-09-03 00:11:31 | 50.97978 | 8.26792 | 278° | 11km/h | 23884m | 4.7m/s | -52.0°C | 4.0% | 31.9hPa | 2.5V | 00:00:00 | 01:53:59 | 00:00:00 | |
| DO3DL | 2026-09-03 00:11:30 | 50.97978 | 8.26792 | 279° | 9km/h | 23884m | 4.8m/s | -52.1°C | 1.2% | 32.0hPa | 2.5V | 00:00:00 | 00:00:00 | 00:00:00 | |
| DO3MHA-12 | 2026-09-03 00:11:29 | 50.97976 | 8.26799 | 302° | 11km/h | 23874m | 5.6m/s | -52.0°C | 4.0% | 32.0hPa | 2.5V | 00:00:00 | 01:53:57 | 00:00:00 | |
| WPPR-10 | 2026-09-03 00:11:28 | 50.97972 | 8.26808 | 306° | 13km/h | 23864m | 4.6m/s | -52.0°C | 1.1% | 32.0hPa | 2.5V | 00:00:00 | 00:00:00 | 00:00:00 | |
| DL4BBY-15 | 2026-09-03 00:11:27 | 50.97972 | 8.26808 | 307° | 13km/h | 23864m | 4.5m/s | -51.0°C | 0% | 0hPa | 2.5V | 00:00:00 | 00:00:00 | 00:00:00 | |
| DB0NH | 2026-09-03 00:11:25 | 50.97969 | 8.26816 | 281° | 15km/h | 23855m | 5.0m/s | -52.0°C | 4.0% | 32.0hPa | 2.5V | 00:00:00 | 01:53:53 | 00:00:00 | |
| DL1NUX | 2026-09-03 00:11:24 | 50.97970 | 8.26823 | 251° | 7km/h | 23846m | 3.9m/s | -52°C | 3.9% | 32.1hPa | 2.5V | 08:30:00 | 01:53:51 | 00:00:00 | |
| AA1-15 | 2026-09-03 00:11:24 | 50.97969 | 8.26820 | 261° | 9km/h | 23850m | 4.1m/s | -52°C | 0.8% | 32.1hPa | 2.5V | 18:12:15 | 01:53:52 | 00:00:00 | |
| HSKMA3-T | 2026-09-03 00:11:23 | 50.97970 | 8.26823 | 252° | 7km/h | 23846m | 3.9m/s | -52°C | 0.7% | 32.1hPa | 2.5V | 18:12:15 | 01:53:51 | 00:00:00 | |
| DL1XH-west | 2026-09-03 00:11:22 | 50.97970 | 8.26828 | 283° | 7km/h | 23836m | 5.2m/s | -51.9°C | 0.8% | 32.2hPa | 2.6V | 18:12:15 | 01:53:49 | 00:00:00 | |
| BIOWL1-15 | 2026-09-03 00:11:22 | 50.97970 | 8.26854 | 253° | 15km/h | 23809m | 4m/s | -51.9°C | 0.8% | 32.3hPa | 2.6V | 18:12:15 | 01:53:43 | 00:00:00 | |
| DJ2DS-15 | 2026-09-03 00:11:22 | 50.97970 | 8.26828 | 282° | 7km/h | 23836m | 5.2m/s | -51.9°C | 1.2% | 32.2hPa | 2.6V | 00:00:00 | 00:00:00 | 00:00:00 | |
| DJ2KF-10 | 2026-09-03 00:11:21 | 50.97970 | 8.26828 | 283° | 16km/h | 23836m | 5.2m/s | -51.9°C | 4.0% | 32.1hPa | 2.6V | 00:00:00 | 01:53:49 | 00:00:00 | |
| DL1XH1-15 | 2026-09-03 00:11:20 | 50.97969 | 8.26835 | 290° | 11km/h | 23827m | 4m/s | -51.9°C | 3.9% | 32.2hPa | 2.6V | 08:30:00 | 01:53:47 | 00:00:00 | |
| DF7PN | 2026-09-03 00:11:20 | 50.97969 | 8.26835 | 290° | 9km/h | 23827m | 4.0m/s | -51.9°C | 1.1% | 32.2hPa | 2.5V | 00:00:00 | 00:00:00 | 00:00:00 | |
| DJ8HS-15 | 2026-09-03 00:11:19 | 50.97969 | 8.26835 | 291° | 15km/h | 23827m | 3.9m/s | -51.9°C | 3.9% | 32.2hPa | 2.5V | 00:00:00 | 01:53:47 | 00:00:00 | |
| DD8BA-10 | 2026-09-03 00:11:18 | 50.97968 | 8.26839 | 277° | 13km/h | 23823m | 4.8m/s | -51.9°C | 4.0% | 32.2hPa | 2.5V | 00:00:00 | 00:00:00 | 00:00:00 | |
| DO3MHA-11 | 2026-09-03 00:11:15 | 50.97970 | 8.26854 | 253° | 15km/h | 23809m | 4.0m/s | -51.9°C | 4.0% | 32.3hPa | 2.6V | 00:00:00 | 01:53:43 | 00:00:00 | |
| DL1XH1-15 | 2026-09-03 00:11:14 | 50.97970 | 8.26887 | 252° | 16km/h | 23780m | 5.3m/s | -52°C | 4% | 32.5hPa | 2.6V | 08:30:00 | 01:53:37 | 00:00:00 | |
| DL1NUX | 2026-09-03 00:11:14 | 50.97971 | 8.26865 | 275° | 13km/h | 23798m | 4.9m/s | -51.9°C | 4% | 32.4hPa | 2.5V | 08:30:00 | 01:53:41 | 00:00:00 | |
| AA1-15 | 2026-09-03 00:11:13 | 50.97971 | 8.26865 | 275° | 13km/h | 23798m | 4.9m/s | -51.9°C | 0.8% | 32.4hPa | 2.5V | 18:12:15 | 01:53:41 | 00:00:00 | |
| HSKMA3-T | 2026-09-03 00:11:12 | 50.97970 | 8.26870 | 283° | 13km/h | 23794m | 3.9m/s | -51.9°C | 0.8% | 32.4hPa | 2.5V | 18:12:15 | 01:53:40 | 00:00:00 | |
| DL1XH-west | 2026-09-03 00:11:11 | 50.97969 | 8.26881 | 265° | 15km/h | 23785m | 5.6m/s | -52°C | 0.8% | 32.4hPa | 2.6V | 18:12:15 | 01:53:38 | 00:00:00 | |
| BIOWL1-15 | 2026-09-03 00:11:07 | 50.97976 | 8.26914 | 262° | 15km/h | 23760m | 5.3m/s | -51.9°C | 0.8% | 32.6hPa | 2.6V | 18:12:15 | 01:53:33 | 00:00:00 | |
| DO3DL | 2026-09-03 00:11:06 | 50.97975 | 8.26908 | 253° | 18km/h | 23766m | 5.4m/s | -52.0°C | 1.2% | 32.6hPa | 2.6V | 00:00:00 | 00:00:00 | 00:00:00 | |
| DO3MHA-11 | 2026-09-03 00:11:05 | 50.97976 | 8.26914 | 263° | 16km/h | 23761m | 5.2m/s | -51.9°C | 4.1% | 32.5hPa | 2.6V | 00:00:00 | 01:53:33 | 08:30:00 | |
| DL1NUX | 2026-09-03 00:11:04 | 50.97976 | 8.26925 | 269° | 13km/h | 23752m | 3.8m/s | -51.9°C | 4% | 32.6hPa | 2.5V | 08:30:00 | 01:53:31 | 00:00:00 | |
| AA1-15 | 2026-09-03 00:11:02 | 50.97977 | 8.26930 | 257° | 13km/h | 23747m | 5.4m/s | -51.9°C | 0.8% | 32.6hPa | 2.5V | 18:12:15 | 01:53:30 | 00:00:00 | |
| HSKMA3-T | 2026-09-03 00:11:01 | 50.97978 | 8.26935 | 244° | 16km/h | 23742m | 5.1m/s | -51.9°C | 0.8% | 32.7hPa | 2.5V | 18:12:15 | 01:53:29 | 00:00:00 | |
| DL1XH-west | 2026-09-03 00:10:59 | 50.97983 | 8.26947 | 237° | 18km/h | 23733m | 4.8m/s | -51.8°C | 0.8% | 32.7hPa | 2.6V | 18:12:15 | 01:53:27 | 00:00:00 | |
| DM0DOS-11 | 2026-09-03 00:10:59 | 50.97985 | 8.26954 | 239° | 18km/h | 23727m | 5.6m/s | -51.8°C | 4% | 32.7hPa | 2.6V | 08:30:00 | 01:53:26 | 00:00:00 | |
| BIOWL1-15 | 2026-09-03 00:10:56 | 50.97990 | 8.26968 | 235° | 22km/h | 23718m | 4.2m/s | -51.7°C | 0.7% | 32.8hPa | 2.5V | 18:12:15 | 01:53:24 | 00:00:00 | |
| WPPR-10 | 2026-09-03 00:10:56 | 50.97990 | 8.26968 | 235° | 20km/h | 23718m | 4.2m/s | -51.7°C | 1.1% | 32.8hPa | 2.5V | 00:00:00 | 00:00:00 | 00:00:00 | |
| DB0NH | 2026-09-03 00:10:55 | 50.97994 | 8.26975 | 231° | 27km/h | 23714m | 5.3m/s | -51.7°C | 3.9% | 32.7hPa | 2.5V | 00:00:00 | 01:53:23 | 00:00:00 | |
| DL1XH1-15 | 2026-09-03 00:10:54 | 50.98019 | 8.27017 | 231° | 20km/h | 23684m | 5m/s | -51.6°C | 3.9% | 33hPa | 2.5V | 08:30:00 | 01:53:17 | 00:00:00 | |
| DL1NUX | 2026-09-03 00:10:54 | 50.98003 | 8.26990 | 223° | 27km/h | 23703m | 4.1m/s | -51.7°C | 3.9% | 32.8hPa | 2.6V | 08:30:00 | 01:53:21 | 00:00:00 | |
| AA1-15 | 2026-09-03 00:10:52 | 50.98008 | 8.26997 | 224° | 26km/h | 23699m | 4.7m/s | -51.7°C | 0.7% | 32.9hPa | 2.6V | 18:12:15 | 01:53:20 | 00:00:00 | |
| HSKMA3-T | 2026-09-03 00:10:51 | 50.98012 | 8.27004 | 228° | 22km/h | 23694m | 5.5m/s | -51.7°C | 0.7% | 32.9hPa | 2.5V | 18:12:15 | 01:53:19 | 00:00:00 | |
| DL1XH-west | 2026-09-03 00:10:49 | 50.98019 | 8.27017 | 232° | 20km/h | 23684m | 5m/s | -51.6°C | 0.7% | 33hPa | 2.5V | 18:12:15 | 01:53:17 | 00:00:00 | |
| DF7PN | 2026-09-03 00:10:49 | 50.98022 | 8.27023 | 228° | 20km/h | 23679m | 5.6m/s | -51.7°C | 1.1% | 33.0hPa | 2.6V | 00:00:00 | 00:00:00 | 00:00:00 | |
| DJ2DS-15 | 2026-09-03 00:10:46 | 50.98033 | 8.27042 | 227° | 20km/h | 23664m | 5.9m/s | -51.7°C | 1.1% | 33.0hPa | 2.6V | 00:00:00 | 00:00:00 | 00:00:00 | |
| BIOWL1-15 | 2026-09-03 00:10:45 | 50.98040 | 8.27054 | 221° | 24km/h | 23654m | 4m/s | -51.7°C | 0.7% | 33.1hPa | 2.6V | 18:12:15 | 01:53:11 | 00:00:00 | |
| DO3MHA-11 | 2026-09-03 00:10:45 | 50.98033 | 8.27042 | 228° | 27km/h | 23664m | 5.8m/s | -51.6°C | 3.9% | 33.0hPa | 2.5V | 00:00:00 | 01:53:13 | 00:00:00 | |
| DL1XH1-15 | 2026-09-03 00:10:44 | 50.98065 | 8.27080 | 210° | 33km/h | 23634m | 5.7m/s | -51.7°C | 3.9% | 33.2hPa | 2.5V | 08:30:00 | 01:53:07 | 00:00:00 | |
| AA1-15 | 2026-09-03 00:10:41 | 50.98051 | 8.27066 | 213° | 31km/h | 23644m | 5m/s | -51.7°C | 0.7% | 33.1hPa | 2.5V | 18:12:15 | 01:53:09 | 00:00:00 | |
| DM0DOS-11 | 2026-09-03 00:10:39 | 50.98072 | 8.27086 | 210° | 29km/h | 23629m | 5.1m/s | -51.7°C | 3.9% | 33.3hPa | 2.5V | 08:30:00 | 01:53:06 | 00:00:00 | |
| DL1XH-west | 2026-09-03 00:10:38 | 50.98072 | 8.27086 | 211° | 29km/h | 23629m | 5.1m/s | -51.7°C | 0.7% | 33.3hPa | 2.5V | 18:12:15 | 01:53:06 | 00:00:00 | |
| BIOWL1-15 | 2026-09-03 00:10:32 | 50.98112 | 8.27115 | 200° | 29km/h | 23601m | 4.6m/s | -51.7°C | 0.7% | 33.4hPa | 2.5V | 18:12:15 | 01:53:00 | 00:00:00 | |
| DL3OBA | 2026-09-03 00:10:32 | 50.98112 | 8.27115 | 201° | 29km/h | 23601m | 4.6m/s | -51.7°C | 1.1% | 33.4hPa | 2.5V | 00:00:00 | 00:00:00 | 00:00:00 | |
| DL1XH-15 | 2026-09-03 00:10:31 | 50.98139 | 8.27129 | 196° | 31km/h | 23581m | 5.7m/s | -51.8°C | 3.9% | 33.5hPa | 2.5V | 08:30:00 | 01:52:56 | 00:00:00 | |
| AA1-15 | 2026-09-03 00:10:31 | 50.98119 | 8.27119 | 199° | 27km/h | 23595m | 5.8m/s | -51.7°C | 0.7% | 33.4hPa | 2.6V | 18:12:15 | 01:52:59 | 00:00:00 | |
| DJ2DS-15 | 2026-09-03 00:10:31 | 50.98119 | 8.27119 | 199° | 33km/h | 23596m | 5.7m/s | -51.7°C | 3.9% | 33.4hPa | 2.5V | 00:00:00 | 01:52:59 | 00:00:00 | |
| DL1XH1-15 | 2026-09-03 00:10:30 | 50.98132 | 8.27126 | 196° | 27km/h | 23586m | 4.3m/s | -51.8°C | 3.9% | 33.5hPa | 2.5V | 08:30:00 | 01:52:57 | 00:00:00 | |
| HSKMA3-T | 2026-09-03 00:10:30 | 50.98125 | 8.27122 | 198° | 26km/h | 23590m | 4.6m/s | -51.7°C | 0.7% | 33.4hPa | 2.6V | 18:12:15 | 01:52:58 | 00:00:00 | |
| DL1XH-west | 2026-09-03 00:10:28 | 50.98146 | 8.27132 | 195° | 33km/h | 23576m | 4.7m/s | -51.9°C | 0.7% | 33.5hPa | 2.5V | 18:12:15 | 01:52:55 | 00:00:00 | |
| DO9LL-15 | 2026-09-03 00:10:27 | 50.98146 | 8.27132 | 196° | 31km/h | 23576m | 4.6m/s | -51.8°C | 3.9% | 33.4hPa | 2.5V | 00:00:00 | 01:52:55 | 00:00:00 | |
| GOEST3-10 | 2026-09-03 00:10:26 | 50.98155 | 8.27136 | 196° | 31km/h | 23572m | 4.1m/s | -51.9°C | 3.9% | 33.5hPa | 2.5V | 00:00:00 | 01:52:54 | 00:00:00 | |
| DO3MHA-11 | 2026-09-03 00:10:25 | 50.98163 | 8.27140 | 196° | 33km/h | 23567m | 4.9m/s | -51.9°C | 3.9% | 33.5hPa | 2.5V | 00:00:00 | 01:52:53 | 00:00:00 | |
| DL1XH1-15 | 2026-09-03 00:10:24 | 50.98210 | 8.27163 | 189° | 37km/h | 23538m | 4.1m/s | -52.1°C | 4% | 33.7hPa | 2.5V | 08:30:00 | 01:52:47 | 00:00:00 | |
| DL1NUX | 2026-09-03 00:10:24 | 50.98178 | 8.27147 | 199° | 29km/h | 23557m | 4.4m/s | -52°C | 3.9% | 33.6hPa | 2.5V | 08:30:00 | 01:52:51 | 00:00:00 | |
| DD1CC8 | 2026-09-03 00:10:23 | 50.98178 | 8.27147 | 199° | 29km/h | 23557m | 4.4m/s | -52.0°C | 1.1% | 33.6hPa | 2.5V | 00:00:00 | 00:00:00 | 00:00:00 | |
| SO1NDE-10 | 2026-09-03 00:10:22 | 50.98185 | 8.27151 | 200° | 29km/h | 23553m | 4.3m/s | -52.0°C | 3.9% | 33.6hPa | 2.5V | 00:00:00 | 01:52:50 | 00:00:00 | |
| DL1XH-15 | 2026-09-03 00:10:21 | 50.98219 | 8.27164 | 183° | 35km/h | 23534m | 5.5m/s | -52.1°C | 4% | 33.7hPa | 2.5V | 08:30:00 | 01:52:46 | 00:00:00 | |
| AA1-15 | 2026-09-03 00:10:21 | 50.98193 | 8.27155 | 199° | 33km/h | 23548m | 5.6m/s | -52.1°C | 0.8% | 33.7hPa | 2.6V | 18:12:15 | 01:52:49 | 00:00:00 | |
| HSKMA3-T | 2026-09-03 00:10:19 | 50.98210 | 8.27163 | 190° | 37km/h | 23538m | 4.1m/s | -52.1°C | 0.8% | 33.7hPa | 2.5V | 18:12:15 | 01:52:47 | 00:00:00 | |
| DL1XH-west | 2026-09-03 00:10:17 | 50.98227 | 8.27164 | 176° | 33km/h | 23528m | 5.2m/s | -52.1°C | 0.8% | 33.8hPa | 2.5V | 18:12:15 | 01:52:45 | 00:00:00 | |
| GOEST3-10 | 2026-09-03 00:10:16 | 50.98236 | 8.27162 | 172° | 33km/h | 23524m | 4.2m/s | -52.0°C | 4.0% | 33.7hPa | 2.6V | 00:00:00 | 01:52:44 | 00:00:00 | |
| DO3MHA-11 | 2026-09-03 00:10:15 | 50.98243 | 8.27160 | 171° | 33km/h | 23519m | 4.8m/s | -52.0°C | 4.0% | 33.7hPa | 2.6V | 00:00:00 | 01:52:43 | 00:00:00 | |
| DL1NUX | 2026-09-03 00:10:14 | 50.98260 | 8.27158 | 176° | 35km/h | 23509m | 4.5m/s | -52°C | 4% | 33.9hPa | 2.6V | 08:30:00 | 01:52:41 | 00:00:00 | |
| DB0UT-7 | 2026-09-03 00:10:14 | 50.98252 | 8.27159 | 174° | 27km/h | 23514m | 5.1m/s | -52.0°C | 4.0% | 33.8hPa | 2.6V | 00:00:00 | 01:52:42 | 08:30:00 | |
| DO1YAY-16 | 2026-09-03 00:10:13 | 50.98260 | 8.27158 | 176° | 33km/h | 23509m | 4.5m/s | -52.0°C | 1.2% | 33.9hPa | 2.6V | 00:00:00 | 00:00:00 | 00:00:00 | |
| DO3DL | 2026-09-03 00:10:12 | 50.98260 | 8.27158 | 177° | 35km/h | 23509m | 4.5m/s | -52.0°C | 1.2% | 33.9hPa | 2.6V | 00:00:00 | 00:00:00 | 00:00:00 | |
| DL1XH-15 | 2026-09-03 00:10:11 | 50.98300 | 8.27154 | 175° | 29km/h | 23485m | 4.8m/s | -52°C | 4% | 34hPa | 2.6V | 08:30:00 | 01:52:36 | 00:00:00 | |
| DJ2DS-15 | 2026-09-03 00:10:11 | 50.98277 | 8.27156 | 178° | 27km/h | 23500m | 5.1m/s | -52.0°C | 4.0% | 33.9hPa | 2.6V | 00:00:00 | 01:52:39 | 00:00:00 | |
| DL1XH1-15 | 2026-09-03 00:10:10 | 50.98293 | 8.27155 | 174° | 29km/h | 23490m | 4.2m/s | -52°C | 4% | 34hPa | 2.6V | 08:30:00 | 01:52:37 | 00:00:00 | |
| AA1-15 | 2026-09-03 00:10:10 | 50.98285 | 8.27156 | 175° | 29km/h | 23495m | 5.2m/s | -52°C | 0.8% | 33.9hPa | 2.5V | 18:12:15 | 01:52:38 | 00:00:00 | |
| HSKMA3-T | 2026-09-03 00:10:08 | 50.98300 | 8.27154 | 175° | 29km/h | 23485m | 4.8m/s | -52°C | 0.8% | 34hPa | 2.6V | 18:12:15 | 01:52:36 | 00:00:00 | |
| DL1XH-west | 2026-09-03 00:10:06 | 50.98316 | 8.27152 | 178° | 33km/h | 23475m | 4.5m/s | -52°C | 0.8% | 34hPa | 2.5V | 18:12:15 | 01:52:34 | 00:00:00 | |
| HARRO8 | 2026-09-03 00:10:06 | 50.98324 | 8.27151 | 176° | 31km/h | 23471m | 3.9m/s | -52.0°C | 1.2% | 34.1hPa | 2.5V | 00:00:00 | 00:00:00 | 00:00:00 | |
| DO3MHA-11 | 2026-09-03 00:10:05 | 50.98324 | 8.27151 | 177° | 26km/h | 23471m | 3.8m/s | -51.9°C | 4.0% | 34.0hPa | 2.5V | 00:00:00 | 01:52:33 | 00:00:00 | |
| DL8DAS-15 | 2026-09-03 00:10:03 | 50.98331 | 8.27150 | 175° | 29km/h | 23467m | 5.6m/s | -51.9°C | 1.2% | 34.1hPa | 2.6V | 00:00:00 | 00:00:00 | 00:00:00 | |
| DL3AQ-11 | 2026-09-03 00:10:02 | 50.98351 | 8.27146 | 173° | 24km/h | 23452m | 5.5m/s | -51.9°C | 1.2% | 34.2hPa | 2.6V | 00:00:00 | 00:00:00 | 00:00:00 | |
| GOEST3-10 | 2026-09-03 00:10:01 | 50.98351 | 8.27146 | 174° | 26km/h | 23452m | 5.5m/s | -51.8°C | 4.0% | 34.1hPa | 2.6V | 00:00:00 | 00:00:00 | 00:00:00 | |
| DM0DOS-11 | 2026-09-03 00:10:00 | 50.98370 | 8.27145 | 178° | 26km/h | 23436m | 5.6m/s | -51.8°C | 4% | 34.2hPa | 2.6V | 08:30:00 | 01:52:26 | 00:00:00 | |
| AA1-15 | 2026-09-03 00:10:00 | 50.98357 | 8.27145 | 177° | 27km/h | 23446m | 5.3m/s | -51.9°C | 0.8% | 34.2hPa | 2.5V | 18:12:15 | 01:52:28 | 00:00:00 | |
| HSKMA3-T | 2026-09-03 00:09:58 | 50.98370 | 8.27145 | 179° | 26km/h | 23436m | 5.6m/s | -51.8°C | 0.8% | 34.2hPa | 2.6V | 18:12:15 | 01:52:26 | 00:00:00 | |
| DL1XH-west | 2026-09-03 00:09:56 | 50.98383 | 8.27144 | 175° | 24km/h | 23426m | 5m/s | -51.8°C | 0.8% | 34.3hPa | 2.5V | 18:12:15 | 01:52:24 | 00:00:00 | |
| EDDB2-11 | 2026-09-03 00:09:55 | 50.98389 | 8.27143 | 175° | 26km/h | 23421m | 5.6m/s | -51.8°C | 1.1% | 34.3hPa | 2.5V | 00:00:00 | 00:00:00 | 00:00:00 | |
| WPPR-10 | 2026-09-03 00:09:54 | 50.98403 | 8.27141 | 175° | 27km/h | 23411m | 3.9m/s | -51.7°C | 1.1% | 34.4hPa | 2.5V | 00:00:00 | 00:00:00 | 00:00:00 | |
| BIOWL7-15 | 2026-09-03 00:09:53 | 50.98396 | 8.27142 | 177° | 27km/h | 23415m | 5.2m/s | -51.7°C | 1.2% | 34.4hPa | 2.5V | 00:00:00 | 00:00:00 | 00:00:00 | |
| SO1NDE-10 | 2026-09-03 00:09:52 | 50.98410 | 8.27140 | 176° | 20km/h | 23407m | 4.9m/s | -51.7°C | 4.0% | 34.4hPa | 2.5V | 00:00:00 | 01:52:20 | 00:00:00 | |
| DJ2KF-10 | 2026-09-03 00:09:51 | 50.98416 | 8.27139 | 175° | 18km/h | 23401m | 5.5m/s | -51.7°C | 3.9% | 34.4hPa | 2.5V | 00:00:00 | 01:52:19 | 00:00:00 | |
| DM0DOS-11 | 2026-09-03 00:09:50 | 50.98433 | 8.27137 | 177° | 22km/h | 23385m | 5.4m/s | -51.7°C | 3.9% | 34.5hPa | 2.5V | 08:30:00 | 01:52:16 | 00:00:00 | |
| DL1XH1-15 | 2026-09-03 00:09:50 | 50.98427 | 8.27138 | 176° | 20km/h | 23391m | 5.1m/s | -51.7°C | 3.9% | 34.5hPa | 2.5V | 08:30:00 | 01:52:17 | 00:00:00 | |
| AA1-15 | 2026-09-03 00:09:49 | 50.98427 | 8.27138 | 176° | 22km/h | 23391m | 5.1m/s | -51.7°C | 0.7% | 34.5hPa | 2.5V | 18:12:15 | 01:52:17 | 00:00:00 | |
| HSKMA3-T | 2026-09-03 00:09:47 | 50.98438 | 8.27137 | 178° | 22km/h | 23381m | 4.1m/s | -51.8°C | 0.8% | 34.5hPa | 2.6V | 18:12:15 | 01:52:15 | 00:00:00 | |
| DL1XH-west | 2026-09-03 00:09:46 | 50.98444 | 8.27137 | 178° | 20km/h | 23376m | 5m/s | -51.7°C | 0.8% | 34.5hPa | 2.6V | 18:12:15 | 01:52:14 | 00:00:00 | |
| BIOWL1-15 | 2026-09-03 00:09:45 | 50.98458 | 8.27134 | 167° | 20km/h | 23361m | 5.1m/s | -51.7°C | 0.8% | 34.6hPa | 2.5V | 18:12:15 | 01:52:11 | 00:00:00 | |
| DO3MHA-11 | 2026-09-03 00:09:45 | 50.98448 | 8.27136 | 175° | 22km/h | 23371m | 5.5m/s | -51.7°C | 3.9% | 34.5hPa | 2.5V | 00:00:00 | 01:52:13 | 00:00:00 | |
| DL1NUX | 2026-09-03 00:09:44 | 50.98458 | 8.27134 | 166° | 20km/h | 23361m | 5.1m/s | -51.7°C | 3.9% | 34.6hPa | 2.5V | 08:30:00 | 01:52:11 | 00:00:00 | |
| DB0UT-7 | 2026-09-03 00:09:44 | 50.98453 | 8.27135 | 169° | 18km/h | 23366m | 4.7m/s | -51.7°C | 4.0% | 34.6hPa | 2.5V | 00:00:00 | 00:00:00 | 00:00:00 | |
| HTAHTA | 2026-09-03 00:09:43 | 50.98464 | 8.27131 | 166° | 24km/h | 23356m | 5.4m/s | -51.7°C | 1.2% | 34.7hPa | 2.5V | 00:00:00 | 00:00:00 | 00:00:00 | |
| DO1YAY-16 | 2026-09-03 00:09:42 | 50.98464 | 8.27131 | 166° | 24km/h | 23356m | 5.4m/s | -51.7°C | 1.2% | 34.7hPa | 2.5V | 00:00:00 | 00:00:00 | 00:00:00 | |
| DL1XH-15 | 2026-09-03 00:09:41 | 50.98486 | 8.27120 | 156° | 20km/h | 23336m | 4.7m/s | -51.7°C | 4% | 34.8hPa | 2.5V | 08:30:00 | 01:52:06 | 00:00:00 | |
| AA1-15 | 2026-09-03 00:09:39 | 50.98481 | 8.27123 | 159° | 22km/h | 23341m | 5.7m/s | -51.7°C | 0.7% | 34.7hPa | 2.5V | 18:12:15 | 01:52:07 | 00:00:00 | |
| HSKMA3-T | 2026-09-03 00:09:37 | 50.98491 | 8.27117 | 158° | 20km/h | 23332m | 4.7m/s | -51.7°C | 0.8% | 34.8hPa | 2.6V | 18:12:15 | 01:52:05 | 00:00:00 | |
| DL1XH-west | 2026-09-03 00:09:36 | 50.98495 | 8.27114 | 160° | 20km/h | 23326m | 5.1m/s | -51.7°C | 0.8% | 34.8hPa | 2.6V | 18:12:15 | 01:52:04 | 00:00:00 | |
| BIOWL1-15 | 2026-09-03 00:09:35 | 50.98500 | 8.27111 | 158° | 20km/h | 23322m | 3.9m/s | -51.7°C | 0.8% | 34.9hPa | 2.5V | 18:12:15 | 01:52:03 | 00:00:00 | |
| DO3MHA-11 | 2026-09-03 00:09:35 | 50.98500 | 8.27111 | 159° | 16km/h | 23322m | 3.9m/s | -51.7°C | 4.0% | 34.8hPa | 2.5V | 00:00:00 | 01:52:03 | 08:30:00 | |
| DL1NUX | 2026-09-03 00:09:34 | 50.98508 | 8.27104 | 144° | 16km/h | 23313m | 5.7m/s | -51.8°C | 4% | 34.9hPa | 2.5V | 08:30:00 | 01:52:01 | 00:00:00 | |
| DJ3KS | 2026-09-03 00:09:33 | 50.98504 | 8.27108 | 154° | 18km/h | 23318m | 4.0m/s | -51.8°C | 1.2% | 34.9hPa | 2.5V | 00:00:00 | 00:00:00 | 00:00:00 | |
| DO3DL | 2026-09-03 00:09:32 | 50.98508 | 8.27104 | 146° | 16km/h | 23313m | 5.7m/s | -51.8°C | 1.2% | 34.9hPa | 2.5V | 00:00:00 | 00:00:00 | 00:00:00 | |
| DJ2DS-15 | 2026-09-03 00:09:31 | 50.98514 | 8.27096 | 138° | 15km/h | 23303m | 4.5m/s | -51.7°C | 4.0% | 34.9hPa | 2.5V | 00:00:00 | 01:51:59 | 00:00:00 | |
| DL1XH1-15 | 2026-09-03 00:09:30 | 50.98521 | 8.27089 | 161° | 18km/h | 23293m | 5.2m/s | -51.8°C | 4% | 35hPa | 2.5V | 08:30:00 | 01:51:57 | 00:00:00 | |
| AA1-15 | 2026-09-03 00:09:28 | 50.98526 | 8.27088 | 171° | 18km/h | 23288m | 4.2m/s | -51.8°C | 0.8% | 35hPa | 2.5V | 18:12:15 | 01:51:56 | 00:00:00 | |
| HSKMA3-T | 2026-09-03 00:09:26 | 50.98534 | 8.27087 | 181° | 15km/h | 23278m | 5.6m/s | -51.8°C | 0.7% | 35.1hPa | 2.6V | 18:12:15 | 01:51:54 | 00:00:00 | |
| DL1XH-west | 2026-09-03 00:09:26 | 50.98537 | 8.27087 | 183° | 13km/h | 23273m | 4.7m/s | -51.7°C | 0.8% | 35.1hPa | 2.5V | 18:12:15 | 01:51:53 | 00:00:00 | |
| BIOWL1-15 | 2026-09-03 00:09:25 | 50.98544 | 8.27087 | 172° | 13km/h | 23263m | 5.5m/s | -51.7°C | 0.8% | 35.2hPa | 2.5V | 18:12:15 | 01:51:51 | 00:00:00 | |
| DB0NH | 2026-09-03 00:09:24 | 50.98540 | 8.27087 | 179° | 13km/h | 23268m | 5.2m/s | -51.6°C | 3.9% | 35.1hPa | 2.5V | 00:00:00 | 01:51:52 | 00:00:00 | |
| SO1NDE-10 | 2026-09-03 00:09:22 | 50.98547 | 8.27086 | 161° | 13km/h | 23258m | 4.7m/s | -51.6°C | 3.9% | 35.2hPa | 2.5V | 00:00:00 | 01:51:50 | 00:00:00 | |
| DD1CC8 | 2026-09-03 00:09:21 | 50.98551 | 8.27080 | 125° | 11km/h | 23247m | 5.4m/s | -51.6°C | 1.2% | 35.3hPa | 2.5V | 00:00:00 | 00:00:00 | 00:00:00 | |
| DM0DOS-11 | 2026-09-03 00:09:20 | 50.98555 | 8.27071 | 117° | 15km/h | 23238m | 4.9m/s | -51.6°C | 3.9% | 35.3hPa | 2.5V | 08:30:00 | 01:51:46 | 00:00:00 | |
| AA1-15 | 2026-09-03 00:09:19 | 50.98555 | 8.27071 | 118° | 15km/h | 23238m | 4.9m/s | -51.6°C | 0.7% | 35.3hPa | 2.5V | 18:12:15 | 01:51:46 | 00:00:00 | |
| HSKMA3-T | 2026-09-03 00:09:15 | 50.98563 | 8.27055 | 139° | 18km/h | 23223m | 4.5m/s | -51.6°C | 0.7% | 35.4hPa | 2.6V | 18:12:15 | 01:51:43 | 00:00:00 | |
| DL1XH-west | 2026-09-03 00:09:14 | 50.98566 | 8.27051 | 144° | 15km/h | 23218m | 5m/s | -51.6°C | 0.8% | 35.4hPa | 2.6V | 18:12:15 | 01:51:42 | 00:00:00 | |
| DL1NUX | 2026-09-03 00:09:14 | 50.98569 | 8.27048 | 154° | 11km/h | 23213m | 5m/s | -51.6°C | 3.9% | 35.5hPa | 2.5V | 08:30:00 | 01:51:41 | 00:00:00 | |
| BIOWL1-15 | 2026-09-03 00:09:12 | 50.98571 | 8.27047 | 184° | 9km/h | 23209m | 3.8m/s | -51.6°C | 0.7% | 35.5hPa | 2.5V | 18:12:15 | 01:51:40 | 00:00:00 | |
| DL1XH-15 | 2026-09-03 00:09:11 | 50.98583 | 8.27053 | 183° | 15km/h | 23190m | 3.8m/s | -51.5°C | 3.9% | 35.6hPa | 2.5V | 08:30:00 | 01:51:36 | 00:00:00 | |
| AA1-15 | 2026-09-03 00:09:07 | 50.98587 | 8.27052 | 165° | 13km/h | 23186m | 4.4m/s | -51.6°C | 0.7% | 35.6hPa | 2.5V | 18:12:15 | 01:51:35 | 00:00:00 | |
| HSKMA3-T | 2026-09-03 00:09:05 | 50.98591 | 8.27046 | 111° | 11km/h | 23176m | 5.1m/s | -51.6°C | 0.7% | 35.6hPa | 2.6V | 18:12:15 | 01:51:33 | 00:00:00 | |
| DO3MHA-11 | 2026-09-03 00:09:05 | 50.98591 | 8.27046 | 111° | 15km/h | 23176m | 5.1m/s | -51.5°C | 3.8% | 35.6hPa | 2.6V | 00:00:00 | 01:51:33 | 00:00:00 | |
| DL1NUX | 2026-09-03 00:09:04 | 50.98592 | 8.27038 | 106° | 11km/h | 23167m | 4.6m/s | -51.6°C | 3.8% | 35.7hPa | 2.5V | 08:30:00 | 01:51:31 | 00:00:00 | |
| DL1XH-west | 2026-09-03 00:09:04 | 50.98592 | 8.27038 | 107° | 11km/h | 23167m | 4.6m/s | -51.6°C | 0.7% | 35.7hPa | 2.5V | 18:12:15 | 01:51:31 | 00:00:00 | |
| BIOWL1-15 | 2026-09-03 00:09:01 | 50.98596 | 8.27029 | 138° | 15km/h | 23157m | 5.1m/s | -51.6°C | 0.7% | 35.7hPa | 2.5V | 18:12:15 | 01:51:29 | 00:00:00 | |
| DL1XH1-15 | 2026-09-03 00:08:59 | 50.98608 | 8.27020 | 165° | 16km/h | 23142m | 4.7m/s | -51.7°C | 3.9% | 35.8hPa | 2.6V | 08:30:00 | 01:51:26 | 00:00:00 | |
| AA1-15 | 2026-09-03 00:08:56 | 50.98615 | 8.27019 | 184° | 11km/h | 23132m | 5m/s | -51.8°C | 0.8% | 35.9hPa | 2.5V | 18:12:15 | 01:51:24 | 00:00:00 | |
| DO3MHA-12 | 2026-09-03 00:08:56 | 50.98614 | 8.27019 | 184° | 11km/h | 23132m | 5.0m/s | -51.7°C | 4.0% | 35.8hPa | 2.6V | 00:00:00 | 01:51:24 | 00:00:00 | |
| DO3MHA-11 | 2026-09-03 00:08:55 | 50.98617 | 8.27019 | 188° | 13km/h | 23127m | 4.2m/s | -51.7°C | 4.0% | 35.9hPa | 2.6V | 00:00:00 | 01:51:23 | 00:00:00 | |
| DL1NUX | 2026-09-03 00:08:54 | 50.98622 | 8.27020 | 176° | 11km/h | 23117m | 5.5m/s | -51.7°C | 3.9% | 36hPa | 2.6V | 08:30:00 | 01:51:21 | 00:00:00 | |
| DL1XH-west | 2026-09-03 00:08:54 | 50.98620 | 8.27020 | 184° | 9km/h | 23122m | 5.5m/s | -51.7°C | 0.7% | 36hPa | 2.5V | 18:12:15 | 01:51:22 | 00:00:00 | |
| EDDB2-11 | 2026-09-03 00:08:53 | 50.98622 | 8.27020 | 176° | 11km/h | 23117m | 5.5m/s | -51.7°C | 1.2% | 36.0hPa | 2.6V | 00:00:00 | 00:00:00 | 00:00:00 | |
| SO1NDE-10 | 2026-09-03 00:08:52 | 50.98625 | 8.27019 | 173° | 18km/h | 23112m | 4.9m/s | -51.6°C | 3.9% | 36.0hPa | 2.6V | 00:00:00 | 01:51:20 | 08:30:00 | |
| DJ2DS-15 | 2026-09-03 00:08:51 | 50.98628 | 8.27019 | 169° | 16km/h | 23106m | 5.7m/s | -51.6°C | 3.9% | 36.0hPa | 2.5V | 00:00:00 | 01:51:19 | 08:30:00 | |
| DM0DOS-11 | 2026-09-03 00:08:50 | 50.98636 | 8.27015 | 163° | 13km/h | 23092m | 5.6m/s | -51.6°C | 3.9% | 36.1hPa | 2.6V | 08:30:00 | 01:51:16 | 00:00:00 | |
| AA1-15 | 2026-09-03 00:08:46 | 50.98643 | 8.27012 | 164° | 16km/h | 23081m | 4.7m/s | -51.6°C | 0.7% | 36.2hPa | 2.5V | 18:12:15 | 01:51:14 | 00:00:00 | |
| HSKMA3-T | 2026-09-03 00:08:44 | 50.98650 | 8.27009 | 169° | 11km/h | 23071m | 5.4m/s | -51.7°C | 0.7% | 36.3hPa | 2.5V | 18:12:15 | 01:51:12 | 00:00:00 | |
| DL1NUX | 2026-09-03 00:08:44 | 50.98653 | 8.27008 | 171° | 9km/h | 23066m | 4.2m/s | -51.7°C | 3.8% | 36.2hPa | 2.6V | 08:30:00 | 01:51:11 | 00:00:00 | |
| DL1XH-west | 2026-09-03 00:08:43 | 50.98653 | 8.27008 | 171° | 9km/h | 23066m | 4.3m/s | -51.7°C | 0.7% | 36.2hPa | 2.6V | 18:12:15 | 01:51:11 | 00:00:00 | |
| HTAHTA | 2026-09-03 00:08:41 | 50.98661 | 8.27005 | 166° | 15km/h | 23052m | 5.6m/s | -51.8°C | 1.1% | 36.3hPa | 2.6V | 00:00:00 | 00:00:00 | 00:00:00 | |
| DO1YAY-16 | 2026-09-03 00:08:40 | 50.98661 | 8.27005 | 166° | 15km/h | 23052m | 5.6m/s | -51.8°C | 1.1% | 36.3hPa | 2.6V | 00:00:00 | 00:00:00 | 00:00:00 | |
| DM0DOS-11 | 2026-09-03 00:08:39 | 50.98669 | 8.27002 | 167° | 18km/h | 23042m | 5.2m/s | -51.9°C | 3.8% | 36.4hPa | 2.6V | 08:30:00 | 01:51:06 | 00:00:00 | |
| BIOWL1-15 | 2026-09-03 00:08:39 | 50.98664 | 8.27004 | 166° | 18km/h | 23047m | 4.5m/s | -51.8°C | 0.7% | 36.4hPa | 2.5V | 18:12:15 | 01:51:07 | 00:00:00 | |
| AA1-15 | 2026-09-03 00:08:35 | 50.98683 | 8.26999 | 176° | 22km/h | 23027m | 4.7m/s | -51.9°C | 0.7% | 36.5hPa | 2.5V | 18:12:15 | 01:51:03 | 00:00:00 | |
| DL1NUX | 2026-09-03 00:08:34 | 50.98696 | 8.26998 | 176° | 27km/h | 23016m | 4.7m/s | -52°C | 3.9% | 36.6hPa | 2.5V | 08:30:00 | 01:51:01 | 00:00:00 | |
| HSKMA3-T | 2026-09-03 00:08:33 | 50.98696 | 8.26998 | 177° | 27km/h | 23016m | 4.7m/s | -52°C | 0.7% | 36.6hPa | 2.5V | 18:12:15 | 01:51:01 | 00:00:00 | |
| BIOWL1-15 | 2026-09-03 00:08:28 | 50.98724 | 8.26987 | 154° | 22km/h | 22991m | 5.4m/s | -52.2°C | 0.7% | 36.7hPa | 2.5V | 18:12:15 | 01:50:56 | 00:00:00 | |
| AA1-15 | 2026-09-03 00:08:25 | 50.98740 | 8.26973 | 147° | 26km/h | 22977m | 4.9m/s | -52.4°C | 0.8% | 36.8hPa | 2.6V | 18:12:15 | 01:50:53 | 00:00:00 | |
| HSKMA3-T | 2026-09-03 00:08:23 | 50.98750 | 8.26963 | 156° | 24km/h | 22967m | 4.5m/s | -52.5°C | 0.8% | 36.8hPa | 2.5V | 18:12:15 | 01:50:51 | 00:00:00 | |
| BIOWL1-15 | 2026-09-03 00:08:22 | 50.98788 | 8.26961 | 185° | 33km/h | 22941m | 4.9m/s | -52.5°C | 0.9% | 37hPa | 2.5V | 18:12:15 | 01:50:46 | 00:00:00 | |
| SO1NDE-10 | 2026-09-03 00:08:22 | 50.98756 | 8.26960 | 167° | 33km/h | 22963m | 5.3m/s | -52.5°C | 4.1% | 36.8hPa | 2.5V | 00:00:00 | 01:50:50 | 00:00:00 | |
| DJ2KF-10 | 2026-09-03 00:08:21 | 50.98763 | 8.26958 | 177° | 33km/h | 22957m | 5.9m/s | -52.5°C | 4.0% | 36.8hPa | 2.5V | 00:00:00 | 01:50:49 | 00:00:00 | |
| DM0DOS-11 | 2026-09-03 00:08:19 | 50.98788 | 8.26961 | 184° | 33km/h | 22941m | 4.9m/s | -52.5°C | 4.1% | 37hPa | 2.5V | 08:30:00 | 01:50:46 | 00:00:00 | |
| AA1-15 | 2026-09-03 00:08:14 | 50.98822 | 8.26949 | 149° | 38km/h | 22922m | 4.6m/s | -52.5°C | 0.9% | 37.1hPa | 2.5V | 18:12:15 | 01:50:42 | 00:00:00 | |
| DL1XH-west | 2026-09-03 00:08:13 | 50.98830 | 8.26940 | 139° | 38km/h | 22918m | 4.5m/s | -52.4°C | 0.9% | 37.1hPa | 2.5V | 18:12:15 | 01:50:41 | 00:00:00 | |
| HSKMA3-T | 2026-09-03 00:08:12 | 50.98837 | 8.26929 | 131° | 38km/h | 22912m | 6.2m/s | -52.4°C | 0.8% | 37.1hPa | 2.5V | 18:12:15 | 01:50:40 | 00:00:00 | |
| GOEST3-10 | 2026-09-03 00:08:11 | 50.98842 | 8.26918 | 123° | 29km/h | 22907m | 5.3m/s | -52.4°C | 4.1% | 37.1hPa | 2.6V | 00:00:00 | 00:00:00 | 00:00:00 | |
| DJ2DS-15 | 2026-09-03 00:08:10 | 50.98847 | 8.26906 | 121° | 31km/h | 22902m | 3.6m/s | -52.4°C | 4.1% | 37.1hPa | 2.6V | 00:00:00 | 01:50:38 | 00:00:00 | |
| DL1XH1-15 | 2026-09-03 00:08:09 | 50.98856 | 8.26887 | 136° | 27km/h | 22892m | 5.3m/s | -52.5°C | 4% | 37.3hPa | 2.6V | 08:30:00 | 01:50:36 | 00:00:00 | |
| BIOWL1-15 | 2026-09-03 00:08:07 | 50.98861 | 8.26881 | 150° | 26km/h | 22887m | 4.8m/s | -52.4°C | 0.8% | 37.3hPa | 2.5V | 18:12:15 | 01:50:35 | 00:00:00 | |
| DF8AY | 2026-09-03 00:08:04 | 50.98877 | 8.26872 | 167° | 24km/h | 22872m | 3.9m/s | 0°C | 0% | 0hPa | 2.6V | 18:12:15 | 01:50:32 | 00:00:00 | |
| DL1NUX | 2026-09-03 00:08:04 | 50.98883 | 8.26870 | 161° | 27km/h | 22868m | 4.1m/s | -52.4°C | 4% | 37.4hPa | 2.6V | 08:30:00 | 01:50:31 | 00:00:00 | |
| AA1-15 | 2026-09-03 00:08:03 | 50.98883 | 8.26870 | 161° | 27km/h | 22868m | 4.1m/s | -52.4°C | 0.8% | 37.4hPa | 2.6V | 18:12:15 | 01:50:31 | 00:00:00 | |
| HSKMA3-T | 2026-09-03 00:08:01 | 50.98898 | 8.26858 | 145° | 38km/h | 22858m | 4.8m/s | -52.6°C | 0.8% | 37.5hPa | 2.5V | 18:12:15 | 01:50:29 | 00:00:00 | |
| DL1XH-15 | 2026-09-03 00:08:01 | 50.98917 | 8.26821 | 114° | 40km/h | 22842m | 5.8m/s | -52.5°C | 4.1% | 37.5hPa | 2.6V | 08:30:00 | 01:50:26 | 00:00:00 | |
| BIOWL1-15 | 2026-09-03 00:07:59 | 50.98921 | 8.26807 | 106° | 37km/h | 22837m | 4.8m/s | -52.5°C | 0.8% | 37.6hPa | 2.5V | 18:12:15 | 01:50:25 | 00:00:00 | |
| DO9LL-15 | 2026-09-03 00:07:57 | 50.98921 | 8.26807 | 107° | 27km/h | 22837m | 4.7m/s | -52.5°C | 4.1% | 37.5hPa | 2.5V | 00:00:00 | 01:50:25 | 00:00:00 | |
| DO3MHA-12 | 2026-09-03 00:07:56 | 50.98923 | 8.26793 | 103° | 26km/h | 22833m | 4.0m/s | -52.5°C | 4.0% | 37.5hPa | 2.6V | 00:00:00 | 01:50:24 | 00:00:00 | |
| GOEST3-10 | 2026-09-03 00:07:55 | 50.98925 | 8.26782 | 106° | 29km/h | 22829m | 4.5m/s | -52.5°C | 4.0% | 37.6hPa | 2.6V | 00:00:00 | 01:50:23 | 00:00:00 | |
| DL1NUX | 2026-09-03 00:07:54 | 50.98930 | 8.26762 | 125° | 27km/h | 22817m | 6m/s | -52.5°C | 4% | 37.7hPa | 2.6V | 08:30:00 | 01:50:21 | 00:00:00 | |
| DL1XH-west | 2026-09-03 00:07:53 | 50.98930 | 8.26762 | 125° | 27km/h | 22817m | 6m/s | -52.5°C | 0.8% | 37.7hPa | 2.6V | 18:12:15 | 01:50:21 | 00:00:00 | |
| HSKMA3-T | 2026-09-03 00:07:51 | 50.98940 | 8.26747 | 142° | 27km/h | 22807m | 4.2m/s | -52.5°C | 0.8% | 37.7hPa | 2.5V | 18:12:15 | 01:50:19 | 00:00:00 | |
| EDDB2-11 | 2026-09-03 00:07:51 | 50.98940 | 8.26747 | 142° | 26km/h | 22807m | 4.2m/s | -52.5°C | 1.2% | 37.7hPa | 2.5V | 00:00:00 | 00:00:00 | 00:00:00 | |
| DL3AQ-11 | 2026-09-03 00:07:49 | 50.98953 | 8.26727 | 120° | 20km/h | 22792m | 4.7m/s | -52.6°C | 1.2% | 37.8hPa | 2.5V | 00:00:00 | 00:00:00 | 00:00:00 | |
| DD1CC8 | 2026-09-03 00:07:48 | 50.98955 | 8.26719 | 108° | 24km/h | 22788m | 4.1m/s | -52.6°C | 1.2% | 37.9hPa | 2.5V | 00:00:00 | 00:00:00 | 00:00:00 | |
| BIOWL1-15 | 2026-09-03 00:07:46 | 50.98975 | 8.26636 | 106° | 29km/h | 22754m | 5.1m/s | -52.7°C | 0.8% | 38.1hPa | 2.5V | 18:12:15 | 01:50:08 | 00:00:00 | |
| DJ2DS-15 | 2026-09-03 00:07:45 | 50.98959 | 8.26697 | 108° | 31km/h | 22778m | 5.7m/s | -52.6°C | 1.2% | 37.9hPa | 2.5V | 00:00:00 | 00:00:00 | 00:00:00 | |
| DL1NUX | 2026-09-03 00:07:44 | 50.98966 | 8.26672 | 114° | 35km/h | 22768m | 4.4m/s | -52.7°C | 4.1% | 38hPa | 2.5V | 08:30:00 | 01:50:11 | 00:00:00 | |
| AA1-15 | 2026-09-03 00:07:43 | 50.98966 | 8.26672 | 115° | 35km/h | 22768m | 4.4m/s | -52.7°C | 0.8% | 38hPa | 2.5V | 18:12:15 | 01:50:11 | 00:00:00 | |
| HSKMA3-T | 2026-09-03 00:07:42 | 50.98973 | 8.26648 | 111° | 31km/h | 22759m | 4.9m/s | -52.7°C | 0.9% | 38hPa | 2.6V | 18:12:15 | 01:50:09 | 00:00:00 | |
| DJ8HS-15 | 2026-09-03 00:07:39 | 50.98977 | 8.26625 | 101° | 24km/h | 22749m | 4.6m/s | -52.7°C | 4.1% | 38.0hPa | 2.5V | 00:00:00 | 01:50:07 | 08:30:00 | |
| DL1NUX | 2026-09-03 00:07:38 | 50.98987 | 8.26562 | 102° | 26km/h | 22719m | 5.5m/s | -52.6°C | 4% | 38.2hPa | 2.5V | 08:30:00 | 01:50:01 | 00:00:00 | |
| DF8AY | 2026-09-03 00:07:37 | 50.98988 | 8.26553 | 101° | 24km/h | 22714m | 4.8m/s | 0°C | 0% | 0hPa | 2.6V | 18:12:15 | 01:50:00 | 00:00:00 | |
| BIOWL1-15 | 2026-09-03 00:07:33 | 50.98987 | 8.26562 | 103° | 26km/h | 22719m | 5.6m/s | -52.6°C | 0.8% | 38.2hPa | 2.5V | 18:12:15 | 01:50:01 | 00:00:00 | |
| DL1XH-west | 2026-09-03 00:07:31 | 50.98989 | 8.26543 | 104° | 24km/h | 22709m | 5.3m/s | -52.6°C | 0.8% | 38.3hPa | 2.6V | 18:12:15 | 01:49:59 | 00:00:00 | |
| DJ2DS-15 | 2026-09-03 00:07:30 | 50.98991 | 8.26535 | 109° | 22km/h | 22704m | 5.3m/s | -52.6°C | 4.0% | 38.3hPa | 2.5V | 00:00:00 | 01:49:58 | 00:00:00 | |
| GOEST3-10 | 2026-09-03 00:07:28 | 50.98994 | 8.26518 | 104° | 22km/h | 22694m | 4.7m/s | -52.6°C | 4.0% | 38.4hPa | 2.5V | 00:00:00 | 01:49:56 | 08:30:00 | |
| DD8BA-10 | 2026-09-03 00:07:27 | 50.98995 | 8.26510 | 96° | 24km/h | 22689m | 5.6m/s | -52.6°C | 4.0% | 38.4hPa | 2.5V | 00:00:00 | 00:00:00 | 00:00:00 | |
| DO3MHA-12 | 2026-09-03 00:07:26 | 50.98995 | 8.26502 | 91° | 22km/h | 22684m | 4.5m/s | -52.6°C | 4.0% | 38.4hPa | 2.5V | 00:00:00 | 01:49:54 | 00:00:00 | |
| DL1NUX | 2026-09-03 00:07:24 | 50.98997 | 8.26476 | 106° | 24km/h | 22669m | 5m/s | -52.7°C | 4% | 38.5hPa | 2.5V | 08:30:00 | 01:49:51 | 00:00:00 | |
| AA1-15 | 2026-09-03 00:07:23 | 50.98997 | 8.26476 | 106° | 24km/h | 22669m | 5m/s | -52.7°C | 0.8% | 38.5hPa | 2.5V | 18:12:15 | 01:49:51 | 00:00:00 | |
| BIOWL1-15 | 2026-09-03 00:07:22 | 50.98999 | 8.26467 | 107° | 26km/h | 22664m | 4.7m/s | -52.7°C | 0.8% | 38.6hPa | 2.5V | 18:12:15 | 01:49:50 | 00:00:00 | |
| SO1NDE-10 | 2026-09-03 00:07:22 | 50.98999 | 8.26467 | 107° | 18km/h | 22664m | 4.7m/s | -52.6°C | 4.0% | 38.5hPa | 2.5V | 00:00:00 | 01:49:50 | 00:00:00 | |
| DL1XH-15 | 2026-09-03 00:07:21 | 50.99005 | 8.26429 | 106° | 22km/h | 22643m | 5.8m/s | -52.7°C | 4% | 38.7hPa | 2.5V | 08:30:00 | 01:49:46 | 00:00:00 | |
| DF8AY | 2026-09-03 00:07:20 | 50.99003 | 8.26438 | 103° | 24km/h | 22648m | 4.8m/s | 0°C | 0% | 0hPa | 2.6V | 18:12:15 | 01:49:47 | 00:00:00 | |
| HSKMA3-T | 2026-09-03 00:07:20 | 50.99002 | 8.26447 | 101° | 26km/h | 22653m | 5.2m/s | -52.7°C | 0.8% | 38.6hPa | 2.6V | 18:12:15 | 01:49:48 | 00:00:00 | |
| EDDB2-11 | 2026-09-03 00:07:20 | 50.99002 | 8.26447 | 101° | 24km/h | 22653m | 5.2m/s | -52.7°C | 1.2% | 38.6hPa | 2.5V | 00:00:00 | 00:00:00 | 00:00:00 | |
| DJ8HS-15 | 2026-09-03 00:07:19 | 50.99003 | 8.26438 | 104° | 18km/h | 22648m | 4.8m/s | -52.6°C | 4.0% | 38.6hPa | 2.5V | 00:00:00 | 01:49:47 | 00:00:00 | |
| GOEST3-10 | 2026-09-03 00:07:18 | 50.99005 | 8.26429 | 107° | 20km/h | 22643m | 5.7m/s | -52.6°C | 4.0% | 38.7hPa | 2.5V | 00:00:00 | 01:49:46 | 00:00:00 | |
| SONCRA | 2026-09-03 00:07:17 | 50.99006 | 8.26421 | 108° | 18km/h | 22637m | 4.7m/s | -52.7°C | 1.2% | 38.8hPa | 2.5V | 00:00:00 | 00:00:00 | 00:00:00 | |
| DO3MHA-12 | 2026-09-03 00:07:16 | 50.99008 | 8.26414 | 104° | 20km/h | 22633m | 4.5m/s | -52.6°C | 4.0% | 38.7hPa | 2.5V | 00:00:00 | 01:49:44 | 00:00:00 | |
| DO3DL | 2026-09-03 00:07:15 | 50.99008 | 8.26414 | 105° | 18km/h | 22633m | 4.5m/s | -52.7°C | 1.2% | 38.8hPa | 2.5V | 00:00:00 | 00:00:00 | 00:00:00 | |
| DL1NUX | 2026-09-03 00:07:14 | 50.99008 | 8.26391 | 85° | 20km/h | 22618m | 4.6m/s | -52.8°C | 4% | 38.9hPa | 2.5V | 08:30:00 | 01:49:41 | 00:00:00 | |
| BIOWL1-15 | 2026-09-03 00:07:12 | 50.99008 | 8.26383 | 88° | 20km/h | 22613m | 5.8m/s | -52.9°C | 0.8% | 38.9hPa | 2.5V | 18:12:15 | 01:49:40 | 00:00:00 | |
| HSKMA3-T | 2026-09-03 00:07:10 | 50.99008 | 8.26368 | 95° | 20km/h | 22602m | 4m/s | -53°C | 0.8% | 39hPa | 2.6V | 18:12:15 | 01:49:38 | 00:00:00 | |
| DJ2DS-15 | 2026-09-03 00:07:10 | 50.99008 | 8.26368 | 96° | 15km/h | 22603m | 4.0m/s | -52.9°C | 4.1% | 38.9hPa | 2.5V | 00:00:00 | 01:49:38 | 00:00:00 | |
| DL1XH1-15 | 2026-09-03 00:07:09 | 50.99009 | 8.26352 | 84° | 20km/h | 22592m | 5.6m/s | -53.1°C | 4.1% | 39hPa | 2.5V | 08:30:00 | 01:49:36 | 00:00:00 | |
| DL3AQ-11 | 2026-09-03 00:07:09 | 50.99008 | 8.26352 | 84° | 18km/h | 22592m | 5.6m/s | -53.2°C | 1.2% | 39.0hPa | 2.6V | 00:00:00 | 00:00:00 | 00:00:00 | |
| DL1XH-15 | 2026-09-03 00:07:08 | 50.99006 | 8.26316 | 72° | 13km/h | 22561m | 4.8m/s | -53.3°C | 4.2% | 39.2hPa | 2.6V | 08:30:00 | 01:49:30 | 00:00:00 | |
| AA1-15 | 2026-09-03 00:07:01 | 50.99005 | 8.26311 | 74° | 13km/h | 22556m | 4.5m/s | -53.3°C | 0.9% | 39.3hPa | 2.5V | 18:12:15 | 01:49:29 | 00:00:00 | |
| DL1XH-west | 2026-09-03 00:07:00 | 50.99005 | 8.26306 | 84° | 11km/h | 22551m | 5.9m/s | -53.3°C | 0.9% | 39.3hPa | 2.5V | 18:12:15 | 01:49:28 | 00:00:00 | |
| HSKMA3-T | 2026-09-03 00:06:59 | 50.99005 | 8.26302 | 93° | 13km/h | 22545m | 5m/s | -53.3°C | 0.9% | 39.3hPa | 2.5V | 18:12:15 | 01:49:27 | 00:00:00 | |
| DM0DOS-11 | 2026-09-03 00:06:59 | 50.99005 | 8.26297 | 91° | 13km/h | 22541m | 4.8m/s | -53.3°C | 4.3% | 39.3hPa | 2.6V | 08:30:00 | 01:49:26 | 00:00:00 | |
| BUE01 | 2026-09-03 00:06:59 | 50.99005 | 8.26297 | 91° | 13km/h | 22541m | 4.9m/s | -53.3°C | 1.3% | 39.3hPa | 2.6V | 00:00:00 | 00:00:00 | 00:00:00 | |
| DL3AQ-11 | 2026-09-03 00:06:58 | 50.99005 | 8.26291 | 87° | 15km/h | 22535m | 5.6m/s | -53.3°C | 1.3% | 39.4hPa | 2.6V | 00:00:00 | 00:00:00 | 00:00:00 | |
| DD8BA-10 | 2026-09-03 00:06:57 | 50.99005 | 8.26291 | 88° | 11km/h | 22536m | 5.5m/s | -53.3°C | 4.3% | 39.3hPa | 2.6V | 00:00:00 | 00:00:00 | 00:00:00 | |
| DO3MHA-12 | 2026-09-03 00:06:56 | 50.99005 | 8.26284 | 87° | 9km/h | 22531m | 4.5m/s | -53.3°C | 4.2% | 39.3hPa | 2.6V | 00:00:00 | 01:49:24 | 00:00:00 | |
| DL1XH-15 | 2026-09-03 00:06:55 | 50.99006 | 8.26263 | 93° | 9km/h | 22510m | 4.8m/s | -53.3°C | 4.2% | 39.5hPa | 2.6V | 08:30:00 | 01:49:20 | 00:00:00 | |
| DL1NUX | 2026-09-03 00:06:54 | 50.99006 | 8.26267 | 103° | 11km/h | 22515m | 4.4m/s | -53.3°C | 4.2% | 39.5hPa | 2.6V | 08:30:00 | 01:49:21 | 00:00:00 | |
| BIOWL1-15 | 2026-09-03 00:06:51 | 50.99003 | 8.26253 | 44° | 5km/h | 22490m | 5.8m/s | -53.2°C | 0.9% | 39.6hPa | 2.6V | 18:12:15 | 01:49:16 | 00:00:00 | |
| AA1-15 | 2026-09-03 00:06:50 | 50.99005 | 8.26257 | 52° | 7km/h | 22500m | 4.5m/s | -53.3°C | 0.9% | 39.6hPa | 2.5V | 18:12:15 | 01:49:18 | 00:00:00 | |
| DL1XH-west | 2026-09-03 00:06:50 | 50.99002 | 8.26252 | 86° | 2km/h | 22485m | 5.1m/s | -53.2°C | 0.9% | 39.7hPa | 2.6V | 18:12:15 | 01:49:15 | 00:00:00 | |
| DL1XH1-15 | 2026-09-03 00:06:49 | 50.99002 | 8.26253 | 44° | 5km/h | 22490m | 5.8m/s | -53.2°C | 4.1% | 39.6hPa | 2.6V | 08:30:00 | 01:49:16 | 00:00:00 | |
| HSKMA3-T | 2026-09-03 00:06:49 | 50.99004 | 8.26255 | 43° | 7km/h | 22495m | 4.6m/s | -53.3°C | 0.9% | 39.6hPa | 2.5V | 18:12:15 | 01:49:17 | 00:00:00 | |
| DL1XH-15 | 2026-09-03 00:06:48 | 50.99003 | 8.26243 | 93° | 5km/h | 22461m | 5.2m/s | -53.1°C | 4.1% | 39.8hPa | 2.6V | 08:30:00 | 01:49:10 | 00:00:00 | |
| SONCRA | 2026-09-03 00:06:46 | 50.99002 | 8.26251 | 123° | 2km/h | 22480m | 4.3m/s | -53.2°C | 1.2% | 39.7hPa | 2.6V | 00:00:00 | 00:00:00 | 00:00:00 | |
| DD1CC8 | 2026-09-03 00:06:45 | 50.99003 | 8.26250 | 112° | 4km/h | 22476m | 4.7m/s | -53.2°C | 1.2% | 39.7hPa | 2.6V | 00:00:00 | 00:00:00 | 00:00:00 | |
| AA1-15 | 2026-09-03 00:06:40 | 50.99004 | 8.26238 | 116° | 7km/h | 22451m | 4.5m/s | -53.2°C | 0.9% | 39.9hPa | 2.6V | 18:12:15 | 01:49:08 | 00:00:00 | |
| DL1XH-west | 2026-09-03 00:06:39 | 50.99005 | 8.26235 | 107° | 9km/h | 22446m | 4.6m/s | -53.2°C | 0.9% | 40hPa | 2.5V | 18:12:15 | 01:49:07 | 00:00:00 | |
| DM0DOS-11 | 2026-09-03 00:06:39 | 50.99005 | 8.26231 | 92° | 13km/h | 22441m | 5.8m/s | -53.3°C | 4.1% | 40hPa | 2.5V | 08:30:00 | 01:49:06 | 00:00:00 | |
| HSKMA3-T | 2026-09-03 00:06:38 | 50.99005 | 8.26231 | 93° | 13km/h | 22441m | 5.8m/s | -53.3°C | 0.8% | 40hPa | 2.5V | 18:12:15 | 01:49:06 | 00:00:00 | |
| GOEST3-10 | 2026-09-03 00:06:38 | 50.99005 | 8.26230 | 93° | 15km/h | 22441m | 5.8m/s | -53.3°C | 4.1% | 39.9hPa | 2.6V | 00:00:00 | 01:49:06 | 00:00:00 | |
| DD8BA-10 | 2026-09-03 00:06:37 | 50.99005 | 8.26225 | 84° | 16km/h | 22436m | 4.4m/s | -53.4°C | 4.2% | 39.9hPa | 2.6V | 00:00:00 | 00:00:00 | 00:00:00 | |
| DO3MHA-12 | 2026-09-03 00:06:36 | 50.99005 | 8.26219 | 86° | 16km/h | 22432m | 4.1m/s | -53.4°C | 4.2% | 40.0hPa | 2.6V | 00:00:00 | 01:49:04 | 00:00:00 | |
| DL1XH-15 | 2026-09-03 00:06:35 | 50.99007 | 8.26194 | 113° | 15km/h | 22412m | 4.3m/s | -53.5°C | 4.2% | 40.1hPa | 2.5V | 08:30:00 | 01:49:00 | 00:00:00 | |
| DO3MHA-11 | 2026-09-03 00:06:34 | 50.99005 | 8.26205 | 102° | 16km/h | 22422m | 5.5m/s | -53.4°C | 4.2% | 40.0hPa | 2.5V | 00:00:00 | 01:49:02 | 08:30:00 | |
| GOEST3-10 | 2026-09-03 00:06:33 | 50.99006 | 8.26199 | 112° | 16km/h | 22417m | 4.6m/s | -53.5°C | 4.2% | 40.1hPa | 2.5V | 00:00:00 | 00:00:00 | 00:00:00 | |
| DJ2DS-15 | 2026-09-03 00:06:30 | 50.99010 | 8.26182 | 104° | 26km/h | 22402m | 5.3m/s | -53.5°C | 4.2% | 40.2hPa | 2.5V | 00:00:00 | 01:48:58 | 00:00:00 | |
| DM0DOS-11 | 2026-09-03 00:06:29 | 50.99012 | 8.26170 | 104° | 15km/h | 22391m | 5.6m/s | -53.6°C | 4.2% | 40.3hPa | 2.5V | 08:30:00 | 01:48:56 | 00:00:00 | |
| AA1-15 | 2026-09-03 00:06:29 | 50.99011 | 8.26176 | 102° | 15km/h | 22396m | 4.9m/s | -53.6°C | 0.9% | 40.2hPa | 2.5V | 18:12:15 | 01:48:57 | 00:00:00 | |
| HSKMA3-T | 2026-09-03 00:06:28 | 50.99012 | 8.26170 | 104° | 15km/h | 22391m | 5.6m/s | -53.6°C | 0.9% | 40.3hPa | 2.5V | 18:12:15 | 01:48:56 | 00:00:00 | |
| BIOWL1-15 | 2026-09-03 00:06:28 | 50.99013 | 8.26165 | 105° | 15km/h | 22386m | 4.2m/s | -53.7°C | 0.9% | 40.3hPa | 2.5V | 18:12:15 | 01:48:55 | 00:00:00 | |
| DL1XH-15 | 2026-09-03 00:06:27 | 50.99018 | 8.26118 | 105° | 31km/h | 22362m | 5.5m/s | -53.7°C | 4.3% | 40.4hPa | 2.5V | 08:30:00 | 01:48:50 | 00:00:00 | |
| AA1-15 | 2026-09-03 00:06:18 | 50.99030 | 8.26075 | 116° | 29km/h | 22344m | 4.8m/s | -53.6°C | 0.9% | 40.6hPa | 2.6V | 18:12:15 | 01:48:46 | 00:00:00 | |
| DL1XH-west | 2026-09-03 00:06:17 | 50.99033 | 8.26064 | 113° | 31km/h | 22338m | 5.4m/s | -53.6°C | 0.9% | 40.6hPa | 2.5V | 18:12:15 | 01:48:45 | 00:00:00 | |
| DD8BA-10 | 2026-09-03 00:06:17 | 50.99033 | 8.26064 | 113° | 27km/h | 22339m | 5.3m/s | -53.6°C | 4.2% | 40.6hPa | 2.5V | 00:00:00 | 00:00:00 | 00:00:00 | |
| Es werden nur die letzten 3500 von 7105 Frames angezeigt. GPX/KML und Diagramme bleiben verfügbar. | |||||||||||||||